<?xml version="1.0" encoding="utf-8"?>
<gpx xmlns:xsi="http://www.w3.org/2001/XMLSchema-instance" xmlns:xsd="http://www.w3.org/2001/XMLSchema" version="1.1" creator="Shapelink.com" xmlns="http://www.topografix.com/GPX/1/1" xmlns:gpxtpx="http://www.garmin.com/xmlschemas/TrackPointExtension/v1">
  <metadata>
    <name>Løping 22.82 km, 2014-06-17</name>
    <desc></desc>
    <author><name>Mikael Blom</name></author> 
    <time>2014-06-17T11:01:03Z</time>
  </metadata>
  <trk>
    <name>Løping 22.82 km, 2014-06-17</name>
    <trkseg>
      <trkpt lat="59.9788362" lon="17.7393537">
        <ele>34.7449</ele>
        <time>2014-06-17T11:01:03Z</time>
      </trkpt>
      <trkpt lat="59.9788191" lon="17.7393491">
        <ele>35.7061</ele>
        <time>2014-06-17T11:01:04Z</time>
      </trkpt>
      <trkpt lat="59.978794" lon="17.7393461">
        <ele>36.6675</ele>
        <time>2014-06-17T11:01:05Z</time>
      </trkpt>
      <trkpt lat="59.9787703" lon="17.7393475">
        <ele>38.5901</ele>
        <time>2014-06-17T11:01:06Z</time>
      </trkpt>
      <trkpt lat="59.978736" lon="17.7393491">
        <ele>40.5128</ele>
        <time>2014-06-17T11:01:07Z</time>
      </trkpt>
      <trkpt lat="59.9787062" lon="17.7393481">
        <ele>41.474</ele>
        <time>2014-06-17T11:01:08Z</time>
      </trkpt>
      <trkpt lat="59.9786784" lon="17.7393388">
        <ele>41.474</ele>
        <time>2014-06-17T11:01:09Z</time>
      </trkpt>
      <trkpt lat="59.9786513" lon="17.7393335">
        <ele>42.916</ele>
        <time>2014-06-17T11:01:10Z</time>
      </trkpt>
      <trkpt lat="59.9786248" lon="17.7393232">
        <ele>41.9547</ele>
        <time>2014-06-17T11:01:11Z</time>
      </trkpt>
      <trkpt lat="59.9785983" lon="17.73932">
        <ele>42.4354</ele>
        <time>2014-06-17T11:01:12Z</time>
      </trkpt>
      <trkpt lat="59.9785693" lon="17.739323">
        <ele>42.4354</ele>
        <time>2014-06-17T11:01:13Z</time>
      </trkpt>
      <trkpt lat="59.9785424" lon="17.7393226">
        <ele>41.9547</ele>
        <time>2014-06-17T11:01:14Z</time>
      </trkpt>
      <trkpt lat="59.9785144" lon="17.7393248">
        <ele>41.9547</ele>
        <time>2014-06-17T11:01:15Z</time>
      </trkpt>
      <trkpt lat="59.9784816" lon="17.7393256">
        <ele>41.474</ele>
        <time>2014-06-17T11:01:16Z</time>
      </trkpt>
      <trkpt lat="59.9784491" lon="17.7393294">
        <ele>40.0321</ele>
        <time>2014-06-17T11:01:17Z</time>
      </trkpt>
      <trkpt lat="59.9784201" lon="17.7393346">
        <ele>41.474</ele>
        <time>2014-06-17T11:01:18Z</time>
      </trkpt>
      <trkpt lat="59.9783959" lon="17.739331">
        <ele>40.9934</ele>
        <time>2014-06-17T11:01:19Z</time>
      </trkpt>
      <trkpt lat="59.9783729" lon="17.7393201">
        <ele>40.5128</ele>
        <time>2014-06-17T11:01:20Z</time>
      </trkpt>
      <trkpt lat="59.978349" lon="17.7393075">
        <ele>39.5513</ele>
        <time>2014-06-17T11:01:21Z</time>
      </trkpt>
      <trkpt lat="59.9783265" lon="17.7393024">
        <ele>38.1094</ele>
        <time>2014-06-17T11:01:22Z</time>
      </trkpt>
      <trkpt lat="59.9783025" lon="17.7393028">
        <ele>39.0707</ele>
        <time>2014-06-17T11:01:23Z</time>
      </trkpt>
      <trkpt lat="59.9782788" lon="17.7392954">
        <ele>40.0321</ele>
        <time>2014-06-17T11:01:24Z</time>
      </trkpt>
      <trkpt lat="59.9782524" lon="17.7392875">
        <ele>40.5128</ele>
        <time>2014-06-17T11:01:25Z</time>
      </trkpt>
      <trkpt lat="59.9782239" lon="17.7392864">
        <ele>40.9934</ele>
        <time>2014-06-17T11:01:26Z</time>
      </trkpt>
      <trkpt lat="59.9781973" lon="17.7392813">
        <ele>42.916</ele>
        <time>2014-06-17T11:01:27Z</time>
      </trkpt>
      <trkpt lat="59.9781658" lon="17.7392713">
        <ele>43.8773</ele>
        <time>2014-06-17T11:01:28Z</time>
      </trkpt>
      <trkpt lat="59.9781305" lon="17.7392694">
        <ele>47.7225</ele>
        <time>2014-06-17T11:01:29Z</time>
      </trkpt>
      <trkpt lat="59.9781031" lon="17.7392616">
        <ele>49.1646</ele>
        <time>2014-06-17T11:01:30Z</time>
      </trkpt>
      <trkpt lat="59.9780741" lon="17.7392595">
        <ele>52.5292</ele>
        <time>2014-06-17T11:01:31Z</time>
      </trkpt>
      <trkpt lat="59.9780434" lon="17.7392523">
        <ele>52.5292</ele>
        <time>2014-06-17T11:01:32Z</time>
      </trkpt>
      <trkpt lat="59.9780188" lon="17.739245">
        <ele>51.0872</ele>
        <time>2014-06-17T11:01:33Z</time>
      </trkpt>
      <trkpt lat="59.9779974" lon="17.7392387">
        <ele>50.126</ele>
        <time>2014-06-17T11:01:34Z</time>
      </trkpt>
      <trkpt lat="59.9779727" lon="17.7392304">
        <ele>49.1646</ele>
        <time>2014-06-17T11:01:35Z</time>
      </trkpt>
      <trkpt lat="59.9779451" lon="17.7392168">
        <ele>48.2034</ele>
        <time>2014-06-17T11:01:36Z</time>
      </trkpt>
      <trkpt lat="59.9779181" lon="17.7391916">
        <ele>47.2418</ele>
        <time>2014-06-17T11:01:37Z</time>
      </trkpt>
      <trkpt lat="59.9778936" lon="17.7391718">
        <ele>46.2806</ele>
        <time>2014-06-17T11:01:38Z</time>
      </trkpt>
      <trkpt lat="59.9778658" lon="17.7391602">
        <ele>45.3192</ele>
        <time>2014-06-17T11:01:39Z</time>
      </trkpt>
      <trkpt lat="59.9778374" lon="17.7391399">
        <ele>43.8773</ele>
        <time>2014-06-17T11:01:40Z</time>
      </trkpt>
      <trkpt lat="59.9778094" lon="17.7391176">
        <ele>42.916</ele>
        <time>2014-06-17T11:01:41Z</time>
      </trkpt>
      <trkpt lat="59.9777823" lon="17.7390927">
        <ele>41.9547</ele>
        <time>2014-06-17T11:01:42Z</time>
      </trkpt>
      <trkpt lat="59.977758" lon="17.7390726">
        <ele>40.9934</ele>
        <time>2014-06-17T11:01:43Z</time>
      </trkpt>
      <trkpt lat="59.9777318" lon="17.739062">
        <ele>40.5128</ele>
        <time>2014-06-17T11:01:44Z</time>
      </trkpt>
      <trkpt lat="59.9777037" lon="17.7390534">
        <ele>39.0707</ele>
        <time>2014-06-17T11:01:45Z</time>
      </trkpt>
      <trkpt lat="59.9776742" lon="17.739044">
        <ele>38.1094</ele>
        <time>2014-06-17T11:01:46Z</time>
      </trkpt>
      <trkpt lat="59.9776478" lon="17.7390383">
        <ele>38.1094</ele>
        <time>2014-06-17T11:01:47Z</time>
      </trkpt>
      <trkpt lat="59.9776189" lon="17.7390409">
        <ele>38.1094</ele>
        <time>2014-06-17T11:01:48Z</time>
      </trkpt>
      <trkpt lat="59.9775891" lon="17.7390404">
        <ele>38.5901</ele>
        <time>2014-06-17T11:01:49Z</time>
      </trkpt>
      <trkpt lat="59.9775631" lon="17.7390394">
        <ele>38.5901</ele>
        <time>2014-06-17T11:01:50Z</time>
      </trkpt>
      <trkpt lat="59.9775369" lon="17.7390461">
        <ele>38.5901</ele>
        <time>2014-06-17T11:01:51Z</time>
      </trkpt>
      <trkpt lat="59.9775068" lon="17.7390478">
        <ele>38.5901</ele>
        <time>2014-06-17T11:01:52Z</time>
      </trkpt>
      <trkpt lat="59.9774777" lon="17.7390524">
        <ele>39.5513</ele>
        <time>2014-06-17T11:01:53Z</time>
      </trkpt>
      <trkpt lat="59.9774468" lon="17.7390606">
        <ele>41.474</ele>
        <time>2014-06-17T11:01:54Z</time>
      </trkpt>
      <trkpt lat="59.9774157" lon="17.7390745">
        <ele>41.9547</ele>
        <time>2014-06-17T11:01:55Z</time>
      </trkpt>
      <trkpt lat="59.9773858" lon="17.7390925">
        <ele>43.3966</ele>
        <time>2014-06-17T11:01:56Z</time>
      </trkpt>
      <trkpt lat="59.977353" lon="17.7391237">
        <ele>46.2806</ele>
        <time>2014-06-17T11:01:57Z</time>
      </trkpt>
      <trkpt lat="59.9773193" lon="17.7391487">
        <ele>50.126</ele>
        <time>2014-06-17T11:01:58Z</time>
      </trkpt>
      <trkpt lat="59.9772898" lon="17.7391658">
        <ele>53.9712</ele>
        <time>2014-06-17T11:01:59Z</time>
      </trkpt>
      <trkpt lat="59.9772593" lon="17.7391835">
        <ele>57.3358</ele>
        <time>2014-06-17T11:02:00Z</time>
      </trkpt>
      <trkpt lat="59.9772266" lon="17.7392087">
        <ele>60.2197</ele>
        <time>2014-06-17T11:02:01Z</time>
      </trkpt>
      <trkpt lat="59.9771982" lon="17.7392244">
        <ele>61.181</ele>
        <time>2014-06-17T11:02:02Z</time>
      </trkpt>
      <trkpt lat="59.9771712" lon="17.7392284">
        <ele>61.181</ele>
        <time>2014-06-17T11:02:03Z</time>
      </trkpt>
      <trkpt lat="59.9771448" lon="17.7392362">
        <ele>61.6617</ele>
        <time>2014-06-17T11:02:04Z</time>
      </trkpt>
      <trkpt lat="59.9771216" lon="17.7392386">
        <ele>57.8165</ele>
        <time>2014-06-17T11:02:05Z</time>
      </trkpt>
      <trkpt lat="59.977094" lon="17.7392493">
        <ele>55.8938</ele>
        <time>2014-06-17T11:02:06Z</time>
      </trkpt>
      <trkpt lat="59.9770695" lon="17.7392642">
        <ele>54.4518</ele>
        <time>2014-06-17T11:02:07Z</time>
      </trkpt>
      <trkpt lat="59.9770483" lon="17.7392839">
        <ele>53.0098</ele>
        <time>2014-06-17T11:02:08Z</time>
      </trkpt>
      <trkpt lat="59.9770276" lon="17.7393041">
        <ele>53.4905</ele>
        <time>2014-06-17T11:02:09Z</time>
      </trkpt>
      <trkpt lat="59.9770048" lon="17.7393212">
        <ele>52.0486</ele>
        <time>2014-06-17T11:02:10Z</time>
      </trkpt>
      <trkpt lat="59.9769795" lon="17.7393393">
        <ele>50.126</ele>
        <time>2014-06-17T11:02:11Z</time>
      </trkpt>
      <trkpt lat="59.9769543" lon="17.7393558">
        <ele>48.684</ele>
        <time>2014-06-17T11:02:12Z</time>
      </trkpt>
      <trkpt lat="59.9769336" lon="17.7393705">
        <ele>46.7612</ele>
        <time>2014-06-17T11:02:13Z</time>
      </trkpt>
      <trkpt lat="59.9769106" lon="17.7393798">
        <ele>45.3192</ele>
        <time>2014-06-17T11:02:14Z</time>
      </trkpt>
      <trkpt lat="59.9768853" lon="17.7393907">
        <ele>44.8386</ele>
        <time>2014-06-17T11:02:15Z</time>
      </trkpt>
      <trkpt lat="59.976863" lon="17.7394007">
        <ele>45.7999</ele>
        <time>2014-06-17T11:02:16Z</time>
      </trkpt>
      <trkpt lat="59.9768396" lon="17.7394178">
        <ele>45.3192</ele>
        <time>2014-06-17T11:02:17Z</time>
      </trkpt>
      <trkpt lat="59.9768116" lon="17.7394362">
        <ele>44.8386</ele>
        <time>2014-06-17T11:02:18Z</time>
      </trkpt>
      <trkpt lat="59.9767823" lon="17.7394465">
        <ele>43.8773</ele>
        <time>2014-06-17T11:02:19Z</time>
      </trkpt>
      <trkpt lat="59.9767578" lon="17.7394574">
        <ele>44.358</ele>
        <time>2014-06-17T11:02:20Z</time>
      </trkpt>
      <trkpt lat="59.9767323" lon="17.7394651">
        <ele>43.8773</ele>
        <time>2014-06-17T11:02:21Z</time>
      </trkpt>
      <trkpt lat="59.9767055" lon="17.7394758">
        <ele>44.358</ele>
        <time>2014-06-17T11:02:22Z</time>
      </trkpt>
      <trkpt lat="59.9766812" lon="17.7394833">
        <ele>43.8773</ele>
        <time>2014-06-17T11:02:23Z</time>
      </trkpt>
      <trkpt lat="59.9766554" lon="17.7394885">
        <ele>42.916</ele>
        <time>2014-06-17T11:02:24Z</time>
      </trkpt>
      <trkpt lat="59.9766313" lon="17.7395092">
        <ele>42.4354</ele>
        <time>2014-06-17T11:02:25Z</time>
      </trkpt>
      <trkpt lat="59.9766081" lon="17.7395412">
        <ele>42.4354</ele>
        <time>2014-06-17T11:02:26Z</time>
      </trkpt>
      <trkpt lat="59.9765772" lon="17.7395686">
        <ele>41.474</ele>
        <time>2014-06-17T11:02:27Z</time>
      </trkpt>
      <trkpt lat="59.976545" lon="17.7395812">
        <ele>40.0321</ele>
        <time>2014-06-17T11:02:28Z</time>
      </trkpt>
      <trkpt lat="59.9765185" lon="17.7395945">
        <ele>37.6287</ele>
        <time>2014-06-17T11:02:29Z</time>
      </trkpt>
      <trkpt lat="59.9764927" lon="17.7396238">
        <ele>36.6675</ele>
        <time>2014-06-17T11:02:30Z</time>
      </trkpt>
      <trkpt lat="59.9764678" lon="17.7396577">
        <ele>34.2642</ele>
        <time>2014-06-17T11:02:31Z</time>
      </trkpt>
      <trkpt lat="59.9764433" lon="17.7396802">
        <ele>32.8223</ele>
        <time>2014-06-17T11:02:32Z</time>
      </trkpt>
      <trkpt lat="59.9764244" lon="17.7396993">
        <ele>31.8607</ele>
        <time>2014-06-17T11:02:33Z</time>
      </trkpt>
      <trkpt lat="59.9764013" lon="17.7397243">
        <ele>30.4188</ele>
        <time>2014-06-17T11:02:34Z</time>
      </trkpt>
      <trkpt lat="59.9763731" lon="17.7397464">
        <ele>28.4962</ele>
        <time>2014-06-17T11:02:35Z</time>
      </trkpt>
      <trkpt lat="59.9763465" lon="17.7397649">
        <ele>28.4962</ele>
        <time>2014-06-17T11:02:36Z</time>
      </trkpt>
      <trkpt lat="59.9763237" lon="17.7397724">
        <ele>28.9769</ele>
        <time>2014-06-17T11:02:37Z</time>
      </trkpt>
      <trkpt lat="59.9762999" lon="17.7397722">
        <ele>28.4962</ele>
        <time>2014-06-17T11:02:38Z</time>
      </trkpt>
      <trkpt lat="59.9762766" lon="17.7397673">
        <ele>28.4962</ele>
        <time>2014-06-17T11:02:39Z</time>
      </trkpt>
      <trkpt lat="59.9762536" lon="17.73976">
        <ele>28.0155</ele>
        <time>2014-06-17T11:02:40Z</time>
      </trkpt>
      <trkpt lat="59.9762319" lon="17.7397481">
        <ele>27.5349</ele>
        <time>2014-06-17T11:02:41Z</time>
      </trkpt>
      <trkpt lat="59.9762093" lon="17.7397343">
        <ele>26.5736</ele>
        <time>2014-06-17T11:02:42Z</time>
      </trkpt>
      <trkpt lat="59.976185" lon="17.7397198">
        <ele>25.1317</ele>
        <time>2014-06-17T11:02:43Z</time>
      </trkpt>
      <trkpt lat="59.9761615" lon="17.7397014">
        <ele>25.1317</ele>
        <time>2014-06-17T11:02:44Z</time>
      </trkpt>
      <trkpt lat="59.9761383" lon="17.7396872">
        <ele>24.651</ele>
        <time>2014-06-17T11:02:45Z</time>
      </trkpt>
      <trkpt lat="59.9761165" lon="17.7396718">
        <ele>24.651</ele>
        <time>2014-06-17T11:02:46Z</time>
      </trkpt>
      <trkpt lat="59.9760954" lon="17.7396506">
        <ele>24.651</ele>
        <time>2014-06-17T11:02:47Z</time>
      </trkpt>
      <trkpt lat="59.9760734" lon="17.7396252">
        <ele>24.1703</ele>
        <time>2014-06-17T11:02:48Z</time>
      </trkpt>
      <trkpt lat="59.9760521" lon="17.7395922">
        <ele>23.6896</ele>
        <time>2014-06-17T11:02:49Z</time>
      </trkpt>
      <trkpt lat="59.9760321" lon="17.7395536">
        <ele>23.6896</ele>
        <time>2014-06-17T11:02:50Z</time>
      </trkpt>
      <trkpt lat="59.9760118" lon="17.7395185">
        <ele>24.1703</ele>
        <time>2014-06-17T11:02:51Z</time>
      </trkpt>
      <trkpt lat="59.9759903" lon="17.7394811">
        <ele>24.1703</ele>
        <time>2014-06-17T11:02:52Z</time>
      </trkpt>
      <trkpt lat="59.9759715" lon="17.739437">
        <ele>25.1317</ele>
        <time>2014-06-17T11:02:53Z</time>
      </trkpt>
      <trkpt lat="59.9759539" lon="17.7393977">
        <ele>25.6123</ele>
        <time>2014-06-17T11:02:54Z</time>
      </trkpt>
      <trkpt lat="59.9759343" lon="17.7393593">
        <ele>26.0929</ele>
        <time>2014-06-17T11:02:55Z</time>
      </trkpt>
      <trkpt lat="59.9759144" lon="17.7393199">
        <ele>26.0929</ele>
        <time>2014-06-17T11:02:56Z</time>
      </trkpt>
      <trkpt lat="59.9758959" lon="17.7392834">
        <ele>26.0929</ele>
        <time>2014-06-17T11:02:57Z</time>
      </trkpt>
      <trkpt lat="59.9758757" lon="17.739251">
        <ele>25.6123</ele>
        <time>2014-06-17T11:02:58Z</time>
      </trkpt>
      <trkpt lat="59.9758554" lon="17.7392171">
        <ele>25.6123</ele>
        <time>2014-06-17T11:02:59Z</time>
      </trkpt>
      <trkpt lat="59.9758359" lon="17.7391781">
        <ele>26.0929</ele>
        <time>2014-06-17T11:03:00Z</time>
      </trkpt>
      <trkpt lat="59.9758169" lon="17.7391351">
        <ele>26.5736</ele>
        <time>2014-06-17T11:03:01Z</time>
      </trkpt>
      <trkpt lat="59.9757985" lon="17.7390927">
        <ele>26.0929</ele>
        <time>2014-06-17T11:03:02Z</time>
      </trkpt>
      <trkpt lat="59.9757835" lon="17.7390523">
        <ele>26.5736</ele>
        <time>2014-06-17T11:03:03Z</time>
      </trkpt>
      <trkpt lat="59.9757652" lon="17.739014">
        <ele>27.0543</ele>
        <time>2014-06-17T11:03:04Z</time>
      </trkpt>
      <trkpt lat="59.9757431" lon="17.7389786">
        <ele>27.5349</ele>
        <time>2014-06-17T11:03:05Z</time>
      </trkpt>
      <trkpt lat="59.9757259" lon="17.7389343">
        <ele>28.0155</ele>
        <time>2014-06-17T11:03:06Z</time>
      </trkpt>
      <trkpt lat="59.9757077" lon="17.7388974">
        <ele>27.5349</ele>
        <time>2014-06-17T11:03:07Z</time>
      </trkpt>
      <trkpt lat="59.9756867" lon="17.7388638">
        <ele>27.5349</ele>
        <time>2014-06-17T11:03:08Z</time>
      </trkpt>
      <trkpt lat="59.9756677" lon="17.7388306">
        <ele>28.0155</ele>
        <time>2014-06-17T11:03:09Z</time>
      </trkpt>
      <trkpt lat="59.9756456" lon="17.7388011">
        <ele>27.5349</ele>
        <time>2014-06-17T11:03:10Z</time>
      </trkpt>
      <trkpt lat="59.975626" lon="17.7387701">
        <ele>27.5349</ele>
        <time>2014-06-17T11:03:11Z</time>
      </trkpt>
      <trkpt lat="59.9756073" lon="17.7387344">
        <ele>27.5349</ele>
        <time>2014-06-17T11:03:12Z</time>
      </trkpt>
      <trkpt lat="59.9755864" lon="17.738701">
        <ele>27.0543</ele>
        <time>2014-06-17T11:03:13Z</time>
      </trkpt>
      <trkpt lat="59.9755655" lon="17.7386612">
        <ele>27.5349</ele>
        <time>2014-06-17T11:03:14Z</time>
      </trkpt>
      <trkpt lat="59.9755462" lon="17.7386172">
        <ele>28.0155</ele>
        <time>2014-06-17T11:03:15Z</time>
      </trkpt>
      <trkpt lat="59.9755281" lon="17.7385799">
        <ele>28.0155</ele>
        <time>2014-06-17T11:03:16Z</time>
      </trkpt>
      <trkpt lat="59.9755103" lon="17.7385462">
        <ele>28.4962</ele>
        <time>2014-06-17T11:03:17Z</time>
      </trkpt>
      <trkpt lat="59.9754917" lon="17.7385135">
        <ele>28.0155</ele>
        <time>2014-06-17T11:03:18Z</time>
      </trkpt>
      <trkpt lat="59.9754717" lon="17.7384784">
        <ele>28.4962</ele>
        <time>2014-06-17T11:03:19Z</time>
      </trkpt>
      <trkpt lat="59.9754499" lon="17.7384395">
        <ele>28.9769</ele>
        <time>2014-06-17T11:03:20Z</time>
      </trkpt>
      <trkpt lat="59.975428" lon="17.7384008">
        <ele>28.9769</ele>
        <time>2014-06-17T11:03:21Z</time>
      </trkpt>
      <trkpt lat="59.9754059" lon="17.7383618">
        <ele>28.9769</ele>
        <time>2014-06-17T11:03:22Z</time>
      </trkpt>
      <trkpt lat="59.9753868" lon="17.7383281">
        <ele>29.4575</ele>
        <time>2014-06-17T11:03:23Z</time>
      </trkpt>
      <trkpt lat="59.9753649" lon="17.7383041">
        <ele>28.9769</ele>
        <time>2014-06-17T11:03:24Z</time>
      </trkpt>
      <trkpt lat="59.9753438" lon="17.7382792">
        <ele>28.9769</ele>
        <time>2014-06-17T11:03:25Z</time>
      </trkpt>
      <trkpt lat="59.9753264" lon="17.7382457">
        <ele>29.4575</ele>
        <time>2014-06-17T11:03:26Z</time>
      </trkpt>
      <trkpt lat="59.9753086" lon="17.7382083">
        <ele>30.4188</ele>
        <time>2014-06-17T11:03:27Z</time>
      </trkpt>
      <trkpt lat="59.9752898" lon="17.738173">
        <ele>30.4188</ele>
        <time>2014-06-17T11:03:28Z</time>
      </trkpt>
      <trkpt lat="59.9752673" lon="17.7381391">
        <ele>29.9381</ele>
        <time>2014-06-17T11:03:29Z</time>
      </trkpt>
      <trkpt lat="59.9752456" lon="17.7381037">
        <ele>30.4188</ele>
        <time>2014-06-17T11:03:30Z</time>
      </trkpt>
      <trkpt lat="59.9752244" lon="17.7380679">
        <ele>30.8995</ele>
        <time>2014-06-17T11:03:31Z</time>
      </trkpt>
      <trkpt lat="59.9752058" lon="17.7380283">
        <ele>31.3801</ele>
        <time>2014-06-17T11:03:32Z</time>
      </trkpt>
      <trkpt lat="59.9751857" lon="17.7379899">
        <ele>31.8607</ele>
        <time>2014-06-17T11:03:33Z</time>
      </trkpt>
      <trkpt lat="59.9751658" lon="17.7379572">
        <ele>31.8607</ele>
        <time>2014-06-17T11:03:34Z</time>
      </trkpt>
      <trkpt lat="59.9751463" lon="17.7379188">
        <ele>32.3416</ele>
        <time>2014-06-17T11:03:35Z</time>
      </trkpt>
      <trkpt lat="59.9751249" lon="17.7378806">
        <ele>31.8607</ele>
        <time>2014-06-17T11:03:36Z</time>
      </trkpt>
      <trkpt lat="59.9751024" lon="17.7378438">
        <ele>32.3416</ele>
        <time>2014-06-17T11:03:37Z</time>
      </trkpt>
      <trkpt lat="59.9750791" lon="17.7378054">
        <ele>32.3416</ele>
        <time>2014-06-17T11:03:38Z</time>
      </trkpt>
      <trkpt lat="59.9750546" lon="17.7377666">
        <ele>32.3416</ele>
        <time>2014-06-17T11:03:39Z</time>
      </trkpt>
      <trkpt lat="59.9750363" lon="17.7377288">
        <ele>32.8223</ele>
        <time>2014-06-17T11:03:40Z</time>
      </trkpt>
      <trkpt lat="59.9750184" lon="17.7376951">
        <ele>33.3029</ele>
        <time>2014-06-17T11:03:41Z</time>
      </trkpt>
      <trkpt lat="59.9749981" lon="17.7376616">
        <ele>33.3029</ele>
        <time>2014-06-17T11:03:42Z</time>
      </trkpt>
      <trkpt lat="59.9749773" lon="17.7376298">
        <ele>33.3029</ele>
        <time>2014-06-17T11:03:43Z</time>
      </trkpt>
      <trkpt lat="59.9749575" lon="17.7375978">
        <ele>33.3029</ele>
        <time>2014-06-17T11:03:44Z</time>
      </trkpt>
      <trkpt lat="59.9749396" lon="17.7375599">
        <ele>33.7834</ele>
        <time>2014-06-17T11:03:45Z</time>
      </trkpt>
      <trkpt lat="59.9749203" lon="17.7375235">
        <ele>33.7834</ele>
        <time>2014-06-17T11:03:46Z</time>
      </trkpt>
      <trkpt lat="59.9749004" lon="17.7374898">
        <ele>33.7834</ele>
        <time>2014-06-17T11:03:47Z</time>
      </trkpt>
      <trkpt lat="59.9748819" lon="17.7374517">
        <ele>33.7834</ele>
        <time>2014-06-17T11:03:48Z</time>
      </trkpt>
      <trkpt lat="59.9748607" lon="17.7374133">
        <ele>33.3029</ele>
        <time>2014-06-17T11:03:49Z</time>
      </trkpt>
      <trkpt lat="59.9748381" lon="17.7373728">
        <ele>33.3029</ele>
        <time>2014-06-17T11:03:50Z</time>
      </trkpt>
      <trkpt lat="59.9748203" lon="17.7373339">
        <ele>33.3029</ele>
        <time>2014-06-17T11:03:51Z</time>
      </trkpt>
      <trkpt lat="59.9748033" lon="17.7372945">
        <ele>33.7834</ele>
        <time>2014-06-17T11:03:52Z</time>
      </trkpt>
      <trkpt lat="59.9747873" lon="17.7372517">
        <ele>34.2642</ele>
        <time>2014-06-17T11:03:53Z</time>
      </trkpt>
      <trkpt lat="59.9747723" lon="17.7372098">
        <ele>34.7449</ele>
        <time>2014-06-17T11:03:54Z</time>
      </trkpt>
      <trkpt lat="59.9747593" lon="17.7371669">
        <ele>34.7449</ele>
        <time>2014-06-17T11:03:55Z</time>
      </trkpt>
      <trkpt lat="59.9747481" lon="17.7371231">
        <ele>35.7061</ele>
        <time>2014-06-17T11:03:56Z</time>
      </trkpt>
      <trkpt lat="59.9747343" lon="17.7370835">
        <ele>35.7061</ele>
        <time>2014-06-17T11:03:57Z</time>
      </trkpt>
      <trkpt lat="59.9747199" lon="17.7370435">
        <ele>35.2255</ele>
        <time>2014-06-17T11:03:58Z</time>
      </trkpt>
      <trkpt lat="59.9747082" lon="17.737004">
        <ele>35.7061</ele>
        <time>2014-06-17T11:03:59Z</time>
      </trkpt>
      <trkpt lat="59.9746956" lon="17.7369652">
        <ele>36.1868</ele>
        <time>2014-06-17T11:04:00Z</time>
      </trkpt>
      <trkpt lat="59.9746823" lon="17.7369213">
        <ele>36.6675</ele>
        <time>2014-06-17T11:04:01Z</time>
      </trkpt>
      <trkpt lat="59.9746718" lon="17.7368808">
        <ele>37.1481</ele>
        <time>2014-06-17T11:04:02Z</time>
      </trkpt>
      <trkpt lat="59.9746557" lon="17.7368379">
        <ele>37.1481</ele>
        <time>2014-06-17T11:04:03Z</time>
      </trkpt>
      <trkpt lat="59.9746438" lon="17.7367953">
        <ele>37.6287</ele>
        <time>2014-06-17T11:04:04Z</time>
      </trkpt>
      <trkpt lat="59.9746288" lon="17.7367512">
        <ele>37.6287</ele>
        <time>2014-06-17T11:04:05Z</time>
      </trkpt>
      <trkpt lat="59.9746159" lon="17.7367078">
        <ele>37.6287</ele>
        <time>2014-06-17T11:04:06Z</time>
      </trkpt>
      <trkpt lat="59.974604" lon="17.7366664">
        <ele>38.1094</ele>
        <time>2014-06-17T11:04:07Z</time>
      </trkpt>
      <trkpt lat="59.9745919" lon="17.7366254">
        <ele>37.6287</ele>
        <time>2014-06-17T11:04:08Z</time>
      </trkpt>
      <trkpt lat="59.9745804" lon="17.7365799">
        <ele>38.1094</ele>
        <time>2014-06-17T11:04:09Z</time>
      </trkpt>
      <trkpt lat="59.9745708" lon="17.7365378">
        <ele>38.1094</ele>
        <time>2014-06-17T11:04:10Z</time>
      </trkpt>
      <trkpt lat="59.9745613" lon="17.736497">
        <ele>37.6287</ele>
        <time>2014-06-17T11:04:11Z</time>
      </trkpt>
      <trkpt lat="59.974551" lon="17.7364545">
        <ele>36.6675</ele>
        <time>2014-06-17T11:04:12Z</time>
      </trkpt>
      <trkpt lat="59.9745395" lon="17.7364119">
        <ele>36.6675</ele>
        <time>2014-06-17T11:04:13Z</time>
      </trkpt>
      <trkpt lat="59.9745273" lon="17.7363648">
        <ele>36.6675</ele>
        <time>2014-06-17T11:04:14Z</time>
      </trkpt>
      <trkpt lat="59.974519" lon="17.7363214">
        <ele>36.6675</ele>
        <time>2014-06-17T11:04:15Z</time>
      </trkpt>
      <trkpt lat="59.9745079" lon="17.7362793">
        <ele>36.6675</ele>
        <time>2014-06-17T11:04:16Z</time>
      </trkpt>
      <trkpt lat="59.9745007" lon="17.7362369">
        <ele>37.1481</ele>
        <time>2014-06-17T11:04:17Z</time>
      </trkpt>
      <trkpt lat="59.9744931" lon="17.7361966">
        <ele>37.1481</ele>
        <time>2014-06-17T11:04:18Z</time>
      </trkpt>
      <trkpt lat="59.9744852" lon="17.7361504">
        <ele>37.6287</ele>
        <time>2014-06-17T11:04:19Z</time>
      </trkpt>
      <trkpt lat="59.9744732" lon="17.7361055">
        <ele>36.6675</ele>
        <time>2014-06-17T11:04:20Z</time>
      </trkpt>
      <trkpt lat="59.9744629" lon="17.7360632">
        <ele>36.1868</ele>
        <time>2014-06-17T11:04:21Z</time>
      </trkpt>
      <trkpt lat="59.9744501" lon="17.7360163">
        <ele>35.2255</ele>
        <time>2014-06-17T11:04:22Z</time>
      </trkpt>
      <trkpt lat="59.9744429" lon="17.735972">
        <ele>35.7061</ele>
        <time>2014-06-17T11:04:23Z</time>
      </trkpt>
      <trkpt lat="59.9744325" lon="17.7359267">
        <ele>35.2255</ele>
        <time>2014-06-17T11:04:24Z</time>
      </trkpt>
      <trkpt lat="59.9744212" lon="17.7358763">
        <ele>35.2255</ele>
        <time>2014-06-17T11:04:25Z</time>
      </trkpt>
      <trkpt lat="59.9744138" lon="17.7358273">
        <ele>35.7061</ele>
        <time>2014-06-17T11:04:26Z</time>
      </trkpt>
      <trkpt lat="59.9744056" lon="17.7357793">
        <ele>35.2255</ele>
        <time>2014-06-17T11:04:27Z</time>
      </trkpt>
      <trkpt lat="59.9743972" lon="17.7357271">
        <ele>35.7061</ele>
        <time>2014-06-17T11:04:28Z</time>
      </trkpt>
      <trkpt lat="59.9743877" lon="17.7356774">
        <ele>35.2255</ele>
        <time>2014-06-17T11:04:29Z</time>
      </trkpt>
      <trkpt lat="59.9743786" lon="17.7356252">
        <ele>35.2255</ele>
        <time>2014-06-17T11:04:30Z</time>
      </trkpt>
      <trkpt lat="59.974374" lon="17.7355748">
        <ele>34.7449</ele>
        <time>2014-06-17T11:04:31Z</time>
      </trkpt>
      <trkpt lat="59.9743698" lon="17.7355276">
        <ele>34.7449</ele>
        <time>2014-06-17T11:04:32Z</time>
      </trkpt>
      <trkpt lat="59.9743603" lon="17.7354724">
        <ele>34.2642</ele>
        <time>2014-06-17T11:04:33Z</time>
      </trkpt>
      <trkpt lat="59.9743541" lon="17.7354201">
        <ele>34.2642</ele>
        <time>2014-06-17T11:04:34Z</time>
      </trkpt>
      <trkpt lat="59.9743455" lon="17.7353644">
        <ele>34.2642</ele>
        <time>2014-06-17T11:04:35Z</time>
      </trkpt>
      <trkpt lat="59.9743381" lon="17.7353059">
        <ele>33.3029</ele>
        <time>2014-06-17T11:04:36Z</time>
      </trkpt>
      <trkpt lat="59.9743315" lon="17.7352486">
        <ele>32.8223</ele>
        <time>2014-06-17T11:04:37Z</time>
      </trkpt>
      <trkpt lat="59.9743232" lon="17.7351921">
        <ele>31.8607</ele>
        <time>2014-06-17T11:04:38Z</time>
      </trkpt>
      <trkpt lat="59.9743179" lon="17.7351372">
        <ele>31.8607</ele>
        <time>2014-06-17T11:04:39Z</time>
      </trkpt>
      <trkpt lat="59.9743142" lon="17.735088">
        <ele>31.3801</ele>
        <time>2014-06-17T11:04:40Z</time>
      </trkpt>
      <trkpt lat="59.9743056" lon="17.7350326">
        <ele>30.4188</ele>
        <time>2014-06-17T11:04:41Z</time>
      </trkpt>
      <trkpt lat="59.9742988" lon="17.734974">
        <ele>29.4575</ele>
        <time>2014-06-17T11:04:42Z</time>
      </trkpt>
      <trkpt lat="59.9742932" lon="17.7349203">
        <ele>28.9769</ele>
        <time>2014-06-17T11:04:43Z</time>
      </trkpt>
      <trkpt lat="59.9742876" lon="17.7348683">
        <ele>28.0155</ele>
        <time>2014-06-17T11:04:44Z</time>
      </trkpt>
      <trkpt lat="59.9742818" lon="17.7348134">
        <ele>28.0155</ele>
        <time>2014-06-17T11:04:45Z</time>
      </trkpt>
      <trkpt lat="59.9742766" lon="17.7347611">
        <ele>28.4962</ele>
        <time>2014-06-17T11:04:46Z</time>
      </trkpt>
      <trkpt lat="59.974271" lon="17.7347031">
        <ele>28.0155</ele>
        <time>2014-06-17T11:04:47Z</time>
      </trkpt>
      <trkpt lat="59.9742662" lon="17.7346485">
        <ele>28.4962</ele>
        <time>2014-06-17T11:04:48Z</time>
      </trkpt>
      <trkpt lat="59.9742641" lon="17.7346005">
        <ele>28.9769</ele>
        <time>2014-06-17T11:04:49Z</time>
      </trkpt>
      <trkpt lat="59.9742631" lon="17.7345486">
        <ele>28.4962</ele>
        <time>2014-06-17T11:04:50Z</time>
      </trkpt>
      <trkpt lat="59.9742619" lon="17.7344911">
        <ele>28.9769</ele>
        <time>2014-06-17T11:04:51Z</time>
      </trkpt>
      <trkpt lat="59.9742663" lon="17.7344462">
        <ele>29.4575</ele>
        <time>2014-06-17T11:04:52Z</time>
      </trkpt>
      <trkpt lat="59.9742704" lon="17.7343995">
        <ele>29.9381</ele>
        <time>2014-06-17T11:04:53Z</time>
      </trkpt>
      <trkpt lat="59.9742686" lon="17.7343461">
        <ele>29.4575</ele>
        <time>2014-06-17T11:04:54Z</time>
      </trkpt>
      <trkpt lat="59.9742682" lon="17.7342921">
        <ele>29.9381</ele>
        <time>2014-06-17T11:04:55Z</time>
      </trkpt>
      <trkpt lat="59.9742634" lon="17.7342306">
        <ele>29.9381</ele>
        <time>2014-06-17T11:04:56Z</time>
      </trkpt>
      <trkpt lat="59.9742579" lon="17.7341679">
        <ele>29.9381</ele>
        <time>2014-06-17T11:04:57Z</time>
      </trkpt>
      <trkpt lat="59.9742578" lon="17.7341113">
        <ele>29.4575</ele>
        <time>2014-06-17T11:04:58Z</time>
      </trkpt>
      <trkpt lat="59.9742598" lon="17.7340623">
        <ele>29.4575</ele>
        <time>2014-06-17T11:04:59Z</time>
      </trkpt>
      <trkpt lat="59.974259" lon="17.7340132">
        <ele>28.9769</ele>
        <time>2014-06-17T11:05:00Z</time>
      </trkpt>
      <trkpt lat="59.9742642" lon="17.7339614">
        <ele>29.4575</ele>
        <time>2014-06-17T11:05:01Z</time>
      </trkpt>
      <trkpt lat="59.9742709" lon="17.7339174">
        <ele>29.4575</ele>
        <time>2014-06-17T11:05:02Z</time>
      </trkpt>
      <trkpt lat="59.974275" lon="17.7338699">
        <ele>29.9381</ele>
        <time>2014-06-17T11:05:03Z</time>
      </trkpt>
      <trkpt lat="59.974281" lon="17.7338216">
        <ele>29.9381</ele>
        <time>2014-06-17T11:05:04Z</time>
      </trkpt>
      <trkpt lat="59.9742906" lon="17.7337769">
        <ele>30.4188</ele>
        <time>2014-06-17T11:05:05Z</time>
      </trkpt>
      <trkpt lat="59.9742987" lon="17.7337303">
        <ele>30.8995</ele>
        <time>2014-06-17T11:05:06Z</time>
      </trkpt>
      <trkpt lat="59.9743019" lon="17.7336814">
        <ele>31.3801</ele>
        <time>2014-06-17T11:05:07Z</time>
      </trkpt>
      <trkpt lat="59.974302" lon="17.7336262">
        <ele>31.3801</ele>
        <time>2014-06-17T11:05:08Z</time>
      </trkpt>
      <trkpt lat="59.9743009" lon="17.7335686">
        <ele>31.3801</ele>
        <time>2014-06-17T11:05:09Z</time>
      </trkpt>
      <trkpt lat="59.9743028" lon="17.733518">
        <ele>31.3801</ele>
        <time>2014-06-17T11:05:10Z</time>
      </trkpt>
      <trkpt lat="59.9743039" lon="17.7334567">
        <ele>31.3801</ele>
        <time>2014-06-17T11:05:11Z</time>
      </trkpt>
      <trkpt lat="59.974307" lon="17.7334004">
        <ele>31.3801</ele>
        <time>2014-06-17T11:05:12Z</time>
      </trkpt>
      <trkpt lat="59.9743075" lon="17.7333449">
        <ele>31.3801</ele>
        <time>2014-06-17T11:05:13Z</time>
      </trkpt>
      <trkpt lat="59.9743078" lon="17.7332873">
        <ele>31.3801</ele>
        <time>2014-06-17T11:05:14Z</time>
      </trkpt>
      <trkpt lat="59.9743085" lon="17.733234">
        <ele>31.3801</ele>
        <time>2014-06-17T11:05:15Z</time>
      </trkpt>
      <trkpt lat="59.9743111" lon="17.7331851">
        <ele>30.8995</ele>
        <time>2014-06-17T11:05:16Z</time>
      </trkpt>
      <trkpt lat="59.9743144" lon="17.733135">
        <ele>31.3801</ele>
        <time>2014-06-17T11:05:17Z</time>
      </trkpt>
      <trkpt lat="59.9743166" lon="17.7330893">
        <ele>31.8607</ele>
        <time>2014-06-17T11:05:18Z</time>
      </trkpt>
      <trkpt lat="59.9743165" lon="17.7330378">
        <ele>31.3801</ele>
        <time>2014-06-17T11:05:19Z</time>
      </trkpt>
      <trkpt lat="59.9743133" lon="17.7329797">
        <ele>30.8995</ele>
        <time>2014-06-17T11:05:20Z</time>
      </trkpt>
      <trkpt lat="59.9743108" lon="17.732924">
        <ele>30.8995</ele>
        <time>2014-06-17T11:05:21Z</time>
      </trkpt>
      <trkpt lat="59.9743119" lon="17.7328744">
        <ele>30.4188</ele>
        <time>2014-06-17T11:05:22Z</time>
      </trkpt>
      <trkpt lat="59.9743123" lon="17.7328258">
        <ele>30.4188</ele>
        <time>2014-06-17T11:05:23Z</time>
      </trkpt>
      <trkpt lat="59.9743123" lon="17.7327743">
        <ele>30.4188</ele>
        <time>2014-06-17T11:05:24Z</time>
      </trkpt>
      <trkpt lat="59.9743134" lon="17.7327217">
        <ele>30.8995</ele>
        <time>2014-06-17T11:05:25Z</time>
      </trkpt>
      <trkpt lat="59.9743144" lon="17.732672">
        <ele>30.8995</ele>
        <time>2014-06-17T11:05:26Z</time>
      </trkpt>
      <trkpt lat="59.9743163" lon="17.7326246">
        <ele>30.8995</ele>
        <time>2014-06-17T11:05:27Z</time>
      </trkpt>
      <trkpt lat="59.9743159" lon="17.7325793">
        <ele>30.4188</ele>
        <time>2014-06-17T11:05:28Z</time>
      </trkpt>
      <trkpt lat="59.974315" lon="17.7325289">
        <ele>30.4188</ele>
        <time>2014-06-17T11:05:29Z</time>
      </trkpt>
      <trkpt lat="59.9743138" lon="17.7324777">
        <ele>30.8995</ele>
        <time>2014-06-17T11:05:30Z</time>
      </trkpt>
      <trkpt lat="59.9743097" lon="17.7324271">
        <ele>30.8995</ele>
        <time>2014-06-17T11:05:31Z</time>
      </trkpt>
      <trkpt lat="59.9743067" lon="17.7323744">
        <ele>30.8995</ele>
        <time>2014-06-17T11:05:32Z</time>
      </trkpt>
      <trkpt lat="59.9743043" lon="17.7323217">
        <ele>30.8995</ele>
        <time>2014-06-17T11:05:33Z</time>
      </trkpt>
      <trkpt lat="59.9743013" lon="17.7322667">
        <ele>30.8995</ele>
        <time>2014-06-17T11:05:34Z</time>
      </trkpt>
      <trkpt lat="59.9742982" lon="17.7322083">
        <ele>30.4188</ele>
        <time>2014-06-17T11:05:35Z</time>
      </trkpt>
      <trkpt lat="59.9742919" lon="17.7321527">
        <ele>29.9381</ele>
        <time>2014-06-17T11:05:36Z</time>
      </trkpt>
      <trkpt lat="59.9742884" lon="17.7321007">
        <ele>29.9381</ele>
        <time>2014-06-17T11:05:37Z</time>
      </trkpt>
      <trkpt lat="59.9742881" lon="17.7320529">
        <ele>29.9381</ele>
        <time>2014-06-17T11:05:38Z</time>
      </trkpt>
      <trkpt lat="59.9742886" lon="17.7320056">
        <ele>30.4188</ele>
        <time>2014-06-17T11:05:39Z</time>
      </trkpt>
      <trkpt lat="59.9742852" lon="17.7319476">
        <ele>30.4188</ele>
        <time>2014-06-17T11:05:40Z</time>
      </trkpt>
      <trkpt lat="59.9742798" lon="17.7318904">
        <ele>29.9381</ele>
        <time>2014-06-17T11:05:41Z</time>
      </trkpt>
      <trkpt lat="59.9742797" lon="17.7318435">
        <ele>30.4188</ele>
        <time>2014-06-17T11:05:42Z</time>
      </trkpt>
      <trkpt lat="59.9742812" lon="17.7317976">
        <ele>30.4188</ele>
        <time>2014-06-17T11:05:43Z</time>
      </trkpt>
      <trkpt lat="59.9742817" lon="17.7317488">
        <ele>30.8995</ele>
        <time>2014-06-17T11:05:44Z</time>
      </trkpt>
      <trkpt lat="59.9742817" lon="17.7316997">
        <ele>31.3801</ele>
        <time>2014-06-17T11:05:45Z</time>
      </trkpt>
      <trkpt lat="59.9742795" lon="17.7316468">
        <ele>30.8995</ele>
        <time>2014-06-17T11:05:46Z</time>
      </trkpt>
      <trkpt lat="59.9742793" lon="17.7315971">
        <ele>30.8995</ele>
        <time>2014-06-17T11:05:47Z</time>
      </trkpt>
      <trkpt lat="59.9742797" lon="17.7315487">
        <ele>30.4188</ele>
        <time>2014-06-17T11:05:48Z</time>
      </trkpt>
      <trkpt lat="59.9742827" lon="17.7315055">
        <ele>30.8995</ele>
        <time>2014-06-17T11:05:49Z</time>
      </trkpt>
      <trkpt lat="59.9742857" lon="17.7314593">
        <ele>30.4188</ele>
        <time>2014-06-17T11:05:50Z</time>
      </trkpt>
      <trkpt lat="59.9742854" lon="17.731404">
        <ele>29.9381</ele>
        <time>2014-06-17T11:05:51Z</time>
      </trkpt>
      <trkpt lat="59.9742875" lon="17.7313486">
        <ele>30.4188</ele>
        <time>2014-06-17T11:05:52Z</time>
      </trkpt>
      <trkpt lat="59.9742893" lon="17.7312968">
        <ele>29.9381</ele>
        <time>2014-06-17T11:05:53Z</time>
      </trkpt>
      <trkpt lat="59.9742912" lon="17.731249">
        <ele>29.9381</ele>
        <time>2014-06-17T11:05:54Z</time>
      </trkpt>
      <trkpt lat="59.974293" lon="17.7311981">
        <ele>29.9381</ele>
        <time>2014-06-17T11:05:55Z</time>
      </trkpt>
      <trkpt lat="59.9742905" lon="17.7311354">
        <ele>29.4575</ele>
        <time>2014-06-17T11:05:56Z</time>
      </trkpt>
      <trkpt lat="59.9742869" lon="17.7310671">
        <ele>28.4962</ele>
        <time>2014-06-17T11:05:57Z</time>
      </trkpt>
      <trkpt lat="59.9742857" lon="17.7310045">
        <ele>28.4962</ele>
        <time>2014-06-17T11:05:58Z</time>
      </trkpt>
      <trkpt lat="59.9742859" lon="17.7309478">
        <ele>28.0155</ele>
        <time>2014-06-17T11:05:59Z</time>
      </trkpt>
      <trkpt lat="59.9742869" lon="17.7308948">
        <ele>27.5349</ele>
        <time>2014-06-17T11:06:00Z</time>
      </trkpt>
      <trkpt lat="59.9742905" lon="17.7308423">
        <ele>27.5349</ele>
        <time>2014-06-17T11:06:01Z</time>
      </trkpt>
      <trkpt lat="59.9742932" lon="17.7307895">
        <ele>27.5349</ele>
        <time>2014-06-17T11:06:02Z</time>
      </trkpt>
      <trkpt lat="59.9742972" lon="17.7307372">
        <ele>27.5349</ele>
        <time>2014-06-17T11:06:03Z</time>
      </trkpt>
      <trkpt lat="59.9743018" lon="17.7306863">
        <ele>27.5349</ele>
        <time>2014-06-17T11:06:04Z</time>
      </trkpt>
      <trkpt lat="59.9743012" lon="17.7306305">
        <ele>27.0543</ele>
        <time>2014-06-17T11:06:05Z</time>
      </trkpt>
      <trkpt lat="59.9743052" lon="17.7305772">
        <ele>26.5736</ele>
        <time>2014-06-17T11:06:06Z</time>
      </trkpt>
      <trkpt lat="59.9743077" lon="17.7305254">
        <ele>26.5736</ele>
        <time>2014-06-17T11:06:07Z</time>
      </trkpt>
      <trkpt lat="59.9743092" lon="17.7304718">
        <ele>26.0929</ele>
        <time>2014-06-17T11:06:08Z</time>
      </trkpt>
      <trkpt lat="59.9743098" lon="17.7304188">
        <ele>25.1317</ele>
        <time>2014-06-17T11:06:09Z</time>
      </trkpt>
      <trkpt lat="59.9743122" lon="17.730368">
        <ele>25.1317</ele>
        <time>2014-06-17T11:06:10Z</time>
      </trkpt>
      <trkpt lat="59.9743137" lon="17.7303169">
        <ele>24.651</ele>
        <time>2014-06-17T11:06:11Z</time>
      </trkpt>
      <trkpt lat="59.9743161" lon="17.7302673">
        <ele>24.651</ele>
        <time>2014-06-17T11:06:12Z</time>
      </trkpt>
      <trkpt lat="59.9743159" lon="17.7302145">
        <ele>24.1703</ele>
        <time>2014-06-17T11:06:13Z</time>
      </trkpt>
      <trkpt lat="59.9743211" lon="17.7301569">
        <ele>24.651</ele>
        <time>2014-06-17T11:06:14Z</time>
      </trkpt>
      <trkpt lat="59.9743247" lon="17.7301058">
        <ele>24.1703</ele>
        <time>2014-06-17T11:06:15Z</time>
      </trkpt>
      <trkpt lat="59.9743398" lon="17.7300699">
        <ele>25.6123</ele>
        <time>2014-06-17T11:06:16Z</time>
      </trkpt>
      <trkpt lat="59.9743453" lon="17.7300235">
        <ele>26.0929</ele>
        <time>2014-06-17T11:06:17Z</time>
      </trkpt>
      <trkpt lat="59.9743438" lon="17.7299642">
        <ele>26.0929</ele>
        <time>2014-06-17T11:06:18Z</time>
      </trkpt>
      <trkpt lat="59.974342" lon="17.7299021">
        <ele>26.0929</ele>
        <time>2014-06-17T11:06:19Z</time>
      </trkpt>
      <trkpt lat="59.9743403" lon="17.729852">
        <ele>26.0929</ele>
        <time>2014-06-17T11:06:20Z</time>
      </trkpt>
      <trkpt lat="59.9743422" lon="17.7298005">
        <ele>26.0929</ele>
        <time>2014-06-17T11:06:21Z</time>
      </trkpt>
      <trkpt lat="59.9743408" lon="17.7297405">
        <ele>25.6123</ele>
        <time>2014-06-17T11:06:22Z</time>
      </trkpt>
      <trkpt lat="59.9743354" lon="17.7296787">
        <ele>25.1317</ele>
        <time>2014-06-17T11:06:23Z</time>
      </trkpt>
      <trkpt lat="59.9743346" lon="17.7296226">
        <ele>25.1317</ele>
        <time>2014-06-17T11:06:24Z</time>
      </trkpt>
      <trkpt lat="59.9743341" lon="17.7295617">
        <ele>23.6896</ele>
        <time>2014-06-17T11:06:25Z</time>
      </trkpt>
      <trkpt lat="59.9743252" lon="17.7294888">
        <ele>23.209</ele>
        <time>2014-06-17T11:06:26Z</time>
      </trkpt>
      <trkpt lat="59.9743206" lon="17.7294329">
        <ele>22.2476</ele>
        <time>2014-06-17T11:06:27Z</time>
      </trkpt>
      <trkpt lat="59.9743227" lon="17.7293876">
        <ele>21.767</ele>
        <time>2014-06-17T11:06:28Z</time>
      </trkpt>
      <trkpt lat="59.9743236" lon="17.7293353">
        <ele>20.8057</ele>
        <time>2014-06-17T11:06:29Z</time>
      </trkpt>
      <trkpt lat="59.9743268" lon="17.7292815">
        <ele>20.325</ele>
        <time>2014-06-17T11:06:30Z</time>
      </trkpt>
      <trkpt lat="59.97433" lon="17.729238">
        <ele>19.8444</ele>
        <time>2014-06-17T11:06:31Z</time>
      </trkpt>
      <trkpt lat="59.9743331" lon="17.7291952">
        <ele>19.8444</ele>
        <time>2014-06-17T11:06:32Z</time>
      </trkpt>
      <trkpt lat="59.9743357" lon="17.7291507">
        <ele>19.8444</ele>
        <time>2014-06-17T11:06:33Z</time>
      </trkpt>
      <trkpt lat="59.9743382" lon="17.7291089">
        <ele>19.3638</ele>
        <time>2014-06-17T11:06:34Z</time>
      </trkpt>
      <trkpt lat="59.974336" lon="17.7290584">
        <ele>18.8831</ele>
        <time>2014-06-17T11:06:35Z</time>
      </trkpt>
      <trkpt lat="59.9743243" lon="17.7289851">
        <ele>17.9218</ele>
        <time>2014-06-17T11:06:36Z</time>
      </trkpt>
      <trkpt lat="59.9743113" lon="17.7289093">
        <ele>17.4412</ele>
        <time>2014-06-17T11:06:37Z</time>
      </trkpt>
      <trkpt lat="59.9742984" lon="17.7288437">
        <ele>16.4797</ele>
        <time>2014-06-17T11:06:38Z</time>
      </trkpt>
      <trkpt lat="59.9742972" lon="17.7287938">
        <ele>16.9604</ele>
        <time>2014-06-17T11:06:39Z</time>
      </trkpt>
      <trkpt lat="59.9742926" lon="17.7287465">
        <ele>16.4797</ele>
        <time>2014-06-17T11:06:40Z</time>
      </trkpt>
      <trkpt lat="59.9742876" lon="17.7286957">
        <ele>15.5184</ele>
        <time>2014-06-17T11:06:41Z</time>
      </trkpt>
      <trkpt lat="59.9742812" lon="17.728642">
        <ele>15.0377</ele>
        <time>2014-06-17T11:06:42Z</time>
      </trkpt>
      <trkpt lat="59.9742762" lon="17.7285914">
        <ele>14.0764</ele>
        <time>2014-06-17T11:06:43Z</time>
      </trkpt>
      <trkpt lat="59.9742741" lon="17.728545">
        <ele>13.1151</ele>
        <time>2014-06-17T11:06:44Z</time>
      </trkpt>
      <trkpt lat="59.9742741" lon="17.7285016">
        <ele>13.1151</ele>
        <time>2014-06-17T11:06:45Z</time>
      </trkpt>
      <trkpt lat="59.9742733" lon="17.7284527">
        <ele>13.1151</ele>
        <time>2014-06-17T11:06:46Z</time>
      </trkpt>
      <trkpt lat="59.9742712" lon="17.7283994">
        <ele>13.1151</ele>
        <time>2014-06-17T11:06:47Z</time>
      </trkpt>
      <trkpt lat="59.9742686" lon="17.7283476">
        <ele>13.1151</ele>
        <time>2014-06-17T11:06:48Z</time>
      </trkpt>
      <trkpt lat="59.9742688" lon="17.7283004">
        <ele>12.6344</ele>
        <time>2014-06-17T11:06:49Z</time>
      </trkpt>
      <trkpt lat="59.9742655" lon="17.7282461">
        <ele>12.1538</ele>
        <time>2014-06-17T11:06:50Z</time>
      </trkpt>
      <trkpt lat="59.9742626" lon="17.7281948">
        <ele>12.1538</ele>
        <time>2014-06-17T11:06:51Z</time>
      </trkpt>
      <trkpt lat="59.974261" lon="17.7281429">
        <ele>12.1538</ele>
        <time>2014-06-17T11:06:52Z</time>
      </trkpt>
      <trkpt lat="59.9742574" lon="17.7280834">
        <ele>12.6344</ele>
        <time>2014-06-17T11:06:53Z</time>
      </trkpt>
      <trkpt lat="59.9742547" lon="17.7280317">
        <ele>13.1151</ele>
        <time>2014-06-17T11:06:54Z</time>
      </trkpt>
      <trkpt lat="59.9742531" lon="17.7279831">
        <ele>12.6344</ele>
        <time>2014-06-17T11:06:55Z</time>
      </trkpt>
      <trkpt lat="59.9742523" lon="17.7279315">
        <ele>13.5958</ele>
        <time>2014-06-17T11:06:56Z</time>
      </trkpt>
      <trkpt lat="59.9742522" lon="17.7278787">
        <ele>14.0764</ele>
        <time>2014-06-17T11:06:57Z</time>
      </trkpt>
      <trkpt lat="59.9742563" lon="17.7278301">
        <ele>14.0764</ele>
        <time>2014-06-17T11:06:58Z</time>
      </trkpt>
      <trkpt lat="59.9742738" lon="17.7278068">
        <ele>16.4797</ele>
        <time>2014-06-17T11:06:59Z</time>
      </trkpt>
      <trkpt lat="59.9742886" lon="17.7277825">
        <ele>18.8831</ele>
        <time>2014-06-17T11:07:00Z</time>
      </trkpt>
      <trkpt lat="59.9743025" lon="17.7277523">
        <ele>20.325</ele>
        <time>2014-06-17T11:07:01Z</time>
      </trkpt>
      <trkpt lat="59.9743116" lon="17.7277145">
        <ele>21.767</ele>
        <time>2014-06-17T11:07:02Z</time>
      </trkpt>
      <trkpt lat="59.9743206" lon="17.7276768">
        <ele>22.7283</ele>
        <time>2014-06-17T11:07:03Z</time>
      </trkpt>
      <trkpt lat="59.9743282" lon="17.7276407">
        <ele>23.209</ele>
        <time>2014-06-17T11:07:04Z</time>
      </trkpt>
      <trkpt lat="59.9743354" lon="17.7276056">
        <ele>24.1703</ele>
        <time>2014-06-17T11:07:05Z</time>
      </trkpt>
      <trkpt lat="59.9743399" lon="17.7275656">
        <ele>25.1317</ele>
        <time>2014-06-17T11:07:06Z</time>
      </trkpt>
      <trkpt lat="59.9743427" lon="17.7275266">
        <ele>25.6123</ele>
        <time>2014-06-17T11:07:07Z</time>
      </trkpt>
      <trkpt lat="59.9743418" lon="17.7274815">
        <ele>27.0543</ele>
        <time>2014-06-17T11:07:08Z</time>
      </trkpt>
      <trkpt lat="59.9743474" lon="17.7274416">
        <ele>27.5349</ele>
        <time>2014-06-17T11:07:09Z</time>
      </trkpt>
      <trkpt lat="59.9743528" lon="17.7274041">
        <ele>27.5349</ele>
        <time>2014-06-17T11:07:10Z</time>
      </trkpt>
      <trkpt lat="59.9743592" lon="17.727371">
        <ele>28.0155</ele>
        <time>2014-06-17T11:07:11Z</time>
      </trkpt>
      <trkpt lat="59.9743678" lon="17.7273347">
        <ele>29.4575</ele>
        <time>2014-06-17T11:07:12Z</time>
      </trkpt>
      <trkpt lat="59.9743714" lon="17.7272866">
        <ele>29.4575</ele>
        <time>2014-06-17T11:07:13Z</time>
      </trkpt>
      <trkpt lat="59.9743755" lon="17.7272374">
        <ele>30.4188</ele>
        <time>2014-06-17T11:07:14Z</time>
      </trkpt>
      <trkpt lat="59.9743782" lon="17.7271914">
        <ele>30.8995</ele>
        <time>2014-06-17T11:07:15Z</time>
      </trkpt>
      <trkpt lat="59.9743807" lon="17.7271453">
        <ele>31.3801</ele>
        <time>2014-06-17T11:07:16Z</time>
      </trkpt>
      <trkpt lat="59.974378" lon="17.7270895">
        <ele>31.3801</ele>
        <time>2014-06-17T11:07:17Z</time>
      </trkpt>
      <trkpt lat="59.9743701" lon="17.7270312">
        <ele>31.3801</ele>
        <time>2014-06-17T11:07:18Z</time>
      </trkpt>
      <trkpt lat="59.9743624" lon="17.7269706">
        <ele>31.3801</ele>
        <time>2014-06-17T11:07:19Z</time>
      </trkpt>
      <trkpt lat="59.9743579" lon="17.7269121">
        <ele>31.8607</ele>
        <time>2014-06-17T11:07:20Z</time>
      </trkpt>
      <trkpt lat="59.9743635" lon="17.7268652">
        <ele>32.3416</ele>
        <time>2014-06-17T11:07:21Z</time>
      </trkpt>
      <trkpt lat="59.9743661" lon="17.7268194">
        <ele>31.8607</ele>
        <time>2014-06-17T11:07:22Z</time>
      </trkpt>
      <trkpt lat="59.9743666" lon="17.7267745">
        <ele>32.3416</ele>
        <time>2014-06-17T11:07:23Z</time>
      </trkpt>
      <trkpt lat="59.9743634" lon="17.7267233">
        <ele>31.3801</ele>
        <time>2014-06-17T11:07:24Z</time>
      </trkpt>
      <trkpt lat="59.9743609" lon="17.7266703">
        <ele>31.3801</ele>
        <time>2014-06-17T11:07:25Z</time>
      </trkpt>
      <trkpt lat="59.9743609" lon="17.726621">
        <ele>31.3801</ele>
        <time>2014-06-17T11:07:26Z</time>
      </trkpt>
      <trkpt lat="59.9743618" lon="17.7265784">
        <ele>31.8607</ele>
        <time>2014-06-17T11:07:27Z</time>
      </trkpt>
      <trkpt lat="59.9743609" lon="17.7265326">
        <ele>31.8607</ele>
        <time>2014-06-17T11:07:28Z</time>
      </trkpt>
      <trkpt lat="59.9743618" lon="17.7264837">
        <ele>31.8607</ele>
        <time>2014-06-17T11:07:29Z</time>
      </trkpt>
      <trkpt lat="59.9743595" lon="17.7264318">
        <ele>32.3416</ele>
        <time>2014-06-17T11:07:30Z</time>
      </trkpt>
      <trkpt lat="59.9743584" lon="17.7263822">
        <ele>33.3029</ele>
        <time>2014-06-17T11:07:31Z</time>
      </trkpt>
      <trkpt lat="59.9743548" lon="17.7263409">
        <ele>33.7834</ele>
        <time>2014-06-17T11:07:32Z</time>
      </trkpt>
      <trkpt lat="59.9743518" lon="17.7262925">
        <ele>34.2642</ele>
        <time>2014-06-17T11:07:33Z</time>
      </trkpt>
      <trkpt lat="59.9743549" lon="17.7262417">
        <ele>35.2255</ele>
        <time>2014-06-17T11:07:34Z</time>
      </trkpt>
      <trkpt lat="59.9743548" lon="17.7261881">
        <ele>34.7449</ele>
        <time>2014-06-17T11:07:35Z</time>
      </trkpt>
      <trkpt lat="59.9743499" lon="17.7261326">
        <ele>34.2642</ele>
        <time>2014-06-17T11:07:36Z</time>
      </trkpt>
      <trkpt lat="59.9743442" lon="17.7260782">
        <ele>34.2642</ele>
        <time>2014-06-17T11:07:37Z</time>
      </trkpt>
      <trkpt lat="59.974345" lon="17.7260305">
        <ele>34.7449</ele>
        <time>2014-06-17T11:07:38Z</time>
      </trkpt>
      <trkpt lat="59.9743401" lon="17.7259767">
        <ele>34.7449</ele>
        <time>2014-06-17T11:07:39Z</time>
      </trkpt>
      <trkpt lat="59.9743373" lon="17.7259228">
        <ele>34.7449</ele>
        <time>2014-06-17T11:07:40Z</time>
      </trkpt>
      <trkpt lat="59.9743325" lon="17.7258716">
        <ele>34.7449</ele>
        <time>2014-06-17T11:07:41Z</time>
      </trkpt>
      <trkpt lat="59.9743299" lon="17.7258226">
        <ele>34.2642</ele>
        <time>2014-06-17T11:07:42Z</time>
      </trkpt>
      <trkpt lat="59.974329" lon="17.7257721">
        <ele>34.2642</ele>
        <time>2014-06-17T11:07:43Z</time>
      </trkpt>
      <trkpt lat="59.9743258" lon="17.7257214">
        <ele>34.2642</ele>
        <time>2014-06-17T11:07:44Z</time>
      </trkpt>
      <trkpt lat="59.9743211" lon="17.7256716">
        <ele>34.2642</ele>
        <time>2014-06-17T11:07:45Z</time>
      </trkpt>
      <trkpt lat="59.9743186" lon="17.7256272">
        <ele>34.2642</ele>
        <time>2014-06-17T11:07:46Z</time>
      </trkpt>
      <trkpt lat="59.9743206" lon="17.7255871">
        <ele>34.2642</ele>
        <time>2014-06-17T11:07:47Z</time>
      </trkpt>
      <trkpt lat="59.9743211" lon="17.72554">
        <ele>34.2642</ele>
        <time>2014-06-17T11:07:48Z</time>
      </trkpt>
      <trkpt lat="59.9743189" lon="17.7254914">
        <ele>34.2642</ele>
        <time>2014-06-17T11:07:49Z</time>
      </trkpt>
      <trkpt lat="59.9743159" lon="17.7254422">
        <ele>34.2642</ele>
        <time>2014-06-17T11:07:50Z</time>
      </trkpt>
      <trkpt lat="59.9743128" lon="17.7253903">
        <ele>34.2642</ele>
        <time>2014-06-17T11:07:51Z</time>
      </trkpt>
      <trkpt lat="59.9743081" lon="17.7253411">
        <ele>33.7834</ele>
        <time>2014-06-17T11:07:52Z</time>
      </trkpt>
      <trkpt lat="59.9743025" lon="17.7252924">
        <ele>33.7834</ele>
        <time>2014-06-17T11:07:53Z</time>
      </trkpt>
      <trkpt lat="59.9742961" lon="17.7252401">
        <ele>33.3029</ele>
        <time>2014-06-17T11:07:54Z</time>
      </trkpt>
      <trkpt lat="59.9742905" lon="17.7251883">
        <ele>32.8223</ele>
        <time>2014-06-17T11:07:55Z</time>
      </trkpt>
      <trkpt lat="59.9742862" lon="17.7251395">
        <ele>33.3029</ele>
        <time>2014-06-17T11:07:56Z</time>
      </trkpt>
      <trkpt lat="59.9742793" lon="17.7250888">
        <ele>33.3029</ele>
        <time>2014-06-17T11:07:57Z</time>
      </trkpt>
      <trkpt lat="59.9742729" lon="17.7250376">
        <ele>33.3029</ele>
        <time>2014-06-17T11:07:58Z</time>
      </trkpt>
      <trkpt lat="59.9742641" lon="17.7249483">
        <ele>33.7834</ele>
        <time>2014-06-17T11:08:00Z</time>
      </trkpt>
      <trkpt lat="59.9742544" lon="17.7248975">
        <ele>33.3029</ele>
        <time>2014-06-17T11:08:01Z</time>
      </trkpt>
      <trkpt lat="59.9742469" lon="17.7248481">
        <ele>32.8223</ele>
        <time>2014-06-17T11:08:02Z</time>
      </trkpt>
      <trkpt lat="59.9742399" lon="17.7247999">
        <ele>32.8223</ele>
        <time>2014-06-17T11:08:03Z</time>
      </trkpt>
      <trkpt lat="59.974232" lon="17.7247447">
        <ele>32.8223</ele>
        <time>2014-06-17T11:08:04Z</time>
      </trkpt>
      <trkpt lat="59.9742267" lon="17.7246961">
        <ele>32.8223</ele>
        <time>2014-06-17T11:08:05Z</time>
      </trkpt>
      <trkpt lat="59.9742197" lon="17.7246489">
        <ele>32.8223</ele>
        <time>2014-06-17T11:08:06Z</time>
      </trkpt>
      <trkpt lat="59.9742147" lon="17.7245998">
        <ele>32.8223</ele>
        <time>2014-06-17T11:08:07Z</time>
      </trkpt>
      <trkpt lat="59.974209" lon="17.7245547">
        <ele>33.3029</ele>
        <time>2014-06-17T11:08:08Z</time>
      </trkpt>
      <trkpt lat="59.974204" lon="17.7245128">
        <ele>33.7834</ele>
        <time>2014-06-17T11:08:09Z</time>
      </trkpt>
      <trkpt lat="59.9741937" lon="17.7244603">
        <ele>33.7834</ele>
        <time>2014-06-17T11:08:10Z</time>
      </trkpt>
      <trkpt lat="59.9741824" lon="17.7244067">
        <ele>33.3029</ele>
        <time>2014-06-17T11:08:11Z</time>
      </trkpt>
      <trkpt lat="59.9741746" lon="17.7243548">
        <ele>32.8223</ele>
        <time>2014-06-17T11:08:12Z</time>
      </trkpt>
      <trkpt lat="59.9741702" lon="17.7243093">
        <ele>33.3029</ele>
        <time>2014-06-17T11:08:13Z</time>
      </trkpt>
      <trkpt lat="59.9741619" lon="17.7242598">
        <ele>33.7834</ele>
        <time>2014-06-17T11:08:14Z</time>
      </trkpt>
      <trkpt lat="59.9741524" lon="17.7242082">
        <ele>33.3029</ele>
        <time>2014-06-17T11:08:15Z</time>
      </trkpt>
      <trkpt lat="59.9741464" lon="17.7241598">
        <ele>34.2642</ele>
        <time>2014-06-17T11:08:16Z</time>
      </trkpt>
      <trkpt lat="59.9741337" lon="17.7241036">
        <ele>34.2642</ele>
        <time>2014-06-17T11:08:17Z</time>
      </trkpt>
      <trkpt lat="59.9741274" lon="17.7240571">
        <ele>34.7449</ele>
        <time>2014-06-17T11:08:18Z</time>
      </trkpt>
      <trkpt lat="59.9741175" lon="17.7240073">
        <ele>34.7449</ele>
        <time>2014-06-17T11:08:19Z</time>
      </trkpt>
      <trkpt lat="59.9741035" lon="17.7239482">
        <ele>34.2642</ele>
        <time>2014-06-17T11:08:20Z</time>
      </trkpt>
      <trkpt lat="59.974094" lon="17.723897">
        <ele>33.7834</ele>
        <time>2014-06-17T11:08:21Z</time>
      </trkpt>
      <trkpt lat="59.9740866" lon="17.7238498">
        <ele>33.7834</ele>
        <time>2014-06-17T11:08:22Z</time>
      </trkpt>
      <trkpt lat="59.9740818" lon="17.7238067">
        <ele>34.2642</ele>
        <time>2014-06-17T11:08:23Z</time>
      </trkpt>
      <trkpt lat="59.9740766" lon="17.7237622">
        <ele>34.2642</ele>
        <time>2014-06-17T11:08:24Z</time>
      </trkpt>
      <trkpt lat="59.974072" lon="17.7237177">
        <ele>34.2642</ele>
        <time>2014-06-17T11:08:25Z</time>
      </trkpt>
      <trkpt lat="59.9740656" lon="17.7236741">
        <ele>34.7449</ele>
        <time>2014-06-17T11:08:26Z</time>
      </trkpt>
      <trkpt lat="59.9740601" lon="17.7236271">
        <ele>35.2255</ele>
        <time>2014-06-17T11:08:27Z</time>
      </trkpt>
      <trkpt lat="59.9740522" lon="17.7235807">
        <ele>35.7061</ele>
        <time>2014-06-17T11:08:28Z</time>
      </trkpt>
      <trkpt lat="59.9740436" lon="17.7235341">
        <ele>35.2255</ele>
        <time>2014-06-17T11:08:29Z</time>
      </trkpt>
      <trkpt lat="59.9740378" lon="17.7234819">
        <ele>35.7061</ele>
        <time>2014-06-17T11:08:30Z</time>
      </trkpt>
      <trkpt lat="59.9740363" lon="17.7234374">
        <ele>36.1868</ele>
        <time>2014-06-17T11:08:31Z</time>
      </trkpt>
      <trkpt lat="59.9740331" lon="17.723396">
        <ele>36.6675</ele>
        <time>2014-06-17T11:08:32Z</time>
      </trkpt>
      <trkpt lat="59.9740274" lon="17.7233488">
        <ele>36.6675</ele>
        <time>2014-06-17T11:08:33Z</time>
      </trkpt>
      <trkpt lat="59.9740191" lon="17.7233011">
        <ele>36.1868</ele>
        <time>2014-06-17T11:08:34Z</time>
      </trkpt>
      <trkpt lat="59.9740037" lon="17.7232469">
        <ele>35.7061</ele>
        <time>2014-06-17T11:08:35Z</time>
      </trkpt>
      <trkpt lat="59.9739858" lon="17.7231903">
        <ele>34.7449</ele>
        <time>2014-06-17T11:08:36Z</time>
      </trkpt>
      <trkpt lat="59.9739725" lon="17.7231401">
        <ele>34.7449</ele>
        <time>2014-06-17T11:08:37Z</time>
      </trkpt>
      <trkpt lat="59.9739641" lon="17.7230939">
        <ele>34.7449</ele>
        <time>2014-06-17T11:08:38Z</time>
      </trkpt>
      <trkpt lat="59.9739543" lon="17.7230504">
        <ele>34.2642</ele>
        <time>2014-06-17T11:08:39Z</time>
      </trkpt>
      <trkpt lat="59.9739444" lon="17.7230073">
        <ele>34.2642</ele>
        <time>2014-06-17T11:08:40Z</time>
      </trkpt>
      <trkpt lat="59.9739361" lon="17.7229655">
        <ele>34.2642</ele>
        <time>2014-06-17T11:08:41Z</time>
      </trkpt>
      <trkpt lat="59.9739277" lon="17.7229271">
        <ele>33.7834</ele>
        <time>2014-06-17T11:08:42Z</time>
      </trkpt>
      <trkpt lat="59.9739154" lon="17.7228819">
        <ele>33.3029</ele>
        <time>2014-06-17T11:08:43Z</time>
      </trkpt>
      <trkpt lat="59.9739067" lon="17.7228374">
        <ele>33.3029</ele>
        <time>2014-06-17T11:08:44Z</time>
      </trkpt>
      <trkpt lat="59.9738958" lon="17.7227947">
        <ele>33.3029</ele>
        <time>2014-06-17T11:08:45Z</time>
      </trkpt>
      <trkpt lat="59.9738884" lon="17.7227546">
        <ele>33.7834</ele>
        <time>2014-06-17T11:08:46Z</time>
      </trkpt>
      <trkpt lat="59.9738798" lon="17.722713">
        <ele>33.3029</ele>
        <time>2014-06-17T11:08:47Z</time>
      </trkpt>
      <trkpt lat="59.9738726" lon="17.7226752">
        <ele>33.7834</ele>
        <time>2014-06-17T11:08:48Z</time>
      </trkpt>
      <trkpt lat="59.9738633" lon="17.7226364">
        <ele>33.7834</ele>
        <time>2014-06-17T11:08:49Z</time>
      </trkpt>
      <trkpt lat="59.9738512" lon="17.7225944">
        <ele>33.3029</ele>
        <time>2014-06-17T11:08:50Z</time>
      </trkpt>
      <trkpt lat="59.973841" lon="17.7225523">
        <ele>33.3029</ele>
        <time>2014-06-17T11:08:51Z</time>
      </trkpt>
      <trkpt lat="59.9738284" lon="17.7225096">
        <ele>32.8223</ele>
        <time>2014-06-17T11:08:52Z</time>
      </trkpt>
      <trkpt lat="59.973815" lon="17.7224645">
        <ele>32.8223</ele>
        <time>2014-06-17T11:08:53Z</time>
      </trkpt>
      <trkpt lat="59.9738025" lon="17.7224204">
        <ele>32.8223</ele>
        <time>2014-06-17T11:08:54Z</time>
      </trkpt>
      <trkpt lat="59.9737921" lon="17.7223807">
        <ele>32.8223</ele>
        <time>2014-06-17T11:08:55Z</time>
      </trkpt>
      <trkpt lat="59.9737812" lon="17.7223398">
        <ele>33.3029</ele>
        <time>2014-06-17T11:08:56Z</time>
      </trkpt>
      <trkpt lat="59.9737687" lon="17.7223">
        <ele>33.3029</ele>
        <time>2014-06-17T11:08:57Z</time>
      </trkpt>
      <trkpt lat="59.9737573" lon="17.7222584">
        <ele>33.7834</ele>
        <time>2014-06-17T11:08:58Z</time>
      </trkpt>
      <trkpt lat="59.9737446" lon="17.7222178">
        <ele>34.2642</ele>
        <time>2014-06-17T11:08:59Z</time>
      </trkpt>
      <trkpt lat="59.9737321" lon="17.7221805">
        <ele>34.7449</ele>
        <time>2014-06-17T11:09:00Z</time>
      </trkpt>
      <trkpt lat="59.9737203" lon="17.7221425">
        <ele>35.2255</ele>
        <time>2014-06-17T11:09:01Z</time>
      </trkpt>
      <trkpt lat="59.9737077" lon="17.7221056">
        <ele>35.2255</ele>
        <time>2014-06-17T11:09:02Z</time>
      </trkpt>
      <trkpt lat="59.9736924" lon="17.7220662">
        <ele>35.2255</ele>
        <time>2014-06-17T11:09:03Z</time>
      </trkpt>
      <trkpt lat="59.9736819" lon="17.7220311">
        <ele>35.7061</ele>
        <time>2014-06-17T11:09:04Z</time>
      </trkpt>
      <trkpt lat="59.9736699" lon="17.7219977">
        <ele>35.7061</ele>
        <time>2014-06-17T11:09:05Z</time>
      </trkpt>
      <trkpt lat="59.9736571" lon="17.721959">
        <ele>36.1868</ele>
        <time>2014-06-17T11:09:06Z</time>
      </trkpt>
      <trkpt lat="59.9736435" lon="17.7219215">
        <ele>36.1868</ele>
        <time>2014-06-17T11:09:07Z</time>
      </trkpt>
      <trkpt lat="59.9736268" lon="17.7218865">
        <ele>35.7061</ele>
        <time>2014-06-17T11:09:08Z</time>
      </trkpt>
      <trkpt lat="59.9736124" lon="17.7218519">
        <ele>35.7061</ele>
        <time>2014-06-17T11:09:09Z</time>
      </trkpt>
      <trkpt lat="59.9735985" lon="17.7218154">
        <ele>35.7061</ele>
        <time>2014-06-17T11:09:10Z</time>
      </trkpt>
      <trkpt lat="59.9735833" lon="17.7217811">
        <ele>35.7061</ele>
        <time>2014-06-17T11:09:11Z</time>
      </trkpt>
      <trkpt lat="59.9735679" lon="17.7217501">
        <ele>35.7061</ele>
        <time>2014-06-17T11:09:12Z</time>
      </trkpt>
      <trkpt lat="59.9735529" lon="17.72172">
        <ele>35.7061</ele>
        <time>2014-06-17T11:09:13Z</time>
      </trkpt>
      <trkpt lat="59.9735379" lon="17.7216886">
        <ele>35.7061</ele>
        <time>2014-06-17T11:09:14Z</time>
      </trkpt>
      <trkpt lat="59.9735218" lon="17.7216551">
        <ele>35.2255</ele>
        <time>2014-06-17T11:09:15Z</time>
      </trkpt>
      <trkpt lat="59.9735036" lon="17.7216213">
        <ele>35.2255</ele>
        <time>2014-06-17T11:09:16Z</time>
      </trkpt>
      <trkpt lat="59.9734859" lon="17.7215859">
        <ele>34.7449</ele>
        <time>2014-06-17T11:09:17Z</time>
      </trkpt>
      <trkpt lat="59.973467" lon="17.7215483">
        <ele>33.7834</ele>
        <time>2014-06-17T11:09:18Z</time>
      </trkpt>
      <trkpt lat="59.9734491" lon="17.721512">
        <ele>33.7834</ele>
        <time>2014-06-17T11:09:19Z</time>
      </trkpt>
      <trkpt lat="59.9734299" lon="17.7214721">
        <ele>33.3029</ele>
        <time>2014-06-17T11:09:20Z</time>
      </trkpt>
      <trkpt lat="59.9734114" lon="17.7214313">
        <ele>32.8223</ele>
        <time>2014-06-17T11:09:21Z</time>
      </trkpt>
      <trkpt lat="59.9733924" lon="17.7213933">
        <ele>32.8223</ele>
        <time>2014-06-17T11:09:22Z</time>
      </trkpt>
      <trkpt lat="59.9733728" lon="17.7213574">
        <ele>32.8223</ele>
        <time>2014-06-17T11:09:23Z</time>
      </trkpt>
      <trkpt lat="59.9733551" lon="17.7213248">
        <ele>33.3029</ele>
        <time>2014-06-17T11:09:24Z</time>
      </trkpt>
      <trkpt lat="59.9733368" lon="17.7212933">
        <ele>33.3029</ele>
        <time>2014-06-17T11:09:25Z</time>
      </trkpt>
      <trkpt lat="59.9733162" lon="17.7212631">
        <ele>33.3029</ele>
        <time>2014-06-17T11:09:26Z</time>
      </trkpt>
      <trkpt lat="59.9732963" lon="17.7212307">
        <ele>33.3029</ele>
        <time>2014-06-17T11:09:27Z</time>
      </trkpt>
      <trkpt lat="59.9732764" lon="17.7211969">
        <ele>33.3029</ele>
        <time>2014-06-17T11:09:28Z</time>
      </trkpt>
      <trkpt lat="59.9732578" lon="17.7211645">
        <ele>33.3029</ele>
        <time>2014-06-17T11:09:29Z</time>
      </trkpt>
      <trkpt lat="59.9732412" lon="17.7211359">
        <ele>33.3029</ele>
        <time>2014-06-17T11:09:30Z</time>
      </trkpt>
      <trkpt lat="59.9732241" lon="17.7211057">
        <ele>33.3029</ele>
        <time>2014-06-17T11:09:31Z</time>
      </trkpt>
      <trkpt lat="59.9732069" lon="17.7210758">
        <ele>33.3029</ele>
        <time>2014-06-17T11:09:32Z</time>
      </trkpt>
      <trkpt lat="59.9731898" lon="17.7210461">
        <ele>33.7834</ele>
        <time>2014-06-17T11:09:33Z</time>
      </trkpt>
      <trkpt lat="59.973172" lon="17.7210116">
        <ele>33.7834</ele>
        <time>2014-06-17T11:09:34Z</time>
      </trkpt>
      <trkpt lat="59.9731551" lon="17.7209774">
        <ele>34.2642</ele>
        <time>2014-06-17T11:09:35Z</time>
      </trkpt>
      <trkpt lat="59.9731375" lon="17.7209459">
        <ele>34.7449</ele>
        <time>2014-06-17T11:09:36Z</time>
      </trkpt>
      <trkpt lat="59.9731182" lon="17.7209148">
        <ele>35.7061</ele>
        <time>2014-06-17T11:09:37Z</time>
      </trkpt>
      <trkpt lat="59.9730981" lon="17.720884">
        <ele>36.1868</ele>
        <time>2014-06-17T11:09:38Z</time>
      </trkpt>
      <trkpt lat="59.9730783" lon="17.7208572">
        <ele>36.1868</ele>
        <time>2014-06-17T11:09:39Z</time>
      </trkpt>
      <trkpt lat="59.9730591" lon="17.7208307">
        <ele>36.1868</ele>
        <time>2014-06-17T11:09:40Z</time>
      </trkpt>
      <trkpt lat="59.9730392" lon="17.7208045">
        <ele>36.6675</ele>
        <time>2014-06-17T11:09:41Z</time>
      </trkpt>
      <trkpt lat="59.9730187" lon="17.7207765">
        <ele>37.1481</ele>
        <time>2014-06-17T11:09:42Z</time>
      </trkpt>
      <trkpt lat="59.9729988" lon="17.720747">
        <ele>37.1481</ele>
        <time>2014-06-17T11:09:43Z</time>
      </trkpt>
      <trkpt lat="59.9729784" lon="17.7207216">
        <ele>37.1481</ele>
        <time>2014-06-17T11:09:44Z</time>
      </trkpt>
      <trkpt lat="59.972958" lon="17.7206957">
        <ele>36.6675</ele>
        <time>2014-06-17T11:09:45Z</time>
      </trkpt>
      <trkpt lat="59.972938" lon="17.7206707">
        <ele>36.6675</ele>
        <time>2014-06-17T11:09:46Z</time>
      </trkpt>
      <trkpt lat="59.9729172" lon="17.7206433">
        <ele>36.6675</ele>
        <time>2014-06-17T11:09:47Z</time>
      </trkpt>
      <trkpt lat="59.9728965" lon="17.7206162">
        <ele>36.6675</ele>
        <time>2014-06-17T11:09:48Z</time>
      </trkpt>
      <trkpt lat="59.9728759" lon="17.720591">
        <ele>36.6675</ele>
        <time>2014-06-17T11:09:49Z</time>
      </trkpt>
      <trkpt lat="59.9728545" lon="17.7205625">
        <ele>37.1481</ele>
        <time>2014-06-17T11:09:50Z</time>
      </trkpt>
      <trkpt lat="59.9728307" lon="17.7205376">
        <ele>37.1481</ele>
        <time>2014-06-17T11:09:51Z</time>
      </trkpt>
      <trkpt lat="59.9728066" lon="17.7205153">
        <ele>37.1481</ele>
        <time>2014-06-17T11:09:52Z</time>
      </trkpt>
      <trkpt lat="59.9727847" lon="17.720493">
        <ele>37.6287</ele>
        <time>2014-06-17T11:09:53Z</time>
      </trkpt>
      <trkpt lat="59.972764" lon="17.7204728">
        <ele>37.6287</ele>
        <time>2014-06-17T11:09:54Z</time>
      </trkpt>
      <trkpt lat="59.9727459" lon="17.7204458">
        <ele>37.6287</ele>
        <time>2014-06-17T11:09:55Z</time>
      </trkpt>
      <trkpt lat="59.9727252" lon="17.720423">
        <ele>38.1094</ele>
        <time>2014-06-17T11:09:56Z</time>
      </trkpt>
      <trkpt lat="59.9727029" lon="17.7204071">
        <ele>38.1094</ele>
        <time>2014-06-17T11:09:57Z</time>
      </trkpt>
      <trkpt lat="59.9726809" lon="17.7203885">
        <ele>38.1094</ele>
        <time>2014-06-17T11:09:58Z</time>
      </trkpt>
      <trkpt lat="59.9726578" lon="17.7203655">
        <ele>38.1094</ele>
        <time>2014-06-17T11:09:59Z</time>
      </trkpt>
      <trkpt lat="59.9726371" lon="17.7203422">
        <ele>38.5901</ele>
        <time>2014-06-17T11:10:00Z</time>
      </trkpt>
      <trkpt lat="59.9726157" lon="17.7203211">
        <ele>38.5901</ele>
        <time>2014-06-17T11:10:01Z</time>
      </trkpt>
      <trkpt lat="59.9725906" lon="17.7203046">
        <ele>38.5901</ele>
        <time>2014-06-17T11:10:02Z</time>
      </trkpt>
      <trkpt lat="59.9725656" lon="17.7202888">
        <ele>39.0707</ele>
        <time>2014-06-17T11:10:03Z</time>
      </trkpt>
      <trkpt lat="59.9725418" lon="17.7202691">
        <ele>38.5901</ele>
        <time>2014-06-17T11:10:04Z</time>
      </trkpt>
      <trkpt lat="59.9725189" lon="17.7202495">
        <ele>38.5901</ele>
        <time>2014-06-17T11:10:05Z</time>
      </trkpt>
      <trkpt lat="59.9724952" lon="17.7202331">
        <ele>39.0707</ele>
        <time>2014-06-17T11:10:06Z</time>
      </trkpt>
      <trkpt lat="59.9724739" lon="17.720214">
        <ele>39.0707</ele>
        <time>2014-06-17T11:10:07Z</time>
      </trkpt>
      <trkpt lat="59.972455" lon="17.7201926">
        <ele>38.5901</ele>
        <time>2014-06-17T11:10:08Z</time>
      </trkpt>
      <trkpt lat="59.972433" lon="17.720172">
        <ele>38.5901</ele>
        <time>2014-06-17T11:10:09Z</time>
      </trkpt>
      <trkpt lat="59.9724102" lon="17.7201512">
        <ele>38.5901</ele>
        <time>2014-06-17T11:10:10Z</time>
      </trkpt>
      <trkpt lat="59.9723891" lon="17.720131">
        <ele>38.5901</ele>
        <time>2014-06-17T11:10:11Z</time>
      </trkpt>
      <trkpt lat="59.9723682" lon="17.72011">
        <ele>38.5901</ele>
        <time>2014-06-17T11:10:12Z</time>
      </trkpt>
      <trkpt lat="59.9723455" lon="17.7200889">
        <ele>39.0707</ele>
        <time>2014-06-17T11:10:13Z</time>
      </trkpt>
      <trkpt lat="59.9723233" lon="17.7200693">
        <ele>39.0707</ele>
        <time>2014-06-17T11:10:14Z</time>
      </trkpt>
      <trkpt lat="59.9723008" lon="17.7200481">
        <ele>39.5513</ele>
        <time>2014-06-17T11:10:15Z</time>
      </trkpt>
      <trkpt lat="59.9722797" lon="17.7200222">
        <ele>39.5513</ele>
        <time>2014-06-17T11:10:16Z</time>
      </trkpt>
      <trkpt lat="59.9722587" lon="17.7199977">
        <ele>40.0321</ele>
        <time>2014-06-17T11:10:17Z</time>
      </trkpt>
      <trkpt lat="59.9722368" lon="17.7199755">
        <ele>40.0321</ele>
        <time>2014-06-17T11:10:18Z</time>
      </trkpt>
      <trkpt lat="59.9722158" lon="17.7199563">
        <ele>40.0321</ele>
        <time>2014-06-17T11:10:19Z</time>
      </trkpt>
      <trkpt lat="59.9721942" lon="17.7199394">
        <ele>39.5513</ele>
        <time>2014-06-17T11:10:20Z</time>
      </trkpt>
      <trkpt lat="59.9721709" lon="17.719919">
        <ele>40.0321</ele>
        <time>2014-06-17T11:10:21Z</time>
      </trkpt>
      <trkpt lat="59.9721486" lon="17.7198994">
        <ele>40.0321</ele>
        <time>2014-06-17T11:10:22Z</time>
      </trkpt>
      <trkpt lat="59.9721242" lon="17.7198847">
        <ele>40.0321</ele>
        <time>2014-06-17T11:10:23Z</time>
      </trkpt>
      <trkpt lat="59.9721002" lon="17.7198694">
        <ele>40.0321</ele>
        <time>2014-06-17T11:10:24Z</time>
      </trkpt>
      <trkpt lat="59.9720776" lon="17.7198502">
        <ele>40.0321</ele>
        <time>2014-06-17T11:10:25Z</time>
      </trkpt>
      <trkpt lat="59.9720547" lon="17.7198274">
        <ele>40.5128</ele>
        <time>2014-06-17T11:10:26Z</time>
      </trkpt>
      <trkpt lat="59.9720319" lon="17.7198072">
        <ele>40.5128</ele>
        <time>2014-06-17T11:10:27Z</time>
      </trkpt>
      <trkpt lat="59.9720087" lon="17.7197889">
        <ele>40.9934</ele>
        <time>2014-06-17T11:10:28Z</time>
      </trkpt>
      <trkpt lat="59.9719859" lon="17.7197684">
        <ele>40.9934</ele>
        <time>2014-06-17T11:10:29Z</time>
      </trkpt>
      <trkpt lat="59.9719638" lon="17.7197503">
        <ele>41.474</ele>
        <time>2014-06-17T11:10:30Z</time>
      </trkpt>
      <trkpt lat="59.971942" lon="17.7197305">
        <ele>41.474</ele>
        <time>2014-06-17T11:10:31Z</time>
      </trkpt>
      <trkpt lat="59.9719201" lon="17.7197092">
        <ele>41.474</ele>
        <time>2014-06-17T11:10:32Z</time>
      </trkpt>
      <trkpt lat="59.9718978" lon="17.7196896">
        <ele>41.9547</ele>
        <time>2014-06-17T11:10:33Z</time>
      </trkpt>
      <trkpt lat="59.9718745" lon="17.7196684">
        <ele>42.4354</ele>
        <time>2014-06-17T11:10:34Z</time>
      </trkpt>
      <trkpt lat="59.9718514" lon="17.7196502">
        <ele>42.4354</ele>
        <time>2014-06-17T11:10:35Z</time>
      </trkpt>
      <trkpt lat="59.971827" lon="17.7196414">
        <ele>42.4354</ele>
        <time>2014-06-17T11:10:36Z</time>
      </trkpt>
      <trkpt lat="59.9718009" lon="17.7196285">
        <ele>42.4354</ele>
        <time>2014-06-17T11:10:37Z</time>
      </trkpt>
      <trkpt lat="59.9717768" lon="17.7196078">
        <ele>42.916</ele>
        <time>2014-06-17T11:10:38Z</time>
      </trkpt>
      <trkpt lat="59.9717528" lon="17.7195881">
        <ele>42.916</ele>
        <time>2014-06-17T11:10:39Z</time>
      </trkpt>
      <trkpt lat="59.9717281" lon="17.7195668">
        <ele>43.3966</ele>
        <time>2014-06-17T11:10:40Z</time>
      </trkpt>
      <trkpt lat="59.9717052" lon="17.7195472">
        <ele>42.916</ele>
        <time>2014-06-17T11:10:41Z</time>
      </trkpt>
      <trkpt lat="59.9716829" lon="17.719528">
        <ele>43.3966</ele>
        <time>2014-06-17T11:10:42Z</time>
      </trkpt>
      <trkpt lat="59.9716602" lon="17.7195081">
        <ele>43.3966</ele>
        <time>2014-06-17T11:10:43Z</time>
      </trkpt>
      <trkpt lat="59.9716383" lon="17.7194898">
        <ele>43.3966</ele>
        <time>2014-06-17T11:10:44Z</time>
      </trkpt>
      <trkpt lat="59.9716166" lon="17.7194677">
        <ele>43.3966</ele>
        <time>2014-06-17T11:10:45Z</time>
      </trkpt>
      <trkpt lat="59.9715938" lon="17.7194462">
        <ele>43.3966</ele>
        <time>2014-06-17T11:10:46Z</time>
      </trkpt>
      <trkpt lat="59.971572" lon="17.719426">
        <ele>43.3966</ele>
        <time>2014-06-17T11:10:47Z</time>
      </trkpt>
      <trkpt lat="59.971549" lon="17.7194032">
        <ele>43.3966</ele>
        <time>2014-06-17T11:10:48Z</time>
      </trkpt>
      <trkpt lat="59.9715269" lon="17.7193829">
        <ele>43.3966</ele>
        <time>2014-06-17T11:10:49Z</time>
      </trkpt>
      <trkpt lat="59.9715071" lon="17.7193634">
        <ele>43.3966</ele>
        <time>2014-06-17T11:10:50Z</time>
      </trkpt>
      <trkpt lat="59.9714854" lon="17.7193423">
        <ele>43.3966</ele>
        <time>2014-06-17T11:10:51Z</time>
      </trkpt>
      <trkpt lat="59.9714611" lon="17.7193225">
        <ele>43.3966</ele>
        <time>2014-06-17T11:10:52Z</time>
      </trkpt>
      <trkpt lat="59.971438" lon="17.7193028">
        <ele>43.3966</ele>
        <time>2014-06-17T11:10:53Z</time>
      </trkpt>
      <trkpt lat="59.9714176" lon="17.719281">
        <ele>43.3966</ele>
        <time>2014-06-17T11:10:54Z</time>
      </trkpt>
      <trkpt lat="59.9713954" lon="17.7192607">
        <ele>42.916</ele>
        <time>2014-06-17T11:10:55Z</time>
      </trkpt>
      <trkpt lat="59.9713738" lon="17.719241">
        <ele>42.916</ele>
        <time>2014-06-17T11:10:56Z</time>
      </trkpt>
      <trkpt lat="59.9713539" lon="17.7192167">
        <ele>42.916</ele>
        <time>2014-06-17T11:10:57Z</time>
      </trkpt>
      <trkpt lat="59.9713341" lon="17.7191964">
        <ele>43.3966</ele>
        <time>2014-06-17T11:10:58Z</time>
      </trkpt>
      <trkpt lat="59.9713115" lon="17.7191823">
        <ele>43.3966</ele>
        <time>2014-06-17T11:10:59Z</time>
      </trkpt>
      <trkpt lat="59.9712882" lon="17.7191663">
        <ele>43.3966</ele>
        <time>2014-06-17T11:11:00Z</time>
      </trkpt>
      <trkpt lat="59.971268" lon="17.7191472">
        <ele>43.3966</ele>
        <time>2014-06-17T11:11:01Z</time>
      </trkpt>
      <trkpt lat="59.9712481" lon="17.7191267">
        <ele>43.3966</ele>
        <time>2014-06-17T11:11:02Z</time>
      </trkpt>
      <trkpt lat="59.9712284" lon="17.7191061">
        <ele>43.3966</ele>
        <time>2014-06-17T11:11:03Z</time>
      </trkpt>
      <trkpt lat="59.97121" lon="17.7190887">
        <ele>42.916</ele>
        <time>2014-06-17T11:11:04Z</time>
      </trkpt>
      <trkpt lat="59.9711897" lon="17.7190686">
        <ele>42.916</ele>
        <time>2014-06-17T11:11:05Z</time>
      </trkpt>
      <trkpt lat="59.971167" lon="17.7190478">
        <ele>42.916</ele>
        <time>2014-06-17T11:11:06Z</time>
      </trkpt>
      <trkpt lat="59.9711457" lon="17.7190266">
        <ele>42.916</ele>
        <time>2014-06-17T11:11:07Z</time>
      </trkpt>
      <trkpt lat="59.9711245" lon="17.7190043">
        <ele>42.916</ele>
        <time>2014-06-17T11:11:08Z</time>
      </trkpt>
      <trkpt lat="59.9711048" lon="17.7189862">
        <ele>42.916</ele>
        <time>2014-06-17T11:11:09Z</time>
      </trkpt>
      <trkpt lat="59.9710839" lon="17.7189687">
        <ele>42.916</ele>
        <time>2014-06-17T11:11:10Z</time>
      </trkpt>
      <trkpt lat="59.9710632" lon="17.7189473">
        <ele>42.4354</ele>
        <time>2014-06-17T11:11:11Z</time>
      </trkpt>
      <trkpt lat="59.9710416" lon="17.7189254">
        <ele>41.9547</ele>
        <time>2014-06-17T11:11:12Z</time>
      </trkpt>
      <trkpt lat="59.9710167" lon="17.7189074">
        <ele>41.474</ele>
        <time>2014-06-17T11:11:13Z</time>
      </trkpt>
      <trkpt lat="59.9709915" lon="17.7188884">
        <ele>40.5128</ele>
        <time>2014-06-17T11:11:14Z</time>
      </trkpt>
      <trkpt lat="59.9709694" lon="17.7188661">
        <ele>40.0321</ele>
        <time>2014-06-17T11:11:15Z</time>
      </trkpt>
      <trkpt lat="59.9709473" lon="17.7188432">
        <ele>39.5513</ele>
        <time>2014-06-17T11:11:16Z</time>
      </trkpt>
      <trkpt lat="59.970924" lon="17.71882">
        <ele>39.0707</ele>
        <time>2014-06-17T11:11:17Z</time>
      </trkpt>
      <trkpt lat="59.9709046" lon="17.7187953">
        <ele>38.5901</ele>
        <time>2014-06-17T11:11:18Z</time>
      </trkpt>
      <trkpt lat="59.9708844" lon="17.7187741">
        <ele>38.1094</ele>
        <time>2014-06-17T11:11:19Z</time>
      </trkpt>
      <trkpt lat="59.9708628" lon="17.7187544">
        <ele>37.6287</ele>
        <time>2014-06-17T11:11:20Z</time>
      </trkpt>
      <trkpt lat="59.9708441" lon="17.718735">
        <ele>37.1481</ele>
        <time>2014-06-17T11:11:21Z</time>
      </trkpt>
      <trkpt lat="59.9708239" lon="17.7187143">
        <ele>36.6675</ele>
        <time>2014-06-17T11:11:22Z</time>
      </trkpt>
      <trkpt lat="59.9708031" lon="17.718693">
        <ele>36.6675</ele>
        <time>2014-06-17T11:11:23Z</time>
      </trkpt>
      <trkpt lat="59.9707829" lon="17.7186743">
        <ele>36.1868</ele>
        <time>2014-06-17T11:11:24Z</time>
      </trkpt>
      <trkpt lat="59.9707612" lon="17.7186558">
        <ele>35.7061</ele>
        <time>2014-06-17T11:11:25Z</time>
      </trkpt>
      <trkpt lat="59.9707375" lon="17.7186358">
        <ele>35.7061</ele>
        <time>2014-06-17T11:11:26Z</time>
      </trkpt>
      <trkpt lat="59.9707148" lon="17.7186148">
        <ele>35.2255</ele>
        <time>2014-06-17T11:11:27Z</time>
      </trkpt>
      <trkpt lat="59.9706921" lon="17.718593">
        <ele>34.7449</ele>
        <time>2014-06-17T11:11:28Z</time>
      </trkpt>
      <trkpt lat="59.9706697" lon="17.7185724">
        <ele>34.7449</ele>
        <time>2014-06-17T11:11:29Z</time>
      </trkpt>
      <trkpt lat="59.9706474" lon="17.7185531">
        <ele>34.2642</ele>
        <time>2014-06-17T11:11:30Z</time>
      </trkpt>
      <trkpt lat="59.9706231" lon="17.7185333">
        <ele>33.7834</ele>
        <time>2014-06-17T11:11:31Z</time>
      </trkpt>
      <trkpt lat="59.9705983" lon="17.7185177">
        <ele>33.7834</ele>
        <time>2014-06-17T11:11:32Z</time>
      </trkpt>
      <trkpt lat="59.9705748" lon="17.7185008">
        <ele>33.7834</ele>
        <time>2014-06-17T11:11:33Z</time>
      </trkpt>
      <trkpt lat="59.9705539" lon="17.7184821">
        <ele>33.7834</ele>
        <time>2014-06-17T11:11:34Z</time>
      </trkpt>
      <trkpt lat="59.9705324" lon="17.7184655">
        <ele>33.3029</ele>
        <time>2014-06-17T11:11:35Z</time>
      </trkpt>
      <trkpt lat="59.9705092" lon="17.7184427">
        <ele>32.8223</ele>
        <time>2014-06-17T11:11:36Z</time>
      </trkpt>
      <trkpt lat="59.9704876" lon="17.7184161">
        <ele>32.8223</ele>
        <time>2014-06-17T11:11:37Z</time>
      </trkpt>
      <trkpt lat="59.9704659" lon="17.7183955">
        <ele>32.8223</ele>
        <time>2014-06-17T11:11:38Z</time>
      </trkpt>
      <trkpt lat="59.9704431" lon="17.7183747">
        <ele>32.8223</ele>
        <time>2014-06-17T11:11:39Z</time>
      </trkpt>
      <trkpt lat="59.970423" lon="17.718349">
        <ele>32.8223</ele>
        <time>2014-06-17T11:11:40Z</time>
      </trkpt>
      <trkpt lat="59.9704033" lon="17.7183256">
        <ele>32.8223</ele>
        <time>2014-06-17T11:11:41Z</time>
      </trkpt>
      <trkpt lat="59.97038" lon="17.7183027">
        <ele>32.8223</ele>
        <time>2014-06-17T11:11:42Z</time>
      </trkpt>
      <trkpt lat="59.9703568" lon="17.7182787">
        <ele>32.3416</ele>
        <time>2014-06-17T11:11:43Z</time>
      </trkpt>
      <trkpt lat="59.9703339" lon="17.7182574">
        <ele>32.3416</ele>
        <time>2014-06-17T11:11:44Z</time>
      </trkpt>
      <trkpt lat="59.9703117" lon="17.718234">
        <ele>32.3416</ele>
        <time>2014-06-17T11:11:45Z</time>
      </trkpt>
      <trkpt lat="59.9702903" lon="17.7182117">
        <ele>32.8223</ele>
        <time>2014-06-17T11:11:46Z</time>
      </trkpt>
      <trkpt lat="59.9702671" lon="17.7181931">
        <ele>32.8223</ele>
        <time>2014-06-17T11:11:47Z</time>
      </trkpt>
      <trkpt lat="59.9702445" lon="17.7181739">
        <ele>33.3029</ele>
        <time>2014-06-17T11:11:48Z</time>
      </trkpt>
      <trkpt lat="59.9702231" lon="17.7181563">
        <ele>33.3029</ele>
        <time>2014-06-17T11:11:49Z</time>
      </trkpt>
      <trkpt lat="59.9702014" lon="17.7181373">
        <ele>33.3029</ele>
        <time>2014-06-17T11:11:50Z</time>
      </trkpt>
      <trkpt lat="59.9701805" lon="17.7181167">
        <ele>33.3029</ele>
        <time>2014-06-17T11:11:51Z</time>
      </trkpt>
      <trkpt lat="59.9701588" lon="17.7180967">
        <ele>33.3029</ele>
        <time>2014-06-17T11:11:52Z</time>
      </trkpt>
      <trkpt lat="59.9701365" lon="17.7180776">
        <ele>33.3029</ele>
        <time>2014-06-17T11:11:53Z</time>
      </trkpt>
      <trkpt lat="59.9701164" lon="17.7180592">
        <ele>33.7834</ele>
        <time>2014-06-17T11:11:54Z</time>
      </trkpt>
      <trkpt lat="59.9700957" lon="17.7180418">
        <ele>33.7834</ele>
        <time>2014-06-17T11:11:55Z</time>
      </trkpt>
      <trkpt lat="59.9700729" lon="17.7180227">
        <ele>33.7834</ele>
        <time>2014-06-17T11:11:56Z</time>
      </trkpt>
      <trkpt lat="59.970049" lon="17.7180048">
        <ele>33.7834</ele>
        <time>2014-06-17T11:11:57Z</time>
      </trkpt>
      <trkpt lat="59.9700276" lon="17.7179904">
        <ele>33.7834</ele>
        <time>2014-06-17T11:11:58Z</time>
      </trkpt>
      <trkpt lat="59.9700071" lon="17.7179691">
        <ele>33.7834</ele>
        <time>2014-06-17T11:11:59Z</time>
      </trkpt>
      <trkpt lat="59.9699868" lon="17.7179463">
        <ele>33.7834</ele>
        <time>2014-06-17T11:12:00Z</time>
      </trkpt>
      <trkpt lat="59.9699655" lon="17.7179274">
        <ele>33.7834</ele>
        <time>2014-06-17T11:12:01Z</time>
      </trkpt>
      <trkpt lat="59.9699439" lon="17.7179047">
        <ele>33.7834</ele>
        <time>2014-06-17T11:12:02Z</time>
      </trkpt>
      <trkpt lat="59.9699212" lon="17.7178836">
        <ele>33.7834</ele>
        <time>2014-06-17T11:12:03Z</time>
      </trkpt>
      <trkpt lat="59.9698979" lon="17.7178651">
        <ele>33.7834</ele>
        <time>2014-06-17T11:12:04Z</time>
      </trkpt>
      <trkpt lat="59.9698781" lon="17.7178415">
        <ele>34.2642</ele>
        <time>2014-06-17T11:12:05Z</time>
      </trkpt>
      <trkpt lat="59.9698583" lon="17.7178196">
        <ele>34.7449</ele>
        <time>2014-06-17T11:12:06Z</time>
      </trkpt>
      <trkpt lat="59.9698357" lon="17.7177994">
        <ele>35.2255</ele>
        <time>2014-06-17T11:12:07Z</time>
      </trkpt>
      <trkpt lat="59.9698114" lon="17.7177808">
        <ele>35.2255</ele>
        <time>2014-06-17T11:12:08Z</time>
      </trkpt>
      <trkpt lat="59.969789" lon="17.7177662">
        <ele>34.7449</ele>
        <time>2014-06-17T11:12:09Z</time>
      </trkpt>
      <trkpt lat="59.9697662" lon="17.7177485">
        <ele>35.7061</ele>
        <time>2014-06-17T11:12:10Z</time>
      </trkpt>
      <trkpt lat="59.969743" lon="17.7177285">
        <ele>36.1868</ele>
        <time>2014-06-17T11:12:11Z</time>
      </trkpt>
      <trkpt lat="59.9697212" lon="17.7177101">
        <ele>36.1868</ele>
        <time>2014-06-17T11:12:12Z</time>
      </trkpt>
      <trkpt lat="59.9697019" lon="17.7176906">
        <ele>36.6675</ele>
        <time>2014-06-17T11:12:13Z</time>
      </trkpt>
      <trkpt lat="59.9696799" lon="17.7176735">
        <ele>36.6675</ele>
        <time>2014-06-17T11:12:14Z</time>
      </trkpt>
      <trkpt lat="59.9696576" lon="17.7176555">
        <ele>37.1481</ele>
        <time>2014-06-17T11:12:15Z</time>
      </trkpt>
      <trkpt lat="59.9696342" lon="17.7176366">
        <ele>37.1481</ele>
        <time>2014-06-17T11:12:16Z</time>
      </trkpt>
      <trkpt lat="59.9696106" lon="17.7176243">
        <ele>36.6675</ele>
        <time>2014-06-17T11:12:17Z</time>
      </trkpt>
      <trkpt lat="59.9695889" lon="17.7176103">
        <ele>36.1868</ele>
        <time>2014-06-17T11:12:18Z</time>
      </trkpt>
      <trkpt lat="59.9695649" lon="17.717599">
        <ele>36.1868</ele>
        <time>2014-06-17T11:12:19Z</time>
      </trkpt>
      <trkpt lat="59.9695418" lon="17.7175866">
        <ele>36.6675</ele>
        <time>2014-06-17T11:12:20Z</time>
      </trkpt>
      <trkpt lat="59.9695195" lon="17.7175699">
        <ele>36.6675</ele>
        <time>2014-06-17T11:12:21Z</time>
      </trkpt>
      <trkpt lat="59.969499" lon="17.717556">
        <ele>36.6675</ele>
        <time>2014-06-17T11:12:22Z</time>
      </trkpt>
      <trkpt lat="59.9694786" lon="17.717543">
        <ele>37.1481</ele>
        <time>2014-06-17T11:12:23Z</time>
      </trkpt>
      <trkpt lat="59.9694579" lon="17.7175285">
        <ele>37.6287</ele>
        <time>2014-06-17T11:12:24Z</time>
      </trkpt>
      <trkpt lat="59.9694378" lon="17.7175156">
        <ele>38.1094</ele>
        <time>2014-06-17T11:12:25Z</time>
      </trkpt>
      <trkpt lat="59.9694156" lon="17.717503">
        <ele>38.5901</ele>
        <time>2014-06-17T11:12:26Z</time>
      </trkpt>
      <trkpt lat="59.9693912" lon="17.7174931">
        <ele>38.5901</ele>
        <time>2014-06-17T11:12:27Z</time>
      </trkpt>
      <trkpt lat="59.969367" lon="17.7174824">
        <ele>38.5901</ele>
        <time>2014-06-17T11:12:28Z</time>
      </trkpt>
      <trkpt lat="59.9693428" lon="17.7174689">
        <ele>38.5901</ele>
        <time>2014-06-17T11:12:29Z</time>
      </trkpt>
      <trkpt lat="59.9693207" lon="17.717457">
        <ele>39.0707</ele>
        <time>2014-06-17T11:12:30Z</time>
      </trkpt>
      <trkpt lat="59.9692973" lon="17.7174488">
        <ele>38.5901</ele>
        <time>2014-06-17T11:12:31Z</time>
      </trkpt>
      <trkpt lat="59.9692725" lon="17.7174421">
        <ele>38.1094</ele>
        <time>2014-06-17T11:12:32Z</time>
      </trkpt>
      <trkpt lat="59.9692488" lon="17.7174359">
        <ele>38.5901</ele>
        <time>2014-06-17T11:12:33Z</time>
      </trkpt>
      <trkpt lat="59.9692238" lon="17.7174279">
        <ele>38.5901</ele>
        <time>2014-06-17T11:12:34Z</time>
      </trkpt>
      <trkpt lat="59.9692001" lon="17.7174145">
        <ele>39.0707</ele>
        <time>2014-06-17T11:12:35Z</time>
      </trkpt>
      <trkpt lat="59.9691773" lon="17.7174006">
        <ele>39.5513</ele>
        <time>2014-06-17T11:12:36Z</time>
      </trkpt>
      <trkpt lat="59.9691543" lon="17.7173898">
        <ele>40.0321</ele>
        <time>2014-06-17T11:12:37Z</time>
      </trkpt>
      <trkpt lat="59.9691306" lon="17.7173843">
        <ele>40.5128</ele>
        <time>2014-06-17T11:12:38Z</time>
      </trkpt>
      <trkpt lat="59.9691043" lon="17.7173801">
        <ele>40.5128</ele>
        <time>2014-06-17T11:12:39Z</time>
      </trkpt>
      <trkpt lat="59.9690793" lon="17.7173684">
        <ele>40.5128</ele>
        <time>2014-06-17T11:12:40Z</time>
      </trkpt>
      <trkpt lat="59.9690548" lon="17.7173565">
        <ele>41.474</ele>
        <time>2014-06-17T11:12:41Z</time>
      </trkpt>
      <trkpt lat="59.9690281" lon="17.7173549">
        <ele>41.474</ele>
        <time>2014-06-17T11:12:42Z</time>
      </trkpt>
      <trkpt lat="59.9690028" lon="17.7173547">
        <ele>41.9547</ele>
        <time>2014-06-17T11:12:43Z</time>
      </trkpt>
      <trkpt lat="59.9689785" lon="17.7173622">
        <ele>41.9547</ele>
        <time>2014-06-17T11:12:44Z</time>
      </trkpt>
      <trkpt lat="59.9689541" lon="17.7173761">
        <ele>41.9547</ele>
        <time>2014-06-17T11:12:45Z</time>
      </trkpt>
      <trkpt lat="59.9689293" lon="17.7173918">
        <ele>41.474</ele>
        <time>2014-06-17T11:12:46Z</time>
      </trkpt>
      <trkpt lat="59.9689026" lon="17.7174005">
        <ele>40.9934</ele>
        <time>2014-06-17T11:12:47Z</time>
      </trkpt>
      <trkpt lat="59.9688749" lon="17.7174046">
        <ele>40.9934</ele>
        <time>2014-06-17T11:12:48Z</time>
      </trkpt>
      <trkpt lat="59.9688503" lon="17.7174001">
        <ele>40.5128</ele>
        <time>2014-06-17T11:12:49Z</time>
      </trkpt>
      <trkpt lat="59.9688255" lon="17.7173943">
        <ele>40.5128</ele>
        <time>2014-06-17T11:12:50Z</time>
      </trkpt>
      <trkpt lat="59.9688007" lon="17.7173908">
        <ele>40.0321</ele>
        <time>2014-06-17T11:12:51Z</time>
      </trkpt>
      <trkpt lat="59.9687782" lon="17.7173871">
        <ele>39.5513</ele>
        <time>2014-06-17T11:12:52Z</time>
      </trkpt>
      <trkpt lat="59.9687533" lon="17.7173838">
        <ele>39.5513</ele>
        <time>2014-06-17T11:12:53Z</time>
      </trkpt>
      <trkpt lat="59.9687297" lon="17.7173788">
        <ele>39.5513</ele>
        <time>2014-06-17T11:12:54Z</time>
      </trkpt>
      <trkpt lat="59.9687079" lon="17.7173719">
        <ele>39.0707</ele>
        <time>2014-06-17T11:12:55Z</time>
      </trkpt>
      <trkpt lat="59.9686841" lon="17.7173664">
        <ele>39.0707</ele>
        <time>2014-06-17T11:12:56Z</time>
      </trkpt>
      <trkpt lat="59.9686603" lon="17.7173586">
        <ele>39.0707</ele>
        <time>2014-06-17T11:12:57Z</time>
      </trkpt>
      <trkpt lat="59.9686389" lon="17.7173518">
        <ele>39.0707</ele>
        <time>2014-06-17T11:12:58Z</time>
      </trkpt>
      <trkpt lat="59.9686173" lon="17.7173498">
        <ele>39.0707</ele>
        <time>2014-06-17T11:12:59Z</time>
      </trkpt>
      <trkpt lat="59.9685961" lon="17.7173441">
        <ele>39.0707</ele>
        <time>2014-06-17T11:13:00Z</time>
      </trkpt>
      <trkpt lat="59.9685712" lon="17.7173374">
        <ele>39.0707</ele>
        <time>2014-06-17T11:13:01Z</time>
      </trkpt>
      <trkpt lat="59.9685448" lon="17.7173248">
        <ele>38.5901</ele>
        <time>2014-06-17T11:13:02Z</time>
      </trkpt>
      <trkpt lat="59.9685202" lon="17.7173069">
        <ele>39.0707</ele>
        <time>2014-06-17T11:13:03Z</time>
      </trkpt>
      <trkpt lat="59.9684956" lon="17.7172949">
        <ele>39.5513</ele>
        <time>2014-06-17T11:13:04Z</time>
      </trkpt>
      <trkpt lat="59.9684727" lon="17.7172869">
        <ele>39.5513</ele>
        <time>2014-06-17T11:13:05Z</time>
      </trkpt>
      <trkpt lat="59.968448" lon="17.7172772">
        <ele>40.0321</ele>
        <time>2014-06-17T11:13:06Z</time>
      </trkpt>
      <trkpt lat="59.9684272" lon="17.7172592">
        <ele>40.0321</ele>
        <time>2014-06-17T11:13:07Z</time>
      </trkpt>
      <trkpt lat="59.9684102" lon="17.7172501">
        <ele>40.0321</ele>
        <time>2014-06-17T11:13:08Z</time>
      </trkpt>
      <trkpt lat="59.9683889" lon="17.7172375">
        <ele>40.0321</ele>
        <time>2014-06-17T11:13:09Z</time>
      </trkpt>
      <trkpt lat="59.9683667" lon="17.7172171">
        <ele>39.5513</ele>
        <time>2014-06-17T11:13:10Z</time>
      </trkpt>
      <trkpt lat="59.9683455" lon="17.7171967">
        <ele>39.5513</ele>
        <time>2014-06-17T11:13:11Z</time>
      </trkpt>
      <trkpt lat="59.9683235" lon="17.7171782">
        <ele>39.0707</ele>
        <time>2014-06-17T11:13:12Z</time>
      </trkpt>
      <trkpt lat="59.9683001" lon="17.717156">
        <ele>39.0707</ele>
        <time>2014-06-17T11:13:13Z</time>
      </trkpt>
      <trkpt lat="59.9682775" lon="17.7171377">
        <ele>39.0707</ele>
        <time>2014-06-17T11:13:14Z</time>
      </trkpt>
      <trkpt lat="59.9682552" lon="17.7171193">
        <ele>39.0707</ele>
        <time>2014-06-17T11:13:15Z</time>
      </trkpt>
      <trkpt lat="59.9682336" lon="17.7170912">
        <ele>38.5901</ele>
        <time>2014-06-17T11:13:16Z</time>
      </trkpt>
      <trkpt lat="59.9682113" lon="17.7170654">
        <ele>37.6287</ele>
        <time>2014-06-17T11:13:17Z</time>
      </trkpt>
      <trkpt lat="59.9681878" lon="17.7170482">
        <ele>37.1481</ele>
        <time>2014-06-17T11:13:18Z</time>
      </trkpt>
      <trkpt lat="59.96816" lon="17.7170274">
        <ele>36.6675</ele>
        <time>2014-06-17T11:13:19Z</time>
      </trkpt>
      <trkpt lat="59.9681335" lon="17.7170082">
        <ele>36.6675</ele>
        <time>2014-06-17T11:13:20Z</time>
      </trkpt>
      <trkpt lat="59.9681074" lon="17.716988">
        <ele>36.1868</ele>
        <time>2014-06-17T11:13:21Z</time>
      </trkpt>
      <trkpt lat="59.9680853" lon="17.7169644">
        <ele>36.1868</ele>
        <time>2014-06-17T11:13:22Z</time>
      </trkpt>
      <trkpt lat="59.9680624" lon="17.7169403">
        <ele>36.1868</ele>
        <time>2014-06-17T11:13:23Z</time>
      </trkpt>
      <trkpt lat="59.9680428" lon="17.7169166">
        <ele>36.1868</ele>
        <time>2014-06-17T11:13:24Z</time>
      </trkpt>
      <trkpt lat="59.9680257" lon="17.7168899">
        <ele>35.7061</ele>
        <time>2014-06-17T11:13:25Z</time>
      </trkpt>
      <trkpt lat="59.9680066" lon="17.7168596">
        <ele>35.2255</ele>
        <time>2014-06-17T11:13:26Z</time>
      </trkpt>
      <trkpt lat="59.9679904" lon="17.7168332">
        <ele>35.7061</ele>
        <time>2014-06-17T11:13:27Z</time>
      </trkpt>
      <trkpt lat="59.9679686" lon="17.7168012">
        <ele>35.2255</ele>
        <time>2014-06-17T11:13:28Z</time>
      </trkpt>
      <trkpt lat="59.9679449" lon="17.7167686">
        <ele>35.2255</ele>
        <time>2014-06-17T11:13:29Z</time>
      </trkpt>
      <trkpt lat="59.967922" lon="17.7167406">
        <ele>35.2255</ele>
        <time>2014-06-17T11:13:30Z</time>
      </trkpt>
      <trkpt lat="59.9679035" lon="17.7167122">
        <ele>34.7449</ele>
        <time>2014-06-17T11:13:31Z</time>
      </trkpt>
      <trkpt lat="59.9678859" lon="17.71668">
        <ele>34.7449</ele>
        <time>2014-06-17T11:13:32Z</time>
      </trkpt>
      <trkpt lat="59.9678651" lon="17.7166489">
        <ele>34.7449</ele>
        <time>2014-06-17T11:13:33Z</time>
      </trkpt>
      <trkpt lat="59.9678464" lon="17.7166145">
        <ele>34.2642</ele>
        <time>2014-06-17T11:13:34Z</time>
      </trkpt>
      <trkpt lat="59.9678313" lon="17.7165779">
        <ele>34.7449</ele>
        <time>2014-06-17T11:13:35Z</time>
      </trkpt>
      <trkpt lat="59.9678134" lon="17.7165415">
        <ele>34.2642</ele>
        <time>2014-06-17T11:13:36Z</time>
      </trkpt>
      <trkpt lat="59.9677963" lon="17.716504">
        <ele>33.7834</ele>
        <time>2014-06-17T11:13:37Z</time>
      </trkpt>
      <trkpt lat="59.9677812" lon="17.716472">
        <ele>33.7834</ele>
        <time>2014-06-17T11:13:38Z</time>
      </trkpt>
      <trkpt lat="59.9677624" lon="17.7164359">
        <ele>33.7834</ele>
        <time>2014-06-17T11:13:39Z</time>
      </trkpt>
      <trkpt lat="59.9677437" lon="17.7164008">
        <ele>32.8223</ele>
        <time>2014-06-17T11:13:40Z</time>
      </trkpt>
      <trkpt lat="59.9677287" lon="17.7163645">
        <ele>32.3416</ele>
        <time>2014-06-17T11:13:41Z</time>
      </trkpt>
      <trkpt lat="59.9677153" lon="17.7163301">
        <ele>31.8607</ele>
        <time>2014-06-17T11:13:42Z</time>
      </trkpt>
      <trkpt lat="59.9677036" lon="17.7162982">
        <ele>31.8607</ele>
        <time>2014-06-17T11:13:43Z</time>
      </trkpt>
      <trkpt lat="59.9676894" lon="17.7162598">
        <ele>31.3801</ele>
        <time>2014-06-17T11:13:44Z</time>
      </trkpt>
      <trkpt lat="59.9676748" lon="17.7162246">
        <ele>31.3801</ele>
        <time>2014-06-17T11:13:45Z</time>
      </trkpt>
      <trkpt lat="59.9676595" lon="17.7161901">
        <ele>31.3801</ele>
        <time>2014-06-17T11:13:46Z</time>
      </trkpt>
      <trkpt lat="59.9676467" lon="17.7161581">
        <ele>30.8995</ele>
        <time>2014-06-17T11:13:47Z</time>
      </trkpt>
      <trkpt lat="59.9676315" lon="17.7161243">
        <ele>30.8995</ele>
        <time>2014-06-17T11:13:48Z</time>
      </trkpt>
      <trkpt lat="59.9676181" lon="17.7160915">
        <ele>30.8995</ele>
        <time>2014-06-17T11:13:49Z</time>
      </trkpt>
      <trkpt lat="59.9676082" lon="17.7160558">
        <ele>30.4188</ele>
        <time>2014-06-17T11:13:50Z</time>
      </trkpt>
      <trkpt lat="59.9675984" lon="17.7160211">
        <ele>29.9381</ele>
        <time>2014-06-17T11:13:51Z</time>
      </trkpt>
      <trkpt lat="59.9675869" lon="17.7159867">
        <ele>29.9381</ele>
        <time>2014-06-17T11:13:52Z</time>
      </trkpt>
      <trkpt lat="59.9675718" lon="17.7159511">
        <ele>29.4575</ele>
        <time>2014-06-17T11:13:53Z</time>
      </trkpt>
      <trkpt lat="59.9675594" lon="17.7159096">
        <ele>29.4575</ele>
        <time>2014-06-17T11:13:54Z</time>
      </trkpt>
      <trkpt lat="59.9675544" lon="17.7158667">
        <ele>29.4575</ele>
        <time>2014-06-17T11:13:55Z</time>
      </trkpt>
      <trkpt lat="59.9675424" lon="17.7158274">
        <ele>28.4962</ele>
        <time>2014-06-17T11:13:56Z</time>
      </trkpt>
      <trkpt lat="59.9675264" lon="17.7157855">
        <ele>27.5349</ele>
        <time>2014-06-17T11:13:57Z</time>
      </trkpt>
      <trkpt lat="59.9675227" lon="17.7157485">
        <ele>27.5349</ele>
        <time>2014-06-17T11:13:58Z</time>
      </trkpt>
      <trkpt lat="59.9675215" lon="17.7157128">
        <ele>27.0543</ele>
        <time>2014-06-17T11:13:59Z</time>
      </trkpt>
      <trkpt lat="59.9675127" lon="17.7156725">
        <ele>26.0929</ele>
        <time>2014-06-17T11:14:00Z</time>
      </trkpt>
      <trkpt lat="59.9675101" lon="17.715636">
        <ele>26.0929</ele>
        <time>2014-06-17T11:14:01Z</time>
      </trkpt>
      <trkpt lat="59.9675052" lon="17.7155997">
        <ele>25.6123</ele>
        <time>2014-06-17T11:14:02Z</time>
      </trkpt>
      <trkpt lat="59.9674989" lon="17.7155615">
        <ele>25.6123</ele>
        <time>2014-06-17T11:14:03Z</time>
      </trkpt>
      <trkpt lat="59.9674931" lon="17.7155106">
        <ele>26.0929</ele>
        <time>2014-06-17T11:14:04Z</time>
      </trkpt>
      <trkpt lat="59.9674891" lon="17.7154481">
        <ele>28.0155</ele>
        <time>2014-06-17T11:14:05Z</time>
      </trkpt>
      <trkpt lat="59.9674812" lon="17.7153994">
        <ele>28.9769</ele>
        <time>2014-06-17T11:14:06Z</time>
      </trkpt>
      <trkpt lat="59.967468" lon="17.7153513">
        <ele>28.9769</ele>
        <time>2014-06-17T11:14:07Z</time>
      </trkpt>
      <trkpt lat="59.9674585" lon="17.7153067">
        <ele>28.9769</ele>
        <time>2014-06-17T11:14:08Z</time>
      </trkpt>
      <trkpt lat="59.9674507" lon="17.7152607">
        <ele>28.4962</ele>
        <time>2014-06-17T11:14:09Z</time>
      </trkpt>
      <trkpt lat="59.9674366" lon="17.7152066">
        <ele>27.5349</ele>
        <time>2014-06-17T11:14:10Z</time>
      </trkpt>
      <trkpt lat="59.9674296" lon="17.7151283">
        <ele>28.0155</ele>
        <time>2014-06-17T11:14:11Z</time>
      </trkpt>
      <trkpt lat="59.9674215" lon="17.7150468">
        <ele>28.4962</ele>
        <time>2014-06-17T11:14:12Z</time>
      </trkpt>
      <trkpt lat="59.9674109" lon="17.7149732">
        <ele>28.9769</ele>
        <time>2014-06-17T11:14:13Z</time>
      </trkpt>
      <trkpt lat="59.9673933" lon="17.7148976">
        <ele>28.0155</ele>
        <time>2014-06-17T11:14:14Z</time>
      </trkpt>
      <trkpt lat="59.9673704" lon="17.7148312">
        <ele>27.0543</ele>
        <time>2014-06-17T11:14:15Z</time>
      </trkpt>
      <trkpt lat="59.9673558" lon="17.714771">
        <ele>27.5349</ele>
        <time>2014-06-17T11:14:16Z</time>
      </trkpt>
      <trkpt lat="59.9673512" lon="17.7147302">
        <ele>28.4962</ele>
        <time>2014-06-17T11:14:17Z</time>
      </trkpt>
      <trkpt lat="59.9673395" lon="17.7146805">
        <ele>28.4962</ele>
        <time>2014-06-17T11:14:18Z</time>
      </trkpt>
      <trkpt lat="59.9673366" lon="17.7146375">
        <ele>29.4575</ele>
        <time>2014-06-17T11:14:19Z</time>
      </trkpt>
      <trkpt lat="59.9673333" lon="17.7145997">
        <ele>29.4575</ele>
        <time>2014-06-17T11:14:20Z</time>
      </trkpt>
      <trkpt lat="59.9673262" lon="17.7145635">
        <ele>29.9381</ele>
        <time>2014-06-17T11:14:21Z</time>
      </trkpt>
      <trkpt lat="59.967329" lon="17.7145364">
        <ele>31.3801</ele>
        <time>2014-06-17T11:14:22Z</time>
      </trkpt>
      <trkpt lat="59.9673254" lon="17.7145006">
        <ele>30.8995</ele>
        <time>2014-06-17T11:14:23Z</time>
      </trkpt>
      <trkpt lat="59.9673213" lon="17.7144585">
        <ele>31.8607</ele>
        <time>2014-06-17T11:14:24Z</time>
      </trkpt>
      <trkpt lat="59.9673104" lon="17.7144054">
        <ele>32.3416</ele>
        <time>2014-06-17T11:14:25Z</time>
      </trkpt>
      <trkpt lat="59.9672938" lon="17.7143415">
        <ele>31.8607</ele>
        <time>2014-06-17T11:14:26Z</time>
      </trkpt>
      <trkpt lat="59.9672875" lon="17.7142929">
        <ele>31.8607</ele>
        <time>2014-06-17T11:14:27Z</time>
      </trkpt>
      <trkpt lat="59.9672809" lon="17.7142494">
        <ele>32.3416</ele>
        <time>2014-06-17T11:14:28Z</time>
      </trkpt>
      <trkpt lat="59.967274" lon="17.7142006">
        <ele>33.3029</ele>
        <time>2014-06-17T11:14:29Z</time>
      </trkpt>
      <trkpt lat="59.9672648" lon="17.7141552">
        <ele>32.8223</ele>
        <time>2014-06-17T11:14:30Z</time>
      </trkpt>
      <trkpt lat="59.9672544" lon="17.7141044">
        <ele>31.8607</ele>
        <time>2014-06-17T11:14:31Z</time>
      </trkpt>
      <trkpt lat="59.9672496" lon="17.7140573">
        <ele>32.3416</ele>
        <time>2014-06-17T11:14:32Z</time>
      </trkpt>
      <trkpt lat="59.9672421" lon="17.7140091">
        <ele>31.8607</ele>
        <time>2014-06-17T11:14:33Z</time>
      </trkpt>
      <trkpt lat="59.9672399" lon="17.713969">
        <ele>31.8607</ele>
        <time>2014-06-17T11:14:34Z</time>
      </trkpt>
      <trkpt lat="59.9672363" lon="17.713934">
        <ele>31.8607</ele>
        <time>2014-06-17T11:14:35Z</time>
      </trkpt>
      <trkpt lat="59.9672322" lon="17.7138925">
        <ele>32.3416</ele>
        <time>2014-06-17T11:14:36Z</time>
      </trkpt>
      <trkpt lat="59.9672291" lon="17.7138501">
        <ele>31.8607</ele>
        <time>2014-06-17T11:14:37Z</time>
      </trkpt>
      <trkpt lat="59.9672265" lon="17.7138044">
        <ele>31.8607</ele>
        <time>2014-06-17T11:14:38Z</time>
      </trkpt>
      <trkpt lat="59.9672156" lon="17.713762">
        <ele>30.8995</ele>
        <time>2014-06-17T11:14:39Z</time>
      </trkpt>
      <trkpt lat="59.9672102" lon="17.7137191">
        <ele>30.8995</ele>
        <time>2014-06-17T11:14:40Z</time>
      </trkpt>
      <trkpt lat="59.9672043" lon="17.7136801">
        <ele>30.8995</ele>
        <time>2014-06-17T11:14:41Z</time>
      </trkpt>
      <trkpt lat="59.9671955" lon="17.7136378">
        <ele>30.4188</ele>
        <time>2014-06-17T11:14:42Z</time>
      </trkpt>
      <trkpt lat="59.9671911" lon="17.7135968">
        <ele>30.4188</ele>
        <time>2014-06-17T11:14:43Z</time>
      </trkpt>
      <trkpt lat="59.9671833" lon="17.7135579">
        <ele>29.9381</ele>
        <time>2014-06-17T11:14:44Z</time>
      </trkpt>
      <trkpt lat="59.9671801" lon="17.7135248">
        <ele>30.4188</ele>
        <time>2014-06-17T11:14:45Z</time>
      </trkpt>
      <trkpt lat="59.967172" lon="17.7134829">
        <ele>29.9381</ele>
        <time>2014-06-17T11:14:46Z</time>
      </trkpt>
      <trkpt lat="59.9671612" lon="17.7134394">
        <ele>28.9769</ele>
        <time>2014-06-17T11:14:47Z</time>
      </trkpt>
      <trkpt lat="59.9671517" lon="17.7133983">
        <ele>29.4575</ele>
        <time>2014-06-17T11:14:48Z</time>
      </trkpt>
      <trkpt lat="59.9671404" lon="17.7133567">
        <ele>28.4962</ele>
        <time>2014-06-17T11:14:49Z</time>
      </trkpt>
      <trkpt lat="59.9671325" lon="17.713312">
        <ele>27.5349</ele>
        <time>2014-06-17T11:14:50Z</time>
      </trkpt>
      <trkpt lat="59.9671232" lon="17.7132651">
        <ele>26.5736</ele>
        <time>2014-06-17T11:14:51Z</time>
      </trkpt>
      <trkpt lat="59.9671134" lon="17.7132217">
        <ele>25.6123</ele>
        <time>2014-06-17T11:14:52Z</time>
      </trkpt>
      <trkpt lat="59.9671016" lon="17.7131737">
        <ele>25.6123</ele>
        <time>2014-06-17T11:14:53Z</time>
      </trkpt>
      <trkpt lat="59.9670893" lon="17.7131237">
        <ele>25.1317</ele>
        <time>2014-06-17T11:14:54Z</time>
      </trkpt>
      <trkpt lat="59.9670763" lon="17.7130729">
        <ele>24.651</ele>
        <time>2014-06-17T11:14:55Z</time>
      </trkpt>
      <trkpt lat="59.9670655" lon="17.7130255">
        <ele>24.651</ele>
        <time>2014-06-17T11:14:56Z</time>
      </trkpt>
      <trkpt lat="59.9670574" lon="17.7129845">
        <ele>25.1317</ele>
        <time>2014-06-17T11:14:57Z</time>
      </trkpt>
      <trkpt lat="59.9670475" lon="17.7129384">
        <ele>25.1317</ele>
        <time>2014-06-17T11:14:58Z</time>
      </trkpt>
      <trkpt lat="59.9670372" lon="17.7128927">
        <ele>24.651</ele>
        <time>2014-06-17T11:14:59Z</time>
      </trkpt>
      <trkpt lat="59.9670281" lon="17.7128507">
        <ele>24.1703</ele>
        <time>2014-06-17T11:15:00Z</time>
      </trkpt>
      <trkpt lat="59.9670218" lon="17.7128078">
        <ele>24.651</ele>
        <time>2014-06-17T11:15:01Z</time>
      </trkpt>
      <trkpt lat="59.9670154" lon="17.7127688">
        <ele>24.651</ele>
        <time>2014-06-17T11:15:02Z</time>
      </trkpt>
      <trkpt lat="59.9670079" lon="17.7127276">
        <ele>24.1703</ele>
        <time>2014-06-17T11:15:03Z</time>
      </trkpt>
      <trkpt lat="59.9670028" lon="17.7126873">
        <ele>24.651</ele>
        <time>2014-06-17T11:15:04Z</time>
      </trkpt>
      <trkpt lat="59.9669952" lon="17.7126452">
        <ele>24.651</ele>
        <time>2014-06-17T11:15:05Z</time>
      </trkpt>
      <trkpt lat="59.9669886" lon="17.7126098">
        <ele>24.651</ele>
        <time>2014-06-17T11:15:06Z</time>
      </trkpt>
      <trkpt lat="59.9669794" lon="17.7125679">
        <ele>25.1317</ele>
        <time>2014-06-17T11:15:07Z</time>
      </trkpt>
      <trkpt lat="59.966967" lon="17.7125239">
        <ele>25.1317</ele>
        <time>2014-06-17T11:15:08Z</time>
      </trkpt>
      <trkpt lat="59.9669437" lon="17.7124616">
        <ele>24.651</ele>
        <time>2014-06-17T11:15:09Z</time>
      </trkpt>
      <trkpt lat="59.9669405" lon="17.7124233">
        <ele>24.651</ele>
        <time>2014-06-17T11:15:10Z</time>
      </trkpt>
      <trkpt lat="59.9669498" lon="17.7124074">
        <ele>25.1317</ele>
        <time>2014-06-17T11:15:11Z</time>
      </trkpt>
      <trkpt lat="59.9669404" lon="17.7123687">
        <ele>24.1703</ele>
        <time>2014-06-17T11:15:12Z</time>
      </trkpt>
      <trkpt lat="59.9669239" lon="17.7123226">
        <ele>24.651</ele>
        <time>2014-06-17T11:15:13Z</time>
      </trkpt>
      <trkpt lat="59.9668997" lon="17.7122629">
        <ele>24.1703</ele>
        <time>2014-06-17T11:15:14Z</time>
      </trkpt>
      <trkpt lat="59.9668866" lon="17.7122171">
        <ele>23.6896</ele>
        <time>2014-06-17T11:15:15Z</time>
      </trkpt>
      <trkpt lat="59.9668773" lon="17.7121871">
        <ele>23.6896</ele>
        <time>2014-06-17T11:15:16Z</time>
      </trkpt>
      <trkpt lat="59.9668657" lon="17.7121537">
        <ele>23.6896</ele>
        <time>2014-06-17T11:15:17Z</time>
      </trkpt>
      <trkpt lat="59.966854" lon="17.7121189">
        <ele>23.6896</ele>
        <time>2014-06-17T11:15:18Z</time>
      </trkpt>
      <trkpt lat="59.9668384" lon="17.7120812">
        <ele>24.1703</ele>
        <time>2014-06-17T11:15:19Z</time>
      </trkpt>
      <trkpt lat="59.9668234" lon="17.7120436">
        <ele>24.651</ele>
        <time>2014-06-17T11:15:20Z</time>
      </trkpt>
      <trkpt lat="59.966812" lon="17.7120044">
        <ele>25.1317</ele>
        <time>2014-06-17T11:15:21Z</time>
      </trkpt>
      <trkpt lat="59.9667955" lon="17.7119605">
        <ele>24.651</ele>
        <time>2014-06-17T11:15:22Z</time>
      </trkpt>
      <trkpt lat="59.9667814" lon="17.7119164">
        <ele>24.651</ele>
        <time>2014-06-17T11:15:23Z</time>
      </trkpt>
      <trkpt lat="59.9667674" lon="17.7118784">
        <ele>24.651</ele>
        <time>2014-06-17T11:15:24Z</time>
      </trkpt>
      <trkpt lat="59.9667509" lon="17.7118396">
        <ele>24.651</ele>
        <time>2014-06-17T11:15:25Z</time>
      </trkpt>
      <trkpt lat="59.9667323" lon="17.7118056">
        <ele>24.1703</ele>
        <time>2014-06-17T11:15:26Z</time>
      </trkpt>
      <trkpt lat="59.9667157" lon="17.7117808">
        <ele>24.1703</ele>
        <time>2014-06-17T11:15:27Z</time>
      </trkpt>
      <trkpt lat="59.9666958" lon="17.7117646">
        <ele>24.1703</ele>
        <time>2014-06-17T11:15:28Z</time>
      </trkpt>
      <trkpt lat="59.9666753" lon="17.7117594">
        <ele>23.6896</ele>
        <time>2014-06-17T11:15:29Z</time>
      </trkpt>
      <trkpt lat="59.9666524" lon="17.7117649">
        <ele>23.6896</ele>
        <time>2014-06-17T11:15:30Z</time>
      </trkpt>
      <trkpt lat="59.9666302" lon="17.7117862">
        <ele>23.209</ele>
        <time>2014-06-17T11:15:31Z</time>
      </trkpt>
      <trkpt lat="59.96661" lon="17.7118137">
        <ele>23.209</ele>
        <time>2014-06-17T11:15:32Z</time>
      </trkpt>
      <trkpt lat="59.9665881" lon="17.7118396">
        <ele>22.7283</ele>
        <time>2014-06-17T11:15:33Z</time>
      </trkpt>
      <trkpt lat="59.9665689" lon="17.7118703">
        <ele>22.2476</ele>
        <time>2014-06-17T11:15:34Z</time>
      </trkpt>
      <trkpt lat="59.9665474" lon="17.7118977">
        <ele>21.767</ele>
        <time>2014-06-17T11:15:35Z</time>
      </trkpt>
      <trkpt lat="59.9665256" lon="17.7119261">
        <ele>21.767</ele>
        <time>2014-06-17T11:15:36Z</time>
      </trkpt>
      <trkpt lat="59.966506" lon="17.7119578">
        <ele>21.767</ele>
        <time>2014-06-17T11:15:37Z</time>
      </trkpt>
      <trkpt lat="59.9664857" lon="17.7119899">
        <ele>21.767</ele>
        <time>2014-06-17T11:15:38Z</time>
      </trkpt>
      <trkpt lat="59.966465" lon="17.7120226">
        <ele>21.767</ele>
        <time>2014-06-17T11:15:39Z</time>
      </trkpt>
      <trkpt lat="59.9664462" lon="17.7120597">
        <ele>21.2864</ele>
        <time>2014-06-17T11:15:40Z</time>
      </trkpt>
      <trkpt lat="59.9664267" lon="17.7120946">
        <ele>21.2864</ele>
        <time>2014-06-17T11:15:41Z</time>
      </trkpt>
      <trkpt lat="59.9664049" lon="17.7121293">
        <ele>21.2864</ele>
        <time>2014-06-17T11:15:42Z</time>
      </trkpt>
      <trkpt lat="59.9663858" lon="17.7121641">
        <ele>21.2864</ele>
        <time>2014-06-17T11:15:43Z</time>
      </trkpt>
      <trkpt lat="59.9663664" lon="17.7121943">
        <ele>20.8057</ele>
        <time>2014-06-17T11:15:44Z</time>
      </trkpt>
      <trkpt lat="59.966347" lon="17.7122234">
        <ele>20.8057</ele>
        <time>2014-06-17T11:15:45Z</time>
      </trkpt>
      <trkpt lat="59.9663281" lon="17.7122542">
        <ele>20.8057</ele>
        <time>2014-06-17T11:15:46Z</time>
      </trkpt>
      <trkpt lat="59.9663083" lon="17.7122908">
        <ele>20.325</ele>
        <time>2014-06-17T11:15:47Z</time>
      </trkpt>
      <trkpt lat="59.9662907" lon="17.712324">
        <ele>20.325</ele>
        <time>2014-06-17T11:15:48Z</time>
      </trkpt>
      <trkpt lat="59.9662736" lon="17.712355">
        <ele>19.8444</ele>
        <time>2014-06-17T11:15:49Z</time>
      </trkpt>
      <trkpt lat="59.966255" lon="17.712384">
        <ele>19.8444</ele>
        <time>2014-06-17T11:15:50Z</time>
      </trkpt>
      <trkpt lat="59.9662379" lon="17.7124143">
        <ele>19.8444</ele>
        <time>2014-06-17T11:15:51Z</time>
      </trkpt>
      <trkpt lat="59.9662201" lon="17.7124472">
        <ele>19.8444</ele>
        <time>2014-06-17T11:15:52Z</time>
      </trkpt>
      <trkpt lat="59.9662003" lon="17.7124784">
        <ele>19.8444</ele>
        <time>2014-06-17T11:15:53Z</time>
      </trkpt>
      <trkpt lat="59.9661825" lon="17.7125109">
        <ele>20.325</ele>
        <time>2014-06-17T11:15:54Z</time>
      </trkpt>
      <trkpt lat="59.9661651" lon="17.7125456">
        <ele>19.8444</ele>
        <time>2014-06-17T11:15:55Z</time>
      </trkpt>
      <trkpt lat="59.9661464" lon="17.7125808">
        <ele>20.8057</ele>
        <time>2014-06-17T11:15:56Z</time>
      </trkpt>
      <trkpt lat="59.9661279" lon="17.7126099">
        <ele>21.2864</ele>
        <time>2014-06-17T11:15:57Z</time>
      </trkpt>
      <trkpt lat="59.9661081" lon="17.7126346">
        <ele>21.767</ele>
        <time>2014-06-17T11:15:58Z</time>
      </trkpt>
      <trkpt lat="59.9660893" lon="17.7126595">
        <ele>22.2476</ele>
        <time>2014-06-17T11:15:59Z</time>
      </trkpt>
      <trkpt lat="59.9660687" lon="17.7126818">
        <ele>22.7283</ele>
        <time>2014-06-17T11:16:00Z</time>
      </trkpt>
      <trkpt lat="59.9660442" lon="17.712696">
        <ele>22.7283</ele>
        <time>2014-06-17T11:16:01Z</time>
      </trkpt>
      <trkpt lat="59.966019" lon="17.7127026">
        <ele>23.209</ele>
        <time>2014-06-17T11:16:02Z</time>
      </trkpt>
      <trkpt lat="59.9659952" lon="17.7126961">
        <ele>23.209</ele>
        <time>2014-06-17T11:16:03Z</time>
      </trkpt>
      <trkpt lat="59.9659678" lon="17.7126839">
        <ele>23.209</ele>
        <time>2014-06-17T11:16:04Z</time>
      </trkpt>
      <trkpt lat="59.9659402" lon="17.7126741">
        <ele>23.209</ele>
        <time>2014-06-17T11:16:05Z</time>
      </trkpt>
      <trkpt lat="59.9659155" lon="17.7126616">
        <ele>23.6896</ele>
        <time>2014-06-17T11:16:06Z</time>
      </trkpt>
      <trkpt lat="59.9658944" lon="17.7126478">
        <ele>23.6896</ele>
        <time>2014-06-17T11:16:07Z</time>
      </trkpt>
      <trkpt lat="59.9658737" lon="17.7126323">
        <ele>24.1703</ele>
        <time>2014-06-17T11:16:08Z</time>
      </trkpt>
      <trkpt lat="59.965852" lon="17.7126152">
        <ele>24.1703</ele>
        <time>2014-06-17T11:16:09Z</time>
      </trkpt>
      <trkpt lat="59.9658304" lon="17.7126001">
        <ele>24.1703</ele>
        <time>2014-06-17T11:16:10Z</time>
      </trkpt>
      <trkpt lat="59.9658086" lon="17.7125834">
        <ele>23.6896</ele>
        <time>2014-06-17T11:16:11Z</time>
      </trkpt>
      <trkpt lat="59.9657863" lon="17.7125618">
        <ele>23.6896</ele>
        <time>2014-06-17T11:16:12Z</time>
      </trkpt>
      <trkpt lat="59.9657646" lon="17.7125419">
        <ele>23.6896</ele>
        <time>2014-06-17T11:16:13Z</time>
      </trkpt>
      <trkpt lat="59.9657422" lon="17.7125227">
        <ele>23.6896</ele>
        <time>2014-06-17T11:16:14Z</time>
      </trkpt>
      <trkpt lat="59.965722" lon="17.712506">
        <ele>23.6896</ele>
        <time>2014-06-17T11:16:15Z</time>
      </trkpt>
      <trkpt lat="59.9657018" lon="17.712493">
        <ele>24.1703</ele>
        <time>2014-06-17T11:16:16Z</time>
      </trkpt>
      <trkpt lat="59.9656787" lon="17.7124735">
        <ele>24.651</ele>
        <time>2014-06-17T11:16:17Z</time>
      </trkpt>
      <trkpt lat="59.965656" lon="17.7124564">
        <ele>24.651</ele>
        <time>2014-06-17T11:16:18Z</time>
      </trkpt>
      <trkpt lat="59.9656346" lon="17.7124435">
        <ele>24.651</ele>
        <time>2014-06-17T11:16:19Z</time>
      </trkpt>
      <trkpt lat="59.9656109" lon="17.712424">
        <ele>24.651</ele>
        <time>2014-06-17T11:16:20Z</time>
      </trkpt>
      <trkpt lat="59.9655862" lon="17.7124033">
        <ele>25.1317</ele>
        <time>2014-06-17T11:16:21Z</time>
      </trkpt>
      <trkpt lat="59.9655625" lon="17.7123829">
        <ele>25.1317</ele>
        <time>2014-06-17T11:16:22Z</time>
      </trkpt>
      <trkpt lat="59.9655414" lon="17.7123604">
        <ele>25.1317</ele>
        <time>2014-06-17T11:16:23Z</time>
      </trkpt>
      <trkpt lat="59.9655189" lon="17.7123396">
        <ele>25.1317</ele>
        <time>2014-06-17T11:16:24Z</time>
      </trkpt>
      <trkpt lat="59.9654953" lon="17.7123194">
        <ele>25.6123</ele>
        <time>2014-06-17T11:16:25Z</time>
      </trkpt>
      <trkpt lat="59.9654756" lon="17.7122953">
        <ele>25.6123</ele>
        <time>2014-06-17T11:16:26Z</time>
      </trkpt>
      <trkpt lat="59.9654554" lon="17.7122748">
        <ele>25.6123</ele>
        <time>2014-06-17T11:16:27Z</time>
      </trkpt>
      <trkpt lat="59.9654327" lon="17.7122554">
        <ele>26.0929</ele>
        <time>2014-06-17T11:16:28Z</time>
      </trkpt>
      <trkpt lat="59.9654119" lon="17.7122356">
        <ele>25.6123</ele>
        <time>2014-06-17T11:16:29Z</time>
      </trkpt>
      <trkpt lat="59.965393" lon="17.712214">
        <ele>26.0929</ele>
        <time>2014-06-17T11:16:30Z</time>
      </trkpt>
      <trkpt lat="59.965373" lon="17.7121878">
        <ele>26.5736</ele>
        <time>2014-06-17T11:16:31Z</time>
      </trkpt>
      <trkpt lat="59.9653521" lon="17.7121685">
        <ele>26.5736</ele>
        <time>2014-06-17T11:16:32Z</time>
      </trkpt>
      <trkpt lat="59.9653304" lon="17.7121545">
        <ele>26.5736</ele>
        <time>2014-06-17T11:16:33Z</time>
      </trkpt>
      <trkpt lat="59.9653102" lon="17.712132">
        <ele>26.5736</ele>
        <time>2014-06-17T11:16:34Z</time>
      </trkpt>
      <trkpt lat="59.9652921" lon="17.7121053">
        <ele>27.0543</ele>
        <time>2014-06-17T11:16:35Z</time>
      </trkpt>
      <trkpt lat="59.9652746" lon="17.7120897">
        <ele>27.5349</ele>
        <time>2014-06-17T11:16:36Z</time>
      </trkpt>
      <trkpt lat="59.9652527" lon="17.7120738">
        <ele>28.4962</ele>
        <time>2014-06-17T11:16:37Z</time>
      </trkpt>
      <trkpt lat="59.9652286" lon="17.7120519">
        <ele>28.4962</ele>
        <time>2014-06-17T11:16:38Z</time>
      </trkpt>
      <trkpt lat="59.9652043" lon="17.7120308">
        <ele>28.0155</ele>
        <time>2014-06-17T11:16:39Z</time>
      </trkpt>
      <trkpt lat="59.9651829" lon="17.712011">
        <ele>28.4962</ele>
        <time>2014-06-17T11:16:40Z</time>
      </trkpt>
      <trkpt lat="59.9651611" lon="17.7119907">
        <ele>28.9769</ele>
        <time>2014-06-17T11:16:41Z</time>
      </trkpt>
      <trkpt lat="59.9651387" lon="17.7119723">
        <ele>29.4575</ele>
        <time>2014-06-17T11:16:42Z</time>
      </trkpt>
      <trkpt lat="59.9651177" lon="17.7119483">
        <ele>29.4575</ele>
        <time>2014-06-17T11:16:43Z</time>
      </trkpt>
      <trkpt lat="59.9650989" lon="17.7119226">
        <ele>29.9381</ele>
        <time>2014-06-17T11:16:44Z</time>
      </trkpt>
      <trkpt lat="59.9650779" lon="17.7119035">
        <ele>30.4188</ele>
        <time>2014-06-17T11:16:45Z</time>
      </trkpt>
      <trkpt lat="59.9650565" lon="17.7118846">
        <ele>30.8995</ele>
        <time>2014-06-17T11:16:46Z</time>
      </trkpt>
      <trkpt lat="59.9650368" lon="17.7118646">
        <ele>31.3801</ele>
        <time>2014-06-17T11:16:47Z</time>
      </trkpt>
      <trkpt lat="59.9650154" lon="17.7118428">
        <ele>30.8995</ele>
        <time>2014-06-17T11:16:48Z</time>
      </trkpt>
      <trkpt lat="59.9649955" lon="17.7118236">
        <ele>31.3801</ele>
        <time>2014-06-17T11:16:49Z</time>
      </trkpt>
      <trkpt lat="59.9649742" lon="17.7118045">
        <ele>31.8607</ele>
        <time>2014-06-17T11:16:50Z</time>
      </trkpt>
      <trkpt lat="59.9649518" lon="17.7117905">
        <ele>32.8223</ele>
        <time>2014-06-17T11:16:51Z</time>
      </trkpt>
      <trkpt lat="59.9649323" lon="17.7117706">
        <ele>33.7834</ele>
        <time>2014-06-17T11:16:52Z</time>
      </trkpt>
      <trkpt lat="59.9649134" lon="17.711748">
        <ele>33.7834</ele>
        <time>2014-06-17T11:16:53Z</time>
      </trkpt>
      <trkpt lat="59.9648928" lon="17.711725">
        <ele>34.2642</ele>
        <time>2014-06-17T11:16:54Z</time>
      </trkpt>
      <trkpt lat="59.9648726" lon="17.7117014">
        <ele>34.2642</ele>
        <time>2014-06-17T11:16:55Z</time>
      </trkpt>
      <trkpt lat="59.9648503" lon="17.7116789">
        <ele>34.7449</ele>
        <time>2014-06-17T11:16:56Z</time>
      </trkpt>
      <trkpt lat="59.9648263" lon="17.7116553">
        <ele>35.2255</ele>
        <time>2014-06-17T11:16:57Z</time>
      </trkpt>
      <trkpt lat="59.9648017" lon="17.7116331">
        <ele>35.7061</ele>
        <time>2014-06-17T11:16:58Z</time>
      </trkpt>
      <trkpt lat="59.9647763" lon="17.7116128">
        <ele>35.7061</ele>
        <time>2014-06-17T11:16:59Z</time>
      </trkpt>
      <trkpt lat="59.9647515" lon="17.7115972">
        <ele>35.2255</ele>
        <time>2014-06-17T11:17:00Z</time>
      </trkpt>
      <trkpt lat="59.9647277" lon="17.711581">
        <ele>35.7061</ele>
        <time>2014-06-17T11:17:01Z</time>
      </trkpt>
      <trkpt lat="59.9647032" lon="17.711564">
        <ele>35.7061</ele>
        <time>2014-06-17T11:17:02Z</time>
      </trkpt>
      <trkpt lat="59.9646789" lon="17.7115528">
        <ele>35.7061</ele>
        <time>2014-06-17T11:17:03Z</time>
      </trkpt>
      <trkpt lat="59.9646561" lon="17.7115486">
        <ele>35.2255</ele>
        <time>2014-06-17T11:17:04Z</time>
      </trkpt>
      <trkpt lat="59.9646332" lon="17.711532">
        <ele>35.2255</ele>
        <time>2014-06-17T11:17:05Z</time>
      </trkpt>
      <trkpt lat="59.9646105" lon="17.7115105">
        <ele>35.2255</ele>
        <time>2014-06-17T11:17:06Z</time>
      </trkpt>
      <trkpt lat="59.9645899" lon="17.7114925">
        <ele>35.2255</ele>
        <time>2014-06-17T11:17:07Z</time>
      </trkpt>
      <trkpt lat="59.964569" lon="17.7114704">
        <ele>35.7061</ele>
        <time>2014-06-17T11:17:08Z</time>
      </trkpt>
      <trkpt lat="59.9645487" lon="17.7114484">
        <ele>36.1868</ele>
        <time>2014-06-17T11:17:09Z</time>
      </trkpt>
      <trkpt lat="59.9645272" lon="17.7114311">
        <ele>36.1868</ele>
        <time>2014-06-17T11:17:10Z</time>
      </trkpt>
      <trkpt lat="59.9645055" lon="17.7114092">
        <ele>36.6675</ele>
        <time>2014-06-17T11:17:11Z</time>
      </trkpt>
      <trkpt lat="59.9644839" lon="17.7113848">
        <ele>37.1481</ele>
        <time>2014-06-17T11:17:12Z</time>
      </trkpt>
      <trkpt lat="59.9644601" lon="17.7113662">
        <ele>37.1481</ele>
        <time>2014-06-17T11:17:13Z</time>
      </trkpt>
      <trkpt lat="59.9644375" lon="17.711347">
        <ele>37.1481</ele>
        <time>2014-06-17T11:17:14Z</time>
      </trkpt>
      <trkpt lat="59.9644171" lon="17.7113213">
        <ele>37.1481</ele>
        <time>2014-06-17T11:17:15Z</time>
      </trkpt>
      <trkpt lat="59.9643969" lon="17.7112896">
        <ele>37.6287</ele>
        <time>2014-06-17T11:17:16Z</time>
      </trkpt>
      <trkpt lat="59.9643769" lon="17.7112627">
        <ele>37.1481</ele>
        <time>2014-06-17T11:17:17Z</time>
      </trkpt>
      <trkpt lat="59.9643549" lon="17.7112417">
        <ele>37.1481</ele>
        <time>2014-06-17T11:17:18Z</time>
      </trkpt>
      <trkpt lat="59.9643348" lon="17.7112155">
        <ele>37.6287</ele>
        <time>2014-06-17T11:17:19Z</time>
      </trkpt>
      <trkpt lat="59.9643158" lon="17.7111948">
        <ele>37.6287</ele>
        <time>2014-06-17T11:17:20Z</time>
      </trkpt>
      <trkpt lat="59.9642933" lon="17.7111818">
        <ele>37.6287</ele>
        <time>2014-06-17T11:17:21Z</time>
      </trkpt>
      <trkpt lat="59.9642689" lon="17.7111666">
        <ele>37.6287</ele>
        <time>2014-06-17T11:17:22Z</time>
      </trkpt>
      <trkpt lat="59.9642473" lon="17.7111496">
        <ele>38.1094</ele>
        <time>2014-06-17T11:17:23Z</time>
      </trkpt>
      <trkpt lat="59.9642242" lon="17.7111296">
        <ele>37.6287</ele>
        <time>2014-06-17T11:17:24Z</time>
      </trkpt>
      <trkpt lat="59.9641997" lon="17.711114">
        <ele>37.6287</ele>
        <time>2014-06-17T11:17:25Z</time>
      </trkpt>
      <trkpt lat="59.9641769" lon="17.7110968">
        <ele>37.6287</ele>
        <time>2014-06-17T11:17:26Z</time>
      </trkpt>
      <trkpt lat="59.9641557" lon="17.7110746">
        <ele>37.6287</ele>
        <time>2014-06-17T11:17:27Z</time>
      </trkpt>
      <trkpt lat="59.9641349" lon="17.7110502">
        <ele>38.1094</ele>
        <time>2014-06-17T11:17:28Z</time>
      </trkpt>
      <trkpt lat="59.9641144" lon="17.7110217">
        <ele>38.1094</ele>
        <time>2014-06-17T11:17:29Z</time>
      </trkpt>
      <trkpt lat="59.9640952" lon="17.7109881">
        <ele>38.1094</ele>
        <time>2014-06-17T11:17:30Z</time>
      </trkpt>
      <trkpt lat="59.9640773" lon="17.7109566">
        <ele>37.1481</ele>
        <time>2014-06-17T11:17:31Z</time>
      </trkpt>
      <trkpt lat="59.9640622" lon="17.710926">
        <ele>36.6675</ele>
        <time>2014-06-17T11:17:32Z</time>
      </trkpt>
      <trkpt lat="59.9640479" lon="17.7108876">
        <ele>35.7061</ele>
        <time>2014-06-17T11:17:33Z</time>
      </trkpt>
      <trkpt lat="59.9640338" lon="17.7108481">
        <ele>34.7449</ele>
        <time>2014-06-17T11:17:34Z</time>
      </trkpt>
      <trkpt lat="59.9640165" lon="17.710813">
        <ele>34.2642</ele>
        <time>2014-06-17T11:17:35Z</time>
      </trkpt>
      <trkpt lat="59.9639993" lon="17.7107747">
        <ele>34.2642</ele>
        <time>2014-06-17T11:17:36Z</time>
      </trkpt>
      <trkpt lat="59.9639823" lon="17.7107357">
        <ele>33.7834</ele>
        <time>2014-06-17T11:17:37Z</time>
      </trkpt>
      <trkpt lat="59.9639633" lon="17.7106978">
        <ele>33.3029</ele>
        <time>2014-06-17T11:17:38Z</time>
      </trkpt>
      <trkpt lat="59.9639453" lon="17.7106612">
        <ele>32.3416</ele>
        <time>2014-06-17T11:17:39Z</time>
      </trkpt>
      <trkpt lat="59.9639274" lon="17.7106279">
        <ele>31.8607</ele>
        <time>2014-06-17T11:17:40Z</time>
      </trkpt>
      <trkpt lat="59.9639097" lon="17.7105943">
        <ele>31.8607</ele>
        <time>2014-06-17T11:17:41Z</time>
      </trkpt>
      <trkpt lat="59.9638901" lon="17.710559">
        <ele>31.3801</ele>
        <time>2014-06-17T11:17:42Z</time>
      </trkpt>
      <trkpt lat="59.9638698" lon="17.7105245">
        <ele>30.8995</ele>
        <time>2014-06-17T11:17:43Z</time>
      </trkpt>
      <trkpt lat="59.9638489" lon="17.710488">
        <ele>31.3801</ele>
        <time>2014-06-17T11:17:44Z</time>
      </trkpt>
      <trkpt lat="59.9638247" lon="17.7104499">
        <ele>31.3801</ele>
        <time>2014-06-17T11:17:45Z</time>
      </trkpt>
      <trkpt lat="59.9638038" lon="17.710412">
        <ele>31.8607</ele>
        <time>2014-06-17T11:17:46Z</time>
      </trkpt>
      <trkpt lat="59.963781" lon="17.7103725">
        <ele>31.8607</ele>
        <time>2014-06-17T11:17:47Z</time>
      </trkpt>
      <trkpt lat="59.9637606" lon="17.7103385">
        <ele>32.3416</ele>
        <time>2014-06-17T11:17:48Z</time>
      </trkpt>
      <trkpt lat="59.9637475" lon="17.7103044">
        <ele>32.8223</ele>
        <time>2014-06-17T11:17:49Z</time>
      </trkpt>
      <trkpt lat="59.9637329" lon="17.7102746">
        <ele>32.8223</ele>
        <time>2014-06-17T11:17:50Z</time>
      </trkpt>
      <trkpt lat="59.9637162" lon="17.7102415">
        <ele>32.3416</ele>
        <time>2014-06-17T11:17:51Z</time>
      </trkpt>
      <trkpt lat="59.9637015" lon="17.7102101">
        <ele>31.8607</ele>
        <time>2014-06-17T11:17:52Z</time>
      </trkpt>
      <trkpt lat="59.9636837" lon="17.7101953">
        <ele>32.3416</ele>
        <time>2014-06-17T11:17:53Z</time>
      </trkpt>
      <trkpt lat="59.9636646" lon="17.7102042">
        <ele>32.3416</ele>
        <time>2014-06-17T11:17:54Z</time>
      </trkpt>
      <trkpt lat="59.9636428" lon="17.7102305">
        <ele>31.3801</ele>
        <time>2014-06-17T11:17:55Z</time>
      </trkpt>
      <trkpt lat="59.9636179" lon="17.7102535">
        <ele>30.8995</ele>
        <time>2014-06-17T11:17:56Z</time>
      </trkpt>
      <trkpt lat="59.9635937" lon="17.7102682">
        <ele>30.8995</ele>
        <time>2014-06-17T11:17:57Z</time>
      </trkpt>
      <trkpt lat="59.9635723" lon="17.7102904">
        <ele>30.8995</ele>
        <time>2014-06-17T11:17:58Z</time>
      </trkpt>
      <trkpt lat="59.9635543" lon="17.710324">
        <ele>30.4188</ele>
        <time>2014-06-17T11:17:59Z</time>
      </trkpt>
      <trkpt lat="59.9635389" lon="17.7103581">
        <ele>30.4188</ele>
        <time>2014-06-17T11:18:00Z</time>
      </trkpt>
      <trkpt lat="59.9635201" lon="17.7103836">
        <ele>30.4188</ele>
        <time>2014-06-17T11:18:01Z</time>
      </trkpt>
      <trkpt lat="59.963503" lon="17.7104137">
        <ele>29.9381</ele>
        <time>2014-06-17T11:18:02Z</time>
      </trkpt>
      <trkpt lat="59.9634874" lon="17.7104474">
        <ele>29.9381</ele>
        <time>2014-06-17T11:18:03Z</time>
      </trkpt>
      <trkpt lat="59.9634693" lon="17.7104828">
        <ele>29.4575</ele>
        <time>2014-06-17T11:18:04Z</time>
      </trkpt>
      <trkpt lat="59.9634512" lon="17.7105171">
        <ele>29.9381</ele>
        <time>2014-06-17T11:18:05Z</time>
      </trkpt>
      <trkpt lat="59.9634373" lon="17.7105481">
        <ele>29.4575</ele>
        <time>2014-06-17T11:18:06Z</time>
      </trkpt>
      <trkpt lat="59.9634237" lon="17.7105804">
        <ele>28.4962</ele>
        <time>2014-06-17T11:18:07Z</time>
      </trkpt>
      <trkpt lat="59.9634076" lon="17.7106246">
        <ele>28.4962</ele>
        <time>2014-06-17T11:18:08Z</time>
      </trkpt>
      <trkpt lat="59.9633931" lon="17.7106771">
        <ele>28.0155</ele>
        <time>2014-06-17T11:18:09Z</time>
      </trkpt>
      <trkpt lat="59.963379" lon="17.7107394">
        <ele>27.5349</ele>
        <time>2014-06-17T11:18:10Z</time>
      </trkpt>
      <trkpt lat="59.9633678" lon="17.7108002">
        <ele>27.0543</ele>
        <time>2014-06-17T11:18:11Z</time>
      </trkpt>
      <trkpt lat="59.9633643" lon="17.7108482">
        <ele>26.0929</ele>
        <time>2014-06-17T11:18:12Z</time>
      </trkpt>
      <trkpt lat="59.9633658" lon="17.7108943">
        <ele>26.5736</ele>
        <time>2014-06-17T11:18:13Z</time>
      </trkpt>
      <trkpt lat="59.963372" lon="17.7109372">
        <ele>26.5736</ele>
        <time>2014-06-17T11:18:14Z</time>
      </trkpt>
      <trkpt lat="59.9633808" lon="17.7109822">
        <ele>27.0543</ele>
        <time>2014-06-17T11:18:15Z</time>
      </trkpt>
      <trkpt lat="59.9633927" lon="17.7110218">
        <ele>26.0929</ele>
        <time>2014-06-17T11:18:16Z</time>
      </trkpt>
      <trkpt lat="59.9634083" lon="17.7110628">
        <ele>26.0929</ele>
        <time>2014-06-17T11:18:17Z</time>
      </trkpt>
      <trkpt lat="59.9634279" lon="17.711102">
        <ele>25.6123</ele>
        <time>2014-06-17T11:18:18Z</time>
      </trkpt>
      <trkpt lat="59.9634496" lon="17.7111361">
        <ele>25.6123</ele>
        <time>2014-06-17T11:18:19Z</time>
      </trkpt>
      <trkpt lat="59.9634727" lon="17.7111641">
        <ele>25.6123</ele>
        <time>2014-06-17T11:18:20Z</time>
      </trkpt>
      <trkpt lat="59.9634943" lon="17.7111915">
        <ele>25.6123</ele>
        <time>2014-06-17T11:18:21Z</time>
      </trkpt>
      <trkpt lat="59.9635152" lon="17.7112148">
        <ele>25.6123</ele>
        <time>2014-06-17T11:18:22Z</time>
      </trkpt>
      <trkpt lat="59.9635341" lon="17.7112341">
        <ele>25.1317</ele>
        <time>2014-06-17T11:18:23Z</time>
      </trkpt>
      <trkpt lat="59.9635491" lon="17.7112562">
        <ele>25.6123</ele>
        <time>2014-06-17T11:18:24Z</time>
      </trkpt>
      <trkpt lat="59.9635653" lon="17.7112861">
        <ele>25.1317</ele>
        <time>2014-06-17T11:18:25Z</time>
      </trkpt>
      <trkpt lat="59.9635795" lon="17.7113161">
        <ele>25.1317</ele>
        <time>2014-06-17T11:18:26Z</time>
      </trkpt>
      <trkpt lat="59.9635945" lon="17.7113467">
        <ele>24.651</ele>
        <time>2014-06-17T11:18:27Z</time>
      </trkpt>
      <trkpt lat="59.9636048" lon="17.7113845">
        <ele>25.1317</ele>
        <time>2014-06-17T11:18:28Z</time>
      </trkpt>
      <trkpt lat="59.9636142" lon="17.7114268">
        <ele>25.6123</ele>
        <time>2014-06-17T11:18:29Z</time>
      </trkpt>
      <trkpt lat="59.9636253" lon="17.7114699">
        <ele>25.6123</ele>
        <time>2014-06-17T11:18:30Z</time>
      </trkpt>
      <trkpt lat="59.9636333" lon="17.7115149">
        <ele>25.1317</ele>
        <time>2014-06-17T11:18:31Z</time>
      </trkpt>
      <trkpt lat="59.9636359" lon="17.7115522">
        <ele>25.6123</ele>
        <time>2014-06-17T11:18:32Z</time>
      </trkpt>
      <trkpt lat="59.9636347" lon="17.7115828">
        <ele>26.5736</ele>
        <time>2014-06-17T11:18:33Z</time>
      </trkpt>
      <trkpt lat="59.963635" lon="17.7116313">
        <ele>26.0929</ele>
        <time>2014-06-17T11:18:34Z</time>
      </trkpt>
      <trkpt lat="59.9636382" lon="17.7116864">
        <ele>25.6123</ele>
        <time>2014-06-17T11:18:35Z</time>
      </trkpt>
      <trkpt lat="59.9636466" lon="17.7117542">
        <ele>26.5736</ele>
        <time>2014-06-17T11:18:36Z</time>
      </trkpt>
      <trkpt lat="59.9636549" lon="17.7118149">
        <ele>25.6123</ele>
        <time>2014-06-17T11:18:37Z</time>
      </trkpt>
      <trkpt lat="59.9636615" lon="17.7118434">
        <ele>25.6123</ele>
        <time>2014-06-17T11:18:38Z</time>
      </trkpt>
      <trkpt lat="59.963661" lon="17.71187">
        <ele>25.1317</ele>
        <time>2014-06-17T11:18:39Z</time>
      </trkpt>
      <trkpt lat="59.9636641" lon="17.7118872">
        <ele>23.6896</ele>
        <time>2014-06-17T11:18:40Z</time>
      </trkpt>
      <trkpt lat="59.9636671" lon="17.7119198">
        <ele>22.7283</ele>
        <time>2014-06-17T11:18:41Z</time>
      </trkpt>
      <trkpt lat="59.9636642" lon="17.7119655">
        <ele>22.2476</ele>
        <time>2014-06-17T11:18:42Z</time>
      </trkpt>
      <trkpt lat="59.9636605" lon="17.7120143">
        <ele>22.2476</ele>
        <time>2014-06-17T11:18:43Z</time>
      </trkpt>
      <trkpt lat="59.9636589" lon="17.7120555">
        <ele>23.209</ele>
        <time>2014-06-17T11:18:44Z</time>
      </trkpt>
      <trkpt lat="59.9636558" lon="17.7120966">
        <ele>24.1703</ele>
        <time>2014-06-17T11:18:45Z</time>
      </trkpt>
      <trkpt lat="59.9636531" lon="17.7121375">
        <ele>25.1317</ele>
        <time>2014-06-17T11:18:46Z</time>
      </trkpt>
      <trkpt lat="59.9636556" lon="17.71218">
        <ele>26.5736</ele>
        <time>2014-06-17T11:18:47Z</time>
      </trkpt>
      <trkpt lat="59.9636641" lon="17.7122359">
        <ele>28.0155</ele>
        <time>2014-06-17T11:18:48Z</time>
      </trkpt>
      <trkpt lat="59.9636749" lon="17.7122867">
        <ele>28.4962</ele>
        <time>2014-06-17T11:18:49Z</time>
      </trkpt>
      <trkpt lat="59.9636867" lon="17.7123298">
        <ele>28.0155</ele>
        <time>2014-06-17T11:18:50Z</time>
      </trkpt>
      <trkpt lat="59.9636947" lon="17.712364">
        <ele>28.0155</ele>
        <time>2014-06-17T11:18:51Z</time>
      </trkpt>
      <trkpt lat="59.9637043" lon="17.7124033">
        <ele>27.5349</ele>
        <time>2014-06-17T11:18:52Z</time>
      </trkpt>
      <trkpt lat="59.9637147" lon="17.7124481">
        <ele>27.0543</ele>
        <time>2014-06-17T11:18:53Z</time>
      </trkpt>
      <trkpt lat="59.9637263" lon="17.712487">
        <ele>26.5736</ele>
        <time>2014-06-17T11:18:54Z</time>
      </trkpt>
      <trkpt lat="59.9637426" lon="17.7125181">
        <ele>27.0543</ele>
        <time>2014-06-17T11:18:55Z</time>
      </trkpt>
      <trkpt lat="59.9637579" lon="17.7125427">
        <ele>28.0155</ele>
        <time>2014-06-17T11:18:56Z</time>
      </trkpt>
      <trkpt lat="59.9637708" lon="17.7125732">
        <ele>28.4962</ele>
        <time>2014-06-17T11:18:57Z</time>
      </trkpt>
      <trkpt lat="59.9637858" lon="17.7126074">
        <ele>28.4962</ele>
        <time>2014-06-17T11:18:58Z</time>
      </trkpt>
      <trkpt lat="59.9637953" lon="17.7126424">
        <ele>28.9769</ele>
        <time>2014-06-17T11:18:59Z</time>
      </trkpt>
      <trkpt lat="59.9638082" lon="17.7126731">
        <ele>29.9381</ele>
        <time>2014-06-17T11:19:00Z</time>
      </trkpt>
      <trkpt lat="59.9638229" lon="17.7127041">
        <ele>30.4188</ele>
        <time>2014-06-17T11:19:01Z</time>
      </trkpt>
      <trkpt lat="59.9638387" lon="17.7127333">
        <ele>31.8607</ele>
        <time>2014-06-17T11:19:02Z</time>
      </trkpt>
      <trkpt lat="59.9638527" lon="17.71276">
        <ele>32.8223</ele>
        <time>2014-06-17T11:19:03Z</time>
      </trkpt>
      <trkpt lat="59.963863" lon="17.7127892">
        <ele>32.8223</ele>
        <time>2014-06-17T11:19:04Z</time>
      </trkpt>
      <trkpt lat="59.9638739" lon="17.7128171">
        <ele>32.8223</ele>
        <time>2014-06-17T11:19:05Z</time>
      </trkpt>
      <trkpt lat="59.9638851" lon="17.7128483">
        <ele>32.3416</ele>
        <time>2014-06-17T11:19:06Z</time>
      </trkpt>
      <trkpt lat="59.9638998" lon="17.7128765">
        <ele>32.3416</ele>
        <time>2014-06-17T11:19:07Z</time>
      </trkpt>
      <trkpt lat="59.9639157" lon="17.7129036">
        <ele>32.8223</ele>
        <time>2014-06-17T11:19:08Z</time>
      </trkpt>
      <trkpt lat="59.9639302" lon="17.7129358">
        <ele>32.3416</ele>
        <time>2014-06-17T11:19:09Z</time>
      </trkpt>
      <trkpt lat="59.9639388" lon="17.7129725">
        <ele>32.3416</ele>
        <time>2014-06-17T11:19:10Z</time>
      </trkpt>
      <trkpt lat="59.9639495" lon="17.7130069">
        <ele>32.3416</ele>
        <time>2014-06-17T11:19:11Z</time>
      </trkpt>
      <trkpt lat="59.9639625" lon="17.7130421">
        <ele>32.8223</ele>
        <time>2014-06-17T11:19:12Z</time>
      </trkpt>
      <trkpt lat="59.963976" lon="17.7130763">
        <ele>32.8223</ele>
        <time>2014-06-17T11:19:13Z</time>
      </trkpt>
      <trkpt lat="59.9639845" lon="17.7131156">
        <ele>33.7834</ele>
        <time>2014-06-17T11:19:14Z</time>
      </trkpt>
      <trkpt lat="59.9639952" lon="17.7131627">
        <ele>33.3029</ele>
        <time>2014-06-17T11:19:15Z</time>
      </trkpt>
      <trkpt lat="59.9640084" lon="17.7132057">
        <ele>33.7834</ele>
        <time>2014-06-17T11:19:16Z</time>
      </trkpt>
      <trkpt lat="59.9640138" lon="17.7132483">
        <ele>33.7834</ele>
        <time>2014-06-17T11:19:17Z</time>
      </trkpt>
      <trkpt lat="59.964012" lon="17.713292">
        <ele>32.8223</ele>
        <time>2014-06-17T11:19:18Z</time>
      </trkpt>
      <trkpt lat="59.9640123" lon="17.7133373">
        <ele>32.3416</ele>
        <time>2014-06-17T11:19:19Z</time>
      </trkpt>
      <trkpt lat="59.9640039" lon="17.7133777">
        <ele>32.8223</ele>
        <time>2014-06-17T11:19:20Z</time>
      </trkpt>
      <trkpt lat="59.963988" lon="17.7134096">
        <ele>32.3416</ele>
        <time>2014-06-17T11:19:21Z</time>
      </trkpt>
      <trkpt lat="59.9639789" lon="17.713447">
        <ele>32.8223</ele>
        <time>2014-06-17T11:19:22Z</time>
      </trkpt>
      <trkpt lat="59.963967" lon="17.7134751">
        <ele>33.7834</ele>
        <time>2014-06-17T11:19:23Z</time>
      </trkpt>
      <trkpt lat="59.9639494" lon="17.7134844">
        <ele>34.7449</ele>
        <time>2014-06-17T11:19:24Z</time>
      </trkpt>
      <trkpt lat="59.9639213" lon="17.7134653">
        <ele>33.3029</ele>
        <time>2014-06-17T11:19:25Z</time>
      </trkpt>
      <trkpt lat="59.9638998" lon="17.7134549">
        <ele>33.3029</ele>
        <time>2014-06-17T11:19:26Z</time>
      </trkpt>
      <trkpt lat="59.9638758" lon="17.713434">
        <ele>32.3416</ele>
        <time>2014-06-17T11:19:27Z</time>
      </trkpt>
      <trkpt lat="59.9638547" lon="17.7134119">
        <ele>31.3801</ele>
        <time>2014-06-17T11:19:28Z</time>
      </trkpt>
      <trkpt lat="59.963832" lon="17.713388">
        <ele>30.4188</ele>
        <time>2014-06-17T11:19:29Z</time>
      </trkpt>
      <trkpt lat="59.963805" lon="17.7133662">
        <ele>30.4188</ele>
        <time>2014-06-17T11:19:30Z</time>
      </trkpt>
      <trkpt lat="59.963777" lon="17.7133505">
        <ele>29.9381</ele>
        <time>2014-06-17T11:19:31Z</time>
      </trkpt>
      <trkpt lat="59.9637573" lon="17.7133519">
        <ele>30.8995</ele>
        <time>2014-06-17T11:19:32Z</time>
      </trkpt>
      <trkpt lat="59.9637325" lon="17.7133514">
        <ele>30.8995</ele>
        <time>2014-06-17T11:19:33Z</time>
      </trkpt>
      <trkpt lat="59.963704" lon="17.713346">
        <ele>30.8995</ele>
        <time>2014-06-17T11:19:34Z</time>
      </trkpt>
      <trkpt lat="59.9636831" lon="17.7133485">
        <ele>30.8995</ele>
        <time>2014-06-17T11:19:35Z</time>
      </trkpt>
      <trkpt lat="59.963662" lon="17.7133457">
        <ele>30.8995</ele>
        <time>2014-06-17T11:19:36Z</time>
      </trkpt>
      <trkpt lat="59.9636421" lon="17.713345">
        <ele>30.4188</ele>
        <time>2014-06-17T11:19:37Z</time>
      </trkpt>
      <trkpt lat="59.9636259" lon="17.7133588">
        <ele>30.4188</ele>
        <time>2014-06-17T11:19:38Z</time>
      </trkpt>
      <trkpt lat="59.9636101" lon="17.7133678">
        <ele>30.8995</ele>
        <time>2014-06-17T11:19:39Z</time>
      </trkpt>
      <trkpt lat="59.9635936" lon="17.713372">
        <ele>30.8995</ele>
        <time>2014-06-17T11:19:40Z</time>
      </trkpt>
      <trkpt lat="59.9635736" lon="17.7133806">
        <ele>31.3801</ele>
        <time>2014-06-17T11:19:41Z</time>
      </trkpt>
      <trkpt lat="59.9635513" lon="17.7133963">
        <ele>32.3416</ele>
        <time>2014-06-17T11:19:42Z</time>
      </trkpt>
      <trkpt lat="59.9635311" lon="17.7134205">
        <ele>34.2642</ele>
        <time>2014-06-17T11:19:43Z</time>
      </trkpt>
      <trkpt lat="59.9635128" lon="17.7134441">
        <ele>35.7061</ele>
        <time>2014-06-17T11:19:44Z</time>
      </trkpt>
      <trkpt lat="59.9634937" lon="17.7134735">
        <ele>36.1868</ele>
        <time>2014-06-17T11:19:45Z</time>
      </trkpt>
      <trkpt lat="59.9634793" lon="17.7135059">
        <ele>37.1481</ele>
        <time>2014-06-17T11:19:46Z</time>
      </trkpt>
      <trkpt lat="59.9634653" lon="17.7135232">
        <ele>38.1094</ele>
        <time>2014-06-17T11:19:47Z</time>
      </trkpt>
      <trkpt lat="59.9634569" lon="17.7135527">
        <ele>38.1094</ele>
        <time>2014-06-17T11:19:48Z</time>
      </trkpt>
      <trkpt lat="59.9634433" lon="17.7135834">
        <ele>37.6287</ele>
        <time>2014-06-17T11:19:49Z</time>
      </trkpt>
      <trkpt lat="59.9634269" lon="17.7136166">
        <ele>37.6287</ele>
        <time>2014-06-17T11:19:50Z</time>
      </trkpt>
      <trkpt lat="59.9634065" lon="17.713649">
        <ele>37.6287</ele>
        <time>2014-06-17T11:19:51Z</time>
      </trkpt>
      <trkpt lat="59.9633916" lon="17.713674">
        <ele>36.6675</ele>
        <time>2014-06-17T11:19:52Z</time>
      </trkpt>
      <trkpt lat="59.9633783" lon="17.7137091">
        <ele>35.7061</ele>
        <time>2014-06-17T11:19:53Z</time>
      </trkpt>
      <trkpt lat="59.9633595" lon="17.7137393">
        <ele>36.6675</ele>
        <time>2014-06-17T11:19:54Z</time>
      </trkpt>
      <trkpt lat="59.9633436" lon="17.7137619">
        <ele>37.1481</ele>
        <time>2014-06-17T11:19:55Z</time>
      </trkpt>
      <trkpt lat="59.963327" lon="17.7137946">
        <ele>37.6287</ele>
        <time>2014-06-17T11:19:56Z</time>
      </trkpt>
      <trkpt lat="59.9633123" lon="17.7138189">
        <ele>36.6675</ele>
        <time>2014-06-17T11:19:57Z</time>
      </trkpt>
      <trkpt lat="59.9632942" lon="17.713838">
        <ele>36.6675</ele>
        <time>2014-06-17T11:19:58Z</time>
      </trkpt>
      <trkpt lat="59.9632818" lon="17.7138662">
        <ele>36.6675</ele>
        <time>2014-06-17T11:19:59Z</time>
      </trkpt>
      <trkpt lat="59.9632616" lon="17.7138946">
        <ele>38.1094</ele>
        <time>2014-06-17T11:20:00Z</time>
      </trkpt>
      <trkpt lat="59.9632457" lon="17.713915">
        <ele>36.6675</ele>
        <time>2014-06-17T11:20:01Z</time>
      </trkpt>
      <trkpt lat="59.9632262" lon="17.7139416">
        <ele>37.1481</ele>
        <time>2014-06-17T11:20:02Z</time>
      </trkpt>
      <trkpt lat="59.9632124" lon="17.713984">
        <ele>37.1481</ele>
        <time>2014-06-17T11:20:03Z</time>
      </trkpt>
      <trkpt lat="59.9631961" lon="17.7140054">
        <ele>36.6675</ele>
        <time>2014-06-17T11:20:04Z</time>
      </trkpt>
      <trkpt lat="59.9631787" lon="17.7140408">
        <ele>38.1094</ele>
        <time>2014-06-17T11:20:05Z</time>
      </trkpt>
      <trkpt lat="59.963159" lon="17.7140743">
        <ele>40.0321</ele>
        <time>2014-06-17T11:20:06Z</time>
      </trkpt>
      <trkpt lat="59.9631438" lon="17.7141147">
        <ele>41.9547</ele>
        <time>2014-06-17T11:20:07Z</time>
      </trkpt>
      <trkpt lat="59.9631273" lon="17.7141309">
        <ele>41.474</ele>
        <time>2014-06-17T11:20:08Z</time>
      </trkpt>
      <trkpt lat="59.9631088" lon="17.7141505">
        <ele>42.4354</ele>
        <time>2014-06-17T11:20:09Z</time>
      </trkpt>
      <trkpt lat="59.9630902" lon="17.7141816">
        <ele>43.8773</ele>
        <time>2014-06-17T11:20:10Z</time>
      </trkpt>
      <trkpt lat="59.9630723" lon="17.7142135">
        <ele>44.8386</ele>
        <time>2014-06-17T11:20:11Z</time>
      </trkpt>
      <trkpt lat="59.9630519" lon="17.71424">
        <ele>45.7999</ele>
        <time>2014-06-17T11:20:12Z</time>
      </trkpt>
      <trkpt lat="59.9630321" lon="17.7142743">
        <ele>45.7999</ele>
        <time>2014-06-17T11:20:13Z</time>
      </trkpt>
      <trkpt lat="59.963016" lon="17.7142987">
        <ele>46.7612</ele>
        <time>2014-06-17T11:20:14Z</time>
      </trkpt>
      <trkpt lat="59.9630009" lon="17.7143169">
        <ele>49.1646</ele>
        <time>2014-06-17T11:20:15Z</time>
      </trkpt>
      <trkpt lat="59.962985" lon="17.7143375">
        <ele>50.126</ele>
        <time>2014-06-17T11:20:16Z</time>
      </trkpt>
      <trkpt lat="59.9629694" lon="17.7143525">
        <ele>52.0486</ele>
        <time>2014-06-17T11:20:17Z</time>
      </trkpt>
      <trkpt lat="59.9629522" lon="17.7143667">
        <ele>52.5292</ele>
        <time>2014-06-17T11:20:18Z</time>
      </trkpt>
      <trkpt lat="59.9629408" lon="17.7143692">
        <ele>51.5679</ele>
        <time>2014-06-17T11:20:19Z</time>
      </trkpt>
      <trkpt lat="59.9629061" lon="17.7143981">
        <ele>49.6453</ele>
        <time>2014-06-17T11:20:21Z</time>
      </trkpt>
      <trkpt lat="59.9628861" lon="17.7144199">
        <ele>49.6453</ele>
        <time>2014-06-17T11:20:22Z</time>
      </trkpt>
      <trkpt lat="59.962866" lon="17.7144411">
        <ele>49.6453</ele>
        <time>2014-06-17T11:20:23Z</time>
      </trkpt>
      <trkpt lat="59.9628431" lon="17.7144492">
        <ele>49.6453</ele>
        <time>2014-06-17T11:20:24Z</time>
      </trkpt>
      <trkpt lat="59.9628203" lon="17.7144497">
        <ele>49.6453</ele>
        <time>2014-06-17T11:20:25Z</time>
      </trkpt>
      <trkpt lat="59.9627999" lon="17.7144437">
        <ele>49.6453</ele>
        <time>2014-06-17T11:20:26Z</time>
      </trkpt>
      <trkpt lat="59.9627812" lon="17.7144288">
        <ele>49.6453</ele>
        <time>2014-06-17T11:20:27Z</time>
      </trkpt>
      <trkpt lat="59.9627571" lon="17.7144178">
        <ele>49.1646</ele>
        <time>2014-06-17T11:20:28Z</time>
      </trkpt>
      <trkpt lat="59.9627341" lon="17.7144033">
        <ele>48.684</ele>
        <time>2014-06-17T11:20:29Z</time>
      </trkpt>
      <trkpt lat="59.9627149" lon="17.7143753">
        <ele>48.2034</ele>
        <time>2014-06-17T11:20:30Z</time>
      </trkpt>
      <trkpt lat="59.9627051" lon="17.7143432">
        <ele>47.2418</ele>
        <time>2014-06-17T11:20:31Z</time>
      </trkpt>
      <trkpt lat="59.9626921" lon="17.7143032">
        <ele>46.2806</ele>
        <time>2014-06-17T11:20:32Z</time>
      </trkpt>
      <trkpt lat="59.9626787" lon="17.7142598">
        <ele>46.2806</ele>
        <time>2014-06-17T11:20:33Z</time>
      </trkpt>
      <trkpt lat="59.9626674" lon="17.7142245">
        <ele>46.2806</ele>
        <time>2014-06-17T11:20:34Z</time>
      </trkpt>
      <trkpt lat="59.9626488" lon="17.7141913">
        <ele>44.358</ele>
        <time>2014-06-17T11:20:35Z</time>
      </trkpt>
      <trkpt lat="59.9626249" lon="17.7141683">
        <ele>43.8773</ele>
        <time>2014-06-17T11:20:36Z</time>
      </trkpt>
      <trkpt lat="59.9625997" lon="17.7141452">
        <ele>42.916</ele>
        <time>2014-06-17T11:20:37Z</time>
      </trkpt>
      <trkpt lat="59.9625868" lon="17.7141201">
        <ele>43.3966</ele>
        <time>2014-06-17T11:20:38Z</time>
      </trkpt>
      <trkpt lat="59.9625726" lon="17.7141003">
        <ele>42.4354</ele>
        <time>2014-06-17T11:20:39Z</time>
      </trkpt>
      <trkpt lat="59.9625609" lon="17.7140714">
        <ele>42.4354</ele>
        <time>2014-06-17T11:20:40Z</time>
      </trkpt>
      <trkpt lat="59.9625544" lon="17.7140392">
        <ele>42.4354</ele>
        <time>2014-06-17T11:20:41Z</time>
      </trkpt>
      <trkpt lat="59.9625416" lon="17.714007">
        <ele>42.916</ele>
        <time>2014-06-17T11:20:42Z</time>
      </trkpt>
      <trkpt lat="59.9625204" lon="17.7139818">
        <ele>43.3966</ele>
        <time>2014-06-17T11:20:43Z</time>
      </trkpt>
      <trkpt lat="59.962502" lon="17.7139527">
        <ele>42.916</ele>
        <time>2014-06-17T11:20:44Z</time>
      </trkpt>
      <trkpt lat="59.9624896" lon="17.7139242">
        <ele>42.916</ele>
        <time>2014-06-17T11:20:45Z</time>
      </trkpt>
      <trkpt lat="59.9624716" lon="17.7138952">
        <ele>43.3966</ele>
        <time>2014-06-17T11:20:46Z</time>
      </trkpt>
      <trkpt lat="59.9624539" lon="17.7138739">
        <ele>43.8773</ele>
        <time>2014-06-17T11:20:47Z</time>
      </trkpt>
      <trkpt lat="59.9624393" lon="17.7138465">
        <ele>42.916</ele>
        <time>2014-06-17T11:20:48Z</time>
      </trkpt>
      <trkpt lat="59.9624248" lon="17.7138123">
        <ele>42.4354</ele>
        <time>2014-06-17T11:20:49Z</time>
      </trkpt>
      <trkpt lat="59.9624101" lon="17.7137817">
        <ele>42.916</ele>
        <time>2014-06-17T11:20:50Z</time>
      </trkpt>
      <trkpt lat="59.962398" lon="17.7137501">
        <ele>42.4354</ele>
        <time>2014-06-17T11:20:51Z</time>
      </trkpt>
      <trkpt lat="59.9623793" lon="17.7137276">
        <ele>42.4354</ele>
        <time>2014-06-17T11:20:52Z</time>
      </trkpt>
      <trkpt lat="59.9623585" lon="17.7137033">
        <ele>41.474</ele>
        <time>2014-06-17T11:20:53Z</time>
      </trkpt>
      <trkpt lat="59.9623427" lon="17.7136787">
        <ele>40.5128</ele>
        <time>2014-06-17T11:20:54Z</time>
      </trkpt>
      <trkpt lat="59.9623198" lon="17.7136518">
        <ele>39.5513</ele>
        <time>2014-06-17T11:20:55Z</time>
      </trkpt>
      <trkpt lat="59.9623003" lon="17.7136082">
        <ele>39.0707</ele>
        <time>2014-06-17T11:20:56Z</time>
      </trkpt>
      <trkpt lat="59.9622858" lon="17.7135776">
        <ele>40.0321</ele>
        <time>2014-06-17T11:20:57Z</time>
      </trkpt>
      <trkpt lat="59.9622716" lon="17.7135527">
        <ele>40.9934</ele>
        <time>2014-06-17T11:20:58Z</time>
      </trkpt>
      <trkpt lat="59.9622531" lon="17.7135264">
        <ele>40.5128</ele>
        <time>2014-06-17T11:20:59Z</time>
      </trkpt>
      <trkpt lat="59.9622343" lon="17.7135041">
        <ele>39.5513</ele>
        <time>2014-06-17T11:21:00Z</time>
      </trkpt>
      <trkpt lat="59.9622256" lon="17.7134859">
        <ele>40.0321</ele>
        <time>2014-06-17T11:21:01Z</time>
      </trkpt>
      <trkpt lat="59.9622075" lon="17.7134684">
        <ele>40.0321</ele>
        <time>2014-06-17T11:21:02Z</time>
      </trkpt>
      <trkpt lat="59.9621919" lon="17.7134512">
        <ele>41.474</ele>
        <time>2014-06-17T11:21:03Z</time>
      </trkpt>
      <trkpt lat="59.96217" lon="17.7134356">
        <ele>41.9547</ele>
        <time>2014-06-17T11:21:04Z</time>
      </trkpt>
      <trkpt lat="59.9621563" lon="17.7134138">
        <ele>42.916</ele>
        <time>2014-06-17T11:21:05Z</time>
      </trkpt>
      <trkpt lat="59.9621413" lon="17.7133907">
        <ele>43.8773</ele>
        <time>2014-06-17T11:21:06Z</time>
      </trkpt>
      <trkpt lat="59.9621153" lon="17.7133606">
        <ele>42.4354</ele>
        <time>2014-06-17T11:21:07Z</time>
      </trkpt>
      <trkpt lat="59.9620837" lon="17.7133163">
        <ele>40.0321</ele>
        <time>2014-06-17T11:21:08Z</time>
      </trkpt>
      <trkpt lat="59.9620568" lon="17.7132699">
        <ele>39.0707</ele>
        <time>2014-06-17T11:21:09Z</time>
      </trkpt>
      <trkpt lat="59.962039" lon="17.7132419">
        <ele>38.1094</ele>
        <time>2014-06-17T11:21:10Z</time>
      </trkpt>
      <trkpt lat="59.962022" lon="17.713215">
        <ele>37.1481</ele>
        <time>2014-06-17T11:21:11Z</time>
      </trkpt>
      <trkpt lat="59.9620076" lon="17.7131896">
        <ele>36.1868</ele>
        <time>2014-06-17T11:21:12Z</time>
      </trkpt>
      <trkpt lat="59.9619943" lon="17.7131689">
        <ele>36.1868</ele>
        <time>2014-06-17T11:21:13Z</time>
      </trkpt>
      <trkpt lat="59.9619811" lon="17.7131534">
        <ele>37.1481</ele>
        <time>2014-06-17T11:21:14Z</time>
      </trkpt>
      <trkpt lat="59.9619588" lon="17.7131299">
        <ele>38.1094</ele>
        <time>2014-06-17T11:21:15Z</time>
      </trkpt>
      <trkpt lat="59.9619304" lon="17.7130985">
        <ele>38.1094</ele>
        <time>2014-06-17T11:21:16Z</time>
      </trkpt>
      <trkpt lat="59.9619018" lon="17.7130746">
        <ele>36.1868</ele>
        <time>2014-06-17T11:21:17Z</time>
      </trkpt>
      <trkpt lat="59.9618806" lon="17.7130612">
        <ele>35.7061</ele>
        <time>2014-06-17T11:21:18Z</time>
      </trkpt>
      <trkpt lat="59.9618729" lon="17.7130509">
        <ele>37.6287</ele>
        <time>2014-06-17T11:21:19Z</time>
      </trkpt>
      <trkpt lat="59.9618469" lon="17.713028">
        <ele>36.1868</ele>
        <time>2014-06-17T11:21:20Z</time>
      </trkpt>
      <trkpt lat="59.9618324" lon="17.7130083">
        <ele>36.6675</ele>
        <time>2014-06-17T11:21:21Z</time>
      </trkpt>
      <trkpt lat="59.9618158" lon="17.7129845">
        <ele>36.1868</ele>
        <time>2014-06-17T11:21:22Z</time>
      </trkpt>
      <trkpt lat="59.9617987" lon="17.7129658">
        <ele>36.1868</ele>
        <time>2014-06-17T11:21:23Z</time>
      </trkpt>
      <trkpt lat="59.9617749" lon="17.7129375">
        <ele>35.7061</ele>
        <time>2014-06-17T11:21:24Z</time>
      </trkpt>
      <trkpt lat="59.9617666" lon="17.7129087">
        <ele>37.1481</ele>
        <time>2014-06-17T11:21:25Z</time>
      </trkpt>
      <trkpt lat="59.9617519" lon="17.7128784">
        <ele>38.1094</ele>
        <time>2014-06-17T11:21:26Z</time>
      </trkpt>
      <trkpt lat="59.9617343" lon="17.7128466">
        <ele>37.1481</ele>
        <time>2014-06-17T11:21:27Z</time>
      </trkpt>
      <trkpt lat="59.9617143" lon="17.7128175">
        <ele>36.1868</ele>
        <time>2014-06-17T11:21:28Z</time>
      </trkpt>
      <trkpt lat="59.9617015" lon="17.71281">
        <ele>36.1868</ele>
        <time>2014-06-17T11:21:29Z</time>
      </trkpt>
      <trkpt lat="59.9616937" lon="17.7127995">
        <ele>37.6287</ele>
        <time>2014-06-17T11:21:30Z</time>
      </trkpt>
      <trkpt lat="59.9616812" lon="17.7127807">
        <ele>38.1094</ele>
        <time>2014-06-17T11:21:31Z</time>
      </trkpt>
      <trkpt lat="59.9616567" lon="17.7127467">
        <ele>36.6675</ele>
        <time>2014-06-17T11:21:32Z</time>
      </trkpt>
      <trkpt lat="59.9616357" lon="17.712713">
        <ele>36.1868</ele>
        <time>2014-06-17T11:21:33Z</time>
      </trkpt>
      <trkpt lat="59.9616115" lon="17.7126728">
        <ele>35.2255</ele>
        <time>2014-06-17T11:21:34Z</time>
      </trkpt>
      <trkpt lat="59.9615941" lon="17.7126297">
        <ele>34.7449</ele>
        <time>2014-06-17T11:21:35Z</time>
      </trkpt>
      <trkpt lat="59.9615777" lon="17.7126018">
        <ele>34.2642</ele>
        <time>2014-06-17T11:21:36Z</time>
      </trkpt>
      <trkpt lat="59.961552" lon="17.7125622">
        <ele>32.8223</ele>
        <time>2014-06-17T11:21:37Z</time>
      </trkpt>
      <trkpt lat="59.9615424" lon="17.7125321">
        <ele>32.8223</ele>
        <time>2014-06-17T11:21:38Z</time>
      </trkpt>
      <trkpt lat="59.961524" lon="17.7125005">
        <ele>31.8607</ele>
        <time>2014-06-17T11:21:39Z</time>
      </trkpt>
      <trkpt lat="59.9615029" lon="17.7124738">
        <ele>31.3801</ele>
        <time>2014-06-17T11:21:40Z</time>
      </trkpt>
      <trkpt lat="59.9614802" lon="17.7124447">
        <ele>31.3801</ele>
        <time>2014-06-17T11:21:41Z</time>
      </trkpt>
      <trkpt lat="59.961468" lon="17.7124218">
        <ele>31.3801</ele>
        <time>2014-06-17T11:21:42Z</time>
      </trkpt>
      <trkpt lat="59.9614532" lon="17.7124083">
        <ele>31.8607</ele>
        <time>2014-06-17T11:21:43Z</time>
      </trkpt>
      <trkpt lat="59.9614372" lon="17.7123979">
        <ele>31.8607</ele>
        <time>2014-06-17T11:21:44Z</time>
      </trkpt>
      <trkpt lat="59.96142" lon="17.712381">
        <ele>31.3801</ele>
        <time>2014-06-17T11:21:45Z</time>
      </trkpt>
      <trkpt lat="59.9614025" lon="17.7123587">
        <ele>31.8607</ele>
        <time>2014-06-17T11:21:46Z</time>
      </trkpt>
      <trkpt lat="59.9613833" lon="17.7123324">
        <ele>30.8995</ele>
        <time>2014-06-17T11:21:47Z</time>
      </trkpt>
      <trkpt lat="59.9613674" lon="17.7123038">
        <ele>30.4188</ele>
        <time>2014-06-17T11:21:48Z</time>
      </trkpt>
      <trkpt lat="59.9613372" lon="17.7122299">
        <ele>29.4575</ele>
        <time>2014-06-17T11:21:50Z</time>
      </trkpt>
      <trkpt lat="59.9613187" lon="17.7122002">
        <ele>28.4962</ele>
        <time>2014-06-17T11:21:51Z</time>
      </trkpt>
      <trkpt lat="59.9613045" lon="17.7121747">
        <ele>28.9769</ele>
        <time>2014-06-17T11:21:52Z</time>
      </trkpt>
      <trkpt lat="59.9612907" lon="17.7121508">
        <ele>29.4575</ele>
        <time>2014-06-17T11:21:53Z</time>
      </trkpt>
      <trkpt lat="59.9612755" lon="17.7121254">
        <ele>29.4575</ele>
        <time>2014-06-17T11:21:54Z</time>
      </trkpt>
      <trkpt lat="59.9612476" lon="17.7120982">
        <ele>28.0155</ele>
        <time>2014-06-17T11:21:55Z</time>
      </trkpt>
      <trkpt lat="59.9612296" lon="17.7120712">
        <ele>27.5349</ele>
        <time>2014-06-17T11:21:56Z</time>
      </trkpt>
      <trkpt lat="59.9612113" lon="17.7120401">
        <ele>27.0543</ele>
        <time>2014-06-17T11:21:57Z</time>
      </trkpt>
      <trkpt lat="59.961189" lon="17.7120101">
        <ele>26.5736</ele>
        <time>2014-06-17T11:21:58Z</time>
      </trkpt>
      <trkpt lat="59.9611673" lon="17.7119801">
        <ele>27.0543</ele>
        <time>2014-06-17T11:21:59Z</time>
      </trkpt>
      <trkpt lat="59.961145" lon="17.7119524">
        <ele>27.0543</ele>
        <time>2014-06-17T11:22:00Z</time>
      </trkpt>
      <trkpt lat="59.9611251" lon="17.7119246">
        <ele>27.5349</ele>
        <time>2014-06-17T11:22:01Z</time>
      </trkpt>
      <trkpt lat="59.9611055" lon="17.7118959">
        <ele>27.5349</ele>
        <time>2014-06-17T11:22:02Z</time>
      </trkpt>
      <trkpt lat="59.9610788" lon="17.7118573">
        <ele>27.5349</ele>
        <time>2014-06-17T11:22:03Z</time>
      </trkpt>
      <trkpt lat="59.9610563" lon="17.7118227">
        <ele>28.9769</ele>
        <time>2014-06-17T11:22:04Z</time>
      </trkpt>
      <trkpt lat="59.9610231" lon="17.7117874">
        <ele>28.4962</ele>
        <time>2014-06-17T11:22:05Z</time>
      </trkpt>
      <trkpt lat="59.9609969" lon="17.7117577">
        <ele>28.0155</ele>
        <time>2014-06-17T11:22:06Z</time>
      </trkpt>
      <trkpt lat="59.9609755" lon="17.7117291">
        <ele>28.0155</ele>
        <time>2014-06-17T11:22:07Z</time>
      </trkpt>
      <trkpt lat="59.9609519" lon="17.711696">
        <ele>28.0155</ele>
        <time>2014-06-17T11:22:08Z</time>
      </trkpt>
      <trkpt lat="59.9609347" lon="17.7116777">
        <ele>28.4962</ele>
        <time>2014-06-17T11:22:09Z</time>
      </trkpt>
      <trkpt lat="59.9609195" lon="17.7116532">
        <ele>29.4575</ele>
        <time>2014-06-17T11:22:10Z</time>
      </trkpt>
      <trkpt lat="59.960901" lon="17.7116351">
        <ele>30.4188</ele>
        <time>2014-06-17T11:22:11Z</time>
      </trkpt>
      <trkpt lat="59.9608741" lon="17.7116241">
        <ele>30.8995</ele>
        <time>2014-06-17T11:22:12Z</time>
      </trkpt>
      <trkpt lat="59.9608465" lon="17.7116155">
        <ele>30.8995</ele>
        <time>2014-06-17T11:22:13Z</time>
      </trkpt>
      <trkpt lat="59.9608185" lon="17.7115912">
        <ele>31.8607</ele>
        <time>2014-06-17T11:22:14Z</time>
      </trkpt>
      <trkpt lat="59.9607871" lon="17.7115698">
        <ele>31.3801</ele>
        <time>2014-06-17T11:22:15Z</time>
      </trkpt>
      <trkpt lat="59.9607589" lon="17.7115507">
        <ele>31.3801</ele>
        <time>2014-06-17T11:22:16Z</time>
      </trkpt>
      <trkpt lat="59.9607321" lon="17.7115263">
        <ele>31.3801</ele>
        <time>2014-06-17T11:22:17Z</time>
      </trkpt>
      <trkpt lat="59.9607182" lon="17.7115289">
        <ele>32.8223</ele>
        <time>2014-06-17T11:22:18Z</time>
      </trkpt>
      <trkpt lat="59.960703" lon="17.711533">
        <ele>34.2642</ele>
        <time>2014-06-17T11:22:19Z</time>
      </trkpt>
      <trkpt lat="59.9606884" lon="17.7115346">
        <ele>35.2255</ele>
        <time>2014-06-17T11:22:20Z</time>
      </trkpt>
      <trkpt lat="59.9606674" lon="17.71153">
        <ele>36.1868</ele>
        <time>2014-06-17T11:22:21Z</time>
      </trkpt>
      <trkpt lat="59.9606476" lon="17.7115227">
        <ele>36.6675</ele>
        <time>2014-06-17T11:22:22Z</time>
      </trkpt>
      <trkpt lat="59.9606295" lon="17.7115159">
        <ele>38.1094</ele>
        <time>2014-06-17T11:22:23Z</time>
      </trkpt>
      <trkpt lat="59.9606104" lon="17.7115118">
        <ele>39.0707</ele>
        <time>2014-06-17T11:22:24Z</time>
      </trkpt>
      <trkpt lat="59.9605912" lon="17.7115121">
        <ele>39.5513</ele>
        <time>2014-06-17T11:22:25Z</time>
      </trkpt>
      <trkpt lat="59.9605662" lon="17.7115139">
        <ele>40.5128</ele>
        <time>2014-06-17T11:22:26Z</time>
      </trkpt>
      <trkpt lat="59.9605426" lon="17.7115108">
        <ele>40.9934</ele>
        <time>2014-06-17T11:22:27Z</time>
      </trkpt>
      <trkpt lat="59.9605212" lon="17.7115185">
        <ele>41.9547</ele>
        <time>2014-06-17T11:22:28Z</time>
      </trkpt>
      <trkpt lat="59.9604979" lon="17.7115264">
        <ele>42.916</ele>
        <time>2014-06-17T11:22:29Z</time>
      </trkpt>
      <trkpt lat="59.9604732" lon="17.7115268">
        <ele>43.3966</ele>
        <time>2014-06-17T11:22:30Z</time>
      </trkpt>
      <trkpt lat="59.9604503" lon="17.7115268">
        <ele>43.8773</ele>
        <time>2014-06-17T11:22:31Z</time>
      </trkpt>
      <trkpt lat="59.9604254" lon="17.711532">
        <ele>44.358</ele>
        <time>2014-06-17T11:22:32Z</time>
      </trkpt>
      <trkpt lat="59.9603996" lon="17.711532">
        <ele>44.358</ele>
        <time>2014-06-17T11:22:33Z</time>
      </trkpt>
      <trkpt lat="59.9603747" lon="17.7115304">
        <ele>44.358</ele>
        <time>2014-06-17T11:22:34Z</time>
      </trkpt>
      <trkpt lat="59.9603515" lon="17.7115278">
        <ele>44.8386</ele>
        <time>2014-06-17T11:22:35Z</time>
      </trkpt>
      <trkpt lat="59.9603282" lon="17.7115219">
        <ele>45.3192</ele>
        <time>2014-06-17T11:22:36Z</time>
      </trkpt>
      <trkpt lat="59.9603057" lon="17.7115205">
        <ele>46.2806</ele>
        <time>2014-06-17T11:22:37Z</time>
      </trkpt>
      <trkpt lat="59.9602836" lon="17.7115149">
        <ele>45.7999</ele>
        <time>2014-06-17T11:22:38Z</time>
      </trkpt>
      <trkpt lat="59.9602588" lon="17.7115144">
        <ele>46.2806</ele>
        <time>2014-06-17T11:22:39Z</time>
      </trkpt>
      <trkpt lat="59.9602338" lon="17.7115103">
        <ele>46.7612</ele>
        <time>2014-06-17T11:22:40Z</time>
      </trkpt>
      <trkpt lat="59.9602098" lon="17.7114984">
        <ele>46.2806</ele>
        <time>2014-06-17T11:22:41Z</time>
      </trkpt>
      <trkpt lat="59.9601865" lon="17.7114888">
        <ele>45.3192</ele>
        <time>2014-06-17T11:22:42Z</time>
      </trkpt>
      <trkpt lat="59.9601624" lon="17.7114848">
        <ele>45.3192</ele>
        <time>2014-06-17T11:22:43Z</time>
      </trkpt>
      <trkpt lat="59.9601404" lon="17.7114741">
        <ele>44.8386</ele>
        <time>2014-06-17T11:22:44Z</time>
      </trkpt>
      <trkpt lat="59.9601199" lon="17.7114648">
        <ele>44.358</ele>
        <time>2014-06-17T11:22:45Z</time>
      </trkpt>
      <trkpt lat="59.9600981" lon="17.711459">
        <ele>43.8773</ele>
        <time>2014-06-17T11:22:46Z</time>
      </trkpt>
      <trkpt lat="59.9600764" lon="17.7114472">
        <ele>42.916</ele>
        <time>2014-06-17T11:22:47Z</time>
      </trkpt>
      <trkpt lat="59.9600577" lon="17.7114295">
        <ele>41.9547</ele>
        <time>2014-06-17T11:22:48Z</time>
      </trkpt>
      <trkpt lat="59.9600407" lon="17.7114139">
        <ele>41.9547</ele>
        <time>2014-06-17T11:22:49Z</time>
      </trkpt>
      <trkpt lat="59.960024" lon="17.7114052">
        <ele>41.474</ele>
        <time>2014-06-17T11:22:50Z</time>
      </trkpt>
      <trkpt lat="59.9600049" lon="17.7114023">
        <ele>40.9934</ele>
        <time>2014-06-17T11:22:51Z</time>
      </trkpt>
      <trkpt lat="59.9599852" lon="17.7113994">
        <ele>40.5128</ele>
        <time>2014-06-17T11:22:52Z</time>
      </trkpt>
      <trkpt lat="59.9599603" lon="17.7113937">
        <ele>40.0321</ele>
        <time>2014-06-17T11:22:53Z</time>
      </trkpt>
      <trkpt lat="59.959937" lon="17.7113879">
        <ele>39.5513</ele>
        <time>2014-06-17T11:22:54Z</time>
      </trkpt>
      <trkpt lat="59.9599137" lon="17.7113834">
        <ele>39.5513</ele>
        <time>2014-06-17T11:22:55Z</time>
      </trkpt>
      <trkpt lat="59.9598928" lon="17.7113693">
        <ele>38.5901</ele>
        <time>2014-06-17T11:22:56Z</time>
      </trkpt>
      <trkpt lat="59.9598764" lon="17.7113586">
        <ele>38.1094</ele>
        <time>2014-06-17T11:22:57Z</time>
      </trkpt>
      <trkpt lat="59.9598499" lon="17.711347">
        <ele>36.6675</ele>
        <time>2014-06-17T11:22:58Z</time>
      </trkpt>
      <trkpt lat="59.9598231" lon="17.7113265">
        <ele>35.7061</ele>
        <time>2014-06-17T11:22:59Z</time>
      </trkpt>
      <trkpt lat="59.9597977" lon="17.7113187">
        <ele>35.7061</ele>
        <time>2014-06-17T11:23:00Z</time>
      </trkpt>
      <trkpt lat="59.9597733" lon="17.7113142">
        <ele>34.7449</ele>
        <time>2014-06-17T11:23:01Z</time>
      </trkpt>
      <trkpt lat="59.9597535" lon="17.7113077">
        <ele>34.7449</ele>
        <time>2014-06-17T11:23:02Z</time>
      </trkpt>
      <trkpt lat="59.959734" lon="17.7113015">
        <ele>34.2642</ele>
        <time>2014-06-17T11:23:03Z</time>
      </trkpt>
      <trkpt lat="59.9597122" lon="17.7113013">
        <ele>34.2642</ele>
        <time>2014-06-17T11:23:04Z</time>
      </trkpt>
      <trkpt lat="59.9596878" lon="17.7112963">
        <ele>33.7834</ele>
        <time>2014-06-17T11:23:05Z</time>
      </trkpt>
      <trkpt lat="59.9596613" lon="17.7112968">
        <ele>33.3029</ele>
        <time>2014-06-17T11:23:06Z</time>
      </trkpt>
      <trkpt lat="59.9596349" lon="17.7112978">
        <ele>32.8223</ele>
        <time>2014-06-17T11:23:07Z</time>
      </trkpt>
      <trkpt lat="59.9596092" lon="17.7112889">
        <ele>32.8223</ele>
        <time>2014-06-17T11:23:08Z</time>
      </trkpt>
      <trkpt lat="59.9595826" lon="17.7112818">
        <ele>32.3416</ele>
        <time>2014-06-17T11:23:09Z</time>
      </trkpt>
      <trkpt lat="59.9595593" lon="17.7112692">
        <ele>31.8607</ele>
        <time>2014-06-17T11:23:10Z</time>
      </trkpt>
      <trkpt lat="59.9595357" lon="17.7112563">
        <ele>30.8995</ele>
        <time>2014-06-17T11:23:11Z</time>
      </trkpt>
      <trkpt lat="59.9595123" lon="17.711243">
        <ele>30.4188</ele>
        <time>2014-06-17T11:23:12Z</time>
      </trkpt>
      <trkpt lat="59.9594896" lon="17.7112306">
        <ele>30.4188</ele>
        <time>2014-06-17T11:23:13Z</time>
      </trkpt>
      <trkpt lat="59.9594693" lon="17.7112212">
        <ele>30.4188</ele>
        <time>2014-06-17T11:23:14Z</time>
      </trkpt>
      <trkpt lat="59.9594505" lon="17.7112132">
        <ele>30.4188</ele>
        <time>2014-06-17T11:23:15Z</time>
      </trkpt>
      <trkpt lat="59.9594325" lon="17.7112089">
        <ele>30.8995</ele>
        <time>2014-06-17T11:23:16Z</time>
      </trkpt>
      <trkpt lat="59.959407" lon="17.7112039">
        <ele>30.8995</ele>
        <time>2014-06-17T11:23:17Z</time>
      </trkpt>
      <trkpt lat="59.9593822" lon="17.7111953">
        <ele>30.8995</ele>
        <time>2014-06-17T11:23:18Z</time>
      </trkpt>
      <trkpt lat="59.9593579" lon="17.7111897">
        <ele>30.8995</ele>
        <time>2014-06-17T11:23:19Z</time>
      </trkpt>
      <trkpt lat="59.9593347" lon="17.7111785">
        <ele>31.8607</ele>
        <time>2014-06-17T11:23:20Z</time>
      </trkpt>
      <trkpt lat="59.9593158" lon="17.7111652">
        <ele>32.8223</ele>
        <time>2014-06-17T11:23:21Z</time>
      </trkpt>
      <trkpt lat="59.9592957" lon="17.7111579">
        <ele>32.8223</ele>
        <time>2014-06-17T11:23:22Z</time>
      </trkpt>
      <trkpt lat="59.959277" lon="17.7111454">
        <ele>33.3029</ele>
        <time>2014-06-17T11:23:23Z</time>
      </trkpt>
      <trkpt lat="59.9592568" lon="17.7111361">
        <ele>32.8223</ele>
        <time>2014-06-17T11:23:24Z</time>
      </trkpt>
      <trkpt lat="59.9592349" lon="17.7111278">
        <ele>32.8223</ele>
        <time>2014-06-17T11:23:25Z</time>
      </trkpt>
      <trkpt lat="59.9592112" lon="17.7111233">
        <ele>33.3029</ele>
        <time>2014-06-17T11:23:26Z</time>
      </trkpt>
      <trkpt lat="59.9591888" lon="17.7111134">
        <ele>33.3029</ele>
        <time>2014-06-17T11:23:27Z</time>
      </trkpt>
      <trkpt lat="59.9591665" lon="17.7111046">
        <ele>32.8223</ele>
        <time>2014-06-17T11:23:28Z</time>
      </trkpt>
      <trkpt lat="59.959145" lon="17.7110968">
        <ele>32.8223</ele>
        <time>2014-06-17T11:23:29Z</time>
      </trkpt>
      <trkpt lat="59.9591256" lon="17.7110806">
        <ele>33.7834</ele>
        <time>2014-06-17T11:23:30Z</time>
      </trkpt>
      <trkpt lat="59.9591061" lon="17.7110666">
        <ele>33.7834</ele>
        <time>2014-06-17T11:23:31Z</time>
      </trkpt>
      <trkpt lat="59.9590843" lon="17.7110632">
        <ele>34.2642</ele>
        <time>2014-06-17T11:23:32Z</time>
      </trkpt>
      <trkpt lat="59.959063" lon="17.711056">
        <ele>34.7449</ele>
        <time>2014-06-17T11:23:33Z</time>
      </trkpt>
      <trkpt lat="59.9590435" lon="17.7110471">
        <ele>36.1868</ele>
        <time>2014-06-17T11:23:34Z</time>
      </trkpt>
      <trkpt lat="59.9590232" lon="17.7110409">
        <ele>37.1481</ele>
        <time>2014-06-17T11:23:35Z</time>
      </trkpt>
      <trkpt lat="59.959003" lon="17.7110321">
        <ele>38.1094</ele>
        <time>2014-06-17T11:23:36Z</time>
      </trkpt>
      <trkpt lat="59.9589818" lon="17.7110306">
        <ele>38.5901</ele>
        <time>2014-06-17T11:23:37Z</time>
      </trkpt>
      <trkpt lat="59.9589585" lon="17.7110332">
        <ele>38.1094</ele>
        <time>2014-06-17T11:23:38Z</time>
      </trkpt>
      <trkpt lat="59.9589361" lon="17.7110285">
        <ele>38.1094</ele>
        <time>2014-06-17T11:23:39Z</time>
      </trkpt>
      <trkpt lat="59.9589133" lon="17.7110238">
        <ele>39.0707</ele>
        <time>2014-06-17T11:23:40Z</time>
      </trkpt>
      <trkpt lat="59.958888" lon="17.7110228">
        <ele>40.5128</ele>
        <time>2014-06-17T11:23:41Z</time>
      </trkpt>
      <trkpt lat="59.9588656" lon="17.7110135">
        <ele>40.5128</ele>
        <time>2014-06-17T11:23:42Z</time>
      </trkpt>
      <trkpt lat="59.9588434" lon="17.7110073">
        <ele>41.474</ele>
        <time>2014-06-17T11:23:43Z</time>
      </trkpt>
      <trkpt lat="59.9588212" lon="17.711001">
        <ele>41.474</ele>
        <time>2014-06-17T11:23:44Z</time>
      </trkpt>
      <trkpt lat="59.9587963" lon="17.7109969">
        <ele>41.474</ele>
        <time>2014-06-17T11:23:45Z</time>
      </trkpt>
      <trkpt lat="59.9587725" lon="17.7109886">
        <ele>40.9934</ele>
        <time>2014-06-17T11:23:46Z</time>
      </trkpt>
      <trkpt lat="59.9587485" lon="17.7109871">
        <ele>40.9934</ele>
        <time>2014-06-17T11:23:47Z</time>
      </trkpt>
      <trkpt lat="59.958724" lon="17.7109822">
        <ele>40.0321</ele>
        <time>2014-06-17T11:23:48Z</time>
      </trkpt>
      <trkpt lat="59.9587012" lon="17.7109729">
        <ele>40.5128</ele>
        <time>2014-06-17T11:23:49Z</time>
      </trkpt>
      <trkpt lat="59.9586794" lon="17.710964">
        <ele>40.9934</ele>
        <time>2014-06-17T11:23:50Z</time>
      </trkpt>
      <trkpt lat="59.9586571" lon="17.7109528">
        <ele>40.5128</ele>
        <time>2014-06-17T11:23:51Z</time>
      </trkpt>
      <trkpt lat="59.9586316" lon="17.7109488">
        <ele>40.5128</ele>
        <time>2014-06-17T11:23:52Z</time>
      </trkpt>
      <trkpt lat="59.9586057" lon="17.7109522">
        <ele>40.5128</ele>
        <time>2014-06-17T11:23:53Z</time>
      </trkpt>
      <trkpt lat="59.9585799" lon="17.7109668">
        <ele>40.0321</ele>
        <time>2014-06-17T11:23:54Z</time>
      </trkpt>
      <trkpt lat="59.9585549" lon="17.7109886">
        <ele>40.9934</ele>
        <time>2014-06-17T11:23:55Z</time>
      </trkpt>
      <trkpt lat="59.9585356" lon="17.7110138">
        <ele>41.9547</ele>
        <time>2014-06-17T11:23:56Z</time>
      </trkpt>
      <trkpt lat="59.9585242" lon="17.711045">
        <ele>41.9547</ele>
        <time>2014-06-17T11:23:57Z</time>
      </trkpt>
      <trkpt lat="59.9585151" lon="17.7110974">
        <ele>40.9934</ele>
        <time>2014-06-17T11:23:58Z</time>
      </trkpt>
      <trkpt lat="59.9585048" lon="17.7111501">
        <ele>40.5128</ele>
        <time>2014-06-17T11:23:59Z</time>
      </trkpt>
      <trkpt lat="59.958497" lon="17.711197">
        <ele>40.5128</ele>
        <time>2014-06-17T11:24:00Z</time>
      </trkpt>
      <trkpt lat="59.9584926" lon="17.7112527">
        <ele>40.5128</ele>
        <time>2014-06-17T11:24:01Z</time>
      </trkpt>
      <trkpt lat="59.9584874" lon="17.7113101">
        <ele>39.5513</ele>
        <time>2014-06-17T11:24:02Z</time>
      </trkpt>
      <trkpt lat="59.9584838" lon="17.7113612">
        <ele>39.0707</ele>
        <time>2014-06-17T11:24:03Z</time>
      </trkpt>
      <trkpt lat="59.9584768" lon="17.7114023">
        <ele>38.1094</ele>
        <time>2014-06-17T11:24:04Z</time>
      </trkpt>
      <trkpt lat="59.9584711" lon="17.7114532">
        <ele>37.1481</ele>
        <time>2014-06-17T11:24:05Z</time>
      </trkpt>
      <trkpt lat="59.9584674" lon="17.7115046">
        <ele>36.1868</ele>
        <time>2014-06-17T11:24:06Z</time>
      </trkpt>
      <trkpt lat="59.9584618" lon="17.7115551">
        <ele>35.7061</ele>
        <time>2014-06-17T11:24:07Z</time>
      </trkpt>
      <trkpt lat="59.9584528" lon="17.7116081">
        <ele>36.1868</ele>
        <time>2014-06-17T11:24:08Z</time>
      </trkpt>
      <trkpt lat="59.9584434" lon="17.7116549">
        <ele>35.7061</ele>
        <time>2014-06-17T11:24:09Z</time>
      </trkpt>
      <trkpt lat="59.9584356" lon="17.7117035">
        <ele>34.7449</ele>
        <time>2014-06-17T11:24:10Z</time>
      </trkpt>
      <trkpt lat="59.958428" lon="17.7117552">
        <ele>34.7449</ele>
        <time>2014-06-17T11:24:11Z</time>
      </trkpt>
      <trkpt lat="59.9584196" lon="17.7118076">
        <ele>33.7834</ele>
        <time>2014-06-17T11:24:12Z</time>
      </trkpt>
      <trkpt lat="59.9584115" lon="17.7118608">
        <ele>33.7834</ele>
        <time>2014-06-17T11:24:13Z</time>
      </trkpt>
      <trkpt lat="59.958402" lon="17.7119112">
        <ele>32.8223</ele>
        <time>2014-06-17T11:24:14Z</time>
      </trkpt>
      <trkpt lat="59.9583912" lon="17.7119592">
        <ele>32.3416</ele>
        <time>2014-06-17T11:24:15Z</time>
      </trkpt>
      <trkpt lat="59.9583844" lon="17.7120104">
        <ele>31.3801</ele>
        <time>2014-06-17T11:24:16Z</time>
      </trkpt>
      <trkpt lat="59.9583777" lon="17.7120633">
        <ele>30.4188</ele>
        <time>2014-06-17T11:24:17Z</time>
      </trkpt>
      <trkpt lat="59.9583719" lon="17.7121145">
        <ele>29.9381</ele>
        <time>2014-06-17T11:24:18Z</time>
      </trkpt>
      <trkpt lat="59.9583669" lon="17.7121628">
        <ele>29.9381</ele>
        <time>2014-06-17T11:24:19Z</time>
      </trkpt>
      <trkpt lat="59.9583638" lon="17.7122156">
        <ele>28.9769</ele>
        <time>2014-06-17T11:24:20Z</time>
      </trkpt>
      <trkpt lat="59.9583613" lon="17.7122644">
        <ele>28.9769</ele>
        <time>2014-06-17T11:24:21Z</time>
      </trkpt>
      <trkpt lat="59.9583576" lon="17.7123089">
        <ele>28.9769</ele>
        <time>2014-06-17T11:24:22Z</time>
      </trkpt>
      <trkpt lat="59.9583517" lon="17.712348">
        <ele>28.9769</ele>
        <time>2014-06-17T11:24:23Z</time>
      </trkpt>
      <trkpt lat="59.9583483" lon="17.712387">
        <ele>28.4962</ele>
        <time>2014-06-17T11:24:24Z</time>
      </trkpt>
      <trkpt lat="59.9583462" lon="17.7124363">
        <ele>28.0155</ele>
        <time>2014-06-17T11:24:25Z</time>
      </trkpt>
      <trkpt lat="59.958341" lon="17.7124857">
        <ele>27.5349</ele>
        <time>2014-06-17T11:24:26Z</time>
      </trkpt>
      <trkpt lat="59.9583369" lon="17.7125295">
        <ele>27.5349</ele>
        <time>2014-06-17T11:24:27Z</time>
      </trkpt>
      <trkpt lat="59.9583343" lon="17.7125773">
        <ele>27.0543</ele>
        <time>2014-06-17T11:24:28Z</time>
      </trkpt>
      <trkpt lat="59.9583321" lon="17.7126234">
        <ele>27.0543</ele>
        <time>2014-06-17T11:24:29Z</time>
      </trkpt>
      <trkpt lat="59.9583303" lon="17.712667">
        <ele>27.5349</ele>
        <time>2014-06-17T11:24:30Z</time>
      </trkpt>
      <trkpt lat="59.9583274" lon="17.7127103">
        <ele>26.5736</ele>
        <time>2014-06-17T11:24:31Z</time>
      </trkpt>
      <trkpt lat="59.9583237" lon="17.712759">
        <ele>26.0929</ele>
        <time>2014-06-17T11:24:32Z</time>
      </trkpt>
      <trkpt lat="59.9583232" lon="17.7128063">
        <ele>25.6123</ele>
        <time>2014-06-17T11:24:33Z</time>
      </trkpt>
      <trkpt lat="59.9583235" lon="17.7128602">
        <ele>25.1317</ele>
        <time>2014-06-17T11:24:34Z</time>
      </trkpt>
      <trkpt lat="59.9583222" lon="17.7129123">
        <ele>25.6123</ele>
        <time>2014-06-17T11:24:35Z</time>
      </trkpt>
      <trkpt lat="59.9583214" lon="17.7129572">
        <ele>25.1317</ele>
        <time>2014-06-17T11:24:36Z</time>
      </trkpt>
      <trkpt lat="59.9583235" lon="17.7130021">
        <ele>24.651</ele>
        <time>2014-06-17T11:24:37Z</time>
      </trkpt>
      <trkpt lat="59.9583234" lon="17.7130426">
        <ele>25.1317</ele>
        <time>2014-06-17T11:24:38Z</time>
      </trkpt>
      <trkpt lat="59.9583212" lon="17.7130793">
        <ele>25.6123</ele>
        <time>2014-06-17T11:24:39Z</time>
      </trkpt>
      <trkpt lat="59.9583165" lon="17.7131166">
        <ele>25.1317</ele>
        <time>2014-06-17T11:24:40Z</time>
      </trkpt>
      <trkpt lat="59.9583079" lon="17.7131548">
        <ele>25.1317</ele>
        <time>2014-06-17T11:24:41Z</time>
      </trkpt>
      <trkpt lat="59.9582991" lon="17.7131946">
        <ele>25.1317</ele>
        <time>2014-06-17T11:24:42Z</time>
      </trkpt>
      <trkpt lat="59.9582911" lon="17.7132311">
        <ele>24.1703</ele>
        <time>2014-06-17T11:24:43Z</time>
      </trkpt>
      <trkpt lat="59.9582882" lon="17.7132682">
        <ele>24.1703</ele>
        <time>2014-06-17T11:24:44Z</time>
      </trkpt>
      <trkpt lat="59.9582859" lon="17.7133076">
        <ele>24.651</ele>
        <time>2014-06-17T11:24:45Z</time>
      </trkpt>
      <trkpt lat="59.9582808" lon="17.7133443">
        <ele>25.1317</ele>
        <time>2014-06-17T11:24:46Z</time>
      </trkpt>
      <trkpt lat="59.9582732" lon="17.7133801">
        <ele>25.1317</ele>
        <time>2014-06-17T11:24:47Z</time>
      </trkpt>
      <trkpt lat="59.9582664" lon="17.7134201">
        <ele>23.6896</ele>
        <time>2014-06-17T11:24:48Z</time>
      </trkpt>
      <trkpt lat="59.9582617" lon="17.7134666">
        <ele>23.6896</ele>
        <time>2014-06-17T11:24:49Z</time>
      </trkpt>
      <trkpt lat="59.9582549" lon="17.7135108">
        <ele>23.6896</ele>
        <time>2014-06-17T11:24:50Z</time>
      </trkpt>
      <trkpt lat="59.9582476" lon="17.7135531">
        <ele>24.1703</ele>
        <time>2014-06-17T11:24:51Z</time>
      </trkpt>
      <trkpt lat="59.9582408" lon="17.7136035">
        <ele>25.1317</ele>
        <time>2014-06-17T11:24:52Z</time>
      </trkpt>
      <trkpt lat="59.9582312" lon="17.7136492">
        <ele>26.0929</ele>
        <time>2014-06-17T11:24:53Z</time>
      </trkpt>
      <trkpt lat="59.958224" lon="17.7136924">
        <ele>27.0543</ele>
        <time>2014-06-17T11:24:54Z</time>
      </trkpt>
      <trkpt lat="59.9582163" lon="17.713736">
        <ele>28.0155</ele>
        <time>2014-06-17T11:24:55Z</time>
      </trkpt>
      <trkpt lat="59.9582093" lon="17.7137801">
        <ele>29.4575</ele>
        <time>2014-06-17T11:24:56Z</time>
      </trkpt>
      <trkpt lat="59.9582007" lon="17.7138281">
        <ele>30.4188</ele>
        <time>2014-06-17T11:24:57Z</time>
      </trkpt>
      <trkpt lat="59.9581913" lon="17.7138744">
        <ele>31.8607</ele>
        <time>2014-06-17T11:24:58Z</time>
      </trkpt>
      <trkpt lat="59.958182" lon="17.7139132">
        <ele>32.3416</ele>
        <time>2014-06-17T11:24:59Z</time>
      </trkpt>
      <trkpt lat="59.9581696" lon="17.7139532">
        <ele>33.3029</ele>
        <time>2014-06-17T11:25:00Z</time>
      </trkpt>
      <trkpt lat="59.9581591" lon="17.7140054">
        <ele>33.7834</ele>
        <time>2014-06-17T11:25:01Z</time>
      </trkpt>
      <trkpt lat="59.9581488" lon="17.7140512">
        <ele>34.7449</ele>
        <time>2014-06-17T11:25:02Z</time>
      </trkpt>
      <trkpt lat="59.9581383" lon="17.7140884">
        <ele>35.7061</ele>
        <time>2014-06-17T11:25:03Z</time>
      </trkpt>
      <trkpt lat="59.9581241" lon="17.7141153">
        <ele>35.7061</ele>
        <time>2014-06-17T11:25:04Z</time>
      </trkpt>
      <trkpt lat="59.9581127" lon="17.7141422">
        <ele>37.1481</ele>
        <time>2014-06-17T11:25:05Z</time>
      </trkpt>
      <trkpt lat="59.9581013" lon="17.7141732">
        <ele>37.6287</ele>
        <time>2014-06-17T11:25:06Z</time>
      </trkpt>
      <trkpt lat="59.9580823" lon="17.7142075">
        <ele>38.1094</ele>
        <time>2014-06-17T11:25:07Z</time>
      </trkpt>
      <trkpt lat="59.9580633" lon="17.714241">
        <ele>39.5513</ele>
        <time>2014-06-17T11:25:08Z</time>
      </trkpt>
      <trkpt lat="59.9580472" lon="17.7142738">
        <ele>39.5513</ele>
        <time>2014-06-17T11:25:09Z</time>
      </trkpt>
      <trkpt lat="59.9580282" lon="17.7143114">
        <ele>39.5513</ele>
        <time>2014-06-17T11:25:10Z</time>
      </trkpt>
      <trkpt lat="59.9580134" lon="17.7143596">
        <ele>40.5128</ele>
        <time>2014-06-17T11:25:11Z</time>
      </trkpt>
      <trkpt lat="59.9579953" lon="17.714409">
        <ele>42.4354</ele>
        <time>2014-06-17T11:25:12Z</time>
      </trkpt>
      <trkpt lat="59.9579765" lon="17.7144432">
        <ele>41.9547</ele>
        <time>2014-06-17T11:25:13Z</time>
      </trkpt>
      <trkpt lat="59.9579554" lon="17.7144758">
        <ele>42.4354</ele>
        <time>2014-06-17T11:25:14Z</time>
      </trkpt>
      <trkpt lat="59.957938" lon="17.7145028">
        <ele>43.3966</ele>
        <time>2014-06-17T11:25:15Z</time>
      </trkpt>
      <trkpt lat="59.9579254" lon="17.714541">
        <ele>43.3966</ele>
        <time>2014-06-17T11:25:16Z</time>
      </trkpt>
      <trkpt lat="59.9579085" lon="17.7145831">
        <ele>43.8773</ele>
        <time>2014-06-17T11:25:17Z</time>
      </trkpt>
      <trkpt lat="59.9578867" lon="17.7146126">
        <ele>43.3966</ele>
        <time>2014-06-17T11:25:18Z</time>
      </trkpt>
      <trkpt lat="59.957866" lon="17.7146406">
        <ele>43.8773</ele>
        <time>2014-06-17T11:25:19Z</time>
      </trkpt>
      <trkpt lat="59.9578451" lon="17.7146711">
        <ele>43.8773</ele>
        <time>2014-06-17T11:25:20Z</time>
      </trkpt>
      <trkpt lat="59.9578254" lon="17.7146955">
        <ele>43.8773</ele>
        <time>2014-06-17T11:25:21Z</time>
      </trkpt>
      <trkpt lat="59.9578084" lon="17.7147163">
        <ele>42.916</ele>
        <time>2014-06-17T11:25:22Z</time>
      </trkpt>
      <trkpt lat="59.9577914" lon="17.7147241">
        <ele>42.916</ele>
        <time>2014-06-17T11:25:23Z</time>
      </trkpt>
      <trkpt lat="59.9577702" lon="17.7147315">
        <ele>42.916</ele>
        <time>2014-06-17T11:25:24Z</time>
      </trkpt>
      <trkpt lat="59.9577446" lon="17.7147425">
        <ele>41.9547</ele>
        <time>2014-06-17T11:25:25Z</time>
      </trkpt>
      <trkpt lat="59.9577252" lon="17.7147804">
        <ele>41.474</ele>
        <time>2014-06-17T11:25:26Z</time>
      </trkpt>
      <trkpt lat="59.9577091" lon="17.7148167">
        <ele>41.9547</ele>
        <time>2014-06-17T11:25:27Z</time>
      </trkpt>
      <trkpt lat="59.9576971" lon="17.7148549">
        <ele>42.4354</ele>
        <time>2014-06-17T11:25:28Z</time>
      </trkpt>
      <trkpt lat="59.9576807" lon="17.7148928">
        <ele>41.9547</ele>
        <time>2014-06-17T11:25:29Z</time>
      </trkpt>
      <trkpt lat="59.9576607" lon="17.7149352">
        <ele>42.4354</ele>
        <time>2014-06-17T11:25:30Z</time>
      </trkpt>
      <trkpt lat="59.9576477" lon="17.7149747">
        <ele>42.916</ele>
        <time>2014-06-17T11:25:31Z</time>
      </trkpt>
      <trkpt lat="59.9576391" lon="17.7150147">
        <ele>42.916</ele>
        <time>2014-06-17T11:25:32Z</time>
      </trkpt>
      <trkpt lat="59.9576293" lon="17.7150589">
        <ele>44.8386</ele>
        <time>2014-06-17T11:25:33Z</time>
      </trkpt>
      <trkpt lat="59.9576215" lon="17.7150963">
        <ele>44.358</ele>
        <time>2014-06-17T11:25:34Z</time>
      </trkpt>
      <trkpt lat="59.9576075" lon="17.7151372">
        <ele>43.8773</ele>
        <time>2014-06-17T11:25:35Z</time>
      </trkpt>
      <trkpt lat="59.9575872" lon="17.7151693">
        <ele>43.8773</ele>
        <time>2014-06-17T11:25:36Z</time>
      </trkpt>
      <trkpt lat="59.9575727" lon="17.7152006">
        <ele>43.8773</ele>
        <time>2014-06-17T11:25:37Z</time>
      </trkpt>
      <trkpt lat="59.9575561" lon="17.7152301">
        <ele>43.3966</ele>
        <time>2014-06-17T11:25:38Z</time>
      </trkpt>
      <trkpt lat="59.9575412" lon="17.7152589">
        <ele>42.916</ele>
        <time>2014-06-17T11:25:39Z</time>
      </trkpt>
      <trkpt lat="59.9575268" lon="17.7152855">
        <ele>42.916</ele>
        <time>2014-06-17T11:25:40Z</time>
      </trkpt>
      <trkpt lat="59.9575077" lon="17.715302">
        <ele>42.916</ele>
        <time>2014-06-17T11:25:41Z</time>
      </trkpt>
      <trkpt lat="59.9574882" lon="17.7153302">
        <ele>42.916</ele>
        <time>2014-06-17T11:25:42Z</time>
      </trkpt>
      <trkpt lat="59.9574709" lon="17.7153668">
        <ele>41.9547</ele>
        <time>2014-06-17T11:25:43Z</time>
      </trkpt>
      <trkpt lat="59.9574526" lon="17.715398">
        <ele>41.9547</ele>
        <time>2014-06-17T11:25:44Z</time>
      </trkpt>
      <trkpt lat="59.9574354" lon="17.7154379">
        <ele>41.9547</ele>
        <time>2014-06-17T11:25:45Z</time>
      </trkpt>
      <trkpt lat="59.9574201" lon="17.7154818">
        <ele>41.9547</ele>
        <time>2014-06-17T11:25:46Z</time>
      </trkpt>
      <trkpt lat="59.9574029" lon="17.7155212">
        <ele>41.474</ele>
        <time>2014-06-17T11:25:47Z</time>
      </trkpt>
      <trkpt lat="59.9573863" lon="17.7155583">
        <ele>40.9934</ele>
        <time>2014-06-17T11:25:48Z</time>
      </trkpt>
      <trkpt lat="59.9573702" lon="17.7155897">
        <ele>40.5128</ele>
        <time>2014-06-17T11:25:49Z</time>
      </trkpt>
      <trkpt lat="59.9573526" lon="17.7156208">
        <ele>41.9547</ele>
        <time>2014-06-17T11:25:50Z</time>
      </trkpt>
      <trkpt lat="59.9573338" lon="17.715647">
        <ele>43.3966</ele>
        <time>2014-06-17T11:25:51Z</time>
      </trkpt>
      <trkpt lat="59.9573134" lon="17.71567">
        <ele>42.916</ele>
        <time>2014-06-17T11:25:52Z</time>
      </trkpt>
      <trkpt lat="59.9572921" lon="17.7156963">
        <ele>42.4354</ele>
        <time>2014-06-17T11:25:53Z</time>
      </trkpt>
      <trkpt lat="59.9572755" lon="17.7157211">
        <ele>42.4354</ele>
        <time>2014-06-17T11:25:54Z</time>
      </trkpt>
      <trkpt lat="59.9572621" lon="17.7157412">
        <ele>42.4354</ele>
        <time>2014-06-17T11:25:55Z</time>
      </trkpt>
      <trkpt lat="59.9572469" lon="17.7157636">
        <ele>42.916</ele>
        <time>2014-06-17T11:25:56Z</time>
      </trkpt>
      <trkpt lat="59.957231" lon="17.7157878">
        <ele>42.916</ele>
        <time>2014-06-17T11:25:57Z</time>
      </trkpt>
      <trkpt lat="59.9572159" lon="17.7158142">
        <ele>42.916</ele>
        <time>2014-06-17T11:25:58Z</time>
      </trkpt>
      <trkpt lat="59.9571969" lon="17.7158424">
        <ele>43.3966</ele>
        <time>2014-06-17T11:25:59Z</time>
      </trkpt>
      <trkpt lat="59.9571781" lon="17.7158737">
        <ele>43.8773</ele>
        <time>2014-06-17T11:26:00Z</time>
      </trkpt>
      <trkpt lat="59.957161" lon="17.7159057">
        <ele>44.358</ele>
        <time>2014-06-17T11:26:01Z</time>
      </trkpt>
      <trkpt lat="59.9571445" lon="17.7159344">
        <ele>44.8386</ele>
        <time>2014-06-17T11:26:02Z</time>
      </trkpt>
      <trkpt lat="59.95713" lon="17.7159589">
        <ele>44.8386</ele>
        <time>2014-06-17T11:26:03Z</time>
      </trkpt>
      <trkpt lat="59.9571138" lon="17.7159904">
        <ele>43.8773</ele>
        <time>2014-06-17T11:26:04Z</time>
      </trkpt>
      <trkpt lat="59.9570955" lon="17.7160216">
        <ele>43.3966</ele>
        <time>2014-06-17T11:26:05Z</time>
      </trkpt>
      <trkpt lat="59.9570802" lon="17.7160521">
        <ele>42.916</ele>
        <time>2014-06-17T11:26:06Z</time>
      </trkpt>
      <trkpt lat="59.9570616" lon="17.7160887">
        <ele>41.9547</ele>
        <time>2014-06-17T11:26:07Z</time>
      </trkpt>
      <trkpt lat="59.9570408" lon="17.7161221">
        <ele>42.4354</ele>
        <time>2014-06-17T11:26:08Z</time>
      </trkpt>
      <trkpt lat="59.9570226" lon="17.7161495">
        <ele>42.916</ele>
        <time>2014-06-17T11:26:09Z</time>
      </trkpt>
      <trkpt lat="59.957009" lon="17.7161825">
        <ele>43.3966</ele>
        <time>2014-06-17T11:26:10Z</time>
      </trkpt>
      <trkpt lat="59.9569937" lon="17.7162164">
        <ele>43.8773</ele>
        <time>2014-06-17T11:26:11Z</time>
      </trkpt>
      <trkpt lat="59.9569777" lon="17.7162437">
        <ele>43.8773</ele>
        <time>2014-06-17T11:26:12Z</time>
      </trkpt>
      <trkpt lat="59.9569595" lon="17.7162713">
        <ele>44.358</ele>
        <time>2014-06-17T11:26:13Z</time>
      </trkpt>
      <trkpt lat="59.9569429" lon="17.7162993">
        <ele>44.8386</ele>
        <time>2014-06-17T11:26:14Z</time>
      </trkpt>
      <trkpt lat="59.9569278" lon="17.7163278">
        <ele>43.8773</ele>
        <time>2014-06-17T11:26:15Z</time>
      </trkpt>
      <trkpt lat="59.9569108" lon="17.7163638">
        <ele>43.8773</ele>
        <time>2014-06-17T11:26:16Z</time>
      </trkpt>
      <trkpt lat="59.9568973" lon="17.7163998">
        <ele>43.3966</ele>
        <time>2014-06-17T11:26:17Z</time>
      </trkpt>
      <trkpt lat="59.9568844" lon="17.7164313">
        <ele>42.916</ele>
        <time>2014-06-17T11:26:18Z</time>
      </trkpt>
      <trkpt lat="59.9568657" lon="17.7164572">
        <ele>42.916</ele>
        <time>2014-06-17T11:26:19Z</time>
      </trkpt>
      <trkpt lat="59.9568517" lon="17.7164869">
        <ele>43.3966</ele>
        <time>2014-06-17T11:26:20Z</time>
      </trkpt>
      <trkpt lat="59.9568358" lon="17.7165136">
        <ele>43.3966</ele>
        <time>2014-06-17T11:26:21Z</time>
      </trkpt>
      <trkpt lat="59.9568168" lon="17.716543">
        <ele>43.8773</ele>
        <time>2014-06-17T11:26:22Z</time>
      </trkpt>
      <trkpt lat="59.9567983" lon="17.7165682">
        <ele>43.3966</ele>
        <time>2014-06-17T11:26:23Z</time>
      </trkpt>
      <trkpt lat="59.9567808" lon="17.7166044">
        <ele>43.8773</ele>
        <time>2014-06-17T11:26:24Z</time>
      </trkpt>
      <trkpt lat="59.9567689" lon="17.716641">
        <ele>44.358</ele>
        <time>2014-06-17T11:26:25Z</time>
      </trkpt>
      <trkpt lat="59.956757" lon="17.716678">
        <ele>43.8773</ele>
        <time>2014-06-17T11:26:26Z</time>
      </trkpt>
      <trkpt lat="59.9567409" lon="17.7167229">
        <ele>44.358</ele>
        <time>2014-06-17T11:26:27Z</time>
      </trkpt>
      <trkpt lat="59.9567258" lon="17.716766">
        <ele>44.8386</ele>
        <time>2014-06-17T11:26:28Z</time>
      </trkpt>
      <trkpt lat="59.9567093" lon="17.7168048">
        <ele>43.8773</ele>
        <time>2014-06-17T11:26:29Z</time>
      </trkpt>
      <trkpt lat="59.9566896" lon="17.7168372">
        <ele>45.7999</ele>
        <time>2014-06-17T11:26:30Z</time>
      </trkpt>
      <trkpt lat="59.9566715" lon="17.7168678">
        <ele>46.7612</ele>
        <time>2014-06-17T11:26:31Z</time>
      </trkpt>
      <trkpt lat="59.9566573" lon="17.7168878">
        <ele>46.2806</ele>
        <time>2014-06-17T11:26:32Z</time>
      </trkpt>
      <trkpt lat="59.9566405" lon="17.7169025">
        <ele>47.7225</ele>
        <time>2014-06-17T11:26:33Z</time>
      </trkpt>
      <trkpt lat="59.9566228" lon="17.7169031">
        <ele>47.7225</ele>
        <time>2014-06-17T11:26:34Z</time>
      </trkpt>
      <trkpt lat="59.9566034" lon="17.7168815">
        <ele>47.7225</ele>
        <time>2014-06-17T11:26:35Z</time>
      </trkpt>
      <trkpt lat="59.9565837" lon="17.7168426">
        <ele>46.7612</ele>
        <time>2014-06-17T11:26:36Z</time>
      </trkpt>
      <trkpt lat="59.956567" lon="17.7168023">
        <ele>45.7999</ele>
        <time>2014-06-17T11:26:37Z</time>
      </trkpt>
      <trkpt lat="59.9565519" lon="17.7167581">
        <ele>45.3192</ele>
        <time>2014-06-17T11:26:38Z</time>
      </trkpt>
      <trkpt lat="59.9565343" lon="17.7167173">
        <ele>46.2806</ele>
        <time>2014-06-17T11:26:39Z</time>
      </trkpt>
      <trkpt lat="59.9565141" lon="17.7166834">
        <ele>45.7999</ele>
        <time>2014-06-17T11:26:40Z</time>
      </trkpt>
      <trkpt lat="59.9564975" lon="17.7166478">
        <ele>46.2806</ele>
        <time>2014-06-17T11:26:41Z</time>
      </trkpt>
      <trkpt lat="59.9564745" lon="17.7165934">
        <ele>45.7999</ele>
        <time>2014-06-17T11:26:42Z</time>
      </trkpt>
      <trkpt lat="59.9564507" lon="17.7165611">
        <ele>44.8386</ele>
        <time>2014-06-17T11:26:43Z</time>
      </trkpt>
      <trkpt lat="59.9564349" lon="17.7165384">
        <ele>46.2806</ele>
        <time>2014-06-17T11:26:44Z</time>
      </trkpt>
      <trkpt lat="59.956419" lon="17.71651">
        <ele>47.2418</ele>
        <time>2014-06-17T11:26:45Z</time>
      </trkpt>
      <trkpt lat="59.9564016" lon="17.7164847">
        <ele>46.7612</ele>
        <time>2014-06-17T11:26:46Z</time>
      </trkpt>
      <trkpt lat="59.9563792" lon="17.7164575">
        <ele>45.7999</ele>
        <time>2014-06-17T11:26:47Z</time>
      </trkpt>
      <trkpt lat="59.9563699" lon="17.7164461">
        <ele>46.7612</ele>
        <time>2014-06-17T11:26:48Z</time>
      </trkpt>
      <trkpt lat="59.9563554" lon="17.7164303">
        <ele>46.2806</ele>
        <time>2014-06-17T11:26:49Z</time>
      </trkpt>
      <trkpt lat="59.9563378" lon="17.7164195">
        <ele>46.2806</ele>
        <time>2014-06-17T11:26:50Z</time>
      </trkpt>
      <trkpt lat="59.9563255" lon="17.7164049">
        <ele>46.7612</ele>
        <time>2014-06-17T11:26:51Z</time>
      </trkpt>
      <trkpt lat="59.9563149" lon="17.7163801">
        <ele>47.2418</ele>
        <time>2014-06-17T11:26:52Z</time>
      </trkpt>
      <trkpt lat="59.9562993" lon="17.7163519">
        <ele>47.2418</ele>
        <time>2014-06-17T11:26:53Z</time>
      </trkpt>
      <trkpt lat="59.9562844" lon="17.7163229">
        <ele>47.2418</ele>
        <time>2014-06-17T11:26:54Z</time>
      </trkpt>
      <trkpt lat="59.9562794" lon="17.716297">
        <ele>47.7225</ele>
        <time>2014-06-17T11:26:55Z</time>
      </trkpt>
      <trkpt lat="59.9562672" lon="17.7162594">
        <ele>47.2418</ele>
        <time>2014-06-17T11:26:56Z</time>
      </trkpt>
      <trkpt lat="59.9562586" lon="17.7162253">
        <ele>47.7225</ele>
        <time>2014-06-17T11:26:57Z</time>
      </trkpt>
      <trkpt lat="59.9562481" lon="17.7161944">
        <ele>48.684</ele>
        <time>2014-06-17T11:26:58Z</time>
      </trkpt>
      <trkpt lat="59.9562404" lon="17.7161602">
        <ele>49.6453</ele>
        <time>2014-06-17T11:26:59Z</time>
      </trkpt>
      <trkpt lat="59.9562254" lon="17.7161196">
        <ele>48.684</ele>
        <time>2014-06-17T11:27:00Z</time>
      </trkpt>
      <trkpt lat="59.9562181" lon="17.7160878">
        <ele>49.6453</ele>
        <time>2014-06-17T11:27:01Z</time>
      </trkpt>
      <trkpt lat="59.9562048" lon="17.7160574">
        <ele>50.126</ele>
        <time>2014-06-17T11:27:02Z</time>
      </trkpt>
      <trkpt lat="59.9561926" lon="17.7160194">
        <ele>49.6453</ele>
        <time>2014-06-17T11:27:03Z</time>
      </trkpt>
      <trkpt lat="59.9561855" lon="17.7159787">
        <ele>49.6453</ele>
        <time>2014-06-17T11:27:04Z</time>
      </trkpt>
      <trkpt lat="59.9561784" lon="17.7159444">
        <ele>50.6066</ele>
        <time>2014-06-17T11:27:05Z</time>
      </trkpt>
      <trkpt lat="59.9561698" lon="17.7159054">
        <ele>50.6066</ele>
        <time>2014-06-17T11:27:06Z</time>
      </trkpt>
      <trkpt lat="59.9561663" lon="17.7158734">
        <ele>51.5679</ele>
        <time>2014-06-17T11:27:07Z</time>
      </trkpt>
      <trkpt lat="59.9561632" lon="17.7158439">
        <ele>53.4905</ele>
        <time>2014-06-17T11:27:08Z</time>
      </trkpt>
      <trkpt lat="59.956158" lon="17.715818">
        <ele>55.4131</ele>
        <time>2014-06-17T11:27:09Z</time>
      </trkpt>
      <trkpt lat="59.9561544" lon="17.7157961">
        <ele>56.8551</ele>
        <time>2014-06-17T11:27:10Z</time>
      </trkpt>
      <trkpt lat="59.9561498" lon="17.7157746">
        <ele>57.3358</ele>
        <time>2014-06-17T11:27:11Z</time>
      </trkpt>
      <trkpt lat="59.9561292" lon="17.7157316">
        <ele>56.3745</ele>
        <time>2014-06-17T11:27:12Z</time>
      </trkpt>
      <trkpt lat="59.9561098" lon="17.7156932">
        <ele>54.4518</ele>
        <time>2014-06-17T11:27:13Z</time>
      </trkpt>
      <trkpt lat="59.9560904" lon="17.7156557">
        <ele>53.0098</ele>
        <time>2014-06-17T11:27:14Z</time>
      </trkpt>
      <trkpt lat="59.9560728" lon="17.7156262">
        <ele>52.5292</ele>
        <time>2014-06-17T11:27:15Z</time>
      </trkpt>
      <trkpt lat="59.9560567" lon="17.7155869">
        <ele>53.0098</ele>
        <time>2014-06-17T11:27:16Z</time>
      </trkpt>
      <trkpt lat="59.956044" lon="17.7155558">
        <ele>53.0098</ele>
        <time>2014-06-17T11:27:17Z</time>
      </trkpt>
      <trkpt lat="59.9560245" lon="17.7155264">
        <ele>53.0098</ele>
        <time>2014-06-17T11:27:18Z</time>
      </trkpt>
      <trkpt lat="59.9560083" lon="17.7154988">
        <ele>53.0098</ele>
        <time>2014-06-17T11:27:19Z</time>
      </trkpt>
      <trkpt lat="59.9559922" lon="17.715464">
        <ele>53.4905</ele>
        <time>2014-06-17T11:27:20Z</time>
      </trkpt>
      <trkpt lat="59.9559623" lon="17.7154096">
        <ele>52.0486</ele>
        <time>2014-06-17T11:27:21Z</time>
      </trkpt>
      <trkpt lat="59.9559324" lon="17.7153524">
        <ele>49.6453</ele>
        <time>2014-06-17T11:27:22Z</time>
      </trkpt>
      <trkpt lat="59.9559117" lon="17.7153129">
        <ele>48.684</ele>
        <time>2014-06-17T11:27:23Z</time>
      </trkpt>
      <trkpt lat="59.9558881" lon="17.7152741">
        <ele>47.7225</ele>
        <time>2014-06-17T11:27:24Z</time>
      </trkpt>
      <trkpt lat="59.9558673" lon="17.7152404">
        <ele>47.7225</ele>
        <time>2014-06-17T11:27:25Z</time>
      </trkpt>
      <trkpt lat="59.9558494" lon="17.7152043">
        <ele>47.2418</ele>
        <time>2014-06-17T11:27:26Z</time>
      </trkpt>
      <trkpt lat="59.9558352" lon="17.7151715">
        <ele>46.7612</ele>
        <time>2014-06-17T11:27:27Z</time>
      </trkpt>
      <trkpt lat="59.9558183" lon="17.7151356">
        <ele>46.7612</ele>
        <time>2014-06-17T11:27:28Z</time>
      </trkpt>
      <trkpt lat="59.9558002" lon="17.7151043">
        <ele>46.7612</ele>
        <time>2014-06-17T11:27:29Z</time>
      </trkpt>
      <trkpt lat="59.955782" lon="17.71508">
        <ele>46.2806</ele>
        <time>2014-06-17T11:27:30Z</time>
      </trkpt>
      <trkpt lat="59.9557655" lon="17.7150582">
        <ele>45.7999</ele>
        <time>2014-06-17T11:27:31Z</time>
      </trkpt>
      <trkpt lat="59.9557492" lon="17.7150286">
        <ele>46.2806</ele>
        <time>2014-06-17T11:27:32Z</time>
      </trkpt>
      <trkpt lat="59.9557292" lon="17.714996">
        <ele>45.3192</ele>
        <time>2014-06-17T11:27:33Z</time>
      </trkpt>
      <trkpt lat="59.9557102" lon="17.7149556">
        <ele>44.8386</ele>
        <time>2014-06-17T11:27:34Z</time>
      </trkpt>
      <trkpt lat="59.9556965" lon="17.7149163">
        <ele>44.358</ele>
        <time>2014-06-17T11:27:35Z</time>
      </trkpt>
      <trkpt lat="59.955683" lon="17.7148803">
        <ele>44.358</ele>
        <time>2014-06-17T11:27:36Z</time>
      </trkpt>
      <trkpt lat="59.9556705" lon="17.7148398">
        <ele>44.358</ele>
        <time>2014-06-17T11:27:37Z</time>
      </trkpt>
      <trkpt lat="59.9556573" lon="17.7148032">
        <ele>44.358</ele>
        <time>2014-06-17T11:27:38Z</time>
      </trkpt>
      <trkpt lat="59.9556432" lon="17.7147642">
        <ele>43.3966</ele>
        <time>2014-06-17T11:27:39Z</time>
      </trkpt>
      <trkpt lat="59.9556299" lon="17.7147222">
        <ele>42.916</ele>
        <time>2014-06-17T11:27:40Z</time>
      </trkpt>
      <trkpt lat="59.9556162" lon="17.7146799">
        <ele>42.4354</ele>
        <time>2014-06-17T11:27:41Z</time>
      </trkpt>
      <trkpt lat="59.9556062" lon="17.7146318">
        <ele>42.4354</ele>
        <time>2014-06-17T11:27:42Z</time>
      </trkpt>
      <trkpt lat="59.9556024" lon="17.7145873">
        <ele>43.3966</ele>
        <time>2014-06-17T11:27:43Z</time>
      </trkpt>
      <trkpt lat="59.955599" lon="17.7145412">
        <ele>43.8773</ele>
        <time>2014-06-17T11:27:44Z</time>
      </trkpt>
      <trkpt lat="59.9555935" lon="17.7145006">
        <ele>44.8386</ele>
        <time>2014-06-17T11:27:45Z</time>
      </trkpt>
      <trkpt lat="59.9555857" lon="17.7144642">
        <ele>45.3192</ele>
        <time>2014-06-17T11:27:46Z</time>
      </trkpt>
      <trkpt lat="59.9555803" lon="17.7144234">
        <ele>46.2806</ele>
        <time>2014-06-17T11:27:47Z</time>
      </trkpt>
      <trkpt lat="59.9555758" lon="17.7143838">
        <ele>46.7612</ele>
        <time>2014-06-17T11:27:48Z</time>
      </trkpt>
      <trkpt lat="59.9555726" lon="17.7143417">
        <ele>48.2034</ele>
        <time>2014-06-17T11:27:49Z</time>
      </trkpt>
      <trkpt lat="59.9555702" lon="17.7142996">
        <ele>48.2034</ele>
        <time>2014-06-17T11:27:50Z</time>
      </trkpt>
      <trkpt lat="59.955567" lon="17.7142577">
        <ele>48.2034</ele>
        <time>2014-06-17T11:27:51Z</time>
      </trkpt>
      <trkpt lat="59.9555634" lon="17.7142147">
        <ele>48.2034</ele>
        <time>2014-06-17T11:27:52Z</time>
      </trkpt>
      <trkpt lat="59.9555624" lon="17.7141749">
        <ele>48.684</ele>
        <time>2014-06-17T11:27:53Z</time>
      </trkpt>
      <trkpt lat="59.9555635" lon="17.7141405">
        <ele>49.1646</ele>
        <time>2014-06-17T11:27:54Z</time>
      </trkpt>
      <trkpt lat="59.9555593" lon="17.7141016">
        <ele>49.1646</ele>
        <time>2014-06-17T11:27:55Z</time>
      </trkpt>
      <trkpt lat="59.9555541" lon="17.7140568">
        <ele>50.126</ele>
        <time>2014-06-17T11:27:56Z</time>
      </trkpt>
      <trkpt lat="59.9555422" lon="17.7140182">
        <ele>49.6453</ele>
        <time>2014-06-17T11:27:57Z</time>
      </trkpt>
      <trkpt lat="59.9555131" lon="17.7139771">
        <ele>47.7225</ele>
        <time>2014-06-17T11:27:58Z</time>
      </trkpt>
      <trkpt lat="59.9554851" lon="17.7139506">
        <ele>46.2806</ele>
        <time>2014-06-17T11:27:59Z</time>
      </trkpt>
      <trkpt lat="59.9554595" lon="17.7139309">
        <ele>45.3192</ele>
        <time>2014-06-17T11:28:00Z</time>
      </trkpt>
      <trkpt lat="59.9554349" lon="17.7139227">
        <ele>45.7999</ele>
        <time>2014-06-17T11:28:01Z</time>
      </trkpt>
      <trkpt lat="59.9554082" lon="17.7139245">
        <ele>45.7999</ele>
        <time>2014-06-17T11:28:02Z</time>
      </trkpt>
      <trkpt lat="59.9553811" lon="17.7139253">
        <ele>46.2806</ele>
        <time>2014-06-17T11:28:03Z</time>
      </trkpt>
      <trkpt lat="59.9553572" lon="17.7139291">
        <ele>45.3192</ele>
        <time>2014-06-17T11:28:04Z</time>
      </trkpt>
      <trkpt lat="59.9553366" lon="17.7139454">
        <ele>45.3192</ele>
        <time>2014-06-17T11:28:05Z</time>
      </trkpt>
      <trkpt lat="59.9553149" lon="17.7139706">
        <ele>45.3192</ele>
        <time>2014-06-17T11:28:06Z</time>
      </trkpt>
      <trkpt lat="59.9552937" lon="17.713998">
        <ele>44.8386</ele>
        <time>2014-06-17T11:28:07Z</time>
      </trkpt>
      <trkpt lat="59.955274" lon="17.7140289">
        <ele>44.8386</ele>
        <time>2014-06-17T11:28:08Z</time>
      </trkpt>
      <trkpt lat="59.9552542" lon="17.7140595">
        <ele>43.3966</ele>
        <time>2014-06-17T11:28:09Z</time>
      </trkpt>
      <trkpt lat="59.955234" lon="17.714089">
        <ele>43.8773</ele>
        <time>2014-06-17T11:28:10Z</time>
      </trkpt>
      <trkpt lat="59.9552188" lon="17.7141139">
        <ele>43.8773</ele>
        <time>2014-06-17T11:28:11Z</time>
      </trkpt>
      <trkpt lat="59.955205" lon="17.7141384">
        <ele>44.358</ele>
        <time>2014-06-17T11:28:12Z</time>
      </trkpt>
      <trkpt lat="59.9551896" lon="17.7141696">
        <ele>45.7999</ele>
        <time>2014-06-17T11:28:13Z</time>
      </trkpt>
      <trkpt lat="59.9551739" lon="17.7141966">
        <ele>46.7612</ele>
        <time>2014-06-17T11:28:14Z</time>
      </trkpt>
      <trkpt lat="59.9551619" lon="17.7142261">
        <ele>46.7612</ele>
        <time>2014-06-17T11:28:15Z</time>
      </trkpt>
      <trkpt lat="59.9551533" lon="17.7142548">
        <ele>46.2806</ele>
        <time>2014-06-17T11:28:16Z</time>
      </trkpt>
      <trkpt lat="59.9551409" lon="17.7142857">
        <ele>45.7999</ele>
        <time>2014-06-17T11:28:17Z</time>
      </trkpt>
      <trkpt lat="59.9551268" lon="17.7143216">
        <ele>46.7612</ele>
        <time>2014-06-17T11:28:18Z</time>
      </trkpt>
      <trkpt lat="59.9551085" lon="17.7143504">
        <ele>46.7612</ele>
        <time>2014-06-17T11:28:19Z</time>
      </trkpt>
      <trkpt lat="59.9550839" lon="17.7143842">
        <ele>47.2418</ele>
        <time>2014-06-17T11:28:20Z</time>
      </trkpt>
      <trkpt lat="59.9550615" lon="17.7144194">
        <ele>47.7225</ele>
        <time>2014-06-17T11:28:21Z</time>
      </trkpt>
      <trkpt lat="59.9550423" lon="17.7144531">
        <ele>47.7225</ele>
        <time>2014-06-17T11:28:22Z</time>
      </trkpt>
      <trkpt lat="59.9550216" lon="17.7144794">
        <ele>47.2418</ele>
        <time>2014-06-17T11:28:23Z</time>
      </trkpt>
      <trkpt lat="59.9550018" lon="17.7145059">
        <ele>46.7612</ele>
        <time>2014-06-17T11:28:24Z</time>
      </trkpt>
      <trkpt lat="59.954982" lon="17.7145391">
        <ele>45.7999</ele>
        <time>2014-06-17T11:28:25Z</time>
      </trkpt>
      <trkpt lat="59.9549591" lon="17.7145655">
        <ele>46.2806</ele>
        <time>2014-06-17T11:28:26Z</time>
      </trkpt>
      <trkpt lat="59.9549416" lon="17.714593">
        <ele>46.7612</ele>
        <time>2014-06-17T11:28:27Z</time>
      </trkpt>
      <trkpt lat="59.9549195" lon="17.7146243">
        <ele>45.7999</ele>
        <time>2014-06-17T11:28:28Z</time>
      </trkpt>
      <trkpt lat="59.9549009" lon="17.7146622">
        <ele>46.2806</ele>
        <time>2014-06-17T11:28:29Z</time>
      </trkpt>
      <trkpt lat="59.9548844" lon="17.7146924">
        <ele>46.7612</ele>
        <time>2014-06-17T11:28:30Z</time>
      </trkpt>
      <trkpt lat="59.9548667" lon="17.7147172">
        <ele>46.7612</ele>
        <time>2014-06-17T11:28:31Z</time>
      </trkpt>
      <trkpt lat="59.9548486" lon="17.7147388">
        <ele>47.2418</ele>
        <time>2014-06-17T11:28:32Z</time>
      </trkpt>
      <trkpt lat="59.9548321" lon="17.7147608">
        <ele>47.2418</ele>
        <time>2014-06-17T11:28:33Z</time>
      </trkpt>
      <trkpt lat="59.9548152" lon="17.7147814">
        <ele>46.7612</ele>
        <time>2014-06-17T11:28:34Z</time>
      </trkpt>
      <trkpt lat="59.9547959" lon="17.7148033">
        <ele>47.2418</ele>
        <time>2014-06-17T11:28:35Z</time>
      </trkpt>
      <trkpt lat="59.9547781" lon="17.7148333">
        <ele>46.2806</ele>
        <time>2014-06-17T11:28:36Z</time>
      </trkpt>
      <trkpt lat="59.9547655" lon="17.7148732">
        <ele>46.7612</ele>
        <time>2014-06-17T11:28:37Z</time>
      </trkpt>
      <trkpt lat="59.954758" lon="17.7149141">
        <ele>46.7612</ele>
        <time>2014-06-17T11:28:38Z</time>
      </trkpt>
      <trkpt lat="59.9547472" lon="17.7149488">
        <ele>48.2034</ele>
        <time>2014-06-17T11:28:39Z</time>
      </trkpt>
      <trkpt lat="59.9547372" lon="17.7149876">
        <ele>47.7225</ele>
        <time>2014-06-17T11:28:40Z</time>
      </trkpt>
      <trkpt lat="59.9547222" lon="17.7150295">
        <ele>47.2418</ele>
        <time>2014-06-17T11:28:41Z</time>
      </trkpt>
      <trkpt lat="59.9547096" lon="17.7150746">
        <ele>48.2034</ele>
        <time>2014-06-17T11:28:42Z</time>
      </trkpt>
      <trkpt lat="59.9546968" lon="17.7151161">
        <ele>48.684</ele>
        <time>2014-06-17T11:28:43Z</time>
      </trkpt>
      <trkpt lat="59.9546848" lon="17.7151596">
        <ele>49.1646</ele>
        <time>2014-06-17T11:28:44Z</time>
      </trkpt>
      <trkpt lat="59.9546709" lon="17.7152019">
        <ele>50.126</ele>
        <time>2014-06-17T11:28:45Z</time>
      </trkpt>
      <trkpt lat="59.9546616" lon="17.7152464">
        <ele>50.6066</ele>
        <time>2014-06-17T11:28:46Z</time>
      </trkpt>
      <trkpt lat="59.9546527" lon="17.7152915">
        <ele>50.6066</ele>
        <time>2014-06-17T11:28:47Z</time>
      </trkpt>
      <trkpt lat="59.9546491" lon="17.7153321">
        <ele>50.6066</ele>
        <time>2014-06-17T11:28:48Z</time>
      </trkpt>
      <trkpt lat="59.9546461" lon="17.7153723">
        <ele>50.6066</ele>
        <time>2014-06-17T11:28:49Z</time>
      </trkpt>
      <trkpt lat="59.9546399" lon="17.7154124">
        <ele>50.6066</ele>
        <time>2014-06-17T11:28:50Z</time>
      </trkpt>
      <trkpt lat="59.9546374" lon="17.715449">
        <ele>50.6066</ele>
        <time>2014-06-17T11:28:51Z</time>
      </trkpt>
      <trkpt lat="59.9546357" lon="17.7154863">
        <ele>51.5679</ele>
        <time>2014-06-17T11:28:52Z</time>
      </trkpt>
      <trkpt lat="59.95463" lon="17.7155236">
        <ele>52.0486</ele>
        <time>2014-06-17T11:28:53Z</time>
      </trkpt>
      <trkpt lat="59.9546259" lon="17.7155653">
        <ele>53.4905</ele>
        <time>2014-06-17T11:28:54Z</time>
      </trkpt>
      <trkpt lat="59.9546227" lon="17.7156094">
        <ele>52.5292</ele>
        <time>2014-06-17T11:28:55Z</time>
      </trkpt>
      <trkpt lat="59.9546189" lon="17.7156546">
        <ele>48.2034</ele>
        <time>2014-06-17T11:28:56Z</time>
      </trkpt>
      <trkpt lat="59.954613" lon="17.7157003">
        <ele>46.2806</ele>
        <time>2014-06-17T11:28:57Z</time>
      </trkpt>
      <trkpt lat="59.9546067" lon="17.715747">
        <ele>46.7612</ele>
        <time>2014-06-17T11:28:58Z</time>
      </trkpt>
      <trkpt lat="59.9546065" lon="17.7157992">
        <ele>45.7999</ele>
        <time>2014-06-17T11:28:59Z</time>
      </trkpt>
      <trkpt lat="59.9546081" lon="17.7158515">
        <ele>43.8773</ele>
        <time>2014-06-17T11:29:00Z</time>
      </trkpt>
      <trkpt lat="59.9546088" lon="17.7158978">
        <ele>41.9547</ele>
        <time>2014-06-17T11:29:01Z</time>
      </trkpt>
      <trkpt lat="59.9546087" lon="17.7159523">
        <ele>39.5513</ele>
        <time>2014-06-17T11:29:02Z</time>
      </trkpt>
      <trkpt lat="59.954602" lon="17.716008">
        <ele>36.6675</ele>
        <time>2014-06-17T11:29:03Z</time>
      </trkpt>
      <trkpt lat="59.9545994" lon="17.7160543">
        <ele>35.7061</ele>
        <time>2014-06-17T11:29:04Z</time>
      </trkpt>
      <trkpt lat="59.9545994" lon="17.7160983">
        <ele>34.7449</ele>
        <time>2014-06-17T11:29:05Z</time>
      </trkpt>
      <trkpt lat="59.9546003" lon="17.7161419">
        <ele>32.3416</ele>
        <time>2014-06-17T11:29:06Z</time>
      </trkpt>
      <trkpt lat="59.9545967" lon="17.7161817">
        <ele>30.4188</ele>
        <time>2014-06-17T11:29:07Z</time>
      </trkpt>
      <trkpt lat="59.9545954" lon="17.7162204">
        <ele>29.4575</ele>
        <time>2014-06-17T11:29:08Z</time>
      </trkpt>
      <trkpt lat="59.954588" lon="17.7162612">
        <ele>28.4962</ele>
        <time>2014-06-17T11:29:09Z</time>
      </trkpt>
      <trkpt lat="59.9545839" lon="17.7162981">
        <ele>26.0929</ele>
        <time>2014-06-17T11:29:10Z</time>
      </trkpt>
      <trkpt lat="59.9545772" lon="17.7163324">
        <ele>25.6123</ele>
        <time>2014-06-17T11:29:11Z</time>
      </trkpt>
      <trkpt lat="59.9545724" lon="17.7163759">
        <ele>25.1317</ele>
        <time>2014-06-17T11:29:12Z</time>
      </trkpt>
      <trkpt lat="59.9545688" lon="17.7164153">
        <ele>23.6896</ele>
        <time>2014-06-17T11:29:13Z</time>
      </trkpt>
      <trkpt lat="59.9545633" lon="17.7164552">
        <ele>23.209</ele>
        <time>2014-06-17T11:29:14Z</time>
      </trkpt>
      <trkpt lat="59.9545565" lon="17.7164912">
        <ele>22.2476</ele>
        <time>2014-06-17T11:29:15Z</time>
      </trkpt>
      <trkpt lat="59.9545502" lon="17.7165312">
        <ele>25.1317</ele>
        <time>2014-06-17T11:29:16Z</time>
      </trkpt>
      <trkpt lat="59.9545378" lon="17.7165649">
        <ele>27.0543</ele>
        <time>2014-06-17T11:29:17Z</time>
      </trkpt>
      <trkpt lat="59.9545304" lon="17.7166012">
        <ele>28.4962</ele>
        <time>2014-06-17T11:29:18Z</time>
      </trkpt>
      <trkpt lat="59.9545252" lon="17.716651">
        <ele>30.4188</ele>
        <time>2014-06-17T11:29:19Z</time>
      </trkpt>
      <trkpt lat="59.9545193" lon="17.7167038">
        <ele>31.8607</ele>
        <time>2014-06-17T11:29:20Z</time>
      </trkpt>
      <trkpt lat="59.9545078" lon="17.7167476">
        <ele>33.3029</ele>
        <time>2014-06-17T11:29:21Z</time>
      </trkpt>
      <trkpt lat="59.9545009" lon="17.7167928">
        <ele>34.7449</ele>
        <time>2014-06-17T11:29:22Z</time>
      </trkpt>
      <trkpt lat="59.95449" lon="17.7168411">
        <ele>36.6675</ele>
        <time>2014-06-17T11:29:23Z</time>
      </trkpt>
      <trkpt lat="59.9544767" lon="17.7168852">
        <ele>38.5901</ele>
        <time>2014-06-17T11:29:24Z</time>
      </trkpt>
      <trkpt lat="59.9544606" lon="17.716925">
        <ele>40.0321</ele>
        <time>2014-06-17T11:29:25Z</time>
      </trkpt>
      <trkpt lat="59.9544461" lon="17.7169638">
        <ele>40.9934</ele>
        <time>2014-06-17T11:29:26Z</time>
      </trkpt>
      <trkpt lat="59.9544367" lon="17.7170108">
        <ele>40.5128</ele>
        <time>2014-06-17T11:29:27Z</time>
      </trkpt>
      <trkpt lat="59.9544254" lon="17.7170534">
        <ele>41.474</ele>
        <time>2014-06-17T11:29:28Z</time>
      </trkpt>
      <trkpt lat="59.9544128" lon="17.7170949">
        <ele>42.916</ele>
        <time>2014-06-17T11:29:29Z</time>
      </trkpt>
      <trkpt lat="59.9544021" lon="17.7171361">
        <ele>43.3966</ele>
        <time>2014-06-17T11:29:30Z</time>
      </trkpt>
      <trkpt lat="59.9543905" lon="17.7171784">
        <ele>45.3192</ele>
        <time>2014-06-17T11:29:31Z</time>
      </trkpt>
      <trkpt lat="59.9543806" lon="17.7172181">
        <ele>46.2806</ele>
        <time>2014-06-17T11:29:32Z</time>
      </trkpt>
      <trkpt lat="59.9543695" lon="17.7172546">
        <ele>47.7225</ele>
        <time>2014-06-17T11:29:33Z</time>
      </trkpt>
      <trkpt lat="59.9543576" lon="17.7172934">
        <ele>48.2034</ele>
        <time>2014-06-17T11:29:34Z</time>
      </trkpt>
      <trkpt lat="59.9543449" lon="17.7173326">
        <ele>50.6066</ele>
        <time>2014-06-17T11:29:35Z</time>
      </trkpt>
      <trkpt lat="59.954331" lon="17.7173608">
        <ele>52.0486</ele>
        <time>2014-06-17T11:29:36Z</time>
      </trkpt>
      <trkpt lat="59.9543229" lon="17.7174089">
        <ele>49.1646</ele>
        <time>2014-06-17T11:29:37Z</time>
      </trkpt>
      <trkpt lat="59.9543126" lon="17.7174548">
        <ele>49.1646</ele>
        <time>2014-06-17T11:29:38Z</time>
      </trkpt>
      <trkpt lat="59.9542986" lon="17.7175036">
        <ele>48.684</ele>
        <time>2014-06-17T11:29:39Z</time>
      </trkpt>
      <trkpt lat="59.954285" lon="17.7175429">
        <ele>47.7225</ele>
        <time>2014-06-17T11:29:40Z</time>
      </trkpt>
      <trkpt lat="59.9542757" lon="17.7175837">
        <ele>45.3192</ele>
        <time>2014-06-17T11:29:41Z</time>
      </trkpt>
      <trkpt lat="59.9542653" lon="17.7176212">
        <ele>43.8773</ele>
        <time>2014-06-17T11:29:42Z</time>
      </trkpt>
      <trkpt lat="59.9542553" lon="17.7176543">
        <ele>43.8773</ele>
        <time>2014-06-17T11:29:43Z</time>
      </trkpt>
      <trkpt lat="59.9542437" lon="17.7176832">
        <ele>44.358</ele>
        <time>2014-06-17T11:29:44Z</time>
      </trkpt>
      <trkpt lat="59.9542302" lon="17.7177139">
        <ele>40.9934</ele>
        <time>2014-06-17T11:29:45Z</time>
      </trkpt>
      <trkpt lat="59.9542157" lon="17.7177455">
        <ele>41.9547</ele>
        <time>2014-06-17T11:29:46Z</time>
      </trkpt>
      <trkpt lat="59.9542025" lon="17.7177774">
        <ele>44.358</ele>
        <time>2014-06-17T11:29:47Z</time>
      </trkpt>
      <trkpt lat="59.9541902" lon="17.7178186">
        <ele>43.3966</ele>
        <time>2014-06-17T11:29:48Z</time>
      </trkpt>
      <trkpt lat="59.9541746" lon="17.7178574">
        <ele>42.916</ele>
        <time>2014-06-17T11:29:49Z</time>
      </trkpt>
      <trkpt lat="59.9541591" lon="17.7178979">
        <ele>42.916</ele>
        <time>2014-06-17T11:29:50Z</time>
      </trkpt>
      <trkpt lat="59.9541508" lon="17.7179298">
        <ele>42.4354</ele>
        <time>2014-06-17T11:29:51Z</time>
      </trkpt>
      <trkpt lat="59.9541398" lon="17.717965">
        <ele>42.916</ele>
        <time>2014-06-17T11:29:52Z</time>
      </trkpt>
      <trkpt lat="59.9541232" lon="17.7180015">
        <ele>43.8773</ele>
        <time>2014-06-17T11:29:53Z</time>
      </trkpt>
      <trkpt lat="59.9541077" lon="17.7180356">
        <ele>43.8773</ele>
        <time>2014-06-17T11:29:54Z</time>
      </trkpt>
      <trkpt lat="59.9540986" lon="17.718076">
        <ele>46.2806</ele>
        <time>2014-06-17T11:29:55Z</time>
      </trkpt>
      <trkpt lat="59.9540834" lon="17.7181143">
        <ele>47.2418</ele>
        <time>2014-06-17T11:29:56Z</time>
      </trkpt>
      <trkpt lat="59.954072" lon="17.7181577">
        <ele>47.7225</ele>
        <time>2014-06-17T11:29:57Z</time>
      </trkpt>
      <trkpt lat="59.9540644" lon="17.7182025">
        <ele>47.7225</ele>
        <time>2014-06-17T11:29:58Z</time>
      </trkpt>
      <trkpt lat="59.9540517" lon="17.7182521">
        <ele>49.1646</ele>
        <time>2014-06-17T11:29:59Z</time>
      </trkpt>
      <trkpt lat="59.9540382" lon="17.7183011">
        <ele>50.126</ele>
        <time>2014-06-17T11:30:00Z</time>
      </trkpt>
      <trkpt lat="59.9540198" lon="17.7183474">
        <ele>52.0486</ele>
        <time>2014-06-17T11:30:01Z</time>
      </trkpt>
      <trkpt lat="59.9540098" lon="17.7183982">
        <ele>53.0098</ele>
        <time>2014-06-17T11:30:02Z</time>
      </trkpt>
      <trkpt lat="59.954003" lon="17.7184418">
        <ele>52.0486</ele>
        <time>2014-06-17T11:30:03Z</time>
      </trkpt>
      <trkpt lat="59.953997" lon="17.7184851">
        <ele>51.0872</ele>
        <time>2014-06-17T11:30:04Z</time>
      </trkpt>
      <trkpt lat="59.9539913" lon="17.7185262">
        <ele>50.6066</ele>
        <time>2014-06-17T11:30:05Z</time>
      </trkpt>
      <trkpt lat="59.953981" lon="17.7185676">
        <ele>51.0872</ele>
        <time>2014-06-17T11:30:06Z</time>
      </trkpt>
      <trkpt lat="59.953975" lon="17.7186132">
        <ele>51.0872</ele>
        <time>2014-06-17T11:30:07Z</time>
      </trkpt>
      <trkpt lat="59.953967" lon="17.7186589">
        <ele>51.5679</ele>
        <time>2014-06-17T11:30:08Z</time>
      </trkpt>
      <trkpt lat="59.9539597" lon="17.7187034">
        <ele>53.0098</ele>
        <time>2014-06-17T11:30:09Z</time>
      </trkpt>
      <trkpt lat="59.953951" lon="17.7187453">
        <ele>51.0872</ele>
        <time>2014-06-17T11:30:10Z</time>
      </trkpt>
      <trkpt lat="59.9539412" lon="17.7187881">
        <ele>50.6066</ele>
        <time>2014-06-17T11:30:11Z</time>
      </trkpt>
      <trkpt lat="59.9539328" lon="17.7188318">
        <ele>51.0872</ele>
        <time>2014-06-17T11:30:12Z</time>
      </trkpt>
      <trkpt lat="59.9539233" lon="17.71887">
        <ele>51.0872</ele>
        <time>2014-06-17T11:30:13Z</time>
      </trkpt>
      <trkpt lat="59.953911" lon="17.7189062">
        <ele>53.4905</ele>
        <time>2014-06-17T11:30:14Z</time>
      </trkpt>
      <trkpt lat="59.9538969" lon="17.7189359">
        <ele>53.0098</ele>
        <time>2014-06-17T11:30:15Z</time>
      </trkpt>
      <trkpt lat="59.9538876" lon="17.7189801">
        <ele>53.4905</ele>
        <time>2014-06-17T11:30:16Z</time>
      </trkpt>
      <trkpt lat="59.953882" lon="17.7190253">
        <ele>53.9712</ele>
        <time>2014-06-17T11:30:17Z</time>
      </trkpt>
      <trkpt lat="59.9538758" lon="17.7190649">
        <ele>54.9324</ele>
        <time>2014-06-17T11:30:18Z</time>
      </trkpt>
      <trkpt lat="59.9538733" lon="17.7191084">
        <ele>54.4518</ele>
        <time>2014-06-17T11:30:19Z</time>
      </trkpt>
      <trkpt lat="59.9538602" lon="17.7191502">
        <ele>53.9712</ele>
        <time>2014-06-17T11:30:20Z</time>
      </trkpt>
      <trkpt lat="59.9538456" lon="17.7191888">
        <ele>53.0098</ele>
        <time>2014-06-17T11:30:21Z</time>
      </trkpt>
      <trkpt lat="59.9538365" lon="17.7192357">
        <ele>53.0098</ele>
        <time>2014-06-17T11:30:22Z</time>
      </trkpt>
      <trkpt lat="59.9538235" lon="17.719276">
        <ele>53.0098</ele>
        <time>2014-06-17T11:30:23Z</time>
      </trkpt>
      <trkpt lat="59.9538111" lon="17.7193068">
        <ele>52.5292</ele>
        <time>2014-06-17T11:30:24Z</time>
      </trkpt>
      <trkpt lat="59.9538007" lon="17.7193447">
        <ele>53.4905</ele>
        <time>2014-06-17T11:30:25Z</time>
      </trkpt>
      <trkpt lat="59.9537904" lon="17.7193853">
        <ele>53.9712</ele>
        <time>2014-06-17T11:30:26Z</time>
      </trkpt>
      <trkpt lat="59.9537809" lon="17.719424">
        <ele>54.4518</ele>
        <time>2014-06-17T11:30:27Z</time>
      </trkpt>
      <trkpt lat="59.953771" lon="17.719461">
        <ele>54.9324</ele>
        <time>2014-06-17T11:30:28Z</time>
      </trkpt>
      <trkpt lat="59.953765" lon="17.7194955">
        <ele>55.4131</ele>
        <time>2014-06-17T11:30:29Z</time>
      </trkpt>
      <trkpt lat="59.9537596" lon="17.7195357">
        <ele>53.0098</ele>
        <time>2014-06-17T11:30:30Z</time>
      </trkpt>
      <trkpt lat="59.9537502" lon="17.7195793">
        <ele>52.0486</ele>
        <time>2014-06-17T11:30:31Z</time>
      </trkpt>
      <trkpt lat="59.9537358" lon="17.7196175">
        <ele>53.0098</ele>
        <time>2014-06-17T11:30:32Z</time>
      </trkpt>
      <trkpt lat="59.9537238" lon="17.7196563">
        <ele>52.0486</ele>
        <time>2014-06-17T11:30:33Z</time>
      </trkpt>
      <trkpt lat="59.9537126" lon="17.7196943">
        <ele>48.684</ele>
        <time>2014-06-17T11:30:34Z</time>
      </trkpt>
      <trkpt lat="59.9536963" lon="17.7197289">
        <ele>49.1646</ele>
        <time>2014-06-17T11:30:35Z</time>
      </trkpt>
      <trkpt lat="59.9536831" lon="17.719763">
        <ele>47.7225</ele>
        <time>2014-06-17T11:30:36Z</time>
      </trkpt>
      <trkpt lat="59.9536675" lon="17.7197994">
        <ele>45.7999</ele>
        <time>2014-06-17T11:30:37Z</time>
      </trkpt>
      <trkpt lat="59.9536488" lon="17.7198343">
        <ele>44.8386</ele>
        <time>2014-06-17T11:30:38Z</time>
      </trkpt>
      <trkpt lat="59.9536405" lon="17.7198756">
        <ele>42.4354</ele>
        <time>2014-06-17T11:30:39Z</time>
      </trkpt>
      <trkpt lat="59.9536288" lon="17.7199052">
        <ele>42.4354</ele>
        <time>2014-06-17T11:30:40Z</time>
      </trkpt>
      <trkpt lat="59.9536183" lon="17.7199357">
        <ele>42.4354</ele>
        <time>2014-06-17T11:30:41Z</time>
      </trkpt>
      <trkpt lat="59.953609" lon="17.7199719">
        <ele>42.916</ele>
        <time>2014-06-17T11:30:42Z</time>
      </trkpt>
      <trkpt lat="59.9535924" lon="17.7200114">
        <ele>43.8773</ele>
        <time>2014-06-17T11:30:43Z</time>
      </trkpt>
      <trkpt lat="59.9535721" lon="17.720047">
        <ele>42.4354</ele>
        <time>2014-06-17T11:30:44Z</time>
      </trkpt>
      <trkpt lat="59.9535588" lon="17.7200868">
        <ele>41.474</ele>
        <time>2014-06-17T11:30:45Z</time>
      </trkpt>
      <trkpt lat="59.9535411" lon="17.7201221">
        <ele>42.916</ele>
        <time>2014-06-17T11:30:46Z</time>
      </trkpt>
      <trkpt lat="59.9535256" lon="17.7201558">
        <ele>43.8773</ele>
        <time>2014-06-17T11:30:47Z</time>
      </trkpt>
      <trkpt lat="59.9535132" lon="17.7201984">
        <ele>45.7999</ele>
        <time>2014-06-17T11:30:48Z</time>
      </trkpt>
      <trkpt lat="59.9534961" lon="17.720246">
        <ele>46.7612</ele>
        <time>2014-06-17T11:30:49Z</time>
      </trkpt>
      <trkpt lat="59.9534852" lon="17.7202988">
        <ele>45.7999</ele>
        <time>2014-06-17T11:30:50Z</time>
      </trkpt>
      <trkpt lat="59.9534769" lon="17.7203509">
        <ele>44.8386</ele>
        <time>2014-06-17T11:30:51Z</time>
      </trkpt>
      <trkpt lat="59.9534651" lon="17.720393">
        <ele>44.358</ele>
        <time>2014-06-17T11:30:52Z</time>
      </trkpt>
      <trkpt lat="59.9534548" lon="17.7204385">
        <ele>42.916</ele>
        <time>2014-06-17T11:30:53Z</time>
      </trkpt>
      <trkpt lat="59.9534438" lon="17.7204884">
        <ele>42.4354</ele>
        <time>2014-06-17T11:30:54Z</time>
      </trkpt>
      <trkpt lat="59.9534298" lon="17.7205356">
        <ele>41.474</ele>
        <time>2014-06-17T11:30:55Z</time>
      </trkpt>
      <trkpt lat="59.9534232" lon="17.7205801">
        <ele>40.9934</ele>
        <time>2014-06-17T11:30:56Z</time>
      </trkpt>
      <trkpt lat="59.9534235" lon="17.7206174">
        <ele>39.5513</ele>
        <time>2014-06-17T11:30:57Z</time>
      </trkpt>
      <trkpt lat="59.9534194" lon="17.7206596">
        <ele>38.5901</ele>
        <time>2014-06-17T11:30:58Z</time>
      </trkpt>
      <trkpt lat="59.9534107" lon="17.7207001">
        <ele>37.6287</ele>
        <time>2014-06-17T11:30:59Z</time>
      </trkpt>
      <trkpt lat="59.9534028" lon="17.7207412">
        <ele>36.6675</ele>
        <time>2014-06-17T11:31:00Z</time>
      </trkpt>
      <trkpt lat="59.9533986" lon="17.7207904">
        <ele>38.1094</ele>
        <time>2014-06-17T11:31:01Z</time>
      </trkpt>
      <trkpt lat="59.9533945" lon="17.7208407">
        <ele>38.5901</ele>
        <time>2014-06-17T11:31:02Z</time>
      </trkpt>
      <trkpt lat="59.95339" lon="17.7208873">
        <ele>36.1868</ele>
        <time>2014-06-17T11:31:03Z</time>
      </trkpt>
      <trkpt lat="59.9533817" lon="17.7209357">
        <ele>36.1868</ele>
        <time>2014-06-17T11:31:04Z</time>
      </trkpt>
      <trkpt lat="59.9533774" lon="17.7209841">
        <ele>37.1481</ele>
        <time>2014-06-17T11:31:05Z</time>
      </trkpt>
      <trkpt lat="59.9533707" lon="17.7210303">
        <ele>37.1481</ele>
        <time>2014-06-17T11:31:06Z</time>
      </trkpt>
      <trkpt lat="59.9533603" lon="17.7210773">
        <ele>38.5901</ele>
        <time>2014-06-17T11:31:07Z</time>
      </trkpt>
      <trkpt lat="59.953357" lon="17.7211238">
        <ele>39.5513</ele>
        <time>2014-06-17T11:31:08Z</time>
      </trkpt>
      <trkpt lat="59.9533536" lon="17.7211717">
        <ele>39.0707</ele>
        <time>2014-06-17T11:31:09Z</time>
      </trkpt>
      <trkpt lat="59.9533499" lon="17.721223">
        <ele>37.1481</ele>
        <time>2014-06-17T11:31:10Z</time>
      </trkpt>
      <trkpt lat="59.9533478" lon="17.721267">
        <ele>38.1094</ele>
        <time>2014-06-17T11:31:11Z</time>
      </trkpt>
      <trkpt lat="59.9533407" lon="17.7213043">
        <ele>38.1094</ele>
        <time>2014-06-17T11:31:12Z</time>
      </trkpt>
      <trkpt lat="59.9533353" lon="17.7213447">
        <ele>37.1481</ele>
        <time>2014-06-17T11:31:13Z</time>
      </trkpt>
      <trkpt lat="59.9533246" lon="17.721381">
        <ele>36.6675</ele>
        <time>2014-06-17T11:31:14Z</time>
      </trkpt>
      <trkpt lat="59.9533095" lon="17.7214207">
        <ele>37.6287</ele>
        <time>2014-06-17T11:31:15Z</time>
      </trkpt>
      <trkpt lat="59.953293" lon="17.7214598">
        <ele>39.0707</ele>
        <time>2014-06-17T11:31:16Z</time>
      </trkpt>
      <trkpt lat="59.9532789" lon="17.7214954">
        <ele>39.5513</ele>
        <time>2014-06-17T11:31:17Z</time>
      </trkpt>
      <trkpt lat="59.9532659" lon="17.7215312">
        <ele>38.5901</ele>
        <time>2014-06-17T11:31:18Z</time>
      </trkpt>
      <trkpt lat="59.9532493" lon="17.7215636">
        <ele>38.5901</ele>
        <time>2014-06-17T11:31:19Z</time>
      </trkpt>
      <trkpt lat="59.9532291" lon="17.7216017">
        <ele>40.5128</ele>
        <time>2014-06-17T11:31:20Z</time>
      </trkpt>
      <trkpt lat="59.9532006" lon="17.7216436">
        <ele>42.916</ele>
        <time>2014-06-17T11:31:21Z</time>
      </trkpt>
      <trkpt lat="59.9531809" lon="17.7216692">
        <ele>43.3966</ele>
        <time>2014-06-17T11:31:22Z</time>
      </trkpt>
      <trkpt lat="59.9531631" lon="17.7216886">
        <ele>44.358</ele>
        <time>2014-06-17T11:31:23Z</time>
      </trkpt>
      <trkpt lat="59.9531447" lon="17.7217052">
        <ele>45.7999</ele>
        <time>2014-06-17T11:31:24Z</time>
      </trkpt>
      <trkpt lat="59.9531283" lon="17.7217136">
        <ele>46.2806</ele>
        <time>2014-06-17T11:31:25Z</time>
      </trkpt>
      <trkpt lat="59.9531107" lon="17.7217321">
        <ele>49.1646</ele>
        <time>2014-06-17T11:31:26Z</time>
      </trkpt>
      <trkpt lat="59.953091" lon="17.7217509">
        <ele>51.0872</ele>
        <time>2014-06-17T11:31:27Z</time>
      </trkpt>
      <trkpt lat="59.9530739" lon="17.7217757">
        <ele>51.0872</ele>
        <time>2014-06-17T11:31:28Z</time>
      </trkpt>
      <trkpt lat="59.953055" lon="17.7217884">
        <ele>50.126</ele>
        <time>2014-06-17T11:31:29Z</time>
      </trkpt>
      <trkpt lat="59.9530312" lon="17.721816">
        <ele>51.5679</ele>
        <time>2014-06-17T11:31:30Z</time>
      </trkpt>
      <trkpt lat="59.9530093" lon="17.7218383">
        <ele>53.0098</ele>
        <time>2014-06-17T11:31:31Z</time>
      </trkpt>
      <trkpt lat="59.9529884" lon="17.7218576">
        <ele>53.9712</ele>
        <time>2014-06-17T11:31:32Z</time>
      </trkpt>
      <trkpt lat="59.9529703" lon="17.7218739">
        <ele>55.8938</ele>
        <time>2014-06-17T11:31:33Z</time>
      </trkpt>
      <trkpt lat="59.9529535" lon="17.7219003">
        <ele>53.4905</ele>
        <time>2014-06-17T11:31:34Z</time>
      </trkpt>
      <trkpt lat="59.9529325" lon="17.7219207">
        <ele>52.5292</ele>
        <time>2014-06-17T11:31:35Z</time>
      </trkpt>
      <trkpt lat="59.9529123" lon="17.7219488">
        <ele>52.5292</ele>
        <time>2014-06-17T11:31:36Z</time>
      </trkpt>
      <trkpt lat="59.9528916" lon="17.7219782">
        <ele>52.5292</ele>
        <time>2014-06-17T11:31:37Z</time>
      </trkpt>
      <trkpt lat="59.9528704" lon="17.7220146">
        <ele>51.5679</ele>
        <time>2014-06-17T11:31:38Z</time>
      </trkpt>
      <trkpt lat="59.9528491" lon="17.7220461">
        <ele>51.5679</ele>
        <time>2014-06-17T11:31:39Z</time>
      </trkpt>
      <trkpt lat="59.9528279" lon="17.7220621">
        <ele>52.0486</ele>
        <time>2014-06-17T11:31:40Z</time>
      </trkpt>
      <trkpt lat="59.9528105" lon="17.7220781">
        <ele>52.5292</ele>
        <time>2014-06-17T11:31:41Z</time>
      </trkpt>
      <trkpt lat="59.9527883" lon="17.7220962">
        <ele>52.5292</ele>
        <time>2014-06-17T11:31:42Z</time>
      </trkpt>
      <trkpt lat="59.9527635" lon="17.7221145">
        <ele>52.0486</ele>
        <time>2014-06-17T11:31:43Z</time>
      </trkpt>
      <trkpt lat="59.9527463" lon="17.722145">
        <ele>52.0486</ele>
        <time>2014-06-17T11:31:44Z</time>
      </trkpt>
      <trkpt lat="59.9527273" lon="17.7221724">
        <ele>52.0486</ele>
        <time>2014-06-17T11:31:45Z</time>
      </trkpt>
      <trkpt lat="59.9527091" lon="17.7222016">
        <ele>52.0486</ele>
        <time>2014-06-17T11:31:46Z</time>
      </trkpt>
      <trkpt lat="59.952691" lon="17.7222367">
        <ele>51.0872</ele>
        <time>2014-06-17T11:31:47Z</time>
      </trkpt>
      <trkpt lat="59.952674" lon="17.7222771">
        <ele>50.6066</ele>
        <time>2014-06-17T11:31:48Z</time>
      </trkpt>
      <trkpt lat="59.9526559" lon="17.7223056">
        <ele>51.0872</ele>
        <time>2014-06-17T11:31:49Z</time>
      </trkpt>
      <trkpt lat="59.9526367" lon="17.7223366">
        <ele>49.6453</ele>
        <time>2014-06-17T11:31:50Z</time>
      </trkpt>
      <trkpt lat="59.9526196" lon="17.7223677">
        <ele>50.126</ele>
        <time>2014-06-17T11:31:51Z</time>
      </trkpt>
      <trkpt lat="59.9526044" lon="17.7223988">
        <ele>50.6066</ele>
        <time>2014-06-17T11:31:52Z</time>
      </trkpt>
      <trkpt lat="59.952593" lon="17.7224338">
        <ele>50.126</ele>
        <time>2014-06-17T11:31:53Z</time>
      </trkpt>
      <trkpt lat="59.9525776" lon="17.7224693">
        <ele>50.126</ele>
        <time>2014-06-17T11:31:54Z</time>
      </trkpt>
      <trkpt lat="59.9525656" lon="17.7225128">
        <ele>49.6453</ele>
        <time>2014-06-17T11:31:55Z</time>
      </trkpt>
      <trkpt lat="59.9525511" lon="17.7225642">
        <ele>49.6453</ele>
        <time>2014-06-17T11:31:56Z</time>
      </trkpt>
      <trkpt lat="59.9525435" lon="17.7226086">
        <ele>49.1646</ele>
        <time>2014-06-17T11:31:57Z</time>
      </trkpt>
      <trkpt lat="59.952536" lon="17.7226552">
        <ele>48.684</ele>
        <time>2014-06-17T11:31:58Z</time>
      </trkpt>
      <trkpt lat="59.9525288" lon="17.7226961">
        <ele>49.1646</ele>
        <time>2014-06-17T11:31:59Z</time>
      </trkpt>
      <trkpt lat="59.9525196" lon="17.7227384">
        <ele>48.2034</ele>
        <time>2014-06-17T11:32:00Z</time>
      </trkpt>
      <trkpt lat="59.9525148" lon="17.7227806">
        <ele>47.2418</ele>
        <time>2014-06-17T11:32:01Z</time>
      </trkpt>
      <trkpt lat="59.9525032" lon="17.7228232">
        <ele>46.7612</ele>
        <time>2014-06-17T11:32:02Z</time>
      </trkpt>
      <trkpt lat="59.9524897" lon="17.7228726">
        <ele>47.7225</ele>
        <time>2014-06-17T11:32:03Z</time>
      </trkpt>
      <trkpt lat="59.9524818" lon="17.7229142">
        <ele>46.7612</ele>
        <time>2014-06-17T11:32:04Z</time>
      </trkpt>
      <trkpt lat="59.9524704" lon="17.7229589">
        <ele>45.7999</ele>
        <time>2014-06-17T11:32:05Z</time>
      </trkpt>
      <trkpt lat="59.9524571" lon="17.7230049">
        <ele>44.8386</ele>
        <time>2014-06-17T11:32:06Z</time>
      </trkpt>
      <trkpt lat="59.9524445" lon="17.7230467">
        <ele>44.8386</ele>
        <time>2014-06-17T11:32:07Z</time>
      </trkpt>
      <trkpt lat="59.9524324" lon="17.7230815">
        <ele>43.8773</ele>
        <time>2014-06-17T11:32:08Z</time>
      </trkpt>
      <trkpt lat="59.9524217" lon="17.7231162">
        <ele>42.916</ele>
        <time>2014-06-17T11:32:09Z</time>
      </trkpt>
      <trkpt lat="59.9524106" lon="17.7231576">
        <ele>41.9547</ele>
        <time>2014-06-17T11:32:10Z</time>
      </trkpt>
      <trkpt lat="59.9523982" lon="17.7232022">
        <ele>41.474</ele>
        <time>2014-06-17T11:32:11Z</time>
      </trkpt>
      <trkpt lat="59.9523829" lon="17.7232573">
        <ele>40.9934</ele>
        <time>2014-06-17T11:32:12Z</time>
      </trkpt>
      <trkpt lat="59.9523668" lon="17.7233152">
        <ele>40.5128</ele>
        <time>2014-06-17T11:32:13Z</time>
      </trkpt>
      <trkpt lat="59.9523508" lon="17.7233679">
        <ele>41.474</ele>
        <time>2014-06-17T11:32:14Z</time>
      </trkpt>
      <trkpt lat="59.9523379" lon="17.7234326">
        <ele>42.4354</ele>
        <time>2014-06-17T11:32:15Z</time>
      </trkpt>
      <trkpt lat="59.9523263" lon="17.7234815">
        <ele>43.3966</ele>
        <time>2014-06-17T11:32:16Z</time>
      </trkpt>
      <trkpt lat="59.9523123" lon="17.7235348">
        <ele>43.3966</ele>
        <time>2014-06-17T11:32:17Z</time>
      </trkpt>
      <trkpt lat="59.9523045" lon="17.7235758">
        <ele>43.8773</ele>
        <time>2014-06-17T11:32:18Z</time>
      </trkpt>
      <trkpt lat="59.9522917" lon="17.7236155">
        <ele>46.2806</ele>
        <time>2014-06-17T11:32:19Z</time>
      </trkpt>
      <trkpt lat="59.9522782" lon="17.7236492">
        <ele>47.2418</ele>
        <time>2014-06-17T11:32:20Z</time>
      </trkpt>
      <trkpt lat="59.9522673" lon="17.7236752">
        <ele>46.7612</ele>
        <time>2014-06-17T11:32:21Z</time>
      </trkpt>
      <trkpt lat="59.952261" lon="17.723712">
        <ele>47.7225</ele>
        <time>2014-06-17T11:32:22Z</time>
      </trkpt>
      <trkpt lat="59.9522564" lon="17.7237501">
        <ele>47.7225</ele>
        <time>2014-06-17T11:32:23Z</time>
      </trkpt>
      <trkpt lat="59.9522491" lon="17.7237871">
        <ele>47.7225</ele>
        <time>2014-06-17T11:32:24Z</time>
      </trkpt>
      <trkpt lat="59.9522389" lon="17.7238357">
        <ele>48.2034</ele>
        <time>2014-06-17T11:32:25Z</time>
      </trkpt>
      <trkpt lat="59.9522271" lon="17.7238815">
        <ele>49.6453</ele>
        <time>2014-06-17T11:32:26Z</time>
      </trkpt>
      <trkpt lat="59.9522145" lon="17.7239068">
        <ele>48.684</ele>
        <time>2014-06-17T11:32:27Z</time>
      </trkpt>
      <trkpt lat="59.9522009" lon="17.7239295">
        <ele>49.1646</ele>
        <time>2014-06-17T11:32:28Z</time>
      </trkpt>
      <trkpt lat="59.9521897" lon="17.7239647">
        <ele>50.126</ele>
        <time>2014-06-17T11:32:29Z</time>
      </trkpt>
      <trkpt lat="59.9521784" lon="17.7240076">
        <ele>49.6453</ele>
        <time>2014-06-17T11:32:30Z</time>
      </trkpt>
      <trkpt lat="59.9521675" lon="17.7240602">
        <ele>49.1646</ele>
        <time>2014-06-17T11:32:31Z</time>
      </trkpt>
      <trkpt lat="59.9521595" lon="17.7241104">
        <ele>48.684</ele>
        <time>2014-06-17T11:32:32Z</time>
      </trkpt>
      <trkpt lat="59.9521513" lon="17.7241632">
        <ele>47.7225</ele>
        <time>2014-06-17T11:32:33Z</time>
      </trkpt>
      <trkpt lat="59.9521419" lon="17.724215">
        <ele>47.7225</ele>
        <time>2014-06-17T11:32:34Z</time>
      </trkpt>
      <trkpt lat="59.9521314" lon="17.7242574">
        <ele>47.2418</ele>
        <time>2014-06-17T11:32:35Z</time>
      </trkpt>
      <trkpt lat="59.9521221" lon="17.7242963">
        <ele>46.2806</ele>
        <time>2014-06-17T11:32:36Z</time>
      </trkpt>
      <trkpt lat="59.9521107" lon="17.724338">
        <ele>45.7999</ele>
        <time>2014-06-17T11:32:37Z</time>
      </trkpt>
      <trkpt lat="59.9521015" lon="17.724378">
        <ele>45.3192</ele>
        <time>2014-06-17T11:32:38Z</time>
      </trkpt>
      <trkpt lat="59.9520944" lon="17.7244272">
        <ele>45.7999</ele>
        <time>2014-06-17T11:32:39Z</time>
      </trkpt>
      <trkpt lat="59.9520876" lon="17.7244746">
        <ele>46.2806</ele>
        <time>2014-06-17T11:32:40Z</time>
      </trkpt>
      <trkpt lat="59.9520834" lon="17.7245136">
        <ele>46.2806</ele>
        <time>2014-06-17T11:32:41Z</time>
      </trkpt>
      <trkpt lat="59.9520782" lon="17.7245553">
        <ele>46.2806</ele>
        <time>2014-06-17T11:32:42Z</time>
      </trkpt>
      <trkpt lat="59.9520726" lon="17.7245939">
        <ele>46.2806</ele>
        <time>2014-06-17T11:32:43Z</time>
      </trkpt>
      <trkpt lat="59.9520674" lon="17.7246287">
        <ele>45.7999</ele>
        <time>2014-06-17T11:32:44Z</time>
      </trkpt>
      <trkpt lat="59.9520602" lon="17.7246699">
        <ele>46.2806</ele>
        <time>2014-06-17T11:32:45Z</time>
      </trkpt>
      <trkpt lat="59.9520519" lon="17.7247071">
        <ele>46.2806</ele>
        <time>2014-06-17T11:32:46Z</time>
      </trkpt>
      <trkpt lat="59.9520432" lon="17.7247392">
        <ele>45.7999</ele>
        <time>2014-06-17T11:32:47Z</time>
      </trkpt>
      <trkpt lat="59.9520341" lon="17.7247811">
        <ele>45.3192</ele>
        <time>2014-06-17T11:32:48Z</time>
      </trkpt>
      <trkpt lat="59.952025" lon="17.7248248">
        <ele>45.3192</ele>
        <time>2014-06-17T11:32:49Z</time>
      </trkpt>
      <trkpt lat="59.9520152" lon="17.7248682">
        <ele>45.3192</ele>
        <time>2014-06-17T11:32:50Z</time>
      </trkpt>
      <trkpt lat="59.9520036" lon="17.724907">
        <ele>46.2806</ele>
        <time>2014-06-17T11:32:51Z</time>
      </trkpt>
      <trkpt lat="59.9519901" lon="17.7249508">
        <ele>46.2806</ele>
        <time>2014-06-17T11:32:52Z</time>
      </trkpt>
      <trkpt lat="59.9519778" lon="17.7249961">
        <ele>46.7612</ele>
        <time>2014-06-17T11:32:53Z</time>
      </trkpt>
      <trkpt lat="59.9519637" lon="17.7250299">
        <ele>47.2418</ele>
        <time>2014-06-17T11:32:54Z</time>
      </trkpt>
      <trkpt lat="59.9519475" lon="17.7250625">
        <ele>47.7225</ele>
        <time>2014-06-17T11:32:55Z</time>
      </trkpt>
      <trkpt lat="59.9519325" lon="17.7250961">
        <ele>48.2034</ele>
        <time>2014-06-17T11:32:56Z</time>
      </trkpt>
      <trkpt lat="59.9519165" lon="17.7251337">
        <ele>48.684</ele>
        <time>2014-06-17T11:32:57Z</time>
      </trkpt>
      <trkpt lat="59.9518966" lon="17.725171">
        <ele>49.1646</ele>
        <time>2014-06-17T11:32:58Z</time>
      </trkpt>
      <trkpt lat="59.9518763" lon="17.7252034">
        <ele>49.1646</ele>
        <time>2014-06-17T11:32:59Z</time>
      </trkpt>
      <trkpt lat="59.9518592" lon="17.7252376">
        <ele>50.126</ele>
        <time>2014-06-17T11:33:00Z</time>
      </trkpt>
      <trkpt lat="59.9518421" lon="17.7252701">
        <ele>49.1646</ele>
        <time>2014-06-17T11:33:01Z</time>
      </trkpt>
      <trkpt lat="59.951825" lon="17.7252995">
        <ele>49.1646</ele>
        <time>2014-06-17T11:33:02Z</time>
      </trkpt>
      <trkpt lat="59.951808" lon="17.7253314">
        <ele>49.1646</ele>
        <time>2014-06-17T11:33:03Z</time>
      </trkpt>
      <trkpt lat="59.9517913" lon="17.7253623">
        <ele>49.6453</ele>
        <time>2014-06-17T11:33:04Z</time>
      </trkpt>
      <trkpt lat="59.9517773" lon="17.7253949">
        <ele>48.2034</ele>
        <time>2014-06-17T11:33:05Z</time>
      </trkpt>
      <trkpt lat="59.9517653" lon="17.7254306">
        <ele>48.2034</ele>
        <time>2014-06-17T11:33:06Z</time>
      </trkpt>
      <trkpt lat="59.951752" lon="17.725464">
        <ele>47.2418</ele>
        <time>2014-06-17T11:33:07Z</time>
      </trkpt>
      <trkpt lat="59.9517385" lon="17.7254965">
        <ele>46.7612</ele>
        <time>2014-06-17T11:33:08Z</time>
      </trkpt>
      <trkpt lat="59.9517255" lon="17.7255274">
        <ele>46.2806</ele>
        <time>2014-06-17T11:33:09Z</time>
      </trkpt>
      <trkpt lat="59.9517091" lon="17.72556">
        <ele>46.2806</ele>
        <time>2014-06-17T11:33:10Z</time>
      </trkpt>
      <trkpt lat="59.9516924" lon="17.7255934">
        <ele>46.7612</ele>
        <time>2014-06-17T11:33:11Z</time>
      </trkpt>
      <trkpt lat="59.9516792" lon="17.7256333">
        <ele>46.7612</ele>
        <time>2014-06-17T11:33:12Z</time>
      </trkpt>
      <trkpt lat="59.9516664" lon="17.7256768">
        <ele>46.2806</ele>
        <time>2014-06-17T11:33:13Z</time>
      </trkpt>
      <trkpt lat="59.9516524" lon="17.7257269">
        <ele>47.2418</ele>
        <time>2014-06-17T11:33:14Z</time>
      </trkpt>
      <trkpt lat="59.9516375" lon="17.7257756">
        <ele>47.2418</ele>
        <time>2014-06-17T11:33:15Z</time>
      </trkpt>
      <trkpt lat="59.9516224" lon="17.7258268">
        <ele>46.2806</ele>
        <time>2014-06-17T11:33:16Z</time>
      </trkpt>
      <trkpt lat="59.9516086" lon="17.7258721">
        <ele>45.7999</ele>
        <time>2014-06-17T11:33:17Z</time>
      </trkpt>
      <trkpt lat="59.9515965" lon="17.7259117">
        <ele>45.3192</ele>
        <time>2014-06-17T11:33:18Z</time>
      </trkpt>
      <trkpt lat="59.951585" lon="17.7259516">
        <ele>44.8386</ele>
        <time>2014-06-17T11:33:19Z</time>
      </trkpt>
      <trkpt lat="59.9515718" lon="17.7259829">
        <ele>44.358</ele>
        <time>2014-06-17T11:33:20Z</time>
      </trkpt>
      <trkpt lat="59.9515583" lon="17.7260072">
        <ele>44.8386</ele>
        <time>2014-06-17T11:33:21Z</time>
      </trkpt>
      <trkpt lat="59.9515458" lon="17.7260399">
        <ele>45.3192</ele>
        <time>2014-06-17T11:33:22Z</time>
      </trkpt>
      <trkpt lat="59.9515345" lon="17.7260788">
        <ele>46.2806</ele>
        <time>2014-06-17T11:33:23Z</time>
      </trkpt>
      <trkpt lat="59.9515244" lon="17.7261136">
        <ele>46.2806</ele>
        <time>2014-06-17T11:33:24Z</time>
      </trkpt>
      <trkpt lat="59.9515124" lon="17.7261545">
        <ele>46.7612</ele>
        <time>2014-06-17T11:33:25Z</time>
      </trkpt>
      <trkpt lat="59.9514997" lon="17.7261922">
        <ele>46.2806</ele>
        <time>2014-06-17T11:33:26Z</time>
      </trkpt>
      <trkpt lat="59.9514876" lon="17.7262254">
        <ele>45.7999</ele>
        <time>2014-06-17T11:33:27Z</time>
      </trkpt>
      <trkpt lat="59.9514751" lon="17.7262637">
        <ele>44.358</ele>
        <time>2014-06-17T11:33:28Z</time>
      </trkpt>
      <trkpt lat="59.9514649" lon="17.7263049">
        <ele>43.3966</ele>
        <time>2014-06-17T11:33:29Z</time>
      </trkpt>
      <trkpt lat="59.9514532" lon="17.7263455">
        <ele>42.916</ele>
        <time>2014-06-17T11:33:30Z</time>
      </trkpt>
      <trkpt lat="59.9514389" lon="17.7263806">
        <ele>41.474</ele>
        <time>2014-06-17T11:33:31Z</time>
      </trkpt>
      <trkpt lat="59.951426" lon="17.7264114">
        <ele>40.9934</ele>
        <time>2014-06-17T11:33:32Z</time>
      </trkpt>
      <trkpt lat="59.9514107" lon="17.7264465">
        <ele>39.5513</ele>
        <time>2014-06-17T11:33:33Z</time>
      </trkpt>
      <trkpt lat="59.9513944" lon="17.7264748">
        <ele>39.0707</ele>
        <time>2014-06-17T11:33:34Z</time>
      </trkpt>
      <trkpt lat="59.9513827" lon="17.7265034">
        <ele>38.5901</ele>
        <time>2014-06-17T11:33:35Z</time>
      </trkpt>
      <trkpt lat="59.9513663" lon="17.7265313">
        <ele>37.1481</ele>
        <time>2014-06-17T11:33:36Z</time>
      </trkpt>
      <trkpt lat="59.9513474" lon="17.7265589">
        <ele>36.6675</ele>
        <time>2014-06-17T11:33:37Z</time>
      </trkpt>
      <trkpt lat="59.9513318" lon="17.7265891">
        <ele>36.1868</ele>
        <time>2014-06-17T11:33:38Z</time>
      </trkpt>
      <trkpt lat="59.9513143" lon="17.7266247">
        <ele>37.1481</ele>
        <time>2014-06-17T11:33:39Z</time>
      </trkpt>
      <trkpt lat="59.9512977" lon="17.7266532">
        <ele>36.6675</ele>
        <time>2014-06-17T11:33:40Z</time>
      </trkpt>
      <trkpt lat="59.951279" lon="17.7266713">
        <ele>37.1481</ele>
        <time>2014-06-17T11:33:41Z</time>
      </trkpt>
      <trkpt lat="59.9512643" lon="17.7266958">
        <ele>36.6675</ele>
        <time>2014-06-17T11:33:42Z</time>
      </trkpt>
      <trkpt lat="59.9512483" lon="17.7267202">
        <ele>35.7061</ele>
        <time>2014-06-17T11:33:43Z</time>
      </trkpt>
      <trkpt lat="59.9512312" lon="17.7267417">
        <ele>35.7061</ele>
        <time>2014-06-17T11:33:44Z</time>
      </trkpt>
      <trkpt lat="59.9512158" lon="17.7267733">
        <ele>34.7449</ele>
        <time>2014-06-17T11:33:45Z</time>
      </trkpt>
      <trkpt lat="59.9511956" lon="17.7268014">
        <ele>33.7834</ele>
        <time>2014-06-17T11:33:46Z</time>
      </trkpt>
      <trkpt lat="59.9511713" lon="17.7268312">
        <ele>35.7061</ele>
        <time>2014-06-17T11:33:47Z</time>
      </trkpt>
      <trkpt lat="59.9511478" lon="17.7268604">
        <ele>37.1481</ele>
        <time>2014-06-17T11:33:48Z</time>
      </trkpt>
      <trkpt lat="59.9511206" lon="17.7268849">
        <ele>37.1481</ele>
        <time>2014-06-17T11:33:49Z</time>
      </trkpt>
      <trkpt lat="59.9510936" lon="17.7269085">
        <ele>38.1094</ele>
        <time>2014-06-17T11:33:50Z</time>
      </trkpt>
      <trkpt lat="59.9510718" lon="17.7269345">
        <ele>39.5513</ele>
        <time>2014-06-17T11:33:51Z</time>
      </trkpt>
      <trkpt lat="59.9510481" lon="17.7269573">
        <ele>40.5128</ele>
        <time>2014-06-17T11:33:52Z</time>
      </trkpt>
      <trkpt lat="59.9510241" lon="17.7269761">
        <ele>40.9934</ele>
        <time>2014-06-17T11:33:53Z</time>
      </trkpt>
      <trkpt lat="59.9510032" lon="17.7269937">
        <ele>40.9934</ele>
        <time>2014-06-17T11:33:54Z</time>
      </trkpt>
      <trkpt lat="59.9509835" lon="17.7270185">
        <ele>41.474</ele>
        <time>2014-06-17T11:33:55Z</time>
      </trkpt>
      <trkpt lat="59.950967" lon="17.7270457">
        <ele>41.9547</ele>
        <time>2014-06-17T11:33:56Z</time>
      </trkpt>
      <trkpt lat="59.9509497" lon="17.7270692">
        <ele>42.4354</ele>
        <time>2014-06-17T11:33:57Z</time>
      </trkpt>
      <trkpt lat="59.9509291" lon="17.727077">
        <ele>41.9547</ele>
        <time>2014-06-17T11:33:58Z</time>
      </trkpt>
      <trkpt lat="59.9509081" lon="17.7270889">
        <ele>41.9547</ele>
        <time>2014-06-17T11:33:59Z</time>
      </trkpt>
      <trkpt lat="59.9508906" lon="17.7271029">
        <ele>41.9547</ele>
        <time>2014-06-17T11:34:00Z</time>
      </trkpt>
      <trkpt lat="59.9508704" lon="17.7271168">
        <ele>41.9547</ele>
        <time>2014-06-17T11:34:01Z</time>
      </trkpt>
      <trkpt lat="59.9508481" lon="17.7271359">
        <ele>42.916</ele>
        <time>2014-06-17T11:34:02Z</time>
      </trkpt>
      <trkpt lat="59.9508274" lon="17.7271529">
        <ele>41.9547</ele>
        <time>2014-06-17T11:34:03Z</time>
      </trkpt>
      <trkpt lat="59.9508076" lon="17.7271723">
        <ele>42.4354</ele>
        <time>2014-06-17T11:34:04Z</time>
      </trkpt>
      <trkpt lat="59.9507868" lon="17.7271884">
        <ele>41.9547</ele>
        <time>2014-06-17T11:34:05Z</time>
      </trkpt>
      <trkpt lat="59.9507673" lon="17.7272033">
        <ele>42.4354</ele>
        <time>2014-06-17T11:34:06Z</time>
      </trkpt>
      <trkpt lat="59.9507517" lon="17.7272161">
        <ele>42.916</ele>
        <time>2014-06-17T11:34:07Z</time>
      </trkpt>
      <trkpt lat="59.9507288" lon="17.7272273">
        <ele>43.3966</ele>
        <time>2014-06-17T11:34:08Z</time>
      </trkpt>
      <trkpt lat="59.9507055" lon="17.7272515">
        <ele>43.3966</ele>
        <time>2014-06-17T11:34:09Z</time>
      </trkpt>
      <trkpt lat="59.95066" lon="17.727278">
        <ele>45.7999</ele>
        <time>2014-06-17T11:34:11Z</time>
      </trkpt>
      <trkpt lat="59.9506361" lon="17.7272914">
        <ele>47.2418</ele>
        <time>2014-06-17T11:34:12Z</time>
      </trkpt>
      <trkpt lat="59.9506135" lon="17.7273122">
        <ele>48.2034</ele>
        <time>2014-06-17T11:34:13Z</time>
      </trkpt>
      <trkpt lat="59.9505987" lon="17.7273383">
        <ele>48.2034</ele>
        <time>2014-06-17T11:34:14Z</time>
      </trkpt>
      <trkpt lat="59.9505797" lon="17.7273514">
        <ele>48.684</ele>
        <time>2014-06-17T11:34:15Z</time>
      </trkpt>
      <trkpt lat="59.9505616" lon="17.7273622">
        <ele>49.1646</ele>
        <time>2014-06-17T11:34:16Z</time>
      </trkpt>
      <trkpt lat="59.9505466" lon="17.7273716">
        <ele>49.6453</ele>
        <time>2014-06-17T11:34:17Z</time>
      </trkpt>
      <trkpt lat="59.9505257" lon="17.7273876">
        <ele>50.6066</ele>
        <time>2014-06-17T11:34:18Z</time>
      </trkpt>
      <trkpt lat="59.9505036" lon="17.7274017">
        <ele>52.0486</ele>
        <time>2014-06-17T11:34:19Z</time>
      </trkpt>
      <trkpt lat="59.9504843" lon="17.7274183">
        <ele>53.4905</ele>
        <time>2014-06-17T11:34:20Z</time>
      </trkpt>
      <trkpt lat="59.9504616" lon="17.7274591">
        <ele>54.9324</ele>
        <time>2014-06-17T11:34:21Z</time>
      </trkpt>
      <trkpt lat="59.9504381" lon="17.7274902">
        <ele>54.4518</ele>
        <time>2014-06-17T11:34:22Z</time>
      </trkpt>
      <trkpt lat="59.9504114" lon="17.7275152">
        <ele>53.9712</ele>
        <time>2014-06-17T11:34:23Z</time>
      </trkpt>
      <trkpt lat="59.9503926" lon="17.7275404">
        <ele>53.0098</ele>
        <time>2014-06-17T11:34:24Z</time>
      </trkpt>
      <trkpt lat="59.9503715" lon="17.7275585">
        <ele>54.4518</ele>
        <time>2014-06-17T11:34:25Z</time>
      </trkpt>
      <trkpt lat="59.9503451" lon="17.7275794">
        <ele>57.3358</ele>
        <time>2014-06-17T11:34:26Z</time>
      </trkpt>
      <trkpt lat="59.9503225" lon="17.7276034">
        <ele>55.8938</ele>
        <time>2014-06-17T11:34:27Z</time>
      </trkpt>
      <trkpt lat="59.9503005" lon="17.7276386">
        <ele>55.4131</ele>
        <time>2014-06-17T11:34:28Z</time>
      </trkpt>
      <trkpt lat="59.9502817" lon="17.7276626">
        <ele>55.4131</ele>
        <time>2014-06-17T11:34:29Z</time>
      </trkpt>
      <trkpt lat="59.9502575" lon="17.7277018">
        <ele>57.3358</ele>
        <time>2014-06-17T11:34:30Z</time>
      </trkpt>
      <trkpt lat="59.9502399" lon="17.7277348">
        <ele>57.3358</ele>
        <time>2014-06-17T11:34:31Z</time>
      </trkpt>
      <trkpt lat="59.9502233" lon="17.7277602">
        <ele>57.8165</ele>
        <time>2014-06-17T11:34:32Z</time>
      </trkpt>
      <trkpt lat="59.9502052" lon="17.7277983">
        <ele>55.8938</ele>
        <time>2014-06-17T11:34:33Z</time>
      </trkpt>
      <trkpt lat="59.9501944" lon="17.7278266">
        <ele>55.8938</ele>
        <time>2014-06-17T11:34:34Z</time>
      </trkpt>
      <trkpt lat="59.9501881" lon="17.7278633">
        <ele>55.4131</ele>
        <time>2014-06-17T11:34:35Z</time>
      </trkpt>
      <trkpt lat="59.9501761" lon="17.7278995">
        <ele>53.9712</ele>
        <time>2014-06-17T11:34:36Z</time>
      </trkpt>
      <trkpt lat="59.9501632" lon="17.7279255">
        <ele>53.4905</ele>
        <time>2014-06-17T11:34:37Z</time>
      </trkpt>
      <trkpt lat="59.9501488" lon="17.7279477">
        <ele>53.4905</ele>
        <time>2014-06-17T11:34:38Z</time>
      </trkpt>
      <trkpt lat="59.9501342" lon="17.7279834">
        <ele>53.0098</ele>
        <time>2014-06-17T11:34:39Z</time>
      </trkpt>
      <trkpt lat="59.9501166" lon="17.7280125">
        <ele>51.0872</ele>
        <time>2014-06-17T11:34:40Z</time>
      </trkpt>
      <trkpt lat="59.950101" lon="17.7280375">
        <ele>49.6453</ele>
        <time>2014-06-17T11:34:41Z</time>
      </trkpt>
      <trkpt lat="59.9500881" lon="17.7280622">
        <ele>49.1646</ele>
        <time>2014-06-17T11:34:42Z</time>
      </trkpt>
      <trkpt lat="59.9500762" lon="17.728089">
        <ele>47.2418</ele>
        <time>2014-06-17T11:34:43Z</time>
      </trkpt>
      <trkpt lat="59.9500664" lon="17.7281192">
        <ele>46.2806</ele>
        <time>2014-06-17T11:34:44Z</time>
      </trkpt>
      <trkpt lat="59.9500494" lon="17.7281563">
        <ele>45.3192</ele>
        <time>2014-06-17T11:34:45Z</time>
      </trkpt>
      <trkpt lat="59.9500377" lon="17.7281952">
        <ele>44.8386</ele>
        <time>2014-06-17T11:34:46Z</time>
      </trkpt>
      <trkpt lat="59.9500279" lon="17.7282364">
        <ele>43.8773</ele>
        <time>2014-06-17T11:34:47Z</time>
      </trkpt>
      <trkpt lat="59.9500166" lon="17.7282669">
        <ele>42.916</ele>
        <time>2014-06-17T11:34:48Z</time>
      </trkpt>
      <trkpt lat="59.9499973" lon="17.7282939">
        <ele>41.474</ele>
        <time>2014-06-17T11:34:49Z</time>
      </trkpt>
      <trkpt lat="59.9499786" lon="17.7283262">
        <ele>41.9547</ele>
        <time>2014-06-17T11:34:50Z</time>
      </trkpt>
      <trkpt lat="59.9499618" lon="17.7283471">
        <ele>40.9934</ele>
        <time>2014-06-17T11:34:51Z</time>
      </trkpt>
      <trkpt lat="59.9499442" lon="17.7283685">
        <ele>40.0321</ele>
        <time>2014-06-17T11:34:52Z</time>
      </trkpt>
      <trkpt lat="59.9499239" lon="17.7283972">
        <ele>40.5128</ele>
        <time>2014-06-17T11:34:53Z</time>
      </trkpt>
      <trkpt lat="59.9499074" lon="17.728431">
        <ele>40.0321</ele>
        <time>2014-06-17T11:34:54Z</time>
      </trkpt>
      <trkpt lat="59.9498896" lon="17.7284604">
        <ele>39.5513</ele>
        <time>2014-06-17T11:34:55Z</time>
      </trkpt>
      <trkpt lat="59.9498691" lon="17.7285078">
        <ele>40.5128</ele>
        <time>2014-06-17T11:34:56Z</time>
      </trkpt>
      <trkpt lat="59.949854" lon="17.7285471">
        <ele>40.0321</ele>
        <time>2014-06-17T11:34:57Z</time>
      </trkpt>
      <trkpt lat="59.9498457" lon="17.728573">
        <ele>38.1094</ele>
        <time>2014-06-17T11:34:58Z</time>
      </trkpt>
      <trkpt lat="59.9498338" lon="17.7286101">
        <ele>37.6287</ele>
        <time>2014-06-17T11:34:59Z</time>
      </trkpt>
      <trkpt lat="59.9498273" lon="17.7286548">
        <ele>38.1094</ele>
        <time>2014-06-17T11:35:00Z</time>
      </trkpt>
      <trkpt lat="59.9498175" lon="17.7286914">
        <ele>37.1481</ele>
        <time>2014-06-17T11:35:01Z</time>
      </trkpt>
      <trkpt lat="59.9498084" lon="17.7287294">
        <ele>36.6675</ele>
        <time>2014-06-17T11:35:02Z</time>
      </trkpt>
      <trkpt lat="59.9498011" lon="17.7287802">
        <ele>39.0707</ele>
        <time>2014-06-17T11:35:03Z</time>
      </trkpt>
      <trkpt lat="59.9497966" lon="17.7288367">
        <ele>40.9934</ele>
        <time>2014-06-17T11:35:04Z</time>
      </trkpt>
      <trkpt lat="59.9497949" lon="17.7288867">
        <ele>40.9934</ele>
        <time>2014-06-17T11:35:05Z</time>
      </trkpt>
      <trkpt lat="59.9497985" lon="17.7289474">
        <ele>41.474</ele>
        <time>2014-06-17T11:35:06Z</time>
      </trkpt>
      <trkpt lat="59.9498005" lon="17.7290013">
        <ele>41.474</ele>
        <time>2014-06-17T11:35:07Z</time>
      </trkpt>
      <trkpt lat="59.9497988" lon="17.7290444">
        <ele>40.9934</ele>
        <time>2014-06-17T11:35:08Z</time>
      </trkpt>
      <trkpt lat="59.9497922" lon="17.7290909">
        <ele>40.5128</ele>
        <time>2014-06-17T11:35:09Z</time>
      </trkpt>
      <trkpt lat="59.9497846" lon="17.7291391">
        <ele>40.9934</ele>
        <time>2014-06-17T11:35:10Z</time>
      </trkpt>
      <trkpt lat="59.9497815" lon="17.7291833">
        <ele>40.0321</ele>
        <time>2014-06-17T11:35:11Z</time>
      </trkpt>
      <trkpt lat="59.949776" lon="17.7292289">
        <ele>38.5901</ele>
        <time>2014-06-17T11:35:12Z</time>
      </trkpt>
      <trkpt lat="59.9497722" lon="17.7292719">
        <ele>39.0707</ele>
        <time>2014-06-17T11:35:13Z</time>
      </trkpt>
      <trkpt lat="59.949768" lon="17.7293225">
        <ele>39.0707</ele>
        <time>2014-06-17T11:35:14Z</time>
      </trkpt>
      <trkpt lat="59.9497649" lon="17.7293775">
        <ele>39.0707</ele>
        <time>2014-06-17T11:35:15Z</time>
      </trkpt>
      <trkpt lat="59.9497575" lon="17.7294298">
        <ele>40.0321</ele>
        <time>2014-06-17T11:35:16Z</time>
      </trkpt>
      <trkpt lat="59.9497484" lon="17.7294795">
        <ele>40.9934</ele>
        <time>2014-06-17T11:35:17Z</time>
      </trkpt>
      <trkpt lat="59.9497364" lon="17.7295251">
        <ele>41.474</ele>
        <time>2014-06-17T11:35:18Z</time>
      </trkpt>
      <trkpt lat="59.9497269" lon="17.7295707">
        <ele>41.474</ele>
        <time>2014-06-17T11:35:19Z</time>
      </trkpt>
      <trkpt lat="59.9497105" lon="17.7296136">
        <ele>41.9547</ele>
        <time>2014-06-17T11:35:20Z</time>
      </trkpt>
      <trkpt lat="59.9497" lon="17.7296528">
        <ele>42.916</ele>
        <time>2014-06-17T11:35:21Z</time>
      </trkpt>
      <trkpt lat="59.949685" lon="17.7296877">
        <ele>41.474</ele>
        <time>2014-06-17T11:35:22Z</time>
      </trkpt>
      <trkpt lat="59.9496664" lon="17.7297188">
        <ele>41.9547</ele>
        <time>2014-06-17T11:35:23Z</time>
      </trkpt>
      <trkpt lat="59.9496495" lon="17.7297555">
        <ele>40.5128</ele>
        <time>2014-06-17T11:35:24Z</time>
      </trkpt>
      <trkpt lat="59.9496328" lon="17.7297956">
        <ele>39.5513</ele>
        <time>2014-06-17T11:35:25Z</time>
      </trkpt>
      <trkpt lat="59.9496152" lon="17.7298287">
        <ele>39.0707</ele>
        <time>2014-06-17T11:35:26Z</time>
      </trkpt>
      <trkpt lat="59.9496069" lon="17.7298685">
        <ele>38.1094</ele>
        <time>2014-06-17T11:35:27Z</time>
      </trkpt>
      <trkpt lat="59.9495943" lon="17.729911">
        <ele>37.6287</ele>
        <time>2014-06-17T11:35:28Z</time>
      </trkpt>
      <trkpt lat="59.9495847" lon="17.7299512">
        <ele>37.1481</ele>
        <time>2014-06-17T11:35:29Z</time>
      </trkpt>
      <trkpt lat="59.9495799" lon="17.7299961">
        <ele>35.2255</ele>
        <time>2014-06-17T11:35:30Z</time>
      </trkpt>
      <trkpt lat="59.9495705" lon="17.730038">
        <ele>34.2642</ele>
        <time>2014-06-17T11:35:31Z</time>
      </trkpt>
      <trkpt lat="59.9495595" lon="17.7300795">
        <ele>32.8223</ele>
        <time>2014-06-17T11:35:32Z</time>
      </trkpt>
      <trkpt lat="59.9495555" lon="17.7301242">
        <ele>29.4575</ele>
        <time>2014-06-17T11:35:33Z</time>
      </trkpt>
      <trkpt lat="59.9495495" lon="17.7301659">
        <ele>27.5349</ele>
        <time>2014-06-17T11:35:34Z</time>
      </trkpt>
      <trkpt lat="59.949553" lon="17.7302135">
        <ele>25.6123</ele>
        <time>2014-06-17T11:35:35Z</time>
      </trkpt>
      <trkpt lat="59.949552" lon="17.7302627">
        <ele>27.0543</ele>
        <time>2014-06-17T11:35:36Z</time>
      </trkpt>
      <trkpt lat="59.9495535" lon="17.7303124">
        <ele>27.5349</ele>
        <time>2014-06-17T11:35:37Z</time>
      </trkpt>
      <trkpt lat="59.9495512" lon="17.7303549">
        <ele>25.1317</ele>
        <time>2014-06-17T11:35:38Z</time>
      </trkpt>
      <trkpt lat="59.949552" lon="17.7303951">
        <ele>22.7283</ele>
        <time>2014-06-17T11:35:39Z</time>
      </trkpt>
      <trkpt lat="59.9495447" lon="17.7304229">
        <ele>20.325</ele>
        <time>2014-06-17T11:35:40Z</time>
      </trkpt>
      <trkpt lat="59.9495396" lon="17.7304469">
        <ele>17.4412</ele>
        <time>2014-06-17T11:35:41Z</time>
      </trkpt>
      <trkpt lat="59.9495306" lon="17.7304947">
        <ele>19.3638</ele>
        <time>2014-06-17T11:35:42Z</time>
      </trkpt>
      <trkpt lat="59.9495214" lon="17.7305412">
        <ele>21.2864</ele>
        <time>2014-06-17T11:35:43Z</time>
      </trkpt>
      <trkpt lat="59.9495078" lon="17.730578">
        <ele>21.2864</ele>
        <time>2014-06-17T11:35:44Z</time>
      </trkpt>
      <trkpt lat="59.9494955" lon="17.7306181">
        <ele>22.7283</ele>
        <time>2014-06-17T11:35:45Z</time>
      </trkpt>
      <trkpt lat="59.9494835" lon="17.7306633">
        <ele>24.651</ele>
        <time>2014-06-17T11:35:46Z</time>
      </trkpt>
      <trkpt lat="59.949478" lon="17.7307155">
        <ele>26.5736</ele>
        <time>2014-06-17T11:35:47Z</time>
      </trkpt>
      <trkpt lat="59.9494715" lon="17.730773">
        <ele>28.4962</ele>
        <time>2014-06-17T11:35:48Z</time>
      </trkpt>
      <trkpt lat="59.9494643" lon="17.7308254">
        <ele>29.4575</ele>
        <time>2014-06-17T11:35:49Z</time>
      </trkpt>
      <trkpt lat="59.9494531" lon="17.7308666">
        <ele>31.3801</ele>
        <time>2014-06-17T11:35:50Z</time>
      </trkpt>
      <trkpt lat="59.9494354" lon="17.7309036">
        <ele>32.8223</ele>
        <time>2014-06-17T11:35:51Z</time>
      </trkpt>
      <trkpt lat="59.9494178" lon="17.7309401">
        <ele>34.2642</ele>
        <time>2014-06-17T11:35:52Z</time>
      </trkpt>
      <trkpt lat="59.9494041" lon="17.7309758">
        <ele>34.2642</ele>
        <time>2014-06-17T11:35:53Z</time>
      </trkpt>
      <trkpt lat="59.9493912" lon="17.7310174">
        <ele>35.7061</ele>
        <time>2014-06-17T11:35:54Z</time>
      </trkpt>
      <trkpt lat="59.9493827" lon="17.7310448">
        <ele>35.7061</ele>
        <time>2014-06-17T11:35:55Z</time>
      </trkpt>
      <trkpt lat="59.94937" lon="17.7310735">
        <ele>33.7834</ele>
        <time>2014-06-17T11:35:56Z</time>
      </trkpt>
      <trkpt lat="59.9493567" lon="17.7311086">
        <ele>35.7061</ele>
        <time>2014-06-17T11:35:57Z</time>
      </trkpt>
      <trkpt lat="59.9493418" lon="17.7311361">
        <ele>35.2255</ele>
        <time>2014-06-17T11:35:58Z</time>
      </trkpt>
      <trkpt lat="59.9493296" lon="17.7311699">
        <ele>33.7834</ele>
        <time>2014-06-17T11:35:59Z</time>
      </trkpt>
      <trkpt lat="59.9493169" lon="17.7312043">
        <ele>31.3801</ele>
        <time>2014-06-17T11:36:00Z</time>
      </trkpt>
      <trkpt lat="59.9493064" lon="17.7312381">
        <ele>29.9381</ele>
        <time>2014-06-17T11:36:01Z</time>
      </trkpt>
      <trkpt lat="59.9492945" lon="17.731265">
        <ele>29.4575</ele>
        <time>2014-06-17T11:36:02Z</time>
      </trkpt>
      <trkpt lat="59.9492883" lon="17.7312963">
        <ele>28.4962</ele>
        <time>2014-06-17T11:36:03Z</time>
      </trkpt>
      <trkpt lat="59.9492746" lon="17.7313241">
        <ele>27.0543</ele>
        <time>2014-06-17T11:36:04Z</time>
      </trkpt>
      <trkpt lat="59.9492648" lon="17.7313537">
        <ele>25.6123</ele>
        <time>2014-06-17T11:36:05Z</time>
      </trkpt>
      <trkpt lat="59.949257" lon="17.731392">
        <ele>24.1703</ele>
        <time>2014-06-17T11:36:06Z</time>
      </trkpt>
      <trkpt lat="59.9492432" lon="17.7314334">
        <ele>22.7283</ele>
        <time>2014-06-17T11:36:07Z</time>
      </trkpt>
      <trkpt lat="59.9492278" lon="17.7314716">
        <ele>22.7283</ele>
        <time>2014-06-17T11:36:08Z</time>
      </trkpt>
      <trkpt lat="59.9492132" lon="17.7314969">
        <ele>21.2864</ele>
        <time>2014-06-17T11:36:09Z</time>
      </trkpt>
      <trkpt lat="59.9491961" lon="17.7315268">
        <ele>20.8057</ele>
        <time>2014-06-17T11:36:10Z</time>
      </trkpt>
      <trkpt lat="59.9491767" lon="17.7315634">
        <ele>20.325</ele>
        <time>2014-06-17T11:36:11Z</time>
      </trkpt>
      <trkpt lat="59.9491598" lon="17.7315914">
        <ele>18.8831</ele>
        <time>2014-06-17T11:36:12Z</time>
      </trkpt>
      <trkpt lat="59.9491386" lon="17.7316228">
        <ele>17.9218</ele>
        <time>2014-06-17T11:36:13Z</time>
      </trkpt>
      <trkpt lat="59.9491184" lon="17.7316474">
        <ele>17.4412</ele>
        <time>2014-06-17T11:36:14Z</time>
      </trkpt>
      <trkpt lat="59.9491008" lon="17.7316891">
        <ele>16.9604</ele>
        <time>2014-06-17T11:36:15Z</time>
      </trkpt>
      <trkpt lat="59.9490857" lon="17.7317213">
        <ele>17.4412</ele>
        <time>2014-06-17T11:36:16Z</time>
      </trkpt>
      <trkpt lat="59.9490717" lon="17.7317516">
        <ele>17.4412</ele>
        <time>2014-06-17T11:36:17Z</time>
      </trkpt>
      <trkpt lat="59.9490567" lon="17.7317826">
        <ele>16.9604</ele>
        <time>2014-06-17T11:36:18Z</time>
      </trkpt>
      <trkpt lat="59.9490423" lon="17.7318059">
        <ele>15.5184</ele>
        <time>2014-06-17T11:36:19Z</time>
      </trkpt>
      <trkpt lat="59.949027" lon="17.7318272">
        <ele>15.5184</ele>
        <time>2014-06-17T11:36:20Z</time>
      </trkpt>
      <trkpt lat="59.9490121" lon="17.7318596">
        <ele>14.557</ele>
        <time>2014-06-17T11:36:21Z</time>
      </trkpt>
      <trkpt lat="59.9489889" lon="17.7319039">
        <ele>21.2864</ele>
        <time>2014-06-17T11:36:22Z</time>
      </trkpt>
      <trkpt lat="59.9489666" lon="17.7319256">
        <ele>21.767</ele>
        <time>2014-06-17T11:36:23Z</time>
      </trkpt>
      <trkpt lat="59.948941" lon="17.7319602">
        <ele>25.1317</ele>
        <time>2014-06-17T11:36:24Z</time>
      </trkpt>
      <trkpt lat="59.9489169" lon="17.7319908">
        <ele>27.5349</ele>
        <time>2014-06-17T11:36:25Z</time>
      </trkpt>
      <trkpt lat="59.9488946" lon="17.7320214">
        <ele>28.4962</ele>
        <time>2014-06-17T11:36:26Z</time>
      </trkpt>
      <trkpt lat="59.9488703" lon="17.7320574">
        <ele>29.9381</ele>
        <time>2014-06-17T11:36:27Z</time>
      </trkpt>
      <trkpt lat="59.9488403" lon="17.7320799">
        <ele>33.3029</ele>
        <time>2014-06-17T11:36:28Z</time>
      </trkpt>
      <trkpt lat="59.9488154" lon="17.7321059">
        <ele>34.2642</ele>
        <time>2014-06-17T11:36:29Z</time>
      </trkpt>
      <trkpt lat="59.9487988" lon="17.7321462">
        <ele>32.3416</ele>
        <time>2014-06-17T11:36:30Z</time>
      </trkpt>
      <trkpt lat="59.9487812" lon="17.7321912">
        <ele>30.8995</ele>
        <time>2014-06-17T11:36:31Z</time>
      </trkpt>
      <trkpt lat="59.9487625" lon="17.7322341">
        <ele>28.4962</ele>
        <time>2014-06-17T11:36:32Z</time>
      </trkpt>
      <trkpt lat="59.948749" lon="17.732268">
        <ele>30.8995</ele>
        <time>2014-06-17T11:36:33Z</time>
      </trkpt>
      <trkpt lat="59.9487351" lon="17.7322934">
        <ele>32.8223</ele>
        <time>2014-06-17T11:36:34Z</time>
      </trkpt>
      <trkpt lat="59.9487241" lon="17.7323218">
        <ele>31.8607</ele>
        <time>2014-06-17T11:36:35Z</time>
      </trkpt>
      <trkpt lat="59.9487064" lon="17.7323459">
        <ele>33.3029</ele>
        <time>2014-06-17T11:36:36Z</time>
      </trkpt>
      <trkpt lat="59.9486879" lon="17.7323699">
        <ele>35.7061</ele>
        <time>2014-06-17T11:36:37Z</time>
      </trkpt>
      <trkpt lat="59.9486713" lon="17.7324092">
        <ele>33.7834</ele>
        <time>2014-06-17T11:36:38Z</time>
      </trkpt>
      <trkpt lat="59.948652" lon="17.7324409">
        <ele>32.3416</ele>
        <time>2014-06-17T11:36:39Z</time>
      </trkpt>
      <trkpt lat="59.9486298" lon="17.7324675">
        <ele>32.3416</ele>
        <time>2014-06-17T11:36:40Z</time>
      </trkpt>
      <trkpt lat="59.9486072" lon="17.7324944">
        <ele>32.8223</ele>
        <time>2014-06-17T11:36:41Z</time>
      </trkpt>
      <trkpt lat="59.9485867" lon="17.7325192">
        <ele>33.7834</ele>
        <time>2014-06-17T11:36:42Z</time>
      </trkpt>
      <trkpt lat="59.9485671" lon="17.7325436">
        <ele>33.7834</ele>
        <time>2014-06-17T11:36:43Z</time>
      </trkpt>
      <trkpt lat="59.9485482" lon="17.7325679">
        <ele>34.2642</ele>
        <time>2014-06-17T11:36:44Z</time>
      </trkpt>
      <trkpt lat="59.9485231" lon="17.7325933">
        <ele>34.2642</ele>
        <time>2014-06-17T11:36:45Z</time>
      </trkpt>
      <trkpt lat="59.9484958" lon="17.7326189">
        <ele>33.3029</ele>
        <time>2014-06-17T11:36:46Z</time>
      </trkpt>
      <trkpt lat="59.948476" lon="17.7326491">
        <ele>32.8223</ele>
        <time>2014-06-17T11:36:47Z</time>
      </trkpt>
      <trkpt lat="59.9484562" lon="17.7326673">
        <ele>32.3416</ele>
        <time>2014-06-17T11:36:48Z</time>
      </trkpt>
      <trkpt lat="59.9484366" lon="17.7326775">
        <ele>31.3801</ele>
        <time>2014-06-17T11:36:49Z</time>
      </trkpt>
      <trkpt lat="59.9484194" lon="17.7326832">
        <ele>31.3801</ele>
        <time>2014-06-17T11:36:50Z</time>
      </trkpt>
      <trkpt lat="59.9484026" lon="17.7326913">
        <ele>30.4188</ele>
        <time>2014-06-17T11:36:51Z</time>
      </trkpt>
      <trkpt lat="59.9483838" lon="17.7326997">
        <ele>29.9381</ele>
        <time>2014-06-17T11:36:52Z</time>
      </trkpt>
      <trkpt lat="59.9483591" lon="17.7327146">
        <ele>29.4575</ele>
        <time>2014-06-17T11:36:53Z</time>
      </trkpt>
      <trkpt lat="59.9483315" lon="17.7327384">
        <ele>29.9381</ele>
        <time>2014-06-17T11:36:54Z</time>
      </trkpt>
      <trkpt lat="59.9483085" lon="17.7327564">
        <ele>29.9381</ele>
        <time>2014-06-17T11:36:55Z</time>
      </trkpt>
      <trkpt lat="59.9482858" lon="17.7327821">
        <ele>29.9381</ele>
        <time>2014-06-17T11:36:56Z</time>
      </trkpt>
      <trkpt lat="59.9482612" lon="17.7328075">
        <ele>31.8607</ele>
        <time>2014-06-17T11:36:57Z</time>
      </trkpt>
      <trkpt lat="59.9482418" lon="17.7328284">
        <ele>32.3416</ele>
        <time>2014-06-17T11:36:58Z</time>
      </trkpt>
      <trkpt lat="59.9482267" lon="17.732845">
        <ele>31.8607</ele>
        <time>2014-06-17T11:36:59Z</time>
      </trkpt>
      <trkpt lat="59.9482108" lon="17.7328714">
        <ele>32.3416</ele>
        <time>2014-06-17T11:37:00Z</time>
      </trkpt>
      <trkpt lat="59.9481922" lon="17.7329016">
        <ele>32.8223</ele>
        <time>2014-06-17T11:37:01Z</time>
      </trkpt>
      <trkpt lat="59.9481689" lon="17.7329434">
        <ele>33.7834</ele>
        <time>2014-06-17T11:37:02Z</time>
      </trkpt>
      <trkpt lat="59.9481532" lon="17.7329796">
        <ele>33.7834</ele>
        <time>2014-06-17T11:37:03Z</time>
      </trkpt>
      <trkpt lat="59.9481353" lon="17.7330138">
        <ele>34.7449</ele>
        <time>2014-06-17T11:37:04Z</time>
      </trkpt>
      <trkpt lat="59.9481181" lon="17.7330481">
        <ele>34.2642</ele>
        <time>2014-06-17T11:37:05Z</time>
      </trkpt>
      <trkpt lat="59.9481076" lon="17.7330848">
        <ele>34.7449</ele>
        <time>2014-06-17T11:37:06Z</time>
      </trkpt>
      <trkpt lat="59.9480967" lon="17.7331185">
        <ele>34.7449</ele>
        <time>2014-06-17T11:37:07Z</time>
      </trkpt>
      <trkpt lat="59.9480901" lon="17.7331417">
        <ele>32.8223</ele>
        <time>2014-06-17T11:37:08Z</time>
      </trkpt>
      <trkpt lat="59.9480886" lon="17.7331677">
        <ele>30.8995</ele>
        <time>2014-06-17T11:37:09Z</time>
      </trkpt>
      <trkpt lat="59.9480819" lon="17.7332049">
        <ele>28.4962</ele>
        <time>2014-06-17T11:37:10Z</time>
      </trkpt>
      <trkpt lat="59.9480733" lon="17.7332385">
        <ele>28.0155</ele>
        <time>2014-06-17T11:37:11Z</time>
      </trkpt>
      <trkpt lat="59.9480683" lon="17.7332738">
        <ele>27.5349</ele>
        <time>2014-06-17T11:37:12Z</time>
      </trkpt>
      <trkpt lat="59.9480585" lon="17.7333201">
        <ele>27.0543</ele>
        <time>2014-06-17T11:37:13Z</time>
      </trkpt>
      <trkpt lat="59.9480506" lon="17.7333592">
        <ele>27.0543</ele>
        <time>2014-06-17T11:37:14Z</time>
      </trkpt>
      <trkpt lat="59.9480404" lon="17.733388">
        <ele>25.1317</ele>
        <time>2014-06-17T11:37:15Z</time>
      </trkpt>
      <trkpt lat="59.9480249" lon="17.7334245">
        <ele>24.651</ele>
        <time>2014-06-17T11:37:16Z</time>
      </trkpt>
      <trkpt lat="59.9480155" lon="17.7334521">
        <ele>22.7283</ele>
        <time>2014-06-17T11:37:17Z</time>
      </trkpt>
      <trkpt lat="59.9480016" lon="17.7334825">
        <ele>22.7283</ele>
        <time>2014-06-17T11:37:18Z</time>
      </trkpt>
      <trkpt lat="59.9479948" lon="17.7335096">
        <ele>21.767</ele>
        <time>2014-06-17T11:37:19Z</time>
      </trkpt>
      <trkpt lat="59.9479832" lon="17.7335333">
        <ele>20.8057</ele>
        <time>2014-06-17T11:37:20Z</time>
      </trkpt>
      <trkpt lat="59.9479714" lon="17.7335527">
        <ele>20.8057</ele>
        <time>2014-06-17T11:37:21Z</time>
      </trkpt>
      <trkpt lat="59.9479617" lon="17.7335728">
        <ele>20.325</ele>
        <time>2014-06-17T11:37:22Z</time>
      </trkpt>
      <trkpt lat="59.9479508" lon="17.7335925">
        <ele>17.9218</ele>
        <time>2014-06-17T11:37:23Z</time>
      </trkpt>
      <trkpt lat="59.9479371" lon="17.7336137">
        <ele>17.4412</ele>
        <time>2014-06-17T11:37:24Z</time>
      </trkpt>
      <trkpt lat="59.9479223" lon="17.7336396">
        <ele>17.4412</ele>
        <time>2014-06-17T11:37:25Z</time>
      </trkpt>
      <trkpt lat="59.9479012" lon="17.7336898">
        <ele>18.8831</ele>
        <time>2014-06-17T11:37:26Z</time>
      </trkpt>
      <trkpt lat="59.9478836" lon="17.7337304">
        <ele>18.8831</ele>
        <time>2014-06-17T11:37:27Z</time>
      </trkpt>
      <trkpt lat="59.9478634" lon="17.7337917">
        <ele>20.325</ele>
        <time>2014-06-17T11:37:28Z</time>
      </trkpt>
      <trkpt lat="59.9478483" lon="17.7338459">
        <ele>20.325</ele>
        <time>2014-06-17T11:37:29Z</time>
      </trkpt>
      <trkpt lat="59.9478361" lon="17.7339053">
        <ele>21.767</ele>
        <time>2014-06-17T11:37:30Z</time>
      </trkpt>
      <trkpt lat="59.9478296" lon="17.7339409">
        <ele>19.3638</ele>
        <time>2014-06-17T11:37:31Z</time>
      </trkpt>
      <trkpt lat="59.9478228" lon="17.7339825">
        <ele>16.9604</ele>
        <time>2014-06-17T11:37:32Z</time>
      </trkpt>
      <trkpt lat="59.9478234" lon="17.7340261">
        <ele>15.999</ele>
        <time>2014-06-17T11:37:33Z</time>
      </trkpt>
      <trkpt lat="59.9478229" lon="17.734072">
        <ele>15.0377</ele>
        <time>2014-06-17T11:37:34Z</time>
      </trkpt>
      <trkpt lat="59.9478234" lon="17.734111">
        <ele>14.557</ele>
        <time>2014-06-17T11:37:35Z</time>
      </trkpt>
      <trkpt lat="59.9478235" lon="17.7341514">
        <ele>14.557</ele>
        <time>2014-06-17T11:37:36Z</time>
      </trkpt>
      <trkpt lat="59.9478265" lon="17.7341943">
        <ele>13.1151</ele>
        <time>2014-06-17T11:37:37Z</time>
      </trkpt>
      <trkpt lat="59.9478331" lon="17.7342424">
        <ele>11.1925</ele>
        <time>2014-06-17T11:37:38Z</time>
      </trkpt>
      <trkpt lat="59.9478398" lon="17.7342855">
        <ele>8.78918</ele>
        <time>2014-06-17T11:37:39Z</time>
      </trkpt>
      <trkpt lat="59.947842" lon="17.7343312">
        <ele>4.94385</ele>
        <time>2014-06-17T11:37:40Z</time>
      </trkpt>
      <trkpt lat="59.9478503" lon="17.7343797">
        <ele>4.46326</ele>
        <time>2014-06-17T11:37:41Z</time>
      </trkpt>
      <trkpt lat="59.9478544" lon="17.7344203">
        <ele>3.50195</ele>
        <time>2014-06-17T11:37:42Z</time>
      </trkpt>
      <trkpt lat="59.9478555" lon="17.7344653">
        <ele>3.98267</ele>
        <time>2014-06-17T11:37:43Z</time>
      </trkpt>
      <trkpt lat="59.9478579" lon="17.7345135">
        <ele>3.02124</ele>
        <time>2014-06-17T11:37:44Z</time>
      </trkpt>
      <trkpt lat="59.9478575" lon="17.7345584">
        <ele>2.06006</ele>
        <time>2014-06-17T11:37:45Z</time>
      </trkpt>
      <trkpt lat="59.9478627" lon="17.7346012">
        <ele>0.137451</ele>
        <time>2014-06-17T11:37:46Z</time>
      </trkpt>
      <trkpt lat="59.9478644" lon="17.7346503">
        <ele>0</ele>
        <time>2014-06-17T11:37:47Z</time>
      </trkpt>
      <trkpt lat="59.9478699" lon="17.7346939">
        <ele>0</ele>
        <time>2014-06-17T11:37:48Z</time>
      </trkpt>
      <trkpt lat="59.9478724" lon="17.7347409">
        <ele>0</ele>
        <time>2014-06-17T11:37:49Z</time>
      </trkpt>
      <trkpt lat="59.9478767" lon="17.7347918">
        <ele>0</ele>
        <time>2014-06-17T11:37:50Z</time>
      </trkpt>
      <trkpt lat="59.9478788" lon="17.7348408">
        <ele>0</ele>
        <time>2014-06-17T11:37:51Z</time>
      </trkpt>
      <trkpt lat="59.9478741" lon="17.7348864">
        <ele>0</ele>
        <time>2014-06-17T11:37:52Z</time>
      </trkpt>
      <trkpt lat="59.9478724" lon="17.7349291">
        <ele>0</ele>
        <time>2014-06-17T11:37:53Z</time>
      </trkpt>
      <trkpt lat="59.9478803" lon="17.7349679">
        <ele>0</ele>
        <time>2014-06-17T11:37:54Z</time>
      </trkpt>
      <trkpt lat="59.9478807" lon="17.7350055">
        <ele>0</ele>
        <time>2014-06-17T11:37:55Z</time>
      </trkpt>
      <trkpt lat="59.9478758" lon="17.7350408">
        <ele>0</ele>
        <time>2014-06-17T11:37:56Z</time>
      </trkpt>
      <trkpt lat="59.9478777" lon="17.7350803">
        <ele>0</ele>
        <time>2014-06-17T11:37:57Z</time>
      </trkpt>
      <trkpt lat="59.9478829" lon="17.7351128">
        <ele>0</ele>
        <time>2014-06-17T11:37:58Z</time>
      </trkpt>
      <trkpt lat="59.9478817" lon="17.7351476">
        <ele>0</ele>
        <time>2014-06-17T11:37:59Z</time>
      </trkpt>
      <trkpt lat="59.9478793" lon="17.7351873">
        <ele>0</ele>
        <time>2014-06-17T11:38:00Z</time>
      </trkpt>
      <trkpt lat="59.9478742" lon="17.7352287">
        <ele>0</ele>
        <time>2014-06-17T11:38:01Z</time>
      </trkpt>
      <trkpt lat="59.947875" lon="17.7352807">
        <ele>0</ele>
        <time>2014-06-17T11:38:02Z</time>
      </trkpt>
      <trkpt lat="59.9478672" lon="17.7353319">
        <ele>0</ele>
        <time>2014-06-17T11:38:03Z</time>
      </trkpt>
      <trkpt lat="59.9478597" lon="17.735375">
        <ele>0</ele>
        <time>2014-06-17T11:38:04Z</time>
      </trkpt>
      <trkpt lat="59.9478545" lon="17.7354264">
        <ele>0</ele>
        <time>2014-06-17T11:38:05Z</time>
      </trkpt>
      <trkpt lat="59.9478519" lon="17.7354818">
        <ele>0</ele>
        <time>2014-06-17T11:38:06Z</time>
      </trkpt>
      <trkpt lat="59.9478487" lon="17.7355281">
        <ele>0</ele>
        <time>2014-06-17T11:38:07Z</time>
      </trkpt>
      <trkpt lat="59.947844" lon="17.7355742">
        <ele>0</ele>
        <time>2014-06-17T11:38:08Z</time>
      </trkpt>
      <trkpt lat="59.9478389" lon="17.7356257">
        <ele>0</ele>
        <time>2014-06-17T11:38:09Z</time>
      </trkpt>
      <trkpt lat="59.9478338" lon="17.7356805">
        <ele>0</ele>
        <time>2014-06-17T11:38:10Z</time>
      </trkpt>
      <trkpt lat="59.9478266" lon="17.7357327">
        <ele>0</ele>
        <time>2014-06-17T11:38:11Z</time>
      </trkpt>
      <trkpt lat="59.9478144" lon="17.7357966">
        <ele>0</ele>
        <time>2014-06-17T11:38:12Z</time>
      </trkpt>
      <trkpt lat="59.9478016" lon="17.7358695">
        <ele>3.02124</ele>
        <time>2014-06-17T11:38:13Z</time>
      </trkpt>
      <trkpt lat="59.9477907" lon="17.7359347">
        <ele>8.78918</ele>
        <time>2014-06-17T11:38:14Z</time>
      </trkpt>
      <trkpt lat="59.9477804" lon="17.7359961">
        <ele>12.6344</ele>
        <time>2014-06-17T11:38:15Z</time>
      </trkpt>
      <trkpt lat="59.9477745" lon="17.7360599">
        <ele>15.0377</ele>
        <time>2014-06-17T11:38:16Z</time>
      </trkpt>
      <trkpt lat="59.9477632" lon="17.7361173">
        <ele>18.4023</ele>
        <time>2014-06-17T11:38:17Z</time>
      </trkpt>
      <trkpt lat="59.9477555" lon="17.7361673">
        <ele>20.8057</ele>
        <time>2014-06-17T11:38:18Z</time>
      </trkpt>
      <trkpt lat="59.9477489" lon="17.7362137">
        <ele>22.7283</ele>
        <time>2014-06-17T11:38:19Z</time>
      </trkpt>
      <trkpt lat="59.9477372" lon="17.736265">
        <ele>23.6896</ele>
        <time>2014-06-17T11:38:20Z</time>
      </trkpt>
      <trkpt lat="59.9477243" lon="17.7363106">
        <ele>23.209</ele>
        <time>2014-06-17T11:38:21Z</time>
      </trkpt>
      <trkpt lat="59.9477149" lon="17.7363638">
        <ele>24.1703</ele>
        <time>2014-06-17T11:38:22Z</time>
      </trkpt>
      <trkpt lat="59.9477001" lon="17.7364067">
        <ele>26.0929</ele>
        <time>2014-06-17T11:38:23Z</time>
      </trkpt>
      <trkpt lat="59.9476836" lon="17.7364514">
        <ele>26.0929</ele>
        <time>2014-06-17T11:38:24Z</time>
      </trkpt>
      <trkpt lat="59.9476675" lon="17.7365027">
        <ele>26.5736</ele>
        <time>2014-06-17T11:38:25Z</time>
      </trkpt>
      <trkpt lat="59.9476591" lon="17.7365493">
        <ele>25.1317</ele>
        <time>2014-06-17T11:38:26Z</time>
      </trkpt>
      <trkpt lat="59.9476487" lon="17.7365952">
        <ele>22.2476</ele>
        <time>2014-06-17T11:38:27Z</time>
      </trkpt>
      <trkpt lat="59.9476391" lon="17.7366351">
        <ele>20.8057</ele>
        <time>2014-06-17T11:38:28Z</time>
      </trkpt>
      <trkpt lat="59.947625" lon="17.7366683">
        <ele>18.4023</ele>
        <time>2014-06-17T11:38:29Z</time>
      </trkpt>
      <trkpt lat="59.9476073" lon="17.7366944">
        <ele>15.5184</ele>
        <time>2014-06-17T11:38:30Z</time>
      </trkpt>
      <trkpt lat="59.9475969" lon="17.7367255">
        <ele>15.5184</ele>
        <time>2014-06-17T11:38:31Z</time>
      </trkpt>
      <trkpt lat="59.9475839" lon="17.7367599">
        <ele>16.4797</ele>
        <time>2014-06-17T11:38:32Z</time>
      </trkpt>
      <trkpt lat="59.9475743" lon="17.7368011">
        <ele>15.0377</ele>
        <time>2014-06-17T11:38:33Z</time>
      </trkpt>
      <trkpt lat="59.9475612" lon="17.7368403">
        <ele>14.0764</ele>
        <time>2014-06-17T11:38:34Z</time>
      </trkpt>
      <trkpt lat="59.9475462" lon="17.7368829">
        <ele>14.0764</ele>
        <time>2014-06-17T11:38:35Z</time>
      </trkpt>
      <trkpt lat="59.9475296" lon="17.7369208">
        <ele>13.5958</ele>
        <time>2014-06-17T11:38:36Z</time>
      </trkpt>
      <trkpt lat="59.9475145" lon="17.7369668">
        <ele>14.0764</ele>
        <time>2014-06-17T11:38:37Z</time>
      </trkpt>
      <trkpt lat="59.9475022" lon="17.7370123">
        <ele>13.1151</ele>
        <time>2014-06-17T11:38:38Z</time>
      </trkpt>
      <trkpt lat="59.9474938" lon="17.7370398">
        <ele>11.6732</ele>
        <time>2014-06-17T11:38:39Z</time>
      </trkpt>
      <trkpt lat="59.947482" lon="17.73707">
        <ele>12.1538</ele>
        <time>2014-06-17T11:38:40Z</time>
      </trkpt>
      <trkpt lat="59.9474662" lon="17.7371077">
        <ele>12.1538</ele>
        <time>2014-06-17T11:38:41Z</time>
      </trkpt>
      <trkpt lat="59.947446" lon="17.7371449">
        <ele>13.5958</ele>
        <time>2014-06-17T11:38:42Z</time>
      </trkpt>
      <trkpt lat="59.9474277" lon="17.7371715">
        <ele>14.557</ele>
        <time>2014-06-17T11:38:43Z</time>
      </trkpt>
      <trkpt lat="59.9474091" lon="17.7371989">
        <ele>14.557</ele>
        <time>2014-06-17T11:38:44Z</time>
      </trkpt>
      <trkpt lat="59.9473918" lon="17.7372097">
        <ele>15.0377</ele>
        <time>2014-06-17T11:38:45Z</time>
      </trkpt>
      <trkpt lat="59.9473717" lon="17.7372297">
        <ele>16.9604</ele>
        <time>2014-06-17T11:38:46Z</time>
      </trkpt>
      <trkpt lat="59.9473592" lon="17.7372414">
        <ele>16.9604</ele>
        <time>2014-06-17T11:38:47Z</time>
      </trkpt>
      <trkpt lat="59.9473394" lon="17.7372389">
        <ele>17.9218</ele>
        <time>2014-06-17T11:38:48Z</time>
      </trkpt>
      <trkpt lat="59.9473141" lon="17.7372496">
        <ele>18.4023</ele>
        <time>2014-06-17T11:38:49Z</time>
      </trkpt>
      <trkpt lat="59.9472961" lon="17.7372625">
        <ele>17.9218</ele>
        <time>2014-06-17T11:38:50Z</time>
      </trkpt>
      <trkpt lat="59.9472774" lon="17.7372603">
        <ele>18.8831</ele>
        <time>2014-06-17T11:38:51Z</time>
      </trkpt>
      <trkpt lat="59.9472515" lon="17.7372728">
        <ele>19.3638</ele>
        <time>2014-06-17T11:38:52Z</time>
      </trkpt>
      <trkpt lat="59.9472282" lon="17.7372894">
        <ele>19.3638</ele>
        <time>2014-06-17T11:38:53Z</time>
      </trkpt>
      <trkpt lat="59.9472095" lon="17.7373009">
        <ele>19.3638</ele>
        <time>2014-06-17T11:38:54Z</time>
      </trkpt>
      <trkpt lat="59.9471848" lon="17.7373083">
        <ele>20.325</ele>
        <time>2014-06-17T11:38:55Z</time>
      </trkpt>
      <trkpt lat="59.9471609" lon="17.7373179">
        <ele>20.325</ele>
        <time>2014-06-17T11:38:56Z</time>
      </trkpt>
      <trkpt lat="59.947141" lon="17.7373178">
        <ele>21.2864</ele>
        <time>2014-06-17T11:38:57Z</time>
      </trkpt>
      <trkpt lat="59.9471199" lon="17.7373139">
        <ele>23.209</ele>
        <time>2014-06-17T11:38:58Z</time>
      </trkpt>
      <trkpt lat="59.9470987" lon="17.7373159">
        <ele>23.6896</ele>
        <time>2014-06-17T11:38:59Z</time>
      </trkpt>
      <trkpt lat="59.9470769" lon="17.7373209">
        <ele>25.1317</ele>
        <time>2014-06-17T11:39:00Z</time>
      </trkpt>
      <trkpt lat="59.9470578" lon="17.7373269">
        <ele>25.1317</ele>
        <time>2014-06-17T11:39:01Z</time>
      </trkpt>
      <trkpt lat="59.9470358" lon="17.7373418">
        <ele>26.0929</ele>
        <time>2014-06-17T11:39:02Z</time>
      </trkpt>
      <trkpt lat="59.9470153" lon="17.7373615">
        <ele>27.0543</ele>
        <time>2014-06-17T11:39:03Z</time>
      </trkpt>
      <trkpt lat="59.946993" lon="17.7373608">
        <ele>28.0155</ele>
        <time>2014-06-17T11:39:04Z</time>
      </trkpt>
      <trkpt lat="59.946969" lon="17.7373745">
        <ele>28.0155</ele>
        <time>2014-06-17T11:39:05Z</time>
      </trkpt>
      <trkpt lat="59.9469586" lon="17.7373983">
        <ele>28.9769</ele>
        <time>2014-06-17T11:39:06Z</time>
      </trkpt>
      <trkpt lat="59.9469469" lon="17.7374149">
        <ele>29.9381</ele>
        <time>2014-06-17T11:39:07Z</time>
      </trkpt>
      <trkpt lat="59.9469319" lon="17.7374492">
        <ele>29.9381</ele>
        <time>2014-06-17T11:39:08Z</time>
      </trkpt>
      <trkpt lat="59.9469161" lon="17.7374681">
        <ele>29.9381</ele>
        <time>2014-06-17T11:39:09Z</time>
      </trkpt>
      <trkpt lat="59.9468967" lon="17.7374888">
        <ele>30.8995</ele>
        <time>2014-06-17T11:39:10Z</time>
      </trkpt>
      <trkpt lat="59.9468733" lon="17.7375184">
        <ele>30.4188</ele>
        <time>2014-06-17T11:39:11Z</time>
      </trkpt>
      <trkpt lat="59.9468498" lon="17.7375668">
        <ele>30.8995</ele>
        <time>2014-06-17T11:39:12Z</time>
      </trkpt>
      <trkpt lat="59.9468272" lon="17.7376101">
        <ele>30.4188</ele>
        <time>2014-06-17T11:39:13Z</time>
      </trkpt>
      <trkpt lat="59.9468086" lon="17.7376655">
        <ele>37.1481</ele>
        <time>2014-06-17T11:39:14Z</time>
      </trkpt>
      <trkpt lat="59.946793" lon="17.7376958">
        <ele>36.6675</ele>
        <time>2014-06-17T11:39:15Z</time>
      </trkpt>
      <trkpt lat="59.9467791" lon="17.7377381">
        <ele>35.7061</ele>
        <time>2014-06-17T11:39:16Z</time>
      </trkpt>
      <trkpt lat="59.9467661" lon="17.7377729">
        <ele>34.7449</ele>
        <time>2014-06-17T11:39:17Z</time>
      </trkpt>
      <trkpt lat="59.9467568" lon="17.7378118">
        <ele>34.7449</ele>
        <time>2014-06-17T11:39:18Z</time>
      </trkpt>
      <trkpt lat="59.9467454" lon="17.7378434">
        <ele>34.7449</ele>
        <time>2014-06-17T11:39:19Z</time>
      </trkpt>
      <trkpt lat="59.9467282" lon="17.7378914">
        <ele>39.5513</ele>
        <time>2014-06-17T11:39:20Z</time>
      </trkpt>
      <trkpt lat="59.9467168" lon="17.7379443">
        <ele>43.8773</ele>
        <time>2014-06-17T11:39:21Z</time>
      </trkpt>
      <trkpt lat="59.9467133" lon="17.7379727">
        <ele>42.916</ele>
        <time>2014-06-17T11:39:22Z</time>
      </trkpt>
      <trkpt lat="59.9466999" lon="17.7380166">
        <ele>41.474</ele>
        <time>2014-06-17T11:39:23Z</time>
      </trkpt>
      <trkpt lat="59.9466859" lon="17.7380446">
        <ele>40.0321</ele>
        <time>2014-06-17T11:39:24Z</time>
      </trkpt>
      <trkpt lat="59.9466718" lon="17.7380727">
        <ele>39.0707</ele>
        <time>2014-06-17T11:39:25Z</time>
      </trkpt>
      <trkpt lat="59.9466562" lon="17.7380966">
        <ele>37.1481</ele>
        <time>2014-06-17T11:39:26Z</time>
      </trkpt>
      <trkpt lat="59.946626" lon="17.7381276">
        <ele>39.5513</ele>
        <time>2014-06-17T11:39:27Z</time>
      </trkpt>
      <trkpt lat="59.9466055" lon="17.7381608">
        <ele>37.6287</ele>
        <time>2014-06-17T11:39:28Z</time>
      </trkpt>
      <trkpt lat="59.9465926" lon="17.738199">
        <ele>35.2255</ele>
        <time>2014-06-17T11:39:29Z</time>
      </trkpt>
      <trkpt lat="59.9465799" lon="17.738244">
        <ele>33.7834</ele>
        <time>2014-06-17T11:39:30Z</time>
      </trkpt>
      <trkpt lat="59.9465708" lon="17.7382881">
        <ele>32.8223</ele>
        <time>2014-06-17T11:39:31Z</time>
      </trkpt>
      <trkpt lat="59.9465646" lon="17.738325">
        <ele>31.8607</ele>
        <time>2014-06-17T11:39:32Z</time>
      </trkpt>
      <trkpt lat="59.946548" lon="17.7383545">
        <ele>31.3801</ele>
        <time>2014-06-17T11:39:33Z</time>
      </trkpt>
      <trkpt lat="59.946532" lon="17.7383951">
        <ele>29.9381</ele>
        <time>2014-06-17T11:39:34Z</time>
      </trkpt>
      <trkpt lat="59.9465229" lon="17.7384323">
        <ele>27.5349</ele>
        <time>2014-06-17T11:39:35Z</time>
      </trkpt>
      <trkpt lat="59.9465066" lon="17.7384683">
        <ele>26.5736</ele>
        <time>2014-06-17T11:39:36Z</time>
      </trkpt>
      <trkpt lat="59.9464889" lon="17.7384906">
        <ele>25.1317</ele>
        <time>2014-06-17T11:39:37Z</time>
      </trkpt>
      <trkpt lat="59.9464646" lon="17.7385134">
        <ele>23.209</ele>
        <time>2014-06-17T11:39:38Z</time>
      </trkpt>
      <trkpt lat="59.9464408" lon="17.7385443">
        <ele>23.209</ele>
        <time>2014-06-17T11:39:39Z</time>
      </trkpt>
      <trkpt lat="59.9464247" lon="17.7385768">
        <ele>22.2476</ele>
        <time>2014-06-17T11:39:40Z</time>
      </trkpt>
      <trkpt lat="59.9464109" lon="17.7386115">
        <ele>21.767</ele>
        <time>2014-06-17T11:39:41Z</time>
      </trkpt>
      <trkpt lat="59.946401" lon="17.7386362">
        <ele>20.325</ele>
        <time>2014-06-17T11:39:42Z</time>
      </trkpt>
      <trkpt lat="59.9463911" lon="17.7386649">
        <ele>19.8444</ele>
        <time>2014-06-17T11:39:43Z</time>
      </trkpt>
      <trkpt lat="59.9463741" lon="17.738687">
        <ele>19.8444</ele>
        <time>2014-06-17T11:39:44Z</time>
      </trkpt>
      <trkpt lat="59.9463512" lon="17.7387107">
        <ele>18.8831</ele>
        <time>2014-06-17T11:39:45Z</time>
      </trkpt>
      <trkpt lat="59.9463263" lon="17.7387389">
        <ele>17.9218</ele>
        <time>2014-06-17T11:39:46Z</time>
      </trkpt>
      <trkpt lat="59.9463018" lon="17.7387695">
        <ele>16.9604</ele>
        <time>2014-06-17T11:39:47Z</time>
      </trkpt>
      <trkpt lat="59.9462744" lon="17.7388032">
        <ele>16.9604</ele>
        <time>2014-06-17T11:39:48Z</time>
      </trkpt>
      <trkpt lat="59.9462491" lon="17.7388207">
        <ele>16.9604</ele>
        <time>2014-06-17T11:39:49Z</time>
      </trkpt>
      <trkpt lat="59.946222" lon="17.7388516">
        <ele>17.4412</ele>
        <time>2014-06-17T11:39:50Z</time>
      </trkpt>
      <trkpt lat="59.9461995" lon="17.7388696">
        <ele>18.4023</ele>
        <time>2014-06-17T11:39:51Z</time>
      </trkpt>
      <trkpt lat="59.9461713" lon="17.7388927">
        <ele>22.7283</ele>
        <time>2014-06-17T11:39:52Z</time>
      </trkpt>
      <trkpt lat="59.9461415" lon="17.7389104">
        <ele>24.651</ele>
        <time>2014-06-17T11:39:53Z</time>
      </trkpt>
      <trkpt lat="59.9461101" lon="17.7389283">
        <ele>28.0155</ele>
        <time>2014-06-17T11:39:54Z</time>
      </trkpt>
      <trkpt lat="59.9460884" lon="17.738931">
        <ele>27.0543</ele>
        <time>2014-06-17T11:39:55Z</time>
      </trkpt>
      <trkpt lat="59.9460676" lon="17.7389269">
        <ele>26.0929</ele>
        <time>2014-06-17T11:39:56Z</time>
      </trkpt>
      <trkpt lat="59.9460455" lon="17.7389269">
        <ele>26.0929</ele>
        <time>2014-06-17T11:39:57Z</time>
      </trkpt>
      <trkpt lat="59.9460228" lon="17.7389234">
        <ele>25.6123</ele>
        <time>2014-06-17T11:39:58Z</time>
      </trkpt>
      <trkpt lat="59.9460037" lon="17.7389306">
        <ele>25.6123</ele>
        <time>2014-06-17T11:39:59Z</time>
      </trkpt>
      <trkpt lat="59.9459881" lon="17.7389364">
        <ele>25.1317</ele>
        <time>2014-06-17T11:40:00Z</time>
      </trkpt>
      <trkpt lat="59.9459695" lon="17.7389373">
        <ele>24.651</ele>
        <time>2014-06-17T11:40:01Z</time>
      </trkpt>
      <trkpt lat="59.9459482" lon="17.7389454">
        <ele>23.6896</ele>
        <time>2014-06-17T11:40:02Z</time>
      </trkpt>
      <trkpt lat="59.9459272" lon="17.7389599">
        <ele>23.209</ele>
        <time>2014-06-17T11:40:03Z</time>
      </trkpt>
      <trkpt lat="59.9459031" lon="17.7389799">
        <ele>23.6896</ele>
        <time>2014-06-17T11:40:04Z</time>
      </trkpt>
      <trkpt lat="59.9458808" lon="17.7389974">
        <ele>24.1703</ele>
        <time>2014-06-17T11:40:05Z</time>
      </trkpt>
      <trkpt lat="59.9458602" lon="17.7390053">
        <ele>24.651</ele>
        <time>2014-06-17T11:40:06Z</time>
      </trkpt>
      <trkpt lat="59.9458384" lon="17.7390088">
        <ele>25.6123</ele>
        <time>2014-06-17T11:40:07Z</time>
      </trkpt>
      <trkpt lat="59.9458175" lon="17.7390197">
        <ele>25.6123</ele>
        <time>2014-06-17T11:40:08Z</time>
      </trkpt>
      <trkpt lat="59.9457953" lon="17.7390414">
        <ele>26.0929</ele>
        <time>2014-06-17T11:40:09Z</time>
      </trkpt>
      <trkpt lat="59.9457736" lon="17.7390569">
        <ele>25.1317</ele>
        <time>2014-06-17T11:40:10Z</time>
      </trkpt>
      <trkpt lat="59.9457478" lon="17.7390825">
        <ele>28.4962</ele>
        <time>2014-06-17T11:40:11Z</time>
      </trkpt>
      <trkpt lat="59.9457201" lon="17.7391058">
        <ele>32.3416</ele>
        <time>2014-06-17T11:40:12Z</time>
      </trkpt>
      <trkpt lat="59.9456995" lon="17.7391279">
        <ele>32.3416</ele>
        <time>2014-06-17T11:40:13Z</time>
      </trkpt>
      <trkpt lat="59.9456835" lon="17.7391397">
        <ele>31.8607</ele>
        <time>2014-06-17T11:40:14Z</time>
      </trkpt>
      <trkpt lat="59.9456664" lon="17.7391712">
        <ele>34.7449</ele>
        <time>2014-06-17T11:40:15Z</time>
      </trkpt>
      <trkpt lat="59.9456429" lon="17.7392146">
        <ele>39.0707</ele>
        <time>2014-06-17T11:40:16Z</time>
      </trkpt>
      <trkpt lat="59.9456214" lon="17.7392492">
        <ele>40.9934</ele>
        <time>2014-06-17T11:40:17Z</time>
      </trkpt>
      <trkpt lat="59.9455993" lon="17.7392766">
        <ele>40.5128</ele>
        <time>2014-06-17T11:40:18Z</time>
      </trkpt>
      <trkpt lat="59.9455783" lon="17.7392959">
        <ele>40.5128</ele>
        <time>2014-06-17T11:40:19Z</time>
      </trkpt>
      <trkpt lat="59.945554" lon="17.7393238">
        <ele>39.0707</ele>
        <time>2014-06-17T11:40:20Z</time>
      </trkpt>
      <trkpt lat="59.9455255" lon="17.7393486">
        <ele>39.5513</ele>
        <time>2014-06-17T11:40:21Z</time>
      </trkpt>
      <trkpt lat="59.9455" lon="17.7393705">
        <ele>39.0707</ele>
        <time>2014-06-17T11:40:22Z</time>
      </trkpt>
      <trkpt lat="59.9454737" lon="17.7393969">
        <ele>41.9547</ele>
        <time>2014-06-17T11:40:23Z</time>
      </trkpt>
      <trkpt lat="59.9454504" lon="17.7394214">
        <ele>42.4354</ele>
        <time>2014-06-17T11:40:24Z</time>
      </trkpt>
      <trkpt lat="59.9454322" lon="17.7394453">
        <ele>42.4354</ele>
        <time>2014-06-17T11:40:25Z</time>
      </trkpt>
      <trkpt lat="59.9454104" lon="17.739465">
        <ele>41.9547</ele>
        <time>2014-06-17T11:40:26Z</time>
      </trkpt>
      <trkpt lat="59.9453865" lon="17.7394979">
        <ele>41.474</ele>
        <time>2014-06-17T11:40:27Z</time>
      </trkpt>
      <trkpt lat="59.9453586" lon="17.7395143">
        <ele>41.474</ele>
        <time>2014-06-17T11:40:28Z</time>
      </trkpt>
      <trkpt lat="59.9453316" lon="17.7395299">
        <ele>41.9547</ele>
        <time>2014-06-17T11:40:29Z</time>
      </trkpt>
      <trkpt lat="59.9453033" lon="17.7395372">
        <ele>41.9547</ele>
        <time>2014-06-17T11:40:30Z</time>
      </trkpt>
      <trkpt lat="59.9452716" lon="17.7395241">
        <ele>41.9547</ele>
        <time>2014-06-17T11:40:31Z</time>
      </trkpt>
      <trkpt lat="59.9452421" lon="17.7395102">
        <ele>41.474</ele>
        <time>2014-06-17T11:40:32Z</time>
      </trkpt>
      <trkpt lat="59.9452077" lon="17.7394896">
        <ele>41.9547</ele>
        <time>2014-06-17T11:40:33Z</time>
      </trkpt>
      <trkpt lat="59.9451777" lon="17.7394641">
        <ele>42.4354</ele>
        <time>2014-06-17T11:40:34Z</time>
      </trkpt>
      <trkpt lat="59.9451502" lon="17.7394411">
        <ele>42.4354</ele>
        <time>2014-06-17T11:40:35Z</time>
      </trkpt>
      <trkpt lat="59.9451199" lon="17.7394261">
        <ele>42.916</ele>
        <time>2014-06-17T11:40:36Z</time>
      </trkpt>
      <trkpt lat="59.9450948" lon="17.7394102">
        <ele>41.9547</ele>
        <time>2014-06-17T11:40:37Z</time>
      </trkpt>
      <trkpt lat="59.9450779" lon="17.7393922">
        <ele>40.5128</ele>
        <time>2014-06-17T11:40:38Z</time>
      </trkpt>
      <trkpt lat="59.9450603" lon="17.7393731">
        <ele>40.0321</ele>
        <time>2014-06-17T11:40:39Z</time>
      </trkpt>
      <trkpt lat="59.9450344" lon="17.7393448">
        <ele>38.5901</ele>
        <time>2014-06-17T11:40:40Z</time>
      </trkpt>
      <trkpt lat="59.9450174" lon="17.7393345">
        <ele>37.6287</ele>
        <time>2014-06-17T11:40:41Z</time>
      </trkpt>
      <trkpt lat="59.9449959" lon="17.7393316">
        <ele>38.5901</ele>
        <time>2014-06-17T11:40:42Z</time>
      </trkpt>
      <trkpt lat="59.9449694" lon="17.7393118">
        <ele>38.1094</ele>
        <time>2014-06-17T11:40:43Z</time>
      </trkpt>
      <trkpt lat="59.9449549" lon="17.739305">
        <ele>38.5901</ele>
        <time>2014-06-17T11:40:44Z</time>
      </trkpt>
      <trkpt lat="59.9449333" lon="17.7392994">
        <ele>39.0707</ele>
        <time>2014-06-17T11:40:45Z</time>
      </trkpt>
      <trkpt lat="59.9449158" lon="17.7392933">
        <ele>39.0707</ele>
        <time>2014-06-17T11:40:46Z</time>
      </trkpt>
      <trkpt lat="59.9448997" lon="17.7392806">
        <ele>38.1094</ele>
        <time>2014-06-17T11:40:47Z</time>
      </trkpt>
      <trkpt lat="59.9448822" lon="17.7392621">
        <ele>36.6675</ele>
        <time>2014-06-17T11:40:48Z</time>
      </trkpt>
      <trkpt lat="59.9448661" lon="17.7392497">
        <ele>36.6675</ele>
        <time>2014-06-17T11:40:49Z</time>
      </trkpt>
      <trkpt lat="59.9448515" lon="17.7392409">
        <ele>36.6675</ele>
        <time>2014-06-17T11:40:50Z</time>
      </trkpt>
      <trkpt lat="59.9448322" lon="17.7392379">
        <ele>36.1868</ele>
        <time>2014-06-17T11:40:51Z</time>
      </trkpt>
      <trkpt lat="59.9448088" lon="17.7392238">
        <ele>35.2255</ele>
        <time>2014-06-17T11:40:52Z</time>
      </trkpt>
      <trkpt lat="59.9447843" lon="17.7392094">
        <ele>34.7449</ele>
        <time>2014-06-17T11:40:53Z</time>
      </trkpt>
      <trkpt lat="59.944767" lon="17.7392103">
        <ele>34.7449</ele>
        <time>2014-06-17T11:40:54Z</time>
      </trkpt>
      <trkpt lat="59.9447444" lon="17.7392134">
        <ele>34.2642</ele>
        <time>2014-06-17T11:40:55Z</time>
      </trkpt>
      <trkpt lat="59.944721" lon="17.7392175">
        <ele>33.7834</ele>
        <time>2014-06-17T11:40:56Z</time>
      </trkpt>
      <trkpt lat="59.9446941" lon="17.7392269">
        <ele>33.7834</ele>
        <time>2014-06-17T11:40:57Z</time>
      </trkpt>
      <trkpt lat="59.9446641" lon="17.7392516">
        <ele>38.5901</ele>
        <time>2014-06-17T11:40:58Z</time>
      </trkpt>
      <trkpt lat="59.9446428" lon="17.7392681">
        <ele>38.5901</ele>
        <time>2014-06-17T11:40:59Z</time>
      </trkpt>
      <trkpt lat="59.9446201" lon="17.7392771">
        <ele>38.5901</ele>
        <time>2014-06-17T11:41:00Z</time>
      </trkpt>
      <trkpt lat="59.9445946" lon="17.7392911">
        <ele>38.5901</ele>
        <time>2014-06-17T11:41:01Z</time>
      </trkpt>
      <trkpt lat="59.9445733" lon="17.7393078">
        <ele>37.6287</ele>
        <time>2014-06-17T11:41:02Z</time>
      </trkpt>
      <trkpt lat="59.9445552" lon="17.7393299">
        <ele>37.6287</ele>
        <time>2014-06-17T11:41:03Z</time>
      </trkpt>
      <trkpt lat="59.9445366" lon="17.7393616">
        <ele>37.1481</ele>
        <time>2014-06-17T11:41:04Z</time>
      </trkpt>
      <trkpt lat="59.9445175" lon="17.7393834">
        <ele>36.6675</ele>
        <time>2014-06-17T11:41:05Z</time>
      </trkpt>
      <trkpt lat="59.9444949" lon="17.7394036">
        <ele>36.6675</ele>
        <time>2014-06-17T11:41:06Z</time>
      </trkpt>
      <trkpt lat="59.9444751" lon="17.7394269">
        <ele>35.7061</ele>
        <time>2014-06-17T11:41:07Z</time>
      </trkpt>
      <trkpt lat="59.9444574" lon="17.7394584">
        <ele>35.2255</ele>
        <time>2014-06-17T11:41:08Z</time>
      </trkpt>
      <trkpt lat="59.944438" lon="17.7394837">
        <ele>36.1868</ele>
        <time>2014-06-17T11:41:09Z</time>
      </trkpt>
      <trkpt lat="59.9444174" lon="17.739504">
        <ele>35.7061</ele>
        <time>2014-06-17T11:41:10Z</time>
      </trkpt>
      <trkpt lat="59.9443927" lon="17.7395294">
        <ele>35.2255</ele>
        <time>2014-06-17T11:41:11Z</time>
      </trkpt>
      <trkpt lat="59.9443719" lon="17.7395652">
        <ele>35.2255</ele>
        <time>2014-06-17T11:41:12Z</time>
      </trkpt>
      <trkpt lat="59.9443408" lon="17.7395947">
        <ele>39.0707</ele>
        <time>2014-06-17T11:41:13Z</time>
      </trkpt>
      <trkpt lat="59.9443128" lon="17.7396174">
        <ele>42.4354</ele>
        <time>2014-06-17T11:41:14Z</time>
      </trkpt>
      <trkpt lat="59.9442973" lon="17.7396463">
        <ele>41.9547</ele>
        <time>2014-06-17T11:41:15Z</time>
      </trkpt>
      <trkpt lat="59.9442827" lon="17.7396697">
        <ele>41.474</ele>
        <time>2014-06-17T11:41:16Z</time>
      </trkpt>
      <trkpt lat="59.9442634" lon="17.7396946">
        <ele>41.474</ele>
        <time>2014-06-17T11:41:17Z</time>
      </trkpt>
      <trkpt lat="59.9442417" lon="17.7397169">
        <ele>40.9934</ele>
        <time>2014-06-17T11:41:18Z</time>
      </trkpt>
      <trkpt lat="59.9442142" lon="17.7397268">
        <ele>40.9934</ele>
        <time>2014-06-17T11:41:19Z</time>
      </trkpt>
      <trkpt lat="59.9441899" lon="17.7397422">
        <ele>41.474</ele>
        <time>2014-06-17T11:41:20Z</time>
      </trkpt>
      <trkpt lat="59.9441702" lon="17.7397582">
        <ele>39.5513</ele>
        <time>2014-06-17T11:41:21Z</time>
      </trkpt>
      <trkpt lat="59.9441439" lon="17.7397692">
        <ele>38.5901</ele>
        <time>2014-06-17T11:41:22Z</time>
      </trkpt>
      <trkpt lat="59.944121" lon="17.7397838">
        <ele>36.6675</ele>
        <time>2014-06-17T11:41:23Z</time>
      </trkpt>
      <trkpt lat="59.9441029" lon="17.7398096">
        <ele>35.2255</ele>
        <time>2014-06-17T11:41:24Z</time>
      </trkpt>
      <trkpt lat="59.9440865" lon="17.739845">
        <ele>34.2642</ele>
        <time>2014-06-17T11:41:25Z</time>
      </trkpt>
      <trkpt lat="59.944062" lon="17.7398754">
        <ele>32.8223</ele>
        <time>2014-06-17T11:41:26Z</time>
      </trkpt>
      <trkpt lat="59.9440221" lon="17.739883">
        <ele>31.3801</ele>
        <time>2014-06-17T11:41:27Z</time>
      </trkpt>
      <trkpt lat="59.9439852" lon="17.7398885">
        <ele>30.8995</ele>
        <time>2014-06-17T11:41:28Z</time>
      </trkpt>
      <trkpt lat="59.9439543" lon="17.7398868">
        <ele>29.4575</ele>
        <time>2014-06-17T11:41:29Z</time>
      </trkpt>
      <trkpt lat="59.9439264" lon="17.739896">
        <ele>29.4575</ele>
        <time>2014-06-17T11:41:30Z</time>
      </trkpt>
      <trkpt lat="59.9438949" lon="17.7399006">
        <ele>29.4575</ele>
        <time>2014-06-17T11:41:31Z</time>
      </trkpt>
      <trkpt lat="59.9438616" lon="17.7398966">
        <ele>29.9381</ele>
        <time>2014-06-17T11:41:32Z</time>
      </trkpt>
      <trkpt lat="59.943831" lon="17.7399029">
        <ele>30.8995</ele>
        <time>2014-06-17T11:41:33Z</time>
      </trkpt>
      <trkpt lat="59.9438109" lon="17.739906">
        <ele>30.8995</ele>
        <time>2014-06-17T11:41:34Z</time>
      </trkpt>
      <trkpt lat="59.9437855" lon="17.7399055">
        <ele>31.8607</ele>
        <time>2014-06-17T11:41:35Z</time>
      </trkpt>
      <trkpt lat="59.9437592" lon="17.7398923">
        <ele>32.3416</ele>
        <time>2014-06-17T11:41:36Z</time>
      </trkpt>
      <trkpt lat="59.9437293" lon="17.7398823">
        <ele>32.3416</ele>
        <time>2014-06-17T11:41:37Z</time>
      </trkpt>
      <trkpt lat="59.9437008" lon="17.7398893">
        <ele>32.8223</ele>
        <time>2014-06-17T11:41:38Z</time>
      </trkpt>
      <trkpt lat="59.9436736" lon="17.7398997">
        <ele>32.8223</ele>
        <time>2014-06-17T11:41:39Z</time>
      </trkpt>
      <trkpt lat="59.9436527" lon="17.7399017">
        <ele>31.3801</ele>
        <time>2014-06-17T11:41:40Z</time>
      </trkpt>
      <trkpt lat="59.9436265" lon="17.7399115">
        <ele>31.3801</ele>
        <time>2014-06-17T11:41:41Z</time>
      </trkpt>
      <trkpt lat="59.9436037" lon="17.7399209">
        <ele>31.3801</ele>
        <time>2014-06-17T11:41:42Z</time>
      </trkpt>
      <trkpt lat="59.9435751" lon="17.7399413">
        <ele>34.7449</ele>
        <time>2014-06-17T11:41:43Z</time>
      </trkpt>
      <trkpt lat="59.9435519" lon="17.7399467">
        <ele>36.6675</ele>
        <time>2014-06-17T11:41:44Z</time>
      </trkpt>
      <trkpt lat="59.9435294" lon="17.7399447">
        <ele>35.7061</ele>
        <time>2014-06-17T11:41:45Z</time>
      </trkpt>
      <trkpt lat="59.9435062" lon="17.7399517">
        <ele>34.7449</ele>
        <time>2014-06-17T11:41:46Z</time>
      </trkpt>
      <trkpt lat="59.9434793" lon="17.7399708">
        <ele>34.2642</ele>
        <time>2014-06-17T11:41:47Z</time>
      </trkpt>
      <trkpt lat="59.9434508" lon="17.739991">
        <ele>34.7449</ele>
        <time>2014-06-17T11:41:48Z</time>
      </trkpt>
      <trkpt lat="59.9434235" lon="17.7399966">
        <ele>35.2255</ele>
        <time>2014-06-17T11:41:49Z</time>
      </trkpt>
      <trkpt lat="59.9434063" lon="17.7399916">
        <ele>33.7834</ele>
        <time>2014-06-17T11:41:50Z</time>
      </trkpt>
      <trkpt lat="59.9433864" lon="17.7399993">
        <ele>33.7834</ele>
        <time>2014-06-17T11:41:51Z</time>
      </trkpt>
      <trkpt lat="59.9433632" lon="17.7399995">
        <ele>33.3029</ele>
        <time>2014-06-17T11:41:52Z</time>
      </trkpt>
      <trkpt lat="59.9433391" lon="17.7400037">
        <ele>32.8223</ele>
        <time>2014-06-17T11:41:53Z</time>
      </trkpt>
      <trkpt lat="59.9433165" lon="17.7400064">
        <ele>32.8223</ele>
        <time>2014-06-17T11:41:54Z</time>
      </trkpt>
      <trkpt lat="59.9432885" lon="17.7400066">
        <ele>32.3416</ele>
        <time>2014-06-17T11:41:55Z</time>
      </trkpt>
      <trkpt lat="59.9432613" lon="17.7400025">
        <ele>31.3801</ele>
        <time>2014-06-17T11:41:56Z</time>
      </trkpt>
      <trkpt lat="59.9432329" lon="17.7399939">
        <ele>30.4188</ele>
        <time>2014-06-17T11:41:57Z</time>
      </trkpt>
      <trkpt lat="59.943208" lon="17.7399894">
        <ele>28.9769</ele>
        <time>2014-06-17T11:41:58Z</time>
      </trkpt>
      <trkpt lat="59.9431845" lon="17.7399869">
        <ele>28.4962</ele>
        <time>2014-06-17T11:41:59Z</time>
      </trkpt>
      <trkpt lat="59.9431611" lon="17.7399811">
        <ele>28.4962</ele>
        <time>2014-06-17T11:42:00Z</time>
      </trkpt>
      <trkpt lat="59.943137" lon="17.739979">
        <ele>28.0155</ele>
        <time>2014-06-17T11:42:01Z</time>
      </trkpt>
      <trkpt lat="59.9431098" lon="17.7399775">
        <ele>28.4962</ele>
        <time>2014-06-17T11:42:02Z</time>
      </trkpt>
      <trkpt lat="59.9430863" lon="17.7399665">
        <ele>28.0155</ele>
        <time>2014-06-17T11:42:03Z</time>
      </trkpt>
      <trkpt lat="59.9430655" lon="17.7399599">
        <ele>28.4962</ele>
        <time>2014-06-17T11:42:04Z</time>
      </trkpt>
      <trkpt lat="59.9430393" lon="17.7399556">
        <ele>28.9769</ele>
        <time>2014-06-17T11:42:05Z</time>
      </trkpt>
      <trkpt lat="59.9430125" lon="17.7399589">
        <ele>30.4188</ele>
        <time>2014-06-17T11:42:06Z</time>
      </trkpt>
      <trkpt lat="59.9429844" lon="17.7399607">
        <ele>31.3801</ele>
        <time>2014-06-17T11:42:07Z</time>
      </trkpt>
      <trkpt lat="59.942957" lon="17.7399588">
        <ele>32.3416</ele>
        <time>2014-06-17T11:42:08Z</time>
      </trkpt>
      <trkpt lat="59.9429303" lon="17.7399532">
        <ele>32.8223</ele>
        <time>2014-06-17T11:42:09Z</time>
      </trkpt>
      <trkpt lat="59.9429033" lon="17.7399521">
        <ele>33.7834</ele>
        <time>2014-06-17T11:42:10Z</time>
      </trkpt>
      <trkpt lat="59.9428759" lon="17.7399467">
        <ele>34.2642</ele>
        <time>2014-06-17T11:42:11Z</time>
      </trkpt>
      <trkpt lat="59.9428494" lon="17.7399452">
        <ele>34.7449</ele>
        <time>2014-06-17T11:42:12Z</time>
      </trkpt>
      <trkpt lat="59.9428226" lon="17.7399459">
        <ele>35.2255</ele>
        <time>2014-06-17T11:42:13Z</time>
      </trkpt>
      <trkpt lat="59.9427981" lon="17.7399447">
        <ele>35.7061</ele>
        <time>2014-06-17T11:42:14Z</time>
      </trkpt>
      <trkpt lat="59.9427779" lon="17.7399458">
        <ele>36.1868</ele>
        <time>2014-06-17T11:42:15Z</time>
      </trkpt>
      <trkpt lat="59.9427566" lon="17.7399587">
        <ele>37.1481</ele>
        <time>2014-06-17T11:42:16Z</time>
      </trkpt>
      <trkpt lat="59.942735" lon="17.7399692">
        <ele>37.1481</ele>
        <time>2014-06-17T11:42:17Z</time>
      </trkpt>
      <trkpt lat="59.9427132" lon="17.7399842">
        <ele>37.1481</ele>
        <time>2014-06-17T11:42:18Z</time>
      </trkpt>
      <trkpt lat="59.9426933" lon="17.7400043">
        <ele>38.1094</ele>
        <time>2014-06-17T11:42:19Z</time>
      </trkpt>
      <trkpt lat="59.9426711" lon="17.7400211">
        <ele>38.1094</ele>
        <time>2014-06-17T11:42:20Z</time>
      </trkpt>
      <trkpt lat="59.9426446" lon="17.7400505">
        <ele>38.5901</ele>
        <time>2014-06-17T11:42:21Z</time>
      </trkpt>
      <trkpt lat="59.9426209" lon="17.7400731">
        <ele>38.5901</ele>
        <time>2014-06-17T11:42:22Z</time>
      </trkpt>
      <trkpt lat="59.9425998" lon="17.740082">
        <ele>38.1094</ele>
        <time>2014-06-17T11:42:23Z</time>
      </trkpt>
      <trkpt lat="59.9425793" lon="17.7400935">
        <ele>37.6287</ele>
        <time>2014-06-17T11:42:24Z</time>
      </trkpt>
      <trkpt lat="59.9425604" lon="17.7401038">
        <ele>38.5901</ele>
        <time>2014-06-17T11:42:25Z</time>
      </trkpt>
      <trkpt lat="59.9425402" lon="17.7401104">
        <ele>38.5901</ele>
        <time>2014-06-17T11:42:26Z</time>
      </trkpt>
      <trkpt lat="59.9425205" lon="17.7401197">
        <ele>38.1094</ele>
        <time>2014-06-17T11:42:27Z</time>
      </trkpt>
      <trkpt lat="59.9425024" lon="17.7401303">
        <ele>38.5901</ele>
        <time>2014-06-17T11:42:28Z</time>
      </trkpt>
      <trkpt lat="59.9424794" lon="17.7401365">
        <ele>39.0707</ele>
        <time>2014-06-17T11:42:29Z</time>
      </trkpt>
      <trkpt lat="59.9424531" lon="17.7401324">
        <ele>38.5901</ele>
        <time>2014-06-17T11:42:30Z</time>
      </trkpt>
      <trkpt lat="59.9424267" lon="17.7401345">
        <ele>37.6287</ele>
        <time>2014-06-17T11:42:31Z</time>
      </trkpt>
      <trkpt lat="59.9423992" lon="17.7401379">
        <ele>38.1094</ele>
        <time>2014-06-17T11:42:32Z</time>
      </trkpt>
      <trkpt lat="59.9423682" lon="17.740132">
        <ele>36.6675</ele>
        <time>2014-06-17T11:42:33Z</time>
      </trkpt>
      <trkpt lat="59.9423455" lon="17.7401293">
        <ele>36.1868</ele>
        <time>2014-06-17T11:42:34Z</time>
      </trkpt>
      <trkpt lat="59.9423211" lon="17.7401319">
        <ele>35.7061</ele>
        <time>2014-06-17T11:42:35Z</time>
      </trkpt>
      <trkpt lat="59.9422962" lon="17.7401288">
        <ele>35.2255</ele>
        <time>2014-06-17T11:42:36Z</time>
      </trkpt>
      <trkpt lat="59.9422704" lon="17.7401187">
        <ele>34.7449</ele>
        <time>2014-06-17T11:42:37Z</time>
      </trkpt>
      <trkpt lat="59.9422475" lon="17.7401085">
        <ele>34.2642</ele>
        <time>2014-06-17T11:42:38Z</time>
      </trkpt>
      <trkpt lat="59.9422279" lon="17.7401006">
        <ele>34.2642</ele>
        <time>2014-06-17T11:42:39Z</time>
      </trkpt>
      <trkpt lat="59.9422074" lon="17.7400954">
        <ele>33.3029</ele>
        <time>2014-06-17T11:42:40Z</time>
      </trkpt>
      <trkpt lat="59.9421846" lon="17.7400841">
        <ele>31.8607</ele>
        <time>2014-06-17T11:42:41Z</time>
      </trkpt>
      <trkpt lat="59.9421696" lon="17.7400613">
        <ele>32.3416</ele>
        <time>2014-06-17T11:42:42Z</time>
      </trkpt>
      <trkpt lat="59.9421495" lon="17.740046">
        <ele>30.8995</ele>
        <time>2014-06-17T11:42:43Z</time>
      </trkpt>
      <trkpt lat="59.9421315" lon="17.7400366">
        <ele>28.9769</ele>
        <time>2014-06-17T11:42:44Z</time>
      </trkpt>
      <trkpt lat="59.9421162" lon="17.7400272">
        <ele>27.5349</ele>
        <time>2014-06-17T11:42:45Z</time>
      </trkpt>
      <trkpt lat="59.9420945" lon="17.740009">
        <ele>25.1317</ele>
        <time>2014-06-17T11:42:46Z</time>
      </trkpt>
      <trkpt lat="59.9420719" lon="17.7399919">
        <ele>23.209</ele>
        <time>2014-06-17T11:42:47Z</time>
      </trkpt>
      <trkpt lat="59.9420489" lon="17.7399679">
        <ele>20.8057</ele>
        <time>2014-06-17T11:42:48Z</time>
      </trkpt>
      <trkpt lat="59.9420207" lon="17.7399552">
        <ele>19.8444</ele>
        <time>2014-06-17T11:42:49Z</time>
      </trkpt>
      <trkpt lat="59.942002" lon="17.7399454">
        <ele>19.8444</ele>
        <time>2014-06-17T11:42:50Z</time>
      </trkpt>
      <trkpt lat="59.941988" lon="17.7399412">
        <ele>19.3638</ele>
        <time>2014-06-17T11:42:51Z</time>
      </trkpt>
      <trkpt lat="59.9419722" lon="17.7399411">
        <ele>18.4023</ele>
        <time>2014-06-17T11:42:52Z</time>
      </trkpt>
      <trkpt lat="59.9419526" lon="17.7399462">
        <ele>21.767</ele>
        <time>2014-06-17T11:42:53Z</time>
      </trkpt>
      <trkpt lat="59.9419337" lon="17.7399402">
        <ele>24.651</ele>
        <time>2014-06-17T11:42:54Z</time>
      </trkpt>
      <trkpt lat="59.9419114" lon="17.7399258">
        <ele>26.5736</ele>
        <time>2014-06-17T11:42:55Z</time>
      </trkpt>
      <trkpt lat="59.9418857" lon="17.739913">
        <ele>28.4962</ele>
        <time>2014-06-17T11:42:56Z</time>
      </trkpt>
      <trkpt lat="59.9418567" lon="17.7399025">
        <ele>29.4575</ele>
        <time>2014-06-17T11:42:57Z</time>
      </trkpt>
      <trkpt lat="59.9418335" lon="17.739896">
        <ele>30.8995</ele>
        <time>2014-06-17T11:42:58Z</time>
      </trkpt>
      <trkpt lat="59.9418155" lon="17.7398848">
        <ele>34.2642</ele>
        <time>2014-06-17T11:42:59Z</time>
      </trkpt>
      <trkpt lat="59.9417947" lon="17.7398678">
        <ele>33.3029</ele>
        <time>2014-06-17T11:43:00Z</time>
      </trkpt>
      <trkpt lat="59.9417726" lon="17.7398531">
        <ele>30.8995</ele>
        <time>2014-06-17T11:43:01Z</time>
      </trkpt>
      <trkpt lat="59.94175" lon="17.7398505">
        <ele>28.4962</ele>
        <time>2014-06-17T11:43:02Z</time>
      </trkpt>
      <trkpt lat="59.9417225" lon="17.7398509">
        <ele>26.5736</ele>
        <time>2014-06-17T11:43:03Z</time>
      </trkpt>
      <trkpt lat="59.9416941" lon="17.7398578">
        <ele>24.1703</ele>
        <time>2014-06-17T11:43:04Z</time>
      </trkpt>
      <trkpt lat="59.9416674" lon="17.7398542">
        <ele>22.2476</ele>
        <time>2014-06-17T11:43:05Z</time>
      </trkpt>
      <trkpt lat="59.9416425" lon="17.7398529">
        <ele>20.325</ele>
        <time>2014-06-17T11:43:06Z</time>
      </trkpt>
      <trkpt lat="59.9416165" lon="17.7398512">
        <ele>18.4023</ele>
        <time>2014-06-17T11:43:07Z</time>
      </trkpt>
      <trkpt lat="59.9415939" lon="17.7398604">
        <ele>16.9604</ele>
        <time>2014-06-17T11:43:08Z</time>
      </trkpt>
      <trkpt lat="59.9415699" lon="17.7398647">
        <ele>15.0377</ele>
        <time>2014-06-17T11:43:09Z</time>
      </trkpt>
      <trkpt lat="59.9415465" lon="17.7398647">
        <ele>13.1151</ele>
        <time>2014-06-17T11:43:10Z</time>
      </trkpt>
      <trkpt lat="59.9415247" lon="17.7398734">
        <ele>12.1538</ele>
        <time>2014-06-17T11:43:11Z</time>
      </trkpt>
      <trkpt lat="59.9415053" lon="17.7398843">
        <ele>10.7118</ele>
        <time>2014-06-17T11:43:12Z</time>
      </trkpt>
      <trkpt lat="59.9414855" lon="17.7398914">
        <ele>10.2312</ele>
        <time>2014-06-17T11:43:13Z</time>
      </trkpt>
      <trkpt lat="59.9414682" lon="17.7399029">
        <ele>8.78918</ele>
        <time>2014-06-17T11:43:14Z</time>
      </trkpt>
      <trkpt lat="59.9414496" lon="17.7399075">
        <ele>7.82788</ele>
        <time>2014-06-17T11:43:15Z</time>
      </trkpt>
      <trkpt lat="59.9414296" lon="17.7399204">
        <ele>7.34717</ele>
        <time>2014-06-17T11:43:16Z</time>
      </trkpt>
      <trkpt lat="59.9414082" lon="17.7399309">
        <ele>6.38586</ele>
        <time>2014-06-17T11:43:17Z</time>
      </trkpt>
      <trkpt lat="59.9413854" lon="17.7399431">
        <ele>5.42456</ele>
        <time>2014-06-17T11:43:18Z</time>
      </trkpt>
      <trkpt lat="59.9413644" lon="17.7399423">
        <ele>4.46326</ele>
        <time>2014-06-17T11:43:19Z</time>
      </trkpt>
      <trkpt lat="59.9413418" lon="17.7399433">
        <ele>4.46326</ele>
        <time>2014-06-17T11:43:20Z</time>
      </trkpt>
      <trkpt lat="59.9413178" lon="17.739936">
        <ele>3.50195</ele>
        <time>2014-06-17T11:43:21Z</time>
      </trkpt>
      <trkpt lat="59.941298" lon="17.7399348">
        <ele>3.98267</ele>
        <time>2014-06-17T11:43:22Z</time>
      </trkpt>
      <trkpt lat="59.9412747" lon="17.7399296">
        <ele>3.98267</ele>
        <time>2014-06-17T11:43:23Z</time>
      </trkpt>
      <trkpt lat="59.941246" lon="17.7399247">
        <ele>4.46326</ele>
        <time>2014-06-17T11:43:24Z</time>
      </trkpt>
      <trkpt lat="59.9412155" lon="17.7399206">
        <ele>5.42456</ele>
        <time>2014-06-17T11:43:25Z</time>
      </trkpt>
      <trkpt lat="59.9411844" lon="17.7399153">
        <ele>5.42456</ele>
        <time>2014-06-17T11:43:26Z</time>
      </trkpt>
      <trkpt lat="59.9411623" lon="17.7399077">
        <ele>6.86646</ele>
        <time>2014-06-17T11:43:27Z</time>
      </trkpt>
      <trkpt lat="59.9411466" lon="17.7398959">
        <ele>8.30859</ele>
        <time>2014-06-17T11:43:28Z</time>
      </trkpt>
      <trkpt lat="59.941126" lon="17.7398879">
        <ele>8.78918</ele>
        <time>2014-06-17T11:43:29Z</time>
      </trkpt>
      <trkpt lat="59.9411031" lon="17.7398801">
        <ele>8.78918</ele>
        <time>2014-06-17T11:43:30Z</time>
      </trkpt>
      <trkpt lat="59.9410813" lon="17.7398714">
        <ele>8.30859</ele>
        <time>2014-06-17T11:43:31Z</time>
      </trkpt>
      <trkpt lat="59.9410621" lon="17.7398654">
        <ele>9.2699</ele>
        <time>2014-06-17T11:43:32Z</time>
      </trkpt>
      <trkpt lat="59.9410422" lon="17.7398484">
        <ele>9.2699</ele>
        <time>2014-06-17T11:43:33Z</time>
      </trkpt>
      <trkpt lat="59.9410209" lon="17.7398328">
        <ele>9.2699</ele>
        <time>2014-06-17T11:43:34Z</time>
      </trkpt>
      <trkpt lat="59.9409974" lon="17.7398154">
        <ele>10.7118</ele>
        <time>2014-06-17T11:43:35Z</time>
      </trkpt>
      <trkpt lat="59.9409747" lon="17.7398122">
        <ele>11.1925</ele>
        <time>2014-06-17T11:43:36Z</time>
      </trkpt>
      <trkpt lat="59.9409435" lon="17.7397998">
        <ele>11.1925</ele>
        <time>2014-06-17T11:43:37Z</time>
      </trkpt>
      <trkpt lat="59.9409219" lon="17.7397885">
        <ele>12.6344</ele>
        <time>2014-06-17T11:43:38Z</time>
      </trkpt>
      <trkpt lat="59.9408976" lon="17.7397685">
        <ele>14.557</ele>
        <time>2014-06-17T11:43:39Z</time>
      </trkpt>
      <trkpt lat="59.9408839" lon="17.7397625">
        <ele>16.9604</ele>
        <time>2014-06-17T11:43:40Z</time>
      </trkpt>
      <trkpt lat="59.9408741" lon="17.739749">
        <ele>18.8831</ele>
        <time>2014-06-17T11:43:41Z</time>
      </trkpt>
      <trkpt lat="59.940854" lon="17.7397341">
        <ele>19.8444</ele>
        <time>2014-06-17T11:43:42Z</time>
      </trkpt>
      <trkpt lat="59.9408234" lon="17.7397272">
        <ele>19.3638</ele>
        <time>2014-06-17T11:43:43Z</time>
      </trkpt>
      <trkpt lat="59.940795" lon="17.7397262">
        <ele>18.8831</ele>
        <time>2014-06-17T11:43:44Z</time>
      </trkpt>
      <trkpt lat="59.9407573" lon="17.7397177">
        <ele>17.9218</ele>
        <time>2014-06-17T11:43:45Z</time>
      </trkpt>
      <trkpt lat="59.9407309" lon="17.7397131">
        <ele>16.9604</ele>
        <time>2014-06-17T11:43:46Z</time>
      </trkpt>
      <trkpt lat="59.9407063" lon="17.7397234">
        <ele>16.9604</ele>
        <time>2014-06-17T11:43:47Z</time>
      </trkpt>
      <trkpt lat="59.940681" lon="17.7397287">
        <ele>16.9604</ele>
        <time>2014-06-17T11:43:48Z</time>
      </trkpt>
      <trkpt lat="59.9406582" lon="17.7397506">
        <ele>17.4412</ele>
        <time>2014-06-17T11:43:49Z</time>
      </trkpt>
      <trkpt lat="59.9406378" lon="17.7397806">
        <ele>17.4412</ele>
        <time>2014-06-17T11:43:50Z</time>
      </trkpt>
      <trkpt lat="59.9406251" lon="17.7398158">
        <ele>17.4412</ele>
        <time>2014-06-17T11:43:51Z</time>
      </trkpt>
      <trkpt lat="59.9406086" lon="17.739847">
        <ele>17.9218</ele>
        <time>2014-06-17T11:43:52Z</time>
      </trkpt>
      <trkpt lat="59.9405935" lon="17.7398847">
        <ele>17.9218</ele>
        <time>2014-06-17T11:43:53Z</time>
      </trkpt>
      <trkpt lat="59.9405806" lon="17.7399204">
        <ele>17.9218</ele>
        <time>2014-06-17T11:43:54Z</time>
      </trkpt>
      <trkpt lat="59.9405685" lon="17.7399556">
        <ele>17.4412</ele>
        <time>2014-06-17T11:43:55Z</time>
      </trkpt>
      <trkpt lat="59.9405541" lon="17.7399877">
        <ele>15.999</ele>
        <time>2014-06-17T11:43:56Z</time>
      </trkpt>
      <trkpt lat="59.9405349" lon="17.7400293">
        <ele>15.999</ele>
        <time>2014-06-17T11:43:57Z</time>
      </trkpt>
      <trkpt lat="59.9405122" lon="17.7400775">
        <ele>16.4797</ele>
        <time>2014-06-17T11:43:58Z</time>
      </trkpt>
      <trkpt lat="59.9404867" lon="17.7401276">
        <ele>17.9218</ele>
        <time>2014-06-17T11:43:59Z</time>
      </trkpt>
      <trkpt lat="59.9404649" lon="17.7401641">
        <ele>18.4023</ele>
        <time>2014-06-17T11:44:00Z</time>
      </trkpt>
      <trkpt lat="59.9404438" lon="17.7401922">
        <ele>18.8831</ele>
        <time>2014-06-17T11:44:01Z</time>
      </trkpt>
      <trkpt lat="59.9404189" lon="17.7402135">
        <ele>18.4023</ele>
        <time>2014-06-17T11:44:02Z</time>
      </trkpt>
      <trkpt lat="59.9403935" lon="17.740237">
        <ele>19.3638</ele>
        <time>2014-06-17T11:44:03Z</time>
      </trkpt>
      <trkpt lat="59.9403695" lon="17.7402691">
        <ele>19.8444</ele>
        <time>2014-06-17T11:44:04Z</time>
      </trkpt>
      <trkpt lat="59.9403527" lon="17.7402991">
        <ele>20.325</ele>
        <time>2014-06-17T11:44:05Z</time>
      </trkpt>
      <trkpt lat="59.9403324" lon="17.7403229">
        <ele>20.8057</ele>
        <time>2014-06-17T11:44:06Z</time>
      </trkpt>
      <trkpt lat="59.9403076" lon="17.7403453">
        <ele>21.767</ele>
        <time>2014-06-17T11:44:07Z</time>
      </trkpt>
      <trkpt lat="59.9402879" lon="17.7403642">
        <ele>20.325</ele>
        <time>2014-06-17T11:44:08Z</time>
      </trkpt>
      <trkpt lat="59.9402677" lon="17.7403907">
        <ele>21.2864</ele>
        <time>2014-06-17T11:44:09Z</time>
      </trkpt>
      <trkpt lat="59.9402516" lon="17.7404115">
        <ele>21.2864</ele>
        <time>2014-06-17T11:44:10Z</time>
      </trkpt>
      <trkpt lat="59.9402314" lon="17.7404276">
        <ele>21.2864</ele>
        <time>2014-06-17T11:44:11Z</time>
      </trkpt>
      <trkpt lat="59.9402094" lon="17.7404406">
        <ele>20.8057</ele>
        <time>2014-06-17T11:44:12Z</time>
      </trkpt>
      <trkpt lat="59.9401899" lon="17.7404576">
        <ele>21.2864</ele>
        <time>2014-06-17T11:44:13Z</time>
      </trkpt>
      <trkpt lat="59.9401733" lon="17.7404851">
        <ele>20.8057</ele>
        <time>2014-06-17T11:44:14Z</time>
      </trkpt>
      <trkpt lat="59.9401448" lon="17.7405069">
        <ele>23.209</ele>
        <time>2014-06-17T11:44:15Z</time>
      </trkpt>
      <trkpt lat="59.9401081" lon="17.7405338">
        <ele>30.4188</ele>
        <time>2014-06-17T11:44:16Z</time>
      </trkpt>
      <trkpt lat="59.9400755" lon="17.7405472">
        <ele>33.3029</ele>
        <time>2014-06-17T11:44:17Z</time>
      </trkpt>
      <trkpt lat="59.9400366" lon="17.7405654">
        <ele>34.2642</ele>
        <time>2014-06-17T11:44:18Z</time>
      </trkpt>
      <trkpt lat="59.9400004" lon="17.7405851">
        <ele>34.2642</ele>
        <time>2014-06-17T11:44:19Z</time>
      </trkpt>
      <trkpt lat="59.9399703" lon="17.7405975">
        <ele>36.1868</ele>
        <time>2014-06-17T11:44:20Z</time>
      </trkpt>
      <trkpt lat="59.9399444" lon="17.7406099">
        <ele>36.1868</ele>
        <time>2014-06-17T11:44:21Z</time>
      </trkpt>
      <trkpt lat="59.9399189" lon="17.7406261">
        <ele>37.1481</ele>
        <time>2014-06-17T11:44:22Z</time>
      </trkpt>
      <trkpt lat="59.939896" lon="17.740638">
        <ele>37.1481</ele>
        <time>2014-06-17T11:44:23Z</time>
      </trkpt>
      <trkpt lat="59.9398714" lon="17.7406446">
        <ele>36.6675</ele>
        <time>2014-06-17T11:44:24Z</time>
      </trkpt>
      <trkpt lat="59.9398456" lon="17.7406582">
        <ele>37.1481</ele>
        <time>2014-06-17T11:44:25Z</time>
      </trkpt>
      <trkpt lat="59.9398205" lon="17.7406726">
        <ele>36.6675</ele>
        <time>2014-06-17T11:44:26Z</time>
      </trkpt>
      <trkpt lat="59.9397924" lon="17.7406878">
        <ele>37.6287</ele>
        <time>2014-06-17T11:44:27Z</time>
      </trkpt>
      <trkpt lat="59.9397676" lon="17.7406964">
        <ele>37.1481</ele>
        <time>2014-06-17T11:44:28Z</time>
      </trkpt>
      <trkpt lat="59.9397409" lon="17.7407074">
        <ele>38.5901</ele>
        <time>2014-06-17T11:44:29Z</time>
      </trkpt>
      <trkpt lat="59.939716" lon="17.7407099">
        <ele>37.6287</ele>
        <time>2014-06-17T11:44:30Z</time>
      </trkpt>
      <trkpt lat="59.93969" lon="17.7407147">
        <ele>37.6287</ele>
        <time>2014-06-17T11:44:31Z</time>
      </trkpt>
      <trkpt lat="59.9396678" lon="17.7407154">
        <ele>37.6287</ele>
        <time>2014-06-17T11:44:32Z</time>
      </trkpt>
      <trkpt lat="59.9396454" lon="17.7407141">
        <ele>37.6287</ele>
        <time>2014-06-17T11:44:33Z</time>
      </trkpt>
      <trkpt lat="59.9396197" lon="17.7407208">
        <ele>37.1481</ele>
        <time>2014-06-17T11:44:34Z</time>
      </trkpt>
      <trkpt lat="59.9395932" lon="17.7407264">
        <ele>36.1868</ele>
        <time>2014-06-17T11:44:35Z</time>
      </trkpt>
      <trkpt lat="59.9395651" lon="17.7407307">
        <ele>35.2255</ele>
        <time>2014-06-17T11:44:36Z</time>
      </trkpt>
      <trkpt lat="59.9395388" lon="17.7407338">
        <ele>34.2642</ele>
        <time>2014-06-17T11:44:37Z</time>
      </trkpt>
      <trkpt lat="59.939518" lon="17.7407348">
        <ele>34.7449</ele>
        <time>2014-06-17T11:44:38Z</time>
      </trkpt>
      <trkpt lat="59.9394962" lon="17.7407317">
        <ele>33.7834</ele>
        <time>2014-06-17T11:44:39Z</time>
      </trkpt>
      <trkpt lat="59.9394718" lon="17.7407325">
        <ele>33.7834</ele>
        <time>2014-06-17T11:44:40Z</time>
      </trkpt>
      <trkpt lat="59.9394477" lon="17.7407338">
        <ele>34.2642</ele>
        <time>2014-06-17T11:44:41Z</time>
      </trkpt>
      <trkpt lat="59.9394239" lon="17.7407306">
        <ele>33.7834</ele>
        <time>2014-06-17T11:44:42Z</time>
      </trkpt>
      <trkpt lat="59.9394003" lon="17.7407286">
        <ele>32.8223</ele>
        <time>2014-06-17T11:44:43Z</time>
      </trkpt>
      <trkpt lat="59.9393745" lon="17.7407311">
        <ele>32.3416</ele>
        <time>2014-06-17T11:44:44Z</time>
      </trkpt>
      <trkpt lat="59.9393482" lon="17.7407322">
        <ele>31.3801</ele>
        <time>2014-06-17T11:44:45Z</time>
      </trkpt>
      <trkpt lat="59.9393227" lon="17.7407358">
        <ele>30.8995</ele>
        <time>2014-06-17T11:44:46Z</time>
      </trkpt>
      <trkpt lat="59.9392979" lon="17.7407388">
        <ele>30.8995</ele>
        <time>2014-06-17T11:44:47Z</time>
      </trkpt>
      <trkpt lat="59.9392741" lon="17.7407396">
        <ele>30.4188</ele>
        <time>2014-06-17T11:44:48Z</time>
      </trkpt>
      <trkpt lat="59.9392522" lon="17.7407385">
        <ele>30.8995</ele>
        <time>2014-06-17T11:44:49Z</time>
      </trkpt>
      <trkpt lat="59.9392314" lon="17.7407315">
        <ele>30.8995</ele>
        <time>2014-06-17T11:44:50Z</time>
      </trkpt>
      <trkpt lat="59.9392092" lon="17.7407244">
        <ele>30.4188</ele>
        <time>2014-06-17T11:44:51Z</time>
      </trkpt>
      <trkpt lat="59.939185" lon="17.7407239">
        <ele>30.4188</ele>
        <time>2014-06-17T11:44:52Z</time>
      </trkpt>
      <trkpt lat="59.9391612" lon="17.7407259">
        <ele>30.4188</ele>
        <time>2014-06-17T11:44:53Z</time>
      </trkpt>
      <trkpt lat="59.9391382" lon="17.7407273">
        <ele>29.9381</ele>
        <time>2014-06-17T11:44:54Z</time>
      </trkpt>
      <trkpt lat="59.9391131" lon="17.7407281">
        <ele>28.9769</ele>
        <time>2014-06-17T11:44:55Z</time>
      </trkpt>
      <trkpt lat="59.9390875" lon="17.7407296">
        <ele>28.4962</ele>
        <time>2014-06-17T11:44:56Z</time>
      </trkpt>
      <trkpt lat="59.9390647" lon="17.7407251">
        <ele>27.5349</ele>
        <time>2014-06-17T11:44:57Z</time>
      </trkpt>
      <trkpt lat="59.9390395" lon="17.7407286">
        <ele>28.0155</ele>
        <time>2014-06-17T11:44:58Z</time>
      </trkpt>
      <trkpt lat="59.9390146" lon="17.7407303">
        <ele>27.5349</ele>
        <time>2014-06-17T11:44:59Z</time>
      </trkpt>
      <trkpt lat="59.93899" lon="17.7407299">
        <ele>27.0543</ele>
        <time>2014-06-17T11:45:00Z</time>
      </trkpt>
      <trkpt lat="59.9389652" lon="17.7407302">
        <ele>26.5736</ele>
        <time>2014-06-17T11:45:01Z</time>
      </trkpt>
      <trkpt lat="59.9389391" lon="17.7407294">
        <ele>26.5736</ele>
        <time>2014-06-17T11:45:02Z</time>
      </trkpt>
      <trkpt lat="59.9389151" lon="17.7407307">
        <ele>26.0929</ele>
        <time>2014-06-17T11:45:03Z</time>
      </trkpt>
      <trkpt lat="59.9388923" lon="17.7407338">
        <ele>25.6123</ele>
        <time>2014-06-17T11:45:04Z</time>
      </trkpt>
      <trkpt lat="59.9388691" lon="17.7407349">
        <ele>26.0929</ele>
        <time>2014-06-17T11:45:05Z</time>
      </trkpt>
      <trkpt lat="59.9388478" lon="17.7407334">
        <ele>26.0929</ele>
        <time>2014-06-17T11:45:06Z</time>
      </trkpt>
      <trkpt lat="59.9388248" lon="17.7407341">
        <ele>26.5736</ele>
        <time>2014-06-17T11:45:07Z</time>
      </trkpt>
      <trkpt lat="59.9388011" lon="17.740733">
        <ele>26.0929</ele>
        <time>2014-06-17T11:45:08Z</time>
      </trkpt>
      <trkpt lat="59.9387743" lon="17.7407331">
        <ele>26.0929</ele>
        <time>2014-06-17T11:45:09Z</time>
      </trkpt>
      <trkpt lat="59.93875" lon="17.7407352">
        <ele>25.6123</ele>
        <time>2014-06-17T11:45:10Z</time>
      </trkpt>
      <trkpt lat="59.9387267" lon="17.7407384">
        <ele>26.0929</ele>
        <time>2014-06-17T11:45:11Z</time>
      </trkpt>
      <trkpt lat="59.9387038" lon="17.740739">
        <ele>26.0929</ele>
        <time>2014-06-17T11:45:12Z</time>
      </trkpt>
      <trkpt lat="59.9386831" lon="17.7407385">
        <ele>26.0929</ele>
        <time>2014-06-17T11:45:13Z</time>
      </trkpt>
      <trkpt lat="59.9386616" lon="17.7407384">
        <ele>26.0929</ele>
        <time>2014-06-17T11:45:14Z</time>
      </trkpt>
      <trkpt lat="59.9386385" lon="17.7407369">
        <ele>26.0929</ele>
        <time>2014-06-17T11:45:15Z</time>
      </trkpt>
      <trkpt lat="59.9386157" lon="17.7407374">
        <ele>26.5736</ele>
        <time>2014-06-17T11:45:16Z</time>
      </trkpt>
      <trkpt lat="59.938594" lon="17.7407384">
        <ele>26.5736</ele>
        <time>2014-06-17T11:45:17Z</time>
      </trkpt>
      <trkpt lat="59.9385696" lon="17.7407417">
        <ele>25.6123</ele>
        <time>2014-06-17T11:45:18Z</time>
      </trkpt>
      <trkpt lat="59.9385468" lon="17.7407456">
        <ele>26.0929</ele>
        <time>2014-06-17T11:45:19Z</time>
      </trkpt>
      <trkpt lat="59.9385245" lon="17.7407478">
        <ele>26.0929</ele>
        <time>2014-06-17T11:45:20Z</time>
      </trkpt>
      <trkpt lat="59.9385018" lon="17.7407493">
        <ele>26.0929</ele>
        <time>2014-06-17T11:45:21Z</time>
      </trkpt>
      <trkpt lat="59.938478" lon="17.7407474">
        <ele>25.6123</ele>
        <time>2014-06-17T11:45:22Z</time>
      </trkpt>
      <trkpt lat="59.9384565" lon="17.7407435">
        <ele>25.1317</ele>
        <time>2014-06-17T11:45:23Z</time>
      </trkpt>
      <trkpt lat="59.9384358" lon="17.7407382">
        <ele>25.6123</ele>
        <time>2014-06-17T11:45:24Z</time>
      </trkpt>
      <trkpt lat="59.9384147" lon="17.7407325">
        <ele>25.1317</ele>
        <time>2014-06-17T11:45:25Z</time>
      </trkpt>
      <trkpt lat="59.9383939" lon="17.7407308">
        <ele>26.0929</ele>
        <time>2014-06-17T11:45:26Z</time>
      </trkpt>
      <trkpt lat="59.9383716" lon="17.7407261">
        <ele>26.0929</ele>
        <time>2014-06-17T11:45:27Z</time>
      </trkpt>
      <trkpt lat="59.9383478" lon="17.740712">
        <ele>26.0929</ele>
        <time>2014-06-17T11:45:28Z</time>
      </trkpt>
      <trkpt lat="59.9383239" lon="17.7407035">
        <ele>25.6123</ele>
        <time>2014-06-17T11:45:29Z</time>
      </trkpt>
      <trkpt lat="59.9383038" lon="17.7407016">
        <ele>26.0929</ele>
        <time>2014-06-17T11:45:30Z</time>
      </trkpt>
      <trkpt lat="59.9382831" lon="17.740694">
        <ele>25.6123</ele>
        <time>2014-06-17T11:45:31Z</time>
      </trkpt>
      <trkpt lat="59.9382604" lon="17.7406872">
        <ele>25.1317</ele>
        <time>2014-06-17T11:45:32Z</time>
      </trkpt>
      <trkpt lat="59.9382379" lon="17.740684">
        <ele>24.651</ele>
        <time>2014-06-17T11:45:33Z</time>
      </trkpt>
      <trkpt lat="59.9382148" lon="17.7406809">
        <ele>24.1703</ele>
        <time>2014-06-17T11:45:34Z</time>
      </trkpt>
      <trkpt lat="59.9381926" lon="17.7406788">
        <ele>23.209</ele>
        <time>2014-06-17T11:45:35Z</time>
      </trkpt>
      <trkpt lat="59.93817" lon="17.7406778">
        <ele>22.7283</ele>
        <time>2014-06-17T11:45:36Z</time>
      </trkpt>
      <trkpt lat="59.9381441" lon="17.7406758">
        <ele>22.2476</ele>
        <time>2014-06-17T11:45:37Z</time>
      </trkpt>
      <trkpt lat="59.9381201" lon="17.7406662">
        <ele>21.767</ele>
        <time>2014-06-17T11:45:38Z</time>
      </trkpt>
      <trkpt lat="59.9380989" lon="17.7406601">
        <ele>21.2864</ele>
        <time>2014-06-17T11:45:39Z</time>
      </trkpt>
      <trkpt lat="59.938075" lon="17.7406564">
        <ele>20.8057</ele>
        <time>2014-06-17T11:45:40Z</time>
      </trkpt>
      <trkpt lat="59.9380478" lon="17.7406465">
        <ele>20.325</ele>
        <time>2014-06-17T11:45:41Z</time>
      </trkpt>
      <trkpt lat="59.9380246" lon="17.7406399">
        <ele>19.3638</ele>
        <time>2014-06-17T11:45:42Z</time>
      </trkpt>
      <trkpt lat="59.9380002" lon="17.7406383">
        <ele>18.8831</ele>
        <time>2014-06-17T11:45:43Z</time>
      </trkpt>
      <trkpt lat="59.9379792" lon="17.7406237">
        <ele>18.4023</ele>
        <time>2014-06-17T11:45:44Z</time>
      </trkpt>
      <trkpt lat="59.9379584" lon="17.7406114">
        <ele>18.8831</ele>
        <time>2014-06-17T11:45:45Z</time>
      </trkpt>
      <trkpt lat="59.9379364" lon="17.7405975">
        <ele>18.4023</ele>
        <time>2014-06-17T11:45:46Z</time>
      </trkpt>
      <trkpt lat="59.9379128" lon="17.7405789">
        <ele>18.8831</ele>
        <time>2014-06-17T11:45:47Z</time>
      </trkpt>
      <trkpt lat="59.9378934" lon="17.7405587">
        <ele>18.8831</ele>
        <time>2014-06-17T11:45:48Z</time>
      </trkpt>
      <trkpt lat="59.9378739" lon="17.7405436">
        <ele>19.3638</ele>
        <time>2014-06-17T11:45:49Z</time>
      </trkpt>
      <trkpt lat="59.9378506" lon="17.7405297">
        <ele>19.8444</ele>
        <time>2014-06-17T11:45:50Z</time>
      </trkpt>
      <trkpt lat="59.9378276" lon="17.7405136">
        <ele>19.8444</ele>
        <time>2014-06-17T11:45:51Z</time>
      </trkpt>
      <trkpt lat="59.937805" lon="17.7405038">
        <ele>20.325</ele>
        <time>2014-06-17T11:45:52Z</time>
      </trkpt>
      <trkpt lat="59.9377781" lon="17.7405002">
        <ele>20.325</ele>
        <time>2014-06-17T11:45:53Z</time>
      </trkpt>
      <trkpt lat="59.9377527" lon="17.7404912">
        <ele>19.8444</ele>
        <time>2014-06-17T11:45:54Z</time>
      </trkpt>
      <trkpt lat="59.9377283" lon="17.7404826">
        <ele>20.8057</ele>
        <time>2014-06-17T11:45:55Z</time>
      </trkpt>
      <trkpt lat="59.9377036" lon="17.7404687">
        <ele>20.8057</ele>
        <time>2014-06-17T11:45:56Z</time>
      </trkpt>
      <trkpt lat="59.9376795" lon="17.7404529">
        <ele>19.8444</ele>
        <time>2014-06-17T11:45:57Z</time>
      </trkpt>
      <trkpt lat="59.937659" lon="17.7404344">
        <ele>20.325</ele>
        <time>2014-06-17T11:45:58Z</time>
      </trkpt>
      <trkpt lat="59.9376346" lon="17.7404199">
        <ele>20.8057</ele>
        <time>2014-06-17T11:45:59Z</time>
      </trkpt>
      <trkpt lat="59.9376092" lon="17.7404099">
        <ele>21.2864</ele>
        <time>2014-06-17T11:46:00Z</time>
      </trkpt>
      <trkpt lat="59.9375833" lon="17.7404036">
        <ele>21.2864</ele>
        <time>2014-06-17T11:46:01Z</time>
      </trkpt>
      <trkpt lat="59.9375578" lon="17.7403954">
        <ele>20.8057</ele>
        <time>2014-06-17T11:46:02Z</time>
      </trkpt>
      <trkpt lat="59.9375355" lon="17.7403824">
        <ele>20.8057</ele>
        <time>2014-06-17T11:46:03Z</time>
      </trkpt>
      <trkpt lat="59.9375177" lon="17.7403596">
        <ele>21.2864</ele>
        <time>2014-06-17T11:46:04Z</time>
      </trkpt>
      <trkpt lat="59.9375034" lon="17.740334">
        <ele>21.767</ele>
        <time>2014-06-17T11:46:05Z</time>
      </trkpt>
      <trkpt lat="59.9374843" lon="17.740315">
        <ele>21.2864</ele>
        <time>2014-06-17T11:46:06Z</time>
      </trkpt>
      <trkpt lat="59.937461" lon="17.7403028">
        <ele>21.767</ele>
        <time>2014-06-17T11:46:07Z</time>
      </trkpt>
      <trkpt lat="59.9374394" lon="17.7402935">
        <ele>22.2476</ele>
        <time>2014-06-17T11:46:08Z</time>
      </trkpt>
      <trkpt lat="59.9374187" lon="17.7402857">
        <ele>22.2476</ele>
        <time>2014-06-17T11:46:09Z</time>
      </trkpt>
      <trkpt lat="59.9373925" lon="17.7402791">
        <ele>23.209</ele>
        <time>2014-06-17T11:46:10Z</time>
      </trkpt>
      <trkpt lat="59.9373679" lon="17.7402644">
        <ele>23.209</ele>
        <time>2014-06-17T11:46:11Z</time>
      </trkpt>
      <trkpt lat="59.9373441" lon="17.7402546">
        <ele>24.1703</ele>
        <time>2014-06-17T11:46:12Z</time>
      </trkpt>
      <trkpt lat="59.9373243" lon="17.7402449">
        <ele>23.6896</ele>
        <time>2014-06-17T11:46:13Z</time>
      </trkpt>
      <trkpt lat="59.9373015" lon="17.7402298">
        <ele>23.6896</ele>
        <time>2014-06-17T11:46:14Z</time>
      </trkpt>
      <trkpt lat="59.9372793" lon="17.7402146">
        <ele>24.1703</ele>
        <time>2014-06-17T11:46:15Z</time>
      </trkpt>
      <trkpt lat="59.9372559" lon="17.7402038">
        <ele>24.1703</ele>
        <time>2014-06-17T11:46:16Z</time>
      </trkpt>
      <trkpt lat="59.9372262" lon="17.7401935">
        <ele>24.1703</ele>
        <time>2014-06-17T11:46:17Z</time>
      </trkpt>
      <trkpt lat="59.9371968" lon="17.7401827">
        <ele>24.651</ele>
        <time>2014-06-17T11:46:18Z</time>
      </trkpt>
      <trkpt lat="59.9371723" lon="17.7401723">
        <ele>24.1703</ele>
        <time>2014-06-17T11:46:19Z</time>
      </trkpt>
      <trkpt lat="59.9371494" lon="17.7401619">
        <ele>24.1703</ele>
        <time>2014-06-17T11:46:20Z</time>
      </trkpt>
      <trkpt lat="59.9371279" lon="17.7401515">
        <ele>24.1703</ele>
        <time>2014-06-17T11:46:21Z</time>
      </trkpt>
      <trkpt lat="59.9371058" lon="17.7401373">
        <ele>24.1703</ele>
        <time>2014-06-17T11:46:22Z</time>
      </trkpt>
      <trkpt lat="59.9370833" lon="17.7401226">
        <ele>24.651</ele>
        <time>2014-06-17T11:46:23Z</time>
      </trkpt>
      <trkpt lat="59.9370576" lon="17.7401252">
        <ele>26.5736</ele>
        <time>2014-06-17T11:46:24Z</time>
      </trkpt>
      <trkpt lat="59.9370325" lon="17.7401257">
        <ele>28.4962</ele>
        <time>2014-06-17T11:46:25Z</time>
      </trkpt>
      <trkpt lat="59.9370073" lon="17.7401183">
        <ele>30.4188</ele>
        <time>2014-06-17T11:46:26Z</time>
      </trkpt>
      <trkpt lat="59.9369836" lon="17.7401017">
        <ele>30.8995</ele>
        <time>2014-06-17T11:46:27Z</time>
      </trkpt>
      <trkpt lat="59.9369574" lon="17.7400871">
        <ele>31.8607</ele>
        <time>2014-06-17T11:46:28Z</time>
      </trkpt>
      <trkpt lat="59.9369332" lon="17.7400775">
        <ele>32.8223</ele>
        <time>2014-06-17T11:46:29Z</time>
      </trkpt>
      <trkpt lat="59.9369118" lon="17.740061">
        <ele>32.8223</ele>
        <time>2014-06-17T11:46:30Z</time>
      </trkpt>
      <trkpt lat="59.9368911" lon="17.7400396">
        <ele>33.7834</ele>
        <time>2014-06-17T11:46:31Z</time>
      </trkpt>
      <trkpt lat="59.9368695" lon="17.7400245">
        <ele>33.7834</ele>
        <time>2014-06-17T11:46:32Z</time>
      </trkpt>
      <trkpt lat="59.9368463" lon="17.7400131">
        <ele>34.2642</ele>
        <time>2014-06-17T11:46:33Z</time>
      </trkpt>
      <trkpt lat="59.9368261" lon="17.7400001">
        <ele>34.2642</ele>
        <time>2014-06-17T11:46:34Z</time>
      </trkpt>
      <trkpt lat="59.9368044" lon="17.7399909">
        <ele>34.2642</ele>
        <time>2014-06-17T11:46:35Z</time>
      </trkpt>
      <trkpt lat="59.936783" lon="17.739979">
        <ele>33.7834</ele>
        <time>2014-06-17T11:46:36Z</time>
      </trkpt>
      <trkpt lat="59.936761" lon="17.7399695">
        <ele>32.8223</ele>
        <time>2014-06-17T11:46:37Z</time>
      </trkpt>
      <trkpt lat="59.9367375" lon="17.7399625">
        <ele>32.8223</ele>
        <time>2014-06-17T11:46:38Z</time>
      </trkpt>
      <trkpt lat="59.9367131" lon="17.7399522">
        <ele>32.8223</ele>
        <time>2014-06-17T11:46:39Z</time>
      </trkpt>
      <trkpt lat="59.9366885" lon="17.7399418">
        <ele>32.3416</ele>
        <time>2014-06-17T11:46:40Z</time>
      </trkpt>
      <trkpt lat="59.9366638" lon="17.7399314">
        <ele>31.3801</ele>
        <time>2014-06-17T11:46:41Z</time>
      </trkpt>
      <trkpt lat="59.9366395" lon="17.7399215">
        <ele>31.3801</ele>
        <time>2014-06-17T11:46:42Z</time>
      </trkpt>
      <trkpt lat="59.9366167" lon="17.7399101">
        <ele>30.4188</ele>
        <time>2014-06-17T11:46:43Z</time>
      </trkpt>
      <trkpt lat="59.9365946" lon="17.7399029">
        <ele>29.9381</ele>
        <time>2014-06-17T11:46:44Z</time>
      </trkpt>
      <trkpt lat="59.9365722" lon="17.7398918">
        <ele>29.4575</ele>
        <time>2014-06-17T11:46:45Z</time>
      </trkpt>
      <trkpt lat="59.9365523" lon="17.739875">
        <ele>29.4575</ele>
        <time>2014-06-17T11:46:46Z</time>
      </trkpt>
      <trkpt lat="59.9365331" lon="17.7398599">
        <ele>28.9769</ele>
        <time>2014-06-17T11:46:47Z</time>
      </trkpt>
      <trkpt lat="59.9365098" lon="17.7398467">
        <ele>28.4962</ele>
        <time>2014-06-17T11:46:48Z</time>
      </trkpt>
      <trkpt lat="59.9364841" lon="17.7398387">
        <ele>27.5349</ele>
        <time>2014-06-17T11:46:49Z</time>
      </trkpt>
      <trkpt lat="59.9364603" lon="17.7398304">
        <ele>27.0543</ele>
        <time>2014-06-17T11:46:50Z</time>
      </trkpt>
      <trkpt lat="59.9364366" lon="17.7398133">
        <ele>27.0543</ele>
        <time>2014-06-17T11:46:51Z</time>
      </trkpt>
      <trkpt lat="59.936412" lon="17.739795">
        <ele>27.0543</ele>
        <time>2014-06-17T11:46:52Z</time>
      </trkpt>
      <trkpt lat="59.9363883" lon="17.7397828">
        <ele>27.0543</ele>
        <time>2014-06-17T11:46:53Z</time>
      </trkpt>
      <trkpt lat="59.9363637" lon="17.7397732">
        <ele>26.5736</ele>
        <time>2014-06-17T11:46:54Z</time>
      </trkpt>
      <trkpt lat="59.9363373" lon="17.7397607">
        <ele>26.0929</ele>
        <time>2014-06-17T11:46:55Z</time>
      </trkpt>
      <trkpt lat="59.9363125" lon="17.7397506">
        <ele>26.5736</ele>
        <time>2014-06-17T11:46:56Z</time>
      </trkpt>
      <trkpt lat="59.9362884" lon="17.7397442">
        <ele>27.0543</ele>
        <time>2014-06-17T11:46:57Z</time>
      </trkpt>
      <trkpt lat="59.9362609" lon="17.7397409">
        <ele>28.4962</ele>
        <time>2014-06-17T11:46:58Z</time>
      </trkpt>
      <trkpt lat="59.936239" lon="17.7397305">
        <ele>28.4962</ele>
        <time>2014-06-17T11:46:59Z</time>
      </trkpt>
      <trkpt lat="59.9362183" lon="17.7397198">
        <ele>28.0155</ele>
        <time>2014-06-17T11:47:00Z</time>
      </trkpt>
      <trkpt lat="59.9361951" lon="17.739708">
        <ele>27.0543</ele>
        <time>2014-06-17T11:47:01Z</time>
      </trkpt>
      <trkpt lat="59.9361728" lon="17.7396946">
        <ele>26.5736</ele>
        <time>2014-06-17T11:47:02Z</time>
      </trkpt>
      <trkpt lat="59.9361529" lon="17.7396812">
        <ele>26.0929</ele>
        <time>2014-06-17T11:47:03Z</time>
      </trkpt>
      <trkpt lat="59.9361299" lon="17.7396719">
        <ele>25.6123</ele>
        <time>2014-06-17T11:47:04Z</time>
      </trkpt>
      <trkpt lat="59.9361039" lon="17.739663">
        <ele>26.0929</ele>
        <time>2014-06-17T11:47:05Z</time>
      </trkpt>
      <trkpt lat="59.9360794" lon="17.7396575">
        <ele>27.0543</ele>
        <time>2014-06-17T11:47:06Z</time>
      </trkpt>
      <trkpt lat="59.9360588" lon="17.7396479">
        <ele>27.0543</ele>
        <time>2014-06-17T11:47:07Z</time>
      </trkpt>
      <trkpt lat="59.9360376" lon="17.7396386">
        <ele>26.5736</ele>
        <time>2014-06-17T11:47:08Z</time>
      </trkpt>
      <trkpt lat="59.936018" lon="17.7396304">
        <ele>26.5736</ele>
        <time>2014-06-17T11:47:09Z</time>
      </trkpt>
      <trkpt lat="59.935998" lon="17.7396149">
        <ele>26.0929</ele>
        <time>2014-06-17T11:47:10Z</time>
      </trkpt>
      <trkpt lat="59.9359769" lon="17.7395993">
        <ele>25.6123</ele>
        <time>2014-06-17T11:47:11Z</time>
      </trkpt>
      <trkpt lat="59.9359558" lon="17.7395858">
        <ele>24.651</ele>
        <time>2014-06-17T11:47:12Z</time>
      </trkpt>
      <trkpt lat="59.9359348" lon="17.739574">
        <ele>24.651</ele>
        <time>2014-06-17T11:47:13Z</time>
      </trkpt>
      <trkpt lat="59.9359139" lon="17.7395613">
        <ele>24.1703</ele>
        <time>2014-06-17T11:47:14Z</time>
      </trkpt>
      <trkpt lat="59.9358901" lon="17.7395463">
        <ele>23.6896</ele>
        <time>2014-06-17T11:47:15Z</time>
      </trkpt>
      <trkpt lat="59.9358687" lon="17.7395339">
        <ele>23.209</ele>
        <time>2014-06-17T11:47:16Z</time>
      </trkpt>
      <trkpt lat="59.9358495" lon="17.7395201">
        <ele>22.7283</ele>
        <time>2014-06-17T11:47:17Z</time>
      </trkpt>
      <trkpt lat="59.9358268" lon="17.7395061">
        <ele>22.2476</ele>
        <time>2014-06-17T11:47:18Z</time>
      </trkpt>
      <trkpt lat="59.935805" lon="17.7394934">
        <ele>22.2476</ele>
        <time>2014-06-17T11:47:19Z</time>
      </trkpt>
      <trkpt lat="59.9357836" lon="17.7394817">
        <ele>21.2864</ele>
        <time>2014-06-17T11:47:20Z</time>
      </trkpt>
      <trkpt lat="59.9357614" lon="17.7394667">
        <ele>21.2864</ele>
        <time>2014-06-17T11:47:21Z</time>
      </trkpt>
      <trkpt lat="59.9357403" lon="17.7394494">
        <ele>20.8057</ele>
        <time>2014-06-17T11:47:22Z</time>
      </trkpt>
      <trkpt lat="59.9357195" lon="17.7394356">
        <ele>20.325</ele>
        <time>2014-06-17T11:47:23Z</time>
      </trkpt>
      <trkpt lat="59.9356984" lon="17.7394226">
        <ele>19.8444</ele>
        <time>2014-06-17T11:47:24Z</time>
      </trkpt>
      <trkpt lat="59.9356789" lon="17.7394029">
        <ele>20.325</ele>
        <time>2014-06-17T11:47:25Z</time>
      </trkpt>
      <trkpt lat="59.9356615" lon="17.7393798">
        <ele>20.325</ele>
        <time>2014-06-17T11:47:26Z</time>
      </trkpt>
      <trkpt lat="59.9356442" lon="17.73936">
        <ele>20.325</ele>
        <time>2014-06-17T11:47:27Z</time>
      </trkpt>
      <trkpt lat="59.9356228" lon="17.7393422">
        <ele>19.8444</ele>
        <time>2014-06-17T11:47:28Z</time>
      </trkpt>
      <trkpt lat="59.9356019" lon="17.7393246">
        <ele>19.8444</ele>
        <time>2014-06-17T11:47:29Z</time>
      </trkpt>
      <trkpt lat="59.9355817" lon="17.7393116">
        <ele>19.8444</ele>
        <time>2014-06-17T11:47:30Z</time>
      </trkpt>
      <trkpt lat="59.9355624" lon="17.7392968">
        <ele>19.8444</ele>
        <time>2014-06-17T11:47:31Z</time>
      </trkpt>
      <trkpt lat="59.9355423" lon="17.7392759">
        <ele>19.3638</ele>
        <time>2014-06-17T11:47:32Z</time>
      </trkpt>
      <trkpt lat="59.9355206" lon="17.7392621">
        <ele>19.8444</ele>
        <time>2014-06-17T11:47:33Z</time>
      </trkpt>
      <trkpt lat="59.9354994" lon="17.7392472">
        <ele>19.8444</ele>
        <time>2014-06-17T11:47:34Z</time>
      </trkpt>
      <trkpt lat="59.9354791" lon="17.7392294">
        <ele>19.8444</ele>
        <time>2014-06-17T11:47:35Z</time>
      </trkpt>
      <trkpt lat="59.9354599" lon="17.7392098">
        <ele>20.325</ele>
        <time>2014-06-17T11:47:36Z</time>
      </trkpt>
      <trkpt lat="59.9354381" lon="17.7391922">
        <ele>20.325</ele>
        <time>2014-06-17T11:47:37Z</time>
      </trkpt>
      <trkpt lat="59.9354145" lon="17.739179">
        <ele>21.767</ele>
        <time>2014-06-17T11:47:38Z</time>
      </trkpt>
      <trkpt lat="59.9353919" lon="17.7391651">
        <ele>23.209</ele>
        <time>2014-06-17T11:47:39Z</time>
      </trkpt>
      <trkpt lat="59.93537" lon="17.7391544">
        <ele>24.1703</ele>
        <time>2014-06-17T11:47:40Z</time>
      </trkpt>
      <trkpt lat="59.9353476" lon="17.739141">
        <ele>25.6123</ele>
        <time>2014-06-17T11:47:41Z</time>
      </trkpt>
      <trkpt lat="59.9353259" lon="17.7391246">
        <ele>26.0929</ele>
        <time>2014-06-17T11:47:42Z</time>
      </trkpt>
      <trkpt lat="59.9353062" lon="17.7391119">
        <ele>27.0543</ele>
        <time>2014-06-17T11:47:43Z</time>
      </trkpt>
      <trkpt lat="59.9352855" lon="17.7390956">
        <ele>28.0155</ele>
        <time>2014-06-17T11:47:44Z</time>
      </trkpt>
      <trkpt lat="59.9352638" lon="17.7390787">
        <ele>28.4962</ele>
        <time>2014-06-17T11:47:45Z</time>
      </trkpt>
      <trkpt lat="59.9352428" lon="17.7390685">
        <ele>29.4575</ele>
        <time>2014-06-17T11:47:46Z</time>
      </trkpt>
      <trkpt lat="59.9352186" lon="17.7390635">
        <ele>29.9381</ele>
        <time>2014-06-17T11:47:47Z</time>
      </trkpt>
      <trkpt lat="59.9351936" lon="17.7390531">
        <ele>29.9381</ele>
        <time>2014-06-17T11:47:48Z</time>
      </trkpt>
      <trkpt lat="59.935171" lon="17.7390424">
        <ele>29.4575</ele>
        <time>2014-06-17T11:47:49Z</time>
      </trkpt>
      <trkpt lat="59.935148" lon="17.7390331">
        <ele>29.4575</ele>
        <time>2014-06-17T11:47:50Z</time>
      </trkpt>
      <trkpt lat="59.9351241" lon="17.7390185">
        <ele>28.9769</ele>
        <time>2014-06-17T11:47:51Z</time>
      </trkpt>
      <trkpt lat="59.9351001" lon="17.7390088">
        <ele>28.4962</ele>
        <time>2014-06-17T11:47:52Z</time>
      </trkpt>
      <trkpt lat="59.9350756" lon="17.7390014">
        <ele>28.0155</ele>
        <time>2014-06-17T11:47:53Z</time>
      </trkpt>
      <trkpt lat="59.9350483" lon="17.7389889">
        <ele>28.4962</ele>
        <time>2014-06-17T11:47:54Z</time>
      </trkpt>
      <trkpt lat="59.9350302" lon="17.7389684">
        <ele>28.4962</ele>
        <time>2014-06-17T11:47:55Z</time>
      </trkpt>
      <trkpt lat="59.9350138" lon="17.7389558">
        <ele>28.0155</ele>
        <time>2014-06-17T11:47:56Z</time>
      </trkpt>
      <trkpt lat="59.9349897" lon="17.7389472">
        <ele>28.0155</ele>
        <time>2014-06-17T11:47:57Z</time>
      </trkpt>
      <trkpt lat="59.9349637" lon="17.7389384">
        <ele>28.0155</ele>
        <time>2014-06-17T11:47:58Z</time>
      </trkpt>
      <trkpt lat="59.9349429" lon="17.7389297">
        <ele>28.0155</ele>
        <time>2014-06-17T11:47:59Z</time>
      </trkpt>
      <trkpt lat="59.9349218" lon="17.7389254">
        <ele>28.0155</ele>
        <time>2014-06-17T11:48:00Z</time>
      </trkpt>
      <trkpt lat="59.9348984" lon="17.7389161">
        <ele>28.0155</ele>
        <time>2014-06-17T11:48:01Z</time>
      </trkpt>
      <trkpt lat="59.9348789" lon="17.7389052">
        <ele>28.0155</ele>
        <time>2014-06-17T11:48:02Z</time>
      </trkpt>
      <trkpt lat="59.9348591" lon="17.7388985">
        <ele>28.4962</ele>
        <time>2014-06-17T11:48:03Z</time>
      </trkpt>
      <trkpt lat="59.9348393" lon="17.7388898">
        <ele>28.0155</ele>
        <time>2014-06-17T11:48:04Z</time>
      </trkpt>
      <trkpt lat="59.9348166" lon="17.7388815">
        <ele>27.5349</ele>
        <time>2014-06-17T11:48:05Z</time>
      </trkpt>
      <trkpt lat="59.9347933" lon="17.7388746">
        <ele>26.5736</ele>
        <time>2014-06-17T11:48:06Z</time>
      </trkpt>
      <trkpt lat="59.9347685" lon="17.738872">
        <ele>27.0543</ele>
        <time>2014-06-17T11:48:07Z</time>
      </trkpt>
      <trkpt lat="59.9347426" lon="17.7388605">
        <ele>27.0543</ele>
        <time>2014-06-17T11:48:08Z</time>
      </trkpt>
      <trkpt lat="59.9347193" lon="17.7388465">
        <ele>26.5736</ele>
        <time>2014-06-17T11:48:09Z</time>
      </trkpt>
      <trkpt lat="59.9346961" lon="17.7388372">
        <ele>26.0929</ele>
        <time>2014-06-17T11:48:10Z</time>
      </trkpt>
      <trkpt lat="59.9346711" lon="17.7388259">
        <ele>26.5736</ele>
        <time>2014-06-17T11:48:11Z</time>
      </trkpt>
      <trkpt lat="59.9346503" lon="17.7388082">
        <ele>26.0929</ele>
        <time>2014-06-17T11:48:12Z</time>
      </trkpt>
      <trkpt lat="59.9346271" lon="17.738799">
        <ele>26.0929</ele>
        <time>2014-06-17T11:48:13Z</time>
      </trkpt>
      <trkpt lat="59.9346001" lon="17.7387938">
        <ele>26.0929</ele>
        <time>2014-06-17T11:48:14Z</time>
      </trkpt>
      <trkpt lat="59.934575" lon="17.738785">
        <ele>26.0929</ele>
        <time>2014-06-17T11:48:15Z</time>
      </trkpt>
      <trkpt lat="59.934555" lon="17.7387708">
        <ele>26.5736</ele>
        <time>2014-06-17T11:48:16Z</time>
      </trkpt>
      <trkpt lat="59.9345353" lon="17.738755">
        <ele>26.5736</ele>
        <time>2014-06-17T11:48:17Z</time>
      </trkpt>
      <trkpt lat="59.9345104" lon="17.73874">
        <ele>26.0929</ele>
        <time>2014-06-17T11:48:18Z</time>
      </trkpt>
      <trkpt lat="59.9344875" lon="17.7387247">
        <ele>26.5736</ele>
        <time>2014-06-17T11:48:19Z</time>
      </trkpt>
      <trkpt lat="59.9344683" lon="17.7387125">
        <ele>27.0543</ele>
        <time>2014-06-17T11:48:20Z</time>
      </trkpt>
      <trkpt lat="59.9344473" lon="17.7386959">
        <ele>27.0543</ele>
        <time>2014-06-17T11:48:21Z</time>
      </trkpt>
      <trkpt lat="59.9344241" lon="17.7386833">
        <ele>27.5349</ele>
        <time>2014-06-17T11:48:22Z</time>
      </trkpt>
      <trkpt lat="59.9344048" lon="17.7386729">
        <ele>28.0155</ele>
        <time>2014-06-17T11:48:23Z</time>
      </trkpt>
      <trkpt lat="59.9343877" lon="17.7386549">
        <ele>28.4962</ele>
        <time>2014-06-17T11:48:24Z</time>
      </trkpt>
      <trkpt lat="59.934369" lon="17.7386396">
        <ele>28.4962</ele>
        <time>2014-06-17T11:48:25Z</time>
      </trkpt>
      <trkpt lat="59.9343463" lon="17.738629">
        <ele>28.0155</ele>
        <time>2014-06-17T11:48:26Z</time>
      </trkpt>
      <trkpt lat="59.9343205" lon="17.7386181">
        <ele>28.0155</ele>
        <time>2014-06-17T11:48:27Z</time>
      </trkpt>
      <trkpt lat="59.9342986" lon="17.7385988">
        <ele>28.0155</ele>
        <time>2014-06-17T11:48:28Z</time>
      </trkpt>
      <trkpt lat="59.9342793" lon="17.7385862">
        <ele>27.0543</ele>
        <time>2014-06-17T11:48:29Z</time>
      </trkpt>
      <trkpt lat="59.9342583" lon="17.7385798">
        <ele>27.0543</ele>
        <time>2014-06-17T11:48:30Z</time>
      </trkpt>
      <trkpt lat="59.9342352" lon="17.7385668">
        <ele>27.0543</ele>
        <time>2014-06-17T11:48:31Z</time>
      </trkpt>
      <trkpt lat="59.9342153" lon="17.7385497">
        <ele>27.5349</ele>
        <time>2014-06-17T11:48:32Z</time>
      </trkpt>
      <trkpt lat="59.9341941" lon="17.7385384">
        <ele>27.0543</ele>
        <time>2014-06-17T11:48:33Z</time>
      </trkpt>
      <trkpt lat="59.9341728" lon="17.7385292">
        <ele>27.0543</ele>
        <time>2014-06-17T11:48:34Z</time>
      </trkpt>
      <trkpt lat="59.9341494" lon="17.7385145">
        <ele>26.5736</ele>
        <time>2014-06-17T11:48:35Z</time>
      </trkpt>
      <trkpt lat="59.9341225" lon="17.7385142">
        <ele>28.4962</ele>
        <time>2014-06-17T11:48:36Z</time>
      </trkpt>
      <trkpt lat="59.9340971" lon="17.7385105">
        <ele>29.4575</ele>
        <time>2014-06-17T11:48:37Z</time>
      </trkpt>
      <trkpt lat="59.9340702" lon="17.7385026">
        <ele>29.9381</ele>
        <time>2014-06-17T11:48:38Z</time>
      </trkpt>
      <trkpt lat="59.9340463" lon="17.738495">
        <ele>30.4188</ele>
        <time>2014-06-17T11:48:39Z</time>
      </trkpt>
      <trkpt lat="59.934025" lon="17.7384856">
        <ele>31.3801</ele>
        <time>2014-06-17T11:48:40Z</time>
      </trkpt>
      <trkpt lat="59.9340049" lon="17.738471">
        <ele>32.3416</ele>
        <time>2014-06-17T11:48:41Z</time>
      </trkpt>
      <trkpt lat="59.9339824" lon="17.7384583">
        <ele>32.8223</ele>
        <time>2014-06-17T11:48:42Z</time>
      </trkpt>
      <trkpt lat="59.9339612" lon="17.7384493">
        <ele>33.3029</ele>
        <time>2014-06-17T11:48:43Z</time>
      </trkpt>
      <trkpt lat="59.9339403" lon="17.7384405">
        <ele>33.3029</ele>
        <time>2014-06-17T11:48:44Z</time>
      </trkpt>
      <trkpt lat="59.9339182" lon="17.7384303">
        <ele>33.3029</ele>
        <time>2014-06-17T11:48:45Z</time>
      </trkpt>
      <trkpt lat="59.9338951" lon="17.7384241">
        <ele>33.7834</ele>
        <time>2014-06-17T11:48:46Z</time>
      </trkpt>
      <trkpt lat="59.9338697" lon="17.7384224">
        <ele>33.3029</ele>
        <time>2014-06-17T11:48:47Z</time>
      </trkpt>
      <trkpt lat="59.9338441" lon="17.738421">
        <ele>33.3029</ele>
        <time>2014-06-17T11:48:48Z</time>
      </trkpt>
      <trkpt lat="59.9338204" lon="17.7384297">
        <ele>33.3029</ele>
        <time>2014-06-17T11:48:49Z</time>
      </trkpt>
      <trkpt lat="59.9337998" lon="17.7384442">
        <ele>33.3029</ele>
        <time>2014-06-17T11:48:50Z</time>
      </trkpt>
      <trkpt lat="59.9337806" lon="17.7384613">
        <ele>33.7834</ele>
        <time>2014-06-17T11:48:51Z</time>
      </trkpt>
      <trkpt lat="59.9337609" lon="17.7384866">
        <ele>34.7449</ele>
        <time>2014-06-17T11:48:52Z</time>
      </trkpt>
      <trkpt lat="59.9337428" lon="17.7385157">
        <ele>34.7449</ele>
        <time>2014-06-17T11:48:53Z</time>
      </trkpt>
      <trkpt lat="59.933724" lon="17.738551">
        <ele>34.7449</ele>
        <time>2014-06-17T11:48:54Z</time>
      </trkpt>
      <trkpt lat="59.9337075" lon="17.7385917">
        <ele>34.7449</ele>
        <time>2014-06-17T11:48:55Z</time>
      </trkpt>
      <trkpt lat="59.9336919" lon="17.7386332">
        <ele>35.7061</ele>
        <time>2014-06-17T11:48:56Z</time>
      </trkpt>
      <trkpt lat="59.9336765" lon="17.7386727">
        <ele>36.1868</ele>
        <time>2014-06-17T11:48:57Z</time>
      </trkpt>
      <trkpt lat="59.9336605" lon="17.7387161">
        <ele>36.6675</ele>
        <time>2014-06-17T11:48:58Z</time>
      </trkpt>
      <trkpt lat="59.9336448" lon="17.7387586">
        <ele>36.1868</ele>
        <time>2014-06-17T11:48:59Z</time>
      </trkpt>
      <trkpt lat="59.9336281" lon="17.7387991">
        <ele>36.6675</ele>
        <time>2014-06-17T11:49:00Z</time>
      </trkpt>
      <trkpt lat="59.9336097" lon="17.7388343">
        <ele>36.6675</ele>
        <time>2014-06-17T11:49:01Z</time>
      </trkpt>
      <trkpt lat="59.933592" lon="17.7388669">
        <ele>36.6675</ele>
        <time>2014-06-17T11:49:02Z</time>
      </trkpt>
      <trkpt lat="59.933576" lon="17.7389057">
        <ele>36.6675</ele>
        <time>2014-06-17T11:49:03Z</time>
      </trkpt>
      <trkpt lat="59.9335601" lon="17.7389429">
        <ele>36.1868</ele>
        <time>2014-06-17T11:49:04Z</time>
      </trkpt>
      <trkpt lat="59.9335416" lon="17.7389763">
        <ele>36.6675</ele>
        <time>2014-06-17T11:49:05Z</time>
      </trkpt>
      <trkpt lat="59.9335225" lon="17.7390123">
        <ele>36.6675</ele>
        <time>2014-06-17T11:49:06Z</time>
      </trkpt>
      <trkpt lat="59.9335043" lon="17.7390518">
        <ele>36.6675</ele>
        <time>2014-06-17T11:49:07Z</time>
      </trkpt>
      <trkpt lat="59.933486" lon="17.7390891">
        <ele>37.1481</ele>
        <time>2014-06-17T11:49:08Z</time>
      </trkpt>
      <trkpt lat="59.9334694" lon="17.7391278">
        <ele>38.1094</ele>
        <time>2014-06-17T11:49:09Z</time>
      </trkpt>
      <trkpt lat="59.9334554" lon="17.7391596">
        <ele>38.1094</ele>
        <time>2014-06-17T11:49:10Z</time>
      </trkpt>
      <trkpt lat="59.9334396" lon="17.7391885">
        <ele>38.5901</ele>
        <time>2014-06-17T11:49:11Z</time>
      </trkpt>
      <trkpt lat="59.9334218" lon="17.7392225">
        <ele>39.5513</ele>
        <time>2014-06-17T11:49:12Z</time>
      </trkpt>
      <trkpt lat="59.9334076" lon="17.7392568">
        <ele>40.0321</ele>
        <time>2014-06-17T11:49:13Z</time>
      </trkpt>
      <trkpt lat="59.9333935" lon="17.7392921">
        <ele>40.5128</ele>
        <time>2014-06-17T11:49:14Z</time>
      </trkpt>
      <trkpt lat="59.9333775" lon="17.7393248">
        <ele>40.5128</ele>
        <time>2014-06-17T11:49:15Z</time>
      </trkpt>
      <trkpt lat="59.9333621" lon="17.7393548">
        <ele>40.9934</ele>
        <time>2014-06-17T11:49:16Z</time>
      </trkpt>
      <trkpt lat="59.933347" lon="17.7393874">
        <ele>40.5128</ele>
        <time>2014-06-17T11:49:17Z</time>
      </trkpt>
      <trkpt lat="59.9333285" lon="17.7394263">
        <ele>40.9934</ele>
        <time>2014-06-17T11:49:18Z</time>
      </trkpt>
      <trkpt lat="59.9333086" lon="17.7394704">
        <ele>41.474</ele>
        <time>2014-06-17T11:49:19Z</time>
      </trkpt>
      <trkpt lat="59.9332923" lon="17.7395078">
        <ele>41.474</ele>
        <time>2014-06-17T11:49:20Z</time>
      </trkpt>
      <trkpt lat="59.9332782" lon="17.7395412">
        <ele>41.9547</ele>
        <time>2014-06-17T11:49:21Z</time>
      </trkpt>
      <trkpt lat="59.9332611" lon="17.7395759">
        <ele>42.916</ele>
        <time>2014-06-17T11:49:22Z</time>
      </trkpt>
      <trkpt lat="59.9332423" lon="17.7396102">
        <ele>42.916</ele>
        <time>2014-06-17T11:49:23Z</time>
      </trkpt>
      <trkpt lat="59.9332264" lon="17.7396412">
        <ele>42.916</ele>
        <time>2014-06-17T11:49:24Z</time>
      </trkpt>
      <trkpt lat="59.9332107" lon="17.7396687">
        <ele>42.916</ele>
        <time>2014-06-17T11:49:25Z</time>
      </trkpt>
      <trkpt lat="59.933194" lon="17.7397003">
        <ele>43.3966</ele>
        <time>2014-06-17T11:49:26Z</time>
      </trkpt>
      <trkpt lat="59.9331812" lon="17.7397335">
        <ele>43.8773</ele>
        <time>2014-06-17T11:49:27Z</time>
      </trkpt>
      <trkpt lat="59.9331695" lon="17.7397701">
        <ele>44.358</ele>
        <time>2014-06-17T11:49:28Z</time>
      </trkpt>
      <trkpt lat="59.933155" lon="17.7398049">
        <ele>44.8386</ele>
        <time>2014-06-17T11:49:29Z</time>
      </trkpt>
      <trkpt lat="59.9331363" lon="17.7398387">
        <ele>45.3192</ele>
        <time>2014-06-17T11:49:30Z</time>
      </trkpt>
      <trkpt lat="59.9331181" lon="17.7398773">
        <ele>46.2806</ele>
        <time>2014-06-17T11:49:31Z</time>
      </trkpt>
      <trkpt lat="59.9331025" lon="17.7399137">
        <ele>46.7612</ele>
        <time>2014-06-17T11:49:32Z</time>
      </trkpt>
      <trkpt lat="59.9330852" lon="17.7399432">
        <ele>47.7225</ele>
        <time>2014-06-17T11:49:33Z</time>
      </trkpt>
      <trkpt lat="59.9330694" lon="17.7399713">
        <ele>46.7612</ele>
        <time>2014-06-17T11:49:34Z</time>
      </trkpt>
      <trkpt lat="59.9330539" lon="17.7399962">
        <ele>46.2806</ele>
        <time>2014-06-17T11:49:35Z</time>
      </trkpt>
      <trkpt lat="59.9330362" lon="17.7400188">
        <ele>46.2806</ele>
        <time>2014-06-17T11:49:36Z</time>
      </trkpt>
      <trkpt lat="59.9330184" lon="17.7400442">
        <ele>46.7612</ele>
        <time>2014-06-17T11:49:37Z</time>
      </trkpt>
      <trkpt lat="59.9330005" lon="17.7400729">
        <ele>47.2418</ele>
        <time>2014-06-17T11:49:38Z</time>
      </trkpt>
      <trkpt lat="59.9329845" lon="17.7400983">
        <ele>47.7225</ele>
        <time>2014-06-17T11:49:39Z</time>
      </trkpt>
      <trkpt lat="59.9329653" lon="17.7401175">
        <ele>48.2034</ele>
        <time>2014-06-17T11:49:40Z</time>
      </trkpt>
      <trkpt lat="59.9329451" lon="17.740148">
        <ele>48.684</ele>
        <time>2014-06-17T11:49:41Z</time>
      </trkpt>
      <trkpt lat="59.932928" lon="17.7401826">
        <ele>48.2034</ele>
        <time>2014-06-17T11:49:42Z</time>
      </trkpt>
      <trkpt lat="59.9329114" lon="17.7402093">
        <ele>47.2418</ele>
        <time>2014-06-17T11:49:43Z</time>
      </trkpt>
      <trkpt lat="59.9328958" lon="17.7402369">
        <ele>46.2806</ele>
        <time>2014-06-17T11:49:44Z</time>
      </trkpt>
      <trkpt lat="59.9328813" lon="17.7402665">
        <ele>45.7999</ele>
        <time>2014-06-17T11:49:45Z</time>
      </trkpt>
      <trkpt lat="59.9328657" lon="17.740296">
        <ele>44.8386</ele>
        <time>2014-06-17T11:49:46Z</time>
      </trkpt>
      <trkpt lat="59.9328482" lon="17.7403269">
        <ele>43.8773</ele>
        <time>2014-06-17T11:49:47Z</time>
      </trkpt>
      <trkpt lat="59.9328342" lon="17.7403544">
        <ele>42.916</ele>
        <time>2014-06-17T11:49:48Z</time>
      </trkpt>
      <trkpt lat="59.9328213" lon="17.7403858">
        <ele>42.916</ele>
        <time>2014-06-17T11:49:49Z</time>
      </trkpt>
      <trkpt lat="59.9328047" lon="17.7404193">
        <ele>42.4354</ele>
        <time>2014-06-17T11:49:50Z</time>
      </trkpt>
      <trkpt lat="59.9327869" lon="17.7404561">
        <ele>41.9547</ele>
        <time>2014-06-17T11:49:51Z</time>
      </trkpt>
      <trkpt lat="59.9327715" lon="17.7404891">
        <ele>41.474</ele>
        <time>2014-06-17T11:49:52Z</time>
      </trkpt>
      <trkpt lat="59.932756" lon="17.7405172">
        <ele>40.9934</ele>
        <time>2014-06-17T11:49:53Z</time>
      </trkpt>
      <trkpt lat="59.9327425" lon="17.740549">
        <ele>40.5128</ele>
        <time>2014-06-17T11:49:54Z</time>
      </trkpt>
      <trkpt lat="59.9327294" lon="17.7405818">
        <ele>40.0321</ele>
        <time>2014-06-17T11:49:55Z</time>
      </trkpt>
      <trkpt lat="59.932713" lon="17.7406157">
        <ele>40.0321</ele>
        <time>2014-06-17T11:49:56Z</time>
      </trkpt>
      <trkpt lat="59.9326958" lon="17.74065">
        <ele>40.0321</ele>
        <time>2014-06-17T11:49:57Z</time>
      </trkpt>
      <trkpt lat="59.9326809" lon="17.7406845">
        <ele>39.5513</ele>
        <time>2014-06-17T11:49:58Z</time>
      </trkpt>
      <trkpt lat="59.9326659" lon="17.740715">
        <ele>39.5513</ele>
        <time>2014-06-17T11:49:59Z</time>
      </trkpt>
      <trkpt lat="59.9326484" lon="17.7407436">
        <ele>40.5128</ele>
        <time>2014-06-17T11:50:00Z</time>
      </trkpt>
      <trkpt lat="59.9326321" lon="17.7407712">
        <ele>40.9934</ele>
        <time>2014-06-17T11:50:01Z</time>
      </trkpt>
      <trkpt lat="59.9326166" lon="17.7408006">
        <ele>40.9934</ele>
        <time>2014-06-17T11:50:02Z</time>
      </trkpt>
      <trkpt lat="59.9325996" lon="17.7408296">
        <ele>41.474</ele>
        <time>2014-06-17T11:50:03Z</time>
      </trkpt>
      <trkpt lat="59.9325819" lon="17.7408591">
        <ele>41.9547</ele>
        <time>2014-06-17T11:50:04Z</time>
      </trkpt>
      <trkpt lat="59.9325669" lon="17.7408888">
        <ele>42.4354</ele>
        <time>2014-06-17T11:50:05Z</time>
      </trkpt>
      <trkpt lat="59.9325522" lon="17.7409192">
        <ele>42.4354</ele>
        <time>2014-06-17T11:50:06Z</time>
      </trkpt>
      <trkpt lat="59.9325348" lon="17.740948">
        <ele>42.4354</ele>
        <time>2014-06-17T11:50:07Z</time>
      </trkpt>
      <trkpt lat="59.932518" lon="17.7409802">
        <ele>42.4354</ele>
        <time>2014-06-17T11:50:08Z</time>
      </trkpt>
      <trkpt lat="59.9325033" lon="17.7410084">
        <ele>42.4354</ele>
        <time>2014-06-17T11:50:09Z</time>
      </trkpt>
      <trkpt lat="59.9324878" lon="17.7410389">
        <ele>42.4354</ele>
        <time>2014-06-17T11:50:10Z</time>
      </trkpt>
      <trkpt lat="59.9324706" lon="17.7410704">
        <ele>41.474</ele>
        <time>2014-06-17T11:50:11Z</time>
      </trkpt>
      <trkpt lat="59.9324536" lon="17.7410969">
        <ele>40.9934</ele>
        <time>2014-06-17T11:50:12Z</time>
      </trkpt>
      <trkpt lat="59.9324359" lon="17.7411252">
        <ele>40.9934</ele>
        <time>2014-06-17T11:50:13Z</time>
      </trkpt>
      <trkpt lat="59.9324197" lon="17.7411553">
        <ele>40.9934</ele>
        <time>2014-06-17T11:50:14Z</time>
      </trkpt>
      <trkpt lat="59.9324001" lon="17.7411844">
        <ele>40.9934</ele>
        <time>2014-06-17T11:50:15Z</time>
      </trkpt>
      <trkpt lat="59.9323762" lon="17.7412087">
        <ele>40.9934</ele>
        <time>2014-06-17T11:50:16Z</time>
      </trkpt>
      <trkpt lat="59.9323518" lon="17.7412248">
        <ele>40.5128</ele>
        <time>2014-06-17T11:50:17Z</time>
      </trkpt>
      <trkpt lat="59.9323301" lon="17.7412381">
        <ele>40.5128</ele>
        <time>2014-06-17T11:50:18Z</time>
      </trkpt>
      <trkpt lat="59.93231" lon="17.7412522">
        <ele>40.0321</ele>
        <time>2014-06-17T11:50:19Z</time>
      </trkpt>
      <trkpt lat="59.9322913" lon="17.7412632">
        <ele>39.0707</ele>
        <time>2014-06-17T11:50:20Z</time>
      </trkpt>
      <trkpt lat="59.9322717" lon="17.7412823">
        <ele>39.0707</ele>
        <time>2014-06-17T11:50:21Z</time>
      </trkpt>
      <trkpt lat="59.932253" lon="17.7412951">
        <ele>38.1094</ele>
        <time>2014-06-17T11:50:22Z</time>
      </trkpt>
      <trkpt lat="59.9322347" lon="17.7413106">
        <ele>38.1094</ele>
        <time>2014-06-17T11:50:23Z</time>
      </trkpt>
      <trkpt lat="59.9322168" lon="17.7413362">
        <ele>37.6287</ele>
        <time>2014-06-17T11:50:24Z</time>
      </trkpt>
      <trkpt lat="59.9321966" lon="17.7413724">
        <ele>37.1481</ele>
        <time>2014-06-17T11:50:25Z</time>
      </trkpt>
      <trkpt lat="59.9321789" lon="17.7414129">
        <ele>35.7061</ele>
        <time>2014-06-17T11:50:26Z</time>
      </trkpt>
      <trkpt lat="59.9321635" lon="17.7414512">
        <ele>35.2255</ele>
        <time>2014-06-17T11:50:27Z</time>
      </trkpt>
      <trkpt lat="59.9321435" lon="17.7414859">
        <ele>35.2255</ele>
        <time>2014-06-17T11:50:28Z</time>
      </trkpt>
      <trkpt lat="59.9321233" lon="17.7415186">
        <ele>34.2642</ele>
        <time>2014-06-17T11:50:29Z</time>
      </trkpt>
      <trkpt lat="59.9321068" lon="17.7415522">
        <ele>34.2642</ele>
        <time>2014-06-17T11:50:30Z</time>
      </trkpt>
      <trkpt lat="59.9320912" lon="17.7415828">
        <ele>33.7834</ele>
        <time>2014-06-17T11:50:31Z</time>
      </trkpt>
      <trkpt lat="59.9320762" lon="17.7416253">
        <ele>32.8223</ele>
        <time>2014-06-17T11:50:32Z</time>
      </trkpt>
      <trkpt lat="59.9320639" lon="17.7416594">
        <ele>32.3416</ele>
        <time>2014-06-17T11:50:33Z</time>
      </trkpt>
      <trkpt lat="59.9320505" lon="17.7416942">
        <ele>30.8995</ele>
        <time>2014-06-17T11:50:34Z</time>
      </trkpt>
      <trkpt lat="59.9320392" lon="17.7417313">
        <ele>30.4188</ele>
        <time>2014-06-17T11:50:35Z</time>
      </trkpt>
      <trkpt lat="59.9320339" lon="17.7417647">
        <ele>30.4188</ele>
        <time>2014-06-17T11:50:36Z</time>
      </trkpt>
      <trkpt lat="59.9320276" lon="17.7417932">
        <ele>30.4188</ele>
        <time>2014-06-17T11:50:37Z</time>
      </trkpt>
      <trkpt lat="59.9320152" lon="17.7418246">
        <ele>29.4575</ele>
        <time>2014-06-17T11:50:38Z</time>
      </trkpt>
      <trkpt lat="59.9320047" lon="17.7418552">
        <ele>28.4962</ele>
        <time>2014-06-17T11:50:39Z</time>
      </trkpt>
      <trkpt lat="59.9319961" lon="17.7418838">
        <ele>28.0155</ele>
        <time>2014-06-17T11:50:40Z</time>
      </trkpt>
      <trkpt lat="59.9319816" lon="17.7419033">
        <ele>26.5736</ele>
        <time>2014-06-17T11:50:41Z</time>
      </trkpt>
      <trkpt lat="59.9319692" lon="17.7419123">
        <ele>26.5736</ele>
        <time>2014-06-17T11:50:42Z</time>
      </trkpt>
      <trkpt lat="59.931952" lon="17.7419241">
        <ele>27.0543</ele>
        <time>2014-06-17T11:50:43Z</time>
      </trkpt>
      <trkpt lat="59.9319355" lon="17.7419335">
        <ele>27.0543</ele>
        <time>2014-06-17T11:50:44Z</time>
      </trkpt>
      <trkpt lat="59.9319244" lon="17.7419349">
        <ele>27.0543</ele>
        <time>2014-06-17T11:50:45Z</time>
      </trkpt>
      <trkpt lat="59.9319156" lon="17.7419242">
        <ele>27.5349</ele>
        <time>2014-06-17T11:50:46Z</time>
      </trkpt>
      <trkpt lat="59.9319002" lon="17.7419185">
        <ele>27.5349</ele>
        <time>2014-06-17T11:50:47Z</time>
      </trkpt>
      <trkpt lat="59.9318807" lon="17.7419081">
        <ele>27.5349</ele>
        <time>2014-06-17T11:50:48Z</time>
      </trkpt>
      <trkpt lat="59.9318617" lon="17.7418915">
        <ele>25.6123</ele>
        <time>2014-06-17T11:50:49Z</time>
      </trkpt>
      <trkpt lat="59.9318416" lon="17.7418734">
        <ele>24.651</ele>
        <time>2014-06-17T11:50:50Z</time>
      </trkpt>
      <trkpt lat="59.9318213" lon="17.7418608">
        <ele>23.209</ele>
        <time>2014-06-17T11:50:51Z</time>
      </trkpt>
      <trkpt lat="59.9318013" lon="17.7418551">
        <ele>22.2476</ele>
        <time>2014-06-17T11:50:52Z</time>
      </trkpt>
      <trkpt lat="59.9317831" lon="17.7418553">
        <ele>21.2864</ele>
        <time>2014-06-17T11:50:53Z</time>
      </trkpt>
      <trkpt lat="59.9317604" lon="17.7418667">
        <ele>19.3638</ele>
        <time>2014-06-17T11:50:54Z</time>
      </trkpt>
      <trkpt lat="59.931741" lon="17.7418774">
        <ele>18.8831</ele>
        <time>2014-06-17T11:50:55Z</time>
      </trkpt>
      <trkpt lat="59.9317209" lon="17.7418766">
        <ele>17.4412</ele>
        <time>2014-06-17T11:50:56Z</time>
      </trkpt>
      <trkpt lat="59.9316986" lon="17.7418765">
        <ele>16.4797</ele>
        <time>2014-06-17T11:50:57Z</time>
      </trkpt>
      <trkpt lat="59.9316747" lon="17.7418779">
        <ele>15.5184</ele>
        <time>2014-06-17T11:50:58Z</time>
      </trkpt>
      <trkpt lat="59.9316511" lon="17.7418818">
        <ele>15.5184</ele>
        <time>2014-06-17T11:50:59Z</time>
      </trkpt>
      <trkpt lat="59.9316298" lon="17.7418817">
        <ele>15.5184</ele>
        <time>2014-06-17T11:51:00Z</time>
      </trkpt>
      <trkpt lat="59.9316074" lon="17.7418807">
        <ele>15.0377</ele>
        <time>2014-06-17T11:51:01Z</time>
      </trkpt>
      <trkpt lat="59.9315843" lon="17.7418733">
        <ele>14.557</ele>
        <time>2014-06-17T11:51:02Z</time>
      </trkpt>
      <trkpt lat="59.9315661" lon="17.7418656">
        <ele>14.0764</ele>
        <time>2014-06-17T11:51:03Z</time>
      </trkpt>
      <trkpt lat="59.9315453" lon="17.7418663">
        <ele>13.1151</ele>
        <time>2014-06-17T11:51:04Z</time>
      </trkpt>
      <trkpt lat="59.9315185" lon="17.7418846">
        <ele>12.6344</ele>
        <time>2014-06-17T11:51:05Z</time>
      </trkpt>
      <trkpt lat="59.9314915" lon="17.7419012">
        <ele>13.1151</ele>
        <time>2014-06-17T11:51:06Z</time>
      </trkpt>
      <trkpt lat="59.9314642" lon="17.7419252">
        <ele>13.5958</ele>
        <time>2014-06-17T11:51:07Z</time>
      </trkpt>
      <trkpt lat="59.9314461" lon="17.7419527">
        <ele>13.5958</ele>
        <time>2014-06-17T11:51:08Z</time>
      </trkpt>
      <trkpt lat="59.9314268" lon="17.741968">
        <ele>12.6344</ele>
        <time>2014-06-17T11:51:09Z</time>
      </trkpt>
      <trkpt lat="59.9314022" lon="17.7420039">
        <ele>17.4412</ele>
        <time>2014-06-17T11:51:10Z</time>
      </trkpt>
      <trkpt lat="59.9313832" lon="17.7420324">
        <ele>17.9218</ele>
        <time>2014-06-17T11:51:11Z</time>
      </trkpt>
      <trkpt lat="59.9313606" lon="17.7420592">
        <ele>17.9218</ele>
        <time>2014-06-17T11:51:12Z</time>
      </trkpt>
      <trkpt lat="59.9313371" lon="17.742093">
        <ele>20.8057</ele>
        <time>2014-06-17T11:51:13Z</time>
      </trkpt>
      <trkpt lat="59.931321" lon="17.7421215">
        <ele>21.2864</ele>
        <time>2014-06-17T11:51:14Z</time>
      </trkpt>
      <trkpt lat="59.931303" lon="17.7421349">
        <ele>21.2864</ele>
        <time>2014-06-17T11:51:15Z</time>
      </trkpt>
      <trkpt lat="59.9312865" lon="17.7421457">
        <ele>20.325</ele>
        <time>2014-06-17T11:51:16Z</time>
      </trkpt>
      <trkpt lat="59.9312684" lon="17.742148">
        <ele>20.325</ele>
        <time>2014-06-17T11:51:17Z</time>
      </trkpt>
      <trkpt lat="59.9312494" lon="17.7421391">
        <ele>20.8057</ele>
        <time>2014-06-17T11:51:18Z</time>
      </trkpt>
      <trkpt lat="59.9312306" lon="17.7421262">
        <ele>20.325</ele>
        <time>2014-06-17T11:51:19Z</time>
      </trkpt>
      <trkpt lat="59.9312085" lon="17.7421354">
        <ele>25.1317</ele>
        <time>2014-06-17T11:51:20Z</time>
      </trkpt>
      <trkpt lat="59.9311795" lon="17.7421415">
        <ele>30.4188</ele>
        <time>2014-06-17T11:51:21Z</time>
      </trkpt>
      <trkpt lat="59.9311476" lon="17.7421262">
        <ele>30.8995</ele>
        <time>2014-06-17T11:51:22Z</time>
      </trkpt>
      <trkpt lat="59.9311154" lon="17.7421076">
        <ele>30.8995</ele>
        <time>2014-06-17T11:51:23Z</time>
      </trkpt>
      <trkpt lat="59.9310926" lon="17.742094">
        <ele>30.4188</ele>
        <time>2014-06-17T11:51:24Z</time>
      </trkpt>
      <trkpt lat="59.9310709" lon="17.7420786">
        <ele>29.4575</ele>
        <time>2014-06-17T11:51:25Z</time>
      </trkpt>
      <trkpt lat="59.9310547" lon="17.7420656">
        <ele>28.9769</ele>
        <time>2014-06-17T11:51:26Z</time>
      </trkpt>
      <trkpt lat="59.9310376" lon="17.7420474">
        <ele>28.0155</ele>
        <time>2014-06-17T11:51:27Z</time>
      </trkpt>
      <trkpt lat="59.9310197" lon="17.7420355">
        <ele>27.0543</ele>
        <time>2014-06-17T11:51:28Z</time>
      </trkpt>
      <trkpt lat="59.9310035" lon="17.742031">
        <ele>26.0929</ele>
        <time>2014-06-17T11:51:29Z</time>
      </trkpt>
      <trkpt lat="59.9309829" lon="17.7420195">
        <ele>23.6896</ele>
        <time>2014-06-17T11:51:30Z</time>
      </trkpt>
      <trkpt lat="59.930959" lon="17.7420087">
        <ele>22.2476</ele>
        <time>2014-06-17T11:51:31Z</time>
      </trkpt>
      <trkpt lat="59.9309346" lon="17.742005">
        <ele>20.325</ele>
        <time>2014-06-17T11:51:32Z</time>
      </trkpt>
      <trkpt lat="59.9309124" lon="17.7420008">
        <ele>20.325</ele>
        <time>2014-06-17T11:51:33Z</time>
      </trkpt>
      <trkpt lat="59.9308963" lon="17.7419932">
        <ele>19.8444</ele>
        <time>2014-06-17T11:51:34Z</time>
      </trkpt>
      <trkpt lat="59.9308796" lon="17.7419935">
        <ele>20.325</ele>
        <time>2014-06-17T11:51:35Z</time>
      </trkpt>
      <trkpt lat="59.9308638" lon="17.7419897">
        <ele>19.8444</ele>
        <time>2014-06-17T11:51:36Z</time>
      </trkpt>
      <trkpt lat="59.9308392" lon="17.7419841">
        <ele>18.8831</ele>
        <time>2014-06-17T11:51:37Z</time>
      </trkpt>
      <trkpt lat="59.9308144" lon="17.7419813">
        <ele>18.8831</ele>
        <time>2014-06-17T11:51:38Z</time>
      </trkpt>
      <trkpt lat="59.9307884" lon="17.7419773">
        <ele>18.4023</ele>
        <time>2014-06-17T11:51:39Z</time>
      </trkpt>
      <trkpt lat="59.9307694" lon="17.7419739">
        <ele>17.9218</ele>
        <time>2014-06-17T11:51:40Z</time>
      </trkpt>
      <trkpt lat="59.9307499" lon="17.7419735">
        <ele>16.9604</ele>
        <time>2014-06-17T11:51:41Z</time>
      </trkpt>
      <trkpt lat="59.9307228" lon="17.7419775">
        <ele>15.999</ele>
        <time>2014-06-17T11:51:42Z</time>
      </trkpt>
      <trkpt lat="59.9307" lon="17.7419666">
        <ele>15.5184</ele>
        <time>2014-06-17T11:51:43Z</time>
      </trkpt>
      <trkpt lat="59.93067" lon="17.7419527">
        <ele>15.0377</ele>
        <time>2014-06-17T11:51:44Z</time>
      </trkpt>
      <trkpt lat="59.9306387" lon="17.7419351">
        <ele>15.0377</ele>
        <time>2014-06-17T11:51:45Z</time>
      </trkpt>
      <trkpt lat="59.930612" lon="17.7419091">
        <ele>15.999</ele>
        <time>2014-06-17T11:51:46Z</time>
      </trkpt>
      <trkpt lat="59.9305897" lon="17.7418984">
        <ele>20.325</ele>
        <time>2014-06-17T11:51:47Z</time>
      </trkpt>
      <trkpt lat="59.9305757" lon="17.7418697">
        <ele>24.1703</ele>
        <time>2014-06-17T11:51:48Z</time>
      </trkpt>
      <trkpt lat="59.9305664" lon="17.7418366">
        <ele>26.5736</ele>
        <time>2014-06-17T11:51:49Z</time>
      </trkpt>
      <trkpt lat="59.9305617" lon="17.741809">
        <ele>28.4962</ele>
        <time>2014-06-17T11:51:50Z</time>
      </trkpt>
      <trkpt lat="59.9305586" lon="17.7417774">
        <ele>28.9769</ele>
        <time>2014-06-17T11:51:51Z</time>
      </trkpt>
      <trkpt lat="59.9305461" lon="17.7417345">
        <ele>30.4188</ele>
        <time>2014-06-17T11:51:52Z</time>
      </trkpt>
      <trkpt lat="59.9305322" lon="17.7416813">
        <ele>29.9381</ele>
        <time>2014-06-17T11:51:53Z</time>
      </trkpt>
      <trkpt lat="59.9305265" lon="17.7416439">
        <ele>30.4188</ele>
        <time>2014-06-17T11:51:54Z</time>
      </trkpt>
      <trkpt lat="59.9305247" lon="17.7415902">
        <ele>29.9381</ele>
        <time>2014-06-17T11:51:55Z</time>
      </trkpt>
      <trkpt lat="59.9305123" lon="17.7415258">
        <ele>31.3801</ele>
        <time>2014-06-17T11:51:56Z</time>
      </trkpt>
      <trkpt lat="59.930502" lon="17.7414684">
        <ele>31.8607</ele>
        <time>2014-06-17T11:51:57Z</time>
      </trkpt>
      <trkpt lat="59.9304919" lon="17.7414018">
        <ele>32.8223</ele>
        <time>2014-06-17T11:51:58Z</time>
      </trkpt>
      <trkpt lat="59.9304856" lon="17.7413313">
        <ele>32.8223</ele>
        <time>2014-06-17T11:51:59Z</time>
      </trkpt>
      <trkpt lat="59.9304767" lon="17.7412827">
        <ele>33.3029</ele>
        <time>2014-06-17T11:52:00Z</time>
      </trkpt>
      <trkpt lat="59.9304662" lon="17.741246">
        <ele>33.3029</ele>
        <time>2014-06-17T11:52:01Z</time>
      </trkpt>
      <trkpt lat="59.930456" lon="17.7411946">
        <ele>33.3029</ele>
        <time>2014-06-17T11:52:02Z</time>
      </trkpt>
      <trkpt lat="59.9304486" lon="17.7411539">
        <ele>33.3029</ele>
        <time>2014-06-17T11:52:03Z</time>
      </trkpt>
      <trkpt lat="59.9304413" lon="17.7411242">
        <ele>33.7834</ele>
        <time>2014-06-17T11:52:04Z</time>
      </trkpt>
      <trkpt lat="59.9304377" lon="17.7411027">
        <ele>34.2642</ele>
        <time>2014-06-17T11:52:05Z</time>
      </trkpt>
      <trkpt lat="59.9304379" lon="17.7410798">
        <ele>35.2255</ele>
        <time>2014-06-17T11:52:06Z</time>
      </trkpt>
      <trkpt lat="59.9304354" lon="17.7410647">
        <ele>36.1868</ele>
        <time>2014-06-17T11:52:07Z</time>
      </trkpt>
      <trkpt lat="59.9304268" lon="17.7410508">
        <ele>36.1868</ele>
        <time>2014-06-17T11:52:08Z</time>
      </trkpt>
      <trkpt lat="59.9304132" lon="17.7410266">
        <ele>36.6675</ele>
        <time>2014-06-17T11:52:09Z</time>
      </trkpt>
      <trkpt lat="59.9303997" lon="17.740989">
        <ele>36.1868</ele>
        <time>2014-06-17T11:52:10Z</time>
      </trkpt>
      <trkpt lat="59.9303911" lon="17.7409607">
        <ele>36.6675</ele>
        <time>2014-06-17T11:52:11Z</time>
      </trkpt>
      <trkpt lat="59.9303792" lon="17.7409323">
        <ele>36.6675</ele>
        <time>2014-06-17T11:52:12Z</time>
      </trkpt>
      <trkpt lat="59.9303659" lon="17.740913">
        <ele>37.6287</ele>
        <time>2014-06-17T11:52:13Z</time>
      </trkpt>
      <trkpt lat="59.9303529" lon="17.7408968">
        <ele>38.5901</ele>
        <time>2014-06-17T11:52:14Z</time>
      </trkpt>
      <trkpt lat="59.930337" lon="17.7408778">
        <ele>39.5513</ele>
        <time>2014-06-17T11:52:15Z</time>
      </trkpt>
      <trkpt lat="59.9303246" lon="17.7408664">
        <ele>40.5128</ele>
        <time>2014-06-17T11:52:16Z</time>
      </trkpt>
      <trkpt lat="59.9303067" lon="17.7408537">
        <ele>40.5128</ele>
        <time>2014-06-17T11:52:17Z</time>
      </trkpt>
      <trkpt lat="59.9302911" lon="17.7408501">
        <ele>41.9547</ele>
        <time>2014-06-17T11:52:18Z</time>
      </trkpt>
      <trkpt lat="59.9302761" lon="17.7408325">
        <ele>42.916</ele>
        <time>2014-06-17T11:52:19Z</time>
      </trkpt>
      <trkpt lat="59.9302628" lon="17.7408197">
        <ele>44.358</ele>
        <time>2014-06-17T11:52:20Z</time>
      </trkpt>
      <trkpt lat="59.9302395" lon="17.7408093">
        <ele>44.358</ele>
        <time>2014-06-17T11:52:21Z</time>
      </trkpt>
      <trkpt lat="59.9302223" lon="17.740804">
        <ele>44.358</ele>
        <time>2014-06-17T11:52:22Z</time>
      </trkpt>
      <trkpt lat="59.9302022" lon="17.7407914">
        <ele>44.8386</ele>
        <time>2014-06-17T11:52:23Z</time>
      </trkpt>
      <trkpt lat="59.9301782" lon="17.7407824">
        <ele>44.8386</ele>
        <time>2014-06-17T11:52:24Z</time>
      </trkpt>
      <trkpt lat="59.930154" lon="17.7407831">
        <ele>45.7999</ele>
        <time>2014-06-17T11:52:25Z</time>
      </trkpt>
      <trkpt lat="59.9301288" lon="17.7407704">
        <ele>46.7612</ele>
        <time>2014-06-17T11:52:26Z</time>
      </trkpt>
      <trkpt lat="59.9301051" lon="17.7407676">
        <ele>45.7999</ele>
        <time>2014-06-17T11:52:27Z</time>
      </trkpt>
      <trkpt lat="59.9300861" lon="17.740754">
        <ele>45.3192</ele>
        <time>2014-06-17T11:52:28Z</time>
      </trkpt>
      <trkpt lat="59.9300655" lon="17.7407482">
        <ele>44.358</ele>
        <time>2014-06-17T11:52:29Z</time>
      </trkpt>
      <trkpt lat="59.9300461" lon="17.7407431">
        <ele>43.8773</ele>
        <time>2014-06-17T11:52:30Z</time>
      </trkpt>
      <trkpt lat="59.9300251" lon="17.740739">
        <ele>42.916</ele>
        <time>2014-06-17T11:52:31Z</time>
      </trkpt>
      <trkpt lat="59.9300039" lon="17.7407299">
        <ele>41.474</ele>
        <time>2014-06-17T11:52:32Z</time>
      </trkpt>
      <trkpt lat="59.9299795" lon="17.7407294">
        <ele>40.5128</ele>
        <time>2014-06-17T11:52:33Z</time>
      </trkpt>
      <trkpt lat="59.9299537" lon="17.7407364">
        <ele>39.0707</ele>
        <time>2014-06-17T11:52:34Z</time>
      </trkpt>
      <trkpt lat="59.9299334" lon="17.7407514">
        <ele>38.1094</ele>
        <time>2014-06-17T11:52:35Z</time>
      </trkpt>
      <trkpt lat="59.9299119" lon="17.7407597">
        <ele>37.1481</ele>
        <time>2014-06-17T11:52:36Z</time>
      </trkpt>
      <trkpt lat="59.9298887" lon="17.7407778">
        <ele>35.2255</ele>
        <time>2014-06-17T11:52:37Z</time>
      </trkpt>
      <trkpt lat="59.9298641" lon="17.74081">
        <ele>36.6675</ele>
        <time>2014-06-17T11:52:38Z</time>
      </trkpt>
      <trkpt lat="59.9298405" lon="17.7408472">
        <ele>35.2255</ele>
        <time>2014-06-17T11:52:39Z</time>
      </trkpt>
      <trkpt lat="59.9298182" lon="17.7408893">
        <ele>33.7834</ele>
        <time>2014-06-17T11:52:40Z</time>
      </trkpt>
      <trkpt lat="59.9297986" lon="17.7409249">
        <ele>33.7834</ele>
        <time>2014-06-17T11:52:41Z</time>
      </trkpt>
      <trkpt lat="59.9297784" lon="17.7409532">
        <ele>33.7834</ele>
        <time>2014-06-17T11:52:42Z</time>
      </trkpt>
      <trkpt lat="59.9297526" lon="17.7409792">
        <ele>35.7061</ele>
        <time>2014-06-17T11:52:43Z</time>
      </trkpt>
      <trkpt lat="59.929742" lon="17.7409936">
        <ele>34.7449</ele>
        <time>2014-06-17T11:52:44Z</time>
      </trkpt>
      <trkpt lat="59.9297323" lon="17.7409965">
        <ele>34.7449</ele>
        <time>2014-06-17T11:52:45Z</time>
      </trkpt>
      <trkpt lat="59.9297143" lon="17.740981">
        <ele>34.7449</ele>
        <time>2014-06-17T11:52:46Z</time>
      </trkpt>
      <trkpt lat="59.9296908" lon="17.7409675">
        <ele>34.2642</ele>
        <time>2014-06-17T11:52:47Z</time>
      </trkpt>
      <trkpt lat="59.9296685" lon="17.7409611">
        <ele>33.7834</ele>
        <time>2014-06-17T11:52:48Z</time>
      </trkpt>
      <trkpt lat="59.929649" lon="17.7409652">
        <ele>33.7834</ele>
        <time>2014-06-17T11:52:49Z</time>
      </trkpt>
      <trkpt lat="59.9296328" lon="17.7409772">
        <ele>32.8223</ele>
        <time>2014-06-17T11:52:50Z</time>
      </trkpt>
      <trkpt lat="59.9296179" lon="17.7409802">
        <ele>33.3029</ele>
        <time>2014-06-17T11:52:51Z</time>
      </trkpt>
      <trkpt lat="59.9296056" lon="17.7409714">
        <ele>33.3029</ele>
        <time>2014-06-17T11:52:52Z</time>
      </trkpt>
      <trkpt lat="59.9295861" lon="17.7409506">
        <ele>34.2642</ele>
        <time>2014-06-17T11:52:53Z</time>
      </trkpt>
      <trkpt lat="59.929563" lon="17.7409276">
        <ele>34.7449</ele>
        <time>2014-06-17T11:52:54Z</time>
      </trkpt>
      <trkpt lat="59.9295428" lon="17.7409123">
        <ele>35.2255</ele>
        <time>2014-06-17T11:52:55Z</time>
      </trkpt>
      <trkpt lat="59.929519" lon="17.7409064">
        <ele>35.2255</ele>
        <time>2014-06-17T11:52:56Z</time>
      </trkpt>
      <trkpt lat="59.9294971" lon="17.740905">
        <ele>35.2255</ele>
        <time>2014-06-17T11:52:57Z</time>
      </trkpt>
      <trkpt lat="59.9294752" lon="17.7409041">
        <ele>34.7449</ele>
        <time>2014-06-17T11:52:58Z</time>
      </trkpt>
      <trkpt lat="59.9294495" lon="17.7409097">
        <ele>34.7449</ele>
        <time>2014-06-17T11:52:59Z</time>
      </trkpt>
      <trkpt lat="59.9294232" lon="17.7409149">
        <ele>34.2642</ele>
        <time>2014-06-17T11:53:00Z</time>
      </trkpt>
      <trkpt lat="59.9293944" lon="17.7409192">
        <ele>33.3029</ele>
        <time>2014-06-17T11:53:01Z</time>
      </trkpt>
      <trkpt lat="59.9293733" lon="17.7409134">
        <ele>33.3029</ele>
        <time>2014-06-17T11:53:02Z</time>
      </trkpt>
      <trkpt lat="59.9293522" lon="17.7409145">
        <ele>32.3416</ele>
        <time>2014-06-17T11:53:03Z</time>
      </trkpt>
      <trkpt lat="59.929329" lon="17.7409237">
        <ele>32.3416</ele>
        <time>2014-06-17T11:53:04Z</time>
      </trkpt>
      <trkpt lat="59.9293081" lon="17.7409423">
        <ele>32.3416</ele>
        <time>2014-06-17T11:53:05Z</time>
      </trkpt>
      <trkpt lat="59.9292904" lon="17.7409648">
        <ele>32.3416</ele>
        <time>2014-06-17T11:53:06Z</time>
      </trkpt>
      <trkpt lat="59.9292713" lon="17.7409942">
        <ele>32.3416</ele>
        <time>2014-06-17T11:53:07Z</time>
      </trkpt>
      <trkpt lat="59.9292526" lon="17.7410119">
        <ele>31.8607</ele>
        <time>2014-06-17T11:53:08Z</time>
      </trkpt>
      <trkpt lat="59.9292356" lon="17.7410197">
        <ele>31.3801</ele>
        <time>2014-06-17T11:53:09Z</time>
      </trkpt>
      <trkpt lat="59.9292195" lon="17.7410311">
        <ele>31.3801</ele>
        <time>2014-06-17T11:53:10Z</time>
      </trkpt>
      <trkpt lat="59.9291972" lon="17.7410464">
        <ele>31.3801</ele>
        <time>2014-06-17T11:53:11Z</time>
      </trkpt>
      <trkpt lat="59.9291702" lon="17.7410627">
        <ele>31.3801</ele>
        <time>2014-06-17T11:53:12Z</time>
      </trkpt>
      <trkpt lat="59.9291403" lon="17.7410751">
        <ele>31.3801</ele>
        <time>2014-06-17T11:53:13Z</time>
      </trkpt>
      <trkpt lat="59.9291154" lon="17.7410903">
        <ele>31.3801</ele>
        <time>2014-06-17T11:53:14Z</time>
      </trkpt>
      <trkpt lat="59.92909" lon="17.7411025">
        <ele>31.3801</ele>
        <time>2014-06-17T11:53:15Z</time>
      </trkpt>
      <trkpt lat="59.9290613" lon="17.7411022">
        <ele>31.8607</ele>
        <time>2014-06-17T11:53:16Z</time>
      </trkpt>
      <trkpt lat="59.9290351" lon="17.7410828">
        <ele>31.8607</ele>
        <time>2014-06-17T11:53:17Z</time>
      </trkpt>
      <trkpt lat="59.9290088" lon="17.7410622">
        <ele>31.3801</ele>
        <time>2014-06-17T11:53:18Z</time>
      </trkpt>
      <trkpt lat="59.9289844" lon="17.741049">
        <ele>31.3801</ele>
        <time>2014-06-17T11:53:19Z</time>
      </trkpt>
      <trkpt lat="59.9289651" lon="17.7410415">
        <ele>31.3801</ele>
        <time>2014-06-17T11:53:20Z</time>
      </trkpt>
      <trkpt lat="59.9289476" lon="17.741044">
        <ele>30.8995</ele>
        <time>2014-06-17T11:53:21Z</time>
      </trkpt>
      <trkpt lat="59.9289289" lon="17.7410468">
        <ele>31.8607</ele>
        <time>2014-06-17T11:53:22Z</time>
      </trkpt>
      <trkpt lat="59.9289118" lon="17.741046">
        <ele>31.8607</ele>
        <time>2014-06-17T11:53:23Z</time>
      </trkpt>
      <trkpt lat="59.9288959" lon="17.7410482">
        <ele>31.8607</ele>
        <time>2014-06-17T11:53:24Z</time>
      </trkpt>
      <trkpt lat="59.9288759" lon="17.7410493">
        <ele>31.8607</ele>
        <time>2014-06-17T11:53:25Z</time>
      </trkpt>
      <trkpt lat="59.9288555" lon="17.7410462">
        <ele>30.8995</ele>
        <time>2014-06-17T11:53:26Z</time>
      </trkpt>
      <trkpt lat="59.9288339" lon="17.7410475">
        <ele>30.8995</ele>
        <time>2014-06-17T11:53:27Z</time>
      </trkpt>
      <trkpt lat="59.9288103" lon="17.7410354">
        <ele>30.8995</ele>
        <time>2014-06-17T11:53:28Z</time>
      </trkpt>
      <trkpt lat="59.9287873" lon="17.7410182">
        <ele>30.4188</ele>
        <time>2014-06-17T11:53:29Z</time>
      </trkpt>
      <trkpt lat="59.928765" lon="17.7410071">
        <ele>30.4188</ele>
        <time>2014-06-17T11:53:30Z</time>
      </trkpt>
      <trkpt lat="59.9287399" lon="17.740997">
        <ele>29.9381</ele>
        <time>2014-06-17T11:53:31Z</time>
      </trkpt>
      <trkpt lat="59.9287146" lon="17.7409973">
        <ele>31.8607</ele>
        <time>2014-06-17T11:53:32Z</time>
      </trkpt>
      <trkpt lat="59.9286916" lon="17.7409967">
        <ele>31.3801</ele>
        <time>2014-06-17T11:53:33Z</time>
      </trkpt>
      <trkpt lat="59.9286746" lon="17.7409866">
        <ele>31.3801</ele>
        <time>2014-06-17T11:53:34Z</time>
      </trkpt>
      <trkpt lat="59.9286599" lon="17.7409765">
        <ele>30.4188</ele>
        <time>2014-06-17T11:53:35Z</time>
      </trkpt>
      <trkpt lat="59.9286435" lon="17.7409719">
        <ele>29.4575</ele>
        <time>2014-06-17T11:53:36Z</time>
      </trkpt>
      <trkpt lat="59.9286227" lon="17.7409731">
        <ele>28.4962</ele>
        <time>2014-06-17T11:53:37Z</time>
      </trkpt>
      <trkpt lat="59.9286" lon="17.7409734">
        <ele>27.0543</ele>
        <time>2014-06-17T11:53:38Z</time>
      </trkpt>
      <trkpt lat="59.9285735" lon="17.7409732">
        <ele>25.6123</ele>
        <time>2014-06-17T11:53:39Z</time>
      </trkpt>
      <trkpt lat="59.9285508" lon="17.7409694">
        <ele>25.1317</ele>
        <time>2014-06-17T11:53:40Z</time>
      </trkpt>
      <trkpt lat="59.9285239" lon="17.7409639">
        <ele>25.1317</ele>
        <time>2014-06-17T11:53:41Z</time>
      </trkpt>
      <trkpt lat="59.9284985" lon="17.7409525">
        <ele>24.1703</ele>
        <time>2014-06-17T11:53:42Z</time>
      </trkpt>
      <trkpt lat="59.9284737" lon="17.7409527">
        <ele>24.1703</ele>
        <time>2014-06-17T11:53:43Z</time>
      </trkpt>
      <trkpt lat="59.9284545" lon="17.7409573">
        <ele>23.6896</ele>
        <time>2014-06-17T11:53:44Z</time>
      </trkpt>
      <trkpt lat="59.9284328" lon="17.7409729">
        <ele>23.6896</ele>
        <time>2014-06-17T11:53:45Z</time>
      </trkpt>
      <trkpt lat="59.928413" lon="17.7409923">
        <ele>24.1703</ele>
        <time>2014-06-17T11:53:46Z</time>
      </trkpt>
      <trkpt lat="59.9283922" lon="17.7409986">
        <ele>23.209</ele>
        <time>2014-06-17T11:53:47Z</time>
      </trkpt>
      <trkpt lat="59.9283701" lon="17.7410082">
        <ele>23.6896</ele>
        <time>2014-06-17T11:53:48Z</time>
      </trkpt>
      <trkpt lat="59.9283502" lon="17.7410124">
        <ele>24.1703</ele>
        <time>2014-06-17T11:53:49Z</time>
      </trkpt>
      <trkpt lat="59.9283244" lon="17.7410162">
        <ele>24.1703</ele>
        <time>2014-06-17T11:53:50Z</time>
      </trkpt>
      <trkpt lat="59.9282991" lon="17.7410223">
        <ele>23.6896</ele>
        <time>2014-06-17T11:53:51Z</time>
      </trkpt>
      <trkpt lat="59.928273" lon="17.7410454">
        <ele>28.0155</ele>
        <time>2014-06-17T11:53:52Z</time>
      </trkpt>
      <trkpt lat="59.9282514" lon="17.7410544">
        <ele>27.5349</ele>
        <time>2014-06-17T11:53:53Z</time>
      </trkpt>
      <trkpt lat="59.9282261" lon="17.7410706">
        <ele>27.5349</ele>
        <time>2014-06-17T11:53:54Z</time>
      </trkpt>
      <trkpt lat="59.9282011" lon="17.7410827">
        <ele>26.5736</ele>
        <time>2014-06-17T11:53:55Z</time>
      </trkpt>
      <trkpt lat="59.928181" lon="17.7410952">
        <ele>26.0929</ele>
        <time>2014-06-17T11:53:56Z</time>
      </trkpt>
      <trkpt lat="59.9281582" lon="17.7411108">
        <ele>25.1317</ele>
        <time>2014-06-17T11:53:57Z</time>
      </trkpt>
      <trkpt lat="59.9281348" lon="17.7411202">
        <ele>22.7283</ele>
        <time>2014-06-17T11:53:58Z</time>
      </trkpt>
      <trkpt lat="59.9281037" lon="17.7411239">
        <ele>21.767</ele>
        <time>2014-06-17T11:53:59Z</time>
      </trkpt>
      <trkpt lat="59.9280723" lon="17.7411176">
        <ele>21.767</ele>
        <time>2014-06-17T11:54:00Z</time>
      </trkpt>
      <trkpt lat="59.9280503" lon="17.741098">
        <ele>22.2476</ele>
        <time>2014-06-17T11:54:01Z</time>
      </trkpt>
      <trkpt lat="59.9280386" lon="17.7410679">
        <ele>23.209</ele>
        <time>2014-06-17T11:54:02Z</time>
      </trkpt>
      <trkpt lat="59.9280416" lon="17.7410437">
        <ele>24.651</ele>
        <time>2014-06-17T11:54:03Z</time>
      </trkpt>
      <trkpt lat="59.9280463" lon="17.7410178">
        <ele>26.5736</ele>
        <time>2014-06-17T11:54:04Z</time>
      </trkpt>
      <trkpt lat="59.9280565" lon="17.7409788">
        <ele>28.9769</ele>
        <time>2014-06-17T11:54:05Z</time>
      </trkpt>
      <trkpt lat="59.9280582" lon="17.740934">
        <ele>29.9381</ele>
        <time>2014-06-17T11:54:06Z</time>
      </trkpt>
      <trkpt lat="59.9280605" lon="17.7408918">
        <ele>30.4188</ele>
        <time>2014-06-17T11:54:07Z</time>
      </trkpt>
      <trkpt lat="59.9280602" lon="17.7408554">
        <ele>31.3801</ele>
        <time>2014-06-17T11:54:08Z</time>
      </trkpt>
      <trkpt lat="59.9280552" lon="17.7408166">
        <ele>33.3029</ele>
        <time>2014-06-17T11:54:09Z</time>
      </trkpt>
      <trkpt lat="59.9280462" lon="17.7407909">
        <ele>35.2255</ele>
        <time>2014-06-17T11:54:10Z</time>
      </trkpt>
      <trkpt lat="59.9280349" lon="17.7407746">
        <ele>34.2642</ele>
        <time>2014-06-17T11:54:11Z</time>
      </trkpt>
      <trkpt lat="59.9280198" lon="17.7407487">
        <ele>34.7449</ele>
        <time>2014-06-17T11:54:12Z</time>
      </trkpt>
      <trkpt lat="59.9280053" lon="17.7407289">
        <ele>35.7061</ele>
        <time>2014-06-17T11:54:13Z</time>
      </trkpt>
      <trkpt lat="59.9279847" lon="17.7407056">
        <ele>36.1868</ele>
        <time>2014-06-17T11:54:14Z</time>
      </trkpt>
      <trkpt lat="59.9279582" lon="17.7406808">
        <ele>35.7061</ele>
        <time>2014-06-17T11:54:15Z</time>
      </trkpt>
      <trkpt lat="59.9279362" lon="17.7406643">
        <ele>36.1868</ele>
        <time>2014-06-17T11:54:16Z</time>
      </trkpt>
      <trkpt lat="59.9279176" lon="17.7406474">
        <ele>35.7061</ele>
        <time>2014-06-17T11:54:17Z</time>
      </trkpt>
      <trkpt lat="59.9278924" lon="17.7406266">
        <ele>35.2255</ele>
        <time>2014-06-17T11:54:18Z</time>
      </trkpt>
      <trkpt lat="59.9278692" lon="17.7406114">
        <ele>33.3029</ele>
        <time>2014-06-17T11:54:19Z</time>
      </trkpt>
      <trkpt lat="59.9278503" lon="17.7405961">
        <ele>33.3029</ele>
        <time>2014-06-17T11:54:20Z</time>
      </trkpt>
      <trkpt lat="59.9278316" lon="17.74058">
        <ele>32.8223</ele>
        <time>2014-06-17T11:54:21Z</time>
      </trkpt>
      <trkpt lat="59.927814" lon="17.7405529">
        <ele>33.3029</ele>
        <time>2014-06-17T11:54:22Z</time>
      </trkpt>
      <trkpt lat="59.9277909" lon="17.74053">
        <ele>33.3029</ele>
        <time>2014-06-17T11:54:23Z</time>
      </trkpt>
      <trkpt lat="59.9277784" lon="17.7405318">
        <ele>32.3416</ele>
        <time>2014-06-17T11:54:24Z</time>
      </trkpt>
      <trkpt lat="59.9277639" lon="17.7405385">
        <ele>32.3416</ele>
        <time>2014-06-17T11:54:25Z</time>
      </trkpt>
      <trkpt lat="59.927749" lon="17.7405348">
        <ele>32.3416</ele>
        <time>2014-06-17T11:54:26Z</time>
      </trkpt>
      <trkpt lat="59.9277256" lon="17.7405205">
        <ele>31.8607</ele>
        <time>2014-06-17T11:54:27Z</time>
      </trkpt>
      <trkpt lat="59.9276996" lon="17.7405105">
        <ele>30.4188</ele>
        <time>2014-06-17T11:54:28Z</time>
      </trkpt>
      <trkpt lat="59.9276702" lon="17.7405162">
        <ele>32.3416</ele>
        <time>2014-06-17T11:54:29Z</time>
      </trkpt>
      <trkpt lat="59.9276514" lon="17.7405077">
        <ele>32.8223</ele>
        <time>2014-06-17T11:54:30Z</time>
      </trkpt>
      <trkpt lat="59.9276347" lon="17.7405041">
        <ele>32.8223</ele>
        <time>2014-06-17T11:54:31Z</time>
      </trkpt>
      <trkpt lat="59.9276128" lon="17.7405124">
        <ele>32.3416</ele>
        <time>2014-06-17T11:54:32Z</time>
      </trkpt>
      <trkpt lat="59.9275883" lon="17.740524">
        <ele>32.3416</ele>
        <time>2014-06-17T11:54:33Z</time>
      </trkpt>
      <trkpt lat="59.9275692" lon="17.7405296">
        <ele>31.8607</ele>
        <time>2014-06-17T11:54:34Z</time>
      </trkpt>
      <trkpt lat="59.9275473" lon="17.7405447">
        <ele>31.3801</ele>
        <time>2014-06-17T11:54:35Z</time>
      </trkpt>
      <trkpt lat="59.9275183" lon="17.7405492">
        <ele>31.3801</ele>
        <time>2014-06-17T11:54:36Z</time>
      </trkpt>
      <trkpt lat="59.9274929" lon="17.7405467">
        <ele>32.3416</ele>
        <time>2014-06-17T11:54:37Z</time>
      </trkpt>
      <trkpt lat="59.927469" lon="17.7405411">
        <ele>32.8223</ele>
        <time>2014-06-17T11:54:38Z</time>
      </trkpt>
      <trkpt lat="59.9274467" lon="17.7405421">
        <ele>33.3029</ele>
        <time>2014-06-17T11:54:39Z</time>
      </trkpt>
      <trkpt lat="59.9274252" lon="17.7405347">
        <ele>33.7834</ele>
        <time>2014-06-17T11:54:40Z</time>
      </trkpt>
      <trkpt lat="59.9274054" lon="17.7405244">
        <ele>34.2642</ele>
        <time>2014-06-17T11:54:41Z</time>
      </trkpt>
      <trkpt lat="59.9273842" lon="17.7405091">
        <ele>34.2642</ele>
        <time>2014-06-17T11:54:42Z</time>
      </trkpt>
      <trkpt lat="59.9273618" lon="17.7404899">
        <ele>34.7449</ele>
        <time>2014-06-17T11:54:43Z</time>
      </trkpt>
      <trkpt lat="59.9273397" lon="17.7404691">
        <ele>34.7449</ele>
        <time>2014-06-17T11:54:44Z</time>
      </trkpt>
      <trkpt lat="59.9273177" lon="17.7404545">
        <ele>35.2255</ele>
        <time>2014-06-17T11:54:45Z</time>
      </trkpt>
      <trkpt lat="59.9272973" lon="17.740437">
        <ele>35.2255</ele>
        <time>2014-06-17T11:54:46Z</time>
      </trkpt>
      <trkpt lat="59.9272749" lon="17.7404188">
        <ele>35.2255</ele>
        <time>2014-06-17T11:54:47Z</time>
      </trkpt>
      <trkpt lat="59.9272497" lon="17.7403997">
        <ele>35.2255</ele>
        <time>2014-06-17T11:54:48Z</time>
      </trkpt>
      <trkpt lat="59.9272268" lon="17.7403789">
        <ele>35.7061</ele>
        <time>2014-06-17T11:54:49Z</time>
      </trkpt>
      <trkpt lat="59.9272076" lon="17.7403618">
        <ele>35.7061</ele>
        <time>2014-06-17T11:54:50Z</time>
      </trkpt>
      <trkpt lat="59.9271929" lon="17.740338">
        <ele>35.7061</ele>
        <time>2014-06-17T11:54:51Z</time>
      </trkpt>
      <trkpt lat="59.9271786" lon="17.7403095">
        <ele>35.2255</ele>
        <time>2014-06-17T11:54:52Z</time>
      </trkpt>
      <trkpt lat="59.9271636" lon="17.7402825">
        <ele>35.2255</ele>
        <time>2014-06-17T11:54:53Z</time>
      </trkpt>
      <trkpt lat="59.9271473" lon="17.7402582">
        <ele>33.7834</ele>
        <time>2014-06-17T11:54:54Z</time>
      </trkpt>
      <trkpt lat="59.9271276" lon="17.7402371">
        <ele>33.3029</ele>
        <time>2014-06-17T11:54:55Z</time>
      </trkpt>
      <trkpt lat="59.9271075" lon="17.7402094">
        <ele>33.3029</ele>
        <time>2014-06-17T11:54:56Z</time>
      </trkpt>
      <trkpt lat="59.9270895" lon="17.7401805">
        <ele>33.3029</ele>
        <time>2014-06-17T11:54:57Z</time>
      </trkpt>
      <trkpt lat="59.9270748" lon="17.7401516">
        <ele>33.3029</ele>
        <time>2014-06-17T11:54:58Z</time>
      </trkpt>
      <trkpt lat="59.9270603" lon="17.7401252">
        <ele>33.3029</ele>
        <time>2014-06-17T11:54:59Z</time>
      </trkpt>
      <trkpt lat="59.9270454" lon="17.7401006">
        <ele>34.2642</ele>
        <time>2014-06-17T11:55:00Z</time>
      </trkpt>
      <trkpt lat="59.9270284" lon="17.7400793">
        <ele>33.7834</ele>
        <time>2014-06-17T11:55:01Z</time>
      </trkpt>
      <trkpt lat="59.9270081" lon="17.7400643">
        <ele>32.8223</ele>
        <time>2014-06-17T11:55:02Z</time>
      </trkpt>
      <trkpt lat="59.9269869" lon="17.7400473">
        <ele>31.8607</ele>
        <time>2014-06-17T11:55:03Z</time>
      </trkpt>
      <trkpt lat="59.9269613" lon="17.7400324">
        <ele>30.8995</ele>
        <time>2014-06-17T11:55:04Z</time>
      </trkpt>
      <trkpt lat="59.9269388" lon="17.7400141">
        <ele>30.4188</ele>
        <time>2014-06-17T11:55:05Z</time>
      </trkpt>
      <trkpt lat="59.926918" lon="17.7399956">
        <ele>29.4575</ele>
        <time>2014-06-17T11:55:06Z</time>
      </trkpt>
      <trkpt lat="59.9268945" lon="17.7399825">
        <ele>29.4575</ele>
        <time>2014-06-17T11:55:07Z</time>
      </trkpt>
      <trkpt lat="59.9268699" lon="17.7399593">
        <ele>29.9381</ele>
        <time>2014-06-17T11:55:08Z</time>
      </trkpt>
      <trkpt lat="59.9268494" lon="17.7399349">
        <ele>30.8995</ele>
        <time>2014-06-17T11:55:09Z</time>
      </trkpt>
      <trkpt lat="59.9268269" lon="17.7399395">
        <ele>32.8223</ele>
        <time>2014-06-17T11:55:10Z</time>
      </trkpt>
      <trkpt lat="59.926809" lon="17.7399253">
        <ele>32.3416</ele>
        <time>2014-06-17T11:55:11Z</time>
      </trkpt>
      <trkpt lat="59.9267948" lon="17.7399134">
        <ele>32.3416</ele>
        <time>2014-06-17T11:55:12Z</time>
      </trkpt>
      <trkpt lat="59.9267761" lon="17.7399039">
        <ele>32.8223</ele>
        <time>2014-06-17T11:55:13Z</time>
      </trkpt>
      <trkpt lat="59.9267569" lon="17.7399012">
        <ele>34.2642</ele>
        <time>2014-06-17T11:55:14Z</time>
      </trkpt>
      <trkpt lat="59.9267422" lon="17.7398965">
        <ele>36.6675</ele>
        <time>2014-06-17T11:55:15Z</time>
      </trkpt>
      <trkpt lat="59.9267187" lon="17.739876">
        <ele>36.1868</ele>
        <time>2014-06-17T11:55:16Z</time>
      </trkpt>
      <trkpt lat="59.9266866" lon="17.7398459">
        <ele>36.1868</ele>
        <time>2014-06-17T11:55:17Z</time>
      </trkpt>
      <trkpt lat="59.926654" lon="17.7398226">
        <ele>35.7061</ele>
        <time>2014-06-17T11:55:18Z</time>
      </trkpt>
      <trkpt lat="59.9266222" lon="17.7397915">
        <ele>36.1868</ele>
        <time>2014-06-17T11:55:19Z</time>
      </trkpt>
      <trkpt lat="59.9265944" lon="17.7397652">
        <ele>35.7061</ele>
        <time>2014-06-17T11:55:20Z</time>
      </trkpt>
      <trkpt lat="59.9265772" lon="17.7397458">
        <ele>35.7061</ele>
        <time>2014-06-17T11:55:21Z</time>
      </trkpt>
      <trkpt lat="59.926563" lon="17.7397206">
        <ele>36.1868</ele>
        <time>2014-06-17T11:55:22Z</time>
      </trkpt>
      <trkpt lat="59.9265511" lon="17.7396982">
        <ele>36.6675</ele>
        <time>2014-06-17T11:55:23Z</time>
      </trkpt>
      <trkpt lat="59.9265399" lon="17.7396755">
        <ele>35.7061</ele>
        <time>2014-06-17T11:55:24Z</time>
      </trkpt>
      <trkpt lat="59.9265258" lon="17.7396647">
        <ele>36.1868</ele>
        <time>2014-06-17T11:55:25Z</time>
      </trkpt>
      <trkpt lat="59.9265078" lon="17.7396532">
        <ele>35.2255</ele>
        <time>2014-06-17T11:55:26Z</time>
      </trkpt>
      <trkpt lat="59.9264907" lon="17.7396521">
        <ele>34.7449</ele>
        <time>2014-06-17T11:55:27Z</time>
      </trkpt>
      <trkpt lat="59.926472" lon="17.7396403">
        <ele>34.7449</ele>
        <time>2014-06-17T11:55:28Z</time>
      </trkpt>
      <trkpt lat="59.9264519" lon="17.739606">
        <ele>35.2255</ele>
        <time>2014-06-17T11:55:29Z</time>
      </trkpt>
      <trkpt lat="59.9264353" lon="17.7395737">
        <ele>35.7061</ele>
        <time>2014-06-17T11:55:30Z</time>
      </trkpt>
      <trkpt lat="59.9264156" lon="17.739544">
        <ele>35.7061</ele>
        <time>2014-06-17T11:55:31Z</time>
      </trkpt>
      <trkpt lat="59.9263929" lon="17.739521">
        <ele>35.7061</ele>
        <time>2014-06-17T11:55:32Z</time>
      </trkpt>
      <trkpt lat="59.9263758" lon="17.739489">
        <ele>36.1868</ele>
        <time>2014-06-17T11:55:33Z</time>
      </trkpt>
      <trkpt lat="59.9263639" lon="17.739461">
        <ele>36.1868</ele>
        <time>2014-06-17T11:55:34Z</time>
      </trkpt>
      <trkpt lat="59.9263437" lon="17.7394356">
        <ele>36.1868</ele>
        <time>2014-06-17T11:55:35Z</time>
      </trkpt>
      <trkpt lat="59.9263232" lon="17.7394112">
        <ele>36.1868</ele>
        <time>2014-06-17T11:55:36Z</time>
      </trkpt>
      <trkpt lat="59.9263063" lon="17.7393854">
        <ele>36.6675</ele>
        <time>2014-06-17T11:55:37Z</time>
      </trkpt>
      <trkpt lat="59.9262902" lon="17.739357">
        <ele>37.6287</ele>
        <time>2014-06-17T11:55:38Z</time>
      </trkpt>
      <trkpt lat="59.9262631" lon="17.7393202">
        <ele>37.1481</ele>
        <time>2014-06-17T11:55:39Z</time>
      </trkpt>
      <trkpt lat="59.9262362" lon="17.739289">
        <ele>38.1094</ele>
        <time>2014-06-17T11:55:40Z</time>
      </trkpt>
      <trkpt lat="59.9262113" lon="17.7392678">
        <ele>38.5901</ele>
        <time>2014-06-17T11:55:41Z</time>
      </trkpt>
      <trkpt lat="59.9261901" lon="17.7392389">
        <ele>40.0321</ele>
        <time>2014-06-17T11:55:42Z</time>
      </trkpt>
      <trkpt lat="59.9261706" lon="17.7392113">
        <ele>39.5513</ele>
        <time>2014-06-17T11:55:43Z</time>
      </trkpt>
      <trkpt lat="59.926153" lon="17.7391847">
        <ele>40.0321</ele>
        <time>2014-06-17T11:55:44Z</time>
      </trkpt>
      <trkpt lat="59.9261351" lon="17.7391597">
        <ele>40.9934</ele>
        <time>2014-06-17T11:55:45Z</time>
      </trkpt>
      <trkpt lat="59.9261182" lon="17.7391348">
        <ele>41.474</ele>
        <time>2014-06-17T11:55:46Z</time>
      </trkpt>
      <trkpt lat="59.9261058" lon="17.7391179">
        <ele>42.4354</ele>
        <time>2014-06-17T11:55:47Z</time>
      </trkpt>
      <trkpt lat="59.9260838" lon="17.7390927">
        <ele>42.4354</ele>
        <time>2014-06-17T11:55:48Z</time>
      </trkpt>
      <trkpt lat="59.9260649" lon="17.7390653">
        <ele>42.4354</ele>
        <time>2014-06-17T11:55:49Z</time>
      </trkpt>
      <trkpt lat="59.9260422" lon="17.7390399">
        <ele>41.9547</ele>
        <time>2014-06-17T11:55:50Z</time>
      </trkpt>
      <trkpt lat="59.9260255" lon="17.7390244">
        <ele>42.4354</ele>
        <time>2014-06-17T11:55:51Z</time>
      </trkpt>
      <trkpt lat="59.92601" lon="17.7390026">
        <ele>42.4354</ele>
        <time>2014-06-17T11:55:52Z</time>
      </trkpt>
      <trkpt lat="59.9259872" lon="17.7389718">
        <ele>41.474</ele>
        <time>2014-06-17T11:55:53Z</time>
      </trkpt>
      <trkpt lat="59.9259679" lon="17.7389431">
        <ele>42.916</ele>
        <time>2014-06-17T11:55:54Z</time>
      </trkpt>
      <trkpt lat="59.9259534" lon="17.738915">
        <ele>43.3966</ele>
        <time>2014-06-17T11:55:55Z</time>
      </trkpt>
      <trkpt lat="59.9259312" lon="17.7388844">
        <ele>43.3966</ele>
        <time>2014-06-17T11:55:56Z</time>
      </trkpt>
      <trkpt lat="59.9259059" lon="17.7388605">
        <ele>43.8773</ele>
        <time>2014-06-17T11:55:57Z</time>
      </trkpt>
      <trkpt lat="59.925878" lon="17.7388343">
        <ele>44.358</ele>
        <time>2014-06-17T11:55:58Z</time>
      </trkpt>
      <trkpt lat="59.9258505" lon="17.7388042">
        <ele>44.8386</ele>
        <time>2014-06-17T11:55:59Z</time>
      </trkpt>
      <trkpt lat="59.9258281" lon="17.738777">
        <ele>45.3192</ele>
        <time>2014-06-17T11:56:00Z</time>
      </trkpt>
      <trkpt lat="59.9258089" lon="17.7387529">
        <ele>45.7999</ele>
        <time>2014-06-17T11:56:01Z</time>
      </trkpt>
      <trkpt lat="59.9257863" lon="17.7387294">
        <ele>46.7612</ele>
        <time>2014-06-17T11:56:02Z</time>
      </trkpt>
      <trkpt lat="59.9257675" lon="17.7387073">
        <ele>47.2418</ele>
        <time>2014-06-17T11:56:03Z</time>
      </trkpt>
      <trkpt lat="59.9257499" lon="17.7386828">
        <ele>47.7225</ele>
        <time>2014-06-17T11:56:04Z</time>
      </trkpt>
      <trkpt lat="59.9257312" lon="17.7386611">
        <ele>48.2034</ele>
        <time>2014-06-17T11:56:05Z</time>
      </trkpt>
      <trkpt lat="59.9257145" lon="17.7386406">
        <ele>48.684</ele>
        <time>2014-06-17T11:56:06Z</time>
      </trkpt>
      <trkpt lat="59.9257027" lon="17.738608">
        <ele>47.7225</ele>
        <time>2014-06-17T11:56:07Z</time>
      </trkpt>
      <trkpt lat="59.9256898" lon="17.7385711">
        <ele>47.2418</ele>
        <time>2014-06-17T11:56:08Z</time>
      </trkpt>
      <trkpt lat="59.9256774" lon="17.738531">
        <ele>46.7612</ele>
        <time>2014-06-17T11:56:09Z</time>
      </trkpt>
      <trkpt lat="59.9256725" lon="17.7384859">
        <ele>46.7612</ele>
        <time>2014-06-17T11:56:10Z</time>
      </trkpt>
      <trkpt lat="59.9256695" lon="17.7384424">
        <ele>46.2806</ele>
        <time>2014-06-17T11:56:11Z</time>
      </trkpt>
      <trkpt lat="59.925665" lon="17.7383947">
        <ele>45.3192</ele>
        <time>2014-06-17T11:56:12Z</time>
      </trkpt>
      <trkpt lat="59.9256572" lon="17.7383458">
        <ele>45.3192</ele>
        <time>2014-06-17T11:56:13Z</time>
      </trkpt>
      <trkpt lat="59.9256539" lon="17.7382955">
        <ele>43.8773</ele>
        <time>2014-06-17T11:56:14Z</time>
      </trkpt>
      <trkpt lat="59.9256596" lon="17.7382577">
        <ele>43.3966</ele>
        <time>2014-06-17T11:56:15Z</time>
      </trkpt>
      <trkpt lat="59.9256733" lon="17.738213">
        <ele>42.4354</ele>
        <time>2014-06-17T11:56:16Z</time>
      </trkpt>
      <trkpt lat="59.9256875" lon="17.7381803">
        <ele>42.4354</ele>
        <time>2014-06-17T11:56:17Z</time>
      </trkpt>
      <trkpt lat="59.9256924" lon="17.7381567">
        <ele>41.9547</ele>
        <time>2014-06-17T11:56:18Z</time>
      </trkpt>
      <trkpt lat="59.9257017" lon="17.7381308">
        <ele>40.9934</ele>
        <time>2014-06-17T11:56:19Z</time>
      </trkpt>
      <trkpt lat="59.925707" lon="17.7380987">
        <ele>40.5128</ele>
        <time>2014-06-17T11:56:20Z</time>
      </trkpt>
      <trkpt lat="59.9257117" lon="17.7380676">
        <ele>39.5513</ele>
        <time>2014-06-17T11:56:21Z</time>
      </trkpt>
      <trkpt lat="59.9257221" lon="17.738037">
        <ele>38.5901</ele>
        <time>2014-06-17T11:56:22Z</time>
      </trkpt>
      <trkpt lat="59.9257368" lon="17.7379976">
        <ele>39.0707</ele>
        <time>2014-06-17T11:56:23Z</time>
      </trkpt>
      <trkpt lat="59.9257376" lon="17.7379531">
        <ele>38.1094</ele>
        <time>2014-06-17T11:56:24Z</time>
      </trkpt>
      <trkpt lat="59.9257389" lon="17.7379006">
        <ele>37.1481</ele>
        <time>2014-06-17T11:56:25Z</time>
      </trkpt>
      <trkpt lat="59.925742" lon="17.7378505">
        <ele>36.1868</ele>
        <time>2014-06-17T11:56:26Z</time>
      </trkpt>
      <trkpt lat="59.9257369" lon="17.7377926">
        <ele>35.2255</ele>
        <time>2014-06-17T11:56:27Z</time>
      </trkpt>
      <trkpt lat="59.9257306" lon="17.7377353">
        <ele>35.2255</ele>
        <time>2014-06-17T11:56:28Z</time>
      </trkpt>
      <trkpt lat="59.9257295" lon="17.7376791">
        <ele>34.7449</ele>
        <time>2014-06-17T11:56:29Z</time>
      </trkpt>
      <trkpt lat="59.9257296" lon="17.7376121">
        <ele>34.2642</ele>
        <time>2014-06-17T11:56:30Z</time>
      </trkpt>
      <trkpt lat="59.925739" lon="17.7375708">
        <ele>33.7834</ele>
        <time>2014-06-17T11:56:31Z</time>
      </trkpt>
      <trkpt lat="59.9257443" lon="17.7375317">
        <ele>33.7834</ele>
        <time>2014-06-17T11:56:32Z</time>
      </trkpt>
      <trkpt lat="59.9257502" lon="17.7374931">
        <ele>34.2642</ele>
        <time>2014-06-17T11:56:33Z</time>
      </trkpt>
      <trkpt lat="59.9257555" lon="17.7374535">
        <ele>34.7449</ele>
        <time>2014-06-17T11:56:34Z</time>
      </trkpt>
      <trkpt lat="59.925766" lon="17.7374268">
        <ele>34.7449</ele>
        <time>2014-06-17T11:56:35Z</time>
      </trkpt>
      <trkpt lat="59.9257696" lon="17.7373863">
        <ele>35.2255</ele>
        <time>2014-06-17T11:56:36Z</time>
      </trkpt>
      <trkpt lat="59.9257818" lon="17.7373486">
        <ele>35.7061</ele>
        <time>2014-06-17T11:56:37Z</time>
      </trkpt>
      <trkpt lat="59.9257941" lon="17.7373045">
        <ele>35.2255</ele>
        <time>2014-06-17T11:56:38Z</time>
      </trkpt>
      <trkpt lat="59.9258042" lon="17.7372652">
        <ele>35.7061</ele>
        <time>2014-06-17T11:56:39Z</time>
      </trkpt>
      <trkpt lat="59.9258099" lon="17.7372254">
        <ele>35.7061</ele>
        <time>2014-06-17T11:56:40Z</time>
      </trkpt>
      <trkpt lat="59.9258122" lon="17.7371859">
        <ele>36.6675</ele>
        <time>2014-06-17T11:56:41Z</time>
      </trkpt>
      <trkpt lat="59.9258198" lon="17.7371458">
        <ele>37.1481</ele>
        <time>2014-06-17T11:56:42Z</time>
      </trkpt>
      <trkpt lat="59.9258244" lon="17.7370982">
        <ele>38.1094</ele>
        <time>2014-06-17T11:56:43Z</time>
      </trkpt>
      <trkpt lat="59.9258307" lon="17.7370572">
        <ele>39.0707</ele>
        <time>2014-06-17T11:56:44Z</time>
      </trkpt>
      <trkpt lat="59.9258389" lon="17.7370161">
        <ele>39.0707</ele>
        <time>2014-06-17T11:56:45Z</time>
      </trkpt>
      <trkpt lat="59.9258469" lon="17.7369731">
        <ele>38.5901</ele>
        <time>2014-06-17T11:56:46Z</time>
      </trkpt>
      <trkpt lat="59.9258609" lon="17.7369342">
        <ele>38.5901</ele>
        <time>2014-06-17T11:56:47Z</time>
      </trkpt>
      <trkpt lat="59.9258732" lon="17.7368967">
        <ele>38.5901</ele>
        <time>2014-06-17T11:56:48Z</time>
      </trkpt>
      <trkpt lat="59.9258844" lon="17.7368693">
        <ele>38.5901</ele>
        <time>2014-06-17T11:56:49Z</time>
      </trkpt>
      <trkpt lat="59.9258903" lon="17.7368338">
        <ele>39.0707</ele>
        <time>2014-06-17T11:56:50Z</time>
      </trkpt>
      <trkpt lat="59.925895" lon="17.7367948">
        <ele>38.5901</ele>
        <time>2014-06-17T11:56:51Z</time>
      </trkpt>
      <trkpt lat="59.9259053" lon="17.7367638">
        <ele>38.1094</ele>
        <time>2014-06-17T11:56:52Z</time>
      </trkpt>
      <trkpt lat="59.9259209" lon="17.73673">
        <ele>39.0707</ele>
        <time>2014-06-17T11:56:53Z</time>
      </trkpt>
      <trkpt lat="59.9259403" lon="17.7366968">
        <ele>39.5513</ele>
        <time>2014-06-17T11:56:54Z</time>
      </trkpt>
      <trkpt lat="59.9259597" lon="17.7366652">
        <ele>39.5513</ele>
        <time>2014-06-17T11:56:55Z</time>
      </trkpt>
      <trkpt lat="59.9259748" lon="17.7366372">
        <ele>39.5513</ele>
        <time>2014-06-17T11:56:56Z</time>
      </trkpt>
      <trkpt lat="59.9259943" lon="17.736613">
        <ele>40.0321</ele>
        <time>2014-06-17T11:56:57Z</time>
      </trkpt>
      <trkpt lat="59.9260202" lon="17.73659">
        <ele>40.5128</ele>
        <time>2014-06-17T11:56:58Z</time>
      </trkpt>
      <trkpt lat="59.9260436" lon="17.7365524">
        <ele>41.474</ele>
        <time>2014-06-17T11:56:59Z</time>
      </trkpt>
      <trkpt lat="59.9260601" lon="17.7365182">
        <ele>41.9547</ele>
        <time>2014-06-17T11:57:00Z</time>
      </trkpt>
      <trkpt lat="59.9260763" lon="17.7364857">
        <ele>42.916</ele>
        <time>2014-06-17T11:57:01Z</time>
      </trkpt>
      <trkpt lat="59.9260945" lon="17.7364571">
        <ele>44.358</ele>
        <time>2014-06-17T11:57:02Z</time>
      </trkpt>
      <trkpt lat="59.9261146" lon="17.7364266">
        <ele>44.8386</ele>
        <time>2014-06-17T11:57:03Z</time>
      </trkpt>
      <trkpt lat="59.9261358" lon="17.7363947">
        <ele>45.7999</ele>
        <time>2014-06-17T11:57:04Z</time>
      </trkpt>
      <trkpt lat="59.9261487" lon="17.736355">
        <ele>45.7999</ele>
        <time>2014-06-17T11:57:05Z</time>
      </trkpt>
      <trkpt lat="59.9261641" lon="17.7363261">
        <ele>47.7225</ele>
        <time>2014-06-17T11:57:06Z</time>
      </trkpt>
      <trkpt lat="59.926169" lon="17.7362939">
        <ele>48.684</ele>
        <time>2014-06-17T11:57:07Z</time>
      </trkpt>
      <trkpt lat="59.9261662" lon="17.7362556">
        <ele>49.1646</ele>
        <time>2014-06-17T11:57:08Z</time>
      </trkpt>
      <trkpt lat="59.92616" lon="17.7362139">
        <ele>49.6453</ele>
        <time>2014-06-17T11:57:09Z</time>
      </trkpt>
      <trkpt lat="59.9261422" lon="17.7361649">
        <ele>50.126</ele>
        <time>2014-06-17T11:57:10Z</time>
      </trkpt>
      <trkpt lat="59.9261203" lon="17.7361178">
        <ele>50.126</ele>
        <time>2014-06-17T11:57:11Z</time>
      </trkpt>
      <trkpt lat="59.9260944" lon="17.7360725">
        <ele>49.6453</ele>
        <time>2014-06-17T11:57:12Z</time>
      </trkpt>
      <trkpt lat="59.9260789" lon="17.7360313">
        <ele>49.6453</ele>
        <time>2014-06-17T11:57:13Z</time>
      </trkpt>
      <trkpt lat="59.9260667" lon="17.7359905">
        <ele>50.126</ele>
        <time>2014-06-17T11:57:14Z</time>
      </trkpt>
      <trkpt lat="59.9260602" lon="17.7359404">
        <ele>49.6453</ele>
        <time>2014-06-17T11:57:15Z</time>
      </trkpt>
      <trkpt lat="59.9260605" lon="17.7358969">
        <ele>49.1646</ele>
        <time>2014-06-17T11:57:16Z</time>
      </trkpt>
      <trkpt lat="59.9260618" lon="17.7358591">
        <ele>49.1646</ele>
        <time>2014-06-17T11:57:17Z</time>
      </trkpt>
      <trkpt lat="59.9260633" lon="17.7358091">
        <ele>48.684</ele>
        <time>2014-06-17T11:57:18Z</time>
      </trkpt>
      <trkpt lat="59.9260649" lon="17.7357612">
        <ele>48.684</ele>
        <time>2014-06-17T11:57:19Z</time>
      </trkpt>
      <trkpt lat="59.9260669" lon="17.73572">
        <ele>48.684</ele>
        <time>2014-06-17T11:57:20Z</time>
      </trkpt>
      <trkpt lat="59.9260694" lon="17.7356783">
        <ele>48.2034</ele>
        <time>2014-06-17T11:57:21Z</time>
      </trkpt>
      <trkpt lat="59.9260745" lon="17.7356418">
        <ele>47.7225</ele>
        <time>2014-06-17T11:57:22Z</time>
      </trkpt>
      <trkpt lat="59.9260783" lon="17.7356086">
        <ele>47.2418</ele>
        <time>2014-06-17T11:57:23Z</time>
      </trkpt>
      <trkpt lat="59.9260789" lon="17.7355692">
        <ele>46.7612</ele>
        <time>2014-06-17T11:57:24Z</time>
      </trkpt>
      <trkpt lat="59.9260695" lon="17.7355216">
        <ele>46.7612</ele>
        <time>2014-06-17T11:57:25Z</time>
      </trkpt>
      <trkpt lat="59.9260566" lon="17.7354794">
        <ele>45.7999</ele>
        <time>2014-06-17T11:57:26Z</time>
      </trkpt>
      <trkpt lat="59.9260419" lon="17.7354381">
        <ele>46.7612</ele>
        <time>2014-06-17T11:57:27Z</time>
      </trkpt>
      <trkpt lat="59.9260254" lon="17.7353975">
        <ele>46.2806</ele>
        <time>2014-06-17T11:57:28Z</time>
      </trkpt>
      <trkpt lat="59.9260043" lon="17.7353494">
        <ele>45.3192</ele>
        <time>2014-06-17T11:57:29Z</time>
      </trkpt>
      <trkpt lat="59.9259818" lon="17.7353201">
        <ele>44.358</ele>
        <time>2014-06-17T11:57:30Z</time>
      </trkpt>
      <trkpt lat="59.9259582" lon="17.7353036">
        <ele>43.8773</ele>
        <time>2014-06-17T11:57:31Z</time>
      </trkpt>
      <trkpt lat="59.925932" lon="17.7352846">
        <ele>43.8773</ele>
        <time>2014-06-17T11:57:32Z</time>
      </trkpt>
      <trkpt lat="59.9259034" lon="17.7352658">
        <ele>43.3966</ele>
        <time>2014-06-17T11:57:33Z</time>
      </trkpt>
      <trkpt lat="59.9258785" lon="17.735248">
        <ele>42.916</ele>
        <time>2014-06-17T11:57:34Z</time>
      </trkpt>
      <trkpt lat="59.925852" lon="17.735229">
        <ele>43.3966</ele>
        <time>2014-06-17T11:57:35Z</time>
      </trkpt>
      <trkpt lat="59.9258219" lon="17.7352045">
        <ele>43.3966</ele>
        <time>2014-06-17T11:57:36Z</time>
      </trkpt>
      <trkpt lat="59.9257928" lon="17.7351854">
        <ele>43.3966</ele>
        <time>2014-06-17T11:57:37Z</time>
      </trkpt>
      <trkpt lat="59.9257655" lon="17.7351714">
        <ele>43.8773</ele>
        <time>2014-06-17T11:57:38Z</time>
      </trkpt>
      <trkpt lat="59.9257386" lon="17.7351533">
        <ele>43.3966</ele>
        <time>2014-06-17T11:57:39Z</time>
      </trkpt>
      <trkpt lat="59.9257126" lon="17.7351292">
        <ele>42.916</ele>
        <time>2014-06-17T11:57:40Z</time>
      </trkpt>
      <trkpt lat="59.9256929" lon="17.7351051">
        <ele>41.9547</ele>
        <time>2014-06-17T11:57:41Z</time>
      </trkpt>
      <trkpt lat="59.9256723" lon="17.7350802">
        <ele>41.474</ele>
        <time>2014-06-17T11:57:42Z</time>
      </trkpt>
      <trkpt lat="59.9256536" lon="17.7350507">
        <ele>40.9934</ele>
        <time>2014-06-17T11:57:43Z</time>
      </trkpt>
      <trkpt lat="59.9256368" lon="17.7350235">
        <ele>40.9934</ele>
        <time>2014-06-17T11:57:44Z</time>
      </trkpt>
      <trkpt lat="59.9256204" lon="17.7349957">
        <ele>40.5128</ele>
        <time>2014-06-17T11:57:45Z</time>
      </trkpt>
      <trkpt lat="59.9256012" lon="17.7349645">
        <ele>40.0321</ele>
        <time>2014-06-17T11:57:46Z</time>
      </trkpt>
      <trkpt lat="59.9255839" lon="17.73493">
        <ele>40.0321</ele>
        <time>2014-06-17T11:57:47Z</time>
      </trkpt>
      <trkpt lat="59.9255691" lon="17.7348994">
        <ele>39.5513</ele>
        <time>2014-06-17T11:57:48Z</time>
      </trkpt>
      <trkpt lat="59.925551" lon="17.7348666">
        <ele>39.5513</ele>
        <time>2014-06-17T11:57:49Z</time>
      </trkpt>
      <trkpt lat="59.9255349" lon="17.7348268">
        <ele>39.5513</ele>
        <time>2014-06-17T11:57:50Z</time>
      </trkpt>
      <trkpt lat="59.9255208" lon="17.7347881">
        <ele>39.5513</ele>
        <time>2014-06-17T11:57:51Z</time>
      </trkpt>
      <trkpt lat="59.9255076" lon="17.7347471">
        <ele>39.0707</ele>
        <time>2014-06-17T11:57:52Z</time>
      </trkpt>
      <trkpt lat="59.9254941" lon="17.734701">
        <ele>39.0707</ele>
        <time>2014-06-17T11:57:53Z</time>
      </trkpt>
      <trkpt lat="59.92548" lon="17.7346583">
        <ele>39.0707</ele>
        <time>2014-06-17T11:57:54Z</time>
      </trkpt>
      <trkpt lat="59.9254658" lon="17.7346195">
        <ele>39.0707</ele>
        <time>2014-06-17T11:57:55Z</time>
      </trkpt>
      <trkpt lat="59.9254515" lon="17.7345762">
        <ele>39.0707</ele>
        <time>2014-06-17T11:57:56Z</time>
      </trkpt>
      <trkpt lat="59.9254375" lon="17.7345345">
        <ele>39.0707</ele>
        <time>2014-06-17T11:57:57Z</time>
      </trkpt>
      <trkpt lat="59.9254232" lon="17.7344957">
        <ele>39.0707</ele>
        <time>2014-06-17T11:57:58Z</time>
      </trkpt>
      <trkpt lat="59.9254099" lon="17.7344539">
        <ele>39.0707</ele>
        <time>2014-06-17T11:57:59Z</time>
      </trkpt>
      <trkpt lat="59.9253982" lon="17.7344159">
        <ele>38.5901</ele>
        <time>2014-06-17T11:58:00Z</time>
      </trkpt>
      <trkpt lat="59.9253855" lon="17.7343773">
        <ele>38.5901</ele>
        <time>2014-06-17T11:58:01Z</time>
      </trkpt>
      <trkpt lat="59.9253716" lon="17.7343339">
        <ele>38.5901</ele>
        <time>2014-06-17T11:58:02Z</time>
      </trkpt>
      <trkpt lat="59.9253581" lon="17.7342932">
        <ele>38.5901</ele>
        <time>2014-06-17T11:58:03Z</time>
      </trkpt>
      <trkpt lat="59.9253454" lon="17.7342557">
        <ele>38.5901</ele>
        <time>2014-06-17T11:58:04Z</time>
      </trkpt>
      <trkpt lat="59.9253318" lon="17.7342132">
        <ele>38.5901</ele>
        <time>2014-06-17T11:58:05Z</time>
      </trkpt>
      <trkpt lat="59.9253173" lon="17.7341725">
        <ele>38.5901</ele>
        <time>2014-06-17T11:58:06Z</time>
      </trkpt>
      <trkpt lat="59.9253034" lon="17.7341359">
        <ele>38.5901</ele>
        <time>2014-06-17T11:58:07Z</time>
      </trkpt>
      <trkpt lat="59.9252897" lon="17.7340956">
        <ele>38.5901</ele>
        <time>2014-06-17T11:58:08Z</time>
      </trkpt>
      <trkpt lat="59.9252757" lon="17.7340592">
        <ele>38.5901</ele>
        <time>2014-06-17T11:58:09Z</time>
      </trkpt>
      <trkpt lat="59.9252607" lon="17.7340231">
        <ele>39.0707</ele>
        <time>2014-06-17T11:58:10Z</time>
      </trkpt>
      <trkpt lat="59.9252452" lon="17.7339824">
        <ele>39.0707</ele>
        <time>2014-06-17T11:58:11Z</time>
      </trkpt>
      <trkpt lat="59.9252299" lon="17.7339432">
        <ele>39.0707</ele>
        <time>2014-06-17T11:58:12Z</time>
      </trkpt>
      <trkpt lat="59.9252138" lon="17.7339062">
        <ele>39.5513</ele>
        <time>2014-06-17T11:58:13Z</time>
      </trkpt>
      <trkpt lat="59.9251983" lon="17.7338665">
        <ele>39.5513</ele>
        <time>2014-06-17T11:58:14Z</time>
      </trkpt>
      <trkpt lat="59.9251867" lon="17.7338271">
        <ele>39.0707</ele>
        <time>2014-06-17T11:58:15Z</time>
      </trkpt>
      <trkpt lat="59.9251766" lon="17.7337888">
        <ele>38.5901</ele>
        <time>2014-06-17T11:58:16Z</time>
      </trkpt>
      <trkpt lat="59.9251638" lon="17.7337474">
        <ele>38.5901</ele>
        <time>2014-06-17T11:58:17Z</time>
      </trkpt>
      <trkpt lat="59.9251516" lon="17.7337111">
        <ele>38.1094</ele>
        <time>2014-06-17T11:58:18Z</time>
      </trkpt>
      <trkpt lat="59.9251379" lon="17.7336746">
        <ele>38.1094</ele>
        <time>2014-06-17T11:58:19Z</time>
      </trkpt>
      <trkpt lat="59.9251252" lon="17.7336339">
        <ele>38.1094</ele>
        <time>2014-06-17T11:58:20Z</time>
      </trkpt>
      <trkpt lat="59.9251136" lon="17.7335961">
        <ele>37.6287</ele>
        <time>2014-06-17T11:58:21Z</time>
      </trkpt>
      <trkpt lat="59.9251001" lon="17.7335629">
        <ele>38.1094</ele>
        <time>2014-06-17T11:58:22Z</time>
      </trkpt>
      <trkpt lat="59.9250875" lon="17.7335277">
        <ele>38.1094</ele>
        <time>2014-06-17T11:58:23Z</time>
      </trkpt>
      <trkpt lat="59.9250775" lon="17.7334904">
        <ele>38.1094</ele>
        <time>2014-06-17T11:58:24Z</time>
      </trkpt>
      <trkpt lat="59.9250659" lon="17.7334522">
        <ele>38.1094</ele>
        <time>2014-06-17T11:58:25Z</time>
      </trkpt>
      <trkpt lat="59.9250512" lon="17.7334121">
        <ele>38.1094</ele>
        <time>2014-06-17T11:58:26Z</time>
      </trkpt>
      <trkpt lat="59.9250366" lon="17.7333742">
        <ele>38.1094</ele>
        <time>2014-06-17T11:58:27Z</time>
      </trkpt>
      <trkpt lat="59.9250232" lon="17.7333383">
        <ele>38.1094</ele>
        <time>2014-06-17T11:58:28Z</time>
      </trkpt>
      <trkpt lat="59.92501" lon="17.7332994">
        <ele>37.6287</ele>
        <time>2014-06-17T11:58:29Z</time>
      </trkpt>
      <trkpt lat="59.9249974" lon="17.7332604">
        <ele>37.1481</ele>
        <time>2014-06-17T11:58:30Z</time>
      </trkpt>
      <trkpt lat="59.9249851" lon="17.7332281">
        <ele>37.1481</ele>
        <time>2014-06-17T11:58:31Z</time>
      </trkpt>
      <trkpt lat="59.9249697" lon="17.7331947">
        <ele>37.1481</ele>
        <time>2014-06-17T11:58:32Z</time>
      </trkpt>
      <trkpt lat="59.9249551" lon="17.7331618">
        <ele>37.1481</ele>
        <time>2014-06-17T11:58:33Z</time>
      </trkpt>
      <trkpt lat="59.9249413" lon="17.7331328">
        <ele>36.6675</ele>
        <time>2014-06-17T11:58:34Z</time>
      </trkpt>
      <trkpt lat="59.9249248" lon="17.7330995">
        <ele>37.1481</ele>
        <time>2014-06-17T11:58:35Z</time>
      </trkpt>
      <trkpt lat="59.9249087" lon="17.7330658">
        <ele>37.1481</ele>
        <time>2014-06-17T11:58:36Z</time>
      </trkpt>
      <trkpt lat="59.9248926" lon="17.7330356">
        <ele>37.1481</ele>
        <time>2014-06-17T11:58:37Z</time>
      </trkpt>
      <trkpt lat="59.9248767" lon="17.7330025">
        <ele>37.1481</ele>
        <time>2014-06-17T11:58:38Z</time>
      </trkpt>
      <trkpt lat="59.9248632" lon="17.7329635">
        <ele>37.1481</ele>
        <time>2014-06-17T11:58:39Z</time>
      </trkpt>
      <trkpt lat="59.9248522" lon="17.7329289">
        <ele>37.1481</ele>
        <time>2014-06-17T11:58:40Z</time>
      </trkpt>
      <trkpt lat="59.924838" lon="17.7328947">
        <ele>37.1481</ele>
        <time>2014-06-17T11:58:41Z</time>
      </trkpt>
      <trkpt lat="59.9248235" lon="17.7328579">
        <ele>37.1481</ele>
        <time>2014-06-17T11:58:42Z</time>
      </trkpt>
      <trkpt lat="59.9248097" lon="17.7328234">
        <ele>37.1481</ele>
        <time>2014-06-17T11:58:43Z</time>
      </trkpt>
      <trkpt lat="59.9247963" lon="17.7327912">
        <ele>37.1481</ele>
        <time>2014-06-17T11:58:44Z</time>
      </trkpt>
      <trkpt lat="59.9247817" lon="17.7327557">
        <ele>37.6287</ele>
        <time>2014-06-17T11:58:45Z</time>
      </trkpt>
      <trkpt lat="59.9247671" lon="17.7327222">
        <ele>37.6287</ele>
        <time>2014-06-17T11:58:46Z</time>
      </trkpt>
      <trkpt lat="59.9247523" lon="17.7326912">
        <ele>38.1094</ele>
        <time>2014-06-17T11:58:47Z</time>
      </trkpt>
      <trkpt lat="59.9247372" lon="17.7326632">
        <ele>38.5901</ele>
        <time>2014-06-17T11:58:48Z</time>
      </trkpt>
      <trkpt lat="59.9247196" lon="17.7326378">
        <ele>38.5901</ele>
        <time>2014-06-17T11:58:49Z</time>
      </trkpt>
      <trkpt lat="59.9247021" lon="17.7326098">
        <ele>39.0707</ele>
        <time>2014-06-17T11:58:50Z</time>
      </trkpt>
      <trkpt lat="59.924688" lon="17.7325824">
        <ele>39.0707</ele>
        <time>2014-06-17T11:58:51Z</time>
      </trkpt>
      <trkpt lat="59.9246578" lon="17.7325208">
        <ele>40.0321</ele>
        <time>2014-06-17T11:58:53Z</time>
      </trkpt>
      <trkpt lat="59.9246353" lon="17.7324855">
        <ele>40.0321</ele>
        <time>2014-06-17T11:58:54Z</time>
      </trkpt>
      <trkpt lat="59.9246139" lon="17.7324544">
        <ele>40.0321</ele>
        <time>2014-06-17T11:58:55Z</time>
      </trkpt>
      <trkpt lat="59.9246" lon="17.732428">
        <ele>40.5128</ele>
        <time>2014-06-17T11:58:56Z</time>
      </trkpt>
      <trkpt lat="59.9245904" lon="17.7324022">
        <ele>40.5128</ele>
        <time>2014-06-17T11:58:57Z</time>
      </trkpt>
      <trkpt lat="59.9245776" lon="17.7323782">
        <ele>40.5128</ele>
        <time>2014-06-17T11:58:58Z</time>
      </trkpt>
      <trkpt lat="59.9245607" lon="17.7323532">
        <ele>40.5128</ele>
        <time>2014-06-17T11:58:59Z</time>
      </trkpt>
      <trkpt lat="59.9245444" lon="17.7323254">
        <ele>40.0321</ele>
        <time>2014-06-17T11:59:00Z</time>
      </trkpt>
      <trkpt lat="59.9245282" lon="17.7322928">
        <ele>40.5128</ele>
        <time>2014-06-17T11:59:01Z</time>
      </trkpt>
      <trkpt lat="59.9245139" lon="17.7322646">
        <ele>40.5128</ele>
        <time>2014-06-17T11:59:02Z</time>
      </trkpt>
      <trkpt lat="59.9244979" lon="17.7322437">
        <ele>40.5128</ele>
        <time>2014-06-17T11:59:03Z</time>
      </trkpt>
      <trkpt lat="59.9244783" lon="17.7322233">
        <ele>40.5128</ele>
        <time>2014-06-17T11:59:04Z</time>
      </trkpt>
      <trkpt lat="59.9244607" lon="17.7321978">
        <ele>40.5128</ele>
        <time>2014-06-17T11:59:05Z</time>
      </trkpt>
      <trkpt lat="59.9244433" lon="17.7321706">
        <ele>40.5128</ele>
        <time>2014-06-17T11:59:06Z</time>
      </trkpt>
      <trkpt lat="59.9244248" lon="17.7321501">
        <ele>40.0321</ele>
        <time>2014-06-17T11:59:07Z</time>
      </trkpt>
      <trkpt lat="59.924406" lon="17.7321377">
        <ele>40.0321</ele>
        <time>2014-06-17T11:59:08Z</time>
      </trkpt>
      <trkpt lat="59.9243864" lon="17.7321281">
        <ele>39.5513</ele>
        <time>2014-06-17T11:59:09Z</time>
      </trkpt>
      <trkpt lat="59.9243678" lon="17.7321158">
        <ele>39.5513</ele>
        <time>2014-06-17T11:59:10Z</time>
      </trkpt>
      <trkpt lat="59.9243512" lon="17.7321069">
        <ele>39.0707</ele>
        <time>2014-06-17T11:59:11Z</time>
      </trkpt>
      <trkpt lat="59.9243352" lon="17.7321054">
        <ele>38.5901</ele>
        <time>2014-06-17T11:59:12Z</time>
      </trkpt>
      <trkpt lat="59.9243185" lon="17.7321113">
        <ele>38.1094</ele>
        <time>2014-06-17T11:59:13Z</time>
      </trkpt>
      <trkpt lat="59.9243019" lon="17.7321229">
        <ele>37.6287</ele>
        <time>2014-06-17T11:59:14Z</time>
      </trkpt>
      <trkpt lat="59.9242839" lon="17.7321322">
        <ele>37.6287</ele>
        <time>2014-06-17T11:59:15Z</time>
      </trkpt>
      <trkpt lat="59.9242664" lon="17.73214">
        <ele>36.6675</ele>
        <time>2014-06-17T11:59:16Z</time>
      </trkpt>
      <trkpt lat="59.924249" lon="17.732156">
        <ele>36.6675</ele>
        <time>2014-06-17T11:59:17Z</time>
      </trkpt>
      <trkpt lat="59.9242276" lon="17.7321804">
        <ele>36.1868</ele>
        <time>2014-06-17T11:59:18Z</time>
      </trkpt>
      <trkpt lat="59.9242043" lon="17.7322046">
        <ele>35.7061</ele>
        <time>2014-06-17T11:59:19Z</time>
      </trkpt>
      <trkpt lat="59.9241802" lon="17.7322264">
        <ele>35.7061</ele>
        <time>2014-06-17T11:59:20Z</time>
      </trkpt>
      <trkpt lat="59.9241586" lon="17.7322576">
        <ele>35.7061</ele>
        <time>2014-06-17T11:59:21Z</time>
      </trkpt>
      <trkpt lat="59.9241388" lon="17.7322921">
        <ele>36.1868</ele>
        <time>2014-06-17T11:59:22Z</time>
      </trkpt>
      <trkpt lat="59.9241203" lon="17.7323263">
        <ele>36.6675</ele>
        <time>2014-06-17T11:59:23Z</time>
      </trkpt>
      <trkpt lat="59.9241038" lon="17.7323626">
        <ele>37.6287</ele>
        <time>2014-06-17T11:59:24Z</time>
      </trkpt>
      <trkpt lat="59.9240861" lon="17.7323995">
        <ele>38.1094</ele>
        <time>2014-06-17T11:59:25Z</time>
      </trkpt>
      <trkpt lat="59.9240649" lon="17.7324389">
        <ele>38.5901</ele>
        <time>2014-06-17T11:59:26Z</time>
      </trkpt>
      <trkpt lat="59.9240409" lon="17.732472">
        <ele>39.0707</ele>
        <time>2014-06-17T11:59:27Z</time>
      </trkpt>
      <trkpt lat="59.9240199" lon="17.7324979">
        <ele>40.9934</ele>
        <time>2014-06-17T11:59:28Z</time>
      </trkpt>
      <trkpt lat="59.9240001" lon="17.7325242">
        <ele>42.4354</ele>
        <time>2014-06-17T11:59:29Z</time>
      </trkpt>
      <trkpt lat="59.9239757" lon="17.7325397">
        <ele>42.916</ele>
        <time>2014-06-17T11:59:30Z</time>
      </trkpt>
      <trkpt lat="59.9239473" lon="17.7325529">
        <ele>42.916</ele>
        <time>2014-06-17T11:59:31Z</time>
      </trkpt>
      <trkpt lat="59.9239244" lon="17.732558">
        <ele>42.916</ele>
        <time>2014-06-17T11:59:32Z</time>
      </trkpt>
      <trkpt lat="59.9239042" lon="17.7325591">
        <ele>43.8773</ele>
        <time>2014-06-17T11:59:33Z</time>
      </trkpt>
      <trkpt lat="59.9238847" lon="17.732557">
        <ele>43.8773</ele>
        <time>2014-06-17T11:59:34Z</time>
      </trkpt>
      <trkpt lat="59.9238652" lon="17.7325476">
        <ele>44.358</ele>
        <time>2014-06-17T11:59:35Z</time>
      </trkpt>
      <trkpt lat="59.9238429" lon="17.7325371">
        <ele>44.8386</ele>
        <time>2014-06-17T11:59:36Z</time>
      </trkpt>
      <trkpt lat="59.9238196" lon="17.7325269">
        <ele>44.358</ele>
        <time>2014-06-17T11:59:37Z</time>
      </trkpt>
      <trkpt lat="59.9237979" lon="17.7325159">
        <ele>44.8386</ele>
        <time>2014-06-17T11:59:38Z</time>
      </trkpt>
      <trkpt lat="59.9237743" lon="17.7325071">
        <ele>44.8386</ele>
        <time>2014-06-17T11:59:39Z</time>
      </trkpt>
      <trkpt lat="59.9237498" lon="17.7324983">
        <ele>44.358</ele>
        <time>2014-06-17T11:59:40Z</time>
      </trkpt>
      <trkpt lat="59.9237265" lon="17.7324887">
        <ele>45.3192</ele>
        <time>2014-06-17T11:59:41Z</time>
      </trkpt>
      <trkpt lat="59.9237074" lon="17.7324685">
        <ele>45.7999</ele>
        <time>2014-06-17T11:59:42Z</time>
      </trkpt>
      <trkpt lat="59.9236819" lon="17.7324533">
        <ele>45.3192</ele>
        <time>2014-06-17T11:59:43Z</time>
      </trkpt>
      <trkpt lat="59.9236599" lon="17.7324367">
        <ele>45.7999</ele>
        <time>2014-06-17T11:59:44Z</time>
      </trkpt>
      <trkpt lat="59.9236412" lon="17.7324133">
        <ele>45.7999</ele>
        <time>2014-06-17T11:59:45Z</time>
      </trkpt>
      <trkpt lat="59.9236193" lon="17.7323964">
        <ele>45.7999</ele>
        <time>2014-06-17T11:59:46Z</time>
      </trkpt>
      <trkpt lat="59.9235997" lon="17.7323794">
        <ele>45.3192</ele>
        <time>2014-06-17T11:59:47Z</time>
      </trkpt>
      <trkpt lat="59.923578" lon="17.7323584">
        <ele>44.8386</ele>
        <time>2014-06-17T11:59:48Z</time>
      </trkpt>
      <trkpt lat="59.923556" lon="17.7323348">
        <ele>44.358</ele>
        <time>2014-06-17T11:59:49Z</time>
      </trkpt>
      <trkpt lat="59.9235354" lon="17.7323105">
        <ele>44.358</ele>
        <time>2014-06-17T11:59:50Z</time>
      </trkpt>
      <trkpt lat="59.9235152" lon="17.7322936">
        <ele>43.3966</ele>
        <time>2014-06-17T11:59:51Z</time>
      </trkpt>
      <trkpt lat="59.9234938" lon="17.7322771">
        <ele>43.3966</ele>
        <time>2014-06-17T11:59:52Z</time>
      </trkpt>
      <trkpt lat="59.9234786" lon="17.7322431">
        <ele>43.3966</ele>
        <time>2014-06-17T11:59:53Z</time>
      </trkpt>
      <trkpt lat="59.9234702" lon="17.7322012">
        <ele>42.916</ele>
        <time>2014-06-17T11:59:54Z</time>
      </trkpt>
      <trkpt lat="59.9234576" lon="17.7321658">
        <ele>42.4354</ele>
        <time>2014-06-17T11:59:55Z</time>
      </trkpt>
      <trkpt lat="59.9234422" lon="17.732133">
        <ele>41.9547</ele>
        <time>2014-06-17T11:59:56Z</time>
      </trkpt>
      <trkpt lat="59.9234242" lon="17.7321025">
        <ele>41.474</ele>
        <time>2014-06-17T11:59:57Z</time>
      </trkpt>
      <trkpt lat="59.9234068" lon="17.7320623">
        <ele>40.9934</ele>
        <time>2014-06-17T11:59:58Z</time>
      </trkpt>
      <trkpt lat="59.923393" lon="17.732017">
        <ele>40.9934</ele>
        <time>2014-06-17T11:59:59Z</time>
      </trkpt>
      <trkpt lat="59.9233814" lon="17.7319778">
        <ele>40.5128</ele>
        <time>2014-06-17T12:00:00Z</time>
      </trkpt>
      <trkpt lat="59.9233643" lon="17.7319462">
        <ele>40.0321</ele>
        <time>2014-06-17T12:00:01Z</time>
      </trkpt>
      <trkpt lat="59.9233446" lon="17.7319156">
        <ele>40.0321</ele>
        <time>2014-06-17T12:00:02Z</time>
      </trkpt>
      <trkpt lat="59.9233281" lon="17.7318773">
        <ele>39.0707</ele>
        <time>2014-06-17T12:00:03Z</time>
      </trkpt>
      <trkpt lat="59.9233149" lon="17.7318353">
        <ele>38.5901</ele>
        <time>2014-06-17T12:00:04Z</time>
      </trkpt>
      <trkpt lat="59.9233002" lon="17.731795">
        <ele>38.1094</ele>
        <time>2014-06-17T12:00:05Z</time>
      </trkpt>
      <trkpt lat="59.9232852" lon="17.7317551">
        <ele>37.1481</ele>
        <time>2014-06-17T12:00:06Z</time>
      </trkpt>
      <trkpt lat="59.923268" lon="17.7317255">
        <ele>36.6675</ele>
        <time>2014-06-17T12:00:07Z</time>
      </trkpt>
      <trkpt lat="59.9232537" lon="17.7316903">
        <ele>36.6675</ele>
        <time>2014-06-17T12:00:08Z</time>
      </trkpt>
      <trkpt lat="59.923239" lon="17.7316573">
        <ele>35.2255</ele>
        <time>2014-06-17T12:00:09Z</time>
      </trkpt>
      <trkpt lat="59.9232239" lon="17.7316272">
        <ele>35.2255</ele>
        <time>2014-06-17T12:00:10Z</time>
      </trkpt>
      <trkpt lat="59.9232116" lon="17.7315917">
        <ele>34.7449</ele>
        <time>2014-06-17T12:00:11Z</time>
      </trkpt>
      <trkpt lat="59.9231952" lon="17.7315567">
        <ele>34.2642</ele>
        <time>2014-06-17T12:00:12Z</time>
      </trkpt>
      <trkpt lat="59.9231801" lon="17.7315311">
        <ele>33.7834</ele>
        <time>2014-06-17T12:00:13Z</time>
      </trkpt>
      <trkpt lat="59.9231645" lon="17.7315138">
        <ele>33.7834</ele>
        <time>2014-06-17T12:00:14Z</time>
      </trkpt>
      <trkpt lat="59.9231467" lon="17.731492">
        <ele>33.3029</ele>
        <time>2014-06-17T12:00:15Z</time>
      </trkpt>
      <trkpt lat="59.9231313" lon="17.731469">
        <ele>33.3029</ele>
        <time>2014-06-17T12:00:16Z</time>
      </trkpt>
      <trkpt lat="59.9231185" lon="17.7314415">
        <ele>32.8223</ele>
        <time>2014-06-17T12:00:17Z</time>
      </trkpt>
      <trkpt lat="59.9231048" lon="17.7314131">
        <ele>32.8223</ele>
        <time>2014-06-17T12:00:18Z</time>
      </trkpt>
      <trkpt lat="59.9230862" lon="17.7313931">
        <ele>33.7834</ele>
        <time>2014-06-17T12:00:19Z</time>
      </trkpt>
      <trkpt lat="59.9230638" lon="17.7313807">
        <ele>34.7449</ele>
        <time>2014-06-17T12:00:20Z</time>
      </trkpt>
      <trkpt lat="59.9230392" lon="17.7313717">
        <ele>36.1868</ele>
        <time>2014-06-17T12:00:21Z</time>
      </trkpt>
      <trkpt lat="59.9230174" lon="17.7313589">
        <ele>37.6287</ele>
        <time>2014-06-17T12:00:22Z</time>
      </trkpt>
      <trkpt lat="59.922995" lon="17.7313446">
        <ele>39.0707</ele>
        <time>2014-06-17T12:00:23Z</time>
      </trkpt>
      <trkpt lat="59.9229718" lon="17.7313286">
        <ele>40.5128</ele>
        <time>2014-06-17T12:00:24Z</time>
      </trkpt>
      <trkpt lat="59.9229486" lon="17.7313048">
        <ele>40.9934</ele>
        <time>2014-06-17T12:00:25Z</time>
      </trkpt>
      <trkpt lat="59.9229268" lon="17.7312842">
        <ele>41.474</ele>
        <time>2014-06-17T12:00:26Z</time>
      </trkpt>
      <trkpt lat="59.9229096" lon="17.7312655">
        <ele>41.474</ele>
        <time>2014-06-17T12:00:27Z</time>
      </trkpt>
      <trkpt lat="59.9228884" lon="17.7312476">
        <ele>41.474</ele>
        <time>2014-06-17T12:00:28Z</time>
      </trkpt>
      <trkpt lat="59.9228636" lon="17.7312341">
        <ele>41.474</ele>
        <time>2014-06-17T12:00:29Z</time>
      </trkpt>
      <trkpt lat="59.9228406" lon="17.7312284">
        <ele>41.9547</ele>
        <time>2014-06-17T12:00:30Z</time>
      </trkpt>
      <trkpt lat="59.9228232" lon="17.7312199">
        <ele>41.474</ele>
        <time>2014-06-17T12:00:31Z</time>
      </trkpt>
      <trkpt lat="59.9228014" lon="17.7312027">
        <ele>40.9934</ele>
        <time>2014-06-17T12:00:32Z</time>
      </trkpt>
      <trkpt lat="59.9227785" lon="17.7311755">
        <ele>41.474</ele>
        <time>2014-06-17T12:00:33Z</time>
      </trkpt>
      <trkpt lat="59.9227579" lon="17.7311436">
        <ele>41.9547</ele>
        <time>2014-06-17T12:00:34Z</time>
      </trkpt>
      <trkpt lat="59.922732" lon="17.7311159">
        <ele>42.4354</ele>
        <time>2014-06-17T12:00:35Z</time>
      </trkpt>
      <trkpt lat="59.9227072" lon="17.7310821">
        <ele>42.916</ele>
        <time>2014-06-17T12:00:36Z</time>
      </trkpt>
      <trkpt lat="59.9226834" lon="17.7310492">
        <ele>43.3966</ele>
        <time>2014-06-17T12:00:37Z</time>
      </trkpt>
      <trkpt lat="59.9226583" lon="17.7310207">
        <ele>43.8773</ele>
        <time>2014-06-17T12:00:38Z</time>
      </trkpt>
      <trkpt lat="59.922637" lon="17.7310044">
        <ele>43.3966</ele>
        <time>2014-06-17T12:00:39Z</time>
      </trkpt>
      <trkpt lat="59.9226149" lon="17.7309848">
        <ele>43.8773</ele>
        <time>2014-06-17T12:00:40Z</time>
      </trkpt>
      <trkpt lat="59.9225921" lon="17.7309733">
        <ele>43.3966</ele>
        <time>2014-06-17T12:00:41Z</time>
      </trkpt>
      <trkpt lat="59.9225671" lon="17.7309677">
        <ele>42.916</ele>
        <time>2014-06-17T12:00:42Z</time>
      </trkpt>
      <trkpt lat="59.922544" lon="17.7309553">
        <ele>42.4354</ele>
        <time>2014-06-17T12:00:43Z</time>
      </trkpt>
      <trkpt lat="59.9225237" lon="17.7309351">
        <ele>41.9547</ele>
        <time>2014-06-17T12:00:44Z</time>
      </trkpt>
      <trkpt lat="59.9225054" lon="17.7309178">
        <ele>41.474</ele>
        <time>2014-06-17T12:00:45Z</time>
      </trkpt>
      <trkpt lat="59.922489" lon="17.7308999">
        <ele>41.474</ele>
        <time>2014-06-17T12:00:46Z</time>
      </trkpt>
      <trkpt lat="59.9224709" lon="17.7308806">
        <ele>40.5128</ele>
        <time>2014-06-17T12:00:47Z</time>
      </trkpt>
      <trkpt lat="59.9224502" lon="17.7308689">
        <ele>40.5128</ele>
        <time>2014-06-17T12:00:48Z</time>
      </trkpt>
      <trkpt lat="59.922433" lon="17.7308546">
        <ele>40.0321</ele>
        <time>2014-06-17T12:00:49Z</time>
      </trkpt>
      <trkpt lat="59.9224124" lon="17.7308385">
        <ele>39.5513</ele>
        <time>2014-06-17T12:00:50Z</time>
      </trkpt>
      <trkpt lat="59.9223905" lon="17.7308279">
        <ele>38.5901</ele>
        <time>2014-06-17T12:00:51Z</time>
      </trkpt>
      <trkpt lat="59.9223705" lon="17.730816">
        <ele>37.6287</ele>
        <time>2014-06-17T12:00:52Z</time>
      </trkpt>
      <trkpt lat="59.9223497" lon="17.7308005">
        <ele>37.1481</ele>
        <time>2014-06-17T12:00:53Z</time>
      </trkpt>
      <trkpt lat="59.92233" lon="17.7307865">
        <ele>37.1481</ele>
        <time>2014-06-17T12:00:54Z</time>
      </trkpt>
      <trkpt lat="59.9223137" lon="17.7307735">
        <ele>36.6675</ele>
        <time>2014-06-17T12:00:55Z</time>
      </trkpt>
      <trkpt lat="59.9222937" lon="17.7307669">
        <ele>36.6675</ele>
        <time>2014-06-17T12:00:56Z</time>
      </trkpt>
      <trkpt lat="59.9222745" lon="17.730744">
        <ele>36.6675</ele>
        <time>2014-06-17T12:00:57Z</time>
      </trkpt>
      <trkpt lat="59.9222557" lon="17.73072">
        <ele>35.7061</ele>
        <time>2014-06-17T12:00:58Z</time>
      </trkpt>
      <trkpt lat="59.9222373" lon="17.7307024">
        <ele>35.2255</ele>
        <time>2014-06-17T12:00:59Z</time>
      </trkpt>
      <trkpt lat="59.9222182" lon="17.7306816">
        <ele>34.2642</ele>
        <time>2014-06-17T12:01:00Z</time>
      </trkpt>
      <trkpt lat="59.9221969" lon="17.7306583">
        <ele>34.2642</ele>
        <time>2014-06-17T12:01:01Z</time>
      </trkpt>
      <trkpt lat="59.9221802" lon="17.7306347">
        <ele>34.2642</ele>
        <time>2014-06-17T12:01:02Z</time>
      </trkpt>
      <trkpt lat="59.9221637" lon="17.730617">
        <ele>33.7834</ele>
        <time>2014-06-17T12:01:03Z</time>
      </trkpt>
      <trkpt lat="59.9221469" lon="17.7305967">
        <ele>33.7834</ele>
        <time>2014-06-17T12:01:04Z</time>
      </trkpt>
      <trkpt lat="59.9221312" lon="17.7305731">
        <ele>33.7834</ele>
        <time>2014-06-17T12:01:05Z</time>
      </trkpt>
      <trkpt lat="59.9221133" lon="17.7305538">
        <ele>32.8223</ele>
        <time>2014-06-17T12:01:06Z</time>
      </trkpt>
      <trkpt lat="59.9220918" lon="17.7305321">
        <ele>32.8223</ele>
        <time>2014-06-17T12:01:07Z</time>
      </trkpt>
      <trkpt lat="59.9220708" lon="17.7304995">
        <ele>32.8223</ele>
        <time>2014-06-17T12:01:08Z</time>
      </trkpt>
      <trkpt lat="59.9220487" lon="17.7304741">
        <ele>33.3029</ele>
        <time>2014-06-17T12:01:09Z</time>
      </trkpt>
      <trkpt lat="59.9220274" lon="17.7304488">
        <ele>33.7834</ele>
        <time>2014-06-17T12:01:10Z</time>
      </trkpt>
      <trkpt lat="59.9220088" lon="17.7304141">
        <ele>34.2642</ele>
        <time>2014-06-17T12:01:11Z</time>
      </trkpt>
      <trkpt lat="59.9219939" lon="17.7303741">
        <ele>35.2255</ele>
        <time>2014-06-17T12:01:12Z</time>
      </trkpt>
      <trkpt lat="59.921983" lon="17.7303276">
        <ele>36.6675</ele>
        <time>2014-06-17T12:01:13Z</time>
      </trkpt>
      <trkpt lat="59.9219793" lon="17.7302809">
        <ele>38.5901</ele>
        <time>2014-06-17T12:01:14Z</time>
      </trkpt>
      <trkpt lat="59.9219801" lon="17.7302288">
        <ele>39.5513</ele>
        <time>2014-06-17T12:01:15Z</time>
      </trkpt>
      <trkpt lat="59.9219778" lon="17.7301721">
        <ele>40.0321</ele>
        <time>2014-06-17T12:01:16Z</time>
      </trkpt>
      <trkpt lat="59.9219766" lon="17.7301209">
        <ele>40.5128</ele>
        <time>2014-06-17T12:01:17Z</time>
      </trkpt>
      <trkpt lat="59.9219809" lon="17.7300722">
        <ele>41.474</ele>
        <time>2014-06-17T12:01:18Z</time>
      </trkpt>
      <trkpt lat="59.9219912" lon="17.7300275">
        <ele>42.4354</ele>
        <time>2014-06-17T12:01:19Z</time>
      </trkpt>
      <trkpt lat="59.9219933" lon="17.729979">
        <ele>42.916</ele>
        <time>2014-06-17T12:01:20Z</time>
      </trkpt>
      <trkpt lat="59.9219913" lon="17.7299322">
        <ele>42.916</ele>
        <time>2014-06-17T12:01:21Z</time>
      </trkpt>
      <trkpt lat="59.9219943" lon="17.7298959">
        <ele>43.8773</ele>
        <time>2014-06-17T12:01:22Z</time>
      </trkpt>
      <trkpt lat="59.9219952" lon="17.7298561">
        <ele>43.8773</ele>
        <time>2014-06-17T12:01:23Z</time>
      </trkpt>
      <trkpt lat="59.9219916" lon="17.7298075">
        <ele>44.8386</ele>
        <time>2014-06-17T12:01:24Z</time>
      </trkpt>
      <trkpt lat="59.9219866" lon="17.7297639">
        <ele>45.3192</ele>
        <time>2014-06-17T12:01:25Z</time>
      </trkpt>
      <trkpt lat="59.9219798" lon="17.7297214">
        <ele>45.7999</ele>
        <time>2014-06-17T12:01:26Z</time>
      </trkpt>
      <trkpt lat="59.9219748" lon="17.7296759">
        <ele>45.7999</ele>
        <time>2014-06-17T12:01:27Z</time>
      </trkpt>
      <trkpt lat="59.921971" lon="17.72964">
        <ele>46.2806</ele>
        <time>2014-06-17T12:01:28Z</time>
      </trkpt>
      <trkpt lat="59.9219657" lon="17.7296072">
        <ele>46.7612</ele>
        <time>2014-06-17T12:01:29Z</time>
      </trkpt>
      <trkpt lat="59.9219581" lon="17.7295656">
        <ele>46.7612</ele>
        <time>2014-06-17T12:01:30Z</time>
      </trkpt>
      <trkpt lat="59.9219486" lon="17.7295226">
        <ele>47.2418</ele>
        <time>2014-06-17T12:01:31Z</time>
      </trkpt>
      <trkpt lat="59.9219413" lon="17.72948">
        <ele>47.7225</ele>
        <time>2014-06-17T12:01:32Z</time>
      </trkpt>
      <trkpt lat="59.9219335" lon="17.7294363">
        <ele>48.2034</ele>
        <time>2014-06-17T12:01:33Z</time>
      </trkpt>
      <trkpt lat="59.9219232" lon="17.7293919">
        <ele>49.1646</ele>
        <time>2014-06-17T12:01:34Z</time>
      </trkpt>
      <trkpt lat="59.921914" lon="17.7293514">
        <ele>49.6453</ele>
        <time>2014-06-17T12:01:35Z</time>
      </trkpt>
      <trkpt lat="59.9219048" lon="17.7293092">
        <ele>50.126</ele>
        <time>2014-06-17T12:01:36Z</time>
      </trkpt>
      <trkpt lat="59.9218962" lon="17.7292653">
        <ele>50.6066</ele>
        <time>2014-06-17T12:01:37Z</time>
      </trkpt>
      <trkpt lat="59.9218869" lon="17.729225">
        <ele>50.6066</ele>
        <time>2014-06-17T12:01:38Z</time>
      </trkpt>
      <trkpt lat="59.9218795" lon="17.7291864">
        <ele>50.6066</ele>
        <time>2014-06-17T12:01:39Z</time>
      </trkpt>
      <trkpt lat="59.92187" lon="17.7291463">
        <ele>50.6066</ele>
        <time>2014-06-17T12:01:40Z</time>
      </trkpt>
      <trkpt lat="59.9218627" lon="17.729105">
        <ele>50.6066</ele>
        <time>2014-06-17T12:01:41Z</time>
      </trkpt>
      <trkpt lat="59.921852" lon="17.7290572">
        <ele>50.6066</ele>
        <time>2014-06-17T12:01:42Z</time>
      </trkpt>
      <trkpt lat="59.9218374" lon="17.729004">
        <ele>50.6066</ele>
        <time>2014-06-17T12:01:43Z</time>
      </trkpt>
      <trkpt lat="59.9218251" lon="17.7289569">
        <ele>51.5679</ele>
        <time>2014-06-17T12:01:44Z</time>
      </trkpt>
      <trkpt lat="59.9218098" lon="17.7289159">
        <ele>51.0872</ele>
        <time>2014-06-17T12:01:45Z</time>
      </trkpt>
      <trkpt lat="59.9217935" lon="17.7288812">
        <ele>50.6066</ele>
        <time>2014-06-17T12:01:46Z</time>
      </trkpt>
      <trkpt lat="59.9217745" lon="17.7288562">
        <ele>50.6066</ele>
        <time>2014-06-17T12:01:47Z</time>
      </trkpt>
      <trkpt lat="59.9217509" lon="17.7288398">
        <ele>50.6066</ele>
        <time>2014-06-17T12:01:48Z</time>
      </trkpt>
      <trkpt lat="59.9217303" lon="17.7288321">
        <ele>50.6066</ele>
        <time>2014-06-17T12:01:49Z</time>
      </trkpt>
      <trkpt lat="59.9217109" lon="17.7288299">
        <ele>50.126</ele>
        <time>2014-06-17T12:01:50Z</time>
      </trkpt>
      <trkpt lat="59.9216903" lon="17.728819">
        <ele>50.126</ele>
        <time>2014-06-17T12:01:51Z</time>
      </trkpt>
      <trkpt lat="59.9216707" lon="17.7287966">
        <ele>50.126</ele>
        <time>2014-06-17T12:01:52Z</time>
      </trkpt>
      <trkpt lat="59.9216528" lon="17.7287698">
        <ele>50.126</ele>
        <time>2014-06-17T12:01:53Z</time>
      </trkpt>
      <trkpt lat="59.9216364" lon="17.7287439">
        <ele>50.6066</ele>
        <time>2014-06-17T12:01:54Z</time>
      </trkpt>
      <trkpt lat="59.9216206" lon="17.7287161">
        <ele>51.0872</ele>
        <time>2014-06-17T12:01:55Z</time>
      </trkpt>
      <trkpt lat="59.9216074" lon="17.7286905">
        <ele>51.0872</ele>
        <time>2014-06-17T12:01:56Z</time>
      </trkpt>
      <trkpt lat="59.921594" lon="17.7286574">
        <ele>51.0872</ele>
        <time>2014-06-17T12:01:57Z</time>
      </trkpt>
      <trkpt lat="59.9215789" lon="17.728624">
        <ele>51.0872</ele>
        <time>2014-06-17T12:01:58Z</time>
      </trkpt>
      <trkpt lat="59.9215683" lon="17.7285878">
        <ele>50.6066</ele>
        <time>2014-06-17T12:01:59Z</time>
      </trkpt>
      <trkpt lat="59.921558" lon="17.728547">
        <ele>50.126</ele>
        <time>2014-06-17T12:02:00Z</time>
      </trkpt>
      <trkpt lat="59.9215471" lon="17.7285063">
        <ele>50.6066</ele>
        <time>2014-06-17T12:02:01Z</time>
      </trkpt>
      <trkpt lat="59.9215375" lon="17.7284669">
        <ele>50.6066</ele>
        <time>2014-06-17T12:02:02Z</time>
      </trkpt>
      <trkpt lat="59.9215276" lon="17.7284239">
        <ele>50.126</ele>
        <time>2014-06-17T12:02:03Z</time>
      </trkpt>
      <trkpt lat="59.9215179" lon="17.7283811">
        <ele>50.6066</ele>
        <time>2014-06-17T12:02:04Z</time>
      </trkpt>
      <trkpt lat="59.9215074" lon="17.7283374">
        <ele>50.6066</ele>
        <time>2014-06-17T12:02:05Z</time>
      </trkpt>
      <trkpt lat="59.921496" lon="17.7282936">
        <ele>50.6066</ele>
        <time>2014-06-17T12:02:06Z</time>
      </trkpt>
      <trkpt lat="59.9214831" lon="17.7282488">
        <ele>50.6066</ele>
        <time>2014-06-17T12:02:07Z</time>
      </trkpt>
      <trkpt lat="59.9214717" lon="17.7282056">
        <ele>50.126</ele>
        <time>2014-06-17T12:02:08Z</time>
      </trkpt>
      <trkpt lat="59.9214607" lon="17.7281632">
        <ele>49.6453</ele>
        <time>2014-06-17T12:02:09Z</time>
      </trkpt>
      <trkpt lat="59.9214492" lon="17.7281203">
        <ele>49.1646</ele>
        <time>2014-06-17T12:02:10Z</time>
      </trkpt>
      <trkpt lat="59.9214374" lon="17.7280747">
        <ele>48.2034</ele>
        <time>2014-06-17T12:02:11Z</time>
      </trkpt>
      <trkpt lat="59.9214245" lon="17.7280275">
        <ele>48.2034</ele>
        <time>2014-06-17T12:02:12Z</time>
      </trkpt>
      <trkpt lat="59.9214124" lon="17.7279848">
        <ele>47.7225</ele>
        <time>2014-06-17T12:02:13Z</time>
      </trkpt>
      <trkpt lat="59.9213966" lon="17.7279519">
        <ele>47.2418</ele>
        <time>2014-06-17T12:02:14Z</time>
      </trkpt>
      <trkpt lat="59.9213825" lon="17.7279197">
        <ele>46.7612</ele>
        <time>2014-06-17T12:02:15Z</time>
      </trkpt>
      <trkpt lat="59.9213708" lon="17.727883">
        <ele>46.2806</ele>
        <time>2014-06-17T12:02:16Z</time>
      </trkpt>
      <trkpt lat="59.9213612" lon="17.7278431">
        <ele>46.2806</ele>
        <time>2014-06-17T12:02:17Z</time>
      </trkpt>
      <trkpt lat="59.9213499" lon="17.727798">
        <ele>46.7612</ele>
        <time>2014-06-17T12:02:18Z</time>
      </trkpt>
      <trkpt lat="59.9213327" lon="17.7277548">
        <ele>46.7612</ele>
        <time>2014-06-17T12:02:19Z</time>
      </trkpt>
      <trkpt lat="59.9213166" lon="17.7277173">
        <ele>46.7612</ele>
        <time>2014-06-17T12:02:20Z</time>
      </trkpt>
      <trkpt lat="59.9213007" lon="17.7276792">
        <ele>46.7612</ele>
        <time>2014-06-17T12:02:21Z</time>
      </trkpt>
      <trkpt lat="59.921284" lon="17.7276407">
        <ele>45.7999</ele>
        <time>2014-06-17T12:02:22Z</time>
      </trkpt>
      <trkpt lat="59.921269" lon="17.7276057">
        <ele>45.7999</ele>
        <time>2014-06-17T12:02:23Z</time>
      </trkpt>
      <trkpt lat="59.9212536" lon="17.7275709">
        <ele>45.7999</ele>
        <time>2014-06-17T12:02:24Z</time>
      </trkpt>
      <trkpt lat="59.9212401" lon="17.7275313">
        <ele>45.3192</ele>
        <time>2014-06-17T12:02:25Z</time>
      </trkpt>
      <trkpt lat="59.9212285" lon="17.727496">
        <ele>45.3192</ele>
        <time>2014-06-17T12:02:26Z</time>
      </trkpt>
      <trkpt lat="59.9212159" lon="17.7274622">
        <ele>44.8386</ele>
        <time>2014-06-17T12:02:27Z</time>
      </trkpt>
      <trkpt lat="59.9211993" lon="17.7274277">
        <ele>45.3192</ele>
        <time>2014-06-17T12:02:28Z</time>
      </trkpt>
      <trkpt lat="59.92118" lon="17.7273984">
        <ele>44.8386</ele>
        <time>2014-06-17T12:02:29Z</time>
      </trkpt>
      <trkpt lat="59.9211619" lon="17.7273648">
        <ele>44.8386</ele>
        <time>2014-06-17T12:02:30Z</time>
      </trkpt>
      <trkpt lat="59.9211431" lon="17.7273302">
        <ele>44.358</ele>
        <time>2014-06-17T12:02:31Z</time>
      </trkpt>
      <trkpt lat="59.9211256" lon="17.7273028">
        <ele>44.358</ele>
        <time>2014-06-17T12:02:32Z</time>
      </trkpt>
      <trkpt lat="59.9211079" lon="17.7272738">
        <ele>44.358</ele>
        <time>2014-06-17T12:02:33Z</time>
      </trkpt>
      <trkpt lat="59.9210897" lon="17.7272389">
        <ele>43.8773</ele>
        <time>2014-06-17T12:02:34Z</time>
      </trkpt>
      <trkpt lat="59.9210718" lon="17.7272059">
        <ele>43.3966</ele>
        <time>2014-06-17T12:02:35Z</time>
      </trkpt>
      <trkpt lat="59.9210547" lon="17.7271757">
        <ele>43.3966</ele>
        <time>2014-06-17T12:02:36Z</time>
      </trkpt>
      <trkpt lat="59.9210392" lon="17.7271477">
        <ele>43.3966</ele>
        <time>2014-06-17T12:02:37Z</time>
      </trkpt>
      <trkpt lat="59.9210234" lon="17.7271208">
        <ele>42.916</ele>
        <time>2014-06-17T12:02:38Z</time>
      </trkpt>
      <trkpt lat="59.9210073" lon="17.7270882">
        <ele>42.916</ele>
        <time>2014-06-17T12:02:39Z</time>
      </trkpt>
      <trkpt lat="59.9209911" lon="17.727052">
        <ele>42.916</ele>
        <time>2014-06-17T12:02:40Z</time>
      </trkpt>
      <trkpt lat="59.9209749" lon="17.7270164">
        <ele>42.916</ele>
        <time>2014-06-17T12:02:41Z</time>
      </trkpt>
      <trkpt lat="59.9209573" lon="17.7269827">
        <ele>43.3966</ele>
        <time>2014-06-17T12:02:42Z</time>
      </trkpt>
      <trkpt lat="59.9209402" lon="17.7269509">
        <ele>43.3966</ele>
        <time>2014-06-17T12:02:43Z</time>
      </trkpt>
      <trkpt lat="59.9209239" lon="17.7269219">
        <ele>43.3966</ele>
        <time>2014-06-17T12:02:44Z</time>
      </trkpt>
      <trkpt lat="59.9209077" lon="17.7268915">
        <ele>43.3966</ele>
        <time>2014-06-17T12:02:45Z</time>
      </trkpt>
      <trkpt lat="59.9208909" lon="17.7268592">
        <ele>43.3966</ele>
        <time>2014-06-17T12:02:46Z</time>
      </trkpt>
      <trkpt lat="59.9208734" lon="17.7268292">
        <ele>43.8773</ele>
        <time>2014-06-17T12:02:47Z</time>
      </trkpt>
      <trkpt lat="59.9208558" lon="17.7267994">
        <ele>43.8773</ele>
        <time>2014-06-17T12:02:48Z</time>
      </trkpt>
      <trkpt lat="59.9208391" lon="17.7267689">
        <ele>43.8773</ele>
        <time>2014-06-17T12:02:49Z</time>
      </trkpt>
      <trkpt lat="59.9208183" lon="17.7267367">
        <ele>43.8773</ele>
        <time>2014-06-17T12:02:50Z</time>
      </trkpt>
      <trkpt lat="59.920801" lon="17.7267031">
        <ele>44.358</ele>
        <time>2014-06-17T12:02:51Z</time>
      </trkpt>
      <trkpt lat="59.9207873" lon="17.7266719">
        <ele>44.358</ele>
        <time>2014-06-17T12:02:52Z</time>
      </trkpt>
      <trkpt lat="59.9207723" lon="17.7266421">
        <ele>44.8386</ele>
        <time>2014-06-17T12:02:53Z</time>
      </trkpt>
      <trkpt lat="59.9207566" lon="17.7266005">
        <ele>45.7999</ele>
        <time>2014-06-17T12:02:54Z</time>
      </trkpt>
      <trkpt lat="59.9207408" lon="17.726574">
        <ele>45.3192</ele>
        <time>2014-06-17T12:02:55Z</time>
      </trkpt>
      <trkpt lat="59.920723" lon="17.7265401">
        <ele>45.7999</ele>
        <time>2014-06-17T12:02:56Z</time>
      </trkpt>
      <trkpt lat="59.9207034" lon="17.7265025">
        <ele>46.2806</ele>
        <time>2014-06-17T12:02:57Z</time>
      </trkpt>
      <trkpt lat="59.9206836" lon="17.7264697">
        <ele>46.7612</ele>
        <time>2014-06-17T12:02:58Z</time>
      </trkpt>
      <trkpt lat="59.9206668" lon="17.7264393">
        <ele>47.2418</ele>
        <time>2014-06-17T12:02:59Z</time>
      </trkpt>
      <trkpt lat="59.9206491" lon="17.7264078">
        <ele>47.2418</ele>
        <time>2014-06-17T12:03:00Z</time>
      </trkpt>
      <trkpt lat="59.920631" lon="17.726377">
        <ele>47.2418</ele>
        <time>2014-06-17T12:03:01Z</time>
      </trkpt>
      <trkpt lat="59.9206143" lon="17.7263445">
        <ele>47.2418</ele>
        <time>2014-06-17T12:03:02Z</time>
      </trkpt>
      <trkpt lat="59.9205969" lon="17.7263129">
        <ele>47.7225</ele>
        <time>2014-06-17T12:03:03Z</time>
      </trkpt>
      <trkpt lat="59.9205787" lon="17.7262801">
        <ele>48.2034</ele>
        <time>2014-06-17T12:03:04Z</time>
      </trkpt>
      <trkpt lat="59.9205613" lon="17.7262424">
        <ele>48.684</ele>
        <time>2014-06-17T12:03:05Z</time>
      </trkpt>
      <trkpt lat="59.9205475" lon="17.7262023">
        <ele>49.1646</ele>
        <time>2014-06-17T12:03:06Z</time>
      </trkpt>
      <trkpt lat="59.9205375" lon="17.7261678">
        <ele>49.6453</ele>
        <time>2014-06-17T12:03:07Z</time>
      </trkpt>
      <trkpt lat="59.9205263" lon="17.7261386">
        <ele>49.6453</ele>
        <time>2014-06-17T12:03:08Z</time>
      </trkpt>
      <trkpt lat="59.9205112" lon="17.7261108">
        <ele>49.1646</ele>
        <time>2014-06-17T12:03:09Z</time>
      </trkpt>
      <trkpt lat="59.9204937" lon="17.7260776">
        <ele>49.6453</ele>
        <time>2014-06-17T12:03:10Z</time>
      </trkpt>
      <trkpt lat="59.9204743" lon="17.7260376">
        <ele>49.6453</ele>
        <time>2014-06-17T12:03:11Z</time>
      </trkpt>
      <trkpt lat="59.9204588" lon="17.7259994">
        <ele>49.6453</ele>
        <time>2014-06-17T12:03:12Z</time>
      </trkpt>
      <trkpt lat="59.920447" lon="17.7259591">
        <ele>50.126</ele>
        <time>2014-06-17T12:03:13Z</time>
      </trkpt>
      <trkpt lat="59.9204315" lon="17.7259208">
        <ele>50.126</ele>
        <time>2014-06-17T12:03:14Z</time>
      </trkpt>
      <trkpt lat="59.920417" lon="17.7258882">
        <ele>50.126</ele>
        <time>2014-06-17T12:03:15Z</time>
      </trkpt>
      <trkpt lat="59.9204057" lon="17.7258555">
        <ele>50.126</ele>
        <time>2014-06-17T12:03:16Z</time>
      </trkpt>
      <trkpt lat="59.9203922" lon="17.7258234">
        <ele>50.126</ele>
        <time>2014-06-17T12:03:17Z</time>
      </trkpt>
      <trkpt lat="59.9203751" lon="17.7257927">
        <ele>50.126</ele>
        <time>2014-06-17T12:03:18Z</time>
      </trkpt>
      <trkpt lat="59.920359" lon="17.7257586">
        <ele>49.6453</ele>
        <time>2014-06-17T12:03:19Z</time>
      </trkpt>
      <trkpt lat="59.920344" lon="17.7257269">
        <ele>49.6453</ele>
        <time>2014-06-17T12:03:20Z</time>
      </trkpt>
      <trkpt lat="59.9203274" lon="17.7257007">
        <ele>49.6453</ele>
        <time>2014-06-17T12:03:21Z</time>
      </trkpt>
      <trkpt lat="59.9203122" lon="17.7256693">
        <ele>49.6453</ele>
        <time>2014-06-17T12:03:22Z</time>
      </trkpt>
      <trkpt lat="59.9202979" lon="17.7256368">
        <ele>49.1646</ele>
        <time>2014-06-17T12:03:23Z</time>
      </trkpt>
      <trkpt lat="59.9202845" lon="17.7256115">
        <ele>50.126</ele>
        <time>2014-06-17T12:03:24Z</time>
      </trkpt>
      <trkpt lat="59.9202724" lon="17.7255876">
        <ele>49.6453</ele>
        <time>2014-06-17T12:03:25Z</time>
      </trkpt>
      <trkpt lat="59.9202564" lon="17.7255684">
        <ele>49.1646</ele>
        <time>2014-06-17T12:03:26Z</time>
      </trkpt>
      <trkpt lat="59.9202398" lon="17.7255462">
        <ele>49.6453</ele>
        <time>2014-06-17T12:03:27Z</time>
      </trkpt>
      <trkpt lat="59.9202231" lon="17.7255267">
        <ele>48.684</ele>
        <time>2014-06-17T12:03:28Z</time>
      </trkpt>
      <trkpt lat="59.920204" lon="17.725509">
        <ele>48.684</ele>
        <time>2014-06-17T12:03:29Z</time>
      </trkpt>
      <trkpt lat="59.920183" lon="17.7254903">
        <ele>48.684</ele>
        <time>2014-06-17T12:03:30Z</time>
      </trkpt>
      <trkpt lat="59.9201606" lon="17.7254699">
        <ele>47.7225</ele>
        <time>2014-06-17T12:03:31Z</time>
      </trkpt>
      <trkpt lat="59.9201384" lon="17.7254535">
        <ele>47.2418</ele>
        <time>2014-06-17T12:03:32Z</time>
      </trkpt>
      <trkpt lat="59.9201134" lon="17.7254411">
        <ele>46.2806</ele>
        <time>2014-06-17T12:03:33Z</time>
      </trkpt>
      <trkpt lat="59.9200865" lon="17.7254257">
        <ele>45.7999</ele>
        <time>2014-06-17T12:03:34Z</time>
      </trkpt>
      <trkpt lat="59.9200625" lon="17.7254121">
        <ele>45.3192</ele>
        <time>2014-06-17T12:03:35Z</time>
      </trkpt>
      <trkpt lat="59.9200387" lon="17.7253971">
        <ele>45.3192</ele>
        <time>2014-06-17T12:03:36Z</time>
      </trkpt>
      <trkpt lat="59.9200135" lon="17.7253803">
        <ele>45.3192</ele>
        <time>2014-06-17T12:03:37Z</time>
      </trkpt>
      <trkpt lat="59.9199911" lon="17.7253699">
        <ele>44.8386</ele>
        <time>2014-06-17T12:03:38Z</time>
      </trkpt>
      <trkpt lat="59.9199695" lon="17.7253551">
        <ele>44.8386</ele>
        <time>2014-06-17T12:03:39Z</time>
      </trkpt>
      <trkpt lat="59.9199496" lon="17.7253317">
        <ele>44.358</ele>
        <time>2014-06-17T12:03:40Z</time>
      </trkpt>
      <trkpt lat="59.9199271" lon="17.725314">
        <ele>43.8773</ele>
        <time>2014-06-17T12:03:41Z</time>
      </trkpt>
      <trkpt lat="59.9199036" lon="17.7252936">
        <ele>44.358</ele>
        <time>2014-06-17T12:03:42Z</time>
      </trkpt>
      <trkpt lat="59.9198843" lon="17.7252635">
        <ele>43.3966</ele>
        <time>2014-06-17T12:03:43Z</time>
      </trkpt>
      <trkpt lat="59.9198649" lon="17.7252365">
        <ele>43.3966</ele>
        <time>2014-06-17T12:03:44Z</time>
      </trkpt>
      <trkpt lat="59.9198441" lon="17.7252172">
        <ele>42.916</ele>
        <time>2014-06-17T12:03:45Z</time>
      </trkpt>
      <trkpt lat="59.9198243" lon="17.7251936">
        <ele>42.916</ele>
        <time>2014-06-17T12:03:46Z</time>
      </trkpt>
      <trkpt lat="59.9198041" lon="17.7251739">
        <ele>42.916</ele>
        <time>2014-06-17T12:03:47Z</time>
      </trkpt>
      <trkpt lat="59.9197792" lon="17.7251558">
        <ele>42.4354</ele>
        <time>2014-06-17T12:03:48Z</time>
      </trkpt>
      <trkpt lat="59.919755" lon="17.7251375">
        <ele>42.4354</ele>
        <time>2014-06-17T12:03:49Z</time>
      </trkpt>
      <trkpt lat="59.9197337" lon="17.7251179">
        <ele>42.4354</ele>
        <time>2014-06-17T12:03:50Z</time>
      </trkpt>
      <trkpt lat="59.919713" lon="17.7250969">
        <ele>42.4354</ele>
        <time>2014-06-17T12:03:51Z</time>
      </trkpt>
      <trkpt lat="59.9196921" lon="17.7250774">
        <ele>42.4354</ele>
        <time>2014-06-17T12:03:52Z</time>
      </trkpt>
      <trkpt lat="59.9196714" lon="17.7250563">
        <ele>42.4354</ele>
        <time>2014-06-17T12:03:53Z</time>
      </trkpt>
      <trkpt lat="59.9196499" lon="17.7250407">
        <ele>42.4354</ele>
        <time>2014-06-17T12:03:54Z</time>
      </trkpt>
      <trkpt lat="59.919626" lon="17.7250277">
        <ele>42.916</ele>
        <time>2014-06-17T12:03:55Z</time>
      </trkpt>
      <trkpt lat="59.9196048" lon="17.7250104">
        <ele>42.916</ele>
        <time>2014-06-17T12:03:56Z</time>
      </trkpt>
      <trkpt lat="59.9195805" lon="17.7249964">
        <ele>42.916</ele>
        <time>2014-06-17T12:03:57Z</time>
      </trkpt>
      <trkpt lat="59.9195561" lon="17.7249753">
        <ele>42.916</ele>
        <time>2014-06-17T12:03:58Z</time>
      </trkpt>
      <trkpt lat="59.9195317" lon="17.7249556">
        <ele>42.916</ele>
        <time>2014-06-17T12:03:59Z</time>
      </trkpt>
      <trkpt lat="59.9195074" lon="17.7249365">
        <ele>42.4354</ele>
        <time>2014-06-17T12:04:00Z</time>
      </trkpt>
      <trkpt lat="59.9194844" lon="17.7249065">
        <ele>41.9547</ele>
        <time>2014-06-17T12:04:01Z</time>
      </trkpt>
      <trkpt lat="59.9194613" lon="17.724883">
        <ele>41.9547</ele>
        <time>2014-06-17T12:04:02Z</time>
      </trkpt>
      <trkpt lat="59.9194405" lon="17.7248604">
        <ele>42.4354</ele>
        <time>2014-06-17T12:04:03Z</time>
      </trkpt>
      <trkpt lat="59.9194178" lon="17.7248403">
        <ele>41.9547</ele>
        <time>2014-06-17T12:04:04Z</time>
      </trkpt>
      <trkpt lat="59.919394" lon="17.7248216">
        <ele>41.474</ele>
        <time>2014-06-17T12:04:05Z</time>
      </trkpt>
      <trkpt lat="59.9193716" lon="17.7248044">
        <ele>41.9547</ele>
        <time>2014-06-17T12:04:06Z</time>
      </trkpt>
      <trkpt lat="59.9193505" lon="17.7247867">
        <ele>41.9547</ele>
        <time>2014-06-17T12:04:07Z</time>
      </trkpt>
      <trkpt lat="59.9193301" lon="17.7247662">
        <ele>41.9547</ele>
        <time>2014-06-17T12:04:08Z</time>
      </trkpt>
      <trkpt lat="59.9193101" lon="17.7247465">
        <ele>41.474</ele>
        <time>2014-06-17T12:04:09Z</time>
      </trkpt>
      <trkpt lat="59.9192898" lon="17.7247329">
        <ele>41.474</ele>
        <time>2014-06-17T12:04:10Z</time>
      </trkpt>
      <trkpt lat="59.919268" lon="17.7247175">
        <ele>41.474</ele>
        <time>2014-06-17T12:04:11Z</time>
      </trkpt>
      <trkpt lat="59.9192457" lon="17.7247074">
        <ele>41.474</ele>
        <time>2014-06-17T12:04:12Z</time>
      </trkpt>
      <trkpt lat="59.9192244" lon="17.724708">
        <ele>40.9934</ele>
        <time>2014-06-17T12:04:13Z</time>
      </trkpt>
      <trkpt lat="59.9192042" lon="17.7247108">
        <ele>40.9934</ele>
        <time>2014-06-17T12:04:14Z</time>
      </trkpt>
      <trkpt lat="59.91918" lon="17.7247235">
        <ele>40.9934</ele>
        <time>2014-06-17T12:04:15Z</time>
      </trkpt>
      <trkpt lat="59.9191513" lon="17.7247502">
        <ele>40.5128</ele>
        <time>2014-06-17T12:04:16Z</time>
      </trkpt>
      <trkpt lat="59.9191285" lon="17.724782">
        <ele>40.5128</ele>
        <time>2014-06-17T12:04:17Z</time>
      </trkpt>
      <trkpt lat="59.9191099" lon="17.7248205">
        <ele>40.5128</ele>
        <time>2014-06-17T12:04:18Z</time>
      </trkpt>
      <trkpt lat="59.9190935" lon="17.7248608">
        <ele>40.0321</ele>
        <time>2014-06-17T12:04:19Z</time>
      </trkpt>
      <trkpt lat="59.9190804" lon="17.7249042">
        <ele>40.0321</ele>
        <time>2014-06-17T12:04:20Z</time>
      </trkpt>
      <trkpt lat="59.9190666" lon="17.7249546">
        <ele>40.0321</ele>
        <time>2014-06-17T12:04:21Z</time>
      </trkpt>
      <trkpt lat="59.9190509" lon="17.7249998">
        <ele>40.0321</ele>
        <time>2014-06-17T12:04:22Z</time>
      </trkpt>
      <trkpt lat="59.9190382" lon="17.7250421">
        <ele>40.0321</ele>
        <time>2014-06-17T12:04:23Z</time>
      </trkpt>
      <trkpt lat="59.9190231" lon="17.7250905">
        <ele>39.5513</ele>
        <time>2014-06-17T12:04:24Z</time>
      </trkpt>
      <trkpt lat="59.9190076" lon="17.7251329">
        <ele>39.0707</ele>
        <time>2014-06-17T12:04:25Z</time>
      </trkpt>
      <trkpt lat="59.9189944" lon="17.7251742">
        <ele>38.5901</ele>
        <time>2014-06-17T12:04:26Z</time>
      </trkpt>
      <trkpt lat="59.9189793" lon="17.72522">
        <ele>37.6287</ele>
        <time>2014-06-17T12:04:27Z</time>
      </trkpt>
      <trkpt lat="59.9189661" lon="17.7252675">
        <ele>37.6287</ele>
        <time>2014-06-17T12:04:28Z</time>
      </trkpt>
      <trkpt lat="59.9189532" lon="17.7253174">
        <ele>36.6675</ele>
        <time>2014-06-17T12:04:29Z</time>
      </trkpt>
      <trkpt lat="59.9189386" lon="17.725365">
        <ele>36.6675</ele>
        <time>2014-06-17T12:04:30Z</time>
      </trkpt>
      <trkpt lat="59.9189275" lon="17.7254105">
        <ele>36.1868</ele>
        <time>2014-06-17T12:04:31Z</time>
      </trkpt>
      <trkpt lat="59.9189143" lon="17.7254539">
        <ele>36.6675</ele>
        <time>2014-06-17T12:04:32Z</time>
      </trkpt>
      <trkpt lat="59.9189012" lon="17.7254979">
        <ele>36.1868</ele>
        <time>2014-06-17T12:04:33Z</time>
      </trkpt>
      <trkpt lat="59.9188885" lon="17.7255416">
        <ele>36.6675</ele>
        <time>2014-06-17T12:04:34Z</time>
      </trkpt>
      <trkpt lat="59.9188765" lon="17.7255859">
        <ele>37.1481</ele>
        <time>2014-06-17T12:04:35Z</time>
      </trkpt>
      <trkpt lat="59.9188646" lon="17.7256343">
        <ele>37.1481</ele>
        <time>2014-06-17T12:04:36Z</time>
      </trkpt>
      <trkpt lat="59.9188524" lon="17.7256756">
        <ele>36.6675</ele>
        <time>2014-06-17T12:04:37Z</time>
      </trkpt>
      <trkpt lat="59.9188427" lon="17.7257199">
        <ele>37.1481</ele>
        <time>2014-06-17T12:04:38Z</time>
      </trkpt>
      <trkpt lat="59.9188345" lon="17.7257688">
        <ele>37.6287</ele>
        <time>2014-06-17T12:04:39Z</time>
      </trkpt>
      <trkpt lat="59.9188241" lon="17.7258187">
        <ele>37.6287</ele>
        <time>2014-06-17T12:04:40Z</time>
      </trkpt>
      <trkpt lat="59.9188122" lon="17.7258667">
        <ele>37.1481</ele>
        <time>2014-06-17T12:04:41Z</time>
      </trkpt>
      <trkpt lat="59.9187987" lon="17.7259128">
        <ele>37.6287</ele>
        <time>2014-06-17T12:04:42Z</time>
      </trkpt>
      <trkpt lat="59.918784" lon="17.7259568">
        <ele>37.1481</ele>
        <time>2014-06-17T12:04:43Z</time>
      </trkpt>
      <trkpt lat="59.9187718" lon="17.7260016">
        <ele>37.6287</ele>
        <time>2014-06-17T12:04:44Z</time>
      </trkpt>
      <trkpt lat="59.9187618" lon="17.7260498">
        <ele>38.1094</ele>
        <time>2014-06-17T12:04:45Z</time>
      </trkpt>
      <trkpt lat="59.9187498" lon="17.7261031">
        <ele>38.1094</ele>
        <time>2014-06-17T12:04:46Z</time>
      </trkpt>
      <trkpt lat="59.9187367" lon="17.7261518">
        <ele>38.1094</ele>
        <time>2014-06-17T12:04:47Z</time>
      </trkpt>
      <trkpt lat="59.9187232" lon="17.726197">
        <ele>38.5901</ele>
        <time>2014-06-17T12:04:48Z</time>
      </trkpt>
      <trkpt lat="59.9187122" lon="17.7262412">
        <ele>38.5901</ele>
        <time>2014-06-17T12:04:49Z</time>
      </trkpt>
      <trkpt lat="59.9187007" lon="17.7262844">
        <ele>38.1094</ele>
        <time>2014-06-17T12:04:50Z</time>
      </trkpt>
      <trkpt lat="59.9186892" lon="17.7263253">
        <ele>38.5901</ele>
        <time>2014-06-17T12:04:51Z</time>
      </trkpt>
      <trkpt lat="59.9186805" lon="17.7263667">
        <ele>39.0707</ele>
        <time>2014-06-17T12:04:52Z</time>
      </trkpt>
      <trkpt lat="59.9186671" lon="17.7264082">
        <ele>39.5513</ele>
        <time>2014-06-17T12:04:53Z</time>
      </trkpt>
      <trkpt lat="59.9186468" lon="17.7264459">
        <ele>40.0321</ele>
        <time>2014-06-17T12:04:54Z</time>
      </trkpt>
      <trkpt lat="59.9186255" lon="17.7264833">
        <ele>39.5513</ele>
        <time>2014-06-17T12:04:55Z</time>
      </trkpt>
      <trkpt lat="59.9186045" lon="17.7265113">
        <ele>39.5513</ele>
        <time>2014-06-17T12:04:56Z</time>
      </trkpt>
      <trkpt lat="59.9185811" lon="17.7265363">
        <ele>40.0321</ele>
        <time>2014-06-17T12:04:57Z</time>
      </trkpt>
      <trkpt lat="59.9185585" lon="17.7265595">
        <ele>40.5128</ele>
        <time>2014-06-17T12:04:58Z</time>
      </trkpt>
      <trkpt lat="59.918538" lon="17.7265696">
        <ele>40.5128</ele>
        <time>2014-06-17T12:04:59Z</time>
      </trkpt>
      <trkpt lat="59.918519" lon="17.7265754">
        <ele>40.9934</ele>
        <time>2014-06-17T12:05:00Z</time>
      </trkpt>
      <trkpt lat="59.9184996" lon="17.726578">
        <ele>41.9547</ele>
        <time>2014-06-17T12:05:01Z</time>
      </trkpt>
      <trkpt lat="59.9184786" lon="17.726575">
        <ele>41.474</ele>
        <time>2014-06-17T12:05:02Z</time>
      </trkpt>
      <trkpt lat="59.9184579" lon="17.7265668">
        <ele>41.9547</ele>
        <time>2014-06-17T12:05:03Z</time>
      </trkpt>
      <trkpt lat="59.9184406" lon="17.7265513">
        <ele>41.9547</ele>
        <time>2014-06-17T12:05:04Z</time>
      </trkpt>
      <trkpt lat="59.918425" lon="17.7265412">
        <ele>42.4354</ele>
        <time>2014-06-17T12:05:05Z</time>
      </trkpt>
      <trkpt lat="59.9184097" lon="17.7265222">
        <ele>42.4354</ele>
        <time>2014-06-17T12:05:06Z</time>
      </trkpt>
      <trkpt lat="59.9183934" lon="17.7264932">
        <ele>42.4354</ele>
        <time>2014-06-17T12:05:07Z</time>
      </trkpt>
      <trkpt lat="59.918375" lon="17.726461">
        <ele>42.4354</ele>
        <time>2014-06-17T12:05:08Z</time>
      </trkpt>
      <trkpt lat="59.9183556" lon="17.7264258">
        <ele>42.4354</ele>
        <time>2014-06-17T12:05:09Z</time>
      </trkpt>
      <trkpt lat="59.9183308" lon="17.7263989">
        <ele>42.4354</ele>
        <time>2014-06-17T12:05:10Z</time>
      </trkpt>
      <trkpt lat="59.9183049" lon="17.7263748">
        <ele>42.916</ele>
        <time>2014-06-17T12:05:11Z</time>
      </trkpt>
      <trkpt lat="59.9182812" lon="17.7263492">
        <ele>42.916</ele>
        <time>2014-06-17T12:05:12Z</time>
      </trkpt>
      <trkpt lat="59.9182606" lon="17.7263155">
        <ele>43.3966</ele>
        <time>2014-06-17T12:05:13Z</time>
      </trkpt>
      <trkpt lat="59.9182406" lon="17.726291">
        <ele>43.8773</ele>
        <time>2014-06-17T12:05:14Z</time>
      </trkpt>
      <trkpt lat="59.9182201" lon="17.7262652">
        <ele>43.8773</ele>
        <time>2014-06-17T12:05:15Z</time>
      </trkpt>
      <trkpt lat="59.918201" lon="17.7262378">
        <ele>43.8773</ele>
        <time>2014-06-17T12:05:16Z</time>
      </trkpt>
      <trkpt lat="59.9181803" lon="17.7262056">
        <ele>44.358</ele>
        <time>2014-06-17T12:05:17Z</time>
      </trkpt>
      <trkpt lat="59.91816" lon="17.7261782">
        <ele>44.8386</ele>
        <time>2014-06-17T12:05:18Z</time>
      </trkpt>
      <trkpt lat="59.9181383" lon="17.7261548">
        <ele>44.8386</ele>
        <time>2014-06-17T12:05:19Z</time>
      </trkpt>
      <trkpt lat="59.9181169" lon="17.7261307">
        <ele>44.8386</ele>
        <time>2014-06-17T12:05:20Z</time>
      </trkpt>
      <trkpt lat="59.9180961" lon="17.7261093">
        <ele>44.8386</ele>
        <time>2014-06-17T12:05:21Z</time>
      </trkpt>
      <trkpt lat="59.9180754" lon="17.7260855">
        <ele>45.3192</ele>
        <time>2014-06-17T12:05:22Z</time>
      </trkpt>
      <trkpt lat="59.9180543" lon="17.7260563">
        <ele>45.3192</ele>
        <time>2014-06-17T12:05:23Z</time>
      </trkpt>
      <trkpt lat="59.9180308" lon="17.7260242">
        <ele>45.3192</ele>
        <time>2014-06-17T12:05:24Z</time>
      </trkpt>
      <trkpt lat="59.9180114" lon="17.7259953">
        <ele>44.358</ele>
        <time>2014-06-17T12:05:25Z</time>
      </trkpt>
      <trkpt lat="59.9179923" lon="17.7259623">
        <ele>44.358</ele>
        <time>2014-06-17T12:05:26Z</time>
      </trkpt>
      <trkpt lat="59.9179729" lon="17.7259421">
        <ele>44.358</ele>
        <time>2014-06-17T12:05:27Z</time>
      </trkpt>
      <trkpt lat="59.9179505" lon="17.725928">
        <ele>44.358</ele>
        <time>2014-06-17T12:05:28Z</time>
      </trkpt>
      <trkpt lat="59.9179265" lon="17.7259112">
        <ele>44.358</ele>
        <time>2014-06-17T12:05:29Z</time>
      </trkpt>
      <trkpt lat="59.9179053" lon="17.7258875">
        <ele>44.8386</ele>
        <time>2014-06-17T12:05:30Z</time>
      </trkpt>
      <trkpt lat="59.9178838" lon="17.7258664">
        <ele>45.3192</ele>
        <time>2014-06-17T12:05:31Z</time>
      </trkpt>
      <trkpt lat="59.917859" lon="17.7258558">
        <ele>45.7999</ele>
        <time>2014-06-17T12:05:32Z</time>
      </trkpt>
      <trkpt lat="59.9178384" lon="17.7258387">
        <ele>45.7999</ele>
        <time>2014-06-17T12:05:33Z</time>
      </trkpt>
      <trkpt lat="59.9178192" lon="17.7258119">
        <ele>45.7999</ele>
        <time>2014-06-17T12:05:34Z</time>
      </trkpt>
      <trkpt lat="59.9178012" lon="17.7257898">
        <ele>46.2806</ele>
        <time>2014-06-17T12:05:35Z</time>
      </trkpt>
      <trkpt lat="59.9177871" lon="17.7257679">
        <ele>46.2806</ele>
        <time>2014-06-17T12:05:36Z</time>
      </trkpt>
      <trkpt lat="59.9177757" lon="17.7257436">
        <ele>46.7612</ele>
        <time>2014-06-17T12:05:37Z</time>
      </trkpt>
      <trkpt lat="59.9177632" lon="17.7257147">
        <ele>47.2418</ele>
        <time>2014-06-17T12:05:38Z</time>
      </trkpt>
      <trkpt lat="59.9177442" lon="17.725684">
        <ele>48.2034</ele>
        <time>2014-06-17T12:05:39Z</time>
      </trkpt>
      <trkpt lat="59.9177211" lon="17.7256641">
        <ele>48.684</ele>
        <time>2014-06-17T12:05:40Z</time>
      </trkpt>
      <trkpt lat="59.9176989" lon="17.7256286">
        <ele>49.1646</ele>
        <time>2014-06-17T12:05:41Z</time>
      </trkpt>
      <trkpt lat="59.9176801" lon="17.7255944">
        <ele>49.6453</ele>
        <time>2014-06-17T12:05:42Z</time>
      </trkpt>
      <trkpt lat="59.9176638" lon="17.7255595">
        <ele>50.126</ele>
        <time>2014-06-17T12:05:43Z</time>
      </trkpt>
      <trkpt lat="59.9176483" lon="17.7255241">
        <ele>50.6066</ele>
        <time>2014-06-17T12:05:44Z</time>
      </trkpt>
      <trkpt lat="59.9176296" lon="17.7254872">
        <ele>51.0872</ele>
        <time>2014-06-17T12:05:45Z</time>
      </trkpt>
      <trkpt lat="59.9176114" lon="17.7254562">
        <ele>52.0486</ele>
        <time>2014-06-17T12:05:46Z</time>
      </trkpt>
      <trkpt lat="59.9175949" lon="17.7254224">
        <ele>52.5292</ele>
        <time>2014-06-17T12:05:47Z</time>
      </trkpt>
      <trkpt lat="59.9175776" lon="17.7253894">
        <ele>53.0098</ele>
        <time>2014-06-17T12:05:48Z</time>
      </trkpt>
      <trkpt lat="59.91756" lon="17.7253554">
        <ele>53.0098</ele>
        <time>2014-06-17T12:05:49Z</time>
      </trkpt>
      <trkpt lat="59.9175435" lon="17.7253188">
        <ele>53.0098</ele>
        <time>2014-06-17T12:05:50Z</time>
      </trkpt>
      <trkpt lat="59.9175291" lon="17.7252858">
        <ele>53.0098</ele>
        <time>2014-06-17T12:05:51Z</time>
      </trkpt>
      <trkpt lat="59.9175115" lon="17.7252576">
        <ele>53.4905</ele>
        <time>2014-06-17T12:05:52Z</time>
      </trkpt>
      <trkpt lat="59.9174931" lon="17.7252313">
        <ele>53.4905</ele>
        <time>2014-06-17T12:05:53Z</time>
      </trkpt>
      <trkpt lat="59.9174772" lon="17.7252023">
        <ele>53.0098</ele>
        <time>2014-06-17T12:05:54Z</time>
      </trkpt>
      <trkpt lat="59.9174607" lon="17.7251773">
        <ele>53.0098</ele>
        <time>2014-06-17T12:05:55Z</time>
      </trkpt>
      <trkpt lat="59.9174431" lon="17.7251541">
        <ele>53.0098</ele>
        <time>2014-06-17T12:05:56Z</time>
      </trkpt>
      <trkpt lat="59.9174248" lon="17.7251255">
        <ele>52.5292</ele>
        <time>2014-06-17T12:05:57Z</time>
      </trkpt>
      <trkpt lat="59.9174044" lon="17.7250987">
        <ele>52.0486</ele>
        <time>2014-06-17T12:05:58Z</time>
      </trkpt>
      <trkpt lat="59.9173841" lon="17.7250738">
        <ele>52.0486</ele>
        <time>2014-06-17T12:05:59Z</time>
      </trkpt>
      <trkpt lat="59.9173653" lon="17.7250469">
        <ele>52.0486</ele>
        <time>2014-06-17T12:06:00Z</time>
      </trkpt>
      <trkpt lat="59.9173476" lon="17.725025">
        <ele>51.5679</ele>
        <time>2014-06-17T12:06:01Z</time>
      </trkpt>
      <trkpt lat="59.917329" lon="17.7250052">
        <ele>51.0872</ele>
        <time>2014-06-17T12:06:02Z</time>
      </trkpt>
      <trkpt lat="59.917312" lon="17.7249804">
        <ele>51.0872</ele>
        <time>2014-06-17T12:06:03Z</time>
      </trkpt>
      <trkpt lat="59.9172949" lon="17.7249582">
        <ele>51.0872</ele>
        <time>2014-06-17T12:06:04Z</time>
      </trkpt>
      <trkpt lat="59.9172763" lon="17.7249371">
        <ele>51.0872</ele>
        <time>2014-06-17T12:06:05Z</time>
      </trkpt>
      <trkpt lat="59.9172576" lon="17.7249157">
        <ele>51.5679</ele>
        <time>2014-06-17T12:06:06Z</time>
      </trkpt>
      <trkpt lat="59.9172432" lon="17.7248925">
        <ele>51.5679</ele>
        <time>2014-06-17T12:06:07Z</time>
      </trkpt>
      <trkpt lat="59.917228" lon="17.7248721">
        <ele>51.5679</ele>
        <time>2014-06-17T12:06:08Z</time>
      </trkpt>
      <trkpt lat="59.9172095" lon="17.7248516">
        <ele>52.0486</ele>
        <time>2014-06-17T12:06:09Z</time>
      </trkpt>
      <trkpt lat="59.9171932" lon="17.7248308">
        <ele>52.0486</ele>
        <time>2014-06-17T12:06:10Z</time>
      </trkpt>
      <trkpt lat="59.9171792" lon="17.7248019">
        <ele>53.0098</ele>
        <time>2014-06-17T12:06:11Z</time>
      </trkpt>
      <trkpt lat="59.9171639" lon="17.724776">
        <ele>53.0098</ele>
        <time>2014-06-17T12:06:12Z</time>
      </trkpt>
      <trkpt lat="59.9171489" lon="17.7247465">
        <ele>53.0098</ele>
        <time>2014-06-17T12:06:13Z</time>
      </trkpt>
      <trkpt lat="59.9171332" lon="17.7247111">
        <ele>53.4905</ele>
        <time>2014-06-17T12:06:14Z</time>
      </trkpt>
      <trkpt lat="59.9171161" lon="17.7246827">
        <ele>53.9712</ele>
        <time>2014-06-17T12:06:15Z</time>
      </trkpt>
      <trkpt lat="59.9170984" lon="17.724664">
        <ele>54.4518</ele>
        <time>2014-06-17T12:06:16Z</time>
      </trkpt>
      <trkpt lat="59.9170821" lon="17.7246475">
        <ele>54.4518</ele>
        <time>2014-06-17T12:06:17Z</time>
      </trkpt>
      <trkpt lat="59.917066" lon="17.7246214">
        <ele>54.4518</ele>
        <time>2014-06-17T12:06:18Z</time>
      </trkpt>
      <trkpt lat="59.9170459" lon="17.7246008">
        <ele>54.9324</ele>
        <time>2014-06-17T12:06:19Z</time>
      </trkpt>
      <trkpt lat="59.9170276" lon="17.7245697">
        <ele>55.4131</ele>
        <time>2014-06-17T12:06:20Z</time>
      </trkpt>
      <trkpt lat="59.9170099" lon="17.7245345">
        <ele>55.4131</ele>
        <time>2014-06-17T12:06:21Z</time>
      </trkpt>
      <trkpt lat="59.9169925" lon="17.7244941">
        <ele>54.9324</ele>
        <time>2014-06-17T12:06:22Z</time>
      </trkpt>
      <trkpt lat="59.9169789" lon="17.7244646">
        <ele>55.4131</ele>
        <time>2014-06-17T12:06:23Z</time>
      </trkpt>
      <trkpt lat="59.9169687" lon="17.7244289">
        <ele>54.9324</ele>
        <time>2014-06-17T12:06:24Z</time>
      </trkpt>
      <trkpt lat="59.9169602" lon="17.7243875">
        <ele>54.9324</ele>
        <time>2014-06-17T12:06:25Z</time>
      </trkpt>
      <trkpt lat="59.9169474" lon="17.7243508">
        <ele>54.9324</ele>
        <time>2014-06-17T12:06:26Z</time>
      </trkpt>
      <trkpt lat="59.9169287" lon="17.724318">
        <ele>54.9324</ele>
        <time>2014-06-17T12:06:27Z</time>
      </trkpt>
      <trkpt lat="59.916909" lon="17.724284">
        <ele>54.9324</ele>
        <time>2014-06-17T12:06:28Z</time>
      </trkpt>
      <trkpt lat="59.9168915" lon="17.7242528">
        <ele>54.9324</ele>
        <time>2014-06-17T12:06:29Z</time>
      </trkpt>
      <trkpt lat="59.9168742" lon="17.7242217">
        <ele>55.4131</ele>
        <time>2014-06-17T12:06:30Z</time>
      </trkpt>
      <trkpt lat="59.9168542" lon="17.7241904">
        <ele>55.4131</ele>
        <time>2014-06-17T12:06:31Z</time>
      </trkpt>
      <trkpt lat="59.9168322" lon="17.7241565">
        <ele>55.8938</ele>
        <time>2014-06-17T12:06:32Z</time>
      </trkpt>
      <trkpt lat="59.9168135" lon="17.7241196">
        <ele>55.8938</ele>
        <time>2014-06-17T12:06:33Z</time>
      </trkpt>
      <trkpt lat="59.9167951" lon="17.7240842">
        <ele>55.8938</ele>
        <time>2014-06-17T12:06:34Z</time>
      </trkpt>
      <trkpt lat="59.9167795" lon="17.7240475">
        <ele>55.8938</ele>
        <time>2014-06-17T12:06:35Z</time>
      </trkpt>
      <trkpt lat="59.9167712" lon="17.7240207">
        <ele>54.9324</ele>
        <time>2014-06-17T12:06:36Z</time>
      </trkpt>
      <trkpt lat="59.9167613" lon="17.7239989">
        <ele>54.4518</ele>
        <time>2014-06-17T12:06:37Z</time>
      </trkpt>
      <trkpt lat="59.916749" lon="17.723973">
        <ele>54.4518</ele>
        <time>2014-06-17T12:06:38Z</time>
      </trkpt>
      <trkpt lat="59.9167367" lon="17.7239409">
        <ele>54.4518</ele>
        <time>2014-06-17T12:06:39Z</time>
      </trkpt>
      <trkpt lat="59.9167234" lon="17.7239161">
        <ele>54.4518</ele>
        <time>2014-06-17T12:06:40Z</time>
      </trkpt>
      <trkpt lat="59.9167079" lon="17.7238882">
        <ele>55.4131</ele>
        <time>2014-06-17T12:06:41Z</time>
      </trkpt>
      <trkpt lat="59.9166936" lon="17.7238556">
        <ele>55.4131</ele>
        <time>2014-06-17T12:06:42Z</time>
      </trkpt>
      <trkpt lat="59.9166781" lon="17.7238166">
        <ele>56.3745</ele>
        <time>2014-06-17T12:06:43Z</time>
      </trkpt>
      <trkpt lat="59.9166603" lon="17.7237781">
        <ele>56.8551</ele>
        <time>2014-06-17T12:06:44Z</time>
      </trkpt>
      <trkpt lat="59.9166517" lon="17.7237426">
        <ele>57.3358</ele>
        <time>2014-06-17T12:06:45Z</time>
      </trkpt>
      <trkpt lat="59.9166351" lon="17.7237116">
        <ele>58.2971</ele>
        <time>2014-06-17T12:06:46Z</time>
      </trkpt>
      <trkpt lat="59.9166231" lon="17.723683">
        <ele>58.7777</ele>
        <time>2014-06-17T12:06:47Z</time>
      </trkpt>
      <trkpt lat="59.9166092" lon="17.7236503">
        <ele>59.2584</ele>
        <time>2014-06-17T12:06:48Z</time>
      </trkpt>
      <trkpt lat="59.9165967" lon="17.7236239">
        <ele>59.2584</ele>
        <time>2014-06-17T12:06:49Z</time>
      </trkpt>
      <trkpt lat="59.9165871" lon="17.7235913">
        <ele>58.7777</ele>
        <time>2014-06-17T12:06:50Z</time>
      </trkpt>
      <trkpt lat="59.9165743" lon="17.7235536">
        <ele>59.2584</ele>
        <time>2014-06-17T12:06:51Z</time>
      </trkpt>
      <trkpt lat="59.916564" lon="17.723525">
        <ele>59.2584</ele>
        <time>2014-06-17T12:06:52Z</time>
      </trkpt>
      <trkpt lat="59.9165538" lon="17.7234878">
        <ele>59.2584</ele>
        <time>2014-06-17T12:06:53Z</time>
      </trkpt>
      <trkpt lat="59.9165407" lon="17.7234536">
        <ele>59.7391</ele>
        <time>2014-06-17T12:06:54Z</time>
      </trkpt>
      <trkpt lat="59.9165288" lon="17.7234109">
        <ele>60.2197</ele>
        <time>2014-06-17T12:06:55Z</time>
      </trkpt>
      <trkpt lat="59.9165158" lon="17.7233749">
        <ele>60.2197</ele>
        <time>2014-06-17T12:06:56Z</time>
      </trkpt>
      <trkpt lat="59.9165018" lon="17.7233357">
        <ele>59.7391</ele>
        <time>2014-06-17T12:06:57Z</time>
      </trkpt>
      <trkpt lat="59.9164847" lon="17.7233006">
        <ele>59.7391</ele>
        <time>2014-06-17T12:06:58Z</time>
      </trkpt>
      <trkpt lat="59.9164694" lon="17.7232627">
        <ele>59.7391</ele>
        <time>2014-06-17T12:06:59Z</time>
      </trkpt>
      <trkpt lat="59.9164528" lon="17.7232209">
        <ele>59.2584</ele>
        <time>2014-06-17T12:07:00Z</time>
      </trkpt>
      <trkpt lat="59.9164357" lon="17.7231763">
        <ele>59.7391</ele>
        <time>2014-06-17T12:07:01Z</time>
      </trkpt>
      <trkpt lat="59.916423" lon="17.7231371">
        <ele>59.2584</ele>
        <time>2014-06-17T12:07:02Z</time>
      </trkpt>
      <trkpt lat="59.9164118" lon="17.7231052">
        <ele>58.7777</ele>
        <time>2014-06-17T12:07:03Z</time>
      </trkpt>
      <trkpt lat="59.9164022" lon="17.7230723">
        <ele>58.2971</ele>
        <time>2014-06-17T12:07:04Z</time>
      </trkpt>
      <trkpt lat="59.9163888" lon="17.7230282">
        <ele>58.7777</ele>
        <time>2014-06-17T12:07:05Z</time>
      </trkpt>
      <trkpt lat="59.9163763" lon="17.7229899">
        <ele>58.7777</ele>
        <time>2014-06-17T12:07:06Z</time>
      </trkpt>
      <trkpt lat="59.9163637" lon="17.7229451">
        <ele>58.7777</ele>
        <time>2014-06-17T12:07:07Z</time>
      </trkpt>
      <trkpt lat="59.9163553" lon="17.7229112">
        <ele>59.2584</ele>
        <time>2014-06-17T12:07:08Z</time>
      </trkpt>
      <trkpt lat="59.9163447" lon="17.7228693">
        <ele>59.2584</ele>
        <time>2014-06-17T12:07:09Z</time>
      </trkpt>
      <trkpt lat="59.916335" lon="17.7228313">
        <ele>58.7777</ele>
        <time>2014-06-17T12:07:10Z</time>
      </trkpt>
      <trkpt lat="59.9163238" lon="17.7227908">
        <ele>58.7777</ele>
        <time>2014-06-17T12:07:11Z</time>
      </trkpt>
      <trkpt lat="59.9163138" lon="17.7227472">
        <ele>58.2971</ele>
        <time>2014-06-17T12:07:12Z</time>
      </trkpt>
      <trkpt lat="59.9163023" lon="17.7226888">
        <ele>58.2971</ele>
        <time>2014-06-17T12:07:13Z</time>
      </trkpt>
      <trkpt lat="59.9162914" lon="17.7226479">
        <ele>57.8165</ele>
        <time>2014-06-17T12:07:14Z</time>
      </trkpt>
      <trkpt lat="59.9162823" lon="17.7226039">
        <ele>57.3358</ele>
        <time>2014-06-17T12:07:15Z</time>
      </trkpt>
      <trkpt lat="59.9162702" lon="17.7225614">
        <ele>57.3358</ele>
        <time>2014-06-17T12:07:16Z</time>
      </trkpt>
      <trkpt lat="59.9162583" lon="17.7225255">
        <ele>57.3358</ele>
        <time>2014-06-17T12:07:17Z</time>
      </trkpt>
      <trkpt lat="59.9162508" lon="17.7224836">
        <ele>56.3745</ele>
        <time>2014-06-17T12:07:18Z</time>
      </trkpt>
      <trkpt lat="59.9162387" lon="17.7224458">
        <ele>56.3745</ele>
        <time>2014-06-17T12:07:19Z</time>
      </trkpt>
      <trkpt lat="59.9162246" lon="17.7224097">
        <ele>55.8938</ele>
        <time>2014-06-17T12:07:20Z</time>
      </trkpt>
      <trkpt lat="59.9162113" lon="17.7223683">
        <ele>55.8938</ele>
        <time>2014-06-17T12:07:21Z</time>
      </trkpt>
      <trkpt lat="59.9161994" lon="17.722332">
        <ele>55.4131</ele>
        <time>2014-06-17T12:07:22Z</time>
      </trkpt>
      <trkpt lat="59.9161844" lon="17.7222978">
        <ele>55.4131</ele>
        <time>2014-06-17T12:07:23Z</time>
      </trkpt>
      <trkpt lat="59.9161704" lon="17.72226">
        <ele>54.9324</ele>
        <time>2014-06-17T12:07:24Z</time>
      </trkpt>
      <trkpt lat="59.9161551" lon="17.7222248">
        <ele>54.4518</ele>
        <time>2014-06-17T12:07:25Z</time>
      </trkpt>
      <trkpt lat="59.916137" lon="17.7221932">
        <ele>53.9712</ele>
        <time>2014-06-17T12:07:26Z</time>
      </trkpt>
      <trkpt lat="59.9161181" lon="17.7221621">
        <ele>53.0098</ele>
        <time>2014-06-17T12:07:27Z</time>
      </trkpt>
      <trkpt lat="59.9161024" lon="17.7221248">
        <ele>53.0098</ele>
        <time>2014-06-17T12:07:28Z</time>
      </trkpt>
      <trkpt lat="59.9160895" lon="17.7220906">
        <ele>52.5292</ele>
        <time>2014-06-17T12:07:29Z</time>
      </trkpt>
      <trkpt lat="59.9160776" lon="17.722058">
        <ele>52.0486</ele>
        <time>2014-06-17T12:07:30Z</time>
      </trkpt>
      <trkpt lat="59.9160652" lon="17.7220212">
        <ele>51.5679</ele>
        <time>2014-06-17T12:07:31Z</time>
      </trkpt>
      <trkpt lat="59.9160498" lon="17.7219847">
        <ele>50.6066</ele>
        <time>2014-06-17T12:07:32Z</time>
      </trkpt>
      <trkpt lat="59.9160325" lon="17.7219517">
        <ele>50.6066</ele>
        <time>2014-06-17T12:07:33Z</time>
      </trkpt>
      <trkpt lat="59.9160153" lon="17.7219243">
        <ele>50.126</ele>
        <time>2014-06-17T12:07:34Z</time>
      </trkpt>
      <trkpt lat="59.9159978" lon="17.7218916">
        <ele>49.6453</ele>
        <time>2014-06-17T12:07:35Z</time>
      </trkpt>
      <trkpt lat="59.9159808" lon="17.7218592">
        <ele>49.1646</ele>
        <time>2014-06-17T12:07:36Z</time>
      </trkpt>
      <trkpt lat="59.9159641" lon="17.7218254">
        <ele>48.684</ele>
        <time>2014-06-17T12:07:37Z</time>
      </trkpt>
      <trkpt lat="59.9159471" lon="17.7217907">
        <ele>48.684</ele>
        <time>2014-06-17T12:07:38Z</time>
      </trkpt>
      <trkpt lat="59.9159342" lon="17.7217568">
        <ele>48.2034</ele>
        <time>2014-06-17T12:07:39Z</time>
      </trkpt>
      <trkpt lat="59.9159201" lon="17.7217233">
        <ele>48.2034</ele>
        <time>2014-06-17T12:07:40Z</time>
      </trkpt>
      <trkpt lat="59.9159039" lon="17.7216891">
        <ele>47.7225</ele>
        <time>2014-06-17T12:07:41Z</time>
      </trkpt>
      <trkpt lat="59.9158882" lon="17.7216527">
        <ele>47.2418</ele>
        <time>2014-06-17T12:07:42Z</time>
      </trkpt>
      <trkpt lat="59.915875" lon="17.7216185">
        <ele>46.7612</ele>
        <time>2014-06-17T12:07:43Z</time>
      </trkpt>
      <trkpt lat="59.915857" lon="17.7215807">
        <ele>46.2806</ele>
        <time>2014-06-17T12:07:44Z</time>
      </trkpt>
      <trkpt lat="59.9158403" lon="17.7215343">
        <ele>45.7999</ele>
        <time>2014-06-17T12:07:45Z</time>
      </trkpt>
      <trkpt lat="59.9158227" lon="17.7214834">
        <ele>45.7999</ele>
        <time>2014-06-17T12:07:46Z</time>
      </trkpt>
      <trkpt lat="59.9158053" lon="17.7214441">
        <ele>46.2806</ele>
        <time>2014-06-17T12:07:47Z</time>
      </trkpt>
      <trkpt lat="59.9157892" lon="17.721413">
        <ele>46.7612</ele>
        <time>2014-06-17T12:07:48Z</time>
      </trkpt>
      <trkpt lat="59.9157719" lon="17.7213922">
        <ele>46.2806</ele>
        <time>2014-06-17T12:07:49Z</time>
      </trkpt>
      <trkpt lat="59.9157518" lon="17.7213683">
        <ele>46.7612</ele>
        <time>2014-06-17T12:07:50Z</time>
      </trkpt>
      <trkpt lat="59.9157342" lon="17.7213395">
        <ele>46.7612</ele>
        <time>2014-06-17T12:07:51Z</time>
      </trkpt>
      <trkpt lat="59.9157145" lon="17.7213051">
        <ele>47.2418</ele>
        <time>2014-06-17T12:07:52Z</time>
      </trkpt>
      <trkpt lat="59.9156953" lon="17.7212716">
        <ele>47.7225</ele>
        <time>2014-06-17T12:07:53Z</time>
      </trkpt>
      <trkpt lat="59.9156752" lon="17.7212466">
        <ele>47.7225</ele>
        <time>2014-06-17T12:07:54Z</time>
      </trkpt>
      <trkpt lat="59.9156534" lon="17.7212303">
        <ele>47.7225</ele>
        <time>2014-06-17T12:07:55Z</time>
      </trkpt>
      <trkpt lat="59.9156335" lon="17.7212101">
        <ele>47.7225</ele>
        <time>2014-06-17T12:07:56Z</time>
      </trkpt>
      <trkpt lat="59.9156156" lon="17.7211813">
        <ele>47.7225</ele>
        <time>2014-06-17T12:07:57Z</time>
      </trkpt>
      <trkpt lat="59.9155942" lon="17.7211505">
        <ele>47.7225</ele>
        <time>2014-06-17T12:07:58Z</time>
      </trkpt>
      <trkpt lat="59.9155744" lon="17.7211223">
        <ele>47.7225</ele>
        <time>2014-06-17T12:07:59Z</time>
      </trkpt>
      <trkpt lat="59.9155565" lon="17.721097">
        <ele>47.7225</ele>
        <time>2014-06-17T12:08:00Z</time>
      </trkpt>
      <trkpt lat="59.9155362" lon="17.7210737">
        <ele>48.2034</ele>
        <time>2014-06-17T12:08:01Z</time>
      </trkpt>
      <trkpt lat="59.9155147" lon="17.7210568">
        <ele>48.684</ele>
        <time>2014-06-17T12:08:02Z</time>
      </trkpt>
      <trkpt lat="59.9154918" lon="17.7210355">
        <ele>49.1646</ele>
        <time>2014-06-17T12:08:03Z</time>
      </trkpt>
      <trkpt lat="59.9154706" lon="17.721022">
        <ele>49.6453</ele>
        <time>2014-06-17T12:08:04Z</time>
      </trkpt>
      <trkpt lat="59.9154475" lon="17.7209984">
        <ele>50.6066</ele>
        <time>2014-06-17T12:08:05Z</time>
      </trkpt>
      <trkpt lat="59.9154258" lon="17.7209769">
        <ele>51.5679</ele>
        <time>2014-06-17T12:08:06Z</time>
      </trkpt>
      <trkpt lat="59.9154053" lon="17.7209561">
        <ele>51.5679</ele>
        <time>2014-06-17T12:08:07Z</time>
      </trkpt>
      <trkpt lat="59.9153856" lon="17.7209406">
        <ele>52.0486</ele>
        <time>2014-06-17T12:08:08Z</time>
      </trkpt>
      <trkpt lat="59.9153688" lon="17.720923">
        <ele>52.0486</ele>
        <time>2014-06-17T12:08:09Z</time>
      </trkpt>
      <trkpt lat="59.9153499" lon="17.7209023">
        <ele>52.0486</ele>
        <time>2014-06-17T12:08:10Z</time>
      </trkpt>
      <trkpt lat="59.9153303" lon="17.7208763">
        <ele>52.0486</ele>
        <time>2014-06-17T12:08:11Z</time>
      </trkpt>
      <trkpt lat="59.9153134" lon="17.7208546">
        <ele>52.0486</ele>
        <time>2014-06-17T12:08:12Z</time>
      </trkpt>
      <trkpt lat="59.9152919" lon="17.7208334">
        <ele>52.5292</ele>
        <time>2014-06-17T12:08:13Z</time>
      </trkpt>
      <trkpt lat="59.9152664" lon="17.7208099">
        <ele>53.0098</ele>
        <time>2014-06-17T12:08:14Z</time>
      </trkpt>
      <trkpt lat="59.9152375" lon="17.7207794">
        <ele>53.4905</ele>
        <time>2014-06-17T12:08:15Z</time>
      </trkpt>
      <trkpt lat="59.9152074" lon="17.7207686">
        <ele>53.9712</ele>
        <time>2014-06-17T12:08:16Z</time>
      </trkpt>
      <trkpt lat="59.9151752" lon="17.7207522">
        <ele>54.4518</ele>
        <time>2014-06-17T12:08:17Z</time>
      </trkpt>
      <trkpt lat="59.9151447" lon="17.7207358">
        <ele>54.9324</ele>
        <time>2014-06-17T12:08:18Z</time>
      </trkpt>
      <trkpt lat="59.9151176" lon="17.7207122">
        <ele>55.4131</ele>
        <time>2014-06-17T12:08:19Z</time>
      </trkpt>
      <trkpt lat="59.9150925" lon="17.7206897">
        <ele>55.8938</ele>
        <time>2014-06-17T12:08:20Z</time>
      </trkpt>
      <trkpt lat="59.9150684" lon="17.7206754">
        <ele>56.3745</ele>
        <time>2014-06-17T12:08:21Z</time>
      </trkpt>
      <trkpt lat="59.915045" lon="17.7206603">
        <ele>56.8551</ele>
        <time>2014-06-17T12:08:22Z</time>
      </trkpt>
      <trkpt lat="59.9150193" lon="17.7206463">
        <ele>56.8551</ele>
        <time>2014-06-17T12:08:23Z</time>
      </trkpt>
      <trkpt lat="59.9149934" lon="17.7206314">
        <ele>56.8551</ele>
        <time>2014-06-17T12:08:24Z</time>
      </trkpt>
      <trkpt lat="59.9149691" lon="17.7206082">
        <ele>57.3358</ele>
        <time>2014-06-17T12:08:25Z</time>
      </trkpt>
      <trkpt lat="59.9149457" lon="17.7205947">
        <ele>57.3358</ele>
        <time>2014-06-17T12:08:26Z</time>
      </trkpt>
      <trkpt lat="59.9149218" lon="17.7205884">
        <ele>57.8165</ele>
        <time>2014-06-17T12:08:27Z</time>
      </trkpt>
      <trkpt lat="59.9148971" lon="17.7205823">
        <ele>57.8165</ele>
        <time>2014-06-17T12:08:28Z</time>
      </trkpt>
      <trkpt lat="59.9148733" lon="17.7205771">
        <ele>57.8165</ele>
        <time>2014-06-17T12:08:29Z</time>
      </trkpt>
      <trkpt lat="59.9148541" lon="17.720576">
        <ele>57.3358</ele>
        <time>2014-06-17T12:08:30Z</time>
      </trkpt>
      <trkpt lat="59.9148363" lon="17.7205688">
        <ele>56.8551</ele>
        <time>2014-06-17T12:08:31Z</time>
      </trkpt>
      <trkpt lat="59.9148166" lon="17.7205547">
        <ele>56.3745</ele>
        <time>2014-06-17T12:08:32Z</time>
      </trkpt>
      <trkpt lat="59.914795" lon="17.7205401">
        <ele>56.8551</ele>
        <time>2014-06-17T12:08:33Z</time>
      </trkpt>
      <trkpt lat="59.9147736" lon="17.7205276">
        <ele>57.3358</ele>
        <time>2014-06-17T12:08:34Z</time>
      </trkpt>
      <trkpt lat="59.9147505" lon="17.7205121">
        <ele>57.8165</ele>
        <time>2014-06-17T12:08:35Z</time>
      </trkpt>
      <trkpt lat="59.9147293" lon="17.7204966">
        <ele>57.3358</ele>
        <time>2014-06-17T12:08:36Z</time>
      </trkpt>
      <trkpt lat="59.914706" lon="17.7204916">
        <ele>56.8551</ele>
        <time>2014-06-17T12:08:37Z</time>
      </trkpt>
      <trkpt lat="59.9146824" lon="17.7204893">
        <ele>56.3745</ele>
        <time>2014-06-17T12:08:38Z</time>
      </trkpt>
      <trkpt lat="59.9146599" lon="17.720477">
        <ele>55.8938</ele>
        <time>2014-06-17T12:08:39Z</time>
      </trkpt>
      <trkpt lat="59.9146333" lon="17.7204758">
        <ele>55.4131</ele>
        <time>2014-06-17T12:08:40Z</time>
      </trkpt>
      <trkpt lat="59.9146116" lon="17.7204766">
        <ele>53.9712</ele>
        <time>2014-06-17T12:08:41Z</time>
      </trkpt>
      <trkpt lat="59.9145897" lon="17.7204708">
        <ele>53.4905</ele>
        <time>2014-06-17T12:08:42Z</time>
      </trkpt>
      <trkpt lat="59.9145687" lon="17.7204708">
        <ele>53.9712</ele>
        <time>2014-06-17T12:08:43Z</time>
      </trkpt>
      <trkpt lat="59.9145505" lon="17.7204774">
        <ele>52.5292</ele>
        <time>2014-06-17T12:08:44Z</time>
      </trkpt>
      <trkpt lat="59.9145309" lon="17.7204816">
        <ele>52.0486</ele>
        <time>2014-06-17T12:08:45Z</time>
      </trkpt>
      <trkpt lat="59.9145101" lon="17.72048">
        <ele>51.5679</ele>
        <time>2014-06-17T12:08:46Z</time>
      </trkpt>
      <trkpt lat="59.91449" lon="17.7204697">
        <ele>51.5679</ele>
        <time>2014-06-17T12:08:47Z</time>
      </trkpt>
      <trkpt lat="59.91447" lon="17.7204556">
        <ele>50.6066</ele>
        <time>2014-06-17T12:08:48Z</time>
      </trkpt>
      <trkpt lat="59.914447" lon="17.7204388">
        <ele>49.6453</ele>
        <time>2014-06-17T12:08:49Z</time>
      </trkpt>
      <trkpt lat="59.9144246" lon="17.7204143">
        <ele>48.684</ele>
        <time>2014-06-17T12:08:50Z</time>
      </trkpt>
      <trkpt lat="59.9143981" lon="17.7203982">
        <ele>49.1646</ele>
        <time>2014-06-17T12:08:51Z</time>
      </trkpt>
      <trkpt lat="59.914375" lon="17.7203903">
        <ele>49.1646</ele>
        <time>2014-06-17T12:08:52Z</time>
      </trkpt>
      <trkpt lat="59.9143548" lon="17.7203799">
        <ele>49.1646</ele>
        <time>2014-06-17T12:08:53Z</time>
      </trkpt>
      <trkpt lat="59.9143351" lon="17.7203641">
        <ele>49.1646</ele>
        <time>2014-06-17T12:08:54Z</time>
      </trkpt>
      <trkpt lat="59.9143133" lon="17.7203438">
        <ele>49.6453</ele>
        <time>2014-06-17T12:08:55Z</time>
      </trkpt>
      <trkpt lat="59.9142883" lon="17.7203287">
        <ele>49.6453</ele>
        <time>2014-06-17T12:08:56Z</time>
      </trkpt>
      <trkpt lat="59.9142646" lon="17.7203141">
        <ele>49.6453</ele>
        <time>2014-06-17T12:08:57Z</time>
      </trkpt>
      <trkpt lat="59.9142428" lon="17.7202966">
        <ele>49.1646</ele>
        <time>2014-06-17T12:08:58Z</time>
      </trkpt>
      <trkpt lat="59.9142219" lon="17.7202781">
        <ele>49.6453</ele>
        <time>2014-06-17T12:08:59Z</time>
      </trkpt>
      <trkpt lat="59.9141997" lon="17.7202569">
        <ele>49.6453</ele>
        <time>2014-06-17T12:09:00Z</time>
      </trkpt>
      <trkpt lat="59.9141791" lon="17.7202376">
        <ele>50.126</ele>
        <time>2014-06-17T12:09:01Z</time>
      </trkpt>
      <trkpt lat="59.9141572" lon="17.7202152">
        <ele>50.126</ele>
        <time>2014-06-17T12:09:02Z</time>
      </trkpt>
      <trkpt lat="59.914135" lon="17.7201916">
        <ele>50.126</ele>
        <time>2014-06-17T12:09:03Z</time>
      </trkpt>
      <trkpt lat="59.9141152" lon="17.7201717">
        <ele>50.6066</ele>
        <time>2014-06-17T12:09:04Z</time>
      </trkpt>
      <trkpt lat="59.9140931" lon="17.7201523">
        <ele>50.6066</ele>
        <time>2014-06-17T12:09:05Z</time>
      </trkpt>
      <trkpt lat="59.9140729" lon="17.7201321">
        <ele>50.6066</ele>
        <time>2014-06-17T12:09:06Z</time>
      </trkpt>
      <trkpt lat="59.9140565" lon="17.72011">
        <ele>50.6066</ele>
        <time>2014-06-17T12:09:07Z</time>
      </trkpt>
      <trkpt lat="59.9140366" lon="17.7200879">
        <ele>50.6066</ele>
        <time>2014-06-17T12:09:08Z</time>
      </trkpt>
      <trkpt lat="59.9140109" lon="17.7200667">
        <ele>51.0872</ele>
        <time>2014-06-17T12:09:09Z</time>
      </trkpt>
      <trkpt lat="59.913988" lon="17.7200517">
        <ele>51.0872</ele>
        <time>2014-06-17T12:09:10Z</time>
      </trkpt>
      <trkpt lat="59.9139637" lon="17.7200389">
        <ele>51.0872</ele>
        <time>2014-06-17T12:09:11Z</time>
      </trkpt>
      <trkpt lat="59.9139424" lon="17.7200195">
        <ele>50.6066</ele>
        <time>2014-06-17T12:09:12Z</time>
      </trkpt>
      <trkpt lat="59.9139201" lon="17.7199982">
        <ele>51.0872</ele>
        <time>2014-06-17T12:09:13Z</time>
      </trkpt>
      <trkpt lat="59.9138956" lon="17.7199788">
        <ele>51.0872</ele>
        <time>2014-06-17T12:09:14Z</time>
      </trkpt>
      <trkpt lat="59.9138694" lon="17.719961">
        <ele>51.0872</ele>
        <time>2014-06-17T12:09:15Z</time>
      </trkpt>
      <trkpt lat="59.9138414" lon="17.7199466">
        <ele>51.0872</ele>
        <time>2014-06-17T12:09:16Z</time>
      </trkpt>
      <trkpt lat="59.9138139" lon="17.7199267">
        <ele>50.6066</ele>
        <time>2014-06-17T12:09:17Z</time>
      </trkpt>
      <trkpt lat="59.9137906" lon="17.7199173">
        <ele>50.6066</ele>
        <time>2014-06-17T12:09:18Z</time>
      </trkpt>
      <trkpt lat="59.913764" lon="17.7199098">
        <ele>50.126</ele>
        <time>2014-06-17T12:09:19Z</time>
      </trkpt>
      <trkpt lat="59.9137396" lon="17.7198883">
        <ele>50.6066</ele>
        <time>2014-06-17T12:09:20Z</time>
      </trkpt>
      <trkpt lat="59.913717" lon="17.71987">
        <ele>50.126</ele>
        <time>2014-06-17T12:09:21Z</time>
      </trkpt>
      <trkpt lat="59.9136917" lon="17.7198563">
        <ele>50.6066</ele>
        <time>2014-06-17T12:09:22Z</time>
      </trkpt>
      <trkpt lat="59.9136653" lon="17.7198363">
        <ele>50.126</ele>
        <time>2014-06-17T12:09:23Z</time>
      </trkpt>
      <trkpt lat="59.9136402" lon="17.7198192">
        <ele>49.6453</ele>
        <time>2014-06-17T12:09:24Z</time>
      </trkpt>
      <trkpt lat="59.9136187" lon="17.7198036">
        <ele>49.1646</ele>
        <time>2014-06-17T12:09:25Z</time>
      </trkpt>
      <trkpt lat="59.9135984" lon="17.7197835">
        <ele>49.6453</ele>
        <time>2014-06-17T12:09:26Z</time>
      </trkpt>
      <trkpt lat="59.9135792" lon="17.7197673">
        <ele>49.6453</ele>
        <time>2014-06-17T12:09:27Z</time>
      </trkpt>
      <trkpt lat="59.913557" lon="17.7197681">
        <ele>49.6453</ele>
        <time>2014-06-17T12:09:28Z</time>
      </trkpt>
      <trkpt lat="59.913535" lon="17.7197698">
        <ele>49.1646</ele>
        <time>2014-06-17T12:09:29Z</time>
      </trkpt>
      <trkpt lat="59.9135124" lon="17.7197547">
        <ele>49.6453</ele>
        <time>2014-06-17T12:09:30Z</time>
      </trkpt>
      <trkpt lat="59.9134887" lon="17.7197362">
        <ele>49.6453</ele>
        <time>2014-06-17T12:09:31Z</time>
      </trkpt>
      <trkpt lat="59.9134623" lon="17.7197103">
        <ele>50.126</ele>
        <time>2014-06-17T12:09:32Z</time>
      </trkpt>
      <trkpt lat="59.9134399" lon="17.7196865">
        <ele>50.126</ele>
        <time>2014-06-17T12:09:33Z</time>
      </trkpt>
      <trkpt lat="59.9134208" lon="17.7196684">
        <ele>50.126</ele>
        <time>2014-06-17T12:09:34Z</time>
      </trkpt>
      <trkpt lat="59.9133959" lon="17.7196425">
        <ele>50.6066</ele>
        <time>2014-06-17T12:09:35Z</time>
      </trkpt>
      <trkpt lat="59.9133709" lon="17.7196188">
        <ele>51.0872</ele>
        <time>2014-06-17T12:09:36Z</time>
      </trkpt>
      <trkpt lat="59.9133465" lon="17.7196013">
        <ele>51.5679</ele>
        <time>2014-06-17T12:09:37Z</time>
      </trkpt>
      <trkpt lat="59.9133206" lon="17.7195839">
        <ele>52.0486</ele>
        <time>2014-06-17T12:09:38Z</time>
      </trkpt>
      <trkpt lat="59.9132949" lon="17.7195594">
        <ele>52.5292</ele>
        <time>2014-06-17T12:09:39Z</time>
      </trkpt>
      <trkpt lat="59.91327" lon="17.7195363">
        <ele>53.0098</ele>
        <time>2014-06-17T12:09:40Z</time>
      </trkpt>
      <trkpt lat="59.913244" lon="17.719526">
        <ele>53.4905</ele>
        <time>2014-06-17T12:09:41Z</time>
      </trkpt>
      <trkpt lat="59.9132213" lon="17.7195104">
        <ele>53.0098</ele>
        <time>2014-06-17T12:09:42Z</time>
      </trkpt>
      <trkpt lat="59.9132001" lon="17.7194798">
        <ele>53.0098</ele>
        <time>2014-06-17T12:09:43Z</time>
      </trkpt>
      <trkpt lat="59.9131533" lon="17.7194389">
        <ele>53.0098</ele>
        <time>2014-06-17T12:09:45Z</time>
      </trkpt>
      <trkpt lat="59.9131307" lon="17.7194191">
        <ele>53.0098</ele>
        <time>2014-06-17T12:09:46Z</time>
      </trkpt>
      <trkpt lat="59.9131119" lon="17.7193945">
        <ele>53.0098</ele>
        <time>2014-06-17T12:09:47Z</time>
      </trkpt>
      <trkpt lat="59.913093" lon="17.7193653">
        <ele>53.0098</ele>
        <time>2014-06-17T12:09:48Z</time>
      </trkpt>
      <trkpt lat="59.9130733" lon="17.7193404">
        <ele>52.0486</ele>
        <time>2014-06-17T12:09:49Z</time>
      </trkpt>
      <trkpt lat="59.9130602" lon="17.7193111">
        <ele>51.5679</ele>
        <time>2014-06-17T12:09:50Z</time>
      </trkpt>
      <trkpt lat="59.913045" lon="17.7192828">
        <ele>51.0872</ele>
        <time>2014-06-17T12:09:51Z</time>
      </trkpt>
      <trkpt lat="59.9130265" lon="17.7192556">
        <ele>51.0872</ele>
        <time>2014-06-17T12:09:52Z</time>
      </trkpt>
      <trkpt lat="59.9130058" lon="17.7192254">
        <ele>51.0872</ele>
        <time>2014-06-17T12:09:53Z</time>
      </trkpt>
      <trkpt lat="59.912988" lon="17.7192011">
        <ele>51.0872</ele>
        <time>2014-06-17T12:09:54Z</time>
      </trkpt>
      <trkpt lat="59.9129681" lon="17.7191846">
        <ele>51.0872</ele>
        <time>2014-06-17T12:09:55Z</time>
      </trkpt>
      <trkpt lat="59.9129442" lon="17.7191587">
        <ele>51.0872</ele>
        <time>2014-06-17T12:09:56Z</time>
      </trkpt>
      <trkpt lat="59.9129202" lon="17.7191275">
        <ele>51.0872</ele>
        <time>2014-06-17T12:09:57Z</time>
      </trkpt>
      <trkpt lat="59.9129003" lon="17.7191027">
        <ele>50.6066</ele>
        <time>2014-06-17T12:09:58Z</time>
      </trkpt>
      <trkpt lat="59.9128759" lon="17.7190804">
        <ele>50.6066</ele>
        <time>2014-06-17T12:09:59Z</time>
      </trkpt>
      <trkpt lat="59.9128503" lon="17.7190478">
        <ele>51.0872</ele>
        <time>2014-06-17T12:10:00Z</time>
      </trkpt>
      <trkpt lat="59.9128281" lon="17.7190184">
        <ele>51.5679</ele>
        <time>2014-06-17T12:10:01Z</time>
      </trkpt>
      <trkpt lat="59.912808" lon="17.7190013">
        <ele>51.0872</ele>
        <time>2014-06-17T12:10:02Z</time>
      </trkpt>
      <trkpt lat="59.9127882" lon="17.7189795">
        <ele>50.6066</ele>
        <time>2014-06-17T12:10:03Z</time>
      </trkpt>
      <trkpt lat="59.9127674" lon="17.7189577">
        <ele>51.0872</ele>
        <time>2014-06-17T12:10:04Z</time>
      </trkpt>
      <trkpt lat="59.9127461" lon="17.718939">
        <ele>51.0872</ele>
        <time>2014-06-17T12:10:05Z</time>
      </trkpt>
      <trkpt lat="59.9127276" lon="17.7189142">
        <ele>51.0872</ele>
        <time>2014-06-17T12:10:06Z</time>
      </trkpt>
      <trkpt lat="59.9127089" lon="17.7188902">
        <ele>51.5679</ele>
        <time>2014-06-17T12:10:07Z</time>
      </trkpt>
      <trkpt lat="59.9126856" lon="17.7188618">
        <ele>51.5679</ele>
        <time>2014-06-17T12:10:08Z</time>
      </trkpt>
      <trkpt lat="59.9126611" lon="17.7188288">
        <ele>51.5679</ele>
        <time>2014-06-17T12:10:09Z</time>
      </trkpt>
      <trkpt lat="59.9126412" lon="17.7188074">
        <ele>51.0872</ele>
        <time>2014-06-17T12:10:10Z</time>
      </trkpt>
      <trkpt lat="59.9126242" lon="17.718787">
        <ele>51.0872</ele>
        <time>2014-06-17T12:10:11Z</time>
      </trkpt>
      <trkpt lat="59.9126081" lon="17.7187644">
        <ele>51.5679</ele>
        <time>2014-06-17T12:10:12Z</time>
      </trkpt>
      <trkpt lat="59.9125889" lon="17.7187317">
        <ele>52.0486</ele>
        <time>2014-06-17T12:10:13Z</time>
      </trkpt>
      <trkpt lat="59.9125645" lon="17.7186987">
        <ele>52.5292</ele>
        <time>2014-06-17T12:10:14Z</time>
      </trkpt>
      <trkpt lat="59.9125384" lon="17.7186702">
        <ele>52.5292</ele>
        <time>2014-06-17T12:10:15Z</time>
      </trkpt>
      <trkpt lat="59.9125162" lon="17.7186318">
        <ele>52.5292</ele>
        <time>2014-06-17T12:10:16Z</time>
      </trkpt>
      <trkpt lat="59.9124982" lon="17.7185957">
        <ele>52.0486</ele>
        <time>2014-06-17T12:10:17Z</time>
      </trkpt>
      <trkpt lat="59.912476" lon="17.7185627">
        <ele>52.0486</ele>
        <time>2014-06-17T12:10:18Z</time>
      </trkpt>
      <trkpt lat="59.9124514" lon="17.7185333">
        <ele>52.0486</ele>
        <time>2014-06-17T12:10:19Z</time>
      </trkpt>
      <trkpt lat="59.9124335" lon="17.718511">
        <ele>51.5679</ele>
        <time>2014-06-17T12:10:20Z</time>
      </trkpt>
      <trkpt lat="59.9124158" lon="17.7184866">
        <ele>51.5679</ele>
        <time>2014-06-17T12:10:21Z</time>
      </trkpt>
      <trkpt lat="59.9123937" lon="17.7184579">
        <ele>51.5679</ele>
        <time>2014-06-17T12:10:22Z</time>
      </trkpt>
      <trkpt lat="59.9123709" lon="17.7184296">
        <ele>51.0872</ele>
        <time>2014-06-17T12:10:23Z</time>
      </trkpt>
      <trkpt lat="59.9123515" lon="17.7184008">
        <ele>51.0872</ele>
        <time>2014-06-17T12:10:24Z</time>
      </trkpt>
      <trkpt lat="59.9123324" lon="17.7183763">
        <ele>50.6066</ele>
        <time>2014-06-17T12:10:25Z</time>
      </trkpt>
      <trkpt lat="59.9123133" lon="17.71835">
        <ele>50.126</ele>
        <time>2014-06-17T12:10:26Z</time>
      </trkpt>
      <trkpt lat="59.9122936" lon="17.7183205">
        <ele>50.126</ele>
        <time>2014-06-17T12:10:27Z</time>
      </trkpt>
      <trkpt lat="59.9122743" lon="17.7182952">
        <ele>49.6453</ele>
        <time>2014-06-17T12:10:28Z</time>
      </trkpt>
      <trkpt lat="59.9122533" lon="17.7182712">
        <ele>49.6453</ele>
        <time>2014-06-17T12:10:29Z</time>
      </trkpt>
      <trkpt lat="59.9122312" lon="17.7182486">
        <ele>49.6453</ele>
        <time>2014-06-17T12:10:30Z</time>
      </trkpt>
      <trkpt lat="59.9122095" lon="17.7182188">
        <ele>48.684</ele>
        <time>2014-06-17T12:10:31Z</time>
      </trkpt>
      <trkpt lat="59.9121885" lon="17.7181879">
        <ele>48.684</ele>
        <time>2014-06-17T12:10:32Z</time>
      </trkpt>
      <trkpt lat="59.9121692" lon="17.7181671">
        <ele>48.2034</ele>
        <time>2014-06-17T12:10:33Z</time>
      </trkpt>
      <trkpt lat="59.9121525" lon="17.7181485">
        <ele>48.2034</ele>
        <time>2014-06-17T12:10:34Z</time>
      </trkpt>
      <trkpt lat="59.9121361" lon="17.7181237">
        <ele>47.7225</ele>
        <time>2014-06-17T12:10:35Z</time>
      </trkpt>
      <trkpt lat="59.9121164" lon="17.7181019">
        <ele>47.7225</ele>
        <time>2014-06-17T12:10:36Z</time>
      </trkpt>
      <trkpt lat="59.912097" lon="17.7180805">
        <ele>47.7225</ele>
        <time>2014-06-17T12:10:37Z</time>
      </trkpt>
      <trkpt lat="59.9120815" lon="17.7180564">
        <ele>47.2418</ele>
        <time>2014-06-17T12:10:38Z</time>
      </trkpt>
      <trkpt lat="59.9120639" lon="17.7180292">
        <ele>47.2418</ele>
        <time>2014-06-17T12:10:39Z</time>
      </trkpt>
      <trkpt lat="59.9120416" lon="17.7180048">
        <ele>47.2418</ele>
        <time>2014-06-17T12:10:40Z</time>
      </trkpt>
      <trkpt lat="59.9120216" lon="17.7179802">
        <ele>46.7612</ele>
        <time>2014-06-17T12:10:41Z</time>
      </trkpt>
      <trkpt lat="59.9120015" lon="17.7179501">
        <ele>46.7612</ele>
        <time>2014-06-17T12:10:42Z</time>
      </trkpt>
      <trkpt lat="59.9119801" lon="17.717915">
        <ele>46.2806</ele>
        <time>2014-06-17T12:10:43Z</time>
      </trkpt>
      <trkpt lat="59.9119626" lon="17.717893">
        <ele>45.7999</ele>
        <time>2014-06-17T12:10:44Z</time>
      </trkpt>
      <trkpt lat="59.9119424" lon="17.7178754">
        <ele>44.8386</ele>
        <time>2014-06-17T12:10:45Z</time>
      </trkpt>
      <trkpt lat="59.9119232" lon="17.7178533">
        <ele>45.3192</ele>
        <time>2014-06-17T12:10:46Z</time>
      </trkpt>
      <trkpt lat="59.9119046" lon="17.7178316">
        <ele>44.8386</ele>
        <time>2014-06-17T12:10:47Z</time>
      </trkpt>
      <trkpt lat="59.9118885" lon="17.7178103">
        <ele>44.8386</ele>
        <time>2014-06-17T12:10:48Z</time>
      </trkpt>
      <trkpt lat="59.9118688" lon="17.7177831">
        <ele>44.8386</ele>
        <time>2014-06-17T12:10:49Z</time>
      </trkpt>
      <trkpt lat="59.9118464" lon="17.7177634">
        <ele>45.3192</ele>
        <time>2014-06-17T12:10:50Z</time>
      </trkpt>
      <trkpt lat="59.9118215" lon="17.7177449">
        <ele>45.7999</ele>
        <time>2014-06-17T12:10:51Z</time>
      </trkpt>
      <trkpt lat="59.9118009" lon="17.7177215">
        <ele>45.3192</ele>
        <time>2014-06-17T12:10:52Z</time>
      </trkpt>
      <trkpt lat="59.9117783" lon="17.7176921">
        <ele>45.7999</ele>
        <time>2014-06-17T12:10:53Z</time>
      </trkpt>
      <trkpt lat="59.9117541" lon="17.7176642">
        <ele>45.7999</ele>
        <time>2014-06-17T12:10:54Z</time>
      </trkpt>
      <trkpt lat="59.9117332" lon="17.71764">
        <ele>45.7999</ele>
        <time>2014-06-17T12:10:55Z</time>
      </trkpt>
      <trkpt lat="59.911717" lon="17.717617">
        <ele>46.2806</ele>
        <time>2014-06-17T12:10:56Z</time>
      </trkpt>
      <trkpt lat="59.9116997" lon="17.7175891">
        <ele>45.7999</ele>
        <time>2014-06-17T12:10:57Z</time>
      </trkpt>
      <trkpt lat="59.9116792" lon="17.7175548">
        <ele>45.7999</ele>
        <time>2014-06-17T12:10:58Z</time>
      </trkpt>
      <trkpt lat="59.9116559" lon="17.7175249">
        <ele>46.2806</ele>
        <time>2014-06-17T12:10:59Z</time>
      </trkpt>
      <trkpt lat="59.9116326" lon="17.7174977">
        <ele>46.2806</ele>
        <time>2014-06-17T12:11:00Z</time>
      </trkpt>
      <trkpt lat="59.9116124" lon="17.7174667">
        <ele>46.7612</ele>
        <time>2014-06-17T12:11:01Z</time>
      </trkpt>
      <trkpt lat="59.9115911" lon="17.717429">
        <ele>47.2418</ele>
        <time>2014-06-17T12:11:02Z</time>
      </trkpt>
      <trkpt lat="59.9115765" lon="17.7173887">
        <ele>47.2418</ele>
        <time>2014-06-17T12:11:03Z</time>
      </trkpt>
      <trkpt lat="59.9115606" lon="17.7173626">
        <ele>47.2418</ele>
        <time>2014-06-17T12:11:04Z</time>
      </trkpt>
      <trkpt lat="59.9115409" lon="17.7173475">
        <ele>46.7612</ele>
        <time>2014-06-17T12:11:05Z</time>
      </trkpt>
      <trkpt lat="59.9115191" lon="17.7173297">
        <ele>46.7612</ele>
        <time>2014-06-17T12:11:06Z</time>
      </trkpt>
      <trkpt lat="59.9114979" lon="17.7173089">
        <ele>46.2806</ele>
        <time>2014-06-17T12:11:07Z</time>
      </trkpt>
      <trkpt lat="59.9114783" lon="17.7172881">
        <ele>46.2806</ele>
        <time>2014-06-17T12:11:08Z</time>
      </trkpt>
      <trkpt lat="59.9114611" lon="17.7172729">
        <ele>45.7999</ele>
        <time>2014-06-17T12:11:09Z</time>
      </trkpt>
      <trkpt lat="59.9114407" lon="17.7172515">
        <ele>45.3192</ele>
        <time>2014-06-17T12:11:10Z</time>
      </trkpt>
      <trkpt lat="59.9114233" lon="17.7172338">
        <ele>45.3192</ele>
        <time>2014-06-17T12:11:11Z</time>
      </trkpt>
      <trkpt lat="59.911404" lon="17.7172254">
        <ele>44.358</ele>
        <time>2014-06-17T12:11:12Z</time>
      </trkpt>
      <trkpt lat="59.9113803" lon="17.7172161">
        <ele>44.358</ele>
        <time>2014-06-17T12:11:13Z</time>
      </trkpt>
      <trkpt lat="59.9113595" lon="17.7172078">
        <ele>44.358</ele>
        <time>2014-06-17T12:11:14Z</time>
      </trkpt>
      <trkpt lat="59.9113409" lon="17.717201">
        <ele>44.358</ele>
        <time>2014-06-17T12:11:15Z</time>
      </trkpt>
      <trkpt lat="59.9113193" lon="17.717196">
        <ele>44.358</ele>
        <time>2014-06-17T12:11:16Z</time>
      </trkpt>
      <trkpt lat="59.9112974" lon="17.717194">
        <ele>44.8386</ele>
        <time>2014-06-17T12:11:17Z</time>
      </trkpt>
      <trkpt lat="59.9112767" lon="17.71719">
        <ele>44.358</ele>
        <time>2014-06-17T12:11:18Z</time>
      </trkpt>
      <trkpt lat="59.9112553" lon="17.7171782">
        <ele>44.8386</ele>
        <time>2014-06-17T12:11:19Z</time>
      </trkpt>
      <trkpt lat="59.9112331" lon="17.717171">
        <ele>44.8386</ele>
        <time>2014-06-17T12:11:20Z</time>
      </trkpt>
      <trkpt lat="59.9112087" lon="17.7171636">
        <ele>44.8386</ele>
        <time>2014-06-17T12:11:21Z</time>
      </trkpt>
      <trkpt lat="59.9111834" lon="17.7171497">
        <ele>44.8386</ele>
        <time>2014-06-17T12:11:22Z</time>
      </trkpt>
      <trkpt lat="59.9111617" lon="17.7171248">
        <ele>44.8386</ele>
        <time>2014-06-17T12:11:23Z</time>
      </trkpt>
      <trkpt lat="59.9111425" lon="17.7171037">
        <ele>44.358</ele>
        <time>2014-06-17T12:11:24Z</time>
      </trkpt>
      <trkpt lat="59.9111206" lon="17.7170892">
        <ele>44.358</ele>
        <time>2014-06-17T12:11:25Z</time>
      </trkpt>
      <trkpt lat="59.9110991" lon="17.7170845">
        <ele>44.358</ele>
        <time>2014-06-17T12:11:26Z</time>
      </trkpt>
      <trkpt lat="59.9110772" lon="17.7170746">
        <ele>44.358</ele>
        <time>2014-06-17T12:11:27Z</time>
      </trkpt>
      <trkpt lat="59.9110562" lon="17.7170654">
        <ele>44.8386</ele>
        <time>2014-06-17T12:11:28Z</time>
      </trkpt>
      <trkpt lat="59.9110348" lon="17.7170629">
        <ele>44.358</ele>
        <time>2014-06-17T12:11:29Z</time>
      </trkpt>
      <trkpt lat="59.9110113" lon="17.7170576">
        <ele>44.8386</ele>
        <time>2014-06-17T12:11:30Z</time>
      </trkpt>
      <trkpt lat="59.9109875" lon="17.7170549">
        <ele>44.8386</ele>
        <time>2014-06-17T12:11:31Z</time>
      </trkpt>
      <trkpt lat="59.9109633" lon="17.717056">
        <ele>44.8386</ele>
        <time>2014-06-17T12:11:32Z</time>
      </trkpt>
      <trkpt lat="59.9109396" lon="17.7170514">
        <ele>44.8386</ele>
        <time>2014-06-17T12:11:33Z</time>
      </trkpt>
      <trkpt lat="59.9109172" lon="17.7170456">
        <ele>44.8386</ele>
        <time>2014-06-17T12:11:34Z</time>
      </trkpt>
      <trkpt lat="59.9108921" lon="17.7170493">
        <ele>44.8386</ele>
        <time>2014-06-17T12:11:35Z</time>
      </trkpt>
      <trkpt lat="59.910867" lon="17.717055">
        <ele>44.8386</ele>
        <time>2014-06-17T12:11:36Z</time>
      </trkpt>
      <trkpt lat="59.9108431" lon="17.7170571">
        <ele>44.358</ele>
        <time>2014-06-17T12:11:37Z</time>
      </trkpt>
      <trkpt lat="59.9108157" lon="17.7170524">
        <ele>44.358</ele>
        <time>2014-06-17T12:11:38Z</time>
      </trkpt>
      <trkpt lat="59.9107887" lon="17.7170382">
        <ele>43.8773</ele>
        <time>2014-06-17T12:11:39Z</time>
      </trkpt>
      <trkpt lat="59.9107666" lon="17.7170327">
        <ele>43.3966</ele>
        <time>2014-06-17T12:11:40Z</time>
      </trkpt>
      <trkpt lat="59.9107442" lon="17.7170357">
        <ele>43.3966</ele>
        <time>2014-06-17T12:11:41Z</time>
      </trkpt>
      <trkpt lat="59.9107219" lon="17.71704">
        <ele>43.3966</ele>
        <time>2014-06-17T12:11:42Z</time>
      </trkpt>
      <trkpt lat="59.9106977" lon="17.7170415">
        <ele>43.8773</ele>
        <time>2014-06-17T12:11:43Z</time>
      </trkpt>
      <trkpt lat="59.9106738" lon="17.717041">
        <ele>43.3966</ele>
        <time>2014-06-17T12:11:44Z</time>
      </trkpt>
      <trkpt lat="59.9106518" lon="17.7170328">
        <ele>42.916</ele>
        <time>2014-06-17T12:11:45Z</time>
      </trkpt>
      <trkpt lat="59.910626" lon="17.7170275">
        <ele>42.4354</ele>
        <time>2014-06-17T12:11:46Z</time>
      </trkpt>
      <trkpt lat="59.9106021" lon="17.7170219">
        <ele>42.4354</ele>
        <time>2014-06-17T12:11:47Z</time>
      </trkpt>
      <trkpt lat="59.9105795" lon="17.7170177">
        <ele>42.4354</ele>
        <time>2014-06-17T12:11:48Z</time>
      </trkpt>
      <trkpt lat="59.9105571" lon="17.7170109">
        <ele>41.9547</ele>
        <time>2014-06-17T12:11:49Z</time>
      </trkpt>
      <trkpt lat="59.910533" lon="17.7170037">
        <ele>41.9547</ele>
        <time>2014-06-17T12:11:50Z</time>
      </trkpt>
      <trkpt lat="59.9105101" lon="17.7169986">
        <ele>41.9547</ele>
        <time>2014-06-17T12:11:51Z</time>
      </trkpt>
      <trkpt lat="59.910486" lon="17.7170006">
        <ele>42.4354</ele>
        <time>2014-06-17T12:11:52Z</time>
      </trkpt>
      <trkpt lat="59.9104602" lon="17.7170017">
        <ele>42.4354</ele>
        <time>2014-06-17T12:11:53Z</time>
      </trkpt>
      <trkpt lat="59.9104375" lon="17.7169992">
        <ele>42.4354</ele>
        <time>2014-06-17T12:11:54Z</time>
      </trkpt>
      <trkpt lat="59.9104135" lon="17.7169966">
        <ele>42.4354</ele>
        <time>2014-06-17T12:11:55Z</time>
      </trkpt>
      <trkpt lat="59.9103888" lon="17.7169932">
        <ele>42.4354</ele>
        <time>2014-06-17T12:11:56Z</time>
      </trkpt>
      <trkpt lat="59.9103654" lon="17.7169907">
        <ele>42.916</ele>
        <time>2014-06-17T12:11:57Z</time>
      </trkpt>
      <trkpt lat="59.9103399" lon="17.7169846">
        <ele>42.916</ele>
        <time>2014-06-17T12:11:58Z</time>
      </trkpt>
      <trkpt lat="59.9103164" lon="17.7169779">
        <ele>42.916</ele>
        <time>2014-06-17T12:11:59Z</time>
      </trkpt>
      <trkpt lat="59.9102952" lon="17.7169747">
        <ele>42.916</ele>
        <time>2014-06-17T12:12:00Z</time>
      </trkpt>
      <trkpt lat="59.9102718" lon="17.7169706">
        <ele>42.916</ele>
        <time>2014-06-17T12:12:01Z</time>
      </trkpt>
      <trkpt lat="59.9102503" lon="17.716967">
        <ele>42.4354</ele>
        <time>2014-06-17T12:12:02Z</time>
      </trkpt>
      <trkpt lat="59.9102301" lon="17.7169623">
        <ele>42.4354</ele>
        <time>2014-06-17T12:12:03Z</time>
      </trkpt>
      <trkpt lat="59.9102061" lon="17.7169545">
        <ele>42.4354</ele>
        <time>2014-06-17T12:12:04Z</time>
      </trkpt>
      <trkpt lat="59.910183" lon="17.7169455">
        <ele>42.4354</ele>
        <time>2014-06-17T12:12:05Z</time>
      </trkpt>
      <trkpt lat="59.9101592" lon="17.7169385">
        <ele>41.9547</ele>
        <time>2014-06-17T12:12:06Z</time>
      </trkpt>
      <trkpt lat="59.9101348" lon="17.7169307">
        <ele>41.9547</ele>
        <time>2014-06-17T12:12:07Z</time>
      </trkpt>
      <trkpt lat="59.9101117" lon="17.7169225">
        <ele>41.9547</ele>
        <time>2014-06-17T12:12:08Z</time>
      </trkpt>
      <trkpt lat="59.9100867" lon="17.7169146">
        <ele>41.474</ele>
        <time>2014-06-17T12:12:09Z</time>
      </trkpt>
      <trkpt lat="59.9100611" lon="17.7169053">
        <ele>41.474</ele>
        <time>2014-06-17T12:12:10Z</time>
      </trkpt>
      <trkpt lat="59.9100379" lon="17.7168976">
        <ele>40.9934</ele>
        <time>2014-06-17T12:12:11Z</time>
      </trkpt>
      <trkpt lat="59.9100148" lon="17.7168875">
        <ele>40.9934</ele>
        <time>2014-06-17T12:12:12Z</time>
      </trkpt>
      <trkpt lat="59.9099922" lon="17.7168782">
        <ele>40.5128</ele>
        <time>2014-06-17T12:12:13Z</time>
      </trkpt>
      <trkpt lat="59.9099697" lon="17.716866">
        <ele>40.0321</ele>
        <time>2014-06-17T12:12:14Z</time>
      </trkpt>
      <trkpt lat="59.9099475" lon="17.7168482">
        <ele>40.0321</ele>
        <time>2014-06-17T12:12:15Z</time>
      </trkpt>
      <trkpt lat="59.9099257" lon="17.7168323">
        <ele>40.0321</ele>
        <time>2014-06-17T12:12:16Z</time>
      </trkpt>
      <trkpt lat="59.9099055" lon="17.7168126">
        <ele>39.5513</ele>
        <time>2014-06-17T12:12:17Z</time>
      </trkpt>
      <trkpt lat="59.9098847" lon="17.7167896">
        <ele>39.0707</ele>
        <time>2014-06-17T12:12:18Z</time>
      </trkpt>
      <trkpt lat="59.9098644" lon="17.7167696">
        <ele>39.0707</ele>
        <time>2014-06-17T12:12:19Z</time>
      </trkpt>
      <trkpt lat="59.9098437" lon="17.7167519">
        <ele>38.5901</ele>
        <time>2014-06-17T12:12:20Z</time>
      </trkpt>
      <trkpt lat="59.9098211" lon="17.716737">
        <ele>38.1094</ele>
        <time>2014-06-17T12:12:21Z</time>
      </trkpt>
      <trkpt lat="59.9097979" lon="17.7167238">
        <ele>38.1094</ele>
        <time>2014-06-17T12:12:22Z</time>
      </trkpt>
      <trkpt lat="59.909776" lon="17.7167048">
        <ele>38.1094</ele>
        <time>2014-06-17T12:12:23Z</time>
      </trkpt>
      <trkpt lat="59.9097553" lon="17.7166851">
        <ele>38.1094</ele>
        <time>2014-06-17T12:12:24Z</time>
      </trkpt>
      <trkpt lat="59.9097365" lon="17.7166726">
        <ele>37.6287</ele>
        <time>2014-06-17T12:12:25Z</time>
      </trkpt>
      <trkpt lat="59.9097142" lon="17.7166585">
        <ele>37.6287</ele>
        <time>2014-06-17T12:12:26Z</time>
      </trkpt>
      <trkpt lat="59.9096911" lon="17.7166375">
        <ele>37.6287</ele>
        <time>2014-06-17T12:12:27Z</time>
      </trkpt>
      <trkpt lat="59.909671" lon="17.7166204">
        <ele>37.6287</ele>
        <time>2014-06-17T12:12:28Z</time>
      </trkpt>
      <trkpt lat="59.909648" lon="17.7166034">
        <ele>37.6287</ele>
        <time>2014-06-17T12:12:29Z</time>
      </trkpt>
      <trkpt lat="59.9096254" lon="17.7165824">
        <ele>37.6287</ele>
        <time>2014-06-17T12:12:30Z</time>
      </trkpt>
      <trkpt lat="59.9096056" lon="17.7165618">
        <ele>37.1481</ele>
        <time>2014-06-17T12:12:31Z</time>
      </trkpt>
      <trkpt lat="59.9095833" lon="17.7165433">
        <ele>37.1481</ele>
        <time>2014-06-17T12:12:32Z</time>
      </trkpt>
      <trkpt lat="59.9095637" lon="17.7165159">
        <ele>37.1481</ele>
        <time>2014-06-17T12:12:33Z</time>
      </trkpt>
      <trkpt lat="59.9095464" lon="17.7164895">
        <ele>37.1481</ele>
        <time>2014-06-17T12:12:34Z</time>
      </trkpt>
      <trkpt lat="59.9095264" lon="17.7164644">
        <ele>37.1481</ele>
        <time>2014-06-17T12:12:35Z</time>
      </trkpt>
      <trkpt lat="59.9095067" lon="17.7164365">
        <ele>37.1481</ele>
        <time>2014-06-17T12:12:36Z</time>
      </trkpt>
      <trkpt lat="59.9094848" lon="17.716412">
        <ele>37.1481</ele>
        <time>2014-06-17T12:12:37Z</time>
      </trkpt>
      <trkpt lat="59.9094662" lon="17.7163858">
        <ele>36.6675</ele>
        <time>2014-06-17T12:12:38Z</time>
      </trkpt>
      <trkpt lat="59.9094424" lon="17.716365">
        <ele>36.6675</ele>
        <time>2014-06-17T12:12:39Z</time>
      </trkpt>
      <trkpt lat="59.9094203" lon="17.7163428">
        <ele>37.1481</ele>
        <time>2014-06-17T12:12:40Z</time>
      </trkpt>
      <trkpt lat="59.9094035" lon="17.7163173">
        <ele>36.6675</ele>
        <time>2014-06-17T12:12:41Z</time>
      </trkpt>
      <trkpt lat="59.9093871" lon="17.7162945">
        <ele>37.1481</ele>
        <time>2014-06-17T12:12:42Z</time>
      </trkpt>
      <trkpt lat="59.9093673" lon="17.7162676">
        <ele>37.6287</ele>
        <time>2014-06-17T12:12:43Z</time>
      </trkpt>
      <trkpt lat="59.9093451" lon="17.7162391">
        <ele>37.6287</ele>
        <time>2014-06-17T12:12:44Z</time>
      </trkpt>
      <trkpt lat="59.9093247" lon="17.7162116">
        <ele>38.1094</ele>
        <time>2014-06-17T12:12:45Z</time>
      </trkpt>
      <trkpt lat="59.9093061" lon="17.7161842">
        <ele>38.5901</ele>
        <time>2014-06-17T12:12:46Z</time>
      </trkpt>
      <trkpt lat="59.9092911" lon="17.7161589">
        <ele>38.1094</ele>
        <time>2014-06-17T12:12:47Z</time>
      </trkpt>
      <trkpt lat="59.9092771" lon="17.7161305">
        <ele>38.5901</ele>
        <time>2014-06-17T12:12:48Z</time>
      </trkpt>
      <trkpt lat="59.9092604" lon="17.7161029">
        <ele>39.0707</ele>
        <time>2014-06-17T12:12:49Z</time>
      </trkpt>
      <trkpt lat="59.9092434" lon="17.7160754">
        <ele>39.0707</ele>
        <time>2014-06-17T12:12:50Z</time>
      </trkpt>
      <trkpt lat="59.9092284" lon="17.7160429">
        <ele>39.5513</ele>
        <time>2014-06-17T12:12:51Z</time>
      </trkpt>
      <trkpt lat="59.9092122" lon="17.7160086">
        <ele>39.5513</ele>
        <time>2014-06-17T12:12:52Z</time>
      </trkpt>
      <trkpt lat="59.9091938" lon="17.7159763">
        <ele>39.5513</ele>
        <time>2014-06-17T12:12:53Z</time>
      </trkpt>
      <trkpt lat="59.909178" lon="17.7159408">
        <ele>39.5513</ele>
        <time>2014-06-17T12:12:54Z</time>
      </trkpt>
      <trkpt lat="59.9091646" lon="17.7159054">
        <ele>39.5513</ele>
        <time>2014-06-17T12:12:55Z</time>
      </trkpt>
      <trkpt lat="59.9091498" lon="17.7158755">
        <ele>39.5513</ele>
        <time>2014-06-17T12:12:56Z</time>
      </trkpt>
      <trkpt lat="59.9091322" lon="17.7158513">
        <ele>39.0707</ele>
        <time>2014-06-17T12:12:57Z</time>
      </trkpt>
      <trkpt lat="59.9091167" lon="17.7158231">
        <ele>39.0707</ele>
        <time>2014-06-17T12:12:58Z</time>
      </trkpt>
      <trkpt lat="59.9091" lon="17.71579">
        <ele>39.5513</ele>
        <time>2014-06-17T12:12:59Z</time>
      </trkpt>
      <trkpt lat="59.9090828" lon="17.7157579">
        <ele>40.0321</ele>
        <time>2014-06-17T12:13:00Z</time>
      </trkpt>
      <trkpt lat="59.9090638" lon="17.7157352">
        <ele>40.5128</ele>
        <time>2014-06-17T12:13:01Z</time>
      </trkpt>
      <trkpt lat="59.9090497" lon="17.7157047">
        <ele>40.5128</ele>
        <time>2014-06-17T12:13:02Z</time>
      </trkpt>
      <trkpt lat="59.9090364" lon="17.7156683">
        <ele>40.5128</ele>
        <time>2014-06-17T12:13:03Z</time>
      </trkpt>
      <trkpt lat="59.9090214" lon="17.7156361">
        <ele>40.5128</ele>
        <time>2014-06-17T12:13:04Z</time>
      </trkpt>
      <trkpt lat="59.9090089" lon="17.7156072">
        <ele>40.9934</ele>
        <time>2014-06-17T12:13:05Z</time>
      </trkpt>
      <trkpt lat="59.9089926" lon="17.7155803">
        <ele>41.474</ele>
        <time>2014-06-17T12:13:06Z</time>
      </trkpt>
      <trkpt lat="59.9089755" lon="17.7155484">
        <ele>41.474</ele>
        <time>2014-06-17T12:13:07Z</time>
      </trkpt>
      <trkpt lat="59.9089613" lon="17.7155117">
        <ele>41.474</ele>
        <time>2014-06-17T12:13:08Z</time>
      </trkpt>
      <trkpt lat="59.9089507" lon="17.7154694">
        <ele>42.4354</ele>
        <time>2014-06-17T12:13:09Z</time>
      </trkpt>
      <trkpt lat="59.9089457" lon="17.7154278">
        <ele>41.9547</ele>
        <time>2014-06-17T12:13:10Z</time>
      </trkpt>
      <trkpt lat="59.9089426" lon="17.7153892">
        <ele>41.474</ele>
        <time>2014-06-17T12:13:11Z</time>
      </trkpt>
      <trkpt lat="59.9089322" lon="17.715344">
        <ele>41.9547</ele>
        <time>2014-06-17T12:13:12Z</time>
      </trkpt>
      <trkpt lat="59.9089224" lon="17.7152978">
        <ele>41.9547</ele>
        <time>2014-06-17T12:13:13Z</time>
      </trkpt>
      <trkpt lat="59.9089141" lon="17.7152563">
        <ele>41.9547</ele>
        <time>2014-06-17T12:13:14Z</time>
      </trkpt>
      <trkpt lat="59.9089048" lon="17.7152217">
        <ele>41.9547</ele>
        <time>2014-06-17T12:13:15Z</time>
      </trkpt>
      <trkpt lat="59.9088954" lon="17.7151762">
        <ele>41.9547</ele>
        <time>2014-06-17T12:13:16Z</time>
      </trkpt>
      <trkpt lat="59.9088902" lon="17.7151393">
        <ele>41.9547</ele>
        <time>2014-06-17T12:13:17Z</time>
      </trkpt>
      <trkpt lat="59.9088826" lon="17.7151073">
        <ele>42.4354</ele>
        <time>2014-06-17T12:13:18Z</time>
      </trkpt>
      <trkpt lat="59.9088793" lon="17.7150741">
        <ele>42.916</ele>
        <time>2014-06-17T12:13:19Z</time>
      </trkpt>
      <trkpt lat="59.9088817" lon="17.7150413">
        <ele>42.916</ele>
        <time>2014-06-17T12:13:20Z</time>
      </trkpt>
      <trkpt lat="59.908883" lon="17.7150077">
        <ele>42.916</ele>
        <time>2014-06-17T12:13:21Z</time>
      </trkpt>
      <trkpt lat="59.9088814" lon="17.7149598">
        <ele>42.4354</ele>
        <time>2014-06-17T12:13:22Z</time>
      </trkpt>
      <trkpt lat="59.9088786" lon="17.7149131">
        <ele>42.916</ele>
        <time>2014-06-17T12:13:23Z</time>
      </trkpt>
      <trkpt lat="59.908876" lon="17.7148658">
        <ele>42.4354</ele>
        <time>2014-06-17T12:13:24Z</time>
      </trkpt>
      <trkpt lat="59.9088756" lon="17.7148225">
        <ele>42.4354</ele>
        <time>2014-06-17T12:13:25Z</time>
      </trkpt>
      <trkpt lat="59.9088742" lon="17.7147675">
        <ele>41.9547</ele>
        <time>2014-06-17T12:13:26Z</time>
      </trkpt>
      <trkpt lat="59.9088747" lon="17.714711">
        <ele>42.4354</ele>
        <time>2014-06-17T12:13:27Z</time>
      </trkpt>
      <trkpt lat="59.9088813" lon="17.7146676">
        <ele>41.9547</ele>
        <time>2014-06-17T12:13:28Z</time>
      </trkpt>
      <trkpt lat="59.9088792" lon="17.7146197">
        <ele>41.9547</ele>
        <time>2014-06-17T12:13:29Z</time>
      </trkpt>
      <trkpt lat="59.9088726" lon="17.714566">
        <ele>41.9547</ele>
        <time>2014-06-17T12:13:30Z</time>
      </trkpt>
      <trkpt lat="59.9088693" lon="17.7145183">
        <ele>41.9547</ele>
        <time>2014-06-17T12:13:31Z</time>
      </trkpt>
      <trkpt lat="59.908868" lon="17.7144702">
        <ele>42.4354</ele>
        <time>2014-06-17T12:13:32Z</time>
      </trkpt>
      <trkpt lat="59.9088709" lon="17.7144293">
        <ele>42.916</ele>
        <time>2014-06-17T12:13:33Z</time>
      </trkpt>
      <trkpt lat="59.9088674" lon="17.7143898">
        <ele>42.916</ele>
        <time>2014-06-17T12:13:34Z</time>
      </trkpt>
      <trkpt lat="59.9088684" lon="17.7143525">
        <ele>42.916</ele>
        <time>2014-06-17T12:13:35Z</time>
      </trkpt>
      <trkpt lat="59.9088673" lon="17.7142957">
        <ele>43.3966</ele>
        <time>2014-06-17T12:13:36Z</time>
      </trkpt>
      <trkpt lat="59.9088662" lon="17.7142399">
        <ele>43.3966</ele>
        <time>2014-06-17T12:13:37Z</time>
      </trkpt>
      <trkpt lat="59.9088654" lon="17.7141892">
        <ele>43.8773</ele>
        <time>2014-06-17T12:13:38Z</time>
      </trkpt>
      <trkpt lat="59.9088628" lon="17.7141386">
        <ele>43.3966</ele>
        <time>2014-06-17T12:13:39Z</time>
      </trkpt>
      <trkpt lat="59.9088611" lon="17.7140899">
        <ele>43.8773</ele>
        <time>2014-06-17T12:13:40Z</time>
      </trkpt>
      <trkpt lat="59.9088618" lon="17.7140475">
        <ele>43.8773</ele>
        <time>2014-06-17T12:13:41Z</time>
      </trkpt>
      <trkpt lat="59.9088617" lon="17.7140019">
        <ele>44.358</ele>
        <time>2014-06-17T12:13:42Z</time>
      </trkpt>
      <trkpt lat="59.9088657" lon="17.7139621">
        <ele>44.358</ele>
        <time>2014-06-17T12:13:43Z</time>
      </trkpt>
      <trkpt lat="59.9088669" lon="17.713919">
        <ele>43.8773</ele>
        <time>2014-06-17T12:13:44Z</time>
      </trkpt>
      <trkpt lat="59.9088676" lon="17.7138768">
        <ele>43.8773</ele>
        <time>2014-06-17T12:13:45Z</time>
      </trkpt>
      <trkpt lat="59.9088634" lon="17.7138335">
        <ele>44.358</ele>
        <time>2014-06-17T12:13:46Z</time>
      </trkpt>
      <trkpt lat="59.9088597" lon="17.7137911">
        <ele>44.358</ele>
        <time>2014-06-17T12:13:47Z</time>
      </trkpt>
      <trkpt lat="59.9088546" lon="17.7137434">
        <ele>43.8773</ele>
        <time>2014-06-17T12:13:48Z</time>
      </trkpt>
      <trkpt lat="59.9088504" lon="17.7136947">
        <ele>43.8773</ele>
        <time>2014-06-17T12:13:49Z</time>
      </trkpt>
      <trkpt lat="59.9088472" lon="17.7136474">
        <ele>43.8773</ele>
        <time>2014-06-17T12:13:50Z</time>
      </trkpt>
      <trkpt lat="59.9088426" lon="17.7136031">
        <ele>43.8773</ele>
        <time>2014-06-17T12:13:51Z</time>
      </trkpt>
      <trkpt lat="59.9088317" lon="17.7135548">
        <ele>43.8773</ele>
        <time>2014-06-17T12:13:52Z</time>
      </trkpt>
      <trkpt lat="59.9088223" lon="17.7135103">
        <ele>43.8773</ele>
        <time>2014-06-17T12:13:53Z</time>
      </trkpt>
      <trkpt lat="59.9088106" lon="17.7134604">
        <ele>43.8773</ele>
        <time>2014-06-17T12:13:54Z</time>
      </trkpt>
      <trkpt lat="59.9087989" lon="17.7134144">
        <ele>43.8773</ele>
        <time>2014-06-17T12:13:55Z</time>
      </trkpt>
      <trkpt lat="59.9087883" lon="17.7133871">
        <ele>43.3966</ele>
        <time>2014-06-17T12:13:56Z</time>
      </trkpt>
      <trkpt lat="59.9087705" lon="17.7133415">
        <ele>43.3966</ele>
        <time>2014-06-17T12:13:57Z</time>
      </trkpt>
      <trkpt lat="59.908757" lon="17.7132927">
        <ele>43.3966</ele>
        <time>2014-06-17T12:13:58Z</time>
      </trkpt>
      <trkpt lat="59.9087472" lon="17.7132491">
        <ele>43.3966</ele>
        <time>2014-06-17T12:13:59Z</time>
      </trkpt>
      <trkpt lat="59.9087349" lon="17.7132063">
        <ele>43.8773</ele>
        <time>2014-06-17T12:14:00Z</time>
      </trkpt>
      <trkpt lat="59.9087224" lon="17.7131648">
        <ele>43.3966</ele>
        <time>2014-06-17T12:14:01Z</time>
      </trkpt>
      <trkpt lat="59.9087084" lon="17.7131183">
        <ele>42.916</ele>
        <time>2014-06-17T12:14:02Z</time>
      </trkpt>
      <trkpt lat="59.9086927" lon="17.7130721">
        <ele>42.4354</ele>
        <time>2014-06-17T12:14:03Z</time>
      </trkpt>
      <trkpt lat="59.9086699" lon="17.7130155">
        <ele>42.4354</ele>
        <time>2014-06-17T12:14:04Z</time>
      </trkpt>
      <trkpt lat="59.908654" lon="17.7129741">
        <ele>41.9547</ele>
        <time>2014-06-17T12:14:05Z</time>
      </trkpt>
      <trkpt lat="59.908643" lon="17.7129398">
        <ele>41.9547</ele>
        <time>2014-06-17T12:14:06Z</time>
      </trkpt>
      <trkpt lat="59.908626" lon="17.7128994">
        <ele>41.474</ele>
        <time>2014-06-17T12:14:07Z</time>
      </trkpt>
      <trkpt lat="59.9086046" lon="17.7128624">
        <ele>41.9547</ele>
        <time>2014-06-17T12:14:08Z</time>
      </trkpt>
      <trkpt lat="59.9085839" lon="17.7128213">
        <ele>41.9547</ele>
        <time>2014-06-17T12:14:09Z</time>
      </trkpt>
      <trkpt lat="59.9085655" lon="17.7127854">
        <ele>42.4354</ele>
        <time>2014-06-17T12:14:10Z</time>
      </trkpt>
      <trkpt lat="59.9085499" lon="17.7127606">
        <ele>42.4354</ele>
        <time>2014-06-17T12:14:11Z</time>
      </trkpt>
      <trkpt lat="59.9085318" lon="17.7127299">
        <ele>42.4354</ele>
        <time>2014-06-17T12:14:12Z</time>
      </trkpt>
      <trkpt lat="59.9085136" lon="17.7126981">
        <ele>42.4354</ele>
        <time>2014-06-17T12:14:13Z</time>
      </trkpt>
      <trkpt lat="59.908493" lon="17.7126737">
        <ele>42.4354</ele>
        <time>2014-06-17T12:14:14Z</time>
      </trkpt>
      <trkpt lat="59.9084691" lon="17.7126422">
        <ele>42.916</ele>
        <time>2014-06-17T12:14:15Z</time>
      </trkpt>
      <trkpt lat="59.9084492" lon="17.7126136">
        <ele>42.916</ele>
        <time>2014-06-17T12:14:16Z</time>
      </trkpt>
      <trkpt lat="59.9084287" lon="17.7125955">
        <ele>43.3966</ele>
        <time>2014-06-17T12:14:17Z</time>
      </trkpt>
      <trkpt lat="59.908406" lon="17.7125689">
        <ele>43.8773</ele>
        <time>2014-06-17T12:14:18Z</time>
      </trkpt>
      <trkpt lat="59.908379" lon="17.7125342">
        <ele>44.358</ele>
        <time>2014-06-17T12:14:19Z</time>
      </trkpt>
      <trkpt lat="59.9083501" lon="17.7125047">
        <ele>44.8386</ele>
        <time>2014-06-17T12:14:20Z</time>
      </trkpt>
      <trkpt lat="59.9083244" lon="17.7124763">
        <ele>45.3192</ele>
        <time>2014-06-17T12:14:21Z</time>
      </trkpt>
      <trkpt lat="59.9083042" lon="17.7124545">
        <ele>46.2806</ele>
        <time>2014-06-17T12:14:22Z</time>
      </trkpt>
      <trkpt lat="59.908275" lon="17.7124452">
        <ele>47.2418</ele>
        <time>2014-06-17T12:14:23Z</time>
      </trkpt>
      <trkpt lat="59.9082397" lon="17.7124546">
        <ele>48.684</ele>
        <time>2014-06-17T12:14:24Z</time>
      </trkpt>
      <trkpt lat="59.9082122" lon="17.712464">
        <ele>49.6453</ele>
        <time>2014-06-17T12:14:25Z</time>
      </trkpt>
      <trkpt lat="59.9081926" lon="17.7124794">
        <ele>49.6453</ele>
        <time>2014-06-17T12:14:26Z</time>
      </trkpt>
      <trkpt lat="59.9081768" lon="17.7125054">
        <ele>49.6453</ele>
        <time>2014-06-17T12:14:27Z</time>
      </trkpt>
      <trkpt lat="59.9081666" lon="17.7125436">
        <ele>48.684</ele>
        <time>2014-06-17T12:14:28Z</time>
      </trkpt>
      <trkpt lat="59.9081552" lon="17.7125794">
        <ele>48.2034</ele>
        <time>2014-06-17T12:14:29Z</time>
      </trkpt>
      <trkpt lat="59.908142" lon="17.7126177">
        <ele>48.2034</ele>
        <time>2014-06-17T12:14:30Z</time>
      </trkpt>
      <trkpt lat="59.9081267" lon="17.7126649">
        <ele>48.2034</ele>
        <time>2014-06-17T12:14:31Z</time>
      </trkpt>
      <trkpt lat="59.9081117" lon="17.7127087">
        <ele>47.2418</ele>
        <time>2014-06-17T12:14:32Z</time>
      </trkpt>
      <trkpt lat="59.9080981" lon="17.7127493">
        <ele>46.7612</ele>
        <time>2014-06-17T12:14:33Z</time>
      </trkpt>
      <trkpt lat="59.9080887" lon="17.7127834">
        <ele>46.2806</ele>
        <time>2014-06-17T12:14:34Z</time>
      </trkpt>
      <trkpt lat="59.9080783" lon="17.7128229">
        <ele>45.7999</ele>
        <time>2014-06-17T12:14:35Z</time>
      </trkpt>
      <trkpt lat="59.9080708" lon="17.7128648">
        <ele>46.7612</ele>
        <time>2014-06-17T12:14:36Z</time>
      </trkpt>
      <trkpt lat="59.9080646" lon="17.7129038">
        <ele>47.7225</ele>
        <time>2014-06-17T12:14:37Z</time>
      </trkpt>
      <trkpt lat="59.908061" lon="17.7129393">
        <ele>47.2418</ele>
        <time>2014-06-17T12:14:38Z</time>
      </trkpt>
      <trkpt lat="59.9080572" lon="17.7129755">
        <ele>47.7225</ele>
        <time>2014-06-17T12:14:39Z</time>
      </trkpt>
      <trkpt lat="59.9080515" lon="17.7130113">
        <ele>46.7612</ele>
        <time>2014-06-17T12:14:40Z</time>
      </trkpt>
      <trkpt lat="59.90805" lon="17.7130465">
        <ele>46.2806</ele>
        <time>2014-06-17T12:14:41Z</time>
      </trkpt>
      <trkpt lat="59.908048" lon="17.7130802">
        <ele>46.2806</ele>
        <time>2014-06-17T12:14:42Z</time>
      </trkpt>
      <trkpt lat="59.9080367" lon="17.7131133">
        <ele>46.7612</ele>
        <time>2014-06-17T12:14:43Z</time>
      </trkpt>
      <trkpt lat="59.908026" lon="17.7131481">
        <ele>46.2806</ele>
        <time>2014-06-17T12:14:44Z</time>
      </trkpt>
      <trkpt lat="59.9080137" lon="17.7131839">
        <ele>45.7999</ele>
        <time>2014-06-17T12:14:45Z</time>
      </trkpt>
      <trkpt lat="59.9079968" lon="17.7132252">
        <ele>46.2806</ele>
        <time>2014-06-17T12:14:46Z</time>
      </trkpt>
      <trkpt lat="59.9079811" lon="17.7132647">
        <ele>45.7999</ele>
        <time>2014-06-17T12:14:47Z</time>
      </trkpt>
      <trkpt lat="59.9079655" lon="17.7133011">
        <ele>45.7999</ele>
        <time>2014-06-17T12:14:48Z</time>
      </trkpt>
      <trkpt lat="59.9079468" lon="17.7133374">
        <ele>46.2806</ele>
        <time>2014-06-17T12:14:49Z</time>
      </trkpt>
      <trkpt lat="59.907933" lon="17.7133833">
        <ele>45.3192</ele>
        <time>2014-06-17T12:14:50Z</time>
      </trkpt>
      <trkpt lat="59.9079173" lon="17.7134278">
        <ele>44.358</ele>
        <time>2014-06-17T12:14:51Z</time>
      </trkpt>
      <trkpt lat="59.9079076" lon="17.7134637">
        <ele>43.8773</ele>
        <time>2014-06-17T12:14:52Z</time>
      </trkpt>
      <trkpt lat="59.9078986" lon="17.7134951">
        <ele>43.8773</ele>
        <time>2014-06-17T12:14:53Z</time>
      </trkpt>
      <trkpt lat="59.9078862" lon="17.7135191">
        <ele>43.3966</ele>
        <time>2014-06-17T12:14:54Z</time>
      </trkpt>
      <trkpt lat="59.9078714" lon="17.7135445">
        <ele>43.3966</ele>
        <time>2014-06-17T12:14:55Z</time>
      </trkpt>
      <trkpt lat="59.9078552" lon="17.7135534">
        <ele>42.916</ele>
        <time>2014-06-17T12:14:56Z</time>
      </trkpt>
      <trkpt lat="59.9078325" lon="17.7135569">
        <ele>42.4354</ele>
        <time>2014-06-17T12:14:57Z</time>
      </trkpt>
      <trkpt lat="59.9078115" lon="17.7135595">
        <ele>41.9547</ele>
        <time>2014-06-17T12:14:58Z</time>
      </trkpt>
      <trkpt lat="59.90779" lon="17.7135626">
        <ele>41.474</ele>
        <time>2014-06-17T12:14:59Z</time>
      </trkpt>
      <trkpt lat="59.9077685" lon="17.7135636">
        <ele>41.474</ele>
        <time>2014-06-17T12:15:00Z</time>
      </trkpt>
      <trkpt lat="59.9077356" lon="17.7135805">
        <ele>42.4354</ele>
        <time>2014-06-17T12:15:01Z</time>
      </trkpt>
      <trkpt lat="59.907707" lon="17.713592">
        <ele>43.3966</ele>
        <time>2014-06-17T12:15:02Z</time>
      </trkpt>
      <trkpt lat="59.9076828" lon="17.7135998">
        <ele>42.916</ele>
        <time>2014-06-17T12:15:03Z</time>
      </trkpt>
      <trkpt lat="59.9076553" lon="17.7136035">
        <ele>43.3966</ele>
        <time>2014-06-17T12:15:04Z</time>
      </trkpt>
      <trkpt lat="59.9076247" lon="17.7136103">
        <ele>44.358</ele>
        <time>2014-06-17T12:15:05Z</time>
      </trkpt>
      <trkpt lat="59.9075879" lon="17.7136175">
        <ele>46.2806</ele>
        <time>2014-06-17T12:15:06Z</time>
      </trkpt>
      <trkpt lat="59.9075517" lon="17.7136245">
        <ele>48.2034</ele>
        <time>2014-06-17T12:15:07Z</time>
      </trkpt>
      <trkpt lat="59.9075225" lon="17.713628">
        <ele>48.684</ele>
        <time>2014-06-17T12:15:08Z</time>
      </trkpt>
      <trkpt lat="59.9074911" lon="17.7136284">
        <ele>49.6453</ele>
        <time>2014-06-17T12:15:09Z</time>
      </trkpt>
      <trkpt lat="59.9074616" lon="17.7136215">
        <ele>50.126</ele>
        <time>2014-06-17T12:15:10Z</time>
      </trkpt>
      <trkpt lat="59.9074315" lon="17.7136179">
        <ele>50.6066</ele>
        <time>2014-06-17T12:15:11Z</time>
      </trkpt>
      <trkpt lat="59.9074036" lon="17.7136062">
        <ele>50.6066</ele>
        <time>2014-06-17T12:15:12Z</time>
      </trkpt>
      <trkpt lat="59.9073755" lon="17.7136025">
        <ele>50.6066</ele>
        <time>2014-06-17T12:15:13Z</time>
      </trkpt>
      <trkpt lat="59.9073434" lon="17.71361">
        <ele>51.0872</ele>
        <time>2014-06-17T12:15:14Z</time>
      </trkpt>
      <trkpt lat="59.9073165" lon="17.7136152">
        <ele>50.6066</ele>
        <time>2014-06-17T12:15:15Z</time>
      </trkpt>
      <trkpt lat="59.9072923" lon="17.7136263">
        <ele>50.6066</ele>
        <time>2014-06-17T12:15:16Z</time>
      </trkpt>
      <trkpt lat="59.9072677" lon="17.7136448">
        <ele>50.6066</ele>
        <time>2014-06-17T12:15:17Z</time>
      </trkpt>
      <trkpt lat="59.907243" lon="17.7136511">
        <ele>50.126</ele>
        <time>2014-06-17T12:15:18Z</time>
      </trkpt>
      <trkpt lat="59.9072135" lon="17.7136543">
        <ele>50.126</ele>
        <time>2014-06-17T12:15:19Z</time>
      </trkpt>
      <trkpt lat="59.907185" lon="17.713661">
        <ele>49.6453</ele>
        <time>2014-06-17T12:15:20Z</time>
      </trkpt>
      <trkpt lat="59.9071592" lon="17.7136558">
        <ele>49.6453</ele>
        <time>2014-06-17T12:15:21Z</time>
      </trkpt>
      <trkpt lat="59.9071305" lon="17.713659">
        <ele>50.126</ele>
        <time>2014-06-17T12:15:22Z</time>
      </trkpt>
      <trkpt lat="59.9071047" lon="17.7136574">
        <ele>50.126</ele>
        <time>2014-06-17T12:15:23Z</time>
      </trkpt>
      <trkpt lat="59.907085" lon="17.7136455">
        <ele>49.6453</ele>
        <time>2014-06-17T12:15:24Z</time>
      </trkpt>
      <trkpt lat="59.9070674" lon="17.7136385">
        <ele>49.6453</ele>
        <time>2014-06-17T12:15:25Z</time>
      </trkpt>
      <trkpt lat="59.9070516" lon="17.7136423">
        <ele>49.6453</ele>
        <time>2014-06-17T12:15:26Z</time>
      </trkpt>
      <trkpt lat="59.9070389" lon="17.7136636">
        <ele>49.6453</ele>
        <time>2014-06-17T12:15:27Z</time>
      </trkpt>
      <trkpt lat="59.9070268" lon="17.7136968">
        <ele>49.1646</ele>
        <time>2014-06-17T12:15:28Z</time>
      </trkpt>
      <trkpt lat="59.9070192" lon="17.713731">
        <ele>49.1646</ele>
        <time>2014-06-17T12:15:29Z</time>
      </trkpt>
      <trkpt lat="59.9070119" lon="17.7137606">
        <ele>49.1646</ele>
        <time>2014-06-17T12:15:30Z</time>
      </trkpt>
      <trkpt lat="59.9070036" lon="17.7137836">
        <ele>49.6453</ele>
        <time>2014-06-17T12:15:31Z</time>
      </trkpt>
      <trkpt lat="59.906996" lon="17.7138138">
        <ele>49.6453</ele>
        <time>2014-06-17T12:15:32Z</time>
      </trkpt>
      <trkpt lat="59.9069898" lon="17.7138558">
        <ele>50.126</ele>
        <time>2014-06-17T12:15:33Z</time>
      </trkpt>
      <trkpt lat="59.906984" lon="17.7138942">
        <ele>50.126</ele>
        <time>2014-06-17T12:15:34Z</time>
      </trkpt>
      <trkpt lat="59.9069777" lon="17.7139309">
        <ele>49.6453</ele>
        <time>2014-06-17T12:15:35Z</time>
      </trkpt>
      <trkpt lat="59.906977" lon="17.7139682">
        <ele>48.684</ele>
        <time>2014-06-17T12:15:36Z</time>
      </trkpt>
      <trkpt lat="59.9069757" lon="17.7140058">
        <ele>48.2034</ele>
        <time>2014-06-17T12:15:37Z</time>
      </trkpt>
      <trkpt lat="59.9069643" lon="17.7140422">
        <ele>48.684</ele>
        <time>2014-06-17T12:15:38Z</time>
      </trkpt>
      <trkpt lat="59.9069482" lon="17.7140739">
        <ele>48.684</ele>
        <time>2014-06-17T12:15:39Z</time>
      </trkpt>
      <trkpt lat="59.906931" lon="17.7141112">
        <ele>48.684</ele>
        <time>2014-06-17T12:15:40Z</time>
      </trkpt>
      <trkpt lat="59.9069131" lon="17.7141512">
        <ele>47.7225</ele>
        <time>2014-06-17T12:15:41Z</time>
      </trkpt>
      <trkpt lat="59.9069001" lon="17.7141895">
        <ele>46.7612</ele>
        <time>2014-06-17T12:15:42Z</time>
      </trkpt>
      <trkpt lat="59.9068866" lon="17.7142167">
        <ele>45.3192</ele>
        <time>2014-06-17T12:15:43Z</time>
      </trkpt>
      <trkpt lat="59.9068664" lon="17.7142268">
        <ele>44.8386</ele>
        <time>2014-06-17T12:15:44Z</time>
      </trkpt>
      <trkpt lat="59.9068389" lon="17.7142256">
        <ele>43.8773</ele>
        <time>2014-06-17T12:15:45Z</time>
      </trkpt>
      <trkpt lat="59.9068147" lon="17.7142163">
        <ele>42.916</ele>
        <time>2014-06-17T12:15:46Z</time>
      </trkpt>
      <trkpt lat="59.9067947" lon="17.7142033">
        <ele>43.3966</ele>
        <time>2014-06-17T12:15:47Z</time>
      </trkpt>
      <trkpt lat="59.9067745" lon="17.714206">
        <ele>43.3966</ele>
        <time>2014-06-17T12:15:48Z</time>
      </trkpt>
      <trkpt lat="59.9067579" lon="17.7142247">
        <ele>41.9547</ele>
        <time>2014-06-17T12:15:49Z</time>
      </trkpt>
      <trkpt lat="59.9067503" lon="17.7142545">
        <ele>40.9934</ele>
        <time>2014-06-17T12:15:50Z</time>
      </trkpt>
      <trkpt lat="59.906742" lon="17.7142972">
        <ele>40.0321</ele>
        <time>2014-06-17T12:15:51Z</time>
      </trkpt>
      <trkpt lat="59.9067299" lon="17.7143458">
        <ele>39.0707</ele>
        <time>2014-06-17T12:15:52Z</time>
      </trkpt>
      <trkpt lat="59.9067206" lon="17.7143914">
        <ele>39.5513</ele>
        <time>2014-06-17T12:15:53Z</time>
      </trkpt>
      <trkpt lat="59.9067152" lon="17.7144338">
        <ele>39.5513</ele>
        <time>2014-06-17T12:15:54Z</time>
      </trkpt>
      <trkpt lat="59.9067095" lon="17.7144798">
        <ele>38.5901</ele>
        <time>2014-06-17T12:15:55Z</time>
      </trkpt>
      <trkpt lat="59.906703" lon="17.7145178">
        <ele>37.6287</ele>
        <time>2014-06-17T12:15:56Z</time>
      </trkpt>
      <trkpt lat="59.9066926" lon="17.7145623">
        <ele>37.1481</ele>
        <time>2014-06-17T12:15:57Z</time>
      </trkpt>
      <trkpt lat="59.9066816" lon="17.7146086">
        <ele>36.1868</ele>
        <time>2014-06-17T12:15:58Z</time>
      </trkpt>
      <trkpt lat="59.9066778" lon="17.7146565">
        <ele>36.1868</ele>
        <time>2014-06-17T12:15:59Z</time>
      </trkpt>
      <trkpt lat="59.9066773" lon="17.7147085">
        <ele>36.6675</ele>
        <time>2014-06-17T12:16:00Z</time>
      </trkpt>
      <trkpt lat="59.906668" lon="17.7147509">
        <ele>36.1868</ele>
        <time>2014-06-17T12:16:01Z</time>
      </trkpt>
      <trkpt lat="59.9066556" lon="17.714785">
        <ele>36.1868</ele>
        <time>2014-06-17T12:16:02Z</time>
      </trkpt>
      <trkpt lat="59.9066401" lon="17.7148101">
        <ele>35.2255</ele>
        <time>2014-06-17T12:16:03Z</time>
      </trkpt>
      <trkpt lat="59.9066183" lon="17.7148284">
        <ele>33.7834</ele>
        <time>2014-06-17T12:16:04Z</time>
      </trkpt>
      <trkpt lat="59.9065924" lon="17.7148489">
        <ele>32.8223</ele>
        <time>2014-06-17T12:16:05Z</time>
      </trkpt>
      <trkpt lat="59.9065659" lon="17.7148557">
        <ele>32.8223</ele>
        <time>2014-06-17T12:16:06Z</time>
      </trkpt>
      <trkpt lat="59.9065398" lon="17.7148593">
        <ele>33.7834</ele>
        <time>2014-06-17T12:16:07Z</time>
      </trkpt>
      <trkpt lat="59.9065074" lon="17.7148662">
        <ele>35.7061</ele>
        <time>2014-06-17T12:16:08Z</time>
      </trkpt>
      <trkpt lat="59.9064743" lon="17.7148824">
        <ele>37.1481</ele>
        <time>2014-06-17T12:16:09Z</time>
      </trkpt>
      <trkpt lat="59.9064404" lon="17.7149031">
        <ele>40.0321</ele>
        <time>2014-06-17T12:16:10Z</time>
      </trkpt>
      <trkpt lat="59.9064122" lon="17.7149105">
        <ele>40.5128</ele>
        <time>2014-06-17T12:16:11Z</time>
      </trkpt>
      <trkpt lat="59.9063856" lon="17.7149167">
        <ele>41.9547</ele>
        <time>2014-06-17T12:16:12Z</time>
      </trkpt>
      <trkpt lat="59.9063539" lon="17.7149331">
        <ele>43.3966</ele>
        <time>2014-06-17T12:16:13Z</time>
      </trkpt>
      <trkpt lat="59.9063231" lon="17.7149621">
        <ele>44.8386</ele>
        <time>2014-06-17T12:16:14Z</time>
      </trkpt>
      <trkpt lat="59.9063" lon="17.7149903">
        <ele>45.3192</ele>
        <time>2014-06-17T12:16:15Z</time>
      </trkpt>
      <trkpt lat="59.9062744" lon="17.7150172">
        <ele>46.2806</ele>
        <time>2014-06-17T12:16:16Z</time>
      </trkpt>
      <trkpt lat="59.9062562" lon="17.7150404">
        <ele>46.2806</ele>
        <time>2014-06-17T12:16:17Z</time>
      </trkpt>
      <trkpt lat="59.9062387" lon="17.7150627">
        <ele>46.2806</ele>
        <time>2014-06-17T12:16:18Z</time>
      </trkpt>
      <trkpt lat="59.9062182" lon="17.71508">
        <ele>46.2806</ele>
        <time>2014-06-17T12:16:19Z</time>
      </trkpt>
      <trkpt lat="59.9061965" lon="17.7150861">
        <ele>46.2806</ele>
        <time>2014-06-17T12:16:20Z</time>
      </trkpt>
      <trkpt lat="59.9061712" lon="17.7150955">
        <ele>46.2806</ele>
        <time>2014-06-17T12:16:21Z</time>
      </trkpt>
      <trkpt lat="59.9061464" lon="17.7151048">
        <ele>46.2806</ele>
        <time>2014-06-17T12:16:22Z</time>
      </trkpt>
      <trkpt lat="59.9061214" lon="17.7151084">
        <ele>47.2418</ele>
        <time>2014-06-17T12:16:23Z</time>
      </trkpt>
      <trkpt lat="59.9060985" lon="17.7151068">
        <ele>46.7612</ele>
        <time>2014-06-17T12:16:24Z</time>
      </trkpt>
      <trkpt lat="59.9060774" lon="17.7151061">
        <ele>46.7612</ele>
        <time>2014-06-17T12:16:25Z</time>
      </trkpt>
      <trkpt lat="59.9060608" lon="17.715111">
        <ele>46.2806</ele>
        <time>2014-06-17T12:16:26Z</time>
      </trkpt>
      <trkpt lat="59.9060474" lon="17.7151171">
        <ele>45.3192</ele>
        <time>2014-06-17T12:16:27Z</time>
      </trkpt>
      <trkpt lat="59.9060327" lon="17.715114">
        <ele>45.3192</ele>
        <time>2014-06-17T12:16:28Z</time>
      </trkpt>
      <trkpt lat="59.9060123" lon="17.7151238">
        <ele>45.3192</ele>
        <time>2014-06-17T12:16:29Z</time>
      </trkpt>
      <trkpt lat="59.9059905" lon="17.7151359">
        <ele>46.2806</ele>
        <time>2014-06-17T12:16:30Z</time>
      </trkpt>
      <trkpt lat="59.9059695" lon="17.7151415">
        <ele>45.7999</ele>
        <time>2014-06-17T12:16:31Z</time>
      </trkpt>
      <trkpt lat="59.9059481" lon="17.7151423">
        <ele>44.8386</ele>
        <time>2014-06-17T12:16:32Z</time>
      </trkpt>
      <trkpt lat="59.9059241" lon="17.7151467">
        <ele>44.8386</ele>
        <time>2014-06-17T12:16:33Z</time>
      </trkpt>
      <trkpt lat="59.9058977" lon="17.7151581">
        <ele>44.8386</ele>
        <time>2014-06-17T12:16:34Z</time>
      </trkpt>
      <trkpt lat="59.9058769" lon="17.7151607">
        <ele>44.358</ele>
        <time>2014-06-17T12:16:35Z</time>
      </trkpt>
      <trkpt lat="59.905853" lon="17.7151608">
        <ele>44.358</ele>
        <time>2014-06-17T12:16:36Z</time>
      </trkpt>
      <trkpt lat="59.9058235" lon="17.7151689">
        <ele>44.358</ele>
        <time>2014-06-17T12:16:37Z</time>
      </trkpt>
      <trkpt lat="59.905791" lon="17.7151775">
        <ele>44.358</ele>
        <time>2014-06-17T12:16:38Z</time>
      </trkpt>
      <trkpt lat="59.90576" lon="17.7151917">
        <ele>44.358</ele>
        <time>2014-06-17T12:16:39Z</time>
      </trkpt>
      <trkpt lat="59.9057292" lon="17.7152017">
        <ele>44.8386</ele>
        <time>2014-06-17T12:16:40Z</time>
      </trkpt>
      <trkpt lat="59.9056988" lon="17.7152022">
        <ele>44.8386</ele>
        <time>2014-06-17T12:16:41Z</time>
      </trkpt>
      <trkpt lat="59.9056748" lon="17.7151977">
        <ele>45.7999</ele>
        <time>2014-06-17T12:16:42Z</time>
      </trkpt>
      <trkpt lat="59.9056528" lon="17.7152073">
        <ele>44.8386</ele>
        <time>2014-06-17T12:16:43Z</time>
      </trkpt>
      <trkpt lat="59.9056271" lon="17.7152128">
        <ele>45.3192</ele>
        <time>2014-06-17T12:16:44Z</time>
      </trkpt>
      <trkpt lat="59.9056061" lon="17.715215">
        <ele>44.8386</ele>
        <time>2014-06-17T12:16:45Z</time>
      </trkpt>
      <trkpt lat="59.9055874" lon="17.7152167">
        <ele>43.8773</ele>
        <time>2014-06-17T12:16:46Z</time>
      </trkpt>
      <trkpt lat="59.9055713" lon="17.7152136">
        <ele>43.3966</ele>
        <time>2014-06-17T12:16:47Z</time>
      </trkpt>
      <trkpt lat="59.9055538" lon="17.7152092">
        <ele>42.916</ele>
        <time>2014-06-17T12:16:48Z</time>
      </trkpt>
      <trkpt lat="59.9055346" lon="17.7152083">
        <ele>41.9547</ele>
        <time>2014-06-17T12:16:49Z</time>
      </trkpt>
      <trkpt lat="59.9055144" lon="17.7152083">
        <ele>40.9934</ele>
        <time>2014-06-17T12:16:50Z</time>
      </trkpt>
      <trkpt lat="59.9054919" lon="17.7152095">
        <ele>40.9934</ele>
        <time>2014-06-17T12:16:51Z</time>
      </trkpt>
      <trkpt lat="59.9054682" lon="17.7152029">
        <ele>40.5128</ele>
        <time>2014-06-17T12:16:52Z</time>
      </trkpt>
      <trkpt lat="59.9054459" lon="17.7151994">
        <ele>40.5128</ele>
        <time>2014-06-17T12:16:53Z</time>
      </trkpt>
      <trkpt lat="59.9054216" lon="17.7152035">
        <ele>40.0321</ele>
        <time>2014-06-17T12:16:54Z</time>
      </trkpt>
      <trkpt lat="59.9053984" lon="17.7152077">
        <ele>39.5513</ele>
        <time>2014-06-17T12:16:55Z</time>
      </trkpt>
      <trkpt lat="59.9053755" lon="17.7152082">
        <ele>38.5901</ele>
        <time>2014-06-17T12:16:56Z</time>
      </trkpt>
      <trkpt lat="59.9053466" lon="17.7152012">
        <ele>37.6287</ele>
        <time>2014-06-17T12:16:57Z</time>
      </trkpt>
      <trkpt lat="59.905318" lon="17.7152078">
        <ele>36.1868</ele>
        <time>2014-06-17T12:16:58Z</time>
      </trkpt>
      <trkpt lat="59.9052927" lon="17.7152166">
        <ele>36.6675</ele>
        <time>2014-06-17T12:16:59Z</time>
      </trkpt>
      <trkpt lat="59.9052669" lon="17.715231">
        <ele>36.1868</ele>
        <time>2014-06-17T12:17:00Z</time>
      </trkpt>
      <trkpt lat="59.9052415" lon="17.7152361">
        <ele>36.6675</ele>
        <time>2014-06-17T12:17:01Z</time>
      </trkpt>
      <trkpt lat="59.905215" lon="17.7152361">
        <ele>38.1094</ele>
        <time>2014-06-17T12:17:02Z</time>
      </trkpt>
      <trkpt lat="59.905186" lon="17.7152444">
        <ele>38.1094</ele>
        <time>2014-06-17T12:17:03Z</time>
      </trkpt>
      <trkpt lat="59.9051493" lon="17.7152595">
        <ele>36.6675</ele>
        <time>2014-06-17T12:17:04Z</time>
      </trkpt>
      <trkpt lat="59.9051153" lon="17.7152751">
        <ele>36.6675</ele>
        <time>2014-06-17T12:17:05Z</time>
      </trkpt>
      <trkpt lat="59.9050855" lon="17.7152915">
        <ele>36.1868</ele>
        <time>2014-06-17T12:17:06Z</time>
      </trkpt>
      <trkpt lat="59.9050611" lon="17.7152974">
        <ele>36.6675</ele>
        <time>2014-06-17T12:17:07Z</time>
      </trkpt>
      <trkpt lat="59.9050393" lon="17.7152938">
        <ele>38.1094</ele>
        <time>2014-06-17T12:17:08Z</time>
      </trkpt>
      <trkpt lat="59.9050258" lon="17.7152886">
        <ele>38.5901</ele>
        <time>2014-06-17T12:17:09Z</time>
      </trkpt>
      <trkpt lat="59.9050109" lon="17.7152895">
        <ele>39.0707</ele>
        <time>2014-06-17T12:17:10Z</time>
      </trkpt>
      <trkpt lat="59.9049907" lon="17.7152886">
        <ele>39.5513</ele>
        <time>2014-06-17T12:17:11Z</time>
      </trkpt>
      <trkpt lat="59.9049663" lon="17.7152967">
        <ele>39.5513</ele>
        <time>2014-06-17T12:17:12Z</time>
      </trkpt>
      <trkpt lat="59.9049439" lon="17.7152978">
        <ele>39.0707</ele>
        <time>2014-06-17T12:17:13Z</time>
      </trkpt>
      <trkpt lat="59.9049213" lon="17.7153045">
        <ele>37.6287</ele>
        <time>2014-06-17T12:17:14Z</time>
      </trkpt>
      <trkpt lat="59.9048996" lon="17.7153124">
        <ele>37.6287</ele>
        <time>2014-06-17T12:17:15Z</time>
      </trkpt>
      <trkpt lat="59.904874" lon="17.7153212">
        <ele>37.1481</ele>
        <time>2014-06-17T12:17:16Z</time>
      </trkpt>
      <trkpt lat="59.9048378" lon="17.7153322">
        <ele>38.1094</ele>
        <time>2014-06-17T12:17:17Z</time>
      </trkpt>
      <trkpt lat="59.9048014" lon="17.7153337">
        <ele>39.0707</ele>
        <time>2014-06-17T12:17:18Z</time>
      </trkpt>
      <trkpt lat="59.9047762" lon="17.7153346">
        <ele>38.5901</ele>
        <time>2014-06-17T12:17:19Z</time>
      </trkpt>
      <trkpt lat="59.904755" lon="17.7153388">
        <ele>37.6287</ele>
        <time>2014-06-17T12:17:20Z</time>
      </trkpt>
      <trkpt lat="59.9047306" lon="17.7153333">
        <ele>37.1481</ele>
        <time>2014-06-17T12:17:21Z</time>
      </trkpt>
      <trkpt lat="59.9047027" lon="17.7153298">
        <ele>38.1094</ele>
        <time>2014-06-17T12:17:22Z</time>
      </trkpt>
      <trkpt lat="59.9046803" lon="17.7153326">
        <ele>38.1094</ele>
        <time>2014-06-17T12:17:23Z</time>
      </trkpt>
      <trkpt lat="59.9046616" lon="17.7153359">
        <ele>37.6287</ele>
        <time>2014-06-17T12:17:24Z</time>
      </trkpt>
      <trkpt lat="59.9046409" lon="17.715341">
        <ele>37.6287</ele>
        <time>2014-06-17T12:17:25Z</time>
      </trkpt>
      <trkpt lat="59.9046192" lon="17.7153459">
        <ele>37.6287</ele>
        <time>2014-06-17T12:17:26Z</time>
      </trkpt>
      <trkpt lat="59.9046036" lon="17.7153456">
        <ele>36.1868</ele>
        <time>2014-06-17T12:17:27Z</time>
      </trkpt>
      <trkpt lat="59.9045833" lon="17.7153487">
        <ele>35.7061</ele>
        <time>2014-06-17T12:17:28Z</time>
      </trkpt>
      <trkpt lat="59.9045618" lon="17.7153452">
        <ele>35.7061</ele>
        <time>2014-06-17T12:17:29Z</time>
      </trkpt>
      <trkpt lat="59.90454" lon="17.7153554">
        <ele>35.2255</ele>
        <time>2014-06-17T12:17:30Z</time>
      </trkpt>
      <trkpt lat="59.9045187" lon="17.7153773">
        <ele>34.7449</ele>
        <time>2014-06-17T12:17:31Z</time>
      </trkpt>
      <trkpt lat="59.9044965" lon="17.7153944">
        <ele>34.2642</ele>
        <time>2014-06-17T12:17:32Z</time>
      </trkpt>
      <trkpt lat="59.904479" lon="17.715412">
        <ele>34.2642</ele>
        <time>2014-06-17T12:17:33Z</time>
      </trkpt>
      <trkpt lat="59.9044673" lon="17.7154408">
        <ele>33.7834</ele>
        <time>2014-06-17T12:17:34Z</time>
      </trkpt>
      <trkpt lat="59.904454" lon="17.7154756">
        <ele>32.3416</ele>
        <time>2014-06-17T12:17:35Z</time>
      </trkpt>
      <trkpt lat="59.9044374" lon="17.7154995">
        <ele>31.8607</ele>
        <time>2014-06-17T12:17:36Z</time>
      </trkpt>
      <trkpt lat="59.9044177" lon="17.7155148">
        <ele>32.3416</ele>
        <time>2014-06-17T12:17:37Z</time>
      </trkpt>
      <trkpt lat="59.9043944" lon="17.7155303">
        <ele>33.3029</ele>
        <time>2014-06-17T12:17:38Z</time>
      </trkpt>
      <trkpt lat="59.904366" lon="17.7155415">
        <ele>34.2642</ele>
        <time>2014-06-17T12:17:39Z</time>
      </trkpt>
      <trkpt lat="59.9043448" lon="17.7155449">
        <ele>33.3029</ele>
        <time>2014-06-17T12:17:40Z</time>
      </trkpt>
      <trkpt lat="59.9043204" lon="17.7155547">
        <ele>32.3416</ele>
        <time>2014-06-17T12:17:41Z</time>
      </trkpt>
      <trkpt lat="59.9042971" lon="17.7155559">
        <ele>31.8607</ele>
        <time>2014-06-17T12:17:42Z</time>
      </trkpt>
      <trkpt lat="59.9042751" lon="17.7155543">
        <ele>31.3801</ele>
        <time>2014-06-17T12:17:43Z</time>
      </trkpt>
      <trkpt lat="59.9042524" lon="17.7155595">
        <ele>30.8995</ele>
        <time>2014-06-17T12:17:44Z</time>
      </trkpt>
      <trkpt lat="59.9042283" lon="17.7155619">
        <ele>30.4188</ele>
        <time>2014-06-17T12:17:45Z</time>
      </trkpt>
      <trkpt lat="59.904207" lon="17.7155626">
        <ele>29.4575</ele>
        <time>2014-06-17T12:17:46Z</time>
      </trkpt>
      <trkpt lat="59.9041861" lon="17.7155642">
        <ele>29.4575</ele>
        <time>2014-06-17T12:17:47Z</time>
      </trkpt>
      <trkpt lat="59.9041643" lon="17.7155754">
        <ele>28.9769</ele>
        <time>2014-06-17T12:17:48Z</time>
      </trkpt>
      <trkpt lat="59.9041433" lon="17.7155969">
        <ele>28.4962</ele>
        <time>2014-06-17T12:17:49Z</time>
      </trkpt>
      <trkpt lat="59.9041243" lon="17.715622">
        <ele>28.4962</ele>
        <time>2014-06-17T12:17:50Z</time>
      </trkpt>
      <trkpt lat="59.9041075" lon="17.7156533">
        <ele>28.4962</ele>
        <time>2014-06-17T12:17:51Z</time>
      </trkpt>
      <trkpt lat="59.9040928" lon="17.7156914">
        <ele>28.0155</ele>
        <time>2014-06-17T12:17:52Z</time>
      </trkpt>
      <trkpt lat="59.9040769" lon="17.7157226">
        <ele>28.0155</ele>
        <time>2014-06-17T12:17:53Z</time>
      </trkpt>
      <trkpt lat="59.9040572" lon="17.7157579">
        <ele>28.0155</ele>
        <time>2014-06-17T12:17:54Z</time>
      </trkpt>
      <trkpt lat="59.9040321" lon="17.7157955">
        <ele>27.5349</ele>
        <time>2014-06-17T12:17:55Z</time>
      </trkpt>
      <trkpt lat="59.9040081" lon="17.7158247">
        <ele>27.5349</ele>
        <time>2014-06-17T12:17:56Z</time>
      </trkpt>
      <trkpt lat="59.9039923" lon="17.7158556">
        <ele>27.0543</ele>
        <time>2014-06-17T12:17:57Z</time>
      </trkpt>
      <trkpt lat="59.9039757" lon="17.7158862">
        <ele>27.0543</ele>
        <time>2014-06-17T12:17:58Z</time>
      </trkpt>
      <trkpt lat="59.9039583" lon="17.7159278">
        <ele>27.5349</ele>
        <time>2014-06-17T12:17:59Z</time>
      </trkpt>
      <trkpt lat="59.9039536" lon="17.7159677">
        <ele>26.5736</ele>
        <time>2014-06-17T12:18:00Z</time>
      </trkpt>
      <trkpt lat="59.9039475" lon="17.7160148">
        <ele>25.1317</ele>
        <time>2014-06-17T12:18:01Z</time>
      </trkpt>
      <trkpt lat="59.903935" lon="17.7160537">
        <ele>25.1317</ele>
        <time>2014-06-17T12:18:02Z</time>
      </trkpt>
      <trkpt lat="59.9039159" lon="17.7160879">
        <ele>25.1317</ele>
        <time>2014-06-17T12:18:03Z</time>
      </trkpt>
      <trkpt lat="59.9038997" lon="17.7161185">
        <ele>25.6123</ele>
        <time>2014-06-17T12:18:04Z</time>
      </trkpt>
      <trkpt lat="59.9038842" lon="17.7161398">
        <ele>25.6123</ele>
        <time>2014-06-17T12:18:05Z</time>
      </trkpt>
      <trkpt lat="59.9038639" lon="17.7161547">
        <ele>26.0929</ele>
        <time>2014-06-17T12:18:06Z</time>
      </trkpt>
      <trkpt lat="59.9038438" lon="17.7161742">
        <ele>27.0543</ele>
        <time>2014-06-17T12:18:07Z</time>
      </trkpt>
      <trkpt lat="59.9038221" lon="17.7162102">
        <ele>27.0543</ele>
        <time>2014-06-17T12:18:08Z</time>
      </trkpt>
      <trkpt lat="59.9037956" lon="17.7162395">
        <ele>28.0155</ele>
        <time>2014-06-17T12:18:09Z</time>
      </trkpt>
      <trkpt lat="59.9037729" lon="17.7162434">
        <ele>28.4962</ele>
        <time>2014-06-17T12:18:10Z</time>
      </trkpt>
      <trkpt lat="59.9037496" lon="17.7162432">
        <ele>28.4962</ele>
        <time>2014-06-17T12:18:11Z</time>
      </trkpt>
      <trkpt lat="59.9037293" lon="17.7162365">
        <ele>28.9769</ele>
        <time>2014-06-17T12:18:12Z</time>
      </trkpt>
      <trkpt lat="59.9037126" lon="17.7162106">
        <ele>28.9769</ele>
        <time>2014-06-17T12:18:13Z</time>
      </trkpt>
      <trkpt lat="59.903695" lon="17.716166">
        <ele>29.4575</ele>
        <time>2014-06-17T12:18:14Z</time>
      </trkpt>
      <trkpt lat="59.9036818" lon="17.7161177">
        <ele>29.9381</ele>
        <time>2014-06-17T12:18:15Z</time>
      </trkpt>
      <trkpt lat="59.9036753" lon="17.7160667">
        <ele>30.4188</ele>
        <time>2014-06-17T12:18:16Z</time>
      </trkpt>
      <trkpt lat="59.9036681" lon="17.7160123">
        <ele>30.8995</ele>
        <time>2014-06-17T12:18:17Z</time>
      </trkpt>
      <trkpt lat="59.9036594" lon="17.715958">
        <ele>31.3801</ele>
        <time>2014-06-17T12:18:18Z</time>
      </trkpt>
      <trkpt lat="59.9036469" lon="17.7159065">
        <ele>31.8607</ele>
        <time>2014-06-17T12:18:19Z</time>
      </trkpt>
      <trkpt lat="59.9036314" lon="17.7158625">
        <ele>32.3416</ele>
        <time>2014-06-17T12:18:20Z</time>
      </trkpt>
      <trkpt lat="59.9036128" lon="17.71582">
        <ele>33.3029</ele>
        <time>2014-06-17T12:18:21Z</time>
      </trkpt>
      <trkpt lat="59.9035981" lon="17.7157811">
        <ele>33.3029</ele>
        <time>2014-06-17T12:18:22Z</time>
      </trkpt>
      <trkpt lat="59.9035791" lon="17.7157409">
        <ele>34.2642</ele>
        <time>2014-06-17T12:18:23Z</time>
      </trkpt>
      <trkpt lat="59.9035558" lon="17.7157081">
        <ele>34.2642</ele>
        <time>2014-06-17T12:18:24Z</time>
      </trkpt>
      <trkpt lat="59.9035294" lon="17.7156807">
        <ele>34.2642</ele>
        <time>2014-06-17T12:18:25Z</time>
      </trkpt>
      <trkpt lat="59.903506" lon="17.7156546">
        <ele>34.7449</ele>
        <time>2014-06-17T12:18:26Z</time>
      </trkpt>
      <trkpt lat="59.9034864" lon="17.7156249">
        <ele>35.2255</ele>
        <time>2014-06-17T12:18:27Z</time>
      </trkpt>
      <trkpt lat="59.9034718" lon="17.7155972">
        <ele>35.7061</ele>
        <time>2014-06-17T12:18:28Z</time>
      </trkpt>
      <trkpt lat="59.9034564" lon="17.7155688">
        <ele>35.7061</ele>
        <time>2014-06-17T12:18:29Z</time>
      </trkpt>
      <trkpt lat="59.9034364" lon="17.7155329">
        <ele>35.7061</ele>
        <time>2014-06-17T12:18:30Z</time>
      </trkpt>
      <trkpt lat="59.9034163" lon="17.7154931">
        <ele>35.7061</ele>
        <time>2014-06-17T12:18:31Z</time>
      </trkpt>
      <trkpt lat="59.903403" lon="17.7154586">
        <ele>35.7061</ele>
        <time>2014-06-17T12:18:32Z</time>
      </trkpt>
      <trkpt lat="59.903393" lon="17.7154327">
        <ele>35.7061</ele>
        <time>2014-06-17T12:18:33Z</time>
      </trkpt>
      <trkpt lat="59.90338" lon="17.7154046">
        <ele>35.7061</ele>
        <time>2014-06-17T12:18:34Z</time>
      </trkpt>
      <trkpt lat="59.9033647" lon="17.7153684">
        <ele>35.7061</ele>
        <time>2014-06-17T12:18:35Z</time>
      </trkpt>
      <trkpt lat="59.9033465" lon="17.7153326">
        <ele>36.1868</ele>
        <time>2014-06-17T12:18:36Z</time>
      </trkpt>
      <trkpt lat="59.9033264" lon="17.7152931">
        <ele>36.1868</ele>
        <time>2014-06-17T12:18:37Z</time>
      </trkpt>
      <trkpt lat="59.9033035" lon="17.7152579">
        <ele>36.1868</ele>
        <time>2014-06-17T12:18:38Z</time>
      </trkpt>
      <trkpt lat="59.9032813" lon="17.7152275">
        <ele>35.7061</ele>
        <time>2014-06-17T12:18:39Z</time>
      </trkpt>
      <trkpt lat="59.9032635" lon="17.7151965">
        <ele>35.7061</ele>
        <time>2014-06-17T12:18:40Z</time>
      </trkpt>
      <trkpt lat="59.9032445" lon="17.7151631">
        <ele>35.2255</ele>
        <time>2014-06-17T12:18:41Z</time>
      </trkpt>
      <trkpt lat="59.9032246" lon="17.7151306">
        <ele>34.7449</ele>
        <time>2014-06-17T12:18:42Z</time>
      </trkpt>
      <trkpt lat="59.9032033" lon="17.7151004">
        <ele>34.2642</ele>
        <time>2014-06-17T12:18:43Z</time>
      </trkpt>
      <trkpt lat="59.9031797" lon="17.7150726">
        <ele>34.2642</ele>
        <time>2014-06-17T12:18:44Z</time>
      </trkpt>
      <trkpt lat="59.9031531" lon="17.7150468">
        <ele>33.7834</ele>
        <time>2014-06-17T12:18:45Z</time>
      </trkpt>
      <trkpt lat="59.9031251" lon="17.7150213">
        <ele>34.2642</ele>
        <time>2014-06-17T12:18:46Z</time>
      </trkpt>
      <trkpt lat="59.903099" lon="17.7149985">
        <ele>33.7834</ele>
        <time>2014-06-17T12:18:47Z</time>
      </trkpt>
      <trkpt lat="59.9030704" lon="17.7149774">
        <ele>33.7834</ele>
        <time>2014-06-17T12:18:48Z</time>
      </trkpt>
      <trkpt lat="59.9030387" lon="17.7149585">
        <ele>33.7834</ele>
        <time>2014-06-17T12:18:49Z</time>
      </trkpt>
      <trkpt lat="59.9030102" lon="17.7149374">
        <ele>33.7834</ele>
        <time>2014-06-17T12:18:50Z</time>
      </trkpt>
      <trkpt lat="59.9029852" lon="17.7149119">
        <ele>33.7834</ele>
        <time>2014-06-17T12:18:51Z</time>
      </trkpt>
      <trkpt lat="59.9029588" lon="17.7148859">
        <ele>33.7834</ele>
        <time>2014-06-17T12:18:52Z</time>
      </trkpt>
      <trkpt lat="59.9029329" lon="17.7148592">
        <ele>33.7834</ele>
        <time>2014-06-17T12:18:53Z</time>
      </trkpt>
      <trkpt lat="59.9029084" lon="17.7148307">
        <ele>34.2642</ele>
        <time>2014-06-17T12:18:54Z</time>
      </trkpt>
      <trkpt lat="59.9028847" lon="17.7148077">
        <ele>34.2642</ele>
        <time>2014-06-17T12:18:55Z</time>
      </trkpt>
      <trkpt lat="59.9028596" lon="17.714797">
        <ele>34.2642</ele>
        <time>2014-06-17T12:18:56Z</time>
      </trkpt>
      <trkpt lat="59.9028378" lon="17.7147769">
        <ele>33.7834</ele>
        <time>2014-06-17T12:18:57Z</time>
      </trkpt>
      <trkpt lat="59.9028211" lon="17.7147486">
        <ele>33.7834</ele>
        <time>2014-06-17T12:18:58Z</time>
      </trkpt>
      <trkpt lat="59.9028043" lon="17.714723">
        <ele>33.3029</ele>
        <time>2014-06-17T12:18:59Z</time>
      </trkpt>
      <trkpt lat="59.9027864" lon="17.7146954">
        <ele>33.3029</ele>
        <time>2014-06-17T12:19:00Z</time>
      </trkpt>
      <trkpt lat="59.9027674" lon="17.7146654">
        <ele>33.3029</ele>
        <time>2014-06-17T12:19:01Z</time>
      </trkpt>
      <trkpt lat="59.9027452" lon="17.7146402">
        <ele>33.7834</ele>
        <time>2014-06-17T12:19:02Z</time>
      </trkpt>
      <trkpt lat="59.9027222" lon="17.714615">
        <ele>33.7834</ele>
        <time>2014-06-17T12:19:03Z</time>
      </trkpt>
      <trkpt lat="59.9027006" lon="17.7145826">
        <ele>33.3029</ele>
        <time>2014-06-17T12:19:04Z</time>
      </trkpt>
      <trkpt lat="59.9026784" lon="17.7145514">
        <ele>33.3029</ele>
        <time>2014-06-17T12:19:05Z</time>
      </trkpt>
      <trkpt lat="59.9026529" lon="17.7145231">
        <ele>33.7834</ele>
        <time>2014-06-17T12:19:06Z</time>
      </trkpt>
      <trkpt lat="59.902629" lon="17.7144982">
        <ele>34.2642</ele>
        <time>2014-06-17T12:19:07Z</time>
      </trkpt>
      <trkpt lat="59.9026068" lon="17.7144711">
        <ele>34.2642</ele>
        <time>2014-06-17T12:19:08Z</time>
      </trkpt>
      <trkpt lat="59.9025818" lon="17.7144436">
        <ele>34.2642</ele>
        <time>2014-06-17T12:19:09Z</time>
      </trkpt>
      <trkpt lat="59.9025589" lon="17.7144224">
        <ele>34.2642</ele>
        <time>2014-06-17T12:19:10Z</time>
      </trkpt>
      <trkpt lat="59.9025374" lon="17.7143972">
        <ele>34.2642</ele>
        <time>2014-06-17T12:19:11Z</time>
      </trkpt>
      <trkpt lat="59.9025156" lon="17.714371">
        <ele>34.2642</ele>
        <time>2014-06-17T12:19:12Z</time>
      </trkpt>
      <trkpt lat="59.9024949" lon="17.714342">
        <ele>34.2642</ele>
        <time>2014-06-17T12:19:13Z</time>
      </trkpt>
      <trkpt lat="59.9024741" lon="17.7143127">
        <ele>34.2642</ele>
        <time>2014-06-17T12:19:14Z</time>
      </trkpt>
      <trkpt lat="59.9024482" lon="17.7142907">
        <ele>34.7449</ele>
        <time>2014-06-17T12:19:15Z</time>
      </trkpt>
      <trkpt lat="59.902426" lon="17.7142644">
        <ele>34.7449</ele>
        <time>2014-06-17T12:19:16Z</time>
      </trkpt>
      <trkpt lat="59.9024049" lon="17.7142309">
        <ele>35.2255</ele>
        <time>2014-06-17T12:19:17Z</time>
      </trkpt>
      <trkpt lat="59.9023804" lon="17.714205">
        <ele>35.7061</ele>
        <time>2014-06-17T12:19:18Z</time>
      </trkpt>
      <trkpt lat="59.9023572" lon="17.7141805">
        <ele>36.1868</ele>
        <time>2014-06-17T12:19:19Z</time>
      </trkpt>
      <trkpt lat="59.9023367" lon="17.7141505">
        <ele>36.1868</ele>
        <time>2014-06-17T12:19:20Z</time>
      </trkpt>
      <trkpt lat="59.9023136" lon="17.7141229">
        <ele>36.1868</ele>
        <time>2014-06-17T12:19:21Z</time>
      </trkpt>
      <trkpt lat="59.9022883" lon="17.7141022">
        <ele>36.6675</ele>
        <time>2014-06-17T12:19:22Z</time>
      </trkpt>
      <trkpt lat="59.9022653" lon="17.7140816">
        <ele>37.1481</ele>
        <time>2014-06-17T12:19:23Z</time>
      </trkpt>
      <trkpt lat="59.9022434" lon="17.7140568">
        <ele>38.1094</ele>
        <time>2014-06-17T12:19:24Z</time>
      </trkpt>
      <trkpt lat="59.9022209" lon="17.7140348">
        <ele>38.5901</ele>
        <time>2014-06-17T12:19:25Z</time>
      </trkpt>
      <trkpt lat="59.9022008" lon="17.7140129">
        <ele>38.5901</ele>
        <time>2014-06-17T12:19:26Z</time>
      </trkpt>
      <trkpt lat="59.9021815" lon="17.7139848">
        <ele>39.0707</ele>
        <time>2014-06-17T12:19:27Z</time>
      </trkpt>
      <trkpt lat="59.9021603" lon="17.7139609">
        <ele>39.0707</ele>
        <time>2014-06-17T12:19:28Z</time>
      </trkpt>
      <trkpt lat="59.9021385" lon="17.7139366">
        <ele>39.5513</ele>
        <time>2014-06-17T12:19:29Z</time>
      </trkpt>
      <trkpt lat="59.9021173" lon="17.7139084">
        <ele>40.0321</ele>
        <time>2014-06-17T12:19:30Z</time>
      </trkpt>
      <trkpt lat="59.9020961" lon="17.7138851">
        <ele>40.0321</ele>
        <time>2014-06-17T12:19:31Z</time>
      </trkpt>
      <trkpt lat="59.9020737" lon="17.7138626">
        <ele>40.5128</ele>
        <time>2014-06-17T12:19:32Z</time>
      </trkpt>
      <trkpt lat="59.9020515" lon="17.7138377">
        <ele>40.5128</ele>
        <time>2014-06-17T12:19:33Z</time>
      </trkpt>
      <trkpt lat="59.9020333" lon="17.7138117">
        <ele>40.9934</ele>
        <time>2014-06-17T12:19:34Z</time>
      </trkpt>
      <trkpt lat="59.9020119" lon="17.7137852">
        <ele>40.9934</ele>
        <time>2014-06-17T12:19:35Z</time>
      </trkpt>
      <trkpt lat="59.9019853" lon="17.7137627">
        <ele>40.9934</ele>
        <time>2014-06-17T12:19:36Z</time>
      </trkpt>
      <trkpt lat="59.9019565" lon="17.7137435">
        <ele>41.474</ele>
        <time>2014-06-17T12:19:37Z</time>
      </trkpt>
      <trkpt lat="59.9019312" lon="17.7137183">
        <ele>41.474</ele>
        <time>2014-06-17T12:19:38Z</time>
      </trkpt>
      <trkpt lat="59.9019048" lon="17.7136987">
        <ele>41.9547</ele>
        <time>2014-06-17T12:19:39Z</time>
      </trkpt>
      <trkpt lat="59.9018786" lon="17.7136831">
        <ele>41.9547</ele>
        <time>2014-06-17T12:19:40Z</time>
      </trkpt>
      <trkpt lat="59.9018582" lon="17.7136532">
        <ele>42.4354</ele>
        <time>2014-06-17T12:19:41Z</time>
      </trkpt>
      <trkpt lat="59.9018348" lon="17.7136259">
        <ele>42.916</ele>
        <time>2014-06-17T12:19:42Z</time>
      </trkpt>
      <trkpt lat="59.9018091" lon="17.713602">
        <ele>42.916</ele>
        <time>2014-06-17T12:19:43Z</time>
      </trkpt>
      <trkpt lat="59.9017825" lon="17.7135781">
        <ele>43.8773</ele>
        <time>2014-06-17T12:19:44Z</time>
      </trkpt>
      <trkpt lat="59.9017572" lon="17.7135554">
        <ele>44.358</ele>
        <time>2014-06-17T12:19:45Z</time>
      </trkpt>
      <trkpt lat="59.9017333" lon="17.71353">
        <ele>44.8386</ele>
        <time>2014-06-17T12:19:46Z</time>
      </trkpt>
      <trkpt lat="59.9017063" lon="17.7135103">
        <ele>45.3192</ele>
        <time>2014-06-17T12:19:47Z</time>
      </trkpt>
      <trkpt lat="59.901681" lon="17.7134927">
        <ele>45.3192</ele>
        <time>2014-06-17T12:19:48Z</time>
      </trkpt>
      <trkpt lat="59.9016566" lon="17.7134709">
        <ele>46.2806</ele>
        <time>2014-06-17T12:19:49Z</time>
      </trkpt>
      <trkpt lat="59.9016355" lon="17.7134466">
        <ele>45.7999</ele>
        <time>2014-06-17T12:19:50Z</time>
      </trkpt>
      <trkpt lat="59.9016178" lon="17.7134175">
        <ele>45.7999</ele>
        <time>2014-06-17T12:19:51Z</time>
      </trkpt>
      <trkpt lat="59.9015997" lon="17.7133881">
        <ele>45.7999</ele>
        <time>2014-06-17T12:19:52Z</time>
      </trkpt>
      <trkpt lat="59.9015816" lon="17.7133569">
        <ele>45.7999</ele>
        <time>2014-06-17T12:19:53Z</time>
      </trkpt>
      <trkpt lat="59.9015615" lon="17.7133272">
        <ele>45.7999</ele>
        <time>2014-06-17T12:19:54Z</time>
      </trkpt>
      <trkpt lat="59.9015402" lon="17.7132974">
        <ele>45.7999</ele>
        <time>2014-06-17T12:19:55Z</time>
      </trkpt>
      <trkpt lat="59.9015196" lon="17.7132721">
        <ele>45.7999</ele>
        <time>2014-06-17T12:19:56Z</time>
      </trkpt>
      <trkpt lat="59.9014956" lon="17.7132547">
        <ele>46.2806</ele>
        <time>2014-06-17T12:19:57Z</time>
      </trkpt>
      <trkpt lat="59.9014681" lon="17.7132301">
        <ele>46.2806</ele>
        <time>2014-06-17T12:19:58Z</time>
      </trkpt>
      <trkpt lat="59.9014428" lon="17.7132025">
        <ele>46.7612</ele>
        <time>2014-06-17T12:19:59Z</time>
      </trkpt>
      <trkpt lat="59.9014184" lon="17.7131794">
        <ele>46.7612</ele>
        <time>2014-06-17T12:20:00Z</time>
      </trkpt>
      <trkpt lat="59.9013942" lon="17.7131529">
        <ele>46.7612</ele>
        <time>2014-06-17T12:20:01Z</time>
      </trkpt>
      <trkpt lat="59.9013687" lon="17.7131288">
        <ele>47.2418</ele>
        <time>2014-06-17T12:20:02Z</time>
      </trkpt>
      <trkpt lat="59.9013402" lon="17.7131109">
        <ele>47.7225</ele>
        <time>2014-06-17T12:20:03Z</time>
      </trkpt>
      <trkpt lat="59.9013168" lon="17.7130844">
        <ele>47.7225</ele>
        <time>2014-06-17T12:20:04Z</time>
      </trkpt>
      <trkpt lat="59.9012965" lon="17.713056">
        <ele>47.7225</ele>
        <time>2014-06-17T12:20:05Z</time>
      </trkpt>
      <trkpt lat="59.901277" lon="17.7130348">
        <ele>47.2418</ele>
        <time>2014-06-17T12:20:06Z</time>
      </trkpt>
      <trkpt lat="59.9012553" lon="17.7130131">
        <ele>47.7225</ele>
        <time>2014-06-17T12:20:07Z</time>
      </trkpt>
      <trkpt lat="59.901233" lon="17.7129918">
        <ele>47.7225</ele>
        <time>2014-06-17T12:20:08Z</time>
      </trkpt>
      <trkpt lat="59.9012096" lon="17.7129682">
        <ele>48.2034</ele>
        <time>2014-06-17T12:20:09Z</time>
      </trkpt>
      <trkpt lat="59.9011857" lon="17.7129462">
        <ele>48.2034</ele>
        <time>2014-06-17T12:20:10Z</time>
      </trkpt>
      <trkpt lat="59.9011652" lon="17.7129222">
        <ele>48.2034</ele>
        <time>2014-06-17T12:20:11Z</time>
      </trkpt>
      <trkpt lat="59.9011471" lon="17.7128934">
        <ele>48.2034</ele>
        <time>2014-06-17T12:20:12Z</time>
      </trkpt>
      <trkpt lat="59.9011271" lon="17.7128668">
        <ele>48.2034</ele>
        <time>2014-06-17T12:20:13Z</time>
      </trkpt>
      <trkpt lat="59.901105" lon="17.7128435">
        <ele>48.2034</ele>
        <time>2014-06-17T12:20:14Z</time>
      </trkpt>
      <trkpt lat="59.9010812" lon="17.7128187">
        <ele>47.7225</ele>
        <time>2014-06-17T12:20:15Z</time>
      </trkpt>
      <trkpt lat="59.9010586" lon="17.7127939">
        <ele>47.7225</ele>
        <time>2014-06-17T12:20:16Z</time>
      </trkpt>
      <trkpt lat="59.9010401" lon="17.7127678">
        <ele>47.7225</ele>
        <time>2014-06-17T12:20:17Z</time>
      </trkpt>
      <trkpt lat="59.9010192" lon="17.7127431">
        <ele>47.2418</ele>
        <time>2014-06-17T12:20:18Z</time>
      </trkpt>
      <trkpt lat="59.9009953" lon="17.7127219">
        <ele>47.2418</ele>
        <time>2014-06-17T12:20:19Z</time>
      </trkpt>
      <trkpt lat="59.9009707" lon="17.7127046">
        <ele>47.2418</ele>
        <time>2014-06-17T12:20:20Z</time>
      </trkpt>
      <trkpt lat="59.9009492" lon="17.7126922">
        <ele>46.7612</ele>
        <time>2014-06-17T12:20:21Z</time>
      </trkpt>
      <trkpt lat="59.9009384" lon="17.7127052">
        <ele>45.3192</ele>
        <time>2014-06-17T12:20:22Z</time>
      </trkpt>
      <trkpt lat="59.9009315" lon="17.7127452">
        <ele>44.358</ele>
        <time>2014-06-17T12:20:23Z</time>
      </trkpt>
      <trkpt lat="59.9009243" lon="17.7127927">
        <ele>42.4354</ele>
        <time>2014-06-17T12:20:24Z</time>
      </trkpt>
      <trkpt lat="59.900914" lon="17.7128347">
        <ele>41.474</ele>
        <time>2014-06-17T12:20:25Z</time>
      </trkpt>
      <trkpt lat="59.9009041" lon="17.7128834">
        <ele>40.5128</ele>
        <time>2014-06-17T12:20:26Z</time>
      </trkpt>
      <trkpt lat="59.9008942" lon="17.7129331">
        <ele>39.5513</ele>
        <time>2014-06-17T12:20:27Z</time>
      </trkpt>
      <trkpt lat="59.9008828" lon="17.712971">
        <ele>38.5901</ele>
        <time>2014-06-17T12:20:28Z</time>
      </trkpt>
      <trkpt lat="59.9008718" lon="17.7130081">
        <ele>38.1094</ele>
        <time>2014-06-17T12:20:29Z</time>
      </trkpt>
      <trkpt lat="59.9008616" lon="17.7130444">
        <ele>37.6287</ele>
        <time>2014-06-17T12:20:30Z</time>
      </trkpt>
      <trkpt lat="59.9008516" lon="17.713081">
        <ele>37.1481</ele>
        <time>2014-06-17T12:20:31Z</time>
      </trkpt>
      <trkpt lat="59.900841" lon="17.7131198">
        <ele>36.6675</ele>
        <time>2014-06-17T12:20:32Z</time>
      </trkpt>
      <trkpt lat="59.9008343" lon="17.7131699">
        <ele>36.1868</ele>
        <time>2014-06-17T12:20:33Z</time>
      </trkpt>
      <trkpt lat="59.9008274" lon="17.7132198">
        <ele>35.7061</ele>
        <time>2014-06-17T12:20:34Z</time>
      </trkpt>
      <trkpt lat="59.9008179" lon="17.7132606">
        <ele>35.2255</ele>
        <time>2014-06-17T12:20:35Z</time>
      </trkpt>
      <trkpt lat="59.9008083" lon="17.7133003">
        <ele>34.7449</ele>
        <time>2014-06-17T12:20:36Z</time>
      </trkpt>
      <trkpt lat="59.9007985" lon="17.7133398">
        <ele>34.7449</ele>
        <time>2014-06-17T12:20:37Z</time>
      </trkpt>
      <trkpt lat="59.9007874" lon="17.7133778">
        <ele>34.2642</ele>
        <time>2014-06-17T12:20:38Z</time>
      </trkpt>
      <trkpt lat="59.9007762" lon="17.7134155">
        <ele>33.7834</ele>
        <time>2014-06-17T12:20:39Z</time>
      </trkpt>
      <trkpt lat="59.9007666" lon="17.7134539">
        <ele>33.3029</ele>
        <time>2014-06-17T12:20:40Z</time>
      </trkpt>
      <trkpt lat="59.9007564" lon="17.7134978">
        <ele>33.3029</ele>
        <time>2014-06-17T12:20:41Z</time>
      </trkpt>
      <trkpt lat="59.9007466" lon="17.7135453">
        <ele>33.3029</ele>
        <time>2014-06-17T12:20:42Z</time>
      </trkpt>
      <trkpt lat="59.9007379" lon="17.713592">
        <ele>33.7834</ele>
        <time>2014-06-17T12:20:43Z</time>
      </trkpt>
      <trkpt lat="59.9007276" lon="17.7136356">
        <ele>33.3029</ele>
        <time>2014-06-17T12:20:44Z</time>
      </trkpt>
      <trkpt lat="59.900717" lon="17.7136767">
        <ele>33.3029</ele>
        <time>2014-06-17T12:20:45Z</time>
      </trkpt>
      <trkpt lat="59.9007062" lon="17.7137196">
        <ele>33.3029</ele>
        <time>2014-06-17T12:20:46Z</time>
      </trkpt>
      <trkpt lat="59.9006927" lon="17.7137678">
        <ele>33.3029</ele>
        <time>2014-06-17T12:20:47Z</time>
      </trkpt>
      <trkpt lat="59.9006822" lon="17.7138169">
        <ele>33.3029</ele>
        <time>2014-06-17T12:20:48Z</time>
      </trkpt>
      <trkpt lat="59.9006716" lon="17.713863">
        <ele>33.3029</ele>
        <time>2014-06-17T12:20:49Z</time>
      </trkpt>
      <trkpt lat="59.9006617" lon="17.713906">
        <ele>33.7834</ele>
        <time>2014-06-17T12:20:50Z</time>
      </trkpt>
      <trkpt lat="59.9006528" lon="17.7139484">
        <ele>33.3029</ele>
        <time>2014-06-17T12:20:51Z</time>
      </trkpt>
      <trkpt lat="59.9006407" lon="17.71399">
        <ele>33.3029</ele>
        <time>2014-06-17T12:20:52Z</time>
      </trkpt>
      <trkpt lat="59.9006289" lon="17.7140305">
        <ele>33.3029</ele>
        <time>2014-06-17T12:20:53Z</time>
      </trkpt>
      <trkpt lat="59.9006174" lon="17.7140723">
        <ele>33.3029</ele>
        <time>2014-06-17T12:20:54Z</time>
      </trkpt>
      <trkpt lat="59.9006043" lon="17.7141156">
        <ele>33.7834</ele>
        <time>2014-06-17T12:20:55Z</time>
      </trkpt>
      <trkpt lat="59.9005933" lon="17.7141557">
        <ele>33.7834</ele>
        <time>2014-06-17T12:20:56Z</time>
      </trkpt>
      <trkpt lat="59.9005812" lon="17.714199">
        <ele>33.7834</ele>
        <time>2014-06-17T12:20:57Z</time>
      </trkpt>
      <trkpt lat="59.9005695" lon="17.7142396">
        <ele>34.2642</ele>
        <time>2014-06-17T12:20:58Z</time>
      </trkpt>
      <trkpt lat="59.9005586" lon="17.7142801">
        <ele>34.7449</ele>
        <time>2014-06-17T12:20:59Z</time>
      </trkpt>
      <trkpt lat="59.9005464" lon="17.714323">
        <ele>34.7449</ele>
        <time>2014-06-17T12:21:00Z</time>
      </trkpt>
      <trkpt lat="59.9005327" lon="17.7143658">
        <ele>34.7449</ele>
        <time>2014-06-17T12:21:01Z</time>
      </trkpt>
      <trkpt lat="59.9005197" lon="17.71441">
        <ele>35.2255</ele>
        <time>2014-06-17T12:21:02Z</time>
      </trkpt>
      <trkpt lat="59.9005067" lon="17.7144532">
        <ele>35.7061</ele>
        <time>2014-06-17T12:21:03Z</time>
      </trkpt>
      <trkpt lat="59.9004905" lon="17.7144974">
        <ele>36.1868</ele>
        <time>2014-06-17T12:21:04Z</time>
      </trkpt>
      <trkpt lat="59.9004772" lon="17.7145396">
        <ele>36.6675</ele>
        <time>2014-06-17T12:21:05Z</time>
      </trkpt>
      <trkpt lat="59.9004653" lon="17.7145806">
        <ele>36.1868</ele>
        <time>2014-06-17T12:21:06Z</time>
      </trkpt>
      <trkpt lat="59.9004506" lon="17.7146286">
        <ele>36.6675</ele>
        <time>2014-06-17T12:21:07Z</time>
      </trkpt>
      <trkpt lat="59.9004368" lon="17.7146761">
        <ele>36.6675</ele>
        <time>2014-06-17T12:21:08Z</time>
      </trkpt>
      <trkpt lat="59.900426" lon="17.7147167">
        <ele>36.6675</ele>
        <time>2014-06-17T12:21:09Z</time>
      </trkpt>
      <trkpt lat="59.9004152" lon="17.7147578">
        <ele>37.1481</ele>
        <time>2014-06-17T12:21:10Z</time>
      </trkpt>
      <trkpt lat="59.9004047" lon="17.7148">
        <ele>37.1481</ele>
        <time>2014-06-17T12:21:11Z</time>
      </trkpt>
      <trkpt lat="59.9003923" lon="17.7148447">
        <ele>37.1481</ele>
        <time>2014-06-17T12:21:12Z</time>
      </trkpt>
      <trkpt lat="59.9003793" lon="17.714889">
        <ele>37.6287</ele>
        <time>2014-06-17T12:21:13Z</time>
      </trkpt>
      <trkpt lat="59.9003649" lon="17.7149349">
        <ele>37.6287</ele>
        <time>2014-06-17T12:21:14Z</time>
      </trkpt>
      <trkpt lat="59.9003527" lon="17.7149814">
        <ele>37.6287</ele>
        <time>2014-06-17T12:21:15Z</time>
      </trkpt>
      <trkpt lat="59.90034" lon="17.7150259">
        <ele>38.1094</ele>
        <time>2014-06-17T12:21:16Z</time>
      </trkpt>
      <trkpt lat="59.9003261" lon="17.7150673">
        <ele>38.5901</ele>
        <time>2014-06-17T12:21:17Z</time>
      </trkpt>
      <trkpt lat="59.9003157" lon="17.7151087">
        <ele>39.0707</ele>
        <time>2014-06-17T12:21:18Z</time>
      </trkpt>
      <trkpt lat="59.9003043" lon="17.7151565">
        <ele>39.5513</ele>
        <time>2014-06-17T12:21:19Z</time>
      </trkpt>
      <trkpt lat="59.9002897" lon="17.715213">
        <ele>40.0321</ele>
        <time>2014-06-17T12:21:20Z</time>
      </trkpt>
      <trkpt lat="59.9002736" lon="17.7152767">
        <ele>40.0321</ele>
        <time>2014-06-17T12:21:21Z</time>
      </trkpt>
      <trkpt lat="59.9002566" lon="17.7153399">
        <ele>40.5128</ele>
        <time>2014-06-17T12:21:22Z</time>
      </trkpt>
      <trkpt lat="59.9002391" lon="17.7154025">
        <ele>40.9934</ele>
        <time>2014-06-17T12:21:23Z</time>
      </trkpt>
      <trkpt lat="59.9002296" lon="17.7154524">
        <ele>41.474</ele>
        <time>2014-06-17T12:21:24Z</time>
      </trkpt>
      <trkpt lat="59.9002193" lon="17.7154967">
        <ele>42.4354</ele>
        <time>2014-06-17T12:21:25Z</time>
      </trkpt>
      <trkpt lat="59.9002066" lon="17.7155458">
        <ele>42.916</ele>
        <time>2014-06-17T12:21:26Z</time>
      </trkpt>
      <trkpt lat="59.900198" lon="17.7155918">
        <ele>42.916</ele>
        <time>2014-06-17T12:21:27Z</time>
      </trkpt>
      <trkpt lat="59.900187" lon="17.7156367">
        <ele>43.8773</ele>
        <time>2014-06-17T12:21:28Z</time>
      </trkpt>
      <trkpt lat="59.9001776" lon="17.7156823">
        <ele>44.358</ele>
        <time>2014-06-17T12:21:29Z</time>
      </trkpt>
      <trkpt lat="59.9001745" lon="17.7157243">
        <ele>44.8386</ele>
        <time>2014-06-17T12:21:30Z</time>
      </trkpt>
      <trkpt lat="59.9001663" lon="17.7157626">
        <ele>45.3192</ele>
        <time>2014-06-17T12:21:31Z</time>
      </trkpt>
      <trkpt lat="59.9001569" lon="17.715801">
        <ele>45.7999</ele>
        <time>2014-06-17T12:21:32Z</time>
      </trkpt>
      <trkpt lat="59.9001497" lon="17.7158403">
        <ele>46.2806</ele>
        <time>2014-06-17T12:21:33Z</time>
      </trkpt>
      <trkpt lat="59.9001447" lon="17.71588">
        <ele>46.7612</ele>
        <time>2014-06-17T12:21:34Z</time>
      </trkpt>
      <trkpt lat="59.9001426" lon="17.7159164">
        <ele>47.2418</ele>
        <time>2014-06-17T12:21:35Z</time>
      </trkpt>
      <trkpt lat="59.900137" lon="17.7159605">
        <ele>47.7225</ele>
        <time>2014-06-17T12:21:36Z</time>
      </trkpt>
      <trkpt lat="59.9001285" lon="17.716007">
        <ele>48.684</ele>
        <time>2014-06-17T12:21:37Z</time>
      </trkpt>
      <trkpt lat="59.9001249" lon="17.7160459">
        <ele>48.684</ele>
        <time>2014-06-17T12:21:38Z</time>
      </trkpt>
      <trkpt lat="59.9001234" lon="17.7160872">
        <ele>48.684</ele>
        <time>2014-06-17T12:21:39Z</time>
      </trkpt>
      <trkpt lat="59.9001197" lon="17.7161319">
        <ele>49.1646</ele>
        <time>2014-06-17T12:21:40Z</time>
      </trkpt>
      <trkpt lat="59.900113" lon="17.7161747">
        <ele>49.6453</ele>
        <time>2014-06-17T12:21:41Z</time>
      </trkpt>
      <trkpt lat="59.9001109" lon="17.7162179">
        <ele>49.6453</ele>
        <time>2014-06-17T12:21:42Z</time>
      </trkpt>
      <trkpt lat="59.9001093" lon="17.7162638">
        <ele>50.126</ele>
        <time>2014-06-17T12:21:43Z</time>
      </trkpt>
      <trkpt lat="59.9001" lon="17.7163138">
        <ele>50.126</ele>
        <time>2014-06-17T12:21:44Z</time>
      </trkpt>
      <trkpt lat="59.9000894" lon="17.7163666">
        <ele>50.6066</ele>
        <time>2014-06-17T12:21:45Z</time>
      </trkpt>
      <trkpt lat="59.9000872" lon="17.7164142">
        <ele>50.126</ele>
        <time>2014-06-17T12:21:46Z</time>
      </trkpt>
      <trkpt lat="59.9000862" lon="17.7164594">
        <ele>50.6066</ele>
        <time>2014-06-17T12:21:47Z</time>
      </trkpt>
      <trkpt lat="59.90008" lon="17.7165062">
        <ele>50.6066</ele>
        <time>2014-06-17T12:21:48Z</time>
      </trkpt>
      <trkpt lat="59.9000722" lon="17.7165537">
        <ele>50.6066</ele>
        <time>2014-06-17T12:21:49Z</time>
      </trkpt>
      <trkpt lat="59.9000701" lon="17.716601">
        <ele>51.0872</ele>
        <time>2014-06-17T12:21:50Z</time>
      </trkpt>
      <trkpt lat="59.9000696" lon="17.7166477">
        <ele>51.0872</ele>
        <time>2014-06-17T12:21:51Z</time>
      </trkpt>
      <trkpt lat="59.9000688" lon="17.7166918">
        <ele>50.6066</ele>
        <time>2014-06-17T12:21:52Z</time>
      </trkpt>
      <trkpt lat="59.9000727" lon="17.7167261">
        <ele>49.6453</ele>
        <time>2014-06-17T12:21:53Z</time>
      </trkpt>
      <trkpt lat="59.9000748" lon="17.716767">
        <ele>49.1646</ele>
        <time>2014-06-17T12:21:54Z</time>
      </trkpt>
      <trkpt lat="59.9000727" lon="17.7168155">
        <ele>48.684</ele>
        <time>2014-06-17T12:21:55Z</time>
      </trkpt>
      <trkpt lat="59.9000711" lon="17.7168566">
        <ele>47.7225</ele>
        <time>2014-06-17T12:21:56Z</time>
      </trkpt>
      <trkpt lat="59.9000705" lon="17.7168984">
        <ele>47.2418</ele>
        <time>2014-06-17T12:21:57Z</time>
      </trkpt>
      <trkpt lat="59.9000614" lon="17.7169495">
        <ele>46.7612</ele>
        <time>2014-06-17T12:21:58Z</time>
      </trkpt>
      <trkpt lat="59.9000514" lon="17.7170006">
        <ele>46.2806</ele>
        <time>2014-06-17T12:21:59Z</time>
      </trkpt>
      <trkpt lat="59.9000464" lon="17.7170473">
        <ele>45.7999</ele>
        <time>2014-06-17T12:22:00Z</time>
      </trkpt>
      <trkpt lat="59.9000425" lon="17.7170902">
        <ele>45.7999</ele>
        <time>2014-06-17T12:22:01Z</time>
      </trkpt>
      <trkpt lat="59.9000367" lon="17.7171352">
        <ele>45.7999</ele>
        <time>2014-06-17T12:22:02Z</time>
      </trkpt>
      <trkpt lat="59.9000365" lon="17.7171812">
        <ele>45.7999</ele>
        <time>2014-06-17T12:22:03Z</time>
      </trkpt>
      <trkpt lat="59.9000378" lon="17.7172291">
        <ele>45.7999</ele>
        <time>2014-06-17T12:22:04Z</time>
      </trkpt>
      <trkpt lat="59.9000376" lon="17.7172772">
        <ele>45.7999</ele>
        <time>2014-06-17T12:22:05Z</time>
      </trkpt>
      <trkpt lat="59.900035" lon="17.7173242">
        <ele>45.7999</ele>
        <time>2014-06-17T12:22:06Z</time>
      </trkpt>
      <trkpt lat="59.9000302" lon="17.7173688">
        <ele>45.7999</ele>
        <time>2014-06-17T12:22:07Z</time>
      </trkpt>
      <trkpt lat="59.9000327" lon="17.7174143">
        <ele>46.2806</ele>
        <time>2014-06-17T12:22:08Z</time>
      </trkpt>
      <trkpt lat="59.9000285" lon="17.7174609">
        <ele>46.2806</ele>
        <time>2014-06-17T12:22:09Z</time>
      </trkpt>
      <trkpt lat="59.9000233" lon="17.7175078">
        <ele>45.7999</ele>
        <time>2014-06-17T12:22:10Z</time>
      </trkpt>
      <trkpt lat="59.9000212" lon="17.7175591">
        <ele>45.7999</ele>
        <time>2014-06-17T12:22:11Z</time>
      </trkpt>
      <trkpt lat="59.9000225" lon="17.7176058">
        <ele>46.2806</ele>
        <time>2014-06-17T12:22:12Z</time>
      </trkpt>
      <trkpt lat="59.9000238" lon="17.7176493">
        <ele>45.7999</ele>
        <time>2014-06-17T12:22:13Z</time>
      </trkpt>
      <trkpt lat="59.9000223" lon="17.7176917">
        <ele>46.2806</ele>
        <time>2014-06-17T12:22:14Z</time>
      </trkpt>
      <trkpt lat="59.9000194" lon="17.7177322">
        <ele>46.2806</ele>
        <time>2014-06-17T12:22:15Z</time>
      </trkpt>
      <trkpt lat="59.9000188" lon="17.7177735">
        <ele>46.2806</ele>
        <time>2014-06-17T12:22:16Z</time>
      </trkpt>
      <trkpt lat="59.9000114" lon="17.717816">
        <ele>46.2806</ele>
        <time>2014-06-17T12:22:17Z</time>
      </trkpt>
      <trkpt lat="59.9000022" lon="17.7178595">
        <ele>46.7612</ele>
        <time>2014-06-17T12:22:18Z</time>
      </trkpt>
      <trkpt lat="59.8999968" lon="17.717907">
        <ele>47.2418</ele>
        <time>2014-06-17T12:22:19Z</time>
      </trkpt>
      <trkpt lat="59.8999941" lon="17.7179549">
        <ele>47.2418</ele>
        <time>2014-06-17T12:22:20Z</time>
      </trkpt>
      <trkpt lat="59.8999888" lon="17.7179994">
        <ele>47.2418</ele>
        <time>2014-06-17T12:22:21Z</time>
      </trkpt>
      <trkpt lat="59.89998" lon="17.7180409">
        <ele>46.7612</ele>
        <time>2014-06-17T12:22:22Z</time>
      </trkpt>
      <trkpt lat="59.89997" lon="17.7180844">
        <ele>46.7612</ele>
        <time>2014-06-17T12:22:23Z</time>
      </trkpt>
      <trkpt lat="59.8999582" lon="17.7181318">
        <ele>46.2806</ele>
        <time>2014-06-17T12:22:24Z</time>
      </trkpt>
      <trkpt lat="59.8999466" lon="17.7181795">
        <ele>45.7999</ele>
        <time>2014-06-17T12:22:25Z</time>
      </trkpt>
      <trkpt lat="59.8999366" lon="17.7182226">
        <ele>45.3192</ele>
        <time>2014-06-17T12:22:26Z</time>
      </trkpt>
      <trkpt lat="59.8999271" lon="17.7182641">
        <ele>44.8386</ele>
        <time>2014-06-17T12:22:27Z</time>
      </trkpt>
      <trkpt lat="59.8999157" lon="17.7183056">
        <ele>44.358</ele>
        <time>2014-06-17T12:22:28Z</time>
      </trkpt>
      <trkpt lat="59.8999055" lon="17.7183437">
        <ele>43.8773</ele>
        <time>2014-06-17T12:22:29Z</time>
      </trkpt>
      <trkpt lat="59.8998972" lon="17.7183764">
        <ele>43.3966</ele>
        <time>2014-06-17T12:22:30Z</time>
      </trkpt>
      <trkpt lat="59.8998907" lon="17.7184071">
        <ele>42.916</ele>
        <time>2014-06-17T12:22:31Z</time>
      </trkpt>
      <trkpt lat="59.8998842" lon="17.7184397">
        <ele>42.4354</ele>
        <time>2014-06-17T12:22:32Z</time>
      </trkpt>
      <trkpt lat="59.8998769" lon="17.7184719">
        <ele>41.474</ele>
        <time>2014-06-17T12:22:33Z</time>
      </trkpt>
      <trkpt lat="59.8998658" lon="17.7185054">
        <ele>40.5128</ele>
        <time>2014-06-17T12:22:34Z</time>
      </trkpt>
      <trkpt lat="59.899855" lon="17.7185353">
        <ele>40.0321</ele>
        <time>2014-06-17T12:22:35Z</time>
      </trkpt>
      <trkpt lat="59.8998458" lon="17.7185685">
        <ele>39.0707</ele>
        <time>2014-06-17T12:22:36Z</time>
      </trkpt>
      <trkpt lat="59.8998364" lon="17.7186066">
        <ele>38.5901</ele>
        <time>2014-06-17T12:22:37Z</time>
      </trkpt>
      <trkpt lat="59.899829" lon="17.7186443">
        <ele>38.1094</ele>
        <time>2014-06-17T12:22:38Z</time>
      </trkpt>
      <trkpt lat="59.8998192" lon="17.7186826">
        <ele>37.1481</ele>
        <time>2014-06-17T12:22:39Z</time>
      </trkpt>
      <trkpt lat="59.8998105" lon="17.718719">
        <ele>36.1868</ele>
        <time>2014-06-17T12:22:40Z</time>
      </trkpt>
      <trkpt lat="59.8998038" lon="17.7187489">
        <ele>35.2255</ele>
        <time>2014-06-17T12:22:41Z</time>
      </trkpt>
      <trkpt lat="59.8997946" lon="17.7187858">
        <ele>34.7449</ele>
        <time>2014-06-17T12:22:42Z</time>
      </trkpt>
      <trkpt lat="59.8997883" lon="17.7188254">
        <ele>34.2642</ele>
        <time>2014-06-17T12:22:43Z</time>
      </trkpt>
      <trkpt lat="59.8997772" lon="17.7188637">
        <ele>34.2642</ele>
        <time>2014-06-17T12:22:44Z</time>
      </trkpt>
      <trkpt lat="59.8997654" lon="17.7189028">
        <ele>33.7834</ele>
        <time>2014-06-17T12:22:45Z</time>
      </trkpt>
      <trkpt lat="59.899753" lon="17.718944">
        <ele>34.2642</ele>
        <time>2014-06-17T12:22:46Z</time>
      </trkpt>
      <trkpt lat="59.8997423" lon="17.7189806">
        <ele>33.7834</ele>
        <time>2014-06-17T12:22:47Z</time>
      </trkpt>
      <trkpt lat="59.8997311" lon="17.7190141">
        <ele>33.3029</ele>
        <time>2014-06-17T12:22:48Z</time>
      </trkpt>
      <trkpt lat="59.899721" lon="17.719046">
        <ele>32.8223</ele>
        <time>2014-06-17T12:22:49Z</time>
      </trkpt>
      <trkpt lat="59.8997116" lon="17.7190804">
        <ele>32.3416</ele>
        <time>2014-06-17T12:22:50Z</time>
      </trkpt>
      <trkpt lat="59.8997016" lon="17.7191132">
        <ele>31.3801</ele>
        <time>2014-06-17T12:22:51Z</time>
      </trkpt>
      <trkpt lat="59.8996877" lon="17.7191478">
        <ele>30.8995</ele>
        <time>2014-06-17T12:22:52Z</time>
      </trkpt>
      <trkpt lat="59.8996727" lon="17.7191921">
        <ele>30.4188</ele>
        <time>2014-06-17T12:22:53Z</time>
      </trkpt>
      <trkpt lat="59.899664" lon="17.7192326">
        <ele>30.4188</ele>
        <time>2014-06-17T12:22:54Z</time>
      </trkpt>
      <trkpt lat="59.8996572" lon="17.7192649">
        <ele>29.9381</ele>
        <time>2014-06-17T12:22:55Z</time>
      </trkpt>
      <trkpt lat="59.8996506" lon="17.719297">
        <ele>29.9381</ele>
        <time>2014-06-17T12:22:56Z</time>
      </trkpt>
      <trkpt lat="59.8996426" lon="17.7193343">
        <ele>29.9381</ele>
        <time>2014-06-17T12:22:57Z</time>
      </trkpt>
      <trkpt lat="59.8996339" lon="17.719375">
        <ele>29.9381</ele>
        <time>2014-06-17T12:22:58Z</time>
      </trkpt>
      <trkpt lat="59.8996221" lon="17.7194212">
        <ele>29.9381</ele>
        <time>2014-06-17T12:22:59Z</time>
      </trkpt>
      <trkpt lat="59.8996049" lon="17.71947">
        <ele>30.4188</ele>
        <time>2014-06-17T12:23:00Z</time>
      </trkpt>
      <trkpt lat="59.8995888" lon="17.7195172">
        <ele>30.8995</ele>
        <time>2014-06-17T12:23:01Z</time>
      </trkpt>
      <trkpt lat="59.8995733" lon="17.7195612">
        <ele>31.3801</ele>
        <time>2014-06-17T12:23:02Z</time>
      </trkpt>
      <trkpt lat="59.8995567" lon="17.7196079">
        <ele>30.8995</ele>
        <time>2014-06-17T12:23:03Z</time>
      </trkpt>
      <trkpt lat="59.8995448" lon="17.7196637">
        <ele>30.4188</ele>
        <time>2014-06-17T12:23:04Z</time>
      </trkpt>
      <trkpt lat="59.8995354" lon="17.719714">
        <ele>30.8995</ele>
        <time>2014-06-17T12:23:05Z</time>
      </trkpt>
      <trkpt lat="59.8995246" lon="17.7197554">
        <ele>30.8995</ele>
        <time>2014-06-17T12:23:06Z</time>
      </trkpt>
      <trkpt lat="59.8995142" lon="17.7198073">
        <ele>30.8995</ele>
        <time>2014-06-17T12:23:07Z</time>
      </trkpt>
      <trkpt lat="59.8995059" lon="17.7198651">
        <ele>31.3801</ele>
        <time>2014-06-17T12:23:08Z</time>
      </trkpt>
      <trkpt lat="59.8994946" lon="17.719915">
        <ele>31.3801</ele>
        <time>2014-06-17T12:23:09Z</time>
      </trkpt>
      <trkpt lat="59.8994754" lon="17.7199667">
        <ele>32.3416</ele>
        <time>2014-06-17T12:23:10Z</time>
      </trkpt>
      <trkpt lat="59.8994603" lon="17.7200161">
        <ele>32.3416</ele>
        <time>2014-06-17T12:23:11Z</time>
      </trkpt>
      <trkpt lat="59.8994519" lon="17.7200657">
        <ele>32.3416</ele>
        <time>2014-06-17T12:23:12Z</time>
      </trkpt>
      <trkpt lat="59.8994437" lon="17.7201128">
        <ele>33.3029</ele>
        <time>2014-06-17T12:23:13Z</time>
      </trkpt>
      <trkpt lat="59.899436" lon="17.7201631">
        <ele>33.3029</ele>
        <time>2014-06-17T12:23:14Z</time>
      </trkpt>
      <trkpt lat="59.8994278" lon="17.720217">
        <ele>33.7834</ele>
        <time>2014-06-17T12:23:15Z</time>
      </trkpt>
      <trkpt lat="59.8994187" lon="17.7202668">
        <ele>34.2642</ele>
        <time>2014-06-17T12:23:16Z</time>
      </trkpt>
      <trkpt lat="59.8994138" lon="17.7203164">
        <ele>34.7449</ele>
        <time>2014-06-17T12:23:17Z</time>
      </trkpt>
      <trkpt lat="59.8994075" lon="17.7203701">
        <ele>34.7449</ele>
        <time>2014-06-17T12:23:18Z</time>
      </trkpt>
      <trkpt lat="59.8994004" lon="17.7204224">
        <ele>35.2255</ele>
        <time>2014-06-17T12:23:19Z</time>
      </trkpt>
      <trkpt lat="59.8993937" lon="17.720479">
        <ele>35.7061</ele>
        <time>2014-06-17T12:23:20Z</time>
      </trkpt>
      <trkpt lat="59.8993863" lon="17.7205343">
        <ele>36.1868</ele>
        <time>2014-06-17T12:23:21Z</time>
      </trkpt>
      <trkpt lat="59.8993783" lon="17.7205822">
        <ele>36.1868</ele>
        <time>2014-06-17T12:23:22Z</time>
      </trkpt>
      <trkpt lat="59.8993781" lon="17.7206234">
        <ele>36.6675</ele>
        <time>2014-06-17T12:23:23Z</time>
      </trkpt>
      <trkpt lat="59.8994061" lon="17.7206464">
        <ele>25.6123</ele>
        <time>2014-06-17T12:40:54Z</time>
      </trkpt>
      <trkpt lat="59.8993899" lon="17.7206433">
        <ele>25.6123</ele>
        <time>2014-06-17T12:40:55Z</time>
      </trkpt>
      <trkpt lat="59.8993752" lon="17.720628">
        <ele>25.6123</ele>
        <time>2014-06-17T12:40:56Z</time>
      </trkpt>
      <trkpt lat="59.8993641" lon="17.7205899">
        <ele>25.1317</ele>
        <time>2014-06-17T12:40:57Z</time>
      </trkpt>
      <trkpt lat="59.8993604" lon="17.7205318">
        <ele>25.6123</ele>
        <time>2014-06-17T12:40:58Z</time>
      </trkpt>
      <trkpt lat="59.89936" lon="17.7204676">
        <ele>25.6123</ele>
        <time>2014-06-17T12:40:59Z</time>
      </trkpt>
      <trkpt lat="59.8993615" lon="17.7203952">
        <ele>25.6123</ele>
        <time>2014-06-17T12:41:00Z</time>
      </trkpt>
      <trkpt lat="59.899364" lon="17.7203272">
        <ele>26.0929</ele>
        <time>2014-06-17T12:41:01Z</time>
      </trkpt>
      <trkpt lat="59.8993698" lon="17.7202667">
        <ele>25.6123</ele>
        <time>2014-06-17T12:41:02Z</time>
      </trkpt>
      <trkpt lat="59.8993775" lon="17.720205">
        <ele>25.1317</ele>
        <time>2014-06-17T12:41:03Z</time>
      </trkpt>
      <trkpt lat="59.8993894" lon="17.7201422">
        <ele>25.1317</ele>
        <time>2014-06-17T12:41:04Z</time>
      </trkpt>
      <trkpt lat="59.8994039" lon="17.7200775">
        <ele>25.1317</ele>
        <time>2014-06-17T12:41:05Z</time>
      </trkpt>
      <trkpt lat="59.8994187" lon="17.7200139">
        <ele>25.1317</ele>
        <time>2014-06-17T12:41:06Z</time>
      </trkpt>
      <trkpt lat="59.8994299" lon="17.7199517">
        <ele>24.651</ele>
        <time>2014-06-17T12:41:07Z</time>
      </trkpt>
      <trkpt lat="59.8994436" lon="17.7198911">
        <ele>24.651</ele>
        <time>2014-06-17T12:41:08Z</time>
      </trkpt>
      <trkpt lat="59.8994581" lon="17.7198362">
        <ele>24.1703</ele>
        <time>2014-06-17T12:41:09Z</time>
      </trkpt>
      <trkpt lat="59.8994719" lon="17.719778">
        <ele>24.1703</ele>
        <time>2014-06-17T12:41:10Z</time>
      </trkpt>
      <trkpt lat="59.8994856" lon="17.7197263">
        <ele>24.1703</ele>
        <time>2014-06-17T12:41:11Z</time>
      </trkpt>
      <trkpt lat="59.8995021" lon="17.7196732">
        <ele>24.1703</ele>
        <time>2014-06-17T12:41:12Z</time>
      </trkpt>
      <trkpt lat="59.8995162" lon="17.719619">
        <ele>24.1703</ele>
        <time>2014-06-17T12:41:13Z</time>
      </trkpt>
      <trkpt lat="59.8995292" lon="17.7195695">
        <ele>24.1703</ele>
        <time>2014-06-17T12:41:14Z</time>
      </trkpt>
      <trkpt lat="59.8995395" lon="17.7195176">
        <ele>24.651</ele>
        <time>2014-06-17T12:41:15Z</time>
      </trkpt>
      <trkpt lat="59.8995483" lon="17.7194662">
        <ele>24.1703</ele>
        <time>2014-06-17T12:41:16Z</time>
      </trkpt>
      <trkpt lat="59.8995565" lon="17.7194169">
        <ele>24.651</ele>
        <time>2014-06-17T12:41:17Z</time>
      </trkpt>
      <trkpt lat="59.8995687" lon="17.719369">
        <ele>24.1703</ele>
        <time>2014-06-17T12:41:18Z</time>
      </trkpt>
      <trkpt lat="59.8995824" lon="17.7193175">
        <ele>24.651</ele>
        <time>2014-06-17T12:41:19Z</time>
      </trkpt>
      <trkpt lat="59.8995956" lon="17.7192691">
        <ele>24.651</ele>
        <time>2014-06-17T12:41:20Z</time>
      </trkpt>
      <trkpt lat="59.8996101" lon="17.7192239">
        <ele>24.1703</ele>
        <time>2014-06-17T12:41:21Z</time>
      </trkpt>
      <trkpt lat="59.8996244" lon="17.7191759">
        <ele>24.1703</ele>
        <time>2014-06-17T12:41:22Z</time>
      </trkpt>
      <trkpt lat="59.899636" lon="17.7191256">
        <ele>24.1703</ele>
        <time>2014-06-17T12:41:23Z</time>
      </trkpt>
      <trkpt lat="59.8996496" lon="17.7190743">
        <ele>24.1703</ele>
        <time>2014-06-17T12:41:24Z</time>
      </trkpt>
      <trkpt lat="59.899667" lon="17.7190219">
        <ele>24.1703</ele>
        <time>2014-06-17T12:41:25Z</time>
      </trkpt>
      <trkpt lat="59.8996826" lon="17.7189702">
        <ele>24.1703</ele>
        <time>2014-06-17T12:41:26Z</time>
      </trkpt>
      <trkpt lat="59.8996934" lon="17.7189064">
        <ele>24.1703</ele>
        <time>2014-06-17T12:41:27Z</time>
      </trkpt>
      <trkpt lat="59.8997052" lon="17.718856">
        <ele>24.1703</ele>
        <time>2014-06-17T12:41:28Z</time>
      </trkpt>
      <trkpt lat="59.8997178" lon="17.7188013">
        <ele>25.1317</ele>
        <time>2014-06-17T12:41:29Z</time>
      </trkpt>
      <trkpt lat="59.8997318" lon="17.7187404">
        <ele>25.6123</ele>
        <time>2014-06-17T12:41:30Z</time>
      </trkpt>
      <trkpt lat="59.8997461" lon="17.7186936">
        <ele>25.6123</ele>
        <time>2014-06-17T12:41:31Z</time>
      </trkpt>
      <trkpt lat="59.8997583" lon="17.7186339">
        <ele>26.0929</ele>
        <time>2014-06-17T12:41:32Z</time>
      </trkpt>
      <trkpt lat="59.8997716" lon="17.7185738">
        <ele>26.0929</ele>
        <time>2014-06-17T12:41:33Z</time>
      </trkpt>
      <trkpt lat="59.8997867" lon="17.718521">
        <ele>26.0929</ele>
        <time>2014-06-17T12:41:34Z</time>
      </trkpt>
      <trkpt lat="59.8998017" lon="17.7184677">
        <ele>26.0929</ele>
        <time>2014-06-17T12:41:35Z</time>
      </trkpt>
      <trkpt lat="59.8998157" lon="17.7184122">
        <ele>26.5736</ele>
        <time>2014-06-17T12:41:36Z</time>
      </trkpt>
      <trkpt lat="59.8998303" lon="17.7183588">
        <ele>26.5736</ele>
        <time>2014-06-17T12:41:37Z</time>
      </trkpt>
      <trkpt lat="59.8998463" lon="17.7183133">
        <ele>26.5736</ele>
        <time>2014-06-17T12:41:38Z</time>
      </trkpt>
      <trkpt lat="59.899858" lon="17.7182706">
        <ele>26.5736</ele>
        <time>2014-06-17T12:41:39Z</time>
      </trkpt>
      <trkpt lat="59.8998695" lon="17.7182356">
        <ele>26.5736</ele>
        <time>2014-06-17T12:41:40Z</time>
      </trkpt>
      <trkpt lat="59.8998788" lon="17.7181939">
        <ele>26.0929</ele>
        <time>2014-06-17T12:41:41Z</time>
      </trkpt>
      <trkpt lat="59.8998896" lon="17.718154">
        <ele>26.0929</ele>
        <time>2014-06-17T12:41:42Z</time>
      </trkpt>
      <trkpt lat="59.8999055" lon="17.7181199">
        <ele>26.0929</ele>
        <time>2014-06-17T12:41:43Z</time>
      </trkpt>
      <trkpt lat="59.8999194" lon="17.7180859">
        <ele>26.0929</ele>
        <time>2014-06-17T12:41:44Z</time>
      </trkpt>
      <trkpt lat="59.8999301" lon="17.718047">
        <ele>25.6123</ele>
        <time>2014-06-17T12:41:45Z</time>
      </trkpt>
      <trkpt lat="59.8999417" lon="17.7180051">
        <ele>25.6123</ele>
        <time>2014-06-17T12:41:46Z</time>
      </trkpt>
      <trkpt lat="59.8999523" lon="17.7179663">
        <ele>25.6123</ele>
        <time>2014-06-17T12:41:47Z</time>
      </trkpt>
      <trkpt lat="59.8999639" lon="17.7179225">
        <ele>25.6123</ele>
        <time>2014-06-17T12:41:48Z</time>
      </trkpt>
      <trkpt lat="59.8999753" lon="17.7178735">
        <ele>25.6123</ele>
        <time>2014-06-17T12:41:49Z</time>
      </trkpt>
      <trkpt lat="59.8999835" lon="17.7178298">
        <ele>25.1317</ele>
        <time>2014-06-17T12:41:50Z</time>
      </trkpt>
      <trkpt lat="59.8999903" lon="17.7177897">
        <ele>24.651</ele>
        <time>2014-06-17T12:41:51Z</time>
      </trkpt>
      <trkpt lat="59.9000013" lon="17.7177485">
        <ele>24.1703</ele>
        <time>2014-06-17T12:41:52Z</time>
      </trkpt>
      <trkpt lat="59.900011" lon="17.7177029">
        <ele>24.1703</ele>
        <time>2014-06-17T12:41:53Z</time>
      </trkpt>
      <trkpt lat="59.9000205" lon="17.7176594">
        <ele>24.1703</ele>
        <time>2014-06-17T12:41:54Z</time>
      </trkpt>
      <trkpt lat="59.9000274" lon="17.7176119">
        <ele>24.1703</ele>
        <time>2014-06-17T12:41:55Z</time>
      </trkpt>
      <trkpt lat="59.9000324" lon="17.7175699">
        <ele>23.209</ele>
        <time>2014-06-17T12:41:56Z</time>
      </trkpt>
      <trkpt lat="59.9000385" lon="17.71752">
        <ele>23.209</ele>
        <time>2014-06-17T12:41:57Z</time>
      </trkpt>
      <trkpt lat="59.9000421" lon="17.7174709">
        <ele>23.209</ele>
        <time>2014-06-17T12:41:58Z</time>
      </trkpt>
      <trkpt lat="59.9000458" lon="17.7174148">
        <ele>23.209</ele>
        <time>2014-06-17T12:41:59Z</time>
      </trkpt>
      <trkpt lat="59.9000513" lon="17.7173635">
        <ele>23.209</ele>
        <time>2014-06-17T12:42:00Z</time>
      </trkpt>
      <trkpt lat="59.9000567" lon="17.7173097">
        <ele>23.6896</ele>
        <time>2014-06-17T12:42:01Z</time>
      </trkpt>
      <trkpt lat="59.9000609" lon="17.7172631">
        <ele>23.209</ele>
        <time>2014-06-17T12:42:02Z</time>
      </trkpt>
      <trkpt lat="59.9000701" lon="17.7172114">
        <ele>22.7283</ele>
        <time>2014-06-17T12:42:03Z</time>
      </trkpt>
      <trkpt lat="59.9000775" lon="17.7171528">
        <ele>22.7283</ele>
        <time>2014-06-17T12:42:04Z</time>
      </trkpt>
      <trkpt lat="59.9000841" lon="17.7170939">
        <ele>23.209</ele>
        <time>2014-06-17T12:42:05Z</time>
      </trkpt>
      <trkpt lat="59.9000876" lon="17.7170421">
        <ele>23.209</ele>
        <time>2014-06-17T12:42:06Z</time>
      </trkpt>
      <trkpt lat="59.9000887" lon="17.7169881">
        <ele>23.209</ele>
        <time>2014-06-17T12:42:07Z</time>
      </trkpt>
      <trkpt lat="59.9000896" lon="17.7169404">
        <ele>23.209</ele>
        <time>2014-06-17T12:42:08Z</time>
      </trkpt>
      <trkpt lat="59.9000888" lon="17.7168927">
        <ele>23.209</ele>
        <time>2014-06-17T12:42:09Z</time>
      </trkpt>
      <trkpt lat="59.9000917" lon="17.7168374">
        <ele>22.7283</ele>
        <time>2014-06-17T12:42:10Z</time>
      </trkpt>
      <trkpt lat="59.9000984" lon="17.7167815">
        <ele>22.7283</ele>
        <time>2014-06-17T12:42:11Z</time>
      </trkpt>
      <trkpt lat="59.9001012" lon="17.7167264">
        <ele>22.2476</ele>
        <time>2014-06-17T12:42:12Z</time>
      </trkpt>
      <trkpt lat="59.9001058" lon="17.7166713">
        <ele>22.2476</ele>
        <time>2014-06-17T12:42:13Z</time>
      </trkpt>
      <trkpt lat="59.9001096" lon="17.7166252">
        <ele>22.2476</ele>
        <time>2014-06-17T12:42:14Z</time>
      </trkpt>
      <trkpt lat="59.9001129" lon="17.7165738">
        <ele>22.2476</ele>
        <time>2014-06-17T12:42:15Z</time>
      </trkpt>
      <trkpt lat="59.9001181" lon="17.7165159">
        <ele>22.2476</ele>
        <time>2014-06-17T12:42:16Z</time>
      </trkpt>
      <trkpt lat="59.9001225" lon="17.7164622">
        <ele>22.2476</ele>
        <time>2014-06-17T12:42:17Z</time>
      </trkpt>
      <trkpt lat="59.900125" lon="17.7164054">
        <ele>22.7283</ele>
        <time>2014-06-17T12:42:18Z</time>
      </trkpt>
      <trkpt lat="59.9001281" lon="17.7163503">
        <ele>22.7283</ele>
        <time>2014-06-17T12:42:19Z</time>
      </trkpt>
      <trkpt lat="59.9001313" lon="17.7162961">
        <ele>22.7283</ele>
        <time>2014-06-17T12:42:20Z</time>
      </trkpt>
      <trkpt lat="59.9001327" lon="17.7162454">
        <ele>22.7283</ele>
        <time>2014-06-17T12:42:21Z</time>
      </trkpt>
      <trkpt lat="59.9001328" lon="17.7161952">
        <ele>22.2476</ele>
        <time>2014-06-17T12:42:22Z</time>
      </trkpt>
      <trkpt lat="59.9001369" lon="17.7161501">
        <ele>22.7283</ele>
        <time>2014-06-17T12:42:23Z</time>
      </trkpt>
      <trkpt lat="59.90014" lon="17.716104">
        <ele>23.209</ele>
        <time>2014-06-17T12:42:24Z</time>
      </trkpt>
      <trkpt lat="59.9001426" lon="17.7160599">
        <ele>23.209</ele>
        <time>2014-06-17T12:42:25Z</time>
      </trkpt>
      <trkpt lat="59.9001472" lon="17.7160116">
        <ele>23.209</ele>
        <time>2014-06-17T12:42:26Z</time>
      </trkpt>
      <trkpt lat="59.9001555" lon="17.7159672">
        <ele>23.209</ele>
        <time>2014-06-17T12:42:27Z</time>
      </trkpt>
      <trkpt lat="59.9001632" lon="17.7159216">
        <ele>23.209</ele>
        <time>2014-06-17T12:42:28Z</time>
      </trkpt>
      <trkpt lat="59.9001697" lon="17.7158702">
        <ele>23.209</ele>
        <time>2014-06-17T12:42:29Z</time>
      </trkpt>
      <trkpt lat="59.9001763" lon="17.7158237">
        <ele>23.209</ele>
        <time>2014-06-17T12:42:30Z</time>
      </trkpt>
      <trkpt lat="59.9001814" lon="17.715777">
        <ele>23.209</ele>
        <time>2014-06-17T12:42:31Z</time>
      </trkpt>
      <trkpt lat="59.9001886" lon="17.7157258">
        <ele>22.7283</ele>
        <time>2014-06-17T12:42:32Z</time>
      </trkpt>
      <trkpt lat="59.9001961" lon="17.7156756">
        <ele>22.7283</ele>
        <time>2014-06-17T12:42:33Z</time>
      </trkpt>
      <trkpt lat="59.9002049" lon="17.715628">
        <ele>23.209</ele>
        <time>2014-06-17T12:42:34Z</time>
      </trkpt>
      <trkpt lat="59.9002156" lon="17.7155817">
        <ele>23.209</ele>
        <time>2014-06-17T12:42:35Z</time>
      </trkpt>
      <trkpt lat="59.900227" lon="17.7155346">
        <ele>23.209</ele>
        <time>2014-06-17T12:42:36Z</time>
      </trkpt>
      <trkpt lat="59.9002383" lon="17.7154835">
        <ele>23.209</ele>
        <time>2014-06-17T12:42:37Z</time>
      </trkpt>
      <trkpt lat="59.9002462" lon="17.7154374">
        <ele>23.209</ele>
        <time>2014-06-17T12:42:38Z</time>
      </trkpt>
      <trkpt lat="59.900254" lon="17.7153933">
        <ele>23.209</ele>
        <time>2014-06-17T12:42:39Z</time>
      </trkpt>
      <trkpt lat="59.90026" lon="17.7153475">
        <ele>22.7283</ele>
        <time>2014-06-17T12:42:40Z</time>
      </trkpt>
      <trkpt lat="59.9002663" lon="17.7153026">
        <ele>22.7283</ele>
        <time>2014-06-17T12:42:41Z</time>
      </trkpt>
      <trkpt lat="59.9002743" lon="17.7152592">
        <ele>22.7283</ele>
        <time>2014-06-17T12:42:42Z</time>
      </trkpt>
      <trkpt lat="59.9002835" lon="17.7152135">
        <ele>22.7283</ele>
        <time>2014-06-17T12:42:43Z</time>
      </trkpt>
      <trkpt lat="59.9002933" lon="17.7151691">
        <ele>22.7283</ele>
        <time>2014-06-17T12:42:44Z</time>
      </trkpt>
      <trkpt lat="59.9003032" lon="17.7151238">
        <ele>22.7283</ele>
        <time>2014-06-17T12:42:45Z</time>
      </trkpt>
      <trkpt lat="59.9003126" lon="17.7150783">
        <ele>22.7283</ele>
        <time>2014-06-17T12:42:46Z</time>
      </trkpt>
      <trkpt lat="59.9003216" lon="17.7150325">
        <ele>22.7283</ele>
        <time>2014-06-17T12:42:47Z</time>
      </trkpt>
      <trkpt lat="59.9003313" lon="17.7149882">
        <ele>22.7283</ele>
        <time>2014-06-17T12:42:48Z</time>
      </trkpt>
      <trkpt lat="59.9003416" lon="17.7149436">
        <ele>22.7283</ele>
        <time>2014-06-17T12:42:49Z</time>
      </trkpt>
      <trkpt lat="59.9003514" lon="17.7148981">
        <ele>22.7283</ele>
        <time>2014-06-17T12:42:50Z</time>
      </trkpt>
      <trkpt lat="59.9003633" lon="17.714855">
        <ele>22.7283</ele>
        <time>2014-06-17T12:42:51Z</time>
      </trkpt>
      <trkpt lat="59.9003747" lon="17.7148119">
        <ele>22.7283</ele>
        <time>2014-06-17T12:42:52Z</time>
      </trkpt>
      <trkpt lat="59.9003857" lon="17.7147707">
        <ele>22.7283</ele>
        <time>2014-06-17T12:42:53Z</time>
      </trkpt>
      <trkpt lat="59.9003962" lon="17.7147282">
        <ele>22.7283</ele>
        <time>2014-06-17T12:42:54Z</time>
      </trkpt>
      <trkpt lat="59.9004073" lon="17.7146841">
        <ele>22.7283</ele>
        <time>2014-06-17T12:42:55Z</time>
      </trkpt>
      <trkpt lat="59.9004208" lon="17.7146367">
        <ele>22.7283</ele>
        <time>2014-06-17T12:42:56Z</time>
      </trkpt>
      <trkpt lat="59.9004322" lon="17.7145933">
        <ele>22.7283</ele>
        <time>2014-06-17T12:42:57Z</time>
      </trkpt>
      <trkpt lat="59.900444" lon="17.7145494">
        <ele>22.2476</ele>
        <time>2014-06-17T12:42:58Z</time>
      </trkpt>
      <trkpt lat="59.9004572" lon="17.7145031">
        <ele>22.2476</ele>
        <time>2014-06-17T12:42:59Z</time>
      </trkpt>
      <trkpt lat="59.9004685" lon="17.7144615">
        <ele>22.2476</ele>
        <time>2014-06-17T12:43:00Z</time>
      </trkpt>
      <trkpt lat="59.9004803" lon="17.7144197">
        <ele>22.2476</ele>
        <time>2014-06-17T12:43:01Z</time>
      </trkpt>
      <trkpt lat="59.9004931" lon="17.714376">
        <ele>22.2476</ele>
        <time>2014-06-17T12:43:02Z</time>
      </trkpt>
      <trkpt lat="59.9005047" lon="17.7143347">
        <ele>22.2476</ele>
        <time>2014-06-17T12:43:03Z</time>
      </trkpt>
      <trkpt lat="59.9005171" lon="17.714294">
        <ele>22.2476</ele>
        <time>2014-06-17T12:43:04Z</time>
      </trkpt>
      <trkpt lat="59.9005292" lon="17.7142551">
        <ele>22.2476</ele>
        <time>2014-06-17T12:43:05Z</time>
      </trkpt>
      <trkpt lat="59.9005406" lon="17.7142153">
        <ele>22.2476</ele>
        <time>2014-06-17T12:43:06Z</time>
      </trkpt>
      <trkpt lat="59.9005529" lon="17.7141752">
        <ele>22.2476</ele>
        <time>2014-06-17T12:43:07Z</time>
      </trkpt>
      <trkpt lat="59.9005664" lon="17.7141322">
        <ele>22.2476</ele>
        <time>2014-06-17T12:43:08Z</time>
      </trkpt>
      <trkpt lat="59.9005803" lon="17.7140863">
        <ele>22.2476</ele>
        <time>2014-06-17T12:43:09Z</time>
      </trkpt>
      <trkpt lat="59.9005947" lon="17.7140405">
        <ele>22.2476</ele>
        <time>2014-06-17T12:43:10Z</time>
      </trkpt>
      <trkpt lat="59.9006088" lon="17.713994">
        <ele>22.2476</ele>
        <time>2014-06-17T12:43:11Z</time>
      </trkpt>
      <trkpt lat="59.9006233" lon="17.7139478">
        <ele>22.2476</ele>
        <time>2014-06-17T12:43:12Z</time>
      </trkpt>
      <trkpt lat="59.9006368" lon="17.7139056">
        <ele>22.2476</ele>
        <time>2014-06-17T12:43:13Z</time>
      </trkpt>
      <trkpt lat="59.9006495" lon="17.7138625">
        <ele>22.2476</ele>
        <time>2014-06-17T12:43:14Z</time>
      </trkpt>
      <trkpt lat="59.9006642" lon="17.713821">
        <ele>22.2476</ele>
        <time>2014-06-17T12:43:15Z</time>
      </trkpt>
      <trkpt lat="59.9006768" lon="17.7137831">
        <ele>22.2476</ele>
        <time>2014-06-17T12:43:16Z</time>
      </trkpt>
      <trkpt lat="59.9006896" lon="17.7137428">
        <ele>22.2476</ele>
        <time>2014-06-17T12:43:17Z</time>
      </trkpt>
      <trkpt lat="59.900704" lon="17.7137014">
        <ele>22.2476</ele>
        <time>2014-06-17T12:43:18Z</time>
      </trkpt>
      <trkpt lat="59.9007162" lon="17.7136588">
        <ele>22.2476</ele>
        <time>2014-06-17T12:43:19Z</time>
      </trkpt>
      <trkpt lat="59.9007294" lon="17.7136154">
        <ele>22.7283</ele>
        <time>2014-06-17T12:43:20Z</time>
      </trkpt>
      <trkpt lat="59.9007419" lon="17.713575">
        <ele>22.7283</ele>
        <time>2014-06-17T12:43:21Z</time>
      </trkpt>
      <trkpt lat="59.9007554" lon="17.7135347">
        <ele>22.7283</ele>
        <time>2014-06-17T12:43:22Z</time>
      </trkpt>
      <trkpt lat="59.9007703" lon="17.713494">
        <ele>22.7283</ele>
        <time>2014-06-17T12:43:23Z</time>
      </trkpt>
      <trkpt lat="59.9007849" lon="17.7134517">
        <ele>22.7283</ele>
        <time>2014-06-17T12:43:24Z</time>
      </trkpt>
      <trkpt lat="59.9008" lon="17.7134102">
        <ele>22.7283</ele>
        <time>2014-06-17T12:43:25Z</time>
      </trkpt>
      <trkpt lat="59.9008156" lon="17.7133641">
        <ele>22.7283</ele>
        <time>2014-06-17T12:43:26Z</time>
      </trkpt>
      <trkpt lat="59.9008306" lon="17.7133184">
        <ele>22.7283</ele>
        <time>2014-06-17T12:43:27Z</time>
      </trkpt>
      <trkpt lat="59.9008449" lon="17.7132766">
        <ele>22.7283</ele>
        <time>2014-06-17T12:43:28Z</time>
      </trkpt>
      <trkpt lat="59.9008564" lon="17.7132355">
        <ele>22.7283</ele>
        <time>2014-06-17T12:43:29Z</time>
      </trkpt>
      <trkpt lat="59.9008684" lon="17.7131943">
        <ele>23.209</ele>
        <time>2014-06-17T12:43:30Z</time>
      </trkpt>
      <trkpt lat="59.9008809" lon="17.7131554">
        <ele>23.209</ele>
        <time>2014-06-17T12:43:31Z</time>
      </trkpt>
      <trkpt lat="59.9008932" lon="17.7131146">
        <ele>23.209</ele>
        <time>2014-06-17T12:43:32Z</time>
      </trkpt>
      <trkpt lat="59.9009067" lon="17.7130745">
        <ele>23.209</ele>
        <time>2014-06-17T12:43:33Z</time>
      </trkpt>
      <trkpt lat="59.9009185" lon="17.7130348">
        <ele>22.7283</ele>
        <time>2014-06-17T12:43:34Z</time>
      </trkpt>
      <trkpt lat="59.9009315" lon="17.7129943">
        <ele>22.7283</ele>
        <time>2014-06-17T12:43:35Z</time>
      </trkpt>
      <trkpt lat="59.9009448" lon="17.7129545">
        <ele>22.7283</ele>
        <time>2014-06-17T12:43:36Z</time>
      </trkpt>
      <trkpt lat="59.9009569" lon="17.712913">
        <ele>22.7283</ele>
        <time>2014-06-17T12:43:37Z</time>
      </trkpt>
      <trkpt lat="59.9009702" lon="17.7128731">
        <ele>22.7283</ele>
        <time>2014-06-17T12:43:38Z</time>
      </trkpt>
      <trkpt lat="59.9009832" lon="17.7128296">
        <ele>22.7283</ele>
        <time>2014-06-17T12:43:39Z</time>
      </trkpt>
      <trkpt lat="59.9009973" lon="17.712785">
        <ele>22.7283</ele>
        <time>2014-06-17T12:43:40Z</time>
      </trkpt>
      <trkpt lat="59.9010142" lon="17.7127465">
        <ele>22.7283</ele>
        <time>2014-06-17T12:43:41Z</time>
      </trkpt>
      <trkpt lat="59.9010331" lon="17.7127144">
        <ele>22.7283</ele>
        <time>2014-06-17T12:43:42Z</time>
      </trkpt>
      <trkpt lat="59.9010541" lon="17.7126846">
        <ele>22.7283</ele>
        <time>2014-06-17T12:43:43Z</time>
      </trkpt>
      <trkpt lat="59.9010759" lon="17.7126571">
        <ele>22.7283</ele>
        <time>2014-06-17T12:43:44Z</time>
      </trkpt>
      <trkpt lat="59.9010987" lon="17.7126338">
        <ele>22.7283</ele>
        <time>2014-06-17T12:43:45Z</time>
      </trkpt>
      <trkpt lat="59.9011252" lon="17.7126227">
        <ele>22.2476</ele>
        <time>2014-06-17T12:43:46Z</time>
      </trkpt>
      <trkpt lat="59.9011491" lon="17.7126303">
        <ele>22.2476</ele>
        <time>2014-06-17T12:43:47Z</time>
      </trkpt>
      <trkpt lat="59.9011717" lon="17.7126488">
        <ele>22.2476</ele>
        <time>2014-06-17T12:43:48Z</time>
      </trkpt>
      <trkpt lat="59.9011953" lon="17.7126716">
        <ele>22.2476</ele>
        <time>2014-06-17T12:43:49Z</time>
      </trkpt>
      <trkpt lat="59.9012164" lon="17.7126916">
        <ele>22.2476</ele>
        <time>2014-06-17T12:43:50Z</time>
      </trkpt>
      <trkpt lat="59.9012398" lon="17.7127155">
        <ele>22.2476</ele>
        <time>2014-06-17T12:43:51Z</time>
      </trkpt>
      <trkpt lat="59.9012625" lon="17.7127427">
        <ele>22.2476</ele>
        <time>2014-06-17T12:43:52Z</time>
      </trkpt>
      <trkpt lat="59.9012838" lon="17.71277">
        <ele>22.2476</ele>
        <time>2014-06-17T12:43:53Z</time>
      </trkpt>
      <trkpt lat="59.9013076" lon="17.7127935">
        <ele>22.2476</ele>
        <time>2014-06-17T12:43:54Z</time>
      </trkpt>
      <trkpt lat="59.9013304" lon="17.7128182">
        <ele>22.2476</ele>
        <time>2014-06-17T12:43:55Z</time>
      </trkpt>
      <trkpt lat="59.9013523" lon="17.7128405">
        <ele>22.2476</ele>
        <time>2014-06-17T12:43:56Z</time>
      </trkpt>
      <trkpt lat="59.9013753" lon="17.7128643">
        <ele>22.2476</ele>
        <time>2014-06-17T12:43:57Z</time>
      </trkpt>
      <trkpt lat="59.901395" lon="17.7128928">
        <ele>22.2476</ele>
        <time>2014-06-17T12:43:58Z</time>
      </trkpt>
      <trkpt lat="59.9014141" lon="17.7129186">
        <ele>21.767</ele>
        <time>2014-06-17T12:43:59Z</time>
      </trkpt>
      <trkpt lat="59.9014374" lon="17.7129428">
        <ele>21.767</ele>
        <time>2014-06-17T12:44:00Z</time>
      </trkpt>
      <trkpt lat="59.9014587" lon="17.7129651">
        <ele>21.767</ele>
        <time>2014-06-17T12:44:01Z</time>
      </trkpt>
      <trkpt lat="59.9014802" lon="17.7129916">
        <ele>22.2476</ele>
        <time>2014-06-17T12:44:02Z</time>
      </trkpt>
      <trkpt lat="59.9014993" lon="17.7130185">
        <ele>22.7283</ele>
        <time>2014-06-17T12:44:03Z</time>
      </trkpt>
      <trkpt lat="59.9015194" lon="17.713042">
        <ele>23.209</ele>
        <time>2014-06-17T12:44:04Z</time>
      </trkpt>
      <trkpt lat="59.9015397" lon="17.7130688">
        <ele>23.209</ele>
        <time>2014-06-17T12:44:05Z</time>
      </trkpt>
      <trkpt lat="59.9015592" lon="17.7130959">
        <ele>23.6896</ele>
        <time>2014-06-17T12:44:06Z</time>
      </trkpt>
      <trkpt lat="59.9015806" lon="17.7131196">
        <ele>23.209</ele>
        <time>2014-06-17T12:44:07Z</time>
      </trkpt>
      <trkpt lat="59.9016017" lon="17.7131465">
        <ele>23.6896</ele>
        <time>2014-06-17T12:44:08Z</time>
      </trkpt>
      <trkpt lat="59.9016195" lon="17.7131694">
        <ele>23.209</ele>
        <time>2014-06-17T12:44:09Z</time>
      </trkpt>
      <trkpt lat="59.9016405" lon="17.7131936">
        <ele>23.209</ele>
        <time>2014-06-17T12:44:10Z</time>
      </trkpt>
      <trkpt lat="59.9016602" lon="17.7132227">
        <ele>22.7283</ele>
        <time>2014-06-17T12:44:11Z</time>
      </trkpt>
      <trkpt lat="59.9016793" lon="17.7132487">
        <ele>22.7283</ele>
        <time>2014-06-17T12:44:12Z</time>
      </trkpt>
      <trkpt lat="59.9016991" lon="17.7132764">
        <ele>23.209</ele>
        <time>2014-06-17T12:44:13Z</time>
      </trkpt>
      <trkpt lat="59.9017164" lon="17.713305">
        <ele>22.7283</ele>
        <time>2014-06-17T12:44:14Z</time>
      </trkpt>
      <trkpt lat="59.9017376" lon="17.7133306">
        <ele>22.7283</ele>
        <time>2014-06-17T12:44:15Z</time>
      </trkpt>
      <trkpt lat="59.9017594" lon="17.7133595">
        <ele>22.7283</ele>
        <time>2014-06-17T12:44:16Z</time>
      </trkpt>
      <trkpt lat="59.9017806" lon="17.7133897">
        <ele>23.209</ele>
        <time>2014-06-17T12:44:17Z</time>
      </trkpt>
      <trkpt lat="59.9018024" lon="17.7134144">
        <ele>23.209</ele>
        <time>2014-06-17T12:44:18Z</time>
      </trkpt>
      <trkpt lat="59.9018276" lon="17.7134373">
        <ele>23.209</ele>
        <time>2014-06-17T12:44:19Z</time>
      </trkpt>
      <trkpt lat="59.9018514" lon="17.7134629">
        <ele>23.6896</ele>
        <time>2014-06-17T12:44:20Z</time>
      </trkpt>
      <trkpt lat="59.9018758" lon="17.7134891">
        <ele>23.6896</ele>
        <time>2014-06-17T12:44:21Z</time>
      </trkpt>
      <trkpt lat="59.9018979" lon="17.7135154">
        <ele>24.1703</ele>
        <time>2014-06-17T12:44:22Z</time>
      </trkpt>
      <trkpt lat="59.9019199" lon="17.7135414">
        <ele>24.651</ele>
        <time>2014-06-17T12:44:23Z</time>
      </trkpt>
      <trkpt lat="59.9019428" lon="17.7135651">
        <ele>24.651</ele>
        <time>2014-06-17T12:44:24Z</time>
      </trkpt>
      <trkpt lat="59.9019634" lon="17.7135862">
        <ele>24.651</ele>
        <time>2014-06-17T12:44:25Z</time>
      </trkpt>
      <trkpt lat="59.9019845" lon="17.7136132">
        <ele>25.1317</ele>
        <time>2014-06-17T12:44:26Z</time>
      </trkpt>
      <trkpt lat="59.902009" lon="17.7136381">
        <ele>25.6123</ele>
        <time>2014-06-17T12:44:27Z</time>
      </trkpt>
      <trkpt lat="59.9020332" lon="17.7136641">
        <ele>26.0929</ele>
        <time>2014-06-17T12:44:28Z</time>
      </trkpt>
      <trkpt lat="59.9020582" lon="17.7136909">
        <ele>26.0929</ele>
        <time>2014-06-17T12:44:29Z</time>
      </trkpt>
      <trkpt lat="59.9020837" lon="17.7137162">
        <ele>26.5736</ele>
        <time>2014-06-17T12:44:30Z</time>
      </trkpt>
      <trkpt lat="59.9021088" lon="17.7137416">
        <ele>26.5736</ele>
        <time>2014-06-17T12:44:31Z</time>
      </trkpt>
      <trkpt lat="59.9021333" lon="17.7137681">
        <ele>26.5736</ele>
        <time>2014-06-17T12:44:32Z</time>
      </trkpt>
      <trkpt lat="59.9021533" lon="17.7137931">
        <ele>27.0543</ele>
        <time>2014-06-17T12:44:33Z</time>
      </trkpt>
      <trkpt lat="59.9021748" lon="17.7138165">
        <ele>27.5349</ele>
        <time>2014-06-17T12:44:34Z</time>
      </trkpt>
      <trkpt lat="59.9021942" lon="17.7138422">
        <ele>27.5349</ele>
        <time>2014-06-17T12:44:35Z</time>
      </trkpt>
      <trkpt lat="59.9022148" lon="17.7138687">
        <ele>27.5349</ele>
        <time>2014-06-17T12:44:36Z</time>
      </trkpt>
      <trkpt lat="59.9022395" lon="17.7138906">
        <ele>27.5349</ele>
        <time>2014-06-17T12:44:37Z</time>
      </trkpt>
      <trkpt lat="59.9022601" lon="17.7139174">
        <ele>27.5349</ele>
        <time>2014-06-17T12:44:38Z</time>
      </trkpt>
      <trkpt lat="59.9022792" lon="17.7139445">
        <ele>27.5349</ele>
        <time>2014-06-17T12:44:39Z</time>
      </trkpt>
      <trkpt lat="59.9022991" lon="17.7139724">
        <ele>27.5349</ele>
        <time>2014-06-17T12:44:40Z</time>
      </trkpt>
      <trkpt lat="59.9023177" lon="17.7140014">
        <ele>28.0155</ele>
        <time>2014-06-17T12:44:41Z</time>
      </trkpt>
      <trkpt lat="59.9023383" lon="17.7140255">
        <ele>27.5349</ele>
        <time>2014-06-17T12:44:42Z</time>
      </trkpt>
      <trkpt lat="59.9023588" lon="17.7140506">
        <ele>27.5349</ele>
        <time>2014-06-17T12:44:43Z</time>
      </trkpt>
      <trkpt lat="59.9023778" lon="17.7140738">
        <ele>27.5349</ele>
        <time>2014-06-17T12:44:44Z</time>
      </trkpt>
      <trkpt lat="59.9023964" lon="17.7141001">
        <ele>27.5349</ele>
        <time>2014-06-17T12:44:45Z</time>
      </trkpt>
      <trkpt lat="59.9024167" lon="17.7141298">
        <ele>27.5349</ele>
        <time>2014-06-17T12:44:46Z</time>
      </trkpt>
      <trkpt lat="59.9024405" lon="17.7141569">
        <ele>28.0155</ele>
        <time>2014-06-17T12:44:47Z</time>
      </trkpt>
      <trkpt lat="59.9024646" lon="17.7141815">
        <ele>28.0155</ele>
        <time>2014-06-17T12:44:48Z</time>
      </trkpt>
      <trkpt lat="59.9024866" lon="17.7142085">
        <ele>28.4962</ele>
        <time>2014-06-17T12:44:49Z</time>
      </trkpt>
      <trkpt lat="59.9025045" lon="17.7142423">
        <ele>28.4962</ele>
        <time>2014-06-17T12:44:50Z</time>
      </trkpt>
      <trkpt lat="59.9025248" lon="17.7142712">
        <ele>28.4962</ele>
        <time>2014-06-17T12:44:51Z</time>
      </trkpt>
      <trkpt lat="59.9025461" lon="17.7142966">
        <ele>28.4962</ele>
        <time>2014-06-17T12:44:52Z</time>
      </trkpt>
      <trkpt lat="59.902566" lon="17.7143221">
        <ele>28.0155</ele>
        <time>2014-06-17T12:44:53Z</time>
      </trkpt>
      <trkpt lat="59.9025897" lon="17.7143454">
        <ele>28.4962</ele>
        <time>2014-06-17T12:44:54Z</time>
      </trkpt>
      <trkpt lat="59.9026094" lon="17.7143712">
        <ele>28.0155</ele>
        <time>2014-06-17T12:44:55Z</time>
      </trkpt>
      <trkpt lat="59.9026278" lon="17.7143888">
        <ele>28.4962</ele>
        <time>2014-06-17T12:44:56Z</time>
      </trkpt>
      <trkpt lat="59.9026482" lon="17.7144076">
        <ele>28.4962</ele>
        <time>2014-06-17T12:44:57Z</time>
      </trkpt>
      <trkpt lat="59.9026708" lon="17.7144329">
        <ele>28.4962</ele>
        <time>2014-06-17T12:44:58Z</time>
      </trkpt>
      <trkpt lat="59.9026897" lon="17.7144603">
        <ele>28.9769</ele>
        <time>2014-06-17T12:44:59Z</time>
      </trkpt>
      <trkpt lat="59.9027136" lon="17.7144879">
        <ele>29.4575</ele>
        <time>2014-06-17T12:45:00Z</time>
      </trkpt>
      <trkpt lat="59.9027332" lon="17.7145166">
        <ele>28.9769</ele>
        <time>2014-06-17T12:45:01Z</time>
      </trkpt>
      <trkpt lat="59.9027569" lon="17.714538">
        <ele>29.4575</ele>
        <time>2014-06-17T12:45:02Z</time>
      </trkpt>
      <trkpt lat="59.9027766" lon="17.7145648">
        <ele>29.4575</ele>
        <time>2014-06-17T12:45:03Z</time>
      </trkpt>
      <trkpt lat="59.9027958" lon="17.7145939">
        <ele>28.9769</ele>
        <time>2014-06-17T12:45:04Z</time>
      </trkpt>
      <trkpt lat="59.9028151" lon="17.7146219">
        <ele>28.4962</ele>
        <time>2014-06-17T12:45:05Z</time>
      </trkpt>
      <trkpt lat="59.9028345" lon="17.7146512">
        <ele>28.4962</ele>
        <time>2014-06-17T12:45:06Z</time>
      </trkpt>
      <trkpt lat="59.9028522" lon="17.7146756">
        <ele>28.4962</ele>
        <time>2014-06-17T12:45:07Z</time>
      </trkpt>
      <trkpt lat="59.9028705" lon="17.7147033">
        <ele>28.4962</ele>
        <time>2014-06-17T12:45:08Z</time>
      </trkpt>
      <trkpt lat="59.9028915" lon="17.7147327">
        <ele>28.4962</ele>
        <time>2014-06-17T12:45:09Z</time>
      </trkpt>
      <trkpt lat="59.9029128" lon="17.7147565">
        <ele>28.4962</ele>
        <time>2014-06-17T12:45:10Z</time>
      </trkpt>
      <trkpt lat="59.9029336" lon="17.7147846">
        <ele>28.4962</ele>
        <time>2014-06-17T12:45:11Z</time>
      </trkpt>
      <trkpt lat="59.9029529" lon="17.7148116">
        <ele>28.4962</ele>
        <time>2014-06-17T12:45:12Z</time>
      </trkpt>
      <trkpt lat="59.9029718" lon="17.7148368">
        <ele>28.0155</ele>
        <time>2014-06-17T12:45:13Z</time>
      </trkpt>
      <trkpt lat="59.9029931" lon="17.7148639">
        <ele>28.4962</ele>
        <time>2014-06-17T12:45:14Z</time>
      </trkpt>
      <trkpt lat="59.9030134" lon="17.7148892">
        <ele>28.4962</ele>
        <time>2014-06-17T12:45:15Z</time>
      </trkpt>
      <trkpt lat="59.9030337" lon="17.7149136">
        <ele>28.4962</ele>
        <time>2014-06-17T12:45:16Z</time>
      </trkpt>
      <trkpt lat="59.9030569" lon="17.7149349">
        <ele>28.9769</ele>
        <time>2014-06-17T12:45:17Z</time>
      </trkpt>
      <trkpt lat="59.9030772" lon="17.714957">
        <ele>28.4962</ele>
        <time>2014-06-17T12:45:18Z</time>
      </trkpt>
      <trkpt lat="59.903101" lon="17.7149798">
        <ele>28.9769</ele>
        <time>2014-06-17T12:45:19Z</time>
      </trkpt>
      <trkpt lat="59.9031225" lon="17.7150025">
        <ele>28.9769</ele>
        <time>2014-06-17T12:45:20Z</time>
      </trkpt>
      <trkpt lat="59.9031456" lon="17.7150276">
        <ele>29.4575</ele>
        <time>2014-06-17T12:45:21Z</time>
      </trkpt>
      <trkpt lat="59.9031678" lon="17.7150532">
        <ele>29.4575</ele>
        <time>2014-06-17T12:45:22Z</time>
      </trkpt>
      <trkpt lat="59.9031886" lon="17.7150762">
        <ele>29.4575</ele>
        <time>2014-06-17T12:45:23Z</time>
      </trkpt>
      <trkpt lat="59.9032093" lon="17.7151078">
        <ele>29.4575</ele>
        <time>2014-06-17T12:45:24Z</time>
      </trkpt>
      <trkpt lat="59.9032299" lon="17.7151373">
        <ele>29.4575</ele>
        <time>2014-06-17T12:45:25Z</time>
      </trkpt>
      <trkpt lat="59.9032501" lon="17.7151684">
        <ele>29.4575</ele>
        <time>2014-06-17T12:45:26Z</time>
      </trkpt>
      <trkpt lat="59.9032697" lon="17.715202">
        <ele>29.4575</ele>
        <time>2014-06-17T12:45:27Z</time>
      </trkpt>
      <trkpt lat="59.903289" lon="17.715228">
        <ele>29.4575</ele>
        <time>2014-06-17T12:45:28Z</time>
      </trkpt>
      <trkpt lat="59.9033072" lon="17.7152587">
        <ele>28.9769</ele>
        <time>2014-06-17T12:45:29Z</time>
      </trkpt>
      <trkpt lat="59.9033274" lon="17.7152897">
        <ele>28.9769</ele>
        <time>2014-06-17T12:45:30Z</time>
      </trkpt>
      <trkpt lat="59.9033451" lon="17.7153231">
        <ele>28.9769</ele>
        <time>2014-06-17T12:45:31Z</time>
      </trkpt>
      <trkpt lat="59.903362" lon="17.7153588">
        <ele>28.9769</ele>
        <time>2014-06-17T12:45:32Z</time>
      </trkpt>
      <trkpt lat="59.903378" lon="17.7153908">
        <ele>28.4962</ele>
        <time>2014-06-17T12:45:33Z</time>
      </trkpt>
      <trkpt lat="59.9033978" lon="17.7154207">
        <ele>28.4962</ele>
        <time>2014-06-17T12:45:34Z</time>
      </trkpt>
      <trkpt lat="59.9034126" lon="17.7154568">
        <ele>28.0155</ele>
        <time>2014-06-17T12:45:35Z</time>
      </trkpt>
      <trkpt lat="59.9034282" lon="17.7154902">
        <ele>27.5349</ele>
        <time>2014-06-17T12:45:36Z</time>
      </trkpt>
      <trkpt lat="59.9034475" lon="17.7155241">
        <ele>28.0155</ele>
        <time>2014-06-17T12:45:37Z</time>
      </trkpt>
      <trkpt lat="59.9034651" lon="17.7155547">
        <ele>28.0155</ele>
        <time>2014-06-17T12:45:38Z</time>
      </trkpt>
      <trkpt lat="59.9034822" lon="17.7155901">
        <ele>28.0155</ele>
        <time>2014-06-17T12:45:39Z</time>
      </trkpt>
      <trkpt lat="59.9035005" lon="17.7156246">
        <ele>28.0155</ele>
        <time>2014-06-17T12:45:40Z</time>
      </trkpt>
      <trkpt lat="59.903524" lon="17.7156547">
        <ele>28.9769</ele>
        <time>2014-06-17T12:45:41Z</time>
      </trkpt>
      <trkpt lat="59.903547" lon="17.7156828">
        <ele>29.4575</ele>
        <time>2014-06-17T12:45:42Z</time>
      </trkpt>
      <trkpt lat="59.9035668" lon="17.7157088">
        <ele>28.9769</ele>
        <time>2014-06-17T12:45:43Z</time>
      </trkpt>
      <trkpt lat="59.9035884" lon="17.7157387">
        <ele>29.4575</ele>
        <time>2014-06-17T12:45:44Z</time>
      </trkpt>
      <trkpt lat="59.9036069" lon="17.7157744">
        <ele>28.9769</ele>
        <time>2014-06-17T12:45:45Z</time>
      </trkpt>
      <trkpt lat="59.9036215" lon="17.7158087">
        <ele>28.9769</ele>
        <time>2014-06-17T12:45:46Z</time>
      </trkpt>
      <trkpt lat="59.9036369" lon="17.7158466">
        <ele>29.4575</ele>
        <time>2014-06-17T12:45:47Z</time>
      </trkpt>
      <trkpt lat="59.9036506" lon="17.7158903">
        <ele>29.9381</ele>
        <time>2014-06-17T12:45:48Z</time>
      </trkpt>
      <trkpt lat="59.9036618" lon="17.7159326">
        <ele>29.9381</ele>
        <time>2014-06-17T12:45:49Z</time>
      </trkpt>
      <trkpt lat="59.9036761" lon="17.715975">
        <ele>29.9381</ele>
        <time>2014-06-17T12:45:50Z</time>
      </trkpt>
      <trkpt lat="59.9036828" lon="17.7160232">
        <ele>29.9381</ele>
        <time>2014-06-17T12:45:51Z</time>
      </trkpt>
      <trkpt lat="59.9036894" lon="17.7160664">
        <ele>29.9381</ele>
        <time>2014-06-17T12:45:52Z</time>
      </trkpt>
      <trkpt lat="59.9036994" lon="17.7161022">
        <ele>29.9381</ele>
        <time>2014-06-17T12:45:53Z</time>
      </trkpt>
      <trkpt lat="59.9037091" lon="17.7161428">
        <ele>29.9381</ele>
        <time>2014-06-17T12:45:54Z</time>
      </trkpt>
      <trkpt lat="59.9037214" lon="17.7161792">
        <ele>29.9381</ele>
        <time>2014-06-17T12:45:55Z</time>
      </trkpt>
      <trkpt lat="59.903735" lon="17.7162096">
        <ele>29.4575</ele>
        <time>2014-06-17T12:45:56Z</time>
      </trkpt>
      <trkpt lat="59.9037509" lon="17.7162287">
        <ele>28.9769</ele>
        <time>2014-06-17T12:45:57Z</time>
      </trkpt>
      <trkpt lat="59.9037708" lon="17.716237">
        <ele>28.9769</ele>
        <time>2014-06-17T12:45:58Z</time>
      </trkpt>
      <trkpt lat="59.9037924" lon="17.7162275">
        <ele>28.4962</ele>
        <time>2014-06-17T12:45:59Z</time>
      </trkpt>
      <trkpt lat="59.9038086" lon="17.7162028">
        <ele>28.0155</ele>
        <time>2014-06-17T12:46:00Z</time>
      </trkpt>
      <trkpt lat="59.903825" lon="17.7161707">
        <ele>28.0155</ele>
        <time>2014-06-17T12:46:01Z</time>
      </trkpt>
      <trkpt lat="59.903841" lon="17.71614">
        <ele>27.5349</ele>
        <time>2014-06-17T12:46:02Z</time>
      </trkpt>
      <trkpt lat="59.9038547" lon="17.7161117">
        <ele>27.5349</ele>
        <time>2014-06-17T12:46:03Z</time>
      </trkpt>
      <trkpt lat="59.9038654" lon="17.7160877">
        <ele>27.5349</ele>
        <time>2014-06-17T12:46:04Z</time>
      </trkpt>
      <trkpt lat="59.903877" lon="17.7160677">
        <ele>27.5349</ele>
        <time>2014-06-17T12:46:05Z</time>
      </trkpt>
      <trkpt lat="59.903889" lon="17.7160414">
        <ele>27.0543</ele>
        <time>2014-06-17T12:46:06Z</time>
      </trkpt>
      <trkpt lat="59.9039048" lon="17.7160044">
        <ele>27.5349</ele>
        <time>2014-06-17T12:46:07Z</time>
      </trkpt>
      <trkpt lat="59.9039223" lon="17.7159588">
        <ele>27.0543</ele>
        <time>2014-06-17T12:46:08Z</time>
      </trkpt>
      <trkpt lat="59.9039373" lon="17.7159242">
        <ele>26.0929</ele>
        <time>2014-06-17T12:46:09Z</time>
      </trkpt>
      <trkpt lat="59.9039597" lon="17.7158858">
        <ele>27.0543</ele>
        <time>2014-06-17T12:46:10Z</time>
      </trkpt>
      <trkpt lat="59.9039758" lon="17.7158491">
        <ele>27.0543</ele>
        <time>2014-06-17T12:46:11Z</time>
      </trkpt>
      <trkpt lat="59.90399" lon="17.7158189">
        <ele>26.5736</ele>
        <time>2014-06-17T12:46:12Z</time>
      </trkpt>
      <trkpt lat="59.904007" lon="17.7158034">
        <ele>26.5736</ele>
        <time>2014-06-17T12:46:13Z</time>
      </trkpt>
      <trkpt lat="59.9040219" lon="17.7157746">
        <ele>27.0543</ele>
        <time>2014-06-17T12:46:14Z</time>
      </trkpt>
      <trkpt lat="59.9040318" lon="17.7157362">
        <ele>27.0543</ele>
        <time>2014-06-17T12:46:15Z</time>
      </trkpt>
      <trkpt lat="59.904049" lon="17.7157025">
        <ele>27.5349</ele>
        <time>2014-06-17T12:46:16Z</time>
      </trkpt>
      <trkpt lat="59.904065" lon="17.7156679">
        <ele>27.5349</ele>
        <time>2014-06-17T12:46:17Z</time>
      </trkpt>
      <trkpt lat="59.904085" lon="17.715631">
        <ele>28.4962</ele>
        <time>2014-06-17T12:46:18Z</time>
      </trkpt>
      <trkpt lat="59.9041042" lon="17.7155927">
        <ele>28.4962</ele>
        <time>2014-06-17T12:46:19Z</time>
      </trkpt>
      <trkpt lat="59.9041252" lon="17.7155626">
        <ele>28.4962</ele>
        <time>2014-06-17T12:46:20Z</time>
      </trkpt>
      <trkpt lat="59.9041469" lon="17.715547">
        <ele>28.4962</ele>
        <time>2014-06-17T12:46:21Z</time>
      </trkpt>
      <trkpt lat="59.9041704" lon="17.7155305">
        <ele>28.9769</ele>
        <time>2014-06-17T12:46:22Z</time>
      </trkpt>
      <trkpt lat="59.9041913" lon="17.7155201">
        <ele>29.4575</ele>
        <time>2014-06-17T12:46:23Z</time>
      </trkpt>
      <trkpt lat="59.9042099" lon="17.7155098">
        <ele>29.4575</ele>
        <time>2014-06-17T12:46:24Z</time>
      </trkpt>
      <trkpt lat="59.9042265" lon="17.715507">
        <ele>29.4575</ele>
        <time>2014-06-17T12:46:25Z</time>
      </trkpt>
      <trkpt lat="59.9042489" lon="17.715503">
        <ele>29.9381</ele>
        <time>2014-06-17T12:46:26Z</time>
      </trkpt>
      <trkpt lat="59.9042705" lon="17.7155011">
        <ele>29.9381</ele>
        <time>2014-06-17T12:46:27Z</time>
      </trkpt>
      <trkpt lat="59.9042965" lon="17.7154963">
        <ele>30.4188</ele>
        <time>2014-06-17T12:46:28Z</time>
      </trkpt>
      <trkpt lat="59.9043227" lon="17.7154927">
        <ele>30.4188</ele>
        <time>2014-06-17T12:46:29Z</time>
      </trkpt>
      <trkpt lat="59.9043514" lon="17.715492">
        <ele>30.4188</ele>
        <time>2014-06-17T12:46:30Z</time>
      </trkpt>
      <trkpt lat="59.9043802" lon="17.7154839">
        <ele>31.3801</ele>
        <time>2014-06-17T12:46:31Z</time>
      </trkpt>
      <trkpt lat="59.9044001" lon="17.7154744">
        <ele>31.3801</ele>
        <time>2014-06-17T12:46:32Z</time>
      </trkpt>
      <trkpt lat="59.9044207" lon="17.7154521">
        <ele>31.8607</ele>
        <time>2014-06-17T12:46:33Z</time>
      </trkpt>
      <trkpt lat="59.9044333" lon="17.7154212">
        <ele>31.3801</ele>
        <time>2014-06-17T12:46:34Z</time>
      </trkpt>
      <trkpt lat="59.904446" lon="17.7153907">
        <ele>31.3801</ele>
        <time>2014-06-17T12:46:35Z</time>
      </trkpt>
      <trkpt lat="59.9044607" lon="17.7153623">
        <ele>31.3801</ele>
        <time>2014-06-17T12:46:36Z</time>
      </trkpt>
      <trkpt lat="59.9044787" lon="17.7153295">
        <ele>30.8995</ele>
        <time>2014-06-17T12:46:37Z</time>
      </trkpt>
      <trkpt lat="59.9044985" lon="17.7153014">
        <ele>30.8995</ele>
        <time>2014-06-17T12:46:38Z</time>
      </trkpt>
      <trkpt lat="59.9045158" lon="17.7152794">
        <ele>31.3801</ele>
        <time>2014-06-17T12:46:39Z</time>
      </trkpt>
      <trkpt lat="59.9045313" lon="17.7152575">
        <ele>31.8607</ele>
        <time>2014-06-17T12:46:40Z</time>
      </trkpt>
      <trkpt lat="59.9045491" lon="17.7152374">
        <ele>32.3416</ele>
        <time>2014-06-17T12:46:41Z</time>
      </trkpt>
      <trkpt lat="59.9045675" lon="17.7152248">
        <ele>33.7834</ele>
        <time>2014-06-17T12:46:42Z</time>
      </trkpt>
      <trkpt lat="59.9045909" lon="17.715212">
        <ele>34.2642</ele>
        <time>2014-06-17T12:46:43Z</time>
      </trkpt>
      <trkpt lat="59.9046196" lon="17.7152067">
        <ele>35.2255</ele>
        <time>2014-06-17T12:46:44Z</time>
      </trkpt>
      <trkpt lat="59.9046501" lon="17.7152057">
        <ele>35.7061</ele>
        <time>2014-06-17T12:46:45Z</time>
      </trkpt>
      <trkpt lat="59.9046793" lon="17.715198">
        <ele>37.1481</ele>
        <time>2014-06-17T12:46:46Z</time>
      </trkpt>
      <trkpt lat="59.90471" lon="17.7151921">
        <ele>37.6287</ele>
        <time>2014-06-17T12:46:47Z</time>
      </trkpt>
      <trkpt lat="59.9047322" lon="17.7151954">
        <ele>37.6287</ele>
        <time>2014-06-17T12:46:48Z</time>
      </trkpt>
      <trkpt lat="59.9047431" lon="17.7151959">
        <ele>37.6287</ele>
        <time>2014-06-17T12:46:49Z</time>
      </trkpt>
      <trkpt lat="59.9047602" lon="17.7152003">
        <ele>38.1094</ele>
        <time>2014-06-17T12:46:50Z</time>
      </trkpt>
      <trkpt lat="59.9047886" lon="17.7152019">
        <ele>39.0707</ele>
        <time>2014-06-17T12:46:51Z</time>
      </trkpt>
      <trkpt lat="59.9048108" lon="17.7152108">
        <ele>39.0707</ele>
        <time>2014-06-17T12:46:52Z</time>
      </trkpt>
      <trkpt lat="59.9048283" lon="17.7152209">
        <ele>39.0707</ele>
        <time>2014-06-17T12:46:53Z</time>
      </trkpt>
      <trkpt lat="59.9048507" lon="17.7152187">
        <ele>39.5513</ele>
        <time>2014-06-17T12:46:54Z</time>
      </trkpt>
      <trkpt lat="59.9048745" lon="17.7152159">
        <ele>39.5513</ele>
        <time>2014-06-17T12:46:55Z</time>
      </trkpt>
      <trkpt lat="59.9048962" lon="17.7152138">
        <ele>39.5513</ele>
        <time>2014-06-17T12:46:56Z</time>
      </trkpt>
      <trkpt lat="59.9049174" lon="17.7152152">
        <ele>39.5513</ele>
        <time>2014-06-17T12:46:57Z</time>
      </trkpt>
      <trkpt lat="59.9049445" lon="17.7152156">
        <ele>40.5128</ele>
        <time>2014-06-17T12:46:58Z</time>
      </trkpt>
      <trkpt lat="59.9049694" lon="17.7152165">
        <ele>40.9934</ele>
        <time>2014-06-17T12:46:59Z</time>
      </trkpt>
      <trkpt lat="59.9049958" lon="17.7152067">
        <ele>41.9547</ele>
        <time>2014-06-17T12:47:00Z</time>
      </trkpt>
      <trkpt lat="59.9050272" lon="17.7151975">
        <ele>42.916</ele>
        <time>2014-06-17T12:47:01Z</time>
      </trkpt>
      <trkpt lat="59.9050611" lon="17.7151928">
        <ele>43.8773</ele>
        <time>2014-06-17T12:47:02Z</time>
      </trkpt>
      <trkpt lat="59.9050925" lon="17.7151778">
        <ele>44.8386</ele>
        <time>2014-06-17T12:47:03Z</time>
      </trkpt>
      <trkpt lat="59.9051248" lon="17.7151679">
        <ele>45.3192</ele>
        <time>2014-06-17T12:47:04Z</time>
      </trkpt>
      <trkpt lat="59.9051507" lon="17.7151627">
        <ele>45.7999</ele>
        <time>2014-06-17T12:47:05Z</time>
      </trkpt>
      <trkpt lat="59.9051725" lon="17.7151584">
        <ele>45.7999</ele>
        <time>2014-06-17T12:47:06Z</time>
      </trkpt>
      <trkpt lat="59.9051948" lon="17.7151543">
        <ele>45.3192</ele>
        <time>2014-06-17T12:47:07Z</time>
      </trkpt>
      <trkpt lat="59.9052165" lon="17.715142">
        <ele>45.7999</ele>
        <time>2014-06-17T12:47:08Z</time>
      </trkpt>
      <trkpt lat="59.9052336" lon="17.7151292">
        <ele>45.7999</ele>
        <time>2014-06-17T12:47:09Z</time>
      </trkpt>
      <trkpt lat="59.9052476" lon="17.7151242">
        <ele>45.3192</ele>
        <time>2014-06-17T12:47:10Z</time>
      </trkpt>
      <trkpt lat="59.9052605" lon="17.7151191">
        <ele>44.8386</ele>
        <time>2014-06-17T12:47:11Z</time>
      </trkpt>
      <trkpt lat="59.9052748" lon="17.715123">
        <ele>44.358</ele>
        <time>2014-06-17T12:47:12Z</time>
      </trkpt>
      <trkpt lat="59.9052958" lon="17.7151328">
        <ele>43.8773</ele>
        <time>2014-06-17T12:47:13Z</time>
      </trkpt>
      <trkpt lat="59.9053168" lon="17.7151342">
        <ele>43.8773</ele>
        <time>2014-06-17T12:47:14Z</time>
      </trkpt>
      <trkpt lat="59.9053439" lon="17.7151275">
        <ele>44.358</ele>
        <time>2014-06-17T12:47:15Z</time>
      </trkpt>
      <trkpt lat="59.9053677" lon="17.7151289">
        <ele>44.358</ele>
        <time>2014-06-17T12:47:16Z</time>
      </trkpt>
      <trkpt lat="59.9053907" lon="17.7151249">
        <ele>44.8386</ele>
        <time>2014-06-17T12:47:17Z</time>
      </trkpt>
      <trkpt lat="59.905422" lon="17.7151094">
        <ele>45.7999</ele>
        <time>2014-06-17T12:47:18Z</time>
      </trkpt>
      <trkpt lat="59.9054507" lon="17.715098">
        <ele>46.7612</ele>
        <time>2014-06-17T12:47:19Z</time>
      </trkpt>
      <trkpt lat="59.9054766" lon="17.7150921">
        <ele>47.7225</ele>
        <time>2014-06-17T12:47:20Z</time>
      </trkpt>
      <trkpt lat="59.905496" lon="17.7150976">
        <ele>47.2418</ele>
        <time>2014-06-17T12:47:21Z</time>
      </trkpt>
      <trkpt lat="59.9055178" lon="17.7151058">
        <ele>47.2418</ele>
        <time>2014-06-17T12:47:22Z</time>
      </trkpt>
      <trkpt lat="59.9055414" lon="17.7151102">
        <ele>47.2418</ele>
        <time>2014-06-17T12:47:23Z</time>
      </trkpt>
      <trkpt lat="59.9055616" lon="17.7151135">
        <ele>46.7612</ele>
        <time>2014-06-17T12:47:24Z</time>
      </trkpt>
      <trkpt lat="59.9055808" lon="17.7151178">
        <ele>46.2806</ele>
        <time>2014-06-17T12:47:25Z</time>
      </trkpt>
      <trkpt lat="59.9055989" lon="17.7151201">
        <ele>46.2806</ele>
        <time>2014-06-17T12:47:26Z</time>
      </trkpt>
      <trkpt lat="59.9056162" lon="17.7151268">
        <ele>45.7999</ele>
        <time>2014-06-17T12:47:27Z</time>
      </trkpt>
      <trkpt lat="59.9056351" lon="17.7151275">
        <ele>45.7999</ele>
        <time>2014-06-17T12:47:28Z</time>
      </trkpt>
      <trkpt lat="59.9056693" lon="17.7151235">
        <ele>47.2418</ele>
        <time>2014-06-17T12:47:29Z</time>
      </trkpt>
      <trkpt lat="59.905701" lon="17.715117">
        <ele>47.7225</ele>
        <time>2014-06-17T12:47:30Z</time>
      </trkpt>
      <trkpt lat="59.9057289" lon="17.7151135">
        <ele>48.684</ele>
        <time>2014-06-17T12:47:31Z</time>
      </trkpt>
      <trkpt lat="59.9057543" lon="17.7151173">
        <ele>48.684</ele>
        <time>2014-06-17T12:47:32Z</time>
      </trkpt>
      <trkpt lat="59.9057854" lon="17.7151139">
        <ele>49.1646</ele>
        <time>2014-06-17T12:47:33Z</time>
      </trkpt>
      <trkpt lat="59.9058221" lon="17.7151064">
        <ele>50.126</ele>
        <time>2014-06-17T12:47:34Z</time>
      </trkpt>
      <trkpt lat="59.9058516" lon="17.7150996">
        <ele>50.6066</ele>
        <time>2014-06-17T12:47:35Z</time>
      </trkpt>
      <trkpt lat="59.9058686" lon="17.7150988">
        <ele>50.6066</ele>
        <time>2014-06-17T12:47:36Z</time>
      </trkpt>
      <trkpt lat="59.9058888" lon="17.7150933">
        <ele>50.6066</ele>
        <time>2014-06-17T12:47:37Z</time>
      </trkpt>
      <trkpt lat="59.9059044" lon="17.7150936">
        <ele>50.6066</ele>
        <time>2014-06-17T12:47:38Z</time>
      </trkpt>
      <trkpt lat="59.9059229" lon="17.7150919">
        <ele>50.6066</ele>
        <time>2014-06-17T12:47:39Z</time>
      </trkpt>
      <trkpt lat="59.9059384" lon="17.7150926">
        <ele>50.126</ele>
        <time>2014-06-17T12:47:40Z</time>
      </trkpt>
      <trkpt lat="59.9059519" lon="17.7150999">
        <ele>49.6453</ele>
        <time>2014-06-17T12:47:41Z</time>
      </trkpt>
      <trkpt lat="59.9059677" lon="17.7151017">
        <ele>48.684</ele>
        <time>2014-06-17T12:47:42Z</time>
      </trkpt>
      <trkpt lat="59.9059837" lon="17.7151004">
        <ele>48.2034</ele>
        <time>2014-06-17T12:47:43Z</time>
      </trkpt>
      <trkpt lat="59.9060006" lon="17.7150906">
        <ele>48.2034</ele>
        <time>2014-06-17T12:47:44Z</time>
      </trkpt>
      <trkpt lat="59.9060132" lon="17.7150792">
        <ele>47.7225</ele>
        <time>2014-06-17T12:47:45Z</time>
      </trkpt>
      <trkpt lat="59.9060277" lon="17.7150649">
        <ele>47.7225</ele>
        <time>2014-06-17T12:47:46Z</time>
      </trkpt>
      <trkpt lat="59.9060355" lon="17.7150462">
        <ele>47.2418</ele>
        <time>2014-06-17T12:47:47Z</time>
      </trkpt>
      <trkpt lat="59.9060422" lon="17.7150175">
        <ele>46.2806</ele>
        <time>2014-06-17T12:47:48Z</time>
      </trkpt>
      <trkpt lat="59.9060521" lon="17.7149783">
        <ele>46.2806</ele>
        <time>2014-06-17T12:47:49Z</time>
      </trkpt>
      <trkpt lat="59.9060633" lon="17.7149437">
        <ele>45.7999</ele>
        <time>2014-06-17T12:47:50Z</time>
      </trkpt>
      <trkpt lat="59.9060736" lon="17.7149172">
        <ele>45.3192</ele>
        <time>2014-06-17T12:47:51Z</time>
      </trkpt>
      <trkpt lat="59.9060843" lon="17.7148783">
        <ele>45.3192</ele>
        <time>2014-06-17T12:47:52Z</time>
      </trkpt>
      <trkpt lat="59.90611" lon="17.7148416">
        <ele>45.7999</ele>
        <time>2014-06-17T12:47:53Z</time>
      </trkpt>
      <trkpt lat="59.9061285" lon="17.7148059">
        <ele>46.2806</ele>
        <time>2014-06-17T12:47:54Z</time>
      </trkpt>
      <trkpt lat="59.9061448" lon="17.7147702">
        <ele>46.2806</ele>
        <time>2014-06-17T12:47:55Z</time>
      </trkpt>
      <trkpt lat="59.9061524" lon="17.7147396">
        <ele>45.7999</ele>
        <time>2014-06-17T12:47:56Z</time>
      </trkpt>
      <trkpt lat="59.9061596" lon="17.7147085">
        <ele>45.3192</ele>
        <time>2014-06-17T12:47:57Z</time>
      </trkpt>
      <trkpt lat="59.9061635" lon="17.7146746">
        <ele>45.3192</ele>
        <time>2014-06-17T12:47:58Z</time>
      </trkpt>
      <trkpt lat="59.9061665" lon="17.7146436">
        <ele>44.8386</ele>
        <time>2014-06-17T12:47:59Z</time>
      </trkpt>
      <trkpt lat="59.9061694" lon="17.7146085">
        <ele>44.8386</ele>
        <time>2014-06-17T12:48:00Z</time>
      </trkpt>
      <trkpt lat="59.9061708" lon="17.7145449">
        <ele>44.8386</ele>
        <time>2014-06-17T12:48:01Z</time>
      </trkpt>
      <trkpt lat="59.9061708" lon="17.7145003">
        <ele>44.8386</ele>
        <time>2014-06-17T12:48:02Z</time>
      </trkpt>
      <trkpt lat="59.906172" lon="17.7144649">
        <ele>45.3192</ele>
        <time>2014-06-17T12:48:03Z</time>
      </trkpt>
      <trkpt lat="59.9061762" lon="17.7144107">
        <ele>45.3192</ele>
        <time>2014-06-17T12:48:04Z</time>
      </trkpt>
      <trkpt lat="59.9061842" lon="17.7143586">
        <ele>45.3192</ele>
        <time>2014-06-17T12:48:05Z</time>
      </trkpt>
      <trkpt lat="59.9061867" lon="17.714318">
        <ele>45.3192</ele>
        <time>2014-06-17T12:48:06Z</time>
      </trkpt>
      <trkpt lat="59.9061967" lon="17.7142811">
        <ele>44.358</ele>
        <time>2014-06-17T12:48:07Z</time>
      </trkpt>
      <trkpt lat="59.9062019" lon="17.7142351">
        <ele>44.358</ele>
        <time>2014-06-17T12:48:08Z</time>
      </trkpt>
      <trkpt lat="59.9062044" lon="17.7141625">
        <ele>44.358</ele>
        <time>2014-06-17T12:48:09Z</time>
      </trkpt>
      <trkpt lat="59.9062091" lon="17.714091">
        <ele>44.8386</ele>
        <time>2014-06-17T12:48:10Z</time>
      </trkpt>
      <trkpt lat="59.9062161" lon="17.7140393">
        <ele>44.358</ele>
        <time>2014-06-17T12:48:11Z</time>
      </trkpt>
      <trkpt lat="59.9062195" lon="17.7139934">
        <ele>44.358</ele>
        <time>2014-06-17T12:48:12Z</time>
      </trkpt>
      <trkpt lat="59.9062209" lon="17.7139433">
        <ele>43.8773</ele>
        <time>2014-06-17T12:48:13Z</time>
      </trkpt>
      <trkpt lat="59.906223" lon="17.7138932">
        <ele>44.358</ele>
        <time>2014-06-17T12:48:14Z</time>
      </trkpt>
      <trkpt lat="59.9062291" lon="17.7138346">
        <ele>44.358</ele>
        <time>2014-06-17T12:48:15Z</time>
      </trkpt>
      <trkpt lat="59.906229" lon="17.7137743">
        <ele>44.358</ele>
        <time>2014-06-17T12:48:16Z</time>
      </trkpt>
      <trkpt lat="59.9062252" lon="17.7136564">
        <ele>44.358</ele>
        <time>2014-06-17T12:48:17Z</time>
      </trkpt>
      <trkpt lat="59.9062262" lon="17.7136103">
        <ele>44.358</ele>
        <time>2014-06-17T12:48:18Z</time>
      </trkpt>
      <trkpt lat="59.9062252" lon="17.7135642">
        <ele>44.8386</ele>
        <time>2014-06-17T12:48:19Z</time>
      </trkpt>
      <trkpt lat="59.9062244" lon="17.7135155">
        <ele>44.8386</ele>
        <time>2014-06-17T12:48:20Z</time>
      </trkpt>
      <trkpt lat="59.9062302" lon="17.7134703">
        <ele>44.8386</ele>
        <time>2014-06-17T12:48:21Z</time>
      </trkpt>
      <trkpt lat="59.9062376" lon="17.7134256">
        <ele>45.3192</ele>
        <time>2014-06-17T12:48:22Z</time>
      </trkpt>
      <trkpt lat="59.9062479" lon="17.7133932">
        <ele>45.3192</ele>
        <time>2014-06-17T12:48:23Z</time>
      </trkpt>
      <trkpt lat="59.9062591" lon="17.7133576">
        <ele>44.8386</ele>
        <time>2014-06-17T12:48:24Z</time>
      </trkpt>
      <trkpt lat="59.9062692" lon="17.7133099">
        <ele>44.8386</ele>
        <time>2014-06-17T12:48:25Z</time>
      </trkpt>
      <trkpt lat="59.9062788" lon="17.71326">
        <ele>44.8386</ele>
        <time>2014-06-17T12:48:26Z</time>
      </trkpt>
      <trkpt lat="59.9062853" lon="17.7132079">
        <ele>45.3192</ele>
        <time>2014-06-17T12:48:27Z</time>
      </trkpt>
      <trkpt lat="59.9062914" lon="17.7131509">
        <ele>45.3192</ele>
        <time>2014-06-17T12:48:28Z</time>
      </trkpt>
      <trkpt lat="59.9063038" lon="17.7131057">
        <ele>44.358</ele>
        <time>2014-06-17T12:48:29Z</time>
      </trkpt>
      <trkpt lat="59.9063152" lon="17.7130656">
        <ele>42.916</ele>
        <time>2014-06-17T12:48:30Z</time>
      </trkpt>
      <trkpt lat="59.9063214" lon="17.7130171">
        <ele>42.916</ele>
        <time>2014-06-17T12:48:31Z</time>
      </trkpt>
      <trkpt lat="59.9063342" lon="17.7129755">
        <ele>41.9547</ele>
        <time>2014-06-17T12:48:32Z</time>
      </trkpt>
      <trkpt lat="59.9063416" lon="17.712926">
        <ele>41.9547</ele>
        <time>2014-06-17T12:48:33Z</time>
      </trkpt>
      <trkpt lat="59.906348" lon="17.7128743">
        <ele>41.9547</ele>
        <time>2014-06-17T12:48:34Z</time>
      </trkpt>
      <trkpt lat="59.9063544" lon="17.7128269">
        <ele>41.474</ele>
        <time>2014-06-17T12:48:35Z</time>
      </trkpt>
      <trkpt lat="59.9063596" lon="17.7127794">
        <ele>41.474</ele>
        <time>2014-06-17T12:48:36Z</time>
      </trkpt>
      <trkpt lat="59.9063635" lon="17.712726">
        <ele>42.4354</ele>
        <time>2014-06-17T12:48:37Z</time>
      </trkpt>
      <trkpt lat="59.9063675" lon="17.7126754">
        <ele>43.3966</ele>
        <time>2014-06-17T12:48:38Z</time>
      </trkpt>
      <trkpt lat="59.9063715" lon="17.7126219">
        <ele>43.8773</ele>
        <time>2014-06-17T12:48:39Z</time>
      </trkpt>
      <trkpt lat="59.9063753" lon="17.7125645">
        <ele>43.8773</ele>
        <time>2014-06-17T12:48:40Z</time>
      </trkpt>
      <trkpt lat="59.9063837" lon="17.7125238">
        <ele>44.358</ele>
        <time>2014-06-17T12:48:41Z</time>
      </trkpt>
      <trkpt lat="59.9063946" lon="17.7124906">
        <ele>44.358</ele>
        <time>2014-06-17T12:48:42Z</time>
      </trkpt>
      <trkpt lat="59.9064059" lon="17.7124521">
        <ele>44.358</ele>
        <time>2014-06-17T12:48:43Z</time>
      </trkpt>
      <trkpt lat="59.9064121" lon="17.7124074">
        <ele>44.358</ele>
        <time>2014-06-17T12:48:44Z</time>
      </trkpt>
      <trkpt lat="59.9064183" lon="17.7123634">
        <ele>44.358</ele>
        <time>2014-06-17T12:48:45Z</time>
      </trkpt>
      <trkpt lat="59.9064303" lon="17.7123166">
        <ele>44.358</ele>
        <time>2014-06-17T12:48:46Z</time>
      </trkpt>
      <trkpt lat="59.9064367" lon="17.7122624">
        <ele>43.8773</ele>
        <time>2014-06-17T12:48:47Z</time>
      </trkpt>
      <trkpt lat="59.9064426" lon="17.7122137">
        <ele>43.8773</ele>
        <time>2014-06-17T12:48:48Z</time>
      </trkpt>
      <trkpt lat="59.9064488" lon="17.7121659">
        <ele>43.3966</ele>
        <time>2014-06-17T12:48:49Z</time>
      </trkpt>
      <trkpt lat="59.9064533" lon="17.7121174">
        <ele>43.3966</ele>
        <time>2014-06-17T12:48:50Z</time>
      </trkpt>
      <trkpt lat="59.9064613" lon="17.7120675">
        <ele>43.3966</ele>
        <time>2014-06-17T12:48:51Z</time>
      </trkpt>
      <trkpt lat="59.9064705" lon="17.7120242">
        <ele>42.916</ele>
        <time>2014-06-17T12:48:52Z</time>
      </trkpt>
      <trkpt lat="59.9064787" lon="17.7119796">
        <ele>42.916</ele>
        <time>2014-06-17T12:48:53Z</time>
      </trkpt>
      <trkpt lat="59.9064873" lon="17.7119297">
        <ele>42.916</ele>
        <time>2014-06-17T12:48:54Z</time>
      </trkpt>
      <trkpt lat="59.9064965" lon="17.7118774">
        <ele>42.4354</ele>
        <time>2014-06-17T12:48:55Z</time>
      </trkpt>
      <trkpt lat="59.9064996" lon="17.7118188">
        <ele>42.916</ele>
        <time>2014-06-17T12:48:56Z</time>
      </trkpt>
      <trkpt lat="59.9065037" lon="17.7117768">
        <ele>42.4354</ele>
        <time>2014-06-17T12:48:57Z</time>
      </trkpt>
      <trkpt lat="59.9065109" lon="17.7117273">
        <ele>41.9547</ele>
        <time>2014-06-17T12:48:58Z</time>
      </trkpt>
      <trkpt lat="59.9065198" lon="17.7116724">
        <ele>41.474</ele>
        <time>2014-06-17T12:48:59Z</time>
      </trkpt>
      <trkpt lat="59.9065286" lon="17.7116217">
        <ele>40.9934</ele>
        <time>2014-06-17T12:49:00Z</time>
      </trkpt>
      <trkpt lat="59.9065376" lon="17.7115756">
        <ele>40.9934</ele>
        <time>2014-06-17T12:49:01Z</time>
      </trkpt>
      <trkpt lat="59.9065471" lon="17.7115287">
        <ele>40.5128</ele>
        <time>2014-06-17T12:49:02Z</time>
      </trkpt>
      <trkpt lat="59.9065566" lon="17.7114795">
        <ele>40.0321</ele>
        <time>2014-06-17T12:49:03Z</time>
      </trkpt>
      <trkpt lat="59.906567" lon="17.7114311">
        <ele>39.5513</ele>
        <time>2014-06-17T12:49:04Z</time>
      </trkpt>
      <trkpt lat="59.9065774" lon="17.7113859">
        <ele>39.0707</ele>
        <time>2014-06-17T12:49:05Z</time>
      </trkpt>
      <trkpt lat="59.9065878" lon="17.7113377">
        <ele>38.5901</ele>
        <time>2014-06-17T12:49:06Z</time>
      </trkpt>
      <trkpt lat="59.9066017" lon="17.711294">
        <ele>38.1094</ele>
        <time>2014-06-17T12:49:07Z</time>
      </trkpt>
      <trkpt lat="59.9066177" lon="17.71126">
        <ele>38.1094</ele>
        <time>2014-06-17T12:49:08Z</time>
      </trkpt>
      <trkpt lat="59.9066377" lon="17.7112348">
        <ele>37.6287</ele>
        <time>2014-06-17T12:49:09Z</time>
      </trkpt>
      <trkpt lat="59.9066597" lon="17.7112155">
        <ele>37.1481</ele>
        <time>2014-06-17T12:49:10Z</time>
      </trkpt>
      <trkpt lat="59.9066831" lon="17.7111985">
        <ele>36.6675</ele>
        <time>2014-06-17T12:49:11Z</time>
      </trkpt>
      <trkpt lat="59.9067068" lon="17.7111855">
        <ele>36.6675</ele>
        <time>2014-06-17T12:49:12Z</time>
      </trkpt>
      <trkpt lat="59.9067317" lon="17.7111766">
        <ele>36.1868</ele>
        <time>2014-06-17T12:49:13Z</time>
      </trkpt>
      <trkpt lat="59.906759" lon="17.7111714">
        <ele>35.7061</ele>
        <time>2014-06-17T12:49:14Z</time>
      </trkpt>
      <trkpt lat="59.9067923" lon="17.7111726">
        <ele>35.2255</ele>
        <time>2014-06-17T12:49:15Z</time>
      </trkpt>
      <trkpt lat="59.9068269" lon="17.711165">
        <ele>34.7449</ele>
        <time>2014-06-17T12:49:16Z</time>
      </trkpt>
      <trkpt lat="59.9068482" lon="17.7111746">
        <ele>33.7834</ele>
        <time>2014-06-17T12:49:17Z</time>
      </trkpt>
      <trkpt lat="59.9068637" lon="17.711201">
        <ele>33.3029</ele>
        <time>2014-06-17T12:49:18Z</time>
      </trkpt>
      <trkpt lat="59.906883" lon="17.711231">
        <ele>32.8223</ele>
        <time>2014-06-17T12:49:19Z</time>
      </trkpt>
      <trkpt lat="59.9069032" lon="17.7112544">
        <ele>32.3416</ele>
        <time>2014-06-17T12:49:20Z</time>
      </trkpt>
      <trkpt lat="59.9069228" lon="17.7112745">
        <ele>31.8607</ele>
        <time>2014-06-17T12:49:21Z</time>
      </trkpt>
      <trkpt lat="59.906938" lon="17.7113071">
        <ele>31.3801</ele>
        <time>2014-06-17T12:49:22Z</time>
      </trkpt>
      <trkpt lat="59.9069592" lon="17.7113294">
        <ele>31.8607</ele>
        <time>2014-06-17T12:49:23Z</time>
      </trkpt>
      <trkpt lat="59.9069825" lon="17.7113464">
        <ele>32.3416</ele>
        <time>2014-06-17T12:49:24Z</time>
      </trkpt>
      <trkpt lat="59.9070067" lon="17.7113517">
        <ele>32.8223</ele>
        <time>2014-06-17T12:49:25Z</time>
      </trkpt>
      <trkpt lat="59.9070327" lon="17.7113569">
        <ele>32.8223</ele>
        <time>2014-06-17T12:49:26Z</time>
      </trkpt>
      <trkpt lat="59.9070523" lon="17.7113663">
        <ele>32.8223</ele>
        <time>2014-06-17T12:49:27Z</time>
      </trkpt>
      <trkpt lat="59.9070703" lon="17.711379">
        <ele>32.3416</ele>
        <time>2014-06-17T12:49:28Z</time>
      </trkpt>
      <trkpt lat="59.9070911" lon="17.7113981">
        <ele>32.3416</ele>
        <time>2014-06-17T12:49:29Z</time>
      </trkpt>
      <trkpt lat="59.907111" lon="17.711409">
        <ele>31.8607</ele>
        <time>2014-06-17T12:49:30Z</time>
      </trkpt>
      <trkpt lat="59.9071337" lon="17.7114155">
        <ele>32.3416</ele>
        <time>2014-06-17T12:49:31Z</time>
      </trkpt>
      <trkpt lat="59.9071517" lon="17.7114277">
        <ele>31.8607</ele>
        <time>2014-06-17T12:49:32Z</time>
      </trkpt>
      <trkpt lat="59.9071735" lon="17.7114372">
        <ele>31.8607</ele>
        <time>2014-06-17T12:49:33Z</time>
      </trkpt>
      <trkpt lat="59.907197" lon="17.711451">
        <ele>31.8607</ele>
        <time>2014-06-17T12:49:34Z</time>
      </trkpt>
      <trkpt lat="59.9072189" lon="17.7114733">
        <ele>32.3416</ele>
        <time>2014-06-17T12:49:35Z</time>
      </trkpt>
      <trkpt lat="59.9072466" lon="17.711488">
        <ele>32.8223</ele>
        <time>2014-06-17T12:49:36Z</time>
      </trkpt>
      <trkpt lat="59.907273" lon="17.711501">
        <ele>33.7834</ele>
        <time>2014-06-17T12:49:37Z</time>
      </trkpt>
      <trkpt lat="59.9072966" lon="17.7115117">
        <ele>34.2642</ele>
        <time>2014-06-17T12:49:38Z</time>
      </trkpt>
      <trkpt lat="59.9073225" lon="17.711517">
        <ele>34.2642</ele>
        <time>2014-06-17T12:49:39Z</time>
      </trkpt>
      <trkpt lat="59.9073448" lon="17.7115249">
        <ele>34.2642</ele>
        <time>2014-06-17T12:49:40Z</time>
      </trkpt>
      <trkpt lat="59.9073694" lon="17.7115359">
        <ele>34.2642</ele>
        <time>2014-06-17T12:49:41Z</time>
      </trkpt>
      <trkpt lat="59.9073917" lon="17.7115417">
        <ele>34.2642</ele>
        <time>2014-06-17T12:49:42Z</time>
      </trkpt>
      <trkpt lat="59.9074155" lon="17.7115427">
        <ele>34.7449</ele>
        <time>2014-06-17T12:49:43Z</time>
      </trkpt>
      <trkpt lat="59.9074394" lon="17.7115551">
        <ele>35.2255</ele>
        <time>2014-06-17T12:49:44Z</time>
      </trkpt>
      <trkpt lat="59.9074626" lon="17.7115688">
        <ele>36.1868</ele>
        <time>2014-06-17T12:49:45Z</time>
      </trkpt>
      <trkpt lat="59.9074828" lon="17.7115881">
        <ele>36.1868</ele>
        <time>2014-06-17T12:49:46Z</time>
      </trkpt>
      <trkpt lat="59.9075041" lon="17.711605">
        <ele>36.6675</ele>
        <time>2014-06-17T12:49:47Z</time>
      </trkpt>
      <trkpt lat="59.9075263" lon="17.7116169">
        <ele>37.1481</ele>
        <time>2014-06-17T12:49:48Z</time>
      </trkpt>
      <trkpt lat="59.9075497" lon="17.7116314">
        <ele>37.6287</ele>
        <time>2014-06-17T12:49:49Z</time>
      </trkpt>
      <trkpt lat="59.9075739" lon="17.7116484">
        <ele>38.1094</ele>
        <time>2014-06-17T12:49:50Z</time>
      </trkpt>
      <trkpt lat="59.9075938" lon="17.7116593">
        <ele>38.5901</ele>
        <time>2014-06-17T12:49:51Z</time>
      </trkpt>
      <trkpt lat="59.907615" lon="17.7116779">
        <ele>39.0707</ele>
        <time>2014-06-17T12:49:52Z</time>
      </trkpt>
      <trkpt lat="59.9076401" lon="17.7116931">
        <ele>39.0707</ele>
        <time>2014-06-17T12:49:53Z</time>
      </trkpt>
      <trkpt lat="59.9076641" lon="17.7117079">
        <ele>39.0707</ele>
        <time>2014-06-17T12:49:54Z</time>
      </trkpt>
      <trkpt lat="59.9076873" lon="17.7117248">
        <ele>39.5513</ele>
        <time>2014-06-17T12:49:55Z</time>
      </trkpt>
      <trkpt lat="59.9077102" lon="17.7117374">
        <ele>39.5513</ele>
        <time>2014-06-17T12:49:56Z</time>
      </trkpt>
      <trkpt lat="59.9077319" lon="17.7117521">
        <ele>39.0707</ele>
        <time>2014-06-17T12:49:57Z</time>
      </trkpt>
      <trkpt lat="59.9077543" lon="17.7117787">
        <ele>39.5513</ele>
        <time>2014-06-17T12:49:58Z</time>
      </trkpt>
      <trkpt lat="59.9077765" lon="17.7118019">
        <ele>40.0321</ele>
        <time>2014-06-17T12:49:59Z</time>
      </trkpt>
      <trkpt lat="59.9077965" lon="17.7118246">
        <ele>40.0321</ele>
        <time>2014-06-17T12:50:00Z</time>
      </trkpt>
      <trkpt lat="59.9078131" lon="17.7118406">
        <ele>40.0321</ele>
        <time>2014-06-17T12:50:01Z</time>
      </trkpt>
      <trkpt lat="59.9078333" lon="17.711853">
        <ele>40.0321</ele>
        <time>2014-06-17T12:50:02Z</time>
      </trkpt>
      <trkpt lat="59.9078538" lon="17.7118667">
        <ele>40.0321</ele>
        <time>2014-06-17T12:50:03Z</time>
      </trkpt>
      <trkpt lat="59.9078732" lon="17.7118905">
        <ele>40.0321</ele>
        <time>2014-06-17T12:50:04Z</time>
      </trkpt>
      <trkpt lat="59.9078955" lon="17.7119157">
        <ele>40.5128</ele>
        <time>2014-06-17T12:50:05Z</time>
      </trkpt>
      <trkpt lat="59.9079185" lon="17.7119362">
        <ele>40.9934</ele>
        <time>2014-06-17T12:50:06Z</time>
      </trkpt>
      <trkpt lat="59.9079359" lon="17.7119568">
        <ele>40.5128</ele>
        <time>2014-06-17T12:50:07Z</time>
      </trkpt>
      <trkpt lat="59.9079542" lon="17.7119745">
        <ele>40.0321</ele>
        <time>2014-06-17T12:50:08Z</time>
      </trkpt>
      <trkpt lat="59.9079781" lon="17.7119913">
        <ele>40.0321</ele>
        <time>2014-06-17T12:50:09Z</time>
      </trkpt>
      <trkpt lat="59.9080022" lon="17.7120126">
        <ele>40.5128</ele>
        <time>2014-06-17T12:50:10Z</time>
      </trkpt>
      <trkpt lat="59.9080253" lon="17.7120304">
        <ele>40.5128</ele>
        <time>2014-06-17T12:50:11Z</time>
      </trkpt>
      <trkpt lat="59.9080459" lon="17.7120483">
        <ele>40.5128</ele>
        <time>2014-06-17T12:50:12Z</time>
      </trkpt>
      <trkpt lat="59.9080639" lon="17.712067">
        <ele>40.5128</ele>
        <time>2014-06-17T12:50:13Z</time>
      </trkpt>
      <trkpt lat="59.9080802" lon="17.7120899">
        <ele>40.0321</ele>
        <time>2014-06-17T12:50:14Z</time>
      </trkpt>
      <trkpt lat="59.9081009" lon="17.7121125">
        <ele>40.5128</ele>
        <time>2014-06-17T12:50:15Z</time>
      </trkpt>
      <trkpt lat="59.9081205" lon="17.7121373">
        <ele>40.5128</ele>
        <time>2014-06-17T12:50:16Z</time>
      </trkpt>
      <trkpt lat="59.9081396" lon="17.7121674">
        <ele>40.5128</ele>
        <time>2014-06-17T12:50:17Z</time>
      </trkpt>
      <trkpt lat="59.9081563" lon="17.7121956">
        <ele>40.5128</ele>
        <time>2014-06-17T12:50:18Z</time>
      </trkpt>
      <trkpt lat="59.9081758" lon="17.7122189">
        <ele>40.5128</ele>
        <time>2014-06-17T12:50:19Z</time>
      </trkpt>
      <trkpt lat="59.9081925" lon="17.7122416">
        <ele>40.5128</ele>
        <time>2014-06-17T12:50:20Z</time>
      </trkpt>
      <trkpt lat="59.9082052" lon="17.7122591">
        <ele>40.5128</ele>
        <time>2014-06-17T12:50:21Z</time>
      </trkpt>
      <trkpt lat="59.9082202" lon="17.7122842">
        <ele>40.5128</ele>
        <time>2014-06-17T12:50:22Z</time>
      </trkpt>
      <trkpt lat="59.9082373" lon="17.7123049">
        <ele>40.5128</ele>
        <time>2014-06-17T12:50:23Z</time>
      </trkpt>
      <trkpt lat="59.9082541" lon="17.7123339">
        <ele>40.5128</ele>
        <time>2014-06-17T12:50:24Z</time>
      </trkpt>
      <trkpt lat="59.9082748" lon="17.7123637">
        <ele>40.5128</ele>
        <time>2014-06-17T12:50:25Z</time>
      </trkpt>
      <trkpt lat="59.908299" lon="17.7123845">
        <ele>40.9934</ele>
        <time>2014-06-17T12:50:26Z</time>
      </trkpt>
      <trkpt lat="59.908322" lon="17.7124023">
        <ele>41.474</ele>
        <time>2014-06-17T12:50:27Z</time>
      </trkpt>
      <trkpt lat="59.9083401" lon="17.7124297">
        <ele>41.474</ele>
        <time>2014-06-17T12:50:28Z</time>
      </trkpt>
      <trkpt lat="59.9083597" lon="17.7124582">
        <ele>41.474</ele>
        <time>2014-06-17T12:50:29Z</time>
      </trkpt>
      <trkpt lat="59.9083845" lon="17.7124851">
        <ele>41.474</ele>
        <time>2014-06-17T12:50:30Z</time>
      </trkpt>
      <trkpt lat="59.9084096" lon="17.7125104">
        <ele>40.9934</ele>
        <time>2014-06-17T12:50:31Z</time>
      </trkpt>
      <trkpt lat="59.9084312" lon="17.7125402">
        <ele>41.474</ele>
        <time>2014-06-17T12:50:32Z</time>
      </trkpt>
      <trkpt lat="59.908451" lon="17.7125773">
        <ele>41.474</ele>
        <time>2014-06-17T12:50:33Z</time>
      </trkpt>
      <trkpt lat="59.9084736" lon="17.7126136">
        <ele>40.9934</ele>
        <time>2014-06-17T12:50:34Z</time>
      </trkpt>
      <trkpt lat="59.9084997" lon="17.7126476">
        <ele>41.474</ele>
        <time>2014-06-17T12:50:35Z</time>
      </trkpt>
      <trkpt lat="59.90852" lon="17.712679">
        <ele>41.474</ele>
        <time>2014-06-17T12:50:36Z</time>
      </trkpt>
      <trkpt lat="59.9085386" lon="17.7127058">
        <ele>41.474</ele>
        <time>2014-06-17T12:50:37Z</time>
      </trkpt>
      <trkpt lat="59.9085582" lon="17.7127336">
        <ele>41.9547</ele>
        <time>2014-06-17T12:50:38Z</time>
      </trkpt>
      <trkpt lat="59.9085768" lon="17.7127683">
        <ele>41.9547</ele>
        <time>2014-06-17T12:50:39Z</time>
      </trkpt>
      <trkpt lat="59.908597" lon="17.7128006">
        <ele>41.9547</ele>
        <time>2014-06-17T12:50:40Z</time>
      </trkpt>
      <trkpt lat="59.9086158" lon="17.7128338">
        <ele>42.916</ele>
        <time>2014-06-17T12:50:41Z</time>
      </trkpt>
      <trkpt lat="59.9086376" lon="17.7128664">
        <ele>43.3966</ele>
        <time>2014-06-17T12:50:42Z</time>
      </trkpt>
      <trkpt lat="59.9086571" lon="17.712899">
        <ele>43.8773</ele>
        <time>2014-06-17T12:50:43Z</time>
      </trkpt>
      <trkpt lat="59.9086847" lon="17.7129197">
        <ele>44.8386</ele>
        <time>2014-06-17T12:50:44Z</time>
      </trkpt>
      <trkpt lat="59.9087152" lon="17.7129498">
        <ele>46.2806</ele>
        <time>2014-06-17T12:50:45Z</time>
      </trkpt>
      <trkpt lat="59.9087467" lon="17.712984">
        <ele>47.7225</ele>
        <time>2014-06-17T12:50:46Z</time>
      </trkpt>
      <trkpt lat="59.9087809" lon="17.7130081">
        <ele>49.6453</ele>
        <time>2014-06-17T12:50:47Z</time>
      </trkpt>
      <trkpt lat="59.9088151" lon="17.7130405">
        <ele>51.5679</ele>
        <time>2014-06-17T12:50:48Z</time>
      </trkpt>
      <trkpt lat="59.9088456" lon="17.7130768">
        <ele>52.5292</ele>
        <time>2014-06-17T12:50:49Z</time>
      </trkpt>
      <trkpt lat="59.9088752" lon="17.7131042">
        <ele>53.9712</ele>
        <time>2014-06-17T12:50:50Z</time>
      </trkpt>
      <trkpt lat="59.9089007" lon="17.7131428">
        <ele>55.8938</ele>
        <time>2014-06-17T12:50:51Z</time>
      </trkpt>
      <trkpt lat="59.9089216" lon="17.7131765">
        <ele>57.3358</ele>
        <time>2014-06-17T12:50:52Z</time>
      </trkpt>
      <trkpt lat="59.9089466" lon="17.7132081">
        <ele>59.2584</ele>
        <time>2014-06-17T12:50:53Z</time>
      </trkpt>
      <trkpt lat="59.9089659" lon="17.7132467">
        <ele>60.7003</ele>
        <time>2014-06-17T12:50:54Z</time>
      </trkpt>
      <trkpt lat="59.9089689" lon="17.7132933">
        <ele>60.7003</ele>
        <time>2014-06-17T12:50:55Z</time>
      </trkpt>
      <trkpt lat="59.9089693" lon="17.7133376">
        <ele>60.7003</ele>
        <time>2014-06-17T12:50:56Z</time>
      </trkpt>
      <trkpt lat="59.9089745" lon="17.7133838">
        <ele>60.7003</ele>
        <time>2014-06-17T12:50:57Z</time>
      </trkpt>
      <trkpt lat="59.9089725" lon="17.7134279">
        <ele>60.7003</ele>
        <time>2014-06-17T12:50:58Z</time>
      </trkpt>
      <trkpt lat="59.9089805" lon="17.7134697">
        <ele>62.1423</ele>
        <time>2014-06-17T12:50:59Z</time>
      </trkpt>
      <trkpt lat="59.9089866" lon="17.7135135">
        <ele>62.6229</ele>
        <time>2014-06-17T12:51:00Z</time>
      </trkpt>
      <trkpt lat="59.9089831" lon="17.713561">
        <ele>63.1036</ele>
        <time>2014-06-17T12:51:01Z</time>
      </trkpt>
      <trkpt lat="59.9089689" lon="17.7136139">
        <ele>61.6617</ele>
        <time>2014-06-17T12:51:02Z</time>
      </trkpt>
      <trkpt lat="59.9089507" lon="17.7136683">
        <ele>60.2197</ele>
        <time>2014-06-17T12:51:03Z</time>
      </trkpt>
      <trkpt lat="59.908938" lon="17.7137196">
        <ele>60.2197</ele>
        <time>2014-06-17T12:51:04Z</time>
      </trkpt>
      <trkpt lat="59.9089279" lon="17.7137758">
        <ele>60.7003</ele>
        <time>2014-06-17T12:51:05Z</time>
      </trkpt>
      <trkpt lat="59.9089196" lon="17.7138357">
        <ele>60.2197</ele>
        <time>2014-06-17T12:51:06Z</time>
      </trkpt>
      <trkpt lat="59.9089176" lon="17.7138885">
        <ele>61.6617</ele>
        <time>2014-06-17T12:51:07Z</time>
      </trkpt>
      <trkpt lat="59.9089133" lon="17.7139256">
        <ele>61.6617</ele>
        <time>2014-06-17T12:51:08Z</time>
      </trkpt>
      <trkpt lat="59.9089113" lon="17.7139693">
        <ele>61.181</ele>
        <time>2014-06-17T12:51:09Z</time>
      </trkpt>
      <trkpt lat="59.9089051" lon="17.7140267">
        <ele>61.181</ele>
        <time>2014-06-17T12:51:10Z</time>
      </trkpt>
      <trkpt lat="59.9089064" lon="17.7140707">
        <ele>61.6617</ele>
        <time>2014-06-17T12:51:11Z</time>
      </trkpt>
      <trkpt lat="59.9089016" lon="17.7141175">
        <ele>62.6229</ele>
        <time>2014-06-17T12:51:12Z</time>
      </trkpt>
      <trkpt lat="59.9088978" lon="17.7141579">
        <ele>61.6617</ele>
        <time>2014-06-17T12:51:13Z</time>
      </trkpt>
      <trkpt lat="59.9088903" lon="17.7141936">
        <ele>60.7003</ele>
        <time>2014-06-17T12:51:14Z</time>
      </trkpt>
      <trkpt lat="59.9088854" lon="17.714242">
        <ele>59.7391</ele>
        <time>2014-06-17T12:51:15Z</time>
      </trkpt>
      <trkpt lat="59.908883" lon="17.7143039">
        <ele>59.7391</ele>
        <time>2014-06-17T12:51:16Z</time>
      </trkpt>
      <trkpt lat="59.9088814" lon="17.7143593">
        <ele>59.7391</ele>
        <time>2014-06-17T12:51:17Z</time>
      </trkpt>
      <trkpt lat="59.9088711" lon="17.7144152">
        <ele>59.2584</ele>
        <time>2014-06-17T12:51:18Z</time>
      </trkpt>
      <trkpt lat="59.9088669" lon="17.7144607">
        <ele>60.2197</ele>
        <time>2014-06-17T12:51:19Z</time>
      </trkpt>
      <trkpt lat="59.9088623" lon="17.7145147">
        <ele>61.181</ele>
        <time>2014-06-17T12:51:20Z</time>
      </trkpt>
      <trkpt lat="59.9088566" lon="17.7145841">
        <ele>61.6617</ele>
        <time>2014-06-17T12:51:21Z</time>
      </trkpt>
      <trkpt lat="59.9088566" lon="17.7146401">
        <ele>62.1423</ele>
        <time>2014-06-17T12:51:22Z</time>
      </trkpt>
      <trkpt lat="59.9088554" lon="17.7146961">
        <ele>62.6229</ele>
        <time>2014-06-17T12:51:23Z</time>
      </trkpt>
      <trkpt lat="59.9088545" lon="17.7147612">
        <ele>63.1036</ele>
        <time>2014-06-17T12:51:24Z</time>
      </trkpt>
      <trkpt lat="59.9088525" lon="17.7148265">
        <ele>63.1036</ele>
        <time>2014-06-17T12:51:25Z</time>
      </trkpt>
      <trkpt lat="59.9088465" lon="17.7148898">
        <ele>62.6229</ele>
        <time>2014-06-17T12:51:26Z</time>
      </trkpt>
      <trkpt lat="59.908855" lon="17.7149379">
        <ele>61.181</ele>
        <time>2014-06-17T12:51:27Z</time>
      </trkpt>
      <trkpt lat="59.9088628" lon="17.7149798">
        <ele>60.7003</ele>
        <time>2014-06-17T12:51:28Z</time>
      </trkpt>
      <trkpt lat="59.90887" lon="17.7150208">
        <ele>59.7391</ele>
        <time>2014-06-17T12:51:29Z</time>
      </trkpt>
      <trkpt lat="59.9088747" lon="17.7150651">
        <ele>59.2584</ele>
        <time>2014-06-17T12:51:30Z</time>
      </trkpt>
      <trkpt lat="59.9088849" lon="17.7151095">
        <ele>59.2584</ele>
        <time>2014-06-17T12:51:31Z</time>
      </trkpt>
      <trkpt lat="59.9088914" lon="17.7151623">
        <ele>59.2584</ele>
        <time>2014-06-17T12:51:32Z</time>
      </trkpt>
      <trkpt lat="59.9089023" lon="17.7152073">
        <ele>59.2584</ele>
        <time>2014-06-17T12:51:33Z</time>
      </trkpt>
      <trkpt lat="59.908919" lon="17.7152508">
        <ele>59.2584</ele>
        <time>2014-06-17T12:51:34Z</time>
      </trkpt>
      <trkpt lat="59.9089313" lon="17.7152901">
        <ele>59.2584</ele>
        <time>2014-06-17T12:51:35Z</time>
      </trkpt>
      <trkpt lat="59.9089514" lon="17.715326">
        <ele>60.2197</ele>
        <time>2014-06-17T12:51:36Z</time>
      </trkpt>
      <trkpt lat="59.9089659" lon="17.7153632">
        <ele>60.2197</ele>
        <time>2014-06-17T12:51:37Z</time>
      </trkpt>
      <trkpt lat="59.908976" lon="17.7154072">
        <ele>60.2197</ele>
        <time>2014-06-17T12:51:38Z</time>
      </trkpt>
      <trkpt lat="59.9089819" lon="17.7154487">
        <ele>59.7391</ele>
        <time>2014-06-17T12:51:39Z</time>
      </trkpt>
      <trkpt lat="59.9090006" lon="17.7154777">
        <ele>59.2584</ele>
        <time>2014-06-17T12:51:40Z</time>
      </trkpt>
      <trkpt lat="59.9090166" lon="17.7155108">
        <ele>58.7777</ele>
        <time>2014-06-17T12:51:41Z</time>
      </trkpt>
      <trkpt lat="59.9090322" lon="17.7155449">
        <ele>58.2971</ele>
        <time>2014-06-17T12:51:42Z</time>
      </trkpt>
      <trkpt lat="59.9090534" lon="17.7155756">
        <ele>58.7777</ele>
        <time>2014-06-17T12:51:43Z</time>
      </trkpt>
      <trkpt lat="59.9090727" lon="17.7156057">
        <ele>58.2971</ele>
        <time>2014-06-17T12:51:44Z</time>
      </trkpt>
      <trkpt lat="59.9090985" lon="17.7156299">
        <ele>58.7777</ele>
        <time>2014-06-17T12:51:45Z</time>
      </trkpt>
      <trkpt lat="59.9091156" lon="17.7156629">
        <ele>58.7777</ele>
        <time>2014-06-17T12:51:46Z</time>
      </trkpt>
      <trkpt lat="59.9091265" lon="17.715704">
        <ele>58.7777</ele>
        <time>2014-06-17T12:51:47Z</time>
      </trkpt>
      <trkpt lat="59.9091307" lon="17.7157393">
        <ele>56.8551</ele>
        <time>2014-06-17T12:51:48Z</time>
      </trkpt>
      <trkpt lat="59.9091384" lon="17.7157719">
        <ele>55.8938</ele>
        <time>2014-06-17T12:51:49Z</time>
      </trkpt>
      <trkpt lat="59.9091503" lon="17.7158015">
        <ele>55.4131</ele>
        <time>2014-06-17T12:51:50Z</time>
      </trkpt>
      <trkpt lat="59.909158" lon="17.7158424">
        <ele>55.4131</ele>
        <time>2014-06-17T12:51:51Z</time>
      </trkpt>
      <trkpt lat="59.9091678" lon="17.7158779">
        <ele>53.9712</ele>
        <time>2014-06-17T12:51:52Z</time>
      </trkpt>
      <trkpt lat="59.9091808" lon="17.7159048">
        <ele>53.9712</ele>
        <time>2014-06-17T12:51:53Z</time>
      </trkpt>
      <trkpt lat="59.9091927" lon="17.7159392">
        <ele>53.9712</ele>
        <time>2014-06-17T12:51:54Z</time>
      </trkpt>
      <trkpt lat="59.9091979" lon="17.7159853">
        <ele>53.0098</ele>
        <time>2014-06-17T12:51:55Z</time>
      </trkpt>
      <trkpt lat="59.9092103" lon="17.7160198">
        <ele>52.5292</ele>
        <time>2014-06-17T12:51:56Z</time>
      </trkpt>
      <trkpt lat="59.9092297" lon="17.7160521">
        <ele>52.5292</ele>
        <time>2014-06-17T12:51:57Z</time>
      </trkpt>
      <trkpt lat="59.9092482" lon="17.7160765">
        <ele>53.0098</ele>
        <time>2014-06-17T12:51:58Z</time>
      </trkpt>
      <trkpt lat="59.9092687" lon="17.7161035">
        <ele>53.4905</ele>
        <time>2014-06-17T12:51:59Z</time>
      </trkpt>
      <trkpt lat="59.9092944" lon="17.7161371">
        <ele>53.0098</ele>
        <time>2014-06-17T12:52:00Z</time>
      </trkpt>
      <trkpt lat="59.9093125" lon="17.7161785">
        <ele>53.0098</ele>
        <time>2014-06-17T12:52:01Z</time>
      </trkpt>
      <trkpt lat="59.9093272" lon="17.7162059">
        <ele>53.0098</ele>
        <time>2014-06-17T12:52:02Z</time>
      </trkpt>
      <trkpt lat="59.9093472" lon="17.716234">
        <ele>53.0098</ele>
        <time>2014-06-17T12:52:03Z</time>
      </trkpt>
      <trkpt lat="59.9093707" lon="17.716264">
        <ele>53.0098</ele>
        <time>2014-06-17T12:52:04Z</time>
      </trkpt>
      <trkpt lat="59.9093923" lon="17.7162955">
        <ele>52.5292</ele>
        <time>2014-06-17T12:52:05Z</time>
      </trkpt>
      <trkpt lat="59.9094084" lon="17.7163226">
        <ele>51.5679</ele>
        <time>2014-06-17T12:52:06Z</time>
      </trkpt>
      <trkpt lat="59.9094268" lon="17.7163542">
        <ele>51.5679</ele>
        <time>2014-06-17T12:52:07Z</time>
      </trkpt>
      <trkpt lat="59.9094433" lon="17.7163951">
        <ele>50.6066</ele>
        <time>2014-06-17T12:52:08Z</time>
      </trkpt>
      <trkpt lat="59.9094638" lon="17.7164301">
        <ele>50.126</ele>
        <time>2014-06-17T12:52:09Z</time>
      </trkpt>
      <trkpt lat="59.9094839" lon="17.7164541">
        <ele>49.6453</ele>
        <time>2014-06-17T12:52:10Z</time>
      </trkpt>
      <trkpt lat="59.9095031" lon="17.7164796">
        <ele>49.1646</ele>
        <time>2014-06-17T12:52:11Z</time>
      </trkpt>
      <trkpt lat="59.9095217" lon="17.7165062">
        <ele>48.2034</ele>
        <time>2014-06-17T12:52:12Z</time>
      </trkpt>
      <trkpt lat="59.9095429" lon="17.7165292">
        <ele>48.2034</ele>
        <time>2014-06-17T12:52:13Z</time>
      </trkpt>
      <trkpt lat="59.9095607" lon="17.7165558">
        <ele>47.7225</ele>
        <time>2014-06-17T12:52:14Z</time>
      </trkpt>
      <trkpt lat="59.9095801" lon="17.7165791">
        <ele>47.2418</ele>
        <time>2014-06-17T12:52:15Z</time>
      </trkpt>
      <trkpt lat="59.9095978" lon="17.7166005">
        <ele>46.2806</ele>
        <time>2014-06-17T12:52:16Z</time>
      </trkpt>
      <trkpt lat="59.9096151" lon="17.7166178">
        <ele>45.3192</ele>
        <time>2014-06-17T12:52:17Z</time>
      </trkpt>
      <trkpt lat="59.9096363" lon="17.7166349">
        <ele>44.8386</ele>
        <time>2014-06-17T12:52:18Z</time>
      </trkpt>
      <trkpt lat="59.9096572" lon="17.7166547">
        <ele>44.8386</ele>
        <time>2014-06-17T12:52:19Z</time>
      </trkpt>
      <trkpt lat="59.9096805" lon="17.7166704">
        <ele>43.8773</ele>
        <time>2014-06-17T12:52:20Z</time>
      </trkpt>
      <trkpt lat="59.9097066" lon="17.7166821">
        <ele>43.8773</ele>
        <time>2014-06-17T12:52:21Z</time>
      </trkpt>
      <trkpt lat="59.9097314" lon="17.7166894">
        <ele>43.3966</ele>
        <time>2014-06-17T12:52:22Z</time>
      </trkpt>
      <trkpt lat="59.9097573" lon="17.7166981">
        <ele>43.3966</ele>
        <time>2014-06-17T12:52:23Z</time>
      </trkpt>
      <trkpt lat="59.9097798" lon="17.7167064">
        <ele>42.4354</ele>
        <time>2014-06-17T12:52:24Z</time>
      </trkpt>
      <trkpt lat="59.9098029" lon="17.7167116">
        <ele>42.4354</ele>
        <time>2014-06-17T12:52:25Z</time>
      </trkpt>
      <trkpt lat="59.909825" lon="17.7167255">
        <ele>41.9547</ele>
        <time>2014-06-17T12:52:26Z</time>
      </trkpt>
      <trkpt lat="59.9098465" lon="17.7167412">
        <ele>41.474</ele>
        <time>2014-06-17T12:52:27Z</time>
      </trkpt>
      <trkpt lat="59.9098702" lon="17.7167487">
        <ele>40.9934</ele>
        <time>2014-06-17T12:52:28Z</time>
      </trkpt>
      <trkpt lat="59.9098947" lon="17.7167573">
        <ele>40.9934</ele>
        <time>2014-06-17T12:52:29Z</time>
      </trkpt>
      <trkpt lat="59.9099173" lon="17.7167692">
        <ele>41.474</ele>
        <time>2014-06-17T12:52:30Z</time>
      </trkpt>
      <trkpt lat="59.9099414" lon="17.7167846">
        <ele>41.474</ele>
        <time>2014-06-17T12:52:31Z</time>
      </trkpt>
      <trkpt lat="59.9099647" lon="17.7167963">
        <ele>40.9934</ele>
        <time>2014-06-17T12:52:32Z</time>
      </trkpt>
      <trkpt lat="59.9099879" lon="17.716802">
        <ele>40.5128</ele>
        <time>2014-06-17T12:52:33Z</time>
      </trkpt>
      <trkpt lat="59.9100143" lon="17.7168108">
        <ele>40.5128</ele>
        <time>2014-06-17T12:52:34Z</time>
      </trkpt>
      <trkpt lat="59.9100361" lon="17.7168253">
        <ele>40.0321</ele>
        <time>2014-06-17T12:52:35Z</time>
      </trkpt>
      <trkpt lat="59.9100585" lon="17.7168362">
        <ele>40.5128</ele>
        <time>2014-06-17T12:52:36Z</time>
      </trkpt>
      <trkpt lat="59.9100827" lon="17.7168473">
        <ele>40.5128</ele>
        <time>2014-06-17T12:52:37Z</time>
      </trkpt>
      <trkpt lat="59.9101071" lon="17.7168588">
        <ele>40.9934</ele>
        <time>2014-06-17T12:52:38Z</time>
      </trkpt>
      <trkpt lat="59.9101308" lon="17.7168689">
        <ele>40.9934</ele>
        <time>2014-06-17T12:52:39Z</time>
      </trkpt>
      <trkpt lat="59.9101573" lon="17.7168758">
        <ele>40.9934</ele>
        <time>2014-06-17T12:52:40Z</time>
      </trkpt>
      <trkpt lat="59.9101879" lon="17.7168753">
        <ele>41.474</ele>
        <time>2014-06-17T12:52:41Z</time>
      </trkpt>
      <trkpt lat="59.9102175" lon="17.716882">
        <ele>41.474</ele>
        <time>2014-06-17T12:52:42Z</time>
      </trkpt>
      <trkpt lat="59.9102495" lon="17.7168908">
        <ele>41.9547</ele>
        <time>2014-06-17T12:52:43Z</time>
      </trkpt>
      <trkpt lat="59.910278" lon="17.7168989">
        <ele>42.4354</ele>
        <time>2014-06-17T12:52:44Z</time>
      </trkpt>
      <trkpt lat="59.9103012" lon="17.7169077">
        <ele>41.9547</ele>
        <time>2014-06-17T12:52:45Z</time>
      </trkpt>
      <trkpt lat="59.9103251" lon="17.7169119">
        <ele>42.4354</ele>
        <time>2014-06-17T12:52:46Z</time>
      </trkpt>
      <trkpt lat="59.9103484" lon="17.7169189">
        <ele>42.4354</ele>
        <time>2014-06-17T12:52:47Z</time>
      </trkpt>
      <trkpt lat="59.9103719" lon="17.7169217">
        <ele>42.4354</ele>
        <time>2014-06-17T12:52:48Z</time>
      </trkpt>
      <trkpt lat="59.910396" lon="17.7169203">
        <ele>42.916</ele>
        <time>2014-06-17T12:52:49Z</time>
      </trkpt>
      <trkpt lat="59.9104199" lon="17.7169217">
        <ele>43.3966</ele>
        <time>2014-06-17T12:52:50Z</time>
      </trkpt>
      <trkpt lat="59.9104432" lon="17.7169215">
        <ele>43.3966</ele>
        <time>2014-06-17T12:52:51Z</time>
      </trkpt>
      <trkpt lat="59.9104696" lon="17.7169201">
        <ele>43.8773</ele>
        <time>2014-06-17T12:52:52Z</time>
      </trkpt>
      <trkpt lat="59.9104981" lon="17.7169245">
        <ele>44.358</ele>
        <time>2014-06-17T12:52:53Z</time>
      </trkpt>
      <trkpt lat="59.910524" lon="17.7169302">
        <ele>44.358</ele>
        <time>2014-06-17T12:52:54Z</time>
      </trkpt>
      <trkpt lat="59.9105484" lon="17.716939">
        <ele>44.358</ele>
        <time>2014-06-17T12:52:55Z</time>
      </trkpt>
      <trkpt lat="59.9105732" lon="17.7169483">
        <ele>43.8773</ele>
        <time>2014-06-17T12:52:56Z</time>
      </trkpt>
      <trkpt lat="59.9105975" lon="17.7169534">
        <ele>44.358</ele>
        <time>2014-06-17T12:52:57Z</time>
      </trkpt>
      <trkpt lat="59.9106203" lon="17.716954">
        <ele>44.358</ele>
        <time>2014-06-17T12:52:58Z</time>
      </trkpt>
      <trkpt lat="59.9106406" lon="17.7169545">
        <ele>44.358</ele>
        <time>2014-06-17T12:52:59Z</time>
      </trkpt>
      <trkpt lat="59.910664" lon="17.7169581">
        <ele>44.8386</ele>
        <time>2014-06-17T12:53:00Z</time>
      </trkpt>
      <trkpt lat="59.9106893" lon="17.7169618">
        <ele>44.8386</ele>
        <time>2014-06-17T12:53:01Z</time>
      </trkpt>
      <trkpt lat="59.9107165" lon="17.7169653">
        <ele>45.3192</ele>
        <time>2014-06-17T12:53:02Z</time>
      </trkpt>
      <trkpt lat="59.9107398" lon="17.7169731">
        <ele>45.3192</ele>
        <time>2014-06-17T12:53:03Z</time>
      </trkpt>
      <trkpt lat="59.9107658" lon="17.7169789">
        <ele>45.3192</ele>
        <time>2014-06-17T12:53:04Z</time>
      </trkpt>
      <trkpt lat="59.9107906" lon="17.7169833">
        <ele>45.7999</ele>
        <time>2014-06-17T12:53:05Z</time>
      </trkpt>
      <trkpt lat="59.910817" lon="17.7169844">
        <ele>45.7999</ele>
        <time>2014-06-17T12:53:06Z</time>
      </trkpt>
      <trkpt lat="59.9108445" lon="17.716984">
        <ele>46.2806</ele>
        <time>2014-06-17T12:53:07Z</time>
      </trkpt>
      <trkpt lat="59.9108705" lon="17.7169852">
        <ele>46.2806</ele>
        <time>2014-06-17T12:53:08Z</time>
      </trkpt>
      <trkpt lat="59.9108929" lon="17.7169861">
        <ele>45.7999</ele>
        <time>2014-06-17T12:53:09Z</time>
      </trkpt>
      <trkpt lat="59.9109188" lon="17.7169841">
        <ele>46.2806</ele>
        <time>2014-06-17T12:53:10Z</time>
      </trkpt>
      <trkpt lat="59.9109487" lon="17.716982">
        <ele>46.7612</ele>
        <time>2014-06-17T12:53:11Z</time>
      </trkpt>
      <trkpt lat="59.910973" lon="17.7169882">
        <ele>47.2418</ele>
        <time>2014-06-17T12:53:12Z</time>
      </trkpt>
      <trkpt lat="59.9109947" lon="17.7169979">
        <ele>46.7612</ele>
        <time>2014-06-17T12:53:13Z</time>
      </trkpt>
      <trkpt lat="59.9110182" lon="17.7169989">
        <ele>47.2418</ele>
        <time>2014-06-17T12:53:14Z</time>
      </trkpt>
      <trkpt lat="59.9110419" lon="17.7170017">
        <ele>47.2418</ele>
        <time>2014-06-17T12:53:15Z</time>
      </trkpt>
      <trkpt lat="59.911061" lon="17.717007">
        <ele>46.7612</ele>
        <time>2014-06-17T12:53:16Z</time>
      </trkpt>
      <trkpt lat="59.9110872" lon="17.7170061">
        <ele>47.2418</ele>
        <time>2014-06-17T12:53:17Z</time>
      </trkpt>
      <trkpt lat="59.91111" lon="17.7170068">
        <ele>46.7612</ele>
        <time>2014-06-17T12:53:18Z</time>
      </trkpt>
      <trkpt lat="59.9111333" lon="17.7170131">
        <ele>46.2806</ele>
        <time>2014-06-17T12:53:19Z</time>
      </trkpt>
      <trkpt lat="59.9111579" lon="17.7170157">
        <ele>46.2806</ele>
        <time>2014-06-17T12:53:20Z</time>
      </trkpt>
      <trkpt lat="59.9111845" lon="17.7170167">
        <ele>46.7612</ele>
        <time>2014-06-17T12:53:21Z</time>
      </trkpt>
      <trkpt lat="59.91121" lon="17.7170253">
        <ele>46.2806</ele>
        <time>2014-06-17T12:53:22Z</time>
      </trkpt>
      <trkpt lat="59.9112333" lon="17.7170322">
        <ele>46.2806</ele>
        <time>2014-06-17T12:53:23Z</time>
      </trkpt>
      <trkpt lat="59.911255" lon="17.7170474">
        <ele>45.7999</ele>
        <time>2014-06-17T12:53:24Z</time>
      </trkpt>
      <trkpt lat="59.9112799" lon="17.7170624">
        <ele>45.7999</ele>
        <time>2014-06-17T12:53:25Z</time>
      </trkpt>
      <trkpt lat="59.9113099" lon="17.7170699">
        <ele>45.7999</ele>
        <time>2014-06-17T12:53:26Z</time>
      </trkpt>
      <trkpt lat="59.9113409" lon="17.7170696">
        <ele>46.7612</ele>
        <time>2014-06-17T12:53:27Z</time>
      </trkpt>
      <trkpt lat="59.9113643" lon="17.7170777">
        <ele>46.7612</ele>
        <time>2014-06-17T12:53:28Z</time>
      </trkpt>
      <trkpt lat="59.9113876" lon="17.7170784">
        <ele>47.2418</ele>
        <time>2014-06-17T12:53:29Z</time>
      </trkpt>
      <trkpt lat="59.9114077" lon="17.7170898">
        <ele>46.7612</ele>
        <time>2014-06-17T12:53:30Z</time>
      </trkpt>
      <trkpt lat="59.9114283" lon="17.7171087">
        <ele>46.2806</ele>
        <time>2014-06-17T12:53:31Z</time>
      </trkpt>
      <trkpt lat="59.9114528" lon="17.7171203">
        <ele>46.2806</ele>
        <time>2014-06-17T12:53:32Z</time>
      </trkpt>
      <trkpt lat="59.9114754" lon="17.7171363">
        <ele>45.7999</ele>
        <time>2014-06-17T12:53:33Z</time>
      </trkpt>
      <trkpt lat="59.9114979" lon="17.7171506">
        <ele>45.3192</ele>
        <time>2014-06-17T12:53:34Z</time>
      </trkpt>
      <trkpt lat="59.9115198" lon="17.7171648">
        <ele>44.8386</ele>
        <time>2014-06-17T12:53:35Z</time>
      </trkpt>
      <trkpt lat="59.9115461" lon="17.7171809">
        <ele>45.3192</ele>
        <time>2014-06-17T12:53:36Z</time>
      </trkpt>
      <trkpt lat="59.9115707" lon="17.7172015">
        <ele>45.3192</ele>
        <time>2014-06-17T12:53:37Z</time>
      </trkpt>
      <trkpt lat="59.9115956" lon="17.717216">
        <ele>45.3192</ele>
        <time>2014-06-17T12:53:38Z</time>
      </trkpt>
      <trkpt lat="59.91162" lon="17.7172369">
        <ele>45.7999</ele>
        <time>2014-06-17T12:53:39Z</time>
      </trkpt>
      <trkpt lat="59.9116438" lon="17.71726">
        <ele>45.7999</ele>
        <time>2014-06-17T12:53:40Z</time>
      </trkpt>
      <trkpt lat="59.9116709" lon="17.7172744">
        <ele>46.7612</ele>
        <time>2014-06-17T12:53:41Z</time>
      </trkpt>
      <trkpt lat="59.9116963" lon="17.7172897">
        <ele>46.7612</ele>
        <time>2014-06-17T12:53:42Z</time>
      </trkpt>
      <trkpt lat="59.9117282" lon="17.7173095">
        <ele>47.7225</ele>
        <time>2014-06-17T12:53:43Z</time>
      </trkpt>
      <trkpt lat="59.9117619" lon="17.7173247">
        <ele>48.684</ele>
        <time>2014-06-17T12:53:44Z</time>
      </trkpt>
      <trkpt lat="59.9117927" lon="17.7173373">
        <ele>50.6066</ele>
        <time>2014-06-17T12:53:45Z</time>
      </trkpt>
      <trkpt lat="59.9118283" lon="17.7173451">
        <ele>52.5292</ele>
        <time>2014-06-17T12:53:46Z</time>
      </trkpt>
      <trkpt lat="59.9118625" lon="17.7173604">
        <ele>53.4905</ele>
        <time>2014-06-17T12:53:47Z</time>
      </trkpt>
      <trkpt lat="59.9118921" lon="17.7173705">
        <ele>54.4518</ele>
        <time>2014-06-17T12:53:48Z</time>
      </trkpt>
      <trkpt lat="59.9119185" lon="17.7173894">
        <ele>55.4131</ele>
        <time>2014-06-17T12:53:49Z</time>
      </trkpt>
      <trkpt lat="59.9119408" lon="17.7174124">
        <ele>56.3745</ele>
        <time>2014-06-17T12:53:50Z</time>
      </trkpt>
      <trkpt lat="59.9119651" lon="17.7174362">
        <ele>56.8551</ele>
        <time>2014-06-17T12:53:51Z</time>
      </trkpt>
      <trkpt lat="59.9119934" lon="17.7174644">
        <ele>57.3358</ele>
        <time>2014-06-17T12:53:52Z</time>
      </trkpt>
      <trkpt lat="59.9120123" lon="17.7174942">
        <ele>57.3358</ele>
        <time>2014-06-17T12:53:53Z</time>
      </trkpt>
      <trkpt lat="59.9120345" lon="17.7175223">
        <ele>57.8165</ele>
        <time>2014-06-17T12:53:54Z</time>
      </trkpt>
      <trkpt lat="59.9120474" lon="17.7175542">
        <ele>57.8165</ele>
        <time>2014-06-17T12:53:55Z</time>
      </trkpt>
      <trkpt lat="59.9120558" lon="17.7175865">
        <ele>56.8551</ele>
        <time>2014-06-17T12:53:56Z</time>
      </trkpt>
      <trkpt lat="59.9120652" lon="17.7176205">
        <ele>55.8938</ele>
        <time>2014-06-17T12:53:57Z</time>
      </trkpt>
      <trkpt lat="59.9120811" lon="17.7176529">
        <ele>55.8938</ele>
        <time>2014-06-17T12:53:58Z</time>
      </trkpt>
      <trkpt lat="59.9120965" lon="17.7176847">
        <ele>55.8938</ele>
        <time>2014-06-17T12:53:59Z</time>
      </trkpt>
      <trkpt lat="59.9121085" lon="17.717717">
        <ele>55.4131</ele>
        <time>2014-06-17T12:54:00Z</time>
      </trkpt>
      <trkpt lat="59.9121206" lon="17.7177493">
        <ele>55.8938</ele>
        <time>2014-06-17T12:54:01Z</time>
      </trkpt>
      <trkpt lat="59.9121335" lon="17.7177864">
        <ele>54.9324</ele>
        <time>2014-06-17T12:54:02Z</time>
      </trkpt>
      <trkpt lat="59.9121473" lon="17.7178199">
        <ele>54.4518</ele>
        <time>2014-06-17T12:54:03Z</time>
      </trkpt>
      <trkpt lat="59.9121597" lon="17.7178489">
        <ele>53.9712</ele>
        <time>2014-06-17T12:54:04Z</time>
      </trkpt>
      <trkpt lat="59.9121791" lon="17.7178754">
        <ele>53.9712</ele>
        <time>2014-06-17T12:54:05Z</time>
      </trkpt>
      <trkpt lat="59.9121958" lon="17.7179082">
        <ele>53.4905</ele>
        <time>2014-06-17T12:54:06Z</time>
      </trkpt>
      <trkpt lat="59.9122159" lon="17.7179373">
        <ele>53.0098</ele>
        <time>2014-06-17T12:54:07Z</time>
      </trkpt>
      <trkpt lat="59.9122403" lon="17.7179662">
        <ele>53.0098</ele>
        <time>2014-06-17T12:54:08Z</time>
      </trkpt>
      <trkpt lat="59.9122625" lon="17.7179992">
        <ele>52.0486</ele>
        <time>2014-06-17T12:54:09Z</time>
      </trkpt>
      <trkpt lat="59.9122801" lon="17.7180298">
        <ele>52.0486</ele>
        <time>2014-06-17T12:54:10Z</time>
      </trkpt>
      <trkpt lat="59.9122986" lon="17.7180624">
        <ele>52.0486</ele>
        <time>2014-06-17T12:54:11Z</time>
      </trkpt>
      <trkpt lat="59.9123174" lon="17.718095">
        <ele>51.0872</ele>
        <time>2014-06-17T12:54:12Z</time>
      </trkpt>
      <trkpt lat="59.9123458" lon="17.7181237">
        <ele>51.5679</ele>
        <time>2014-06-17T12:54:13Z</time>
      </trkpt>
      <trkpt lat="59.9123784" lon="17.7181431">
        <ele>52.0486</ele>
        <time>2014-06-17T12:54:14Z</time>
      </trkpt>
      <trkpt lat="59.9124029" lon="17.7181644">
        <ele>52.5292</ele>
        <time>2014-06-17T12:54:15Z</time>
      </trkpt>
      <trkpt lat="59.9124163" lon="17.7181979">
        <ele>51.5679</ele>
        <time>2014-06-17T12:54:16Z</time>
      </trkpt>
      <trkpt lat="59.9124319" lon="17.7182307">
        <ele>51.0872</ele>
        <time>2014-06-17T12:54:17Z</time>
      </trkpt>
      <trkpt lat="59.9124494" lon="17.7182626">
        <ele>50.6066</ele>
        <time>2014-06-17T12:54:18Z</time>
      </trkpt>
      <trkpt lat="59.9124671" lon="17.7182946">
        <ele>50.126</ele>
        <time>2014-06-17T12:54:19Z</time>
      </trkpt>
      <trkpt lat="59.9124836" lon="17.7183267">
        <ele>49.6453</ele>
        <time>2014-06-17T12:54:20Z</time>
      </trkpt>
      <trkpt lat="59.9125021" lon="17.7183594">
        <ele>49.1646</ele>
        <time>2014-06-17T12:54:21Z</time>
      </trkpt>
      <trkpt lat="59.912521" lon="17.7183893">
        <ele>48.684</ele>
        <time>2014-06-17T12:54:22Z</time>
      </trkpt>
      <trkpt lat="59.9125407" lon="17.7184142">
        <ele>48.684</ele>
        <time>2014-06-17T12:54:23Z</time>
      </trkpt>
      <trkpt lat="59.9125677" lon="17.7184376">
        <ele>49.1646</ele>
        <time>2014-06-17T12:54:24Z</time>
      </trkpt>
      <trkpt lat="59.9125964" lon="17.7184577">
        <ele>49.1646</ele>
        <time>2014-06-17T12:54:25Z</time>
      </trkpt>
      <trkpt lat="59.9126225" lon="17.7184724">
        <ele>49.1646</ele>
        <time>2014-06-17T12:54:26Z</time>
      </trkpt>
      <trkpt lat="59.9126448" lon="17.718493">
        <ele>49.1646</ele>
        <time>2014-06-17T12:54:27Z</time>
      </trkpt>
      <trkpt lat="59.9126734" lon="17.7185121">
        <ele>49.1646</ele>
        <time>2014-06-17T12:54:28Z</time>
      </trkpt>
      <trkpt lat="59.9126981" lon="17.7185375">
        <ele>49.6453</ele>
        <time>2014-06-17T12:54:29Z</time>
      </trkpt>
      <trkpt lat="59.9127178" lon="17.7185661">
        <ele>49.1646</ele>
        <time>2014-06-17T12:54:30Z</time>
      </trkpt>
      <trkpt lat="59.9127292" lon="17.7185959">
        <ele>48.2034</ele>
        <time>2014-06-17T12:54:31Z</time>
      </trkpt>
      <trkpt lat="59.9127425" lon="17.7186281">
        <ele>47.7225</ele>
        <time>2014-06-17T12:54:32Z</time>
      </trkpt>
      <trkpt lat="59.9127565" lon="17.7186606">
        <ele>47.2418</ele>
        <time>2014-06-17T12:54:33Z</time>
      </trkpt>
      <trkpt lat="59.9127725" lon="17.7186935">
        <ele>46.7612</ele>
        <time>2014-06-17T12:54:34Z</time>
      </trkpt>
      <trkpt lat="59.9127876" lon="17.7187266">
        <ele>46.7612</ele>
        <time>2014-06-17T12:54:35Z</time>
      </trkpt>
      <trkpt lat="59.9128038" lon="17.7187593">
        <ele>46.2806</ele>
        <time>2014-06-17T12:54:36Z</time>
      </trkpt>
      <trkpt lat="59.9128302" lon="17.7187831">
        <ele>46.2806</ele>
        <time>2014-06-17T12:54:37Z</time>
      </trkpt>
      <trkpt lat="59.9128556" lon="17.718813">
        <ele>46.7612</ele>
        <time>2014-06-17T12:54:38Z</time>
      </trkpt>
      <trkpt lat="59.9128778" lon="17.7188457">
        <ele>47.2418</ele>
        <time>2014-06-17T12:54:39Z</time>
      </trkpt>
      <trkpt lat="59.9128976" lon="17.7188743">
        <ele>47.2418</ele>
        <time>2014-06-17T12:54:40Z</time>
      </trkpt>
      <trkpt lat="59.9129207" lon="17.7188963">
        <ele>47.2418</ele>
        <time>2014-06-17T12:54:41Z</time>
      </trkpt>
      <trkpt lat="59.9129446" lon="17.7189204">
        <ele>47.7225</ele>
        <time>2014-06-17T12:54:42Z</time>
      </trkpt>
      <trkpt lat="59.9129688" lon="17.7189452">
        <ele>48.2034</ele>
        <time>2014-06-17T12:54:43Z</time>
      </trkpt>
      <trkpt lat="59.9129903" lon="17.7189774">
        <ele>48.684</ele>
        <time>2014-06-17T12:54:44Z</time>
      </trkpt>
      <trkpt lat="59.9130115" lon="17.7190119">
        <ele>48.2034</ele>
        <time>2014-06-17T12:54:45Z</time>
      </trkpt>
      <trkpt lat="59.9130326" lon="17.7190442">
        <ele>48.2034</ele>
        <time>2014-06-17T12:54:46Z</time>
      </trkpt>
      <trkpt lat="59.9130525" lon="17.7190769">
        <ele>48.2034</ele>
        <time>2014-06-17T12:54:47Z</time>
      </trkpt>
      <trkpt lat="59.9130711" lon="17.7191103">
        <ele>47.7225</ele>
        <time>2014-06-17T12:54:48Z</time>
      </trkpt>
      <trkpt lat="59.9130895" lon="17.7191405">
        <ele>47.2418</ele>
        <time>2014-06-17T12:54:49Z</time>
      </trkpt>
      <trkpt lat="59.9131135" lon="17.7191704">
        <ele>47.2418</ele>
        <time>2014-06-17T12:54:50Z</time>
      </trkpt>
      <trkpt lat="59.9131356" lon="17.7192">
        <ele>47.2418</ele>
        <time>2014-06-17T12:54:51Z</time>
      </trkpt>
      <trkpt lat="59.9131617" lon="17.7192224">
        <ele>47.7225</ele>
        <time>2014-06-17T12:54:52Z</time>
      </trkpt>
      <trkpt lat="59.9131929" lon="17.7192383">
        <ele>48.2034</ele>
        <time>2014-06-17T12:54:53Z</time>
      </trkpt>
      <trkpt lat="59.913227" lon="17.719253">
        <ele>49.6453</ele>
        <time>2014-06-17T12:54:54Z</time>
      </trkpt>
      <trkpt lat="59.9132602" lon="17.7192731">
        <ele>51.0872</ele>
        <time>2014-06-17T12:54:55Z</time>
      </trkpt>
      <trkpt lat="59.913291" lon="17.7192891">
        <ele>51.5679</ele>
        <time>2014-06-17T12:54:56Z</time>
      </trkpt>
      <trkpt lat="59.913326" lon="17.7193007">
        <ele>53.4905</ele>
        <time>2014-06-17T12:54:57Z</time>
      </trkpt>
      <trkpt lat="59.9133494" lon="17.7193151">
        <ele>53.9712</ele>
        <time>2014-06-17T12:54:58Z</time>
      </trkpt>
      <trkpt lat="59.9133643" lon="17.7193384">
        <ele>53.0098</ele>
        <time>2014-06-17T12:54:59Z</time>
      </trkpt>
      <trkpt lat="59.9133761" lon="17.7193757">
        <ele>52.0486</ele>
        <time>2014-06-17T12:55:00Z</time>
      </trkpt>
      <trkpt lat="59.9133809" lon="17.7194125">
        <ele>50.126</ele>
        <time>2014-06-17T12:55:01Z</time>
      </trkpt>
      <trkpt lat="59.9133942" lon="17.719441">
        <ele>50.126</ele>
        <time>2014-06-17T12:55:02Z</time>
      </trkpt>
      <trkpt lat="59.913413" lon="17.7194651">
        <ele>49.6453</ele>
        <time>2014-06-17T12:55:03Z</time>
      </trkpt>
      <trkpt lat="59.9134319" lon="17.7194793">
        <ele>49.6453</ele>
        <time>2014-06-17T12:55:04Z</time>
      </trkpt>
      <trkpt lat="59.9134506" lon="17.719502">
        <ele>49.6453</ele>
        <time>2014-06-17T12:55:05Z</time>
      </trkpt>
      <trkpt lat="59.913462" lon="17.7195327">
        <ele>48.2034</ele>
        <time>2014-06-17T12:55:06Z</time>
      </trkpt>
      <trkpt lat="59.9134793" lon="17.7195524">
        <ele>47.7225</ele>
        <time>2014-06-17T12:55:07Z</time>
      </trkpt>
      <trkpt lat="59.9134929" lon="17.7195815">
        <ele>46.2806</ele>
        <time>2014-06-17T12:55:08Z</time>
      </trkpt>
      <trkpt lat="59.9135124" lon="17.7196016">
        <ele>45.7999</ele>
        <time>2014-06-17T12:55:09Z</time>
      </trkpt>
      <trkpt lat="59.9135316" lon="17.7196245">
        <ele>44.8386</ele>
        <time>2014-06-17T12:55:10Z</time>
      </trkpt>
      <trkpt lat="59.9135524" lon="17.7196466">
        <ele>44.8386</ele>
        <time>2014-06-17T12:55:11Z</time>
      </trkpt>
      <trkpt lat="59.9135729" lon="17.7196622">
        <ele>43.8773</ele>
        <time>2014-06-17T12:55:12Z</time>
      </trkpt>
      <trkpt lat="59.9135932" lon="17.7196838">
        <ele>42.916</ele>
        <time>2014-06-17T12:55:13Z</time>
      </trkpt>
      <trkpt lat="59.9136153" lon="17.7197046">
        <ele>42.916</ele>
        <time>2014-06-17T12:55:14Z</time>
      </trkpt>
      <trkpt lat="59.9136378" lon="17.7197215">
        <ele>41.9547</ele>
        <time>2014-06-17T12:55:15Z</time>
      </trkpt>
      <trkpt lat="59.9136604" lon="17.7197347">
        <ele>41.474</ele>
        <time>2014-06-17T12:55:16Z</time>
      </trkpt>
      <trkpt lat="59.9136813" lon="17.7197426">
        <ele>41.474</ele>
        <time>2014-06-17T12:55:17Z</time>
      </trkpt>
      <trkpt lat="59.9137014" lon="17.7197648">
        <ele>40.9934</ele>
        <time>2014-06-17T12:55:18Z</time>
      </trkpt>
      <trkpt lat="59.9137226" lon="17.719788">
        <ele>40.9934</ele>
        <time>2014-06-17T12:55:19Z</time>
      </trkpt>
      <trkpt lat="59.9137414" lon="17.719814">
        <ele>40.9934</ele>
        <time>2014-06-17T12:55:20Z</time>
      </trkpt>
      <trkpt lat="59.9137598" lon="17.7198448">
        <ele>40.5128</ele>
        <time>2014-06-17T12:55:21Z</time>
      </trkpt>
      <trkpt lat="59.9137806" lon="17.7198756">
        <ele>40.5128</ele>
        <time>2014-06-17T12:55:22Z</time>
      </trkpt>
      <trkpt lat="59.9137993" lon="17.7199056">
        <ele>40.5128</ele>
        <time>2014-06-17T12:55:23Z</time>
      </trkpt>
      <trkpt lat="59.9138222" lon="17.7199283">
        <ele>40.5128</ele>
        <time>2014-06-17T12:55:24Z</time>
      </trkpt>
      <trkpt lat="59.9138435" lon="17.7199491">
        <ele>40.5128</ele>
        <time>2014-06-17T12:55:25Z</time>
      </trkpt>
      <trkpt lat="59.9138606" lon="17.7199736">
        <ele>39.5513</ele>
        <time>2014-06-17T12:55:26Z</time>
      </trkpt>
      <trkpt lat="59.9138821" lon="17.7199906">
        <ele>40.0321</ele>
        <time>2014-06-17T12:55:27Z</time>
      </trkpt>
      <trkpt lat="59.9139018" lon="17.7200029">
        <ele>40.0321</ele>
        <time>2014-06-17T12:55:28Z</time>
      </trkpt>
      <trkpt lat="59.9139222" lon="17.7200164">
        <ele>40.0321</ele>
        <time>2014-06-17T12:55:29Z</time>
      </trkpt>
      <trkpt lat="59.9139453" lon="17.7200305">
        <ele>40.5128</ele>
        <time>2014-06-17T12:55:30Z</time>
      </trkpt>
      <trkpt lat="59.9139665" lon="17.7200491">
        <ele>40.0321</ele>
        <time>2014-06-17T12:55:31Z</time>
      </trkpt>
      <trkpt lat="59.9139901" lon="17.720061">
        <ele>40.0321</ele>
        <time>2014-06-17T12:55:32Z</time>
      </trkpt>
      <trkpt lat="59.914018" lon="17.7200725">
        <ele>40.5128</ele>
        <time>2014-06-17T12:55:33Z</time>
      </trkpt>
      <trkpt lat="59.9140429" lon="17.7200845">
        <ele>40.9934</ele>
        <time>2014-06-17T12:55:34Z</time>
      </trkpt>
      <trkpt lat="59.914065" lon="17.7201013">
        <ele>40.9934</ele>
        <time>2014-06-17T12:55:35Z</time>
      </trkpt>
      <trkpt lat="59.9140901" lon="17.7201209">
        <ele>41.474</ele>
        <time>2014-06-17T12:55:36Z</time>
      </trkpt>
      <trkpt lat="59.914117" lon="17.720132">
        <ele>42.4354</ele>
        <time>2014-06-17T12:55:37Z</time>
      </trkpt>
      <trkpt lat="59.9141448" lon="17.7201475">
        <ele>42.916</ele>
        <time>2014-06-17T12:55:38Z</time>
      </trkpt>
      <trkpt lat="59.9141686" lon="17.7201693">
        <ele>43.3966</ele>
        <time>2014-06-17T12:55:39Z</time>
      </trkpt>
      <trkpt lat="59.914191" lon="17.7201915">
        <ele>43.8773</ele>
        <time>2014-06-17T12:55:40Z</time>
      </trkpt>
      <trkpt lat="59.9142143" lon="17.7202106">
        <ele>43.8773</ele>
        <time>2014-06-17T12:55:41Z</time>
      </trkpt>
      <trkpt lat="59.9142335" lon="17.7202282">
        <ele>43.8773</ele>
        <time>2014-06-17T12:55:42Z</time>
      </trkpt>
      <trkpt lat="59.9142536" lon="17.7202428">
        <ele>43.8773</ele>
        <time>2014-06-17T12:55:43Z</time>
      </trkpt>
      <trkpt lat="59.9142776" lon="17.7202542">
        <ele>44.358</ele>
        <time>2014-06-17T12:55:44Z</time>
      </trkpt>
      <trkpt lat="59.9142998" lon="17.7202666">
        <ele>43.8773</ele>
        <time>2014-06-17T12:55:45Z</time>
      </trkpt>
      <trkpt lat="59.9143225" lon="17.72028">
        <ele>44.358</ele>
        <time>2014-06-17T12:55:46Z</time>
      </trkpt>
      <trkpt lat="59.914346" lon="17.7202922">
        <ele>44.8386</ele>
        <time>2014-06-17T12:55:47Z</time>
      </trkpt>
      <trkpt lat="59.9143729" lon="17.7203046">
        <ele>45.7999</ele>
        <time>2014-06-17T12:55:48Z</time>
      </trkpt>
      <trkpt lat="59.9144012" lon="17.7203153">
        <ele>46.2806</ele>
        <time>2014-06-17T12:55:49Z</time>
      </trkpt>
      <trkpt lat="59.9144215" lon="17.7203299">
        <ele>46.2806</ele>
        <time>2014-06-17T12:55:50Z</time>
      </trkpt>
      <trkpt lat="59.9144417" lon="17.7203485">
        <ele>46.2806</ele>
        <time>2014-06-17T12:55:51Z</time>
      </trkpt>
      <trkpt lat="59.9144573" lon="17.7203677">
        <ele>46.2806</ele>
        <time>2014-06-17T12:55:52Z</time>
      </trkpt>
      <trkpt lat="59.9144723" lon="17.7203861">
        <ele>46.2806</ele>
        <time>2014-06-17T12:55:53Z</time>
      </trkpt>
      <trkpt lat="59.9144903" lon="17.7204023">
        <ele>46.2806</ele>
        <time>2014-06-17T12:55:54Z</time>
      </trkpt>
      <trkpt lat="59.9145117" lon="17.7204107">
        <ele>46.7612</ele>
        <time>2014-06-17T12:55:55Z</time>
      </trkpt>
      <trkpt lat="59.9145322" lon="17.7204226">
        <ele>47.2418</ele>
        <time>2014-06-17T12:55:56Z</time>
      </trkpt>
      <trkpt lat="59.914554" lon="17.7204309">
        <ele>46.7612</ele>
        <time>2014-06-17T12:55:57Z</time>
      </trkpt>
      <trkpt lat="59.9145758" lon="17.7204418">
        <ele>46.2806</ele>
        <time>2014-06-17T12:55:58Z</time>
      </trkpt>
      <trkpt lat="59.914603" lon="17.7204521">
        <ele>46.2806</ele>
        <time>2014-06-17T12:55:59Z</time>
      </trkpt>
      <trkpt lat="59.9146257" lon="17.7204682">
        <ele>47.2418</ele>
        <time>2014-06-17T12:56:00Z</time>
      </trkpt>
      <trkpt lat="59.9146531" lon="17.7204825">
        <ele>47.2418</ele>
        <time>2014-06-17T12:56:01Z</time>
      </trkpt>
      <trkpt lat="59.9146802" lon="17.7204908">
        <ele>47.2418</ele>
        <time>2014-06-17T12:56:02Z</time>
      </trkpt>
      <trkpt lat="59.9147071" lon="17.7204885">
        <ele>46.7612</ele>
        <time>2014-06-17T12:56:03Z</time>
      </trkpt>
      <trkpt lat="59.9147344" lon="17.7204915">
        <ele>46.7612</ele>
        <time>2014-06-17T12:56:04Z</time>
      </trkpt>
      <trkpt lat="59.9147608" lon="17.7205025">
        <ele>46.7612</ele>
        <time>2014-06-17T12:56:05Z</time>
      </trkpt>
      <trkpt lat="59.9147845" lon="17.7205141">
        <ele>46.2806</ele>
        <time>2014-06-17T12:56:06Z</time>
      </trkpt>
      <trkpt lat="59.9148095" lon="17.7205236">
        <ele>46.2806</ele>
        <time>2014-06-17T12:56:07Z</time>
      </trkpt>
      <trkpt lat="59.9148365" lon="17.7205169">
        <ele>46.2806</ele>
        <time>2014-06-17T12:56:08Z</time>
      </trkpt>
      <trkpt lat="59.9148614" lon="17.720535">
        <ele>46.2806</ele>
        <time>2014-06-17T12:56:09Z</time>
      </trkpt>
      <trkpt lat="59.9148851" lon="17.7205468">
        <ele>46.2806</ele>
        <time>2014-06-17T12:56:10Z</time>
      </trkpt>
      <trkpt lat="59.9149076" lon="17.7205564">
        <ele>46.2806</ele>
        <time>2014-06-17T12:56:11Z</time>
      </trkpt>
      <trkpt lat="59.9149308" lon="17.7205675">
        <ele>46.7612</ele>
        <time>2014-06-17T12:56:12Z</time>
      </trkpt>
      <trkpt lat="59.9149551" lon="17.720581">
        <ele>46.2806</ele>
        <time>2014-06-17T12:56:13Z</time>
      </trkpt>
      <trkpt lat="59.9149799" lon="17.7205939">
        <ele>46.2806</ele>
        <time>2014-06-17T12:56:14Z</time>
      </trkpt>
      <trkpt lat="59.9150043" lon="17.7206012">
        <ele>45.7999</ele>
        <time>2014-06-17T12:56:15Z</time>
      </trkpt>
      <trkpt lat="59.9150267" lon="17.7206117">
        <ele>45.3192</ele>
        <time>2014-06-17T12:56:16Z</time>
      </trkpt>
      <trkpt lat="59.9150473" lon="17.7206293">
        <ele>44.8386</ele>
        <time>2014-06-17T12:56:17Z</time>
      </trkpt>
      <trkpt lat="59.9150694" lon="17.7206482">
        <ele>44.8386</ele>
        <time>2014-06-17T12:56:18Z</time>
      </trkpt>
      <trkpt lat="59.9150945" lon="17.7206615">
        <ele>44.8386</ele>
        <time>2014-06-17T12:56:19Z</time>
      </trkpt>
      <trkpt lat="59.9151198" lon="17.7206674">
        <ele>43.8773</ele>
        <time>2014-06-17T12:56:20Z</time>
      </trkpt>
      <trkpt lat="59.9151405" lon="17.7206741">
        <ele>43.3966</ele>
        <time>2014-06-17T12:56:21Z</time>
      </trkpt>
      <trkpt lat="59.9151606" lon="17.7206924">
        <ele>43.8773</ele>
        <time>2014-06-17T12:56:22Z</time>
      </trkpt>
      <trkpt lat="59.9151787" lon="17.7207156">
        <ele>43.3966</ele>
        <time>2014-06-17T12:56:23Z</time>
      </trkpt>
      <trkpt lat="59.9152001" lon="17.720737">
        <ele>43.3966</ele>
        <time>2014-06-17T12:56:24Z</time>
      </trkpt>
      <trkpt lat="59.9152239" lon="17.7207636">
        <ele>43.3966</ele>
        <time>2014-06-17T12:56:25Z</time>
      </trkpt>
      <trkpt lat="59.9152498" lon="17.7207763">
        <ele>43.3966</ele>
        <time>2014-06-17T12:56:26Z</time>
      </trkpt>
      <trkpt lat="59.9152721" lon="17.7207895">
        <ele>43.3966</ele>
        <time>2014-06-17T12:56:27Z</time>
      </trkpt>
      <trkpt lat="59.915297" lon="17.7208095">
        <ele>44.358</ele>
        <time>2014-06-17T12:56:28Z</time>
      </trkpt>
      <trkpt lat="59.9153227" lon="17.7208239">
        <ele>45.3192</ele>
        <time>2014-06-17T12:56:29Z</time>
      </trkpt>
      <trkpt lat="59.9153415" lon="17.7208583">
        <ele>45.7999</ele>
        <time>2014-06-17T12:56:30Z</time>
      </trkpt>
      <trkpt lat="59.9153633" lon="17.7208918">
        <ele>46.2806</ele>
        <time>2014-06-17T12:56:31Z</time>
      </trkpt>
      <trkpt lat="59.9153871" lon="17.7209091">
        <ele>46.7612</ele>
        <time>2014-06-17T12:56:32Z</time>
      </trkpt>
      <trkpt lat="59.9154152" lon="17.7209282">
        <ele>47.7225</ele>
        <time>2014-06-17T12:56:33Z</time>
      </trkpt>
      <trkpt lat="59.9154487" lon="17.7209383">
        <ele>49.1646</ele>
        <time>2014-06-17T12:56:34Z</time>
      </trkpt>
      <trkpt lat="59.9154808" lon="17.7209593">
        <ele>49.6453</ele>
        <time>2014-06-17T12:56:35Z</time>
      </trkpt>
      <trkpt lat="59.9155157" lon="17.7209804">
        <ele>50.6066</ele>
        <time>2014-06-17T12:56:36Z</time>
      </trkpt>
      <trkpt lat="59.9155466" lon="17.720995">
        <ele>51.5679</ele>
        <time>2014-06-17T12:56:37Z</time>
      </trkpt>
      <trkpt lat="59.91557" lon="17.7210031">
        <ele>51.5679</ele>
        <time>2014-06-17T12:56:38Z</time>
      </trkpt>
      <trkpt lat="59.9156005" lon="17.7210222">
        <ele>53.0098</ele>
        <time>2014-06-17T12:56:39Z</time>
      </trkpt>
      <trkpt lat="59.9156351" lon="17.7210385">
        <ele>54.4518</ele>
        <time>2014-06-17T12:56:40Z</time>
      </trkpt>
      <trkpt lat="59.9156647" lon="17.7210624">
        <ele>55.8938</ele>
        <time>2014-06-17T12:56:41Z</time>
      </trkpt>
      <trkpt lat="59.9156905" lon="17.7210738">
        <ele>56.3745</ele>
        <time>2014-06-17T12:56:42Z</time>
      </trkpt>
      <trkpt lat="59.9157088" lon="17.7210997">
        <ele>55.8938</ele>
        <time>2014-06-17T12:56:43Z</time>
      </trkpt>
      <trkpt lat="59.9157232" lon="17.7211245">
        <ele>54.9324</ele>
        <time>2014-06-17T12:56:44Z</time>
      </trkpt>
      <trkpt lat="59.9157435" lon="17.7211514">
        <ele>55.4131</ele>
        <time>2014-06-17T12:56:45Z</time>
      </trkpt>
      <trkpt lat="59.915771" lon="17.7211753">
        <ele>55.8938</ele>
        <time>2014-06-17T12:56:46Z</time>
      </trkpt>
      <trkpt lat="59.9157988" lon="17.7211989">
        <ele>56.3745</ele>
        <time>2014-06-17T12:56:47Z</time>
      </trkpt>
      <trkpt lat="59.9158202" lon="17.7212232">
        <ele>56.3745</ele>
        <time>2014-06-17T12:56:48Z</time>
      </trkpt>
      <trkpt lat="59.9158392" lon="17.721244">
        <ele>56.3745</ele>
        <time>2014-06-17T12:56:49Z</time>
      </trkpt>
      <trkpt lat="59.9158538" lon="17.7212685">
        <ele>55.4131</ele>
        <time>2014-06-17T12:56:50Z</time>
      </trkpt>
      <trkpt lat="59.9158705" lon="17.7212908">
        <ele>54.4518</ele>
        <time>2014-06-17T12:56:51Z</time>
      </trkpt>
      <trkpt lat="59.9158891" lon="17.7213188">
        <ele>54.4518</ele>
        <time>2014-06-17T12:56:52Z</time>
      </trkpt>
      <trkpt lat="59.9159067" lon="17.7213504">
        <ele>54.9324</ele>
        <time>2014-06-17T12:56:53Z</time>
      </trkpt>
      <trkpt lat="59.9159194" lon="17.7213871">
        <ele>54.9324</ele>
        <time>2014-06-17T12:56:54Z</time>
      </trkpt>
      <trkpt lat="59.9159393" lon="17.7214196">
        <ele>55.8938</ele>
        <time>2014-06-17T12:56:55Z</time>
      </trkpt>
      <trkpt lat="59.9159528" lon="17.721456">
        <ele>55.4131</ele>
        <time>2014-06-17T12:56:56Z</time>
      </trkpt>
      <trkpt lat="59.915962" lon="17.7215032">
        <ele>55.8938</ele>
        <time>2014-06-17T12:56:57Z</time>
      </trkpt>
      <trkpt lat="59.9159645" lon="17.7215586">
        <ele>55.8938</ele>
        <time>2014-06-17T12:56:58Z</time>
      </trkpt>
      <trkpt lat="59.9159699" lon="17.7216151">
        <ele>55.4131</ele>
        <time>2014-06-17T12:56:59Z</time>
      </trkpt>
      <trkpt lat="59.915988" lon="17.7216513">
        <ele>56.3745</ele>
        <time>2014-06-17T12:57:00Z</time>
      </trkpt>
      <trkpt lat="59.9160054" lon="17.721691">
        <ele>56.3745</ele>
        <time>2014-06-17T12:57:01Z</time>
      </trkpt>
      <trkpt lat="59.9160134" lon="17.7217359">
        <ele>56.8551</ele>
        <time>2014-06-17T12:57:02Z</time>
      </trkpt>
      <trkpt lat="59.9160263" lon="17.7217692">
        <ele>56.3745</ele>
        <time>2014-06-17T12:57:03Z</time>
      </trkpt>
      <trkpt lat="59.9160326" lon="17.7218037">
        <ele>56.3745</ele>
        <time>2014-06-17T12:57:04Z</time>
      </trkpt>
      <trkpt lat="59.9160536" lon="17.7218269">
        <ele>57.8165</ele>
        <time>2014-06-17T12:57:05Z</time>
      </trkpt>
      <trkpt lat="59.9160632" lon="17.7218596">
        <ele>58.2971</ele>
        <time>2014-06-17T12:57:06Z</time>
      </trkpt>
      <trkpt lat="59.9160779" lon="17.7218897">
        <ele>59.2584</ele>
        <time>2014-06-17T12:57:07Z</time>
      </trkpt>
      <trkpt lat="59.9160859" lon="17.7219295">
        <ele>59.2584</ele>
        <time>2014-06-17T12:57:08Z</time>
      </trkpt>
      <trkpt lat="59.9161206" lon="17.7219503">
        <ele>61.181</ele>
        <time>2014-06-17T12:57:09Z</time>
      </trkpt>
      <trkpt lat="59.9161537" lon="17.7219721">
        <ele>63.5844</ele>
        <time>2014-06-17T12:57:10Z</time>
      </trkpt>
      <trkpt lat="59.9161745" lon="17.7220032">
        <ele>64.0651</ele>
        <time>2014-06-17T12:57:11Z</time>
      </trkpt>
      <trkpt lat="59.9161997" lon="17.7220378">
        <ele>65.5071</ele>
        <time>2014-06-17T12:57:12Z</time>
      </trkpt>
      <trkpt lat="59.9162118" lon="17.7220832">
        <ele>64.5457</ele>
        <time>2014-06-17T12:57:13Z</time>
      </trkpt>
      <trkpt lat="59.9162119" lon="17.7221283">
        <ele>63.1036</ele>
        <time>2014-06-17T12:57:14Z</time>
      </trkpt>
      <trkpt lat="59.9162144" lon="17.7221738">
        <ele>62.1423</ele>
        <time>2014-06-17T12:57:15Z</time>
      </trkpt>
      <trkpt lat="59.9162183" lon="17.7222214">
        <ele>60.2197</ele>
        <time>2014-06-17T12:57:16Z</time>
      </trkpt>
      <trkpt lat="59.9162196" lon="17.7222702">
        <ele>58.7777</ele>
        <time>2014-06-17T12:57:17Z</time>
      </trkpt>
      <trkpt lat="59.9162259" lon="17.7223168">
        <ele>57.3358</ele>
        <time>2014-06-17T12:57:18Z</time>
      </trkpt>
      <trkpt lat="59.9162269" lon="17.7223681">
        <ele>56.8551</ele>
        <time>2014-06-17T12:57:19Z</time>
      </trkpt>
      <trkpt lat="59.9162262" lon="17.7224235">
        <ele>56.3745</ele>
        <time>2014-06-17T12:57:20Z</time>
      </trkpt>
      <trkpt lat="59.9162232" lon="17.7224792">
        <ele>55.8938</ele>
        <time>2014-06-17T12:57:21Z</time>
      </trkpt>
      <trkpt lat="59.9162195" lon="17.722538">
        <ele>55.8938</ele>
        <time>2014-06-17T12:57:22Z</time>
      </trkpt>
      <trkpt lat="59.9162236" lon="17.7225949">
        <ele>56.3745</ele>
        <time>2014-06-17T12:57:23Z</time>
      </trkpt>
      <trkpt lat="59.9162284" lon="17.7226485">
        <ele>56.3745</ele>
        <time>2014-06-17T12:57:24Z</time>
      </trkpt>
      <trkpt lat="59.9162398" lon="17.7226859">
        <ele>56.8551</ele>
        <time>2014-06-17T12:57:25Z</time>
      </trkpt>
      <trkpt lat="59.9162517" lon="17.7227227">
        <ele>56.8551</ele>
        <time>2014-06-17T12:57:26Z</time>
      </trkpt>
      <trkpt lat="59.916266" lon="17.7227624">
        <ele>56.3745</ele>
        <time>2014-06-17T12:57:27Z</time>
      </trkpt>
      <trkpt lat="59.9162807" lon="17.7227993">
        <ele>55.8938</ele>
        <time>2014-06-17T12:57:28Z</time>
      </trkpt>
      <trkpt lat="59.9162943" lon="17.7228421">
        <ele>55.8938</ele>
        <time>2014-06-17T12:57:29Z</time>
      </trkpt>
      <trkpt lat="59.9163056" lon="17.7228806">
        <ele>55.8938</ele>
        <time>2014-06-17T12:57:30Z</time>
      </trkpt>
      <trkpt lat="59.9163142" lon="17.7229176">
        <ele>55.4131</ele>
        <time>2014-06-17T12:57:31Z</time>
      </trkpt>
      <trkpt lat="59.9163278" lon="17.7229583">
        <ele>56.3745</ele>
        <time>2014-06-17T12:57:32Z</time>
      </trkpt>
      <trkpt lat="59.9163382" lon="17.7230039">
        <ele>56.3745</ele>
        <time>2014-06-17T12:57:33Z</time>
      </trkpt>
      <trkpt lat="59.9163502" lon="17.7230428">
        <ele>57.3358</ele>
        <time>2014-06-17T12:57:34Z</time>
      </trkpt>
      <trkpt lat="59.9163656" lon="17.7230811">
        <ele>58.7777</ele>
        <time>2014-06-17T12:57:35Z</time>
      </trkpt>
      <trkpt lat="59.9163817" lon="17.7231157">
        <ele>60.2197</ele>
        <time>2014-06-17T12:57:36Z</time>
      </trkpt>
      <trkpt lat="59.9164019" lon="17.7231462">
        <ele>62.1423</ele>
        <time>2014-06-17T12:57:37Z</time>
      </trkpt>
      <trkpt lat="59.9164138" lon="17.7231938">
        <ele>63.1036</ele>
        <time>2014-06-17T12:57:38Z</time>
      </trkpt>
      <trkpt lat="59.9164396" lon="17.7232287">
        <ele>62.6229</ele>
        <time>2014-06-17T12:57:39Z</time>
      </trkpt>
      <trkpt lat="59.9164593" lon="17.723267">
        <ele>63.1036</ele>
        <time>2014-06-17T12:57:40Z</time>
      </trkpt>
      <trkpt lat="59.9164766" lon="17.7233062">
        <ele>64.5457</ele>
        <time>2014-06-17T12:57:41Z</time>
      </trkpt>
      <trkpt lat="59.9164864" lon="17.7233504">
        <ele>64.0651</ele>
        <time>2014-06-17T12:57:42Z</time>
      </trkpt>
      <trkpt lat="59.9164962" lon="17.7233975">
        <ele>64.5457</ele>
        <time>2014-06-17T12:57:43Z</time>
      </trkpt>
      <trkpt lat="59.9165162" lon="17.7234274">
        <ele>65.9877</ele>
        <time>2014-06-17T12:57:44Z</time>
      </trkpt>
      <trkpt lat="59.9165357" lon="17.7234499">
        <ele>66.4683</ele>
        <time>2014-06-17T12:57:45Z</time>
      </trkpt>
      <trkpt lat="59.9165618" lon="17.7234758">
        <ele>67.4297</ele>
        <time>2014-06-17T12:57:46Z</time>
      </trkpt>
      <trkpt lat="59.916583" lon="17.723508">
        <ele>67.9103</ele>
        <time>2014-06-17T12:57:47Z</time>
      </trkpt>
      <trkpt lat="59.9166051" lon="17.723539">
        <ele>67.4297</ele>
        <time>2014-06-17T12:57:48Z</time>
      </trkpt>
      <trkpt lat="59.9166301" lon="17.7235688">
        <ele>67.4297</ele>
        <time>2014-06-17T12:57:49Z</time>
      </trkpt>
      <trkpt lat="59.9166574" lon="17.7235927">
        <ele>66.949</ele>
        <time>2014-06-17T12:57:50Z</time>
      </trkpt>
      <trkpt lat="59.9166716" lon="17.7236268">
        <ele>65.9877</ele>
        <time>2014-06-17T12:57:51Z</time>
      </trkpt>
      <trkpt lat="59.916682" lon="17.7236597">
        <ele>65.5071</ele>
        <time>2014-06-17T12:57:52Z</time>
      </trkpt>
      <trkpt lat="59.9166905" lon="17.7236964">
        <ele>63.1036</ele>
        <time>2014-06-17T12:57:53Z</time>
      </trkpt>
      <trkpt lat="59.9167064" lon="17.7237353">
        <ele>63.5844</ele>
        <time>2014-06-17T12:57:54Z</time>
      </trkpt>
      <trkpt lat="59.9167309" lon="17.7237682">
        <ele>64.0651</ele>
        <time>2014-06-17T12:57:55Z</time>
      </trkpt>
      <trkpt lat="59.9167547" lon="17.7238042">
        <ele>64.5457</ele>
        <time>2014-06-17T12:57:56Z</time>
      </trkpt>
      <trkpt lat="59.9167703" lon="17.7238476">
        <ele>64.0651</ele>
        <time>2014-06-17T12:57:57Z</time>
      </trkpt>
      <trkpt lat="59.9167821" lon="17.7238907">
        <ele>64.0651</ele>
        <time>2014-06-17T12:57:58Z</time>
      </trkpt>
      <trkpt lat="59.9167931" lon="17.7239275">
        <ele>63.5844</ele>
        <time>2014-06-17T12:57:59Z</time>
      </trkpt>
      <trkpt lat="59.9168069" lon="17.7239699">
        <ele>63.1036</ele>
        <time>2014-06-17T12:58:00Z</time>
      </trkpt>
      <trkpt lat="59.9168234" lon="17.7240045">
        <ele>62.1423</ele>
        <time>2014-06-17T12:58:01Z</time>
      </trkpt>
      <trkpt lat="59.9168439" lon="17.7240356">
        <ele>61.6617</ele>
        <time>2014-06-17T12:58:02Z</time>
      </trkpt>
      <trkpt lat="59.9168536" lon="17.7240792">
        <ele>60.2197</ele>
        <time>2014-06-17T12:58:03Z</time>
      </trkpt>
      <trkpt lat="59.9168666" lon="17.7241236">
        <ele>60.2197</ele>
        <time>2014-06-17T12:58:04Z</time>
      </trkpt>
      <trkpt lat="59.9168776" lon="17.7241707">
        <ele>58.7777</ele>
        <time>2014-06-17T12:58:05Z</time>
      </trkpt>
      <trkpt lat="59.9168863" lon="17.7242148">
        <ele>58.2971</ele>
        <time>2014-06-17T12:58:06Z</time>
      </trkpt>
      <trkpt lat="59.9168976" lon="17.7242554">
        <ele>57.8165</ele>
        <time>2014-06-17T12:58:07Z</time>
      </trkpt>
      <trkpt lat="59.9169074" lon="17.7242954">
        <ele>56.3745</ele>
        <time>2014-06-17T12:58:08Z</time>
      </trkpt>
      <trkpt lat="59.9169173" lon="17.7243442">
        <ele>56.8551</ele>
        <time>2014-06-17T12:58:09Z</time>
      </trkpt>
      <trkpt lat="59.9169198" lon="17.7244036">
        <ele>56.3745</ele>
        <time>2014-06-17T12:58:10Z</time>
      </trkpt>
      <trkpt lat="59.9169308" lon="17.7244579">
        <ele>55.8938</ele>
        <time>2014-06-17T12:58:11Z</time>
      </trkpt>
      <trkpt lat="59.9169431" lon="17.7245007">
        <ele>54.9324</ele>
        <time>2014-06-17T12:58:12Z</time>
      </trkpt>
      <trkpt lat="59.9169665" lon="17.7245176">
        <ele>54.9324</ele>
        <time>2014-06-17T12:58:13Z</time>
      </trkpt>
      <trkpt lat="59.916994" lon="17.7245367">
        <ele>54.9324</ele>
        <time>2014-06-17T12:58:14Z</time>
      </trkpt>
      <trkpt lat="59.9170148" lon="17.7245759">
        <ele>54.9324</ele>
        <time>2014-06-17T12:58:15Z</time>
      </trkpt>
      <trkpt lat="59.9170302" lon="17.7246315">
        <ele>54.4518</ele>
        <time>2014-06-17T12:58:16Z</time>
      </trkpt>
      <trkpt lat="59.9170473" lon="17.7246742">
        <ele>53.9712</ele>
        <time>2014-06-17T12:58:17Z</time>
      </trkpt>
      <trkpt lat="59.9170613" lon="17.7247148">
        <ele>53.0098</ele>
        <time>2014-06-17T12:58:18Z</time>
      </trkpt>
      <trkpt lat="59.9170798" lon="17.7247459">
        <ele>52.5292</ele>
        <time>2014-06-17T12:58:19Z</time>
      </trkpt>
      <trkpt lat="59.9171007" lon="17.7247687">
        <ele>52.0486</ele>
        <time>2014-06-17T12:58:20Z</time>
      </trkpt>
      <trkpt lat="59.9171239" lon="17.7247946">
        <ele>52.0486</ele>
        <time>2014-06-17T12:58:21Z</time>
      </trkpt>
      <trkpt lat="59.9171508" lon="17.7248146">
        <ele>50.6066</ele>
        <time>2014-06-17T12:58:22Z</time>
      </trkpt>
      <trkpt lat="59.9171697" lon="17.7248421">
        <ele>50.126</ele>
        <time>2014-06-17T12:58:23Z</time>
      </trkpt>
      <trkpt lat="59.9171902" lon="17.7248718">
        <ele>50.126</ele>
        <time>2014-06-17T12:58:24Z</time>
      </trkpt>
      <trkpt lat="59.9172141" lon="17.7249003">
        <ele>50.126</ele>
        <time>2014-06-17T12:58:25Z</time>
      </trkpt>
      <trkpt lat="59.917235" lon="17.7249242">
        <ele>49.1646</ele>
        <time>2014-06-17T12:58:26Z</time>
      </trkpt>
      <trkpt lat="59.9172578" lon="17.7249452">
        <ele>48.2034</ele>
        <time>2014-06-17T12:58:27Z</time>
      </trkpt>
      <trkpt lat="59.9172815" lon="17.7249701">
        <ele>47.7225</ele>
        <time>2014-06-17T12:58:28Z</time>
      </trkpt>
      <trkpt lat="59.9173036" lon="17.7249978">
        <ele>46.7612</ele>
        <time>2014-06-17T12:58:29Z</time>
      </trkpt>
      <trkpt lat="59.917329" lon="17.725023">
        <ele>46.2806</ele>
        <time>2014-06-17T12:58:30Z</time>
      </trkpt>
      <trkpt lat="59.9173545" lon="17.7250483">
        <ele>46.2806</ele>
        <time>2014-06-17T12:58:31Z</time>
      </trkpt>
      <trkpt lat="59.917375" lon="17.725076">
        <ele>45.7999</ele>
        <time>2014-06-17T12:58:32Z</time>
      </trkpt>
      <trkpt lat="59.9173948" lon="17.7251049">
        <ele>45.3192</ele>
        <time>2014-06-17T12:58:33Z</time>
      </trkpt>
      <trkpt lat="59.9174165" lon="17.7251262">
        <ele>44.358</ele>
        <time>2014-06-17T12:58:34Z</time>
      </trkpt>
      <trkpt lat="59.917444" lon="17.725141">
        <ele>44.358</ele>
        <time>2014-06-17T12:58:35Z</time>
      </trkpt>
      <trkpt lat="59.9174695" lon="17.7251644">
        <ele>44.358</ele>
        <time>2014-06-17T12:58:36Z</time>
      </trkpt>
      <trkpt lat="59.9174994" lon="17.7251851">
        <ele>44.8386</ele>
        <time>2014-06-17T12:58:37Z</time>
      </trkpt>
      <trkpt lat="59.917522" lon="17.7252111">
        <ele>44.8386</ele>
        <time>2014-06-17T12:58:38Z</time>
      </trkpt>
      <trkpt lat="59.9175414" lon="17.7252416">
        <ele>44.8386</ele>
        <time>2014-06-17T12:58:39Z</time>
      </trkpt>
      <trkpt lat="59.9175602" lon="17.7252737">
        <ele>44.358</ele>
        <time>2014-06-17T12:58:40Z</time>
      </trkpt>
      <trkpt lat="59.9175823" lon="17.7253069">
        <ele>44.8386</ele>
        <time>2014-06-17T12:58:41Z</time>
      </trkpt>
      <trkpt lat="59.9176045" lon="17.7253415">
        <ele>44.8386</ele>
        <time>2014-06-17T12:58:42Z</time>
      </trkpt>
      <trkpt lat="59.9176227" lon="17.7253752">
        <ele>43.8773</ele>
        <time>2014-06-17T12:58:43Z</time>
      </trkpt>
      <trkpt lat="59.9176444" lon="17.7254043">
        <ele>43.8773</ele>
        <time>2014-06-17T12:58:44Z</time>
      </trkpt>
      <trkpt lat="59.9176649" lon="17.7254435">
        <ele>43.8773</ele>
        <time>2014-06-17T12:58:45Z</time>
      </trkpt>
      <trkpt lat="59.9176833" lon="17.7254752">
        <ele>43.3966</ele>
        <time>2014-06-17T12:58:46Z</time>
      </trkpt>
      <trkpt lat="59.9177058" lon="17.7254893">
        <ele>43.8773</ele>
        <time>2014-06-17T12:58:47Z</time>
      </trkpt>
      <trkpt lat="59.9177295" lon="17.7255115">
        <ele>43.3966</ele>
        <time>2014-06-17T12:58:48Z</time>
      </trkpt>
      <trkpt lat="59.9177507" lon="17.7255417">
        <ele>43.3966</ele>
        <time>2014-06-17T12:58:49Z</time>
      </trkpt>
      <trkpt lat="59.9177663" lon="17.7255695">
        <ele>42.916</ele>
        <time>2014-06-17T12:58:50Z</time>
      </trkpt>
      <trkpt lat="59.9177806" lon="17.7256032">
        <ele>42.916</ele>
        <time>2014-06-17T12:58:51Z</time>
      </trkpt>
      <trkpt lat="59.9177983" lon="17.7256379">
        <ele>42.4354</ele>
        <time>2014-06-17T12:58:52Z</time>
      </trkpt>
      <trkpt lat="59.9178172" lon="17.7256669">
        <ele>41.9547</ele>
        <time>2014-06-17T12:58:53Z</time>
      </trkpt>
      <trkpt lat="59.9178356" lon="17.725687">
        <ele>41.9547</ele>
        <time>2014-06-17T12:58:54Z</time>
      </trkpt>
      <trkpt lat="59.9178573" lon="17.7257002">
        <ele>41.9547</ele>
        <time>2014-06-17T12:58:55Z</time>
      </trkpt>
      <trkpt lat="59.9178777" lon="17.7257282">
        <ele>41.9547</ele>
        <time>2014-06-17T12:58:56Z</time>
      </trkpt>
      <trkpt lat="59.9179036" lon="17.7257487">
        <ele>41.9547</ele>
        <time>2014-06-17T12:58:57Z</time>
      </trkpt>
      <trkpt lat="59.9179275" lon="17.7257647">
        <ele>42.4354</ele>
        <time>2014-06-17T12:58:58Z</time>
      </trkpt>
      <trkpt lat="59.9179503" lon="17.7257919">
        <ele>42.4354</ele>
        <time>2014-06-17T12:58:59Z</time>
      </trkpt>
      <trkpt lat="59.917975" lon="17.7258191">
        <ele>41.9547</ele>
        <time>2014-06-17T12:59:00Z</time>
      </trkpt>
      <trkpt lat="59.9180026" lon="17.7258354">
        <ele>41.9547</ele>
        <time>2014-06-17T12:59:01Z</time>
      </trkpt>
      <trkpt lat="59.9180281" lon="17.7258563">
        <ele>42.4354</ele>
        <time>2014-06-17T12:59:02Z</time>
      </trkpt>
      <trkpt lat="59.9180568" lon="17.7258823">
        <ele>42.4354</ele>
        <time>2014-06-17T12:59:03Z</time>
      </trkpt>
      <trkpt lat="59.9180844" lon="17.725914">
        <ele>42.4354</ele>
        <time>2014-06-17T12:59:04Z</time>
      </trkpt>
      <trkpt lat="59.9181072" lon="17.7259555">
        <ele>42.4354</ele>
        <time>2014-06-17T12:59:05Z</time>
      </trkpt>
      <trkpt lat="59.918126" lon="17.7259962">
        <ele>42.4354</ele>
        <time>2014-06-17T12:59:06Z</time>
      </trkpt>
      <trkpt lat="59.9181414" lon="17.7260403">
        <ele>41.9547</ele>
        <time>2014-06-17T12:59:07Z</time>
      </trkpt>
      <trkpt lat="59.9181604" lon="17.726077">
        <ele>41.474</ele>
        <time>2014-06-17T12:59:08Z</time>
      </trkpt>
      <trkpt lat="59.9181787" lon="17.726114">
        <ele>40.9934</ele>
        <time>2014-06-17T12:59:09Z</time>
      </trkpt>
      <trkpt lat="59.9181993" lon="17.726148">
        <ele>40.9934</ele>
        <time>2014-06-17T12:59:10Z</time>
      </trkpt>
      <trkpt lat="59.9182189" lon="17.7261873">
        <ele>40.5128</ele>
        <time>2014-06-17T12:59:11Z</time>
      </trkpt>
      <trkpt lat="59.9182378" lon="17.7262226">
        <ele>39.5513</ele>
        <time>2014-06-17T12:59:12Z</time>
      </trkpt>
      <trkpt lat="59.9182531" lon="17.7262578">
        <ele>39.0707</ele>
        <time>2014-06-17T12:59:13Z</time>
      </trkpt>
      <trkpt lat="59.9182699" lon="17.7262953">
        <ele>38.5901</ele>
        <time>2014-06-17T12:59:14Z</time>
      </trkpt>
      <trkpt lat="59.918288" lon="17.7263313">
        <ele>38.1094</ele>
        <time>2014-06-17T12:59:15Z</time>
      </trkpt>
      <trkpt lat="59.9183071" lon="17.7263666">
        <ele>37.6287</ele>
        <time>2014-06-17T12:59:16Z</time>
      </trkpt>
      <trkpt lat="59.9183297" lon="17.7264052">
        <ele>38.1094</ele>
        <time>2014-06-17T12:59:17Z</time>
      </trkpt>
      <trkpt lat="59.9183499" lon="17.7264437">
        <ele>38.1094</ele>
        <time>2014-06-17T12:59:18Z</time>
      </trkpt>
      <trkpt lat="59.9183719" lon="17.726476">
        <ele>38.5901</ele>
        <time>2014-06-17T12:59:19Z</time>
      </trkpt>
      <trkpt lat="59.9183952" lon="17.7265021">
        <ele>38.5901</ele>
        <time>2014-06-17T12:59:20Z</time>
      </trkpt>
      <trkpt lat="59.9184226" lon="17.7265155">
        <ele>39.0707</ele>
        <time>2014-06-17T12:59:21Z</time>
      </trkpt>
      <trkpt lat="59.9184486" lon="17.7265259">
        <ele>39.0707</ele>
        <time>2014-06-17T12:59:22Z</time>
      </trkpt>
      <trkpt lat="59.9184741" lon="17.7265279">
        <ele>38.5901</ele>
        <time>2014-06-17T12:59:23Z</time>
      </trkpt>
      <trkpt lat="59.9184983" lon="17.7265274">
        <ele>38.1094</ele>
        <time>2014-06-17T12:59:24Z</time>
      </trkpt>
      <trkpt lat="59.9185237" lon="17.7265254">
        <ele>38.5901</ele>
        <time>2014-06-17T12:59:25Z</time>
      </trkpt>
      <trkpt lat="59.9185504" lon="17.726515">
        <ele>38.1094</ele>
        <time>2014-06-17T12:59:26Z</time>
      </trkpt>
      <trkpt lat="59.9185749" lon="17.7264982">
        <ele>38.1094</ele>
        <time>2014-06-17T12:59:27Z</time>
      </trkpt>
      <trkpt lat="59.9185978" lon="17.7264736">
        <ele>38.1094</ele>
        <time>2014-06-17T12:59:28Z</time>
      </trkpt>
      <trkpt lat="59.9186195" lon="17.7264413">
        <ele>38.1094</ele>
        <time>2014-06-17T12:59:29Z</time>
      </trkpt>
      <trkpt lat="59.9186403" lon="17.7264007">
        <ele>38.1094</ele>
        <time>2014-06-17T12:59:30Z</time>
      </trkpt>
      <trkpt lat="59.9186589" lon="17.7263559">
        <ele>38.1094</ele>
        <time>2014-06-17T12:59:31Z</time>
      </trkpt>
      <trkpt lat="59.9186737" lon="17.7263169">
        <ele>38.1094</ele>
        <time>2014-06-17T12:59:32Z</time>
      </trkpt>
      <trkpt lat="59.9186863" lon="17.7262785">
        <ele>37.6287</ele>
        <time>2014-06-17T12:59:33Z</time>
      </trkpt>
      <trkpt lat="59.9186997" lon="17.7262367">
        <ele>38.1094</ele>
        <time>2014-06-17T12:59:34Z</time>
      </trkpt>
      <trkpt lat="59.9187112" lon="17.7261963">
        <ele>37.6287</ele>
        <time>2014-06-17T12:59:35Z</time>
      </trkpt>
      <trkpt lat="59.918721" lon="17.726155">
        <ele>37.1481</ele>
        <time>2014-06-17T12:59:36Z</time>
      </trkpt>
      <trkpt lat="59.9187334" lon="17.7261104">
        <ele>37.1481</ele>
        <time>2014-06-17T12:59:37Z</time>
      </trkpt>
      <trkpt lat="59.9187448" lon="17.7260675">
        <ele>37.1481</ele>
        <time>2014-06-17T12:59:38Z</time>
      </trkpt>
      <trkpt lat="59.9187563" lon="17.7260279">
        <ele>37.1481</ele>
        <time>2014-06-17T12:59:39Z</time>
      </trkpt>
      <trkpt lat="59.9187673" lon="17.7259895">
        <ele>36.6675</ele>
        <time>2014-06-17T12:59:40Z</time>
      </trkpt>
      <trkpt lat="59.9187806" lon="17.7259461">
        <ele>36.6675</ele>
        <time>2014-06-17T12:59:41Z</time>
      </trkpt>
      <trkpt lat="59.918793" lon="17.7259011">
        <ele>36.1868</ele>
        <time>2014-06-17T12:59:42Z</time>
      </trkpt>
      <trkpt lat="59.9188039" lon="17.7258545">
        <ele>36.1868</ele>
        <time>2014-06-17T12:59:43Z</time>
      </trkpt>
      <trkpt lat="59.9188156" lon="17.7258084">
        <ele>36.1868</ele>
        <time>2014-06-17T12:59:44Z</time>
      </trkpt>
      <trkpt lat="59.9188273" lon="17.7257664">
        <ele>35.7061</ele>
        <time>2014-06-17T12:59:45Z</time>
      </trkpt>
      <trkpt lat="59.9188382" lon="17.7257237">
        <ele>35.7061</ele>
        <time>2014-06-17T12:59:46Z</time>
      </trkpt>
      <trkpt lat="59.9188489" lon="17.7256839">
        <ele>35.7061</ele>
        <time>2014-06-17T12:59:47Z</time>
      </trkpt>
      <trkpt lat="59.9188584" lon="17.7256416">
        <ele>35.7061</ele>
        <time>2014-06-17T12:59:48Z</time>
      </trkpt>
      <trkpt lat="59.9188682" lon="17.725596">
        <ele>35.7061</ele>
        <time>2014-06-17T12:59:49Z</time>
      </trkpt>
      <trkpt lat="59.9188776" lon="17.7255535">
        <ele>35.2255</ele>
        <time>2014-06-17T12:59:50Z</time>
      </trkpt>
      <trkpt lat="59.9188892" lon="17.7255088">
        <ele>35.2255</ele>
        <time>2014-06-17T12:59:51Z</time>
      </trkpt>
      <trkpt lat="59.9189018" lon="17.7254684">
        <ele>34.7449</ele>
        <time>2014-06-17T12:59:52Z</time>
      </trkpt>
      <trkpt lat="59.9189143" lon="17.7254314">
        <ele>34.7449</ele>
        <time>2014-06-17T12:59:53Z</time>
      </trkpt>
      <trkpt lat="59.9189261" lon="17.7253883">
        <ele>34.7449</ele>
        <time>2014-06-17T12:59:54Z</time>
      </trkpt>
      <trkpt lat="59.9189365" lon="17.7253461">
        <ele>34.7449</ele>
        <time>2014-06-17T12:59:55Z</time>
      </trkpt>
      <trkpt lat="59.918948" lon="17.7253018">
        <ele>34.7449</ele>
        <time>2014-06-17T12:59:56Z</time>
      </trkpt>
      <trkpt lat="59.9189618" lon="17.7252617">
        <ele>34.2642</ele>
        <time>2014-06-17T12:59:57Z</time>
      </trkpt>
      <trkpt lat="59.9189732" lon="17.725225">
        <ele>34.2642</ele>
        <time>2014-06-17T12:59:58Z</time>
      </trkpt>
      <trkpt lat="59.9189836" lon="17.7251821">
        <ele>33.7834</ele>
        <time>2014-06-17T12:59:59Z</time>
      </trkpt>
      <trkpt lat="59.918995" lon="17.7251402">
        <ele>33.7834</ele>
        <time>2014-06-17T13:00:00Z</time>
      </trkpt>
      <trkpt lat="59.9190063" lon="17.725096">
        <ele>33.7834</ele>
        <time>2014-06-17T13:00:01Z</time>
      </trkpt>
      <trkpt lat="59.9190174" lon="17.7250499">
        <ele>33.7834</ele>
        <time>2014-06-17T13:00:02Z</time>
      </trkpt>
      <trkpt lat="59.9190296" lon="17.725004">
        <ele>33.7834</ele>
        <time>2014-06-17T13:00:03Z</time>
      </trkpt>
      <trkpt lat="59.9190441" lon="17.7249644">
        <ele>33.7834</ele>
        <time>2014-06-17T13:00:04Z</time>
      </trkpt>
      <trkpt lat="59.9190579" lon="17.7249272">
        <ele>33.3029</ele>
        <time>2014-06-17T13:00:05Z</time>
      </trkpt>
      <trkpt lat="59.9190729" lon="17.7248859">
        <ele>33.7834</ele>
        <time>2014-06-17T13:00:06Z</time>
      </trkpt>
      <trkpt lat="59.9190908" lon="17.7248474">
        <ele>33.3029</ele>
        <time>2014-06-17T13:00:07Z</time>
      </trkpt>
      <trkpt lat="59.9191126" lon="17.7248143">
        <ele>33.7834</ele>
        <time>2014-06-17T13:00:08Z</time>
      </trkpt>
      <trkpt lat="59.9191338" lon="17.7247846">
        <ele>33.7834</ele>
        <time>2014-06-17T13:00:09Z</time>
      </trkpt>
      <trkpt lat="59.9191563" lon="17.7247609">
        <ele>34.2642</ele>
        <time>2014-06-17T13:00:10Z</time>
      </trkpt>
      <trkpt lat="59.9191808" lon="17.7247413">
        <ele>34.2642</ele>
        <time>2014-06-17T13:00:11Z</time>
      </trkpt>
      <trkpt lat="59.9192057" lon="17.7247307">
        <ele>34.2642</ele>
        <time>2014-06-17T13:00:12Z</time>
      </trkpt>
      <trkpt lat="59.9192293" lon="17.7247304">
        <ele>34.2642</ele>
        <time>2014-06-17T13:00:13Z</time>
      </trkpt>
      <trkpt lat="59.9192495" lon="17.7247408">
        <ele>34.2642</ele>
        <time>2014-06-17T13:00:14Z</time>
      </trkpt>
      <trkpt lat="59.9192691" lon="17.7247538">
        <ele>34.7449</ele>
        <time>2014-06-17T13:00:15Z</time>
      </trkpt>
      <trkpt lat="59.9192883" lon="17.7247717">
        <ele>34.2642</ele>
        <time>2014-06-17T13:00:16Z</time>
      </trkpt>
      <trkpt lat="59.9193126" lon="17.7247924">
        <ele>34.7449</ele>
        <time>2014-06-17T13:00:17Z</time>
      </trkpt>
      <trkpt lat="59.9193355" lon="17.7248066">
        <ele>35.2255</ele>
        <time>2014-06-17T13:00:18Z</time>
      </trkpt>
      <trkpt lat="59.9193582" lon="17.7248226">
        <ele>35.2255</ele>
        <time>2014-06-17T13:00:19Z</time>
      </trkpt>
      <trkpt lat="59.9193844" lon="17.724841">
        <ele>35.7061</ele>
        <time>2014-06-17T13:00:20Z</time>
      </trkpt>
      <trkpt lat="59.9194117" lon="17.7248619">
        <ele>35.7061</ele>
        <time>2014-06-17T13:00:21Z</time>
      </trkpt>
      <trkpt lat="59.9194369" lon="17.7248863">
        <ele>36.1868</ele>
        <time>2014-06-17T13:00:22Z</time>
      </trkpt>
      <trkpt lat="59.9194642" lon="17.7249009">
        <ele>36.6675</ele>
        <time>2014-06-17T13:00:23Z</time>
      </trkpt>
      <trkpt lat="59.9194919" lon="17.7249203">
        <ele>36.6675</ele>
        <time>2014-06-17T13:00:24Z</time>
      </trkpt>
      <trkpt lat="59.9195196" lon="17.7249485">
        <ele>37.1481</ele>
        <time>2014-06-17T13:00:25Z</time>
      </trkpt>
      <trkpt lat="59.9195424" lon="17.7249835">
        <ele>37.1481</ele>
        <time>2014-06-17T13:00:26Z</time>
      </trkpt>
      <trkpt lat="59.9195667" lon="17.7250013">
        <ele>37.1481</ele>
        <time>2014-06-17T13:00:27Z</time>
      </trkpt>
      <trkpt lat="59.919589" lon="17.7250199">
        <ele>37.1481</ele>
        <time>2014-06-17T13:00:28Z</time>
      </trkpt>
      <trkpt lat="59.9196073" lon="17.7250489">
        <ele>36.6675</ele>
        <time>2014-06-17T13:00:29Z</time>
      </trkpt>
      <trkpt lat="59.9196274" lon="17.725085">
        <ele>36.6675</ele>
        <time>2014-06-17T13:00:30Z</time>
      </trkpt>
      <trkpt lat="59.9196481" lon="17.7251187">
        <ele>36.1868</ele>
        <time>2014-06-17T13:00:31Z</time>
      </trkpt>
      <trkpt lat="59.9196721" lon="17.7251396">
        <ele>37.1481</ele>
        <time>2014-06-17T13:00:32Z</time>
      </trkpt>
      <trkpt lat="59.9196984" lon="17.7251567">
        <ele>37.6287</ele>
        <time>2014-06-17T13:00:33Z</time>
      </trkpt>
      <trkpt lat="59.9197203" lon="17.7251764">
        <ele>38.1094</ele>
        <time>2014-06-17T13:00:34Z</time>
      </trkpt>
      <trkpt lat="59.9197439" lon="17.7252012">
        <ele>39.0707</ele>
        <time>2014-06-17T13:00:35Z</time>
      </trkpt>
      <trkpt lat="59.9197674" lon="17.725229">
        <ele>39.0707</ele>
        <time>2014-06-17T13:00:36Z</time>
      </trkpt>
      <trkpt lat="59.919791" lon="17.7252542">
        <ele>39.0707</ele>
        <time>2014-06-17T13:00:37Z</time>
      </trkpt>
      <trkpt lat="59.9198161" lon="17.7252736">
        <ele>39.5513</ele>
        <time>2014-06-17T13:00:38Z</time>
      </trkpt>
      <trkpt lat="59.9198413" lon="17.725295">
        <ele>40.0321</ele>
        <time>2014-06-17T13:00:39Z</time>
      </trkpt>
      <trkpt lat="59.9198627" lon="17.7253166">
        <ele>40.5128</ele>
        <time>2014-06-17T13:00:40Z</time>
      </trkpt>
      <trkpt lat="59.9198858" lon="17.7253307">
        <ele>40.9934</ele>
        <time>2014-06-17T13:00:41Z</time>
      </trkpt>
      <trkpt lat="59.9199097" lon="17.7253359">
        <ele>41.474</ele>
        <time>2014-06-17T13:00:42Z</time>
      </trkpt>
      <trkpt lat="59.919934" lon="17.7253463">
        <ele>41.9547</ele>
        <time>2014-06-17T13:00:43Z</time>
      </trkpt>
      <trkpt lat="59.9199569" lon="17.7253597">
        <ele>42.4354</ele>
        <time>2014-06-17T13:00:44Z</time>
      </trkpt>
      <trkpt lat="59.9199765" lon="17.7253715">
        <ele>42.916</ele>
        <time>2014-06-17T13:00:45Z</time>
      </trkpt>
      <trkpt lat="59.9199994" lon="17.7253773">
        <ele>43.3966</ele>
        <time>2014-06-17T13:00:46Z</time>
      </trkpt>
      <trkpt lat="59.9200207" lon="17.7253871">
        <ele>43.8773</ele>
        <time>2014-06-17T13:00:47Z</time>
      </trkpt>
      <trkpt lat="59.9200436" lon="17.7253847">
        <ele>44.358</ele>
        <time>2014-06-17T13:00:48Z</time>
      </trkpt>
      <trkpt lat="59.9200684" lon="17.7253841">
        <ele>45.3192</ele>
        <time>2014-06-17T13:00:49Z</time>
      </trkpt>
      <trkpt lat="59.9200932" lon="17.7253964">
        <ele>45.3192</ele>
        <time>2014-06-17T13:00:50Z</time>
      </trkpt>
      <trkpt lat="59.9201184" lon="17.7254077">
        <ele>44.8386</ele>
        <time>2014-06-17T13:00:51Z</time>
      </trkpt>
      <trkpt lat="59.9201392" lon="17.7254191">
        <ele>44.8386</ele>
        <time>2014-06-17T13:00:52Z</time>
      </trkpt>
      <trkpt lat="59.920161" lon="17.7254248">
        <ele>44.8386</ele>
        <time>2014-06-17T13:00:53Z</time>
      </trkpt>
      <trkpt lat="59.9201825" lon="17.7254355">
        <ele>45.3192</ele>
        <time>2014-06-17T13:00:54Z</time>
      </trkpt>
      <trkpt lat="59.9202067" lon="17.7254569">
        <ele>44.8386</ele>
        <time>2014-06-17T13:00:55Z</time>
      </trkpt>
      <trkpt lat="59.9202315" lon="17.7254862">
        <ele>45.3192</ele>
        <time>2014-06-17T13:00:56Z</time>
      </trkpt>
      <trkpt lat="59.9202523" lon="17.7255162">
        <ele>45.3192</ele>
        <time>2014-06-17T13:00:57Z</time>
      </trkpt>
      <trkpt lat="59.9202724" lon="17.7255545">
        <ele>45.3192</ele>
        <time>2014-06-17T13:00:58Z</time>
      </trkpt>
      <trkpt lat="59.9202932" lon="17.7255906">
        <ele>45.7999</ele>
        <time>2014-06-17T13:00:59Z</time>
      </trkpt>
      <trkpt lat="59.9203112" lon="17.7256308">
        <ele>45.7999</ele>
        <time>2014-06-17T13:01:00Z</time>
      </trkpt>
      <trkpt lat="59.9203467" lon="17.7256571">
        <ele>47.7225</ele>
        <time>2014-06-17T13:01:01Z</time>
      </trkpt>
      <trkpt lat="59.9203862" lon="17.7256756">
        <ele>49.1646</ele>
        <time>2014-06-17T13:01:02Z</time>
      </trkpt>
      <trkpt lat="59.9204166" lon="17.7257053">
        <ele>49.1646</ele>
        <time>2014-06-17T13:01:03Z</time>
      </trkpt>
      <trkpt lat="59.9204397" lon="17.72574">
        <ele>49.6453</ele>
        <time>2014-06-17T13:01:04Z</time>
      </trkpt>
      <trkpt lat="59.9204569" lon="17.7257768">
        <ele>49.6453</ele>
        <time>2014-06-17T13:01:05Z</time>
      </trkpt>
      <trkpt lat="59.920476" lon="17.7258166">
        <ele>50.126</ele>
        <time>2014-06-17T13:01:06Z</time>
      </trkpt>
      <trkpt lat="59.9204896" lon="17.7258558">
        <ele>49.6453</ele>
        <time>2014-06-17T13:01:07Z</time>
      </trkpt>
      <trkpt lat="59.9205173" lon="17.7258865">
        <ele>51.0872</ele>
        <time>2014-06-17T13:01:08Z</time>
      </trkpt>
      <trkpt lat="59.9205386" lon="17.7259187">
        <ele>51.5679</ele>
        <time>2014-06-17T13:01:09Z</time>
      </trkpt>
      <trkpt lat="59.9205631" lon="17.7259452">
        <ele>52.0486</ele>
        <time>2014-06-17T13:01:10Z</time>
      </trkpt>
      <trkpt lat="59.9205829" lon="17.7259819">
        <ele>52.0486</ele>
        <time>2014-06-17T13:01:11Z</time>
      </trkpt>
      <trkpt lat="59.920605" lon="17.7260186">
        <ele>53.0098</ele>
        <time>2014-06-17T13:01:12Z</time>
      </trkpt>
      <trkpt lat="59.920615" lon="17.726055">
        <ele>52.0486</ele>
        <time>2014-06-17T13:01:13Z</time>
      </trkpt>
      <trkpt lat="59.9206302" lon="17.7260761">
        <ele>52.0486</ele>
        <time>2014-06-17T13:01:14Z</time>
      </trkpt>
      <trkpt lat="59.9206452" lon="17.7261035">
        <ele>51.0872</ele>
        <time>2014-06-17T13:01:15Z</time>
      </trkpt>
      <trkpt lat="59.9206606" lon="17.7261435">
        <ele>50.6066</ele>
        <time>2014-06-17T13:01:16Z</time>
      </trkpt>
      <trkpt lat="59.9206682" lon="17.7261834">
        <ele>49.1646</ele>
        <time>2014-06-17T13:01:17Z</time>
      </trkpt>
      <trkpt lat="59.9206803" lon="17.7262119">
        <ele>48.684</ele>
        <time>2014-06-17T13:01:18Z</time>
      </trkpt>
      <trkpt lat="59.9206989" lon="17.726245">
        <ele>49.6453</ele>
        <time>2014-06-17T13:01:19Z</time>
      </trkpt>
      <trkpt lat="59.9207195" lon="17.7262909">
        <ele>50.6066</ele>
        <time>2014-06-17T13:01:20Z</time>
      </trkpt>
      <trkpt lat="59.9207383" lon="17.726334">
        <ele>51.5679</ele>
        <time>2014-06-17T13:01:21Z</time>
      </trkpt>
      <trkpt lat="59.9207547" lon="17.7263793">
        <ele>51.0872</ele>
        <time>2014-06-17T13:01:22Z</time>
      </trkpt>
      <trkpt lat="59.9207683" lon="17.7264176">
        <ele>50.6066</ele>
        <time>2014-06-17T13:01:23Z</time>
      </trkpt>
      <trkpt lat="59.9207843" lon="17.7264476">
        <ele>51.0872</ele>
        <time>2014-06-17T13:01:24Z</time>
      </trkpt>
      <trkpt lat="59.9208018" lon="17.726471">
        <ele>51.5679</ele>
        <time>2014-06-17T13:01:25Z</time>
      </trkpt>
      <trkpt lat="59.9208229" lon="17.7264983">
        <ele>51.5679</ele>
        <time>2014-06-17T13:01:26Z</time>
      </trkpt>
      <trkpt lat="59.9208426" lon="17.7265326">
        <ele>51.5679</ele>
        <time>2014-06-17T13:01:27Z</time>
      </trkpt>
      <trkpt lat="59.9208558" lon="17.7265677">
        <ele>51.0872</ele>
        <time>2014-06-17T13:01:28Z</time>
      </trkpt>
      <trkpt lat="59.9208714" lon="17.7266097">
        <ele>51.5679</ele>
        <time>2014-06-17T13:01:29Z</time>
      </trkpt>
      <trkpt lat="59.9208857" lon="17.7266494">
        <ele>51.5679</ele>
        <time>2014-06-17T13:01:30Z</time>
      </trkpt>
      <trkpt lat="59.9209004" lon="17.7266822">
        <ele>51.5679</ele>
        <time>2014-06-17T13:01:31Z</time>
      </trkpt>
      <trkpt lat="59.9209165" lon="17.7267181">
        <ele>51.0872</ele>
        <time>2014-06-17T13:01:32Z</time>
      </trkpt>
      <trkpt lat="59.920933" lon="17.7267523">
        <ele>51.0872</ele>
        <time>2014-06-17T13:01:33Z</time>
      </trkpt>
      <trkpt lat="59.9209495" lon="17.7267838">
        <ele>51.0872</ele>
        <time>2014-06-17T13:01:34Z</time>
      </trkpt>
      <trkpt lat="59.9209705" lon="17.7268169">
        <ele>50.6066</ele>
        <time>2014-06-17T13:01:35Z</time>
      </trkpt>
      <trkpt lat="59.9209841" lon="17.7268535">
        <ele>48.684</ele>
        <time>2014-06-17T13:01:36Z</time>
      </trkpt>
      <trkpt lat="59.9209988" lon="17.7268955">
        <ele>47.7225</ele>
        <time>2014-06-17T13:01:37Z</time>
      </trkpt>
      <trkpt lat="59.9210117" lon="17.7269388">
        <ele>47.2418</ele>
        <time>2014-06-17T13:01:38Z</time>
      </trkpt>
      <trkpt lat="59.9210255" lon="17.7269774">
        <ele>46.2806</ele>
        <time>2014-06-17T13:01:39Z</time>
      </trkpt>
      <trkpt lat="59.921039" lon="17.7270216">
        <ele>44.8386</ele>
        <time>2014-06-17T13:01:40Z</time>
      </trkpt>
      <trkpt lat="59.9210552" lon="17.7270591">
        <ele>44.358</ele>
        <time>2014-06-17T13:01:41Z</time>
      </trkpt>
      <trkpt lat="59.9210696" lon="17.7271032">
        <ele>43.3966</ele>
        <time>2014-06-17T13:01:42Z</time>
      </trkpt>
      <trkpt lat="59.9210825" lon="17.727152">
        <ele>42.916</ele>
        <time>2014-06-17T13:01:43Z</time>
      </trkpt>
      <trkpt lat="59.9210973" lon="17.7271905">
        <ele>42.4354</ele>
        <time>2014-06-17T13:01:44Z</time>
      </trkpt>
      <trkpt lat="59.9211109" lon="17.7272256">
        <ele>41.9547</ele>
        <time>2014-06-17T13:01:45Z</time>
      </trkpt>
      <trkpt lat="59.9211262" lon="17.7272546">
        <ele>41.474</ele>
        <time>2014-06-17T13:01:46Z</time>
      </trkpt>
      <trkpt lat="59.9211465" lon="17.7272798">
        <ele>40.9934</ele>
        <time>2014-06-17T13:01:47Z</time>
      </trkpt>
      <trkpt lat="59.9211684" lon="17.7273121">
        <ele>40.9934</ele>
        <time>2014-06-17T13:01:48Z</time>
      </trkpt>
      <trkpt lat="59.9211882" lon="17.7273458">
        <ele>40.5128</ele>
        <time>2014-06-17T13:01:49Z</time>
      </trkpt>
      <trkpt lat="59.9212063" lon="17.7273857">
        <ele>40.5128</ele>
        <time>2014-06-17T13:01:50Z</time>
      </trkpt>
      <trkpt lat="59.9212265" lon="17.7274231">
        <ele>40.0321</ele>
        <time>2014-06-17T13:01:51Z</time>
      </trkpt>
      <trkpt lat="59.9212454" lon="17.7274618">
        <ele>39.5513</ele>
        <time>2014-06-17T13:01:52Z</time>
      </trkpt>
      <trkpt lat="59.9212607" lon="17.7275041">
        <ele>39.5513</ele>
        <time>2014-06-17T13:01:53Z</time>
      </trkpt>
      <trkpt lat="59.9212764" lon="17.7275394">
        <ele>40.0321</ele>
        <time>2014-06-17T13:01:54Z</time>
      </trkpt>
      <trkpt lat="59.9212909" lon="17.7275808">
        <ele>40.5128</ele>
        <time>2014-06-17T13:01:55Z</time>
      </trkpt>
      <trkpt lat="59.9213075" lon="17.7276219">
        <ele>40.5128</ele>
        <time>2014-06-17T13:01:56Z</time>
      </trkpt>
      <trkpt lat="59.9213264" lon="17.7276613">
        <ele>40.5128</ele>
        <time>2014-06-17T13:01:57Z</time>
      </trkpt>
      <trkpt lat="59.9213468" lon="17.7277027">
        <ele>40.9934</ele>
        <time>2014-06-17T13:01:58Z</time>
      </trkpt>
      <trkpt lat="59.9213614" lon="17.7277499">
        <ele>41.474</ele>
        <time>2014-06-17T13:01:59Z</time>
      </trkpt>
      <trkpt lat="59.9213757" lon="17.7277892">
        <ele>40.9934</ele>
        <time>2014-06-17T13:02:00Z</time>
      </trkpt>
      <trkpt lat="59.9213888" lon="17.727829">
        <ele>40.5128</ele>
        <time>2014-06-17T13:02:01Z</time>
      </trkpt>
      <trkpt lat="59.9214024" lon="17.7278703">
        <ele>39.5513</ele>
        <time>2014-06-17T13:02:02Z</time>
      </trkpt>
      <trkpt lat="59.9214166" lon="17.7279166">
        <ele>40.5128</ele>
        <time>2014-06-17T13:02:03Z</time>
      </trkpt>
      <trkpt lat="59.9214276" lon="17.7279659">
        <ele>40.9934</ele>
        <time>2014-06-17T13:02:04Z</time>
      </trkpt>
      <trkpt lat="59.9214405" lon="17.7280067">
        <ele>40.9934</ele>
        <time>2014-06-17T13:02:05Z</time>
      </trkpt>
      <trkpt lat="59.9214525" lon="17.7280414">
        <ele>40.9934</ele>
        <time>2014-06-17T13:02:06Z</time>
      </trkpt>
      <trkpt lat="59.9214588" lon="17.7280727">
        <ele>40.5128</ele>
        <time>2014-06-17T13:02:07Z</time>
      </trkpt>
      <trkpt lat="59.9214701" lon="17.7281011">
        <ele>40.0321</ele>
        <time>2014-06-17T13:02:08Z</time>
      </trkpt>
      <trkpt lat="59.9214831" lon="17.72814">
        <ele>40.0321</ele>
        <time>2014-06-17T13:02:09Z</time>
      </trkpt>
      <trkpt lat="59.9214945" lon="17.728185">
        <ele>40.0321</ele>
        <time>2014-06-17T13:02:10Z</time>
      </trkpt>
      <trkpt lat="59.9215089" lon="17.7282316">
        <ele>40.0321</ele>
        <time>2014-06-17T13:02:11Z</time>
      </trkpt>
      <trkpt lat="59.9215267" lon="17.7282731">
        <ele>40.9934</ele>
        <time>2014-06-17T13:02:12Z</time>
      </trkpt>
      <trkpt lat="59.9215395" lon="17.7283141">
        <ele>40.9934</ele>
        <time>2014-06-17T13:02:13Z</time>
      </trkpt>
      <trkpt lat="59.9215521" lon="17.7283566">
        <ele>40.5128</ele>
        <time>2014-06-17T13:02:14Z</time>
      </trkpt>
      <trkpt lat="59.921569" lon="17.7283968">
        <ele>40.9934</ele>
        <time>2014-06-17T13:02:15Z</time>
      </trkpt>
      <trkpt lat="59.9215856" lon="17.7284295">
        <ele>40.9934</ele>
        <time>2014-06-17T13:02:16Z</time>
      </trkpt>
      <trkpt lat="59.921597" lon="17.7284681">
        <ele>41.474</ele>
        <time>2014-06-17T13:02:17Z</time>
      </trkpt>
      <trkpt lat="59.9216072" lon="17.7285113">
        <ele>40.5128</ele>
        <time>2014-06-17T13:02:18Z</time>
      </trkpt>
      <trkpt lat="59.9216188" lon="17.7285542">
        <ele>39.5513</ele>
        <time>2014-06-17T13:02:19Z</time>
      </trkpt>
      <trkpt lat="59.9216365" lon="17.7285951">
        <ele>39.5513</ele>
        <time>2014-06-17T13:02:20Z</time>
      </trkpt>
      <trkpt lat="59.9216605" lon="17.7286279">
        <ele>40.5128</ele>
        <time>2014-06-17T13:02:21Z</time>
      </trkpt>
      <trkpt lat="59.9216752" lon="17.7286692">
        <ele>40.5128</ele>
        <time>2014-06-17T13:02:22Z</time>
      </trkpt>
      <trkpt lat="59.9216909" lon="17.7287077">
        <ele>40.5128</ele>
        <time>2014-06-17T13:02:23Z</time>
      </trkpt>
      <trkpt lat="59.9217073" lon="17.7287419">
        <ele>40.5128</ele>
        <time>2014-06-17T13:02:24Z</time>
      </trkpt>
      <trkpt lat="59.9217248" lon="17.728776">
        <ele>40.0321</ele>
        <time>2014-06-17T13:02:25Z</time>
      </trkpt>
      <trkpt lat="59.9217479" lon="17.728801">
        <ele>40.0321</ele>
        <time>2014-06-17T13:02:26Z</time>
      </trkpt>
      <trkpt lat="59.9217756" lon="17.7288222">
        <ele>40.5128</ele>
        <time>2014-06-17T13:02:27Z</time>
      </trkpt>
      <trkpt lat="59.9218022" lon="17.7288427">
        <ele>40.9934</ele>
        <time>2014-06-17T13:02:28Z</time>
      </trkpt>
      <trkpt lat="59.921828" lon="17.7288677">
        <ele>40.9934</ele>
        <time>2014-06-17T13:02:29Z</time>
      </trkpt>
      <trkpt lat="59.9218529" lon="17.7288926">
        <ele>40.9934</ele>
        <time>2014-06-17T13:02:30Z</time>
      </trkpt>
      <trkpt lat="59.9218788" lon="17.728919">
        <ele>41.474</ele>
        <time>2014-06-17T13:02:31Z</time>
      </trkpt>
      <trkpt lat="59.9218957" lon="17.7289634">
        <ele>41.474</ele>
        <time>2014-06-17T13:02:32Z</time>
      </trkpt>
      <trkpt lat="59.9219124" lon="17.7290101">
        <ele>41.474</ele>
        <time>2014-06-17T13:02:33Z</time>
      </trkpt>
      <trkpt lat="59.9219238" lon="17.7290589">
        <ele>41.474</ele>
        <time>2014-06-17T13:02:34Z</time>
      </trkpt>
      <trkpt lat="59.9219337" lon="17.7291097">
        <ele>41.474</ele>
        <time>2014-06-17T13:02:35Z</time>
      </trkpt>
      <trkpt lat="59.921939" lon="17.7291614">
        <ele>41.474</ele>
        <time>2014-06-17T13:02:36Z</time>
      </trkpt>
      <trkpt lat="59.921946" lon="17.7292179">
        <ele>41.9547</ele>
        <time>2014-06-17T13:02:37Z</time>
      </trkpt>
      <trkpt lat="59.9219503" lon="17.7292786">
        <ele>41.474</ele>
        <time>2014-06-17T13:02:38Z</time>
      </trkpt>
      <trkpt lat="59.9219576" lon="17.7293268">
        <ele>40.9934</ele>
        <time>2014-06-17T13:02:39Z</time>
      </trkpt>
      <trkpt lat="59.9219631" lon="17.7293775">
        <ele>40.5128</ele>
        <time>2014-06-17T13:02:40Z</time>
      </trkpt>
      <trkpt lat="59.9219695" lon="17.729428">
        <ele>40.0321</ele>
        <time>2014-06-17T13:02:41Z</time>
      </trkpt>
      <trkpt lat="59.9219751" lon="17.7294794">
        <ele>39.5513</ele>
        <time>2014-06-17T13:02:42Z</time>
      </trkpt>
      <trkpt lat="59.9219803" lon="17.7295343">
        <ele>39.0707</ele>
        <time>2014-06-17T13:02:43Z</time>
      </trkpt>
      <trkpt lat="59.9219887" lon="17.7295851">
        <ele>38.5901</ele>
        <time>2014-06-17T13:02:44Z</time>
      </trkpt>
      <trkpt lat="59.9219996" lon="17.7296318">
        <ele>39.5513</ele>
        <time>2014-06-17T13:02:45Z</time>
      </trkpt>
      <trkpt lat="59.922012" lon="17.7296782">
        <ele>39.5513</ele>
        <time>2014-06-17T13:02:46Z</time>
      </trkpt>
      <trkpt lat="59.9220171" lon="17.7297248">
        <ele>39.5513</ele>
        <time>2014-06-17T13:02:47Z</time>
      </trkpt>
      <trkpt lat="59.9220229" lon="17.7297736">
        <ele>39.5513</ele>
        <time>2014-06-17T13:02:48Z</time>
      </trkpt>
      <trkpt lat="59.922031" lon="17.7298224">
        <ele>39.5513</ele>
        <time>2014-06-17T13:02:49Z</time>
      </trkpt>
      <trkpt lat="59.9220376" lon="17.7298702">
        <ele>39.5513</ele>
        <time>2014-06-17T13:02:50Z</time>
      </trkpt>
      <trkpt lat="59.9220394" lon="17.7299241">
        <ele>39.0707</ele>
        <time>2014-06-17T13:02:51Z</time>
      </trkpt>
      <trkpt lat="59.92204" lon="17.7299799">
        <ele>38.5901</ele>
        <time>2014-06-17T13:02:52Z</time>
      </trkpt>
      <trkpt lat="59.9220372" lon="17.7300369">
        <ele>38.5901</ele>
        <time>2014-06-17T13:02:53Z</time>
      </trkpt>
      <trkpt lat="59.9220369" lon="17.7300913">
        <ele>38.5901</ele>
        <time>2014-06-17T13:02:54Z</time>
      </trkpt>
      <trkpt lat="59.9220347" lon="17.7301457">
        <ele>38.5901</ele>
        <time>2014-06-17T13:02:55Z</time>
      </trkpt>
      <trkpt lat="59.9220292" lon="17.7301986">
        <ele>38.5901</ele>
        <time>2014-06-17T13:02:56Z</time>
      </trkpt>
      <trkpt lat="59.9220229" lon="17.7302503">
        <ele>38.1094</ele>
        <time>2014-06-17T13:02:57Z</time>
      </trkpt>
      <trkpt lat="59.922019" lon="17.7302974">
        <ele>38.1094</ele>
        <time>2014-06-17T13:02:58Z</time>
      </trkpt>
      <trkpt lat="59.9220188" lon="17.7303452">
        <ele>38.1094</ele>
        <time>2014-06-17T13:02:59Z</time>
      </trkpt>
      <trkpt lat="59.922024" lon="17.7303886">
        <ele>38.1094</ele>
        <time>2014-06-17T13:03:00Z</time>
      </trkpt>
      <trkpt lat="59.922027" lon="17.7304355">
        <ele>37.6287</ele>
        <time>2014-06-17T13:03:01Z</time>
      </trkpt>
      <trkpt lat="59.9220307" lon="17.7304804">
        <ele>37.1481</ele>
        <time>2014-06-17T13:03:02Z</time>
      </trkpt>
      <trkpt lat="59.922042" lon="17.7305212">
        <ele>37.1481</ele>
        <time>2014-06-17T13:03:03Z</time>
      </trkpt>
      <trkpt lat="59.9220565" lon="17.7305497">
        <ele>36.6675</ele>
        <time>2014-06-17T13:03:04Z</time>
      </trkpt>
      <trkpt lat="59.9220744" lon="17.7305739">
        <ele>36.6675</ele>
        <time>2014-06-17T13:03:05Z</time>
      </trkpt>
      <trkpt lat="59.9220933" lon="17.7305914">
        <ele>36.6675</ele>
        <time>2014-06-17T13:03:06Z</time>
      </trkpt>
      <trkpt lat="59.9221141" lon="17.7306019">
        <ele>36.6675</ele>
        <time>2014-06-17T13:03:07Z</time>
      </trkpt>
      <trkpt lat="59.9221322" lon="17.7306139">
        <ele>36.1868</ele>
        <time>2014-06-17T13:03:08Z</time>
      </trkpt>
      <trkpt lat="59.9221545" lon="17.7306269">
        <ele>36.1868</ele>
        <time>2014-06-17T13:03:09Z</time>
      </trkpt>
      <trkpt lat="59.922177" lon="17.7306422">
        <ele>36.1868</ele>
        <time>2014-06-17T13:03:10Z</time>
      </trkpt>
      <trkpt lat="59.9221972" lon="17.730655">
        <ele>36.1868</ele>
        <time>2014-06-17T13:03:11Z</time>
      </trkpt>
      <trkpt lat="59.9222223" lon="17.7306678">
        <ele>35.7061</ele>
        <time>2014-06-17T13:03:12Z</time>
      </trkpt>
      <trkpt lat="59.9222461" lon="17.7306883">
        <ele>35.7061</ele>
        <time>2014-06-17T13:03:13Z</time>
      </trkpt>
      <trkpt lat="59.9222676" lon="17.7307056">
        <ele>35.7061</ele>
        <time>2014-06-17T13:03:14Z</time>
      </trkpt>
      <trkpt lat="59.9222899" lon="17.7307087">
        <ele>35.7061</ele>
        <time>2014-06-17T13:03:15Z</time>
      </trkpt>
      <trkpt lat="59.9223123" lon="17.7307149">
        <ele>36.1868</ele>
        <time>2014-06-17T13:03:16Z</time>
      </trkpt>
      <trkpt lat="59.9223358" lon="17.7307248">
        <ele>36.6675</ele>
        <time>2014-06-17T13:03:17Z</time>
      </trkpt>
      <trkpt lat="59.9223591" lon="17.7307323">
        <ele>37.6287</ele>
        <time>2014-06-17T13:03:18Z</time>
      </trkpt>
      <trkpt lat="59.9223797" lon="17.7307382">
        <ele>37.6287</ele>
        <time>2014-06-17T13:03:19Z</time>
      </trkpt>
      <trkpt lat="59.9224018" lon="17.730752">
        <ele>37.6287</ele>
        <time>2014-06-17T13:03:20Z</time>
      </trkpt>
      <trkpt lat="59.9224244" lon="17.7307683">
        <ele>38.1094</ele>
        <time>2014-06-17T13:03:21Z</time>
      </trkpt>
      <trkpt lat="59.9224481" lon="17.7307808">
        <ele>38.5901</ele>
        <time>2014-06-17T13:03:22Z</time>
      </trkpt>
      <trkpt lat="59.9224729" lon="17.7307932">
        <ele>39.0707</ele>
        <time>2014-06-17T13:03:23Z</time>
      </trkpt>
      <trkpt lat="59.9224989" lon="17.7308035">
        <ele>39.5513</ele>
        <time>2014-06-17T13:03:24Z</time>
      </trkpt>
      <trkpt lat="59.9225204" lon="17.7308214">
        <ele>39.5513</ele>
        <time>2014-06-17T13:03:25Z</time>
      </trkpt>
      <trkpt lat="59.9225425" lon="17.7308356">
        <ele>39.5513</ele>
        <time>2014-06-17T13:03:26Z</time>
      </trkpt>
      <trkpt lat="59.922564" lon="17.730863">
        <ele>40.0321</ele>
        <time>2014-06-17T13:03:27Z</time>
      </trkpt>
      <trkpt lat="59.9225823" lon="17.7308978">
        <ele>39.5513</ele>
        <time>2014-06-17T13:03:28Z</time>
      </trkpt>
      <trkpt lat="59.9226026" lon="17.7309133">
        <ele>39.5513</ele>
        <time>2014-06-17T13:03:29Z</time>
      </trkpt>
      <trkpt lat="59.9226186" lon="17.7309277">
        <ele>39.5513</ele>
        <time>2014-06-17T13:03:30Z</time>
      </trkpt>
      <trkpt lat="59.9226393" lon="17.7309428">
        <ele>40.0321</ele>
        <time>2014-06-17T13:03:31Z</time>
      </trkpt>
      <trkpt lat="59.9226558" lon="17.7309632">
        <ele>40.0321</ele>
        <time>2014-06-17T13:03:32Z</time>
      </trkpt>
      <trkpt lat="59.9226732" lon="17.7309792">
        <ele>39.5513</ele>
        <time>2014-06-17T13:03:33Z</time>
      </trkpt>
      <trkpt lat="59.9226927" lon="17.7309998">
        <ele>38.5901</ele>
        <time>2014-06-17T13:03:34Z</time>
      </trkpt>
      <trkpt lat="59.9227142" lon="17.7310133">
        <ele>38.1094</ele>
        <time>2014-06-17T13:03:35Z</time>
      </trkpt>
      <trkpt lat="59.922732" lon="17.7310393">
        <ele>37.1481</ele>
        <time>2014-06-17T13:03:36Z</time>
      </trkpt>
      <trkpt lat="59.9227509" lon="17.7310547">
        <ele>36.6675</ele>
        <time>2014-06-17T13:03:37Z</time>
      </trkpt>
      <trkpt lat="59.9227718" lon="17.7310631">
        <ele>36.6675</ele>
        <time>2014-06-17T13:03:38Z</time>
      </trkpt>
      <trkpt lat="59.9227967" lon="17.7310729">
        <ele>36.6675</ele>
        <time>2014-06-17T13:03:39Z</time>
      </trkpt>
      <trkpt lat="59.922817" lon="17.7310926">
        <ele>36.6675</ele>
        <time>2014-06-17T13:03:40Z</time>
      </trkpt>
      <trkpt lat="59.9228357" lon="17.7311065">
        <ele>37.1481</ele>
        <time>2014-06-17T13:03:41Z</time>
      </trkpt>
      <trkpt lat="59.9228542" lon="17.7311229">
        <ele>36.6675</ele>
        <time>2014-06-17T13:03:42Z</time>
      </trkpt>
      <trkpt lat="59.922872" lon="17.7311414">
        <ele>37.1481</ele>
        <time>2014-06-17T13:03:43Z</time>
      </trkpt>
      <trkpt lat="59.9228921" lon="17.7311486">
        <ele>37.1481</ele>
        <time>2014-06-17T13:03:44Z</time>
      </trkpt>
      <trkpt lat="59.9229081" lon="17.7311713">
        <ele>36.6675</ele>
        <time>2014-06-17T13:03:45Z</time>
      </trkpt>
      <trkpt lat="59.9229278" lon="17.7311983">
        <ele>35.7061</ele>
        <time>2014-06-17T13:03:46Z</time>
      </trkpt>
      <trkpt lat="59.9229483" lon="17.7312245">
        <ele>36.1868</ele>
        <time>2014-06-17T13:03:47Z</time>
      </trkpt>
      <trkpt lat="59.9229703" lon="17.7312526">
        <ele>36.1868</ele>
        <time>2014-06-17T13:03:48Z</time>
      </trkpt>
      <trkpt lat="59.9229901" lon="17.7312785">
        <ele>35.7061</ele>
        <time>2014-06-17T13:03:49Z</time>
      </trkpt>
      <trkpt lat="59.9230103" lon="17.7312982">
        <ele>36.1868</ele>
        <time>2014-06-17T13:03:50Z</time>
      </trkpt>
      <trkpt lat="59.9230281" lon="17.7313179">
        <ele>36.6675</ele>
        <time>2014-06-17T13:03:51Z</time>
      </trkpt>
      <trkpt lat="59.923047" lon="17.73134">
        <ele>37.1481</ele>
        <time>2014-06-17T13:03:52Z</time>
      </trkpt>
      <trkpt lat="59.9230616" lon="17.7313685">
        <ele>37.1481</ele>
        <time>2014-06-17T13:03:53Z</time>
      </trkpt>
      <trkpt lat="59.9230812" lon="17.731408">
        <ele>38.1094</ele>
        <time>2014-06-17T13:03:54Z</time>
      </trkpt>
      <trkpt lat="59.9231018" lon="17.7314397">
        <ele>38.5901</ele>
        <time>2014-06-17T13:03:55Z</time>
      </trkpt>
      <trkpt lat="59.9231182" lon="17.7314646">
        <ele>39.5513</ele>
        <time>2014-06-17T13:03:56Z</time>
      </trkpt>
      <trkpt lat="59.9231346" lon="17.7314855">
        <ele>40.0321</ele>
        <time>2014-06-17T13:03:57Z</time>
      </trkpt>
      <trkpt lat="59.9231483" lon="17.7315123">
        <ele>40.5128</ele>
        <time>2014-06-17T13:03:58Z</time>
      </trkpt>
      <trkpt lat="59.9231511" lon="17.7315544">
        <ele>40.9934</ele>
        <time>2014-06-17T13:03:59Z</time>
      </trkpt>
      <trkpt lat="59.9231595" lon="17.7315961">
        <ele>41.9547</ele>
        <time>2014-06-17T13:04:00Z</time>
      </trkpt>
      <trkpt lat="59.9231598" lon="17.7316463">
        <ele>42.4354</ele>
        <time>2014-06-17T13:04:01Z</time>
      </trkpt>
      <trkpt lat="59.9231641" lon="17.7316938">
        <ele>42.916</ele>
        <time>2014-06-17T13:04:02Z</time>
      </trkpt>
      <trkpt lat="59.9231771" lon="17.7317246">
        <ele>43.3966</ele>
        <time>2014-06-17T13:04:03Z</time>
      </trkpt>
      <trkpt lat="59.9231935" lon="17.7317654">
        <ele>43.8773</ele>
        <time>2014-06-17T13:04:04Z</time>
      </trkpt>
      <trkpt lat="59.923206" lon="17.7318064">
        <ele>44.358</ele>
        <time>2014-06-17T13:04:05Z</time>
      </trkpt>
      <trkpt lat="59.9232258" lon="17.7318345">
        <ele>44.8386</ele>
        <time>2014-06-17T13:04:06Z</time>
      </trkpt>
      <trkpt lat="59.9232376" lon="17.7318713">
        <ele>44.8386</ele>
        <time>2014-06-17T13:04:07Z</time>
      </trkpt>
      <trkpt lat="59.9232566" lon="17.7319095">
        <ele>44.8386</ele>
        <time>2014-06-17T13:04:08Z</time>
      </trkpt>
      <trkpt lat="59.9232743" lon="17.7319405">
        <ele>44.8386</ele>
        <time>2014-06-17T13:04:09Z</time>
      </trkpt>
      <trkpt lat="59.9232931" lon="17.7319719">
        <ele>45.3192</ele>
        <time>2014-06-17T13:04:10Z</time>
      </trkpt>
      <trkpt lat="59.9233116" lon="17.7320023">
        <ele>44.8386</ele>
        <time>2014-06-17T13:04:11Z</time>
      </trkpt>
      <trkpt lat="59.9233278" lon="17.7320322">
        <ele>44.358</ele>
        <time>2014-06-17T13:04:12Z</time>
      </trkpt>
      <trkpt lat="59.9233464" lon="17.73206">
        <ele>44.358</ele>
        <time>2014-06-17T13:04:13Z</time>
      </trkpt>
      <trkpt lat="59.9233558" lon="17.732098">
        <ele>43.8773</ele>
        <time>2014-06-17T13:04:14Z</time>
      </trkpt>
      <trkpt lat="59.9233606" lon="17.7321461">
        <ele>44.358</ele>
        <time>2014-06-17T13:04:15Z</time>
      </trkpt>
      <trkpt lat="59.9233676" lon="17.7321857">
        <ele>44.358</ele>
        <time>2014-06-17T13:04:16Z</time>
      </trkpt>
      <trkpt lat="59.9233738" lon="17.7322239">
        <ele>44.358</ele>
        <time>2014-06-17T13:04:17Z</time>
      </trkpt>
      <trkpt lat="59.9233786" lon="17.7322701">
        <ele>44.358</ele>
        <time>2014-06-17T13:04:18Z</time>
      </trkpt>
      <trkpt lat="59.9233892" lon="17.7323123">
        <ele>44.358</ele>
        <time>2014-06-17T13:04:19Z</time>
      </trkpt>
      <trkpt lat="59.9234081" lon="17.7323364">
        <ele>43.8773</ele>
        <time>2014-06-17T13:04:20Z</time>
      </trkpt>
      <trkpt lat="59.9234262" lon="17.7323514">
        <ele>43.3966</ele>
        <time>2014-06-17T13:04:21Z</time>
      </trkpt>
      <trkpt lat="59.9234477" lon="17.7323732">
        <ele>42.916</ele>
        <time>2014-06-17T13:04:22Z</time>
      </trkpt>
      <trkpt lat="59.9234767" lon="17.7323941">
        <ele>43.3966</ele>
        <time>2014-06-17T13:04:23Z</time>
      </trkpt>
      <trkpt lat="59.9235037" lon="17.7324207">
        <ele>43.3966</ele>
        <time>2014-06-17T13:04:24Z</time>
      </trkpt>
      <trkpt lat="59.923526" lon="17.7324434">
        <ele>42.916</ele>
        <time>2014-06-17T13:04:25Z</time>
      </trkpt>
      <trkpt lat="59.9235494" lon="17.7324589">
        <ele>41.9547</ele>
        <time>2014-06-17T13:04:26Z</time>
      </trkpt>
      <trkpt lat="59.9235726" lon="17.7324896">
        <ele>41.9547</ele>
        <time>2014-06-17T13:04:27Z</time>
      </trkpt>
      <trkpt lat="59.923593" lon="17.7325025">
        <ele>41.9547</ele>
        <time>2014-06-17T13:04:28Z</time>
      </trkpt>
      <trkpt lat="59.9236147" lon="17.7325186">
        <ele>41.474</ele>
        <time>2014-06-17T13:04:29Z</time>
      </trkpt>
      <trkpt lat="59.9236427" lon="17.7325296">
        <ele>40.9934</ele>
        <time>2014-06-17T13:04:30Z</time>
      </trkpt>
      <trkpt lat="59.9236718" lon="17.7325409">
        <ele>40.5128</ele>
        <time>2014-06-17T13:04:31Z</time>
      </trkpt>
      <trkpt lat="59.9236968" lon="17.7325575">
        <ele>40.5128</ele>
        <time>2014-06-17T13:04:32Z</time>
      </trkpt>
      <trkpt lat="59.9237224" lon="17.7325689">
        <ele>40.0321</ele>
        <time>2014-06-17T13:04:33Z</time>
      </trkpt>
      <trkpt lat="59.9237517" lon="17.7325749">
        <ele>40.5128</ele>
        <time>2014-06-17T13:04:34Z</time>
      </trkpt>
      <trkpt lat="59.9237783" lon="17.7325719">
        <ele>40.0321</ele>
        <time>2014-06-17T13:04:35Z</time>
      </trkpt>
      <trkpt lat="59.9238018" lon="17.7325728">
        <ele>40.0321</ele>
        <time>2014-06-17T13:04:36Z</time>
      </trkpt>
      <trkpt lat="59.923827" lon="17.7325692">
        <ele>39.5513</ele>
        <time>2014-06-17T13:04:37Z</time>
      </trkpt>
      <trkpt lat="59.9238526" lon="17.732561">
        <ele>39.5513</ele>
        <time>2014-06-17T13:04:38Z</time>
      </trkpt>
      <trkpt lat="59.9238758" lon="17.7325553">
        <ele>40.0321</ele>
        <time>2014-06-17T13:04:39Z</time>
      </trkpt>
      <trkpt lat="59.9239011" lon="17.7325581">
        <ele>40.0321</ele>
        <time>2014-06-17T13:04:40Z</time>
      </trkpt>
      <trkpt lat="59.923932" lon="17.7325508">
        <ele>40.0321</ele>
        <time>2014-06-17T13:04:41Z</time>
      </trkpt>
      <trkpt lat="59.9239571" lon="17.7325472">
        <ele>39.5513</ele>
        <time>2014-06-17T13:04:42Z</time>
      </trkpt>
      <trkpt lat="59.923984" lon="17.732534">
        <ele>39.5513</ele>
        <time>2014-06-17T13:04:43Z</time>
      </trkpt>
      <trkpt lat="59.9240093" lon="17.7325176">
        <ele>40.0321</ele>
        <time>2014-06-17T13:04:44Z</time>
      </trkpt>
      <trkpt lat="59.9240405" lon="17.7324894">
        <ele>41.9547</ele>
        <time>2014-06-17T13:04:45Z</time>
      </trkpt>
      <trkpt lat="59.9240712" lon="17.7324576">
        <ele>43.3966</ele>
        <time>2014-06-17T13:04:46Z</time>
      </trkpt>
      <trkpt lat="59.9240974" lon="17.7324259">
        <ele>44.8386</ele>
        <time>2014-06-17T13:04:47Z</time>
      </trkpt>
      <trkpt lat="59.9241151" lon="17.7323964">
        <ele>44.8386</ele>
        <time>2014-06-17T13:04:48Z</time>
      </trkpt>
      <trkpt lat="59.9241283" lon="17.7323678">
        <ele>44.358</ele>
        <time>2014-06-17T13:04:49Z</time>
      </trkpt>
      <trkpt lat="59.9241428" lon="17.7323385">
        <ele>44.358</ele>
        <time>2014-06-17T13:04:50Z</time>
      </trkpt>
      <trkpt lat="59.9241606" lon="17.732301">
        <ele>44.8386</ele>
        <time>2014-06-17T13:04:51Z</time>
      </trkpt>
      <trkpt lat="59.9241753" lon="17.7322703">
        <ele>44.8386</ele>
        <time>2014-06-17T13:04:52Z</time>
      </trkpt>
      <trkpt lat="59.9241916" lon="17.732242">
        <ele>45.3192</ele>
        <time>2014-06-17T13:04:53Z</time>
      </trkpt>
      <trkpt lat="59.9242138" lon="17.732214">
        <ele>46.2806</ele>
        <time>2014-06-17T13:04:54Z</time>
      </trkpt>
      <trkpt lat="59.9242333" lon="17.7321933">
        <ele>46.2806</ele>
        <time>2014-06-17T13:04:55Z</time>
      </trkpt>
      <trkpt lat="59.9242581" lon="17.7321611">
        <ele>47.2418</ele>
        <time>2014-06-17T13:04:56Z</time>
      </trkpt>
      <trkpt lat="59.9242746" lon="17.7321476">
        <ele>46.2806</ele>
        <time>2014-06-17T13:04:57Z</time>
      </trkpt>
      <trkpt lat="59.9242917" lon="17.7321327">
        <ele>45.3192</ele>
        <time>2014-06-17T13:04:58Z</time>
      </trkpt>
      <trkpt lat="59.9243143" lon="17.7321217">
        <ele>45.3192</ele>
        <time>2014-06-17T13:04:59Z</time>
      </trkpt>
      <trkpt lat="59.9243421" lon="17.7321018">
        <ele>45.3192</ele>
        <time>2014-06-17T13:05:00Z</time>
      </trkpt>
      <trkpt lat="59.9243663" lon="17.7320899">
        <ele>44.8386</ele>
        <time>2014-06-17T13:05:01Z</time>
      </trkpt>
      <trkpt lat="59.9243899" lon="17.7320877">
        <ele>44.8386</ele>
        <time>2014-06-17T13:05:02Z</time>
      </trkpt>
      <trkpt lat="59.9244099" lon="17.7320957">
        <ele>44.358</ele>
        <time>2014-06-17T13:05:03Z</time>
      </trkpt>
      <trkpt lat="59.9244275" lon="17.7321087">
        <ele>44.358</ele>
        <time>2014-06-17T13:05:04Z</time>
      </trkpt>
      <trkpt lat="59.9244466" lon="17.7321229">
        <ele>43.8773</ele>
        <time>2014-06-17T13:05:05Z</time>
      </trkpt>
      <trkpt lat="59.9244689" lon="17.7321359">
        <ele>44.358</ele>
        <time>2014-06-17T13:05:06Z</time>
      </trkpt>
      <trkpt lat="59.9244891" lon="17.7321571">
        <ele>44.358</ele>
        <time>2014-06-17T13:05:07Z</time>
      </trkpt>
      <trkpt lat="59.9245065" lon="17.7321808">
        <ele>44.358</ele>
        <time>2014-06-17T13:05:08Z</time>
      </trkpt>
      <trkpt lat="59.9245218" lon="17.7322063">
        <ele>44.358</ele>
        <time>2014-06-17T13:05:09Z</time>
      </trkpt>
      <trkpt lat="59.9245365" lon="17.7322343">
        <ele>44.358</ele>
        <time>2014-06-17T13:05:10Z</time>
      </trkpt>
      <trkpt lat="59.9245496" lon="17.7322683">
        <ele>43.8773</ele>
        <time>2014-06-17T13:05:11Z</time>
      </trkpt>
      <trkpt lat="59.9245643" lon="17.7322959">
        <ele>43.3966</ele>
        <time>2014-06-17T13:05:12Z</time>
      </trkpt>
      <trkpt lat="59.9245782" lon="17.732326">
        <ele>43.3966</ele>
        <time>2014-06-17T13:05:13Z</time>
      </trkpt>
      <trkpt lat="59.9245886" lon="17.7323648">
        <ele>42.4354</ele>
        <time>2014-06-17T13:05:14Z</time>
      </trkpt>
      <trkpt lat="59.924601" lon="17.7323991">
        <ele>41.9547</ele>
        <time>2014-06-17T13:05:15Z</time>
      </trkpt>
      <trkpt lat="59.9246139" lon="17.7324326">
        <ele>41.9547</ele>
        <time>2014-06-17T13:05:16Z</time>
      </trkpt>
      <trkpt lat="59.9246274" lon="17.7324643">
        <ele>41.9547</ele>
        <time>2014-06-17T13:05:17Z</time>
      </trkpt>
      <trkpt lat="59.9246388" lon="17.7325005">
        <ele>40.9934</ele>
        <time>2014-06-17T13:05:18Z</time>
      </trkpt>
      <trkpt lat="59.9246548" lon="17.7325363">
        <ele>41.474</ele>
        <time>2014-06-17T13:05:19Z</time>
      </trkpt>
      <trkpt lat="59.9246698" lon="17.7325718">
        <ele>40.9934</ele>
        <time>2014-06-17T13:05:20Z</time>
      </trkpt>
      <trkpt lat="59.9246787" lon="17.732613">
        <ele>40.5128</ele>
        <time>2014-06-17T13:05:21Z</time>
      </trkpt>
      <trkpt lat="59.9246897" lon="17.7326482">
        <ele>40.0321</ele>
        <time>2014-06-17T13:05:22Z</time>
      </trkpt>
      <trkpt lat="59.9247028" lon="17.7326792">
        <ele>39.5513</ele>
        <time>2014-06-17T13:05:23Z</time>
      </trkpt>
      <trkpt lat="59.9247165" lon="17.7327128">
        <ele>39.0707</ele>
        <time>2014-06-17T13:05:24Z</time>
      </trkpt>
      <trkpt lat="59.9247303" lon="17.7327531">
        <ele>38.5901</ele>
        <time>2014-06-17T13:05:25Z</time>
      </trkpt>
      <trkpt lat="59.9247406" lon="17.7327942">
        <ele>38.1094</ele>
        <time>2014-06-17T13:05:26Z</time>
      </trkpt>
      <trkpt lat="59.9247533" lon="17.7328314">
        <ele>38.1094</ele>
        <time>2014-06-17T13:05:27Z</time>
      </trkpt>
      <trkpt lat="59.9247681" lon="17.7328645">
        <ele>38.5901</ele>
        <time>2014-06-17T13:05:28Z</time>
      </trkpt>
      <trkpt lat="59.9247816" lon="17.732902">
        <ele>38.1094</ele>
        <time>2014-06-17T13:05:29Z</time>
      </trkpt>
      <trkpt lat="59.9247955" lon="17.7329381">
        <ele>37.6287</ele>
        <time>2014-06-17T13:05:30Z</time>
      </trkpt>
      <trkpt lat="59.9248087" lon="17.7329714">
        <ele>37.6287</ele>
        <time>2014-06-17T13:05:31Z</time>
      </trkpt>
      <trkpt lat="59.9248241" lon="17.7330077">
        <ele>38.1094</ele>
        <time>2014-06-17T13:05:32Z</time>
      </trkpt>
      <trkpt lat="59.9248341" lon="17.7330512">
        <ele>38.1094</ele>
        <time>2014-06-17T13:05:33Z</time>
      </trkpt>
      <trkpt lat="59.9248418" lon="17.7330911">
        <ele>38.1094</ele>
        <time>2014-06-17T13:05:34Z</time>
      </trkpt>
      <trkpt lat="59.9248544" lon="17.7331267">
        <ele>37.6287</ele>
        <time>2014-06-17T13:05:35Z</time>
      </trkpt>
      <trkpt lat="59.924871" lon="17.7331639">
        <ele>37.6287</ele>
        <time>2014-06-17T13:05:36Z</time>
      </trkpt>
      <trkpt lat="59.9248879" lon="17.7331996">
        <ele>37.6287</ele>
        <time>2014-06-17T13:05:37Z</time>
      </trkpt>
      <trkpt lat="59.9249038" lon="17.7332272">
        <ele>37.6287</ele>
        <time>2014-06-17T13:05:38Z</time>
      </trkpt>
      <trkpt lat="59.9249225" lon="17.7332553">
        <ele>37.6287</ele>
        <time>2014-06-17T13:05:39Z</time>
      </trkpt>
      <trkpt lat="59.9249366" lon="17.7332916">
        <ele>37.6287</ele>
        <time>2014-06-17T13:05:40Z</time>
      </trkpt>
      <trkpt lat="59.9249499" lon="17.7333287">
        <ele>38.1094</ele>
        <time>2014-06-17T13:05:41Z</time>
      </trkpt>
      <trkpt lat="59.924964" lon="17.7333626">
        <ele>38.1094</ele>
        <time>2014-06-17T13:05:42Z</time>
      </trkpt>
      <trkpt lat="59.9249789" lon="17.7333989">
        <ele>37.6287</ele>
        <time>2014-06-17T13:05:43Z</time>
      </trkpt>
      <trkpt lat="59.9249937" lon="17.7334354">
        <ele>37.6287</ele>
        <time>2014-06-17T13:05:44Z</time>
      </trkpt>
      <trkpt lat="59.9250081" lon="17.7334726">
        <ele>37.6287</ele>
        <time>2014-06-17T13:05:45Z</time>
      </trkpt>
      <trkpt lat="59.9250248" lon="17.7335095">
        <ele>38.1094</ele>
        <time>2014-06-17T13:05:46Z</time>
      </trkpt>
      <trkpt lat="59.9250387" lon="17.7335479">
        <ele>38.1094</ele>
        <time>2014-06-17T13:05:47Z</time>
      </trkpt>
      <trkpt lat="59.925054" lon="17.7335867">
        <ele>38.1094</ele>
        <time>2014-06-17T13:05:48Z</time>
      </trkpt>
      <trkpt lat="59.9250682" lon="17.7336256">
        <ele>38.1094</ele>
        <time>2014-06-17T13:05:49Z</time>
      </trkpt>
      <trkpt lat="59.9250818" lon="17.7336636">
        <ele>37.6287</ele>
        <time>2014-06-17T13:05:50Z</time>
      </trkpt>
      <trkpt lat="59.9250972" lon="17.7336974">
        <ele>37.6287</ele>
        <time>2014-06-17T13:05:51Z</time>
      </trkpt>
      <trkpt lat="59.9251127" lon="17.7337343">
        <ele>37.6287</ele>
        <time>2014-06-17T13:05:52Z</time>
      </trkpt>
      <trkpt lat="59.9251255" lon="17.7337751">
        <ele>37.6287</ele>
        <time>2014-06-17T13:05:53Z</time>
      </trkpt>
      <trkpt lat="59.9251356" lon="17.7338125">
        <ele>38.1094</ele>
        <time>2014-06-17T13:05:54Z</time>
      </trkpt>
      <trkpt lat="59.925146" lon="17.7338482">
        <ele>38.1094</ele>
        <time>2014-06-17T13:05:55Z</time>
      </trkpt>
      <trkpt lat="59.9251584" lon="17.7338876">
        <ele>38.1094</ele>
        <time>2014-06-17T13:05:56Z</time>
      </trkpt>
      <trkpt lat="59.9251733" lon="17.7339239">
        <ele>38.5901</ele>
        <time>2014-06-17T13:05:57Z</time>
      </trkpt>
      <trkpt lat="59.9251869" lon="17.7339559">
        <ele>38.5901</ele>
        <time>2014-06-17T13:05:58Z</time>
      </trkpt>
      <trkpt lat="59.9251994" lon="17.7339938">
        <ele>39.0707</ele>
        <time>2014-06-17T13:05:59Z</time>
      </trkpt>
      <trkpt lat="59.9252121" lon="17.7340297">
        <ele>39.0707</ele>
        <time>2014-06-17T13:06:00Z</time>
      </trkpt>
      <trkpt lat="59.9252307" lon="17.7340617">
        <ele>39.5513</ele>
        <time>2014-06-17T13:06:01Z</time>
      </trkpt>
      <trkpt lat="59.9252494" lon="17.7340987">
        <ele>39.5513</ele>
        <time>2014-06-17T13:06:02Z</time>
      </trkpt>
      <trkpt lat="59.9252656" lon="17.7341419">
        <ele>39.5513</ele>
        <time>2014-06-17T13:06:03Z</time>
      </trkpt>
      <trkpt lat="59.9252841" lon="17.7341829">
        <ele>39.5513</ele>
        <time>2014-06-17T13:06:04Z</time>
      </trkpt>
      <trkpt lat="59.9253002" lon="17.7342199">
        <ele>39.5513</ele>
        <time>2014-06-17T13:06:05Z</time>
      </trkpt>
      <trkpt lat="59.9253123" lon="17.7342584">
        <ele>39.0707</ele>
        <time>2014-06-17T13:06:06Z</time>
      </trkpt>
      <trkpt lat="59.9253265" lon="17.7342975">
        <ele>39.0707</ele>
        <time>2014-06-17T13:06:07Z</time>
      </trkpt>
      <trkpt lat="59.9253405" lon="17.7343384">
        <ele>38.5901</ele>
        <time>2014-06-17T13:06:08Z</time>
      </trkpt>
      <trkpt lat="59.9253543" lon="17.73438">
        <ele>38.5901</ele>
        <time>2014-06-17T13:06:09Z</time>
      </trkpt>
      <trkpt lat="59.9253672" lon="17.7344191">
        <ele>38.5901</ele>
        <time>2014-06-17T13:06:10Z</time>
      </trkpt>
      <trkpt lat="59.9253789" lon="17.734456">
        <ele>38.5901</ele>
        <time>2014-06-17T13:06:11Z</time>
      </trkpt>
      <trkpt lat="59.9253914" lon="17.7344954">
        <ele>38.1094</ele>
        <time>2014-06-17T13:06:12Z</time>
      </trkpt>
      <trkpt lat="59.9254033" lon="17.7345341">
        <ele>38.1094</ele>
        <time>2014-06-17T13:06:13Z</time>
      </trkpt>
      <trkpt lat="59.9254137" lon="17.7345735">
        <ele>38.1094</ele>
        <time>2014-06-17T13:06:14Z</time>
      </trkpt>
      <trkpt lat="59.9254239" lon="17.7346077">
        <ele>38.1094</ele>
        <time>2014-06-17T13:06:15Z</time>
      </trkpt>
      <trkpt lat="59.9254391" lon="17.7346345">
        <ele>38.5901</ele>
        <time>2014-06-17T13:06:16Z</time>
      </trkpt>
      <trkpt lat="59.925454" lon="17.7346648">
        <ele>38.5901</ele>
        <time>2014-06-17T13:06:17Z</time>
      </trkpt>
      <trkpt lat="59.9254666" lon="17.7346959">
        <ele>38.5901</ele>
        <time>2014-06-17T13:06:18Z</time>
      </trkpt>
      <trkpt lat="59.9254764" lon="17.7347324">
        <ele>38.1094</ele>
        <time>2014-06-17T13:06:19Z</time>
      </trkpt>
      <trkpt lat="59.9254882" lon="17.7347695">
        <ele>38.5901</ele>
        <time>2014-06-17T13:06:20Z</time>
      </trkpt>
      <trkpt lat="59.9254982" lon="17.7348076">
        <ele>38.1094</ele>
        <time>2014-06-17T13:06:21Z</time>
      </trkpt>
      <trkpt lat="59.9255094" lon="17.7348471">
        <ele>38.1094</ele>
        <time>2014-06-17T13:06:22Z</time>
      </trkpt>
      <trkpt lat="59.9255229" lon="17.7348816">
        <ele>38.1094</ele>
        <time>2014-06-17T13:06:23Z</time>
      </trkpt>
      <trkpt lat="59.9255374" lon="17.7349186">
        <ele>38.1094</ele>
        <time>2014-06-17T13:06:24Z</time>
      </trkpt>
      <trkpt lat="59.9255549" lon="17.7349538">
        <ele>38.1094</ele>
        <time>2014-06-17T13:06:25Z</time>
      </trkpt>
      <trkpt lat="59.9255706" lon="17.7349828">
        <ele>38.5901</ele>
        <time>2014-06-17T13:06:26Z</time>
      </trkpt>
      <trkpt lat="59.9255863" lon="17.7350147">
        <ele>38.1094</ele>
        <time>2014-06-17T13:06:27Z</time>
      </trkpt>
      <trkpt lat="59.9256054" lon="17.7350497">
        <ele>38.5901</ele>
        <time>2014-06-17T13:06:28Z</time>
      </trkpt>
      <trkpt lat="59.9256266" lon="17.7350797">
        <ele>38.5901</ele>
        <time>2014-06-17T13:06:29Z</time>
      </trkpt>
      <trkpt lat="59.9256453" lon="17.7351128">
        <ele>38.5901</ele>
        <time>2014-06-17T13:06:30Z</time>
      </trkpt>
      <trkpt lat="59.9256649" lon="17.7351428">
        <ele>39.0707</ele>
        <time>2014-06-17T13:06:31Z</time>
      </trkpt>
      <trkpt lat="59.9256827" lon="17.7351698">
        <ele>38.5901</ele>
        <time>2014-06-17T13:06:32Z</time>
      </trkpt>
      <trkpt lat="59.9257023" lon="17.7351903">
        <ele>39.0707</ele>
        <time>2014-06-17T13:06:33Z</time>
      </trkpt>
      <trkpt lat="59.9257245" lon="17.7352087">
        <ele>39.5513</ele>
        <time>2014-06-17T13:06:34Z</time>
      </trkpt>
      <trkpt lat="59.9257461" lon="17.7352237">
        <ele>39.5513</ele>
        <time>2014-06-17T13:06:35Z</time>
      </trkpt>
      <trkpt lat="59.9257701" lon="17.7352399">
        <ele>40.0321</ele>
        <time>2014-06-17T13:06:36Z</time>
      </trkpt>
      <trkpt lat="59.925793" lon="17.7352592">
        <ele>40.0321</ele>
        <time>2014-06-17T13:06:37Z</time>
      </trkpt>
      <trkpt lat="59.9258141" lon="17.7352766">
        <ele>40.0321</ele>
        <time>2014-06-17T13:06:38Z</time>
      </trkpt>
      <trkpt lat="59.9258354" lon="17.7352939">
        <ele>40.5128</ele>
        <time>2014-06-17T13:06:39Z</time>
      </trkpt>
      <trkpt lat="59.9258552" lon="17.735307">
        <ele>40.9934</ele>
        <time>2014-06-17T13:06:40Z</time>
      </trkpt>
      <trkpt lat="59.9258794" lon="17.7353152">
        <ele>41.9547</ele>
        <time>2014-06-17T13:06:41Z</time>
      </trkpt>
      <trkpt lat="59.9258964" lon="17.7353278">
        <ele>41.9547</ele>
        <time>2014-06-17T13:06:42Z</time>
      </trkpt>
      <trkpt lat="59.9259158" lon="17.7353346">
        <ele>41.9547</ele>
        <time>2014-06-17T13:06:43Z</time>
      </trkpt>
      <trkpt lat="59.9259328" lon="17.7353418">
        <ele>41.9547</ele>
        <time>2014-06-17T13:06:44Z</time>
      </trkpt>
      <trkpt lat="59.9259482" lon="17.735346">
        <ele>42.4354</ele>
        <time>2014-06-17T13:06:45Z</time>
      </trkpt>
      <trkpt lat="59.9259644" lon="17.7353372">
        <ele>42.4354</ele>
        <time>2014-06-17T13:06:46Z</time>
      </trkpt>
      <trkpt lat="59.9259758" lon="17.7353407">
        <ele>42.916</ele>
        <time>2014-06-17T13:06:47Z</time>
      </trkpt>
      <trkpt lat="59.9259896" lon="17.7353626">
        <ele>42.916</ele>
        <time>2014-06-17T13:06:48Z</time>
      </trkpt>
      <trkpt lat="59.9259978" lon="17.7353962">
        <ele>43.8773</ele>
        <time>2014-06-17T13:06:49Z</time>
      </trkpt>
      <trkpt lat="59.9260046" lon="17.7354231">
        <ele>44.358</ele>
        <time>2014-06-17T13:06:50Z</time>
      </trkpt>
      <trkpt lat="59.9260079" lon="17.7354526">
        <ele>44.8386</ele>
        <time>2014-06-17T13:06:51Z</time>
      </trkpt>
      <trkpt lat="59.9260149" lon="17.7354779">
        <ele>45.3192</ele>
        <time>2014-06-17T13:06:52Z</time>
      </trkpt>
      <trkpt lat="59.9260151" lon="17.735511">
        <ele>45.3192</ele>
        <time>2014-06-17T13:06:53Z</time>
      </trkpt>
      <trkpt lat="59.9260147" lon="17.7355413">
        <ele>45.3192</ele>
        <time>2014-06-17T13:06:54Z</time>
      </trkpt>
      <trkpt lat="59.9260218" lon="17.7355731">
        <ele>45.7999</ele>
        <time>2014-06-17T13:06:55Z</time>
      </trkpt>
      <trkpt lat="59.9260286" lon="17.7356143">
        <ele>45.7999</ele>
        <time>2014-06-17T13:06:56Z</time>
      </trkpt>
      <trkpt lat="59.9260338" lon="17.7356534">
        <ele>45.7999</ele>
        <time>2014-06-17T13:06:57Z</time>
      </trkpt>
      <trkpt lat="59.9260369" lon="17.7357007">
        <ele>46.2806</ele>
        <time>2014-06-17T13:06:58Z</time>
      </trkpt>
      <trkpt lat="59.9260391" lon="17.7357439">
        <ele>46.7612</ele>
        <time>2014-06-17T13:06:59Z</time>
      </trkpt>
      <trkpt lat="59.9260409" lon="17.735779">
        <ele>47.7225</ele>
        <time>2014-06-17T13:07:00Z</time>
      </trkpt>
      <trkpt lat="59.9260476" lon="17.7358187">
        <ele>47.7225</ele>
        <time>2014-06-17T13:07:01Z</time>
      </trkpt>
      <trkpt lat="59.9260533" lon="17.735861">
        <ele>49.6453</ele>
        <time>2014-06-17T13:07:02Z</time>
      </trkpt>
      <trkpt lat="59.9260593" lon="17.7359074">
        <ele>50.6066</ele>
        <time>2014-06-17T13:07:03Z</time>
      </trkpt>
      <trkpt lat="59.9260668" lon="17.735965">
        <ele>52.5292</ele>
        <time>2014-06-17T13:07:04Z</time>
      </trkpt>
      <trkpt lat="59.9260776" lon="17.7360098">
        <ele>53.9712</ele>
        <time>2014-06-17T13:07:05Z</time>
      </trkpt>
      <trkpt lat="59.9260852" lon="17.7360515">
        <ele>54.4518</ele>
        <time>2014-06-17T13:07:06Z</time>
      </trkpt>
      <trkpt lat="59.9260964" lon="17.7360857">
        <ele>54.4518</ele>
        <time>2014-06-17T13:07:07Z</time>
      </trkpt>
      <trkpt lat="59.9261084" lon="17.7361243">
        <ele>54.9324</ele>
        <time>2014-06-17T13:07:08Z</time>
      </trkpt>
      <trkpt lat="59.9261121" lon="17.7361707">
        <ele>54.9324</ele>
        <time>2014-06-17T13:07:09Z</time>
      </trkpt>
      <trkpt lat="59.9261113" lon="17.736209">
        <ele>55.4131</ele>
        <time>2014-06-17T13:07:10Z</time>
      </trkpt>
      <trkpt lat="59.9261027" lon="17.7362395">
        <ele>55.4131</ele>
        <time>2014-06-17T13:07:11Z</time>
      </trkpt>
      <trkpt lat="59.926094" lon="17.7362709">
        <ele>54.9324</ele>
        <time>2014-06-17T13:07:12Z</time>
      </trkpt>
      <trkpt lat="59.9260825" lon="17.7363011">
        <ele>54.9324</ele>
        <time>2014-06-17T13:07:13Z</time>
      </trkpt>
      <trkpt lat="59.9260776" lon="17.7363184">
        <ele>54.4518</ele>
        <time>2014-06-17T13:07:14Z</time>
      </trkpt>
      <trkpt lat="59.9260663" lon="17.7363462">
        <ele>55.4131</ele>
        <time>2014-06-17T13:07:15Z</time>
      </trkpt>
      <trkpt lat="59.9260588" lon="17.7363732">
        <ele>55.4131</ele>
        <time>2014-06-17T13:07:16Z</time>
      </trkpt>
      <trkpt lat="59.9260504" lon="17.7364038">
        <ele>54.9324</ele>
        <time>2014-06-17T13:07:17Z</time>
      </trkpt>
      <trkpt lat="59.9260413" lon="17.7364312">
        <ele>54.9324</ele>
        <time>2014-06-17T13:07:18Z</time>
      </trkpt>
      <trkpt lat="59.9260308" lon="17.7364652">
        <ele>54.4518</ele>
        <time>2014-06-17T13:07:19Z</time>
      </trkpt>
      <trkpt lat="59.9260136" lon="17.736497">
        <ele>54.4518</ele>
        <time>2014-06-17T13:07:20Z</time>
      </trkpt>
      <trkpt lat="59.9260079" lon="17.7365291">
        <ele>54.4518</ele>
        <time>2014-06-17T13:07:21Z</time>
      </trkpt>
      <trkpt lat="59.926002" lon="17.7365682">
        <ele>54.4518</ele>
        <time>2014-06-17T13:07:22Z</time>
      </trkpt>
      <trkpt lat="59.9259866" lon="17.7365996">
        <ele>54.4518</ele>
        <time>2014-06-17T13:07:23Z</time>
      </trkpt>
      <trkpt lat="59.9259737" lon="17.7366327">
        <ele>53.4905</ele>
        <time>2014-06-17T13:07:24Z</time>
      </trkpt>
      <trkpt lat="59.925965" lon="17.7366709">
        <ele>53.0098</ele>
        <time>2014-06-17T13:07:25Z</time>
      </trkpt>
      <trkpt lat="59.9259627" lon="17.7366977">
        <ele>53.4905</ele>
        <time>2014-06-17T13:07:26Z</time>
      </trkpt>
      <trkpt lat="59.9259556" lon="17.736727">
        <ele>53.0098</ele>
        <time>2014-06-17T13:07:27Z</time>
      </trkpt>
      <trkpt lat="59.9259515" lon="17.7367467">
        <ele>52.5292</ele>
        <time>2014-06-17T13:07:28Z</time>
      </trkpt>
      <trkpt lat="59.9259443" lon="17.7367704">
        <ele>51.0872</ele>
        <time>2014-06-17T13:07:29Z</time>
      </trkpt>
      <trkpt lat="59.9259316" lon="17.7368124">
        <ele>51.0872</ele>
        <time>2014-06-17T13:07:30Z</time>
      </trkpt>
      <trkpt lat="59.9259234" lon="17.7368635">
        <ele>51.0872</ele>
        <time>2014-06-17T13:07:31Z</time>
      </trkpt>
      <trkpt lat="59.9259204" lon="17.7369063">
        <ele>50.126</ele>
        <time>2014-06-17T13:07:32Z</time>
      </trkpt>
      <trkpt lat="59.9259165" lon="17.7369467">
        <ele>49.6453</ele>
        <time>2014-06-17T13:07:33Z</time>
      </trkpt>
      <trkpt lat="59.9259026" lon="17.7369866">
        <ele>49.1646</ele>
        <time>2014-06-17T13:07:34Z</time>
      </trkpt>
      <trkpt lat="59.925888" lon="17.7370248">
        <ele>49.6453</ele>
        <time>2014-06-17T13:07:35Z</time>
      </trkpt>
      <trkpt lat="59.9258836" lon="17.7370563">
        <ele>49.6453</ele>
        <time>2014-06-17T13:07:36Z</time>
      </trkpt>
      <trkpt lat="59.9258788" lon="17.7370803">
        <ele>49.6453</ele>
        <time>2014-06-17T13:07:37Z</time>
      </trkpt>
      <trkpt lat="59.9258706" lon="17.73713">
        <ele>48.684</ele>
        <time>2014-06-17T13:07:38Z</time>
      </trkpt>
      <trkpt lat="59.925859" lon="17.7371749">
        <ele>49.1646</ele>
        <time>2014-06-17T13:07:39Z</time>
      </trkpt>
      <trkpt lat="59.9258489" lon="17.7372308">
        <ele>49.6453</ele>
        <time>2014-06-17T13:07:40Z</time>
      </trkpt>
      <trkpt lat="59.9258426" lon="17.7372724">
        <ele>50.6066</ele>
        <time>2014-06-17T13:07:41Z</time>
      </trkpt>
      <trkpt lat="59.9258405" lon="17.7373149">
        <ele>51.5679</ele>
        <time>2014-06-17T13:07:42Z</time>
      </trkpt>
      <trkpt lat="59.9258362" lon="17.7373513">
        <ele>51.5679</ele>
        <time>2014-06-17T13:07:43Z</time>
      </trkpt>
      <trkpt lat="59.9258324" lon="17.7373987">
        <ele>50.6066</ele>
        <time>2014-06-17T13:07:44Z</time>
      </trkpt>
      <trkpt lat="59.9258227" lon="17.7374489">
        <ele>51.0872</ele>
        <time>2014-06-17T13:07:45Z</time>
      </trkpt>
      <trkpt lat="59.9258204" lon="17.7375179">
        <ele>52.0486</ele>
        <time>2014-06-17T13:07:46Z</time>
      </trkpt>
      <trkpt lat="59.9258257" lon="17.7375764">
        <ele>52.5292</ele>
        <time>2014-06-17T13:07:47Z</time>
      </trkpt>
      <trkpt lat="59.9258291" lon="17.7376237">
        <ele>53.0098</ele>
        <time>2014-06-17T13:07:48Z</time>
      </trkpt>
      <trkpt lat="59.9258253" lon="17.7376577">
        <ele>53.4905</ele>
        <time>2014-06-17T13:07:49Z</time>
      </trkpt>
      <trkpt lat="59.9258255" lon="17.7377068">
        <ele>53.4905</ele>
        <time>2014-06-17T13:07:50Z</time>
      </trkpt>
      <trkpt lat="59.9258286" lon="17.7377536">
        <ele>53.4905</ele>
        <time>2014-06-17T13:07:51Z</time>
      </trkpt>
      <trkpt lat="59.9258312" lon="17.7378024">
        <ele>54.4518</ele>
        <time>2014-06-17T13:07:52Z</time>
      </trkpt>
      <trkpt lat="59.9258334" lon="17.7378516">
        <ele>55.4131</ele>
        <time>2014-06-17T13:07:53Z</time>
      </trkpt>
      <trkpt lat="59.9258323" lon="17.7378904">
        <ele>55.8938</ele>
        <time>2014-06-17T13:07:54Z</time>
      </trkpt>
      <trkpt lat="59.9258255" lon="17.7379308">
        <ele>55.8938</ele>
        <time>2014-06-17T13:07:55Z</time>
      </trkpt>
      <trkpt lat="59.9258173" lon="17.7379811">
        <ele>55.8938</ele>
        <time>2014-06-17T13:07:56Z</time>
      </trkpt>
      <trkpt lat="59.9258131" lon="17.7380324">
        <ele>55.8938</ele>
        <time>2014-06-17T13:07:57Z</time>
      </trkpt>
      <trkpt lat="59.925816" lon="17.7380738">
        <ele>56.3745</ele>
        <time>2014-06-17T13:07:58Z</time>
      </trkpt>
      <trkpt lat="59.9258177" lon="17.738112">
        <ele>57.3358</ele>
        <time>2014-06-17T13:07:59Z</time>
      </trkpt>
      <trkpt lat="59.925814" lon="17.7381642">
        <ele>58.2971</ele>
        <time>2014-06-17T13:08:00Z</time>
      </trkpt>
      <trkpt lat="59.9258036" lon="17.7382017">
        <ele>58.7777</ele>
        <time>2014-06-17T13:08:01Z</time>
      </trkpt>
      <trkpt lat="59.9257898" lon="17.738244">
        <ele>59.7391</ele>
        <time>2014-06-17T13:08:02Z</time>
      </trkpt>
      <trkpt lat="59.9257804" lon="17.7382981">
        <ele>60.2197</ele>
        <time>2014-06-17T13:08:03Z</time>
      </trkpt>
      <trkpt lat="59.9257772" lon="17.73836">
        <ele>60.7003</ele>
        <time>2014-06-17T13:08:04Z</time>
      </trkpt>
      <trkpt lat="59.9257712" lon="17.7384245">
        <ele>60.7003</ele>
        <time>2014-06-17T13:08:05Z</time>
      </trkpt>
      <trkpt lat="59.9257669" lon="17.73847">
        <ele>60.2197</ele>
        <time>2014-06-17T13:08:06Z</time>
      </trkpt>
      <trkpt lat="59.9257621" lon="17.7385172">
        <ele>59.2584</ele>
        <time>2014-06-17T13:08:07Z</time>
      </trkpt>
      <trkpt lat="59.9257619" lon="17.7385533">
        <ele>58.2971</ele>
        <time>2014-06-17T13:08:08Z</time>
      </trkpt>
      <trkpt lat="59.925768" lon="17.7385751">
        <ele>57.8165</ele>
        <time>2014-06-17T13:08:09Z</time>
      </trkpt>
      <trkpt lat="59.9257749" lon="17.7386">
        <ele>57.8165</ele>
        <time>2014-06-17T13:08:10Z</time>
      </trkpt>
      <trkpt lat="59.9257844" lon="17.7386167">
        <ele>56.8551</ele>
        <time>2014-06-17T13:08:11Z</time>
      </trkpt>
      <trkpt lat="59.9257965" lon="17.7386313">
        <ele>56.3745</ele>
        <time>2014-06-17T13:08:12Z</time>
      </trkpt>
      <trkpt lat="59.9258072" lon="17.7386597">
        <ele>55.8938</ele>
        <time>2014-06-17T13:08:13Z</time>
      </trkpt>
      <trkpt lat="59.9258204" lon="17.7386906">
        <ele>54.4518</ele>
        <time>2014-06-17T13:08:14Z</time>
      </trkpt>
      <trkpt lat="59.9258355" lon="17.7387172">
        <ele>53.9712</ele>
        <time>2014-06-17T13:08:15Z</time>
      </trkpt>
      <trkpt lat="59.9258626" lon="17.7387397">
        <ele>54.9324</ele>
        <time>2014-06-17T13:08:16Z</time>
      </trkpt>
      <trkpt lat="59.9258877" lon="17.7387582">
        <ele>54.4518</ele>
        <time>2014-06-17T13:08:17Z</time>
      </trkpt>
      <trkpt lat="59.9259131" lon="17.7387781">
        <ele>53.4905</ele>
        <time>2014-06-17T13:08:18Z</time>
      </trkpt>
      <trkpt lat="59.925928" lon="17.7388047">
        <ele>53.0098</ele>
        <time>2014-06-17T13:08:19Z</time>
      </trkpt>
      <trkpt lat="59.9259453" lon="17.7388316">
        <ele>53.0098</ele>
        <time>2014-06-17T13:08:20Z</time>
      </trkpt>
      <trkpt lat="59.9259664" lon="17.7388492">
        <ele>52.5292</ele>
        <time>2014-06-17T13:08:21Z</time>
      </trkpt>
      <trkpt lat="59.9259887" lon="17.7388756">
        <ele>52.5292</ele>
        <time>2014-06-17T13:08:22Z</time>
      </trkpt>
      <trkpt lat="59.9260069" lon="17.7388932">
        <ele>52.5292</ele>
        <time>2014-06-17T13:08:23Z</time>
      </trkpt>
      <trkpt lat="59.9260194" lon="17.7389012">
        <ele>52.0486</ele>
        <time>2014-06-17T13:08:24Z</time>
      </trkpt>
      <trkpt lat="59.9260416" lon="17.7389218">
        <ele>52.5292</ele>
        <time>2014-06-17T13:08:25Z</time>
      </trkpt>
      <trkpt lat="59.9260623" lon="17.7389438">
        <ele>52.5292</ele>
        <time>2014-06-17T13:08:26Z</time>
      </trkpt>
      <trkpt lat="59.9260816" lon="17.7389632">
        <ele>53.0098</ele>
        <time>2014-06-17T13:08:27Z</time>
      </trkpt>
      <trkpt lat="59.9260959" lon="17.7389763">
        <ele>52.0486</ele>
        <time>2014-06-17T13:08:28Z</time>
      </trkpt>
      <trkpt lat="59.9261072" lon="17.7389958">
        <ele>51.5679</ele>
        <time>2014-06-17T13:08:29Z</time>
      </trkpt>
      <trkpt lat="59.9261193" lon="17.7390221">
        <ele>51.5679</ele>
        <time>2014-06-17T13:08:30Z</time>
      </trkpt>
      <trkpt lat="59.9261348" lon="17.7390459">
        <ele>51.5679</ele>
        <time>2014-06-17T13:08:31Z</time>
      </trkpt>
      <trkpt lat="59.9261501" lon="17.739068">
        <ele>52.0486</ele>
        <time>2014-06-17T13:08:32Z</time>
      </trkpt>
      <trkpt lat="59.9261678" lon="17.7390969">
        <ele>51.5679</ele>
        <time>2014-06-17T13:08:33Z</time>
      </trkpt>
      <trkpt lat="59.9261862" lon="17.7391208">
        <ele>51.5679</ele>
        <time>2014-06-17T13:08:34Z</time>
      </trkpt>
      <trkpt lat="59.9262046" lon="17.739142">
        <ele>51.5679</ele>
        <time>2014-06-17T13:08:35Z</time>
      </trkpt>
      <trkpt lat="59.9262223" lon="17.7391663">
        <ele>52.5292</ele>
        <time>2014-06-17T13:08:36Z</time>
      </trkpt>
      <trkpt lat="59.926244" lon="17.7391894">
        <ele>53.4905</ele>
        <time>2014-06-17T13:08:37Z</time>
      </trkpt>
      <trkpt lat="59.9262612" lon="17.7392103">
        <ele>53.9712</ele>
        <time>2014-06-17T13:08:38Z</time>
      </trkpt>
      <trkpt lat="59.9262776" lon="17.7392288">
        <ele>54.9324</ele>
        <time>2014-06-17T13:08:39Z</time>
      </trkpt>
      <trkpt lat="59.9262912" lon="17.7392486">
        <ele>54.4518</ele>
        <time>2014-06-17T13:08:40Z</time>
      </trkpt>
      <trkpt lat="59.9263045" lon="17.7392765">
        <ele>54.4518</ele>
        <time>2014-06-17T13:08:41Z</time>
      </trkpt>
      <trkpt lat="59.9263187" lon="17.7393037">
        <ele>53.9712</ele>
        <time>2014-06-17T13:08:42Z</time>
      </trkpt>
      <trkpt lat="59.9263362" lon="17.7393299">
        <ele>54.4518</ele>
        <time>2014-06-17T13:08:43Z</time>
      </trkpt>
      <trkpt lat="59.9263537" lon="17.7393476">
        <ele>53.9712</ele>
        <time>2014-06-17T13:08:44Z</time>
      </trkpt>
      <trkpt lat="59.9263674" lon="17.7393647">
        <ele>53.9712</ele>
        <time>2014-06-17T13:08:45Z</time>
      </trkpt>
      <trkpt lat="59.926382" lon="17.7393902">
        <ele>54.4518</ele>
        <time>2014-06-17T13:08:46Z</time>
      </trkpt>
      <trkpt lat="59.9263948" lon="17.7394092">
        <ele>54.4518</ele>
        <time>2014-06-17T13:08:47Z</time>
      </trkpt>
      <trkpt lat="59.9264088" lon="17.7394269">
        <ele>54.4518</ele>
        <time>2014-06-17T13:08:48Z</time>
      </trkpt>
      <trkpt lat="59.926425" lon="17.7394356">
        <ele>53.9712</ele>
        <time>2014-06-17T13:08:49Z</time>
      </trkpt>
      <trkpt lat="59.9264439" lon="17.7394558">
        <ele>54.4518</ele>
        <time>2014-06-17T13:08:50Z</time>
      </trkpt>
      <trkpt lat="59.9264599" lon="17.7394813">
        <ele>54.4518</ele>
        <time>2014-06-17T13:08:51Z</time>
      </trkpt>
      <trkpt lat="59.9264775" lon="17.7395075">
        <ele>54.9324</ele>
        <time>2014-06-17T13:08:52Z</time>
      </trkpt>
      <trkpt lat="59.9264938" lon="17.7395339">
        <ele>55.4131</ele>
        <time>2014-06-17T13:08:53Z</time>
      </trkpt>
      <trkpt lat="59.9265161" lon="17.7395579">
        <ele>56.3745</ele>
        <time>2014-06-17T13:08:54Z</time>
      </trkpt>
      <trkpt lat="59.9265327" lon="17.7395847">
        <ele>56.8551</ele>
        <time>2014-06-17T13:08:55Z</time>
      </trkpt>
      <trkpt lat="59.9265492" lon="17.7396082">
        <ele>56.8551</ele>
        <time>2014-06-17T13:08:56Z</time>
      </trkpt>
      <trkpt lat="59.9265649" lon="17.7396295">
        <ele>57.3358</ele>
        <time>2014-06-17T13:08:57Z</time>
      </trkpt>
      <trkpt lat="59.9265855" lon="17.7396517">
        <ele>57.8165</ele>
        <time>2014-06-17T13:08:58Z</time>
      </trkpt>
      <trkpt lat="59.9266072" lon="17.739676">
        <ele>59.2584</ele>
        <time>2014-06-17T13:08:59Z</time>
      </trkpt>
      <trkpt lat="59.9266255" lon="17.7396972">
        <ele>61.181</ele>
        <time>2014-06-17T13:09:00Z</time>
      </trkpt>
      <trkpt lat="59.9266524" lon="17.7397214">
        <ele>62.1423</ele>
        <time>2014-06-17T13:09:01Z</time>
      </trkpt>
      <trkpt lat="59.926678" lon="17.7397455">
        <ele>62.1423</ele>
        <time>2014-06-17T13:09:02Z</time>
      </trkpt>
      <trkpt lat="59.9267015" lon="17.739768">
        <ele>62.1423</ele>
        <time>2014-06-17T13:09:03Z</time>
      </trkpt>
      <trkpt lat="59.9267248" lon="17.7397848">
        <ele>61.6617</ele>
        <time>2014-06-17T13:09:04Z</time>
      </trkpt>
      <trkpt lat="59.9267428" lon="17.7397916">
        <ele>60.7003</ele>
        <time>2014-06-17T13:09:05Z</time>
      </trkpt>
      <trkpt lat="59.9267533" lon="17.739795">
        <ele>59.2584</ele>
        <time>2014-06-17T13:09:06Z</time>
      </trkpt>
      <trkpt lat="59.9267702" lon="17.7397998">
        <ele>58.7777</ele>
        <time>2014-06-17T13:09:07Z</time>
      </trkpt>
      <trkpt lat="59.9267818" lon="17.7398146">
        <ele>58.7777</ele>
        <time>2014-06-17T13:09:08Z</time>
      </trkpt>
      <trkpt lat="59.9267942" lon="17.7398304">
        <ele>58.2971</ele>
        <time>2014-06-17T13:09:09Z</time>
      </trkpt>
      <trkpt lat="59.9268128" lon="17.7398293">
        <ele>59.2584</ele>
        <time>2014-06-17T13:09:10Z</time>
      </trkpt>
      <trkpt lat="59.9268326" lon="17.7398247">
        <ele>59.2584</ele>
        <time>2014-06-17T13:09:11Z</time>
      </trkpt>
      <trkpt lat="59.9268469" lon="17.7398231">
        <ele>58.2971</ele>
        <time>2014-06-17T13:09:12Z</time>
      </trkpt>
      <trkpt lat="59.9268605" lon="17.7398125">
        <ele>57.3358</ele>
        <time>2014-06-17T13:09:13Z</time>
      </trkpt>
      <trkpt lat="59.926871" lon="17.7398024">
        <ele>56.3745</ele>
        <time>2014-06-17T13:09:14Z</time>
      </trkpt>
      <trkpt lat="59.9268786" lon="17.7397883">
        <ele>55.4131</ele>
        <time>2014-06-17T13:09:15Z</time>
      </trkpt>
      <trkpt lat="59.9268847" lon="17.7397562">
        <ele>53.9712</ele>
        <time>2014-06-17T13:09:16Z</time>
      </trkpt>
      <trkpt lat="59.9268963" lon="17.7397168">
        <ele>53.0098</ele>
        <time>2014-06-17T13:09:17Z</time>
      </trkpt>
      <trkpt lat="59.9269122" lon="17.7396797">
        <ele>52.5292</ele>
        <time>2014-06-17T13:09:18Z</time>
      </trkpt>
      <trkpt lat="59.9269275" lon="17.7396445">
        <ele>52.0486</ele>
        <time>2014-06-17T13:09:19Z</time>
      </trkpt>
      <trkpt lat="59.9269463" lon="17.7396346">
        <ele>52.0486</ele>
        <time>2014-06-17T13:09:20Z</time>
      </trkpt>
      <trkpt lat="59.9269574" lon="17.7396372">
        <ele>51.5679</ele>
        <time>2014-06-17T13:09:21Z</time>
      </trkpt>
      <trkpt lat="59.926976" lon="17.7396299">
        <ele>52.0486</ele>
        <time>2014-06-17T13:09:22Z</time>
      </trkpt>
      <trkpt lat="59.9270004" lon="17.7396276">
        <ele>52.5292</ele>
        <time>2014-06-17T13:09:23Z</time>
      </trkpt>
      <trkpt lat="59.9270193" lon="17.7396276">
        <ele>52.0486</ele>
        <time>2014-06-17T13:09:24Z</time>
      </trkpt>
      <trkpt lat="59.9270385" lon="17.7396361">
        <ele>50.6066</ele>
        <time>2014-06-17T13:09:25Z</time>
      </trkpt>
      <trkpt lat="59.9270574" lon="17.7396485">
        <ele>49.1646</ele>
        <time>2014-06-17T13:09:26Z</time>
      </trkpt>
      <trkpt lat="59.9270798" lon="17.7396571">
        <ele>49.1646</ele>
        <time>2014-06-17T13:09:27Z</time>
      </trkpt>
      <trkpt lat="59.9270896" lon="17.739676">
        <ele>47.7225</ele>
        <time>2014-06-17T13:09:28Z</time>
      </trkpt>
      <trkpt lat="59.9271049" lon="17.7397032">
        <ele>46.7612</ele>
        <time>2014-06-17T13:09:29Z</time>
      </trkpt>
      <trkpt lat="59.9271185" lon="17.7397357">
        <ele>45.7999</ele>
        <time>2014-06-17T13:09:30Z</time>
      </trkpt>
      <trkpt lat="59.9271392" lon="17.7397623">
        <ele>44.358</ele>
        <time>2014-06-17T13:09:31Z</time>
      </trkpt>
      <trkpt lat="59.9271506" lon="17.7397713">
        <ele>43.3966</ele>
        <time>2014-06-17T13:09:32Z</time>
      </trkpt>
      <trkpt lat="59.9271611" lon="17.7397946">
        <ele>42.916</ele>
        <time>2014-06-17T13:09:33Z</time>
      </trkpt>
      <trkpt lat="59.9271764" lon="17.7398221">
        <ele>42.4354</ele>
        <time>2014-06-17T13:09:34Z</time>
      </trkpt>
      <trkpt lat="59.9271914" lon="17.7398489">
        <ele>41.9547</ele>
        <time>2014-06-17T13:09:35Z</time>
      </trkpt>
      <trkpt lat="59.927207" lon="17.7398733">
        <ele>41.474</ele>
        <time>2014-06-17T13:09:36Z</time>
      </trkpt>
      <trkpt lat="59.9272117" lon="17.7398987">
        <ele>40.5128</ele>
        <time>2014-06-17T13:09:37Z</time>
      </trkpt>
      <trkpt lat="59.9272231" lon="17.7399205">
        <ele>40.5128</ele>
        <time>2014-06-17T13:09:38Z</time>
      </trkpt>
      <trkpt lat="59.9272356" lon="17.73994">
        <ele>40.0321</ele>
        <time>2014-06-17T13:09:39Z</time>
      </trkpt>
      <trkpt lat="59.9272478" lon="17.7399702">
        <ele>39.0707</ele>
        <time>2014-06-17T13:09:40Z</time>
      </trkpt>
      <trkpt lat="59.9272605" lon="17.7400065">
        <ele>38.5901</ele>
        <time>2014-06-17T13:09:41Z</time>
      </trkpt>
      <trkpt lat="59.9272787" lon="17.7400425">
        <ele>38.5901</ele>
        <time>2014-06-17T13:09:42Z</time>
      </trkpt>
      <trkpt lat="59.9273033" lon="17.7400702">
        <ele>40.9934</ele>
        <time>2014-06-17T13:09:43Z</time>
      </trkpt>
      <trkpt lat="59.9273139" lon="17.7401043">
        <ele>40.0321</ele>
        <time>2014-06-17T13:09:44Z</time>
      </trkpt>
      <trkpt lat="59.9273278" lon="17.7401265">
        <ele>40.0321</ele>
        <time>2014-06-17T13:09:45Z</time>
      </trkpt>
      <trkpt lat="59.9273414" lon="17.7401492">
        <ele>39.5513</ele>
        <time>2014-06-17T13:09:46Z</time>
      </trkpt>
      <trkpt lat="59.9273505" lon="17.7401602">
        <ele>39.0707</ele>
        <time>2014-06-17T13:09:47Z</time>
      </trkpt>
      <trkpt lat="59.9273649" lon="17.7401653">
        <ele>38.5901</ele>
        <time>2014-06-17T13:09:48Z</time>
      </trkpt>
      <trkpt lat="59.9273801" lon="17.7401866">
        <ele>38.1094</ele>
        <time>2014-06-17T13:09:49Z</time>
      </trkpt>
      <trkpt lat="59.9273946" lon="17.7402208">
        <ele>38.1094</ele>
        <time>2014-06-17T13:09:50Z</time>
      </trkpt>
      <trkpt lat="59.927409" lon="17.7402531">
        <ele>38.5901</ele>
        <time>2014-06-17T13:09:51Z</time>
      </trkpt>
      <trkpt lat="59.9274199" lon="17.7402645">
        <ele>38.5901</ele>
        <time>2014-06-17T13:09:52Z</time>
      </trkpt>
      <trkpt lat="59.9274318" lon="17.7402721">
        <ele>38.5901</ele>
        <time>2014-06-17T13:09:53Z</time>
      </trkpt>
      <trkpt lat="59.9274377" lon="17.740281">
        <ele>39.0707</ele>
        <time>2014-06-17T13:09:54Z</time>
      </trkpt>
      <trkpt lat="59.927448" lon="17.7402896">
        <ele>39.5513</ele>
        <time>2014-06-17T13:09:55Z</time>
      </trkpt>
      <trkpt lat="59.9274785" lon="17.7403096">
        <ele>41.474</ele>
        <time>2014-06-17T13:09:56Z</time>
      </trkpt>
      <trkpt lat="59.9275039" lon="17.7403331">
        <ele>42.4354</ele>
        <time>2014-06-17T13:09:57Z</time>
      </trkpt>
      <trkpt lat="59.9275236" lon="17.7403608">
        <ele>42.4354</ele>
        <time>2014-06-17T13:09:58Z</time>
      </trkpt>
      <trkpt lat="59.9275458" lon="17.7403883">
        <ele>43.3966</ele>
        <time>2014-06-17T13:09:59Z</time>
      </trkpt>
      <trkpt lat="59.9275602" lon="17.7404238">
        <ele>43.3966</ele>
        <time>2014-06-17T13:10:00Z</time>
      </trkpt>
      <trkpt lat="59.9275728" lon="17.7404604">
        <ele>42.916</ele>
        <time>2014-06-17T13:10:01Z</time>
      </trkpt>
      <trkpt lat="59.9275855" lon="17.74048">
        <ele>42.4354</ele>
        <time>2014-06-17T13:10:02Z</time>
      </trkpt>
      <trkpt lat="59.9275987" lon="17.7404933">
        <ele>42.4354</ele>
        <time>2014-06-17T13:10:03Z</time>
      </trkpt>
      <trkpt lat="59.9276135" lon="17.7405052">
        <ele>42.4354</ele>
        <time>2014-06-17T13:10:04Z</time>
      </trkpt>
      <trkpt lat="59.9276241" lon="17.7405161">
        <ele>43.3966</ele>
        <time>2014-06-17T13:10:05Z</time>
      </trkpt>
      <trkpt lat="59.9276397" lon="17.7405198">
        <ele>43.3966</ele>
        <time>2014-06-17T13:10:06Z</time>
      </trkpt>
      <trkpt lat="59.9276654" lon="17.740524">
        <ele>44.358</ele>
        <time>2014-06-17T13:10:07Z</time>
      </trkpt>
      <trkpt lat="59.9276918" lon="17.7405427">
        <ele>45.3192</ele>
        <time>2014-06-17T13:10:08Z</time>
      </trkpt>
      <trkpt lat="59.9277188" lon="17.7405561">
        <ele>45.7999</ele>
        <time>2014-06-17T13:10:09Z</time>
      </trkpt>
      <trkpt lat="59.9277433" lon="17.7405639">
        <ele>45.3192</ele>
        <time>2014-06-17T13:10:10Z</time>
      </trkpt>
      <trkpt lat="59.927767" lon="17.740567">
        <ele>45.7999</ele>
        <time>2014-06-17T13:10:11Z</time>
      </trkpt>
      <trkpt lat="59.927786" lon="17.7405612">
        <ele>45.3192</ele>
        <time>2014-06-17T13:10:12Z</time>
      </trkpt>
      <trkpt lat="59.9278031" lon="17.7405726">
        <ele>45.7999</ele>
        <time>2014-06-17T13:10:13Z</time>
      </trkpt>
      <trkpt lat="59.9278238" lon="17.7405894">
        <ele>46.2806</ele>
        <time>2014-06-17T13:10:14Z</time>
      </trkpt>
      <trkpt lat="59.9278473" lon="17.7406027">
        <ele>47.7225</ele>
        <time>2014-06-17T13:10:15Z</time>
      </trkpt>
      <trkpt lat="59.9278649" lon="17.7406145">
        <ele>47.7225</ele>
        <time>2014-06-17T13:10:16Z</time>
      </trkpt>
      <trkpt lat="59.9278827" lon="17.7406215">
        <ele>47.7225</ele>
        <time>2014-06-17T13:10:17Z</time>
      </trkpt>
      <trkpt lat="59.9279074" lon="17.7406315">
        <ele>48.684</ele>
        <time>2014-06-17T13:10:18Z</time>
      </trkpt>
      <trkpt lat="59.9279354" lon="17.7406394">
        <ele>49.6453</ele>
        <time>2014-06-17T13:10:19Z</time>
      </trkpt>
      <trkpt lat="59.9279564" lon="17.74065">
        <ele>49.6453</ele>
        <time>2014-06-17T13:10:20Z</time>
      </trkpt>
      <trkpt lat="59.9279736" lon="17.740668">
        <ele>49.6453</ele>
        <time>2014-06-17T13:10:21Z</time>
      </trkpt>
      <trkpt lat="59.9279934" lon="17.7406913">
        <ele>49.6453</ele>
        <time>2014-06-17T13:10:22Z</time>
      </trkpt>
      <trkpt lat="59.9280171" lon="17.7407166">
        <ele>50.126</ele>
        <time>2014-06-17T13:10:23Z</time>
      </trkpt>
      <trkpt lat="59.9280388" lon="17.7407436">
        <ele>51.0872</ele>
        <time>2014-06-17T13:10:24Z</time>
      </trkpt>
      <trkpt lat="59.9280554" lon="17.7407781">
        <ele>51.5679</ele>
        <time>2014-06-17T13:10:25Z</time>
      </trkpt>
      <trkpt lat="59.9280576" lon="17.7408208">
        <ele>50.6066</ele>
        <time>2014-06-17T13:10:26Z</time>
      </trkpt>
      <trkpt lat="59.9280603" lon="17.7408696">
        <ele>50.6066</ele>
        <time>2014-06-17T13:10:27Z</time>
      </trkpt>
      <trkpt lat="59.9280588" lon="17.7409201">
        <ele>50.6066</ele>
        <time>2014-06-17T13:10:28Z</time>
      </trkpt>
      <trkpt lat="59.9280507" lon="17.7409672">
        <ele>49.6453</ele>
        <time>2014-06-17T13:10:29Z</time>
      </trkpt>
      <trkpt lat="59.9280386" lon="17.7410118">
        <ele>49.1646</ele>
        <time>2014-06-17T13:10:30Z</time>
      </trkpt>
      <trkpt lat="59.9280346" lon="17.7410534">
        <ele>49.1646</ele>
        <time>2014-06-17T13:10:31Z</time>
      </trkpt>
      <trkpt lat="59.928037" lon="17.7411011">
        <ele>49.1646</ele>
        <time>2014-06-17T13:10:32Z</time>
      </trkpt>
      <trkpt lat="59.928039" lon="17.7411404">
        <ele>48.684</ele>
        <time>2014-06-17T13:10:33Z</time>
      </trkpt>
      <trkpt lat="59.9280404" lon="17.7411705">
        <ele>48.684</ele>
        <time>2014-06-17T13:10:34Z</time>
      </trkpt>
      <trkpt lat="59.9280545" lon="17.7411751">
        <ele>49.6453</ele>
        <time>2014-06-17T13:10:35Z</time>
      </trkpt>
      <trkpt lat="59.9280699" lon="17.7411719">
        <ele>50.126</ele>
        <time>2014-06-17T13:10:36Z</time>
      </trkpt>
      <trkpt lat="59.9280877" lon="17.741158">
        <ele>50.126</ele>
        <time>2014-06-17T13:10:37Z</time>
      </trkpt>
      <trkpt lat="59.9281063" lon="17.7411558">
        <ele>50.6066</ele>
        <time>2014-06-17T13:10:38Z</time>
      </trkpt>
      <trkpt lat="59.9281317" lon="17.7411554">
        <ele>51.0872</ele>
        <time>2014-06-17T13:10:39Z</time>
      </trkpt>
      <trkpt lat="59.928154" lon="17.7411587">
        <ele>51.5679</ele>
        <time>2014-06-17T13:10:40Z</time>
      </trkpt>
      <trkpt lat="59.9281752" lon="17.7411534">
        <ele>52.5292</ele>
        <time>2014-06-17T13:10:41Z</time>
      </trkpt>
      <trkpt lat="59.928196" lon="17.7411426">
        <ele>53.0098</ele>
        <time>2014-06-17T13:10:42Z</time>
      </trkpt>
      <trkpt lat="59.9282097" lon="17.7411263">
        <ele>53.0098</ele>
        <time>2014-06-17T13:10:43Z</time>
      </trkpt>
      <trkpt lat="59.9282207" lon="17.7411227">
        <ele>52.5292</ele>
        <time>2014-06-17T13:10:44Z</time>
      </trkpt>
      <trkpt lat="59.9282405" lon="17.7411304">
        <ele>51.5679</ele>
        <time>2014-06-17T13:10:45Z</time>
      </trkpt>
      <trkpt lat="59.9282562" lon="17.7411438">
        <ele>51.0872</ele>
        <time>2014-06-17T13:10:46Z</time>
      </trkpt>
      <trkpt lat="59.9282763" lon="17.7411485">
        <ele>50.126</ele>
        <time>2014-06-17T13:10:47Z</time>
      </trkpt>
      <trkpt lat="59.9282918" lon="17.7411414">
        <ele>49.6453</ele>
        <time>2014-06-17T13:10:48Z</time>
      </trkpt>
      <trkpt lat="59.9283133" lon="17.7411357">
        <ele>50.6066</ele>
        <time>2014-06-17T13:10:49Z</time>
      </trkpt>
      <trkpt lat="59.9283359" lon="17.7411275">
        <ele>50.6066</ele>
        <time>2014-06-17T13:10:50Z</time>
      </trkpt>
      <trkpt lat="59.9283524" lon="17.7411122">
        <ele>50.126</ele>
        <time>2014-06-17T13:10:51Z</time>
      </trkpt>
      <trkpt lat="59.9283743" lon="17.7410912">
        <ele>51.0872</ele>
        <time>2014-06-17T13:10:52Z</time>
      </trkpt>
      <trkpt lat="59.9283993" lon="17.7410731">
        <ele>51.5679</ele>
        <time>2014-06-17T13:10:53Z</time>
      </trkpt>
      <trkpt lat="59.928428" lon="17.7410705">
        <ele>51.5679</ele>
        <time>2014-06-17T13:10:54Z</time>
      </trkpt>
      <trkpt lat="59.9284466" lon="17.741067">
        <ele>51.5679</ele>
        <time>2014-06-17T13:10:55Z</time>
      </trkpt>
      <trkpt lat="59.9284705" lon="17.7410705">
        <ele>52.5292</ele>
        <time>2014-06-17T13:10:56Z</time>
      </trkpt>
      <trkpt lat="59.9284932" lon="17.7410715">
        <ele>53.9712</ele>
        <time>2014-06-17T13:10:57Z</time>
      </trkpt>
      <trkpt lat="59.92851" lon="17.7410721">
        <ele>53.9712</ele>
        <time>2014-06-17T13:10:58Z</time>
      </trkpt>
      <trkpt lat="59.9285297" lon="17.7410637">
        <ele>54.4518</ele>
        <time>2014-06-17T13:10:59Z</time>
      </trkpt>
      <trkpt lat="59.9285472" lon="17.7410548">
        <ele>53.4905</ele>
        <time>2014-06-17T13:11:00Z</time>
      </trkpt>
      <trkpt lat="59.9285718" lon="17.7410528">
        <ele>53.9712</ele>
        <time>2014-06-17T13:11:01Z</time>
      </trkpt>
      <trkpt lat="59.9285941" lon="17.7410549">
        <ele>53.4905</ele>
        <time>2014-06-17T13:11:02Z</time>
      </trkpt>
      <trkpt lat="59.9286262" lon="17.7410482">
        <ele>53.4905</ele>
        <time>2014-06-17T13:11:03Z</time>
      </trkpt>
      <trkpt lat="59.9286548" lon="17.7410487">
        <ele>53.4905</ele>
        <time>2014-06-17T13:11:04Z</time>
      </trkpt>
      <trkpt lat="59.9286772" lon="17.7410539">
        <ele>52.5292</ele>
        <time>2014-06-17T13:11:05Z</time>
      </trkpt>
      <trkpt lat="59.9286995" lon="17.741056">
        <ele>53.4905</ele>
        <time>2014-06-17T13:11:06Z</time>
      </trkpt>
      <trkpt lat="59.9287247" lon="17.7410547">
        <ele>53.4905</ele>
        <time>2014-06-17T13:11:07Z</time>
      </trkpt>
      <trkpt lat="59.9287464" lon="17.741055">
        <ele>53.0098</ele>
        <time>2014-06-17T13:11:08Z</time>
      </trkpt>
      <trkpt lat="59.928768" lon="17.7410556">
        <ele>52.5292</ele>
        <time>2014-06-17T13:11:09Z</time>
      </trkpt>
      <trkpt lat="59.9287853" lon="17.7410731">
        <ele>52.5292</ele>
        <time>2014-06-17T13:11:10Z</time>
      </trkpt>
      <trkpt lat="59.9288008" lon="17.7410818">
        <ele>51.5679</ele>
        <time>2014-06-17T13:11:11Z</time>
      </trkpt>
      <trkpt lat="59.9288197" lon="17.7410902">
        <ele>51.5679</ele>
        <time>2014-06-17T13:11:12Z</time>
      </trkpt>
      <trkpt lat="59.9288361" lon="17.7410959">
        <ele>51.0872</ele>
        <time>2014-06-17T13:11:13Z</time>
      </trkpt>
      <trkpt lat="59.9288474" lon="17.7411088">
        <ele>50.6066</ele>
        <time>2014-06-17T13:11:14Z</time>
      </trkpt>
      <trkpt lat="59.9288646" lon="17.7411166">
        <ele>49.6453</ele>
        <time>2014-06-17T13:11:15Z</time>
      </trkpt>
      <trkpt lat="59.9288819" lon="17.7411165">
        <ele>49.1646</ele>
        <time>2014-06-17T13:11:16Z</time>
      </trkpt>
      <trkpt lat="59.9288937" lon="17.7411134">
        <ele>47.7225</ele>
        <time>2014-06-17T13:11:17Z</time>
      </trkpt>
      <trkpt lat="59.9289094" lon="17.7411031">
        <ele>46.7612</ele>
        <time>2014-06-17T13:11:18Z</time>
      </trkpt>
      <trkpt lat="59.9289326" lon="17.7410979">
        <ele>45.7999</ele>
        <time>2014-06-17T13:11:19Z</time>
      </trkpt>
      <trkpt lat="59.9289585" lon="17.7410983">
        <ele>45.3192</ele>
        <time>2014-06-17T13:11:20Z</time>
      </trkpt>
      <trkpt lat="59.9289776" lon="17.7411026">
        <ele>44.8386</ele>
        <time>2014-06-17T13:11:21Z</time>
      </trkpt>
      <trkpt lat="59.9289963" lon="17.7411144">
        <ele>43.8773</ele>
        <time>2014-06-17T13:11:22Z</time>
      </trkpt>
      <trkpt lat="59.9290159" lon="17.7411233">
        <ele>43.3966</ele>
        <time>2014-06-17T13:11:23Z</time>
      </trkpt>
      <trkpt lat="59.9290346" lon="17.7411309">
        <ele>43.3966</ele>
        <time>2014-06-17T13:11:24Z</time>
      </trkpt>
      <trkpt lat="59.9290503" lon="17.7411342">
        <ele>43.3966</ele>
        <time>2014-06-17T13:11:25Z</time>
      </trkpt>
      <trkpt lat="59.9290681" lon="17.7411213">
        <ele>43.3966</ele>
        <time>2014-06-17T13:11:26Z</time>
      </trkpt>
      <trkpt lat="59.9290907" lon="17.7411119">
        <ele>43.3966</ele>
        <time>2014-06-17T13:11:27Z</time>
      </trkpt>
      <trkpt lat="59.929116" lon="17.7411008">
        <ele>43.3966</ele>
        <time>2014-06-17T13:11:28Z</time>
      </trkpt>
      <trkpt lat="59.9291361" lon="17.7410724">
        <ele>43.8773</ele>
        <time>2014-06-17T13:11:29Z</time>
      </trkpt>
      <trkpt lat="59.9291548" lon="17.7410384">
        <ele>43.3966</ele>
        <time>2014-06-17T13:11:30Z</time>
      </trkpt>
      <trkpt lat="59.9291766" lon="17.741017">
        <ele>42.916</ele>
        <time>2014-06-17T13:11:31Z</time>
      </trkpt>
      <trkpt lat="59.9291969" lon="17.7409976">
        <ele>42.916</ele>
        <time>2014-06-17T13:11:32Z</time>
      </trkpt>
      <trkpt lat="59.9292205" lon="17.7409773">
        <ele>42.916</ele>
        <time>2014-06-17T13:11:33Z</time>
      </trkpt>
      <trkpt lat="59.9292456" lon="17.7409595">
        <ele>43.3966</ele>
        <time>2014-06-17T13:11:34Z</time>
      </trkpt>
      <trkpt lat="59.9292725" lon="17.7409444">
        <ele>44.358</ele>
        <time>2014-06-17T13:11:35Z</time>
      </trkpt>
      <trkpt lat="59.9292979" lon="17.7409323">
        <ele>45.7999</ele>
        <time>2014-06-17T13:11:36Z</time>
      </trkpt>
      <trkpt lat="59.9293273" lon="17.740925">
        <ele>47.7225</ele>
        <time>2014-06-17T13:11:37Z</time>
      </trkpt>
      <trkpt lat="59.9293516" lon="17.7409228">
        <ele>48.2034</ele>
        <time>2014-06-17T13:11:38Z</time>
      </trkpt>
      <trkpt lat="59.9293729" lon="17.7409218">
        <ele>49.1646</ele>
        <time>2014-06-17T13:11:39Z</time>
      </trkpt>
      <trkpt lat="59.9293924" lon="17.7409234">
        <ele>48.684</ele>
        <time>2014-06-17T13:11:40Z</time>
      </trkpt>
      <trkpt lat="59.9294097" lon="17.7409296">
        <ele>48.2034</ele>
        <time>2014-06-17T13:11:41Z</time>
      </trkpt>
      <trkpt lat="59.9294251" lon="17.7409292">
        <ele>48.2034</ele>
        <time>2014-06-17T13:11:42Z</time>
      </trkpt>
      <trkpt lat="59.9294465" lon="17.7409219">
        <ele>48.684</ele>
        <time>2014-06-17T13:11:43Z</time>
      </trkpt>
      <trkpt lat="59.9294666" lon="17.7409093">
        <ele>48.684</ele>
        <time>2014-06-17T13:11:44Z</time>
      </trkpt>
      <trkpt lat="59.9294914" lon="17.7409025">
        <ele>49.1646</ele>
        <time>2014-06-17T13:11:45Z</time>
      </trkpt>
      <trkpt lat="59.9295148" lon="17.7409026">
        <ele>50.126</ele>
        <time>2014-06-17T13:11:46Z</time>
      </trkpt>
      <trkpt lat="59.9295372" lon="17.7409118">
        <ele>51.0872</ele>
        <time>2014-06-17T13:11:47Z</time>
      </trkpt>
      <trkpt lat="59.9295532" lon="17.7409284">
        <ele>52.0486</ele>
        <time>2014-06-17T13:11:48Z</time>
      </trkpt>
      <trkpt lat="59.9295662" lon="17.7409503">
        <ele>52.5292</ele>
        <time>2014-06-17T13:11:49Z</time>
      </trkpt>
      <trkpt lat="59.9295816" lon="17.7409767">
        <ele>52.5292</ele>
        <time>2014-06-17T13:11:50Z</time>
      </trkpt>
      <trkpt lat="59.9296004" lon="17.7409967">
        <ele>52.5292</ele>
        <time>2014-06-17T13:11:51Z</time>
      </trkpt>
      <trkpt lat="59.9296214" lon="17.7410145">
        <ele>51.5679</ele>
        <time>2014-06-17T13:11:52Z</time>
      </trkpt>
      <trkpt lat="59.9296455" lon="17.7410218">
        <ele>51.0872</ele>
        <time>2014-06-17T13:11:53Z</time>
      </trkpt>
      <trkpt lat="59.9296676" lon="17.7410224">
        <ele>51.0872</ele>
        <time>2014-06-17T13:11:54Z</time>
      </trkpt>
      <trkpt lat="59.9296828" lon="17.7410218">
        <ele>51.0872</ele>
        <time>2014-06-17T13:11:55Z</time>
      </trkpt>
      <trkpt lat="59.9297024" lon="17.7410262">
        <ele>52.0486</ele>
        <time>2014-06-17T13:11:56Z</time>
      </trkpt>
      <trkpt lat="59.9297254" lon="17.7410273">
        <ele>52.5292</ele>
        <time>2014-06-17T13:11:57Z</time>
      </trkpt>
      <trkpt lat="59.9297488" lon="17.7410233">
        <ele>53.0098</ele>
        <time>2014-06-17T13:11:58Z</time>
      </trkpt>
      <trkpt lat="59.9297679" lon="17.7410159">
        <ele>53.0098</ele>
        <time>2014-06-17T13:11:59Z</time>
      </trkpt>
      <trkpt lat="59.92978" lon="17.7410016">
        <ele>52.0486</ele>
        <time>2014-06-17T13:12:00Z</time>
      </trkpt>
      <trkpt lat="59.9297907" lon="17.7409867">
        <ele>51.5679</ele>
        <time>2014-06-17T13:12:01Z</time>
      </trkpt>
      <trkpt lat="59.9297995" lon="17.7409695">
        <ele>51.0872</ele>
        <time>2014-06-17T13:12:02Z</time>
      </trkpt>
      <trkpt lat="59.9298121" lon="17.740954">
        <ele>51.0872</ele>
        <time>2014-06-17T13:12:03Z</time>
      </trkpt>
      <trkpt lat="59.9298218" lon="17.7409322">
        <ele>50.6066</ele>
        <time>2014-06-17T13:12:04Z</time>
      </trkpt>
      <trkpt lat="59.9298365" lon="17.7409135">
        <ele>50.6066</ele>
        <time>2014-06-17T13:12:05Z</time>
      </trkpt>
      <trkpt lat="59.9298526" lon="17.7409016">
        <ele>50.6066</ele>
        <time>2014-06-17T13:12:06Z</time>
      </trkpt>
      <trkpt lat="59.9298697" lon="17.7408861">
        <ele>51.0872</ele>
        <time>2014-06-17T13:12:07Z</time>
      </trkpt>
      <trkpt lat="59.9298925" lon="17.7408706">
        <ele>51.0872</ele>
        <time>2014-06-17T13:12:08Z</time>
      </trkpt>
      <trkpt lat="59.9299155" lon="17.7408366">
        <ele>51.0872</ele>
        <time>2014-06-17T13:12:09Z</time>
      </trkpt>
      <trkpt lat="59.9299422" lon="17.740803">
        <ele>51.5679</ele>
        <time>2014-06-17T13:12:10Z</time>
      </trkpt>
      <trkpt lat="59.9299629" lon="17.7407808">
        <ele>52.0486</ele>
        <time>2014-06-17T13:12:11Z</time>
      </trkpt>
      <trkpt lat="59.9299835" lon="17.7407593">
        <ele>52.5292</ele>
        <time>2014-06-17T13:12:12Z</time>
      </trkpt>
      <trkpt lat="59.9300059" lon="17.7407468">
        <ele>52.5292</ele>
        <time>2014-06-17T13:12:13Z</time>
      </trkpt>
      <trkpt lat="59.9300333" lon="17.7407379">
        <ele>53.0098</ele>
        <time>2014-06-17T13:12:14Z</time>
      </trkpt>
      <trkpt lat="59.9300562" lon="17.7407343">
        <ele>52.5292</ele>
        <time>2014-06-17T13:12:15Z</time>
      </trkpt>
      <trkpt lat="59.9300743" lon="17.7407203">
        <ele>53.0098</ele>
        <time>2014-06-17T13:12:16Z</time>
      </trkpt>
      <trkpt lat="59.9300906" lon="17.7407106">
        <ele>53.0098</ele>
        <time>2014-06-17T13:12:17Z</time>
      </trkpt>
      <trkpt lat="59.9301108" lon="17.740717">
        <ele>53.0098</ele>
        <time>2014-06-17T13:12:18Z</time>
      </trkpt>
      <trkpt lat="59.9301326" lon="17.740725">
        <ele>53.0098</ele>
        <time>2014-06-17T13:12:19Z</time>
      </trkpt>
      <trkpt lat="59.9301576" lon="17.7407364">
        <ele>52.5292</ele>
        <time>2014-06-17T13:12:20Z</time>
      </trkpt>
      <trkpt lat="59.9301847" lon="17.7407395">
        <ele>53.4905</ele>
        <time>2014-06-17T13:12:21Z</time>
      </trkpt>
      <trkpt lat="59.9302119" lon="17.7407468">
        <ele>54.4518</ele>
        <time>2014-06-17T13:12:22Z</time>
      </trkpt>
      <trkpt lat="59.9302403" lon="17.7407643">
        <ele>54.4518</ele>
        <time>2014-06-17T13:12:23Z</time>
      </trkpt>
      <trkpt lat="59.9302676" lon="17.7407761">
        <ele>54.9324</ele>
        <time>2014-06-17T13:12:24Z</time>
      </trkpt>
      <trkpt lat="59.9302896" lon="17.7407828">
        <ele>54.4518</ele>
        <time>2014-06-17T13:12:25Z</time>
      </trkpt>
      <trkpt lat="59.930313" lon="17.7407907">
        <ele>54.4518</ele>
        <time>2014-06-17T13:12:26Z</time>
      </trkpt>
      <trkpt lat="59.9303362" lon="17.7408025">
        <ele>53.9712</ele>
        <time>2014-06-17T13:12:27Z</time>
      </trkpt>
      <trkpt lat="59.930358" lon="17.7408171">
        <ele>53.9712</ele>
        <time>2014-06-17T13:12:28Z</time>
      </trkpt>
      <trkpt lat="59.9303795" lon="17.7408312">
        <ele>53.9712</ele>
        <time>2014-06-17T13:12:29Z</time>
      </trkpt>
      <trkpt lat="59.9303964" lon="17.7408522">
        <ele>53.9712</ele>
        <time>2014-06-17T13:12:30Z</time>
      </trkpt>
      <trkpt lat="59.9304155" lon="17.7408731">
        <ele>54.4518</ele>
        <time>2014-06-17T13:12:31Z</time>
      </trkpt>
      <trkpt lat="59.9304382" lon="17.7408986">
        <ele>54.9324</ele>
        <time>2014-06-17T13:12:32Z</time>
      </trkpt>
      <trkpt lat="59.9304591" lon="17.740929">
        <ele>54.9324</ele>
        <time>2014-06-17T13:12:33Z</time>
      </trkpt>
      <trkpt lat="59.930485" lon="17.7409658">
        <ele>56.3745</ele>
        <time>2014-06-17T13:12:34Z</time>
      </trkpt>
      <trkpt lat="59.930505" lon="17.741003">
        <ele>56.8551</ele>
        <time>2014-06-17T13:12:35Z</time>
      </trkpt>
      <trkpt lat="59.9305268" lon="17.7410296">
        <ele>57.8165</ele>
        <time>2014-06-17T13:12:36Z</time>
      </trkpt>
      <trkpt lat="59.9305409" lon="17.7410563">
        <ele>58.2971</ele>
        <time>2014-06-17T13:12:37Z</time>
      </trkpt>
      <trkpt lat="59.9305494" lon="17.7410949">
        <ele>58.7777</ele>
        <time>2014-06-17T13:12:38Z</time>
      </trkpt>
      <trkpt lat="59.9305592" lon="17.7411412">
        <ele>58.7777</ele>
        <time>2014-06-17T13:12:39Z</time>
      </trkpt>
      <trkpt lat="59.930571" lon="17.7411813">
        <ele>58.7777</ele>
        <time>2014-06-17T13:12:40Z</time>
      </trkpt>
      <trkpt lat="59.9305777" lon="17.7412238">
        <ele>59.2584</ele>
        <time>2014-06-17T13:12:41Z</time>
      </trkpt>
      <trkpt lat="59.9305855" lon="17.7412579">
        <ele>59.2584</ele>
        <time>2014-06-17T13:12:42Z</time>
      </trkpt>
      <trkpt lat="59.9305891" lon="17.7412962">
        <ele>59.2584</ele>
        <time>2014-06-17T13:12:43Z</time>
      </trkpt>
      <trkpt lat="59.930585" lon="17.7413466">
        <ele>59.7391</ele>
        <time>2014-06-17T13:12:44Z</time>
      </trkpt>
      <trkpt lat="59.9305807" lon="17.7413832">
        <ele>59.7391</ele>
        <time>2014-06-17T13:12:45Z</time>
      </trkpt>
      <trkpt lat="59.9305757" lon="17.7414285">
        <ele>59.2584</ele>
        <time>2014-06-17T13:12:46Z</time>
      </trkpt>
      <trkpt lat="59.9305716" lon="17.7414684">
        <ele>58.7777</ele>
        <time>2014-06-17T13:12:47Z</time>
      </trkpt>
      <trkpt lat="59.9305799" lon="17.741493">
        <ele>59.7391</ele>
        <time>2014-06-17T13:12:48Z</time>
      </trkpt>
      <trkpt lat="59.9305722" lon="17.7415325">
        <ele>58.7777</ele>
        <time>2014-06-17T13:12:49Z</time>
      </trkpt>
      <trkpt lat="59.9305657" lon="17.7415718">
        <ele>59.2584</ele>
        <time>2014-06-17T13:12:50Z</time>
      </trkpt>
      <trkpt lat="59.9305651" lon="17.7416093">
        <ele>59.2584</ele>
        <time>2014-06-17T13:12:51Z</time>
      </trkpt>
      <trkpt lat="59.9305701" lon="17.7416557">
        <ele>60.2197</ele>
        <time>2014-06-17T13:12:52Z</time>
      </trkpt>
      <trkpt lat="59.9305748" lon="17.7416976">
        <ele>60.7003</ele>
        <time>2014-06-17T13:12:53Z</time>
      </trkpt>
      <trkpt lat="59.9305799" lon="17.7417418">
        <ele>61.181</ele>
        <time>2014-06-17T13:12:54Z</time>
      </trkpt>
      <trkpt lat="59.9305865" lon="17.7417882">
        <ele>61.6617</ele>
        <time>2014-06-17T13:12:55Z</time>
      </trkpt>
      <trkpt lat="59.9305939" lon="17.7418354">
        <ele>62.6229</ele>
        <time>2014-06-17T13:12:56Z</time>
      </trkpt>
      <trkpt lat="59.9306056" lon="17.7418853">
        <ele>63.1036</ele>
        <time>2014-06-17T13:12:57Z</time>
      </trkpt>
      <trkpt lat="59.9306167" lon="17.7419262">
        <ele>64.0651</ele>
        <time>2014-06-17T13:12:58Z</time>
      </trkpt>
      <trkpt lat="59.9306213" lon="17.7419646">
        <ele>63.5844</ele>
        <time>2014-06-17T13:12:59Z</time>
      </trkpt>
      <trkpt lat="59.9306306" lon="17.7419956">
        <ele>63.5844</ele>
        <time>2014-06-17T13:13:00Z</time>
      </trkpt>
      <trkpt lat="59.9306551" lon="17.7420195">
        <ele>63.5844</ele>
        <time>2014-06-17T13:13:01Z</time>
      </trkpt>
      <trkpt lat="59.9306804" lon="17.7420345">
        <ele>63.5844</ele>
        <time>2014-06-17T13:13:02Z</time>
      </trkpt>
      <trkpt lat="59.930703" lon="17.7420384">
        <ele>64.0651</ele>
        <time>2014-06-17T13:13:03Z</time>
      </trkpt>
      <trkpt lat="59.9307306" lon="17.7420392">
        <ele>64.0651</ele>
        <time>2014-06-17T13:13:04Z</time>
      </trkpt>
      <trkpt lat="59.9307516" lon="17.742036">
        <ele>64.0651</ele>
        <time>2014-06-17T13:13:05Z</time>
      </trkpt>
      <trkpt lat="59.9307674" lon="17.7420315">
        <ele>63.5844</ele>
        <time>2014-06-17T13:13:06Z</time>
      </trkpt>
      <trkpt lat="59.9307843" lon="17.7420257">
        <ele>63.5844</ele>
        <time>2014-06-17T13:13:07Z</time>
      </trkpt>
      <trkpt lat="59.9308058" lon="17.7420239">
        <ele>63.5844</ele>
        <time>2014-06-17T13:13:08Z</time>
      </trkpt>
      <trkpt lat="59.9308218" lon="17.7420147">
        <ele>63.1036</ele>
        <time>2014-06-17T13:13:09Z</time>
      </trkpt>
      <trkpt lat="59.9308384" lon="17.7420112">
        <ele>62.6229</ele>
        <time>2014-06-17T13:13:10Z</time>
      </trkpt>
      <trkpt lat="59.9308612" lon="17.7420179">
        <ele>62.1423</ele>
        <time>2014-06-17T13:13:11Z</time>
      </trkpt>
      <trkpt lat="59.9308875" lon="17.7420261">
        <ele>62.1423</ele>
        <time>2014-06-17T13:13:12Z</time>
      </trkpt>
      <trkpt lat="59.930915" lon="17.7420325">
        <ele>62.1423</ele>
        <time>2014-06-17T13:13:13Z</time>
      </trkpt>
      <trkpt lat="59.9309382" lon="17.7420393">
        <ele>61.181</ele>
        <time>2014-06-17T13:13:14Z</time>
      </trkpt>
      <trkpt lat="59.930959" lon="17.7420493">
        <ele>61.181</ele>
        <time>2014-06-17T13:13:15Z</time>
      </trkpt>
      <trkpt lat="59.9309786" lon="17.7420499">
        <ele>60.7003</ele>
        <time>2014-06-17T13:13:16Z</time>
      </trkpt>
      <trkpt lat="59.9309961" lon="17.7420504">
        <ele>59.7391</ele>
        <time>2014-06-17T13:13:17Z</time>
      </trkpt>
      <trkpt lat="59.9310123" lon="17.7420623">
        <ele>59.2584</ele>
        <time>2014-06-17T13:13:18Z</time>
      </trkpt>
      <trkpt lat="59.9310295" lon="17.742078">
        <ele>58.2971</ele>
        <time>2014-06-17T13:13:19Z</time>
      </trkpt>
      <trkpt lat="59.9310448" lon="17.7420868">
        <ele>56.3745</ele>
        <time>2014-06-17T13:13:20Z</time>
      </trkpt>
      <trkpt lat="59.931056" lon="17.7420941">
        <ele>54.9324</ele>
        <time>2014-06-17T13:13:21Z</time>
      </trkpt>
      <trkpt lat="59.9310704" lon="17.7421029">
        <ele>53.4905</ele>
        <time>2014-06-17T13:13:22Z</time>
      </trkpt>
      <trkpt lat="59.9310888" lon="17.7421137">
        <ele>53.0098</ele>
        <time>2014-06-17T13:13:23Z</time>
      </trkpt>
      <trkpt lat="59.9311052" lon="17.7421308">
        <ele>51.5679</ele>
        <time>2014-06-17T13:13:24Z</time>
      </trkpt>
      <trkpt lat="59.9311268" lon="17.742149">
        <ele>50.6066</ele>
        <time>2014-06-17T13:13:25Z</time>
      </trkpt>
      <trkpt lat="59.9311461" lon="17.7421622">
        <ele>49.6453</ele>
        <time>2014-06-17T13:13:26Z</time>
      </trkpt>
      <trkpt lat="59.9311673" lon="17.7421732">
        <ele>48.684</ele>
        <time>2014-06-17T13:13:27Z</time>
      </trkpt>
      <trkpt lat="59.9311878" lon="17.7421824">
        <ele>48.2034</ele>
        <time>2014-06-17T13:13:28Z</time>
      </trkpt>
      <trkpt lat="59.9312078" lon="17.7421909">
        <ele>47.2418</ele>
        <time>2014-06-17T13:13:29Z</time>
      </trkpt>
      <trkpt lat="59.9312263" lon="17.7421907">
        <ele>47.2418</ele>
        <time>2014-06-17T13:13:30Z</time>
      </trkpt>
      <trkpt lat="59.9312459" lon="17.742183">
        <ele>46.7612</ele>
        <time>2014-06-17T13:13:31Z</time>
      </trkpt>
      <trkpt lat="59.9312617" lon="17.7421603">
        <ele>46.2806</ele>
        <time>2014-06-17T13:13:32Z</time>
      </trkpt>
      <trkpt lat="59.9312787" lon="17.7421364">
        <ele>45.7999</ele>
        <time>2014-06-17T13:13:33Z</time>
      </trkpt>
      <trkpt lat="59.9312993" lon="17.7421161">
        <ele>45.7999</ele>
        <time>2014-06-17T13:13:34Z</time>
      </trkpt>
      <trkpt lat="59.9313178" lon="17.7420869">
        <ele>46.2806</ele>
        <time>2014-06-17T13:13:35Z</time>
      </trkpt>
      <trkpt lat="59.9313349" lon="17.74205">
        <ele>46.7612</ele>
        <time>2014-06-17T13:13:36Z</time>
      </trkpt>
      <trkpt lat="59.9313522" lon="17.7420235">
        <ele>46.2806</ele>
        <time>2014-06-17T13:13:37Z</time>
      </trkpt>
      <trkpt lat="59.9313706" lon="17.7420065">
        <ele>46.2806</ele>
        <time>2014-06-17T13:13:38Z</time>
      </trkpt>
      <trkpt lat="59.9313916" lon="17.7419854">
        <ele>46.7612</ele>
        <time>2014-06-17T13:13:39Z</time>
      </trkpt>
      <trkpt lat="59.9314171" lon="17.7419646">
        <ele>47.2418</ele>
        <time>2014-06-17T13:13:40Z</time>
      </trkpt>
      <trkpt lat="59.9314401" lon="17.7419531">
        <ele>47.2418</ele>
        <time>2014-06-17T13:13:41Z</time>
      </trkpt>
      <trkpt lat="59.9314656" lon="17.7419504">
        <ele>48.2034</ele>
        <time>2014-06-17T13:13:42Z</time>
      </trkpt>
      <trkpt lat="59.9314918" lon="17.7419512">
        <ele>48.684</ele>
        <time>2014-06-17T13:13:43Z</time>
      </trkpt>
      <trkpt lat="59.931517" lon="17.7419524">
        <ele>49.1646</ele>
        <time>2014-06-17T13:13:44Z</time>
      </trkpt>
      <trkpt lat="59.9315362" lon="17.7419467">
        <ele>49.1646</ele>
        <time>2014-06-17T13:13:45Z</time>
      </trkpt>
      <trkpt lat="59.9315542" lon="17.7419505">
        <ele>49.1646</ele>
        <time>2014-06-17T13:13:46Z</time>
      </trkpt>
      <trkpt lat="59.9315794" lon="17.7419592">
        <ele>50.126</ele>
        <time>2014-06-17T13:13:47Z</time>
      </trkpt>
      <trkpt lat="59.9316054" lon="17.7419745">
        <ele>50.126</ele>
        <time>2014-06-17T13:13:48Z</time>
      </trkpt>
      <trkpt lat="59.9316318" lon="17.7419838">
        <ele>50.6066</ele>
        <time>2014-06-17T13:13:49Z</time>
      </trkpt>
      <trkpt lat="59.9316502" lon="17.7419916">
        <ele>51.0872</ele>
        <time>2014-06-17T13:13:50Z</time>
      </trkpt>
      <trkpt lat="59.9316671" lon="17.7420012">
        <ele>51.0872</ele>
        <time>2014-06-17T13:13:51Z</time>
      </trkpt>
      <trkpt lat="59.9316874" lon="17.7420025">
        <ele>50.6066</ele>
        <time>2014-06-17T13:13:52Z</time>
      </trkpt>
      <trkpt lat="59.9317077" lon="17.7419926">
        <ele>50.6066</ele>
        <time>2014-06-17T13:13:53Z</time>
      </trkpt>
      <trkpt lat="59.9317244" lon="17.74199">
        <ele>49.6453</ele>
        <time>2014-06-17T13:13:54Z</time>
      </trkpt>
      <trkpt lat="59.9317458" lon="17.7419821">
        <ele>49.6453</ele>
        <time>2014-06-17T13:13:55Z</time>
      </trkpt>
      <trkpt lat="59.9317656" lon="17.7419857">
        <ele>48.684</ele>
        <time>2014-06-17T13:13:56Z</time>
      </trkpt>
      <trkpt lat="59.9317884" lon="17.7420004">
        <ele>48.684</ele>
        <time>2014-06-17T13:13:57Z</time>
      </trkpt>
      <trkpt lat="59.9318096" lon="17.7420117">
        <ele>48.2034</ele>
        <time>2014-06-17T13:13:58Z</time>
      </trkpt>
      <trkpt lat="59.9318307" lon="17.7420151">
        <ele>47.7225</ele>
        <time>2014-06-17T13:13:59Z</time>
      </trkpt>
      <trkpt lat="59.9318503" lon="17.7420226">
        <ele>47.7225</ele>
        <time>2014-06-17T13:14:00Z</time>
      </trkpt>
      <trkpt lat="59.9318743" lon="17.7420329">
        <ele>47.7225</ele>
        <time>2014-06-17T13:14:01Z</time>
      </trkpt>
      <trkpt lat="59.9318971" lon="17.742041">
        <ele>48.2034</ele>
        <time>2014-06-17T13:14:02Z</time>
      </trkpt>
      <trkpt lat="59.9319146" lon="17.7420468">
        <ele>47.2418</ele>
        <time>2014-06-17T13:14:03Z</time>
      </trkpt>
      <trkpt lat="59.9319302" lon="17.7420514">
        <ele>47.2418</ele>
        <time>2014-06-17T13:14:04Z</time>
      </trkpt>
      <trkpt lat="59.9319498" lon="17.7420443">
        <ele>47.2418</ele>
        <time>2014-06-17T13:14:05Z</time>
      </trkpt>
      <trkpt lat="59.931971" lon="17.7420329">
        <ele>46.7612</ele>
        <time>2014-06-17T13:14:06Z</time>
      </trkpt>
      <trkpt lat="59.9319904" lon="17.7420025">
        <ele>46.7612</ele>
        <time>2014-06-17T13:14:07Z</time>
      </trkpt>
      <trkpt lat="59.9320069" lon="17.7419625">
        <ele>47.2418</ele>
        <time>2014-06-17T13:14:08Z</time>
      </trkpt>
      <trkpt lat="59.9320209" lon="17.7419268">
        <ele>47.7225</ele>
        <time>2014-06-17T13:14:09Z</time>
      </trkpt>
      <trkpt lat="59.9320355" lon="17.7419045">
        <ele>47.7225</ele>
        <time>2014-06-17T13:14:10Z</time>
      </trkpt>
      <trkpt lat="59.9320458" lon="17.7418755">
        <ele>47.7225</ele>
        <time>2014-06-17T13:14:11Z</time>
      </trkpt>
      <trkpt lat="59.9320589" lon="17.7418542">
        <ele>47.7225</ele>
        <time>2014-06-17T13:14:12Z</time>
      </trkpt>
      <trkpt lat="59.9320732" lon="17.7418279">
        <ele>47.2418</ele>
        <time>2014-06-17T13:14:13Z</time>
      </trkpt>
      <trkpt lat="59.9320874" lon="17.7417974">
        <ele>47.2418</ele>
        <time>2014-06-17T13:14:14Z</time>
      </trkpt>
      <trkpt lat="59.9320993" lon="17.741765">
        <ele>47.2418</ele>
        <time>2014-06-17T13:14:15Z</time>
      </trkpt>
      <trkpt lat="59.9321091" lon="17.741733">
        <ele>47.2418</ele>
        <time>2014-06-17T13:14:16Z</time>
      </trkpt>
      <trkpt lat="59.9321183" lon="17.7416947">
        <ele>46.7612</ele>
        <time>2014-06-17T13:14:17Z</time>
      </trkpt>
      <trkpt lat="59.9321308" lon="17.7416596">
        <ele>46.7612</ele>
        <time>2014-06-17T13:14:18Z</time>
      </trkpt>
      <trkpt lat="59.9321456" lon="17.7416206">
        <ele>46.2806</ele>
        <time>2014-06-17T13:14:19Z</time>
      </trkpt>
      <trkpt lat="59.9321629" lon="17.7415812">
        <ele>46.7612</ele>
        <time>2014-06-17T13:14:20Z</time>
      </trkpt>
      <trkpt lat="59.9321743" lon="17.7415243">
        <ele>47.7225</ele>
        <time>2014-06-17T13:14:21Z</time>
      </trkpt>
      <trkpt lat="59.9321815" lon="17.7414764">
        <ele>47.2418</ele>
        <time>2014-06-17T13:14:22Z</time>
      </trkpt>
      <trkpt lat="59.9321955" lon="17.7414367">
        <ele>47.2418</ele>
        <time>2014-06-17T13:14:23Z</time>
      </trkpt>
      <trkpt lat="59.932212" lon="17.7414023">
        <ele>47.2418</ele>
        <time>2014-06-17T13:14:24Z</time>
      </trkpt>
      <trkpt lat="59.9322344" lon="17.7413808">
        <ele>47.2418</ele>
        <time>2014-06-17T13:14:25Z</time>
      </trkpt>
      <trkpt lat="59.9322591" lon="17.7413528">
        <ele>47.2418</ele>
        <time>2014-06-17T13:14:26Z</time>
      </trkpt>
      <trkpt lat="59.9322767" lon="17.7413104">
        <ele>47.7225</ele>
        <time>2014-06-17T13:14:27Z</time>
      </trkpt>
      <trkpt lat="59.9322951" lon="17.7412837">
        <ele>47.2418</ele>
        <time>2014-06-17T13:14:28Z</time>
      </trkpt>
      <trkpt lat="59.9323163" lon="17.7412586">
        <ele>46.7612</ele>
        <time>2014-06-17T13:14:29Z</time>
      </trkpt>
      <trkpt lat="59.9323338" lon="17.7412285">
        <ele>46.2806</ele>
        <time>2014-06-17T13:14:30Z</time>
      </trkpt>
      <trkpt lat="59.9323492" lon="17.7412">
        <ele>46.7612</ele>
        <time>2014-06-17T13:14:31Z</time>
      </trkpt>
      <trkpt lat="59.9323657" lon="17.7411777">
        <ele>46.2806</ele>
        <time>2014-06-17T13:14:32Z</time>
      </trkpt>
      <trkpt lat="59.9323854" lon="17.7411549">
        <ele>46.2806</ele>
        <time>2014-06-17T13:14:33Z</time>
      </trkpt>
      <trkpt lat="59.9324038" lon="17.7411392">
        <ele>46.2806</ele>
        <time>2014-06-17T13:14:34Z</time>
      </trkpt>
      <trkpt lat="59.9324235" lon="17.741118">
        <ele>46.2806</ele>
        <time>2014-06-17T13:14:35Z</time>
      </trkpt>
      <trkpt lat="59.9324435" lon="17.7410979">
        <ele>46.2806</ele>
        <time>2014-06-17T13:14:36Z</time>
      </trkpt>
      <trkpt lat="59.932461" lon="17.7410819">
        <ele>46.2806</ele>
        <time>2014-06-17T13:14:37Z</time>
      </trkpt>
      <trkpt lat="59.9324777" lon="17.7410581">
        <ele>45.3192</ele>
        <time>2014-06-17T13:14:38Z</time>
      </trkpt>
      <trkpt lat="59.9324906" lon="17.7410238">
        <ele>44.8386</ele>
        <time>2014-06-17T13:14:39Z</time>
      </trkpt>
      <trkpt lat="59.932503" lon="17.7409855">
        <ele>43.8773</ele>
        <time>2014-06-17T13:14:40Z</time>
      </trkpt>
      <trkpt lat="59.9325208" lon="17.7409504">
        <ele>43.3966</ele>
        <time>2014-06-17T13:14:41Z</time>
      </trkpt>
      <trkpt lat="59.9325395" lon="17.74092">
        <ele>42.4354</ele>
        <time>2014-06-17T13:14:42Z</time>
      </trkpt>
      <trkpt lat="59.9325546" lon="17.7408903">
        <ele>42.4354</ele>
        <time>2014-06-17T13:14:43Z</time>
      </trkpt>
      <trkpt lat="59.9325706" lon="17.7408701">
        <ele>42.4354</ele>
        <time>2014-06-17T13:14:44Z</time>
      </trkpt>
      <trkpt lat="59.9325876" lon="17.7408392">
        <ele>42.4354</ele>
        <time>2014-06-17T13:14:45Z</time>
      </trkpt>
      <trkpt lat="59.9326023" lon="17.7408066">
        <ele>41.9547</ele>
        <time>2014-06-17T13:14:46Z</time>
      </trkpt>
      <trkpt lat="59.9326151" lon="17.7407766">
        <ele>41.474</ele>
        <time>2014-06-17T13:14:47Z</time>
      </trkpt>
      <trkpt lat="59.9326306" lon="17.7407419">
        <ele>41.474</ele>
        <time>2014-06-17T13:14:48Z</time>
      </trkpt>
      <trkpt lat="59.9326493" lon="17.7407121">
        <ele>40.9934</ele>
        <time>2014-06-17T13:14:49Z</time>
      </trkpt>
      <trkpt lat="59.9326651" lon="17.7406831">
        <ele>40.9934</ele>
        <time>2014-06-17T13:14:50Z</time>
      </trkpt>
      <trkpt lat="59.9326787" lon="17.7406514">
        <ele>40.5128</ele>
        <time>2014-06-17T13:14:51Z</time>
      </trkpt>
      <trkpt lat="59.9326949" lon="17.7406234">
        <ele>40.5128</ele>
        <time>2014-06-17T13:14:52Z</time>
      </trkpt>
      <trkpt lat="59.9327135" lon="17.7406018">
        <ele>40.0321</ele>
        <time>2014-06-17T13:14:53Z</time>
      </trkpt>
      <trkpt lat="59.9327292" lon="17.7405733">
        <ele>39.5513</ele>
        <time>2014-06-17T13:14:54Z</time>
      </trkpt>
      <trkpt lat="59.9327452" lon="17.7405443">
        <ele>39.5513</ele>
        <time>2014-06-17T13:14:55Z</time>
      </trkpt>
      <trkpt lat="59.9327642" lon="17.7405173">
        <ele>39.5513</ele>
        <time>2014-06-17T13:14:56Z</time>
      </trkpt>
      <trkpt lat="59.9327824" lon="17.7404885">
        <ele>39.5513</ele>
        <time>2014-06-17T13:14:57Z</time>
      </trkpt>
      <trkpt lat="59.9327983" lon="17.7404575">
        <ele>39.0707</ele>
        <time>2014-06-17T13:14:58Z</time>
      </trkpt>
      <trkpt lat="59.9328138" lon="17.7404281">
        <ele>39.0707</ele>
        <time>2014-06-17T13:14:59Z</time>
      </trkpt>
      <trkpt lat="59.9328296" lon="17.7403996">
        <ele>39.0707</ele>
        <time>2014-06-17T13:15:00Z</time>
      </trkpt>
      <trkpt lat="59.9328446" lon="17.7403702">
        <ele>38.5901</ele>
        <time>2014-06-17T13:15:01Z</time>
      </trkpt>
      <trkpt lat="59.9328611" lon="17.7403406">
        <ele>38.5901</ele>
        <time>2014-06-17T13:15:02Z</time>
      </trkpt>
      <trkpt lat="59.9328791" lon="17.7403138">
        <ele>38.5901</ele>
        <time>2014-06-17T13:15:03Z</time>
      </trkpt>
      <trkpt lat="59.9328951" lon="17.7402907">
        <ele>38.1094</ele>
        <time>2014-06-17T13:15:04Z</time>
      </trkpt>
      <trkpt lat="59.9329084" lon="17.740267">
        <ele>38.1094</ele>
        <time>2014-06-17T13:15:05Z</time>
      </trkpt>
      <trkpt lat="59.9329244" lon="17.7402411">
        <ele>38.1094</ele>
        <time>2014-06-17T13:15:06Z</time>
      </trkpt>
      <trkpt lat="59.9329414" lon="17.7402141">
        <ele>38.1094</ele>
        <time>2014-06-17T13:15:07Z</time>
      </trkpt>
      <trkpt lat="59.932956" lon="17.7401821">
        <ele>38.1094</ele>
        <time>2014-06-17T13:15:08Z</time>
      </trkpt>
      <trkpt lat="59.9329705" lon="17.7401513">
        <ele>38.1094</ele>
        <time>2014-06-17T13:15:09Z</time>
      </trkpt>
      <trkpt lat="59.932987" lon="17.740122">
        <ele>38.1094</ele>
        <time>2014-06-17T13:15:10Z</time>
      </trkpt>
      <trkpt lat="59.9330018" lon="17.7400873">
        <ele>37.6287</ele>
        <time>2014-06-17T13:15:11Z</time>
      </trkpt>
      <trkpt lat="59.9330162" lon="17.7400531">
        <ele>37.6287</ele>
        <time>2014-06-17T13:15:12Z</time>
      </trkpt>
      <trkpt lat="59.9330335" lon="17.7400234">
        <ele>37.6287</ele>
        <time>2014-06-17T13:15:13Z</time>
      </trkpt>
      <trkpt lat="59.9330512" lon="17.7399988">
        <ele>37.6287</ele>
        <time>2014-06-17T13:15:14Z</time>
      </trkpt>
      <trkpt lat="59.9330664" lon="17.7399718">
        <ele>37.6287</ele>
        <time>2014-06-17T13:15:15Z</time>
      </trkpt>
      <trkpt lat="59.9330837" lon="17.7399484">
        <ele>37.6287</ele>
        <time>2014-06-17T13:15:16Z</time>
      </trkpt>
      <trkpt lat="59.9330992" lon="17.7399196">
        <ele>37.6287</ele>
        <time>2014-06-17T13:15:17Z</time>
      </trkpt>
      <trkpt lat="59.9331112" lon="17.7398892">
        <ele>37.6287</ele>
        <time>2014-06-17T13:15:18Z</time>
      </trkpt>
      <trkpt lat="59.9331233" lon="17.7398583">
        <ele>37.6287</ele>
        <time>2014-06-17T13:15:19Z</time>
      </trkpt>
      <trkpt lat="59.933142" lon="17.7398257">
        <ele>37.6287</ele>
        <time>2014-06-17T13:15:20Z</time>
      </trkpt>
      <trkpt lat="59.9331594" lon="17.7397944">
        <ele>37.6287</ele>
        <time>2014-06-17T13:15:21Z</time>
      </trkpt>
      <trkpt lat="59.933173" lon="17.7397635">
        <ele>37.6287</ele>
        <time>2014-06-17T13:15:22Z</time>
      </trkpt>
      <trkpt lat="59.933188" lon="17.7397317">
        <ele>37.6287</ele>
        <time>2014-06-17T13:15:23Z</time>
      </trkpt>
      <trkpt lat="59.9332065" lon="17.7397001">
        <ele>37.6287</ele>
        <time>2014-06-17T13:15:24Z</time>
      </trkpt>
      <trkpt lat="59.9332264" lon="17.7396563">
        <ele>37.6287</ele>
        <time>2014-06-17T13:15:25Z</time>
      </trkpt>
      <trkpt lat="59.9332435" lon="17.7396175">
        <ele>38.1094</ele>
        <time>2014-06-17T13:15:26Z</time>
      </trkpt>
      <trkpt lat="59.933257" lon="17.7395869">
        <ele>38.5901</ele>
        <time>2014-06-17T13:15:27Z</time>
      </trkpt>
      <trkpt lat="59.9332739" lon="17.7395588">
        <ele>38.5901</ele>
        <time>2014-06-17T13:15:28Z</time>
      </trkpt>
      <trkpt lat="59.9332906" lon="17.7395264">
        <ele>38.5901</ele>
        <time>2014-06-17T13:15:29Z</time>
      </trkpt>
      <trkpt lat="59.9333045" lon="17.7394953">
        <ele>38.5901</ele>
        <time>2014-06-17T13:15:30Z</time>
      </trkpt>
      <trkpt lat="59.9333204" lon="17.7394636">
        <ele>39.0707</ele>
        <time>2014-06-17T13:15:31Z</time>
      </trkpt>
      <trkpt lat="59.9333398" lon="17.7394313">
        <ele>39.5513</ele>
        <time>2014-06-17T13:15:32Z</time>
      </trkpt>
      <trkpt lat="59.9333582" lon="17.7393937">
        <ele>40.0321</ele>
        <time>2014-06-17T13:15:33Z</time>
      </trkpt>
      <trkpt lat="59.9333779" lon="17.7393564">
        <ele>41.474</ele>
        <time>2014-06-17T13:15:34Z</time>
      </trkpt>
      <trkpt lat="59.9333983" lon="17.7393197">
        <ele>42.4354</ele>
        <time>2014-06-17T13:15:35Z</time>
      </trkpt>
      <trkpt lat="59.933418" lon="17.7392838">
        <ele>43.3966</ele>
        <time>2014-06-17T13:15:36Z</time>
      </trkpt>
      <trkpt lat="59.9334331" lon="17.7392477">
        <ele>43.8773</ele>
        <time>2014-06-17T13:15:37Z</time>
      </trkpt>
      <trkpt lat="59.9334463" lon="17.7392189">
        <ele>44.358</ele>
        <time>2014-06-17T13:15:38Z</time>
      </trkpt>
      <trkpt lat="59.933462" lon="17.7391922">
        <ele>44.8386</ele>
        <time>2014-06-17T13:15:39Z</time>
      </trkpt>
      <trkpt lat="59.9334802" lon="17.7391591">
        <ele>45.3192</ele>
        <time>2014-06-17T13:15:40Z</time>
      </trkpt>
      <trkpt lat="59.9334957" lon="17.7391259">
        <ele>45.3192</ele>
        <time>2014-06-17T13:15:41Z</time>
      </trkpt>
      <trkpt lat="59.9335123" lon="17.7390951">
        <ele>45.3192</ele>
        <time>2014-06-17T13:15:42Z</time>
      </trkpt>
      <trkpt lat="59.9335295" lon="17.739063">
        <ele>45.3192</ele>
        <time>2014-06-17T13:15:43Z</time>
      </trkpt>
      <trkpt lat="59.9335444" lon="17.7390295">
        <ele>45.3192</ele>
        <time>2014-06-17T13:15:44Z</time>
      </trkpt>
      <trkpt lat="59.9335563" lon="17.7389949">
        <ele>45.3192</ele>
        <time>2014-06-17T13:15:45Z</time>
      </trkpt>
      <trkpt lat="59.9335677" lon="17.7389613">
        <ele>44.8386</ele>
        <time>2014-06-17T13:15:46Z</time>
      </trkpt>
      <trkpt lat="59.9335831" lon="17.7389332">
        <ele>44.358</ele>
        <time>2014-06-17T13:15:47Z</time>
      </trkpt>
      <trkpt lat="59.9335977" lon="17.738905">
        <ele>44.358</ele>
        <time>2014-06-17T13:15:48Z</time>
      </trkpt>
      <trkpt lat="59.9336108" lon="17.7388739">
        <ele>44.358</ele>
        <time>2014-06-17T13:15:49Z</time>
      </trkpt>
      <trkpt lat="59.9336268" lon="17.7388376">
        <ele>44.8386</ele>
        <time>2014-06-17T13:15:50Z</time>
      </trkpt>
      <trkpt lat="59.9336417" lon="17.7388011">
        <ele>44.8386</ele>
        <time>2014-06-17T13:15:51Z</time>
      </trkpt>
      <trkpt lat="59.9336567" lon="17.738769">
        <ele>45.3192</ele>
        <time>2014-06-17T13:15:52Z</time>
      </trkpt>
      <trkpt lat="59.933674" lon="17.7387327">
        <ele>45.3192</ele>
        <time>2014-06-17T13:15:53Z</time>
      </trkpt>
      <trkpt lat="59.9336947" lon="17.7386907">
        <ele>45.7999</ele>
        <time>2014-06-17T13:15:54Z</time>
      </trkpt>
      <trkpt lat="59.9337106" lon="17.7386565">
        <ele>46.2806</ele>
        <time>2014-06-17T13:15:55Z</time>
      </trkpt>
      <trkpt lat="59.9337236" lon="17.7386304">
        <ele>46.7612</ele>
        <time>2014-06-17T13:15:56Z</time>
      </trkpt>
      <trkpt lat="59.9337393" lon="17.7386031">
        <ele>46.7612</ele>
        <time>2014-06-17T13:15:57Z</time>
      </trkpt>
      <trkpt lat="59.9337551" lon="17.7385716">
        <ele>47.2418</ele>
        <time>2014-06-17T13:15:58Z</time>
      </trkpt>
      <trkpt lat="59.9337697" lon="17.7385406">
        <ele>47.7225</ele>
        <time>2014-06-17T13:15:59Z</time>
      </trkpt>
      <trkpt lat="59.9337823" lon="17.738515">
        <ele>47.2418</ele>
        <time>2014-06-17T13:16:00Z</time>
      </trkpt>
      <trkpt lat="59.933797" lon="17.7384887">
        <ele>46.7612</ele>
        <time>2014-06-17T13:16:01Z</time>
      </trkpt>
      <trkpt lat="59.9338108" lon="17.7384644">
        <ele>45.7999</ele>
        <time>2014-06-17T13:16:02Z</time>
      </trkpt>
      <trkpt lat="59.9338255" lon="17.7384405">
        <ele>45.7999</ele>
        <time>2014-06-17T13:16:03Z</time>
      </trkpt>
      <trkpt lat="59.933841" lon="17.7384135">
        <ele>45.3192</ele>
        <time>2014-06-17T13:16:04Z</time>
      </trkpt>
      <trkpt lat="59.9338583" lon="17.7383909">
        <ele>45.3192</ele>
        <time>2014-06-17T13:16:05Z</time>
      </trkpt>
      <trkpt lat="59.9338769" lon="17.7383763">
        <ele>45.7999</ele>
        <time>2014-06-17T13:16:06Z</time>
      </trkpt>
      <trkpt lat="59.9338954" lon="17.7383632">
        <ele>45.7999</ele>
        <time>2014-06-17T13:16:07Z</time>
      </trkpt>
      <trkpt lat="59.9339174" lon="17.7383474">
        <ele>45.7999</ele>
        <time>2014-06-17T13:16:08Z</time>
      </trkpt>
      <trkpt lat="59.9339367" lon="17.7383429">
        <ele>45.3192</ele>
        <time>2014-06-17T13:16:09Z</time>
      </trkpt>
      <trkpt lat="59.9339562" lon="17.7383505">
        <ele>44.8386</ele>
        <time>2014-06-17T13:16:10Z</time>
      </trkpt>
      <trkpt lat="59.933979" lon="17.7383618">
        <ele>45.3192</ele>
        <time>2014-06-17T13:16:11Z</time>
      </trkpt>
      <trkpt lat="59.9340021" lon="17.7383789">
        <ele>45.3192</ele>
        <time>2014-06-17T13:16:12Z</time>
      </trkpt>
      <trkpt lat="59.9340244" lon="17.7384018">
        <ele>45.7999</ele>
        <time>2014-06-17T13:16:13Z</time>
      </trkpt>
      <trkpt lat="59.9340442" lon="17.7384272">
        <ele>45.7999</ele>
        <time>2014-06-17T13:16:14Z</time>
      </trkpt>
      <trkpt lat="59.9340602" lon="17.7384546">
        <ele>44.8386</ele>
        <time>2014-06-17T13:16:15Z</time>
      </trkpt>
      <trkpt lat="59.9340789" lon="17.7384798">
        <ele>44.8386</ele>
        <time>2014-06-17T13:16:16Z</time>
      </trkpt>
      <trkpt lat="59.9340985" lon="17.7384982">
        <ele>44.358</ele>
        <time>2014-06-17T13:16:17Z</time>
      </trkpt>
      <trkpt lat="59.9341198" lon="17.7385162">
        <ele>43.8773</ele>
        <time>2014-06-17T13:16:18Z</time>
      </trkpt>
      <trkpt lat="59.934142" lon="17.7385331">
        <ele>43.8773</ele>
        <time>2014-06-17T13:16:19Z</time>
      </trkpt>
      <trkpt lat="59.9341603" lon="17.7385474">
        <ele>43.3966</ele>
        <time>2014-06-17T13:16:20Z</time>
      </trkpt>
      <trkpt lat="59.9341795" lon="17.7385586">
        <ele>42.916</ele>
        <time>2014-06-17T13:16:21Z</time>
      </trkpt>
      <trkpt lat="59.9341992" lon="17.7385763">
        <ele>41.9547</ele>
        <time>2014-06-17T13:16:22Z</time>
      </trkpt>
      <trkpt lat="59.9342205" lon="17.7385895">
        <ele>41.474</ele>
        <time>2014-06-17T13:16:23Z</time>
      </trkpt>
      <trkpt lat="59.934239" lon="17.7386032">
        <ele>40.5128</ele>
        <time>2014-06-17T13:16:24Z</time>
      </trkpt>
      <trkpt lat="59.9342582" lon="17.7386176">
        <ele>40.0321</ele>
        <time>2014-06-17T13:16:25Z</time>
      </trkpt>
      <trkpt lat="59.9342789" lon="17.7386323">
        <ele>39.5513</ele>
        <time>2014-06-17T13:16:26Z</time>
      </trkpt>
      <trkpt lat="59.9342993" lon="17.7386475">
        <ele>39.0707</ele>
        <time>2014-06-17T13:16:27Z</time>
      </trkpt>
      <trkpt lat="59.9343205" lon="17.7386589">
        <ele>38.5901</ele>
        <time>2014-06-17T13:16:28Z</time>
      </trkpt>
      <trkpt lat="59.9343415" lon="17.7386695">
        <ele>37.6287</ele>
        <time>2014-06-17T13:16:29Z</time>
      </trkpt>
      <trkpt lat="59.9343644" lon="17.7386802">
        <ele>37.1481</ele>
        <time>2014-06-17T13:16:30Z</time>
      </trkpt>
      <trkpt lat="59.9343841" lon="17.7386886">
        <ele>37.1481</ele>
        <time>2014-06-17T13:16:31Z</time>
      </trkpt>
      <trkpt lat="59.9344033" lon="17.7386995">
        <ele>36.6675</ele>
        <time>2014-06-17T13:16:32Z</time>
      </trkpt>
      <trkpt lat="59.9344213" lon="17.738716">
        <ele>36.1868</ele>
        <time>2014-06-17T13:16:33Z</time>
      </trkpt>
      <trkpt lat="59.9344421" lon="17.7387222">
        <ele>36.1868</ele>
        <time>2014-06-17T13:16:34Z</time>
      </trkpt>
      <trkpt lat="59.9344628" lon="17.7387245">
        <ele>35.7061</ele>
        <time>2014-06-17T13:16:35Z</time>
      </trkpt>
      <trkpt lat="59.9344826" lon="17.7387341">
        <ele>35.2255</ele>
        <time>2014-06-17T13:16:36Z</time>
      </trkpt>
      <trkpt lat="59.9345011" lon="17.7387445">
        <ele>35.2255</ele>
        <time>2014-06-17T13:16:37Z</time>
      </trkpt>
      <trkpt lat="59.9345171" lon="17.738757">
        <ele>34.2642</ele>
        <time>2014-06-17T13:16:38Z</time>
      </trkpt>
      <trkpt lat="59.9345367" lon="17.7387679">
        <ele>33.7834</ele>
        <time>2014-06-17T13:16:39Z</time>
      </trkpt>
      <trkpt lat="59.9345577" lon="17.7387767">
        <ele>33.3029</ele>
        <time>2014-06-17T13:16:40Z</time>
      </trkpt>
      <trkpt lat="59.9345787" lon="17.738788">
        <ele>33.3029</ele>
        <time>2014-06-17T13:16:41Z</time>
      </trkpt>
      <trkpt lat="59.9345973" lon="17.7387964">
        <ele>32.8223</ele>
        <time>2014-06-17T13:16:42Z</time>
      </trkpt>
      <trkpt lat="59.9346173" lon="17.7388012">
        <ele>32.3416</ele>
        <time>2014-06-17T13:16:43Z</time>
      </trkpt>
      <trkpt lat="59.934637" lon="17.738813">
        <ele>32.3416</ele>
        <time>2014-06-17T13:16:44Z</time>
      </trkpt>
      <trkpt lat="59.9346548" lon="17.7388306">
        <ele>31.8607</ele>
        <time>2014-06-17T13:16:45Z</time>
      </trkpt>
      <trkpt lat="59.934671" lon="17.7388433">
        <ele>31.8607</ele>
        <time>2014-06-17T13:16:46Z</time>
      </trkpt>
      <trkpt lat="59.9346918" lon="17.7388509">
        <ele>31.8607</ele>
        <time>2014-06-17T13:16:47Z</time>
      </trkpt>
      <trkpt lat="59.934713" lon="17.7388608">
        <ele>31.8607</ele>
        <time>2014-06-17T13:16:48Z</time>
      </trkpt>
      <trkpt lat="59.9347328" lon="17.7388745">
        <ele>31.8607</ele>
        <time>2014-06-17T13:16:49Z</time>
      </trkpt>
      <trkpt lat="59.9347517" lon="17.7388863">
        <ele>31.8607</ele>
        <time>2014-06-17T13:16:50Z</time>
      </trkpt>
      <trkpt lat="59.9347748" lon="17.738897">
        <ele>31.8607</ele>
        <time>2014-06-17T13:16:51Z</time>
      </trkpt>
      <trkpt lat="59.934799" lon="17.7389094">
        <ele>32.3416</ele>
        <time>2014-06-17T13:16:52Z</time>
      </trkpt>
      <trkpt lat="59.9348197" lon="17.7389179">
        <ele>31.8607</ele>
        <time>2014-06-17T13:16:53Z</time>
      </trkpt>
      <trkpt lat="59.934838" lon="17.7389264">
        <ele>31.8607</ele>
        <time>2014-06-17T13:16:54Z</time>
      </trkpt>
      <trkpt lat="59.9348581" lon="17.7389294">
        <ele>31.8607</ele>
        <time>2014-06-17T13:16:55Z</time>
      </trkpt>
      <trkpt lat="59.9348797" lon="17.7389337">
        <ele>31.3801</ele>
        <time>2014-06-17T13:16:56Z</time>
      </trkpt>
      <trkpt lat="59.9348991" lon="17.7389423">
        <ele>31.3801</ele>
        <time>2014-06-17T13:16:57Z</time>
      </trkpt>
      <trkpt lat="59.9349191" lon="17.7389548">
        <ele>31.3801</ele>
        <time>2014-06-17T13:16:58Z</time>
      </trkpt>
      <trkpt lat="59.9349395" lon="17.7389648">
        <ele>30.8995</ele>
        <time>2014-06-17T13:16:59Z</time>
      </trkpt>
      <trkpt lat="59.9349594" lon="17.7389688">
        <ele>30.8995</ele>
        <time>2014-06-17T13:17:00Z</time>
      </trkpt>
      <trkpt lat="59.9349798" lon="17.7389751">
        <ele>30.4188</ele>
        <time>2014-06-17T13:17:01Z</time>
      </trkpt>
      <trkpt lat="59.935002" lon="17.7389809">
        <ele>29.9381</ele>
        <time>2014-06-17T13:17:02Z</time>
      </trkpt>
      <trkpt lat="59.9350254" lon="17.7389809">
        <ele>29.9381</ele>
        <time>2014-06-17T13:17:03Z</time>
      </trkpt>
      <trkpt lat="59.9350466" lon="17.738985">
        <ele>29.4575</ele>
        <time>2014-06-17T13:17:04Z</time>
      </trkpt>
      <trkpt lat="59.9350678" lon="17.7389943">
        <ele>28.9769</ele>
        <time>2014-06-17T13:17:05Z</time>
      </trkpt>
      <trkpt lat="59.935087" lon="17.739002">
        <ele>28.9769</ele>
        <time>2014-06-17T13:17:06Z</time>
      </trkpt>
      <trkpt lat="59.9351067" lon="17.7390004">
        <ele>28.4962</ele>
        <time>2014-06-17T13:17:07Z</time>
      </trkpt>
      <trkpt lat="59.9351319" lon="17.7389995">
        <ele>28.0155</ele>
        <time>2014-06-17T13:17:08Z</time>
      </trkpt>
      <trkpt lat="59.9351549" lon="17.739007">
        <ele>28.0155</ele>
        <time>2014-06-17T13:17:09Z</time>
      </trkpt>
      <trkpt lat="59.9351729" lon="17.7390172">
        <ele>27.5349</ele>
        <time>2014-06-17T13:17:10Z</time>
      </trkpt>
      <trkpt lat="59.935191" lon="17.7390274">
        <ele>27.0543</ele>
        <time>2014-06-17T13:17:11Z</time>
      </trkpt>
      <trkpt lat="59.9352091" lon="17.7390414">
        <ele>26.5736</ele>
        <time>2014-06-17T13:17:12Z</time>
      </trkpt>
      <trkpt lat="59.9352265" lon="17.7390569">
        <ele>27.0543</ele>
        <time>2014-06-17T13:17:13Z</time>
      </trkpt>
      <trkpt lat="59.935244" lon="17.739071">
        <ele>27.0543</ele>
        <time>2014-06-17T13:17:14Z</time>
      </trkpt>
      <trkpt lat="59.9352631" lon="17.7390911">
        <ele>27.5349</ele>
        <time>2014-06-17T13:17:15Z</time>
      </trkpt>
      <trkpt lat="59.9352816" lon="17.7391129">
        <ele>27.5349</ele>
        <time>2014-06-17T13:17:16Z</time>
      </trkpt>
      <trkpt lat="59.9353003" lon="17.7391295">
        <ele>27.5349</ele>
        <time>2014-06-17T13:17:17Z</time>
      </trkpt>
      <trkpt lat="59.9353206" lon="17.739148">
        <ele>28.0155</ele>
        <time>2014-06-17T13:17:18Z</time>
      </trkpt>
      <trkpt lat="59.935341" lon="17.7391703">
        <ele>28.4962</ele>
        <time>2014-06-17T13:17:19Z</time>
      </trkpt>
      <trkpt lat="59.9353605" lon="17.7391891">
        <ele>28.9769</ele>
        <time>2014-06-17T13:17:20Z</time>
      </trkpt>
      <trkpt lat="59.9353828" lon="17.7392049">
        <ele>29.9381</ele>
        <time>2014-06-17T13:17:21Z</time>
      </trkpt>
      <trkpt lat="59.9354036" lon="17.7392262">
        <ele>30.4188</ele>
        <time>2014-06-17T13:17:22Z</time>
      </trkpt>
      <trkpt lat="59.9354232" lon="17.7392439">
        <ele>30.8995</ele>
        <time>2014-06-17T13:17:23Z</time>
      </trkpt>
      <trkpt lat="59.9354467" lon="17.7392574">
        <ele>31.3801</ele>
        <time>2014-06-17T13:17:24Z</time>
      </trkpt>
      <trkpt lat="59.9354704" lon="17.7392735">
        <ele>31.8607</ele>
        <time>2014-06-17T13:17:25Z</time>
      </trkpt>
      <trkpt lat="59.9354926" lon="17.7392894">
        <ele>31.8607</ele>
        <time>2014-06-17T13:17:26Z</time>
      </trkpt>
      <trkpt lat="59.9355132" lon="17.7393041">
        <ele>32.3416</ele>
        <time>2014-06-17T13:17:27Z</time>
      </trkpt>
      <trkpt lat="59.9355336" lon="17.7393221">
        <ele>32.3416</ele>
        <time>2014-06-17T13:17:28Z</time>
      </trkpt>
      <trkpt lat="59.9355558" lon="17.7393408">
        <ele>32.8223</ele>
        <time>2014-06-17T13:17:29Z</time>
      </trkpt>
      <trkpt lat="59.9355779" lon="17.7393541">
        <ele>33.3029</ele>
        <time>2014-06-17T13:17:30Z</time>
      </trkpt>
      <trkpt lat="59.9355969" lon="17.73937">
        <ele>33.7834</ele>
        <time>2014-06-17T13:17:31Z</time>
      </trkpt>
      <trkpt lat="59.9356144" lon="17.7393893">
        <ele>33.7834</ele>
        <time>2014-06-17T13:17:32Z</time>
      </trkpt>
      <trkpt lat="59.935632" lon="17.7394097">
        <ele>33.7834</ele>
        <time>2014-06-17T13:17:33Z</time>
      </trkpt>
      <trkpt lat="59.9356497" lon="17.7394289">
        <ele>34.2642</ele>
        <time>2014-06-17T13:17:34Z</time>
      </trkpt>
      <trkpt lat="59.9356678" lon="17.7394505">
        <ele>34.7449</ele>
        <time>2014-06-17T13:17:35Z</time>
      </trkpt>
      <trkpt lat="59.9356865" lon="17.7394729">
        <ele>34.7449</ele>
        <time>2014-06-17T13:17:36Z</time>
      </trkpt>
      <trkpt lat="59.9357049" lon="17.7394869">
        <ele>34.7449</ele>
        <time>2014-06-17T13:17:37Z</time>
      </trkpt>
      <trkpt lat="59.9357241" lon="17.7394938">
        <ele>34.2642</ele>
        <time>2014-06-17T13:17:38Z</time>
      </trkpt>
      <trkpt lat="59.9357444" lon="17.739509">
        <ele>34.2642</ele>
        <time>2014-06-17T13:17:39Z</time>
      </trkpt>
      <trkpt lat="59.9357645" lon="17.7395345">
        <ele>34.7449</ele>
        <time>2014-06-17T13:17:40Z</time>
      </trkpt>
      <trkpt lat="59.9357831" lon="17.7395518">
        <ele>35.2255</ele>
        <time>2014-06-17T13:17:41Z</time>
      </trkpt>
      <trkpt lat="59.9358007" lon="17.7395593">
        <ele>35.2255</ele>
        <time>2014-06-17T13:17:42Z</time>
      </trkpt>
      <trkpt lat="59.935818" lon="17.7395667">
        <ele>35.2255</ele>
        <time>2014-06-17T13:17:43Z</time>
      </trkpt>
      <trkpt lat="59.9358335" lon="17.739576">
        <ele>35.7061</ele>
        <time>2014-06-17T13:17:44Z</time>
      </trkpt>
      <trkpt lat="59.9358484" lon="17.7395878">
        <ele>35.7061</ele>
        <time>2014-06-17T13:17:45Z</time>
      </trkpt>
      <trkpt lat="59.9358626" lon="17.7395982">
        <ele>35.7061</ele>
        <time>2014-06-17T13:17:46Z</time>
      </trkpt>
      <trkpt lat="59.9358813" lon="17.7395987">
        <ele>36.1868</ele>
        <time>2014-06-17T13:17:47Z</time>
      </trkpt>
      <trkpt lat="59.9359011" lon="17.7396041">
        <ele>35.7061</ele>
        <time>2014-06-17T13:17:48Z</time>
      </trkpt>
      <trkpt lat="59.93592" lon="17.7396149">
        <ele>35.2255</ele>
        <time>2014-06-17T13:17:49Z</time>
      </trkpt>
      <trkpt lat="59.9359384" lon="17.7396257">
        <ele>34.7449</ele>
        <time>2014-06-17T13:17:50Z</time>
      </trkpt>
      <trkpt lat="59.9359521" lon="17.7396339">
        <ele>34.2642</ele>
        <time>2014-06-17T13:17:51Z</time>
      </trkpt>
      <trkpt lat="59.9359677" lon="17.7396412">
        <ele>34.2642</ele>
        <time>2014-06-17T13:17:52Z</time>
      </trkpt>
      <trkpt lat="59.9359858" lon="17.7396515">
        <ele>33.3029</ele>
        <time>2014-06-17T13:17:53Z</time>
      </trkpt>
      <trkpt lat="59.9360065" lon="17.7396634">
        <ele>32.8223</ele>
        <time>2014-06-17T13:17:54Z</time>
      </trkpt>
      <trkpt lat="59.9360242" lon="17.7396713">
        <ele>32.3416</ele>
        <time>2014-06-17T13:17:55Z</time>
      </trkpt>
      <trkpt lat="59.9360426" lon="17.7396771">
        <ele>31.8607</ele>
        <time>2014-06-17T13:17:56Z</time>
      </trkpt>
      <trkpt lat="59.9360615" lon="17.7396889">
        <ele>31.3801</ele>
        <time>2014-06-17T13:17:57Z</time>
      </trkpt>
      <trkpt lat="59.9360804" lon="17.7397024">
        <ele>30.8995</ele>
        <time>2014-06-17T13:17:58Z</time>
      </trkpt>
      <trkpt lat="59.9360961" lon="17.7397097">
        <ele>29.9381</ele>
        <time>2014-06-17T13:17:59Z</time>
      </trkpt>
      <trkpt lat="59.936111" lon="17.7397137">
        <ele>28.4962</ele>
        <time>2014-06-17T13:18:00Z</time>
      </trkpt>
      <trkpt lat="59.9361294" lon="17.7397201">
        <ele>28.0155</ele>
        <time>2014-06-17T13:18:01Z</time>
      </trkpt>
      <trkpt lat="59.9361453" lon="17.7397383">
        <ele>27.0543</ele>
        <time>2014-06-17T13:18:02Z</time>
      </trkpt>
      <trkpt lat="59.9361591" lon="17.73976">
        <ele>26.5736</ele>
        <time>2014-06-17T13:18:03Z</time>
      </trkpt>
      <trkpt lat="59.9361727" lon="17.7397744">
        <ele>25.6123</ele>
        <time>2014-06-17T13:18:04Z</time>
      </trkpt>
      <trkpt lat="59.9361881" lon="17.7397853">
        <ele>25.1317</ele>
        <time>2014-06-17T13:18:05Z</time>
      </trkpt>
      <trkpt lat="59.936205" lon="17.7397983">
        <ele>24.651</ele>
        <time>2014-06-17T13:18:06Z</time>
      </trkpt>
      <trkpt lat="59.9362216" lon="17.7398123">
        <ele>24.1703</ele>
        <time>2014-06-17T13:18:07Z</time>
      </trkpt>
      <trkpt lat="59.9362386" lon="17.7398214">
        <ele>23.6896</ele>
        <time>2014-06-17T13:18:08Z</time>
      </trkpt>
      <trkpt lat="59.9362553" lon="17.7398288">
        <ele>22.7283</ele>
        <time>2014-06-17T13:18:09Z</time>
      </trkpt>
      <trkpt lat="59.9362718" lon="17.7398412">
        <ele>22.2476</ele>
        <time>2014-06-17T13:18:10Z</time>
      </trkpt>
      <trkpt lat="59.9362893" lon="17.7398519">
        <ele>21.767</ele>
        <time>2014-06-17T13:18:11Z</time>
      </trkpt>
      <trkpt lat="59.936307" lon="17.7398579">
        <ele>20.8057</ele>
        <time>2014-06-17T13:18:12Z</time>
      </trkpt>
      <trkpt lat="59.9363301" lon="17.739864">
        <ele>21.2864</ele>
        <time>2014-06-17T13:18:13Z</time>
      </trkpt>
      <trkpt lat="59.9363518" lon="17.739875">
        <ele>20.8057</ele>
        <time>2014-06-17T13:18:14Z</time>
      </trkpt>
      <trkpt lat="59.9363729" lon="17.7398853">
        <ele>21.2864</ele>
        <time>2014-06-17T13:18:15Z</time>
      </trkpt>
      <trkpt lat="59.9363949" lon="17.739895">
        <ele>21.2864</ele>
        <time>2014-06-17T13:18:16Z</time>
      </trkpt>
      <trkpt lat="59.9364183" lon="17.739907">
        <ele>21.2864</ele>
        <time>2014-06-17T13:18:17Z</time>
      </trkpt>
      <trkpt lat="59.9364417" lon="17.7399177">
        <ele>20.8057</ele>
        <time>2014-06-17T13:18:18Z</time>
      </trkpt>
      <trkpt lat="59.9364624" lon="17.7399262">
        <ele>20.8057</ele>
        <time>2014-06-17T13:18:19Z</time>
      </trkpt>
      <trkpt lat="59.936482" lon="17.7399376">
        <ele>20.8057</ele>
        <time>2014-06-17T13:18:20Z</time>
      </trkpt>
      <trkpt lat="59.9365024" lon="17.7399501">
        <ele>20.325</ele>
        <time>2014-06-17T13:18:21Z</time>
      </trkpt>
      <trkpt lat="59.9365218" lon="17.7399615">
        <ele>19.8444</ele>
        <time>2014-06-17T13:18:22Z</time>
      </trkpt>
      <trkpt lat="59.9365416" lon="17.7399729">
        <ele>19.8444</ele>
        <time>2014-06-17T13:18:23Z</time>
      </trkpt>
      <trkpt lat="59.9365621" lon="17.7399876">
        <ele>19.8444</ele>
        <time>2014-06-17T13:18:24Z</time>
      </trkpt>
      <trkpt lat="59.9365842" lon="17.7399982">
        <ele>19.8444</ele>
        <time>2014-06-17T13:18:25Z</time>
      </trkpt>
      <trkpt lat="59.9366053" lon="17.7400047">
        <ele>19.8444</ele>
        <time>2014-06-17T13:18:26Z</time>
      </trkpt>
      <trkpt lat="59.9366241" lon="17.7400158">
        <ele>19.8444</ele>
        <time>2014-06-17T13:18:27Z</time>
      </trkpt>
      <trkpt lat="59.9366437" lon="17.7400299">
        <ele>19.8444</ele>
        <time>2014-06-17T13:18:28Z</time>
      </trkpt>
      <trkpt lat="59.9366637" lon="17.7400408">
        <ele>19.8444</ele>
        <time>2014-06-17T13:18:29Z</time>
      </trkpt>
      <trkpt lat="59.9366837" lon="17.7400517">
        <ele>20.325</ele>
        <time>2014-06-17T13:18:30Z</time>
      </trkpt>
      <trkpt lat="59.9367028" lon="17.7400671">
        <ele>19.8444</ele>
        <time>2014-06-17T13:18:31Z</time>
      </trkpt>
      <trkpt lat="59.9367245" lon="17.7400809">
        <ele>19.3638</ele>
        <time>2014-06-17T13:18:32Z</time>
      </trkpt>
      <trkpt lat="59.9367462" lon="17.7400895">
        <ele>19.3638</ele>
        <time>2014-06-17T13:18:33Z</time>
      </trkpt>
      <trkpt lat="59.9367647" lon="17.7401003">
        <ele>19.3638</ele>
        <time>2014-06-17T13:18:34Z</time>
      </trkpt>
      <trkpt lat="59.936785" lon="17.7401147">
        <ele>19.8444</ele>
        <time>2014-06-17T13:18:35Z</time>
      </trkpt>
      <trkpt lat="59.9368057" lon="17.7401276">
        <ele>19.3638</ele>
        <time>2014-06-17T13:18:36Z</time>
      </trkpt>
      <trkpt lat="59.9368265" lon="17.7401375">
        <ele>19.8444</ele>
        <time>2014-06-17T13:18:37Z</time>
      </trkpt>
      <trkpt lat="59.9368462" lon="17.740149">
        <ele>19.8444</ele>
        <time>2014-06-17T13:18:38Z</time>
      </trkpt>
      <trkpt lat="59.9368669" lon="17.7401636">
        <ele>19.8444</ele>
        <time>2014-06-17T13:18:39Z</time>
      </trkpt>
      <trkpt lat="59.9368869" lon="17.7401748">
        <ele>19.8444</ele>
        <time>2014-06-17T13:18:40Z</time>
      </trkpt>
      <trkpt lat="59.9369047" lon="17.7401831">
        <ele>19.8444</ele>
        <time>2014-06-17T13:18:41Z</time>
      </trkpt>
      <trkpt lat="59.9369242" lon="17.7401941">
        <ele>19.8444</ele>
        <time>2014-06-17T13:18:42Z</time>
      </trkpt>
      <trkpt lat="59.9369418" lon="17.7402063">
        <ele>19.3638</ele>
        <time>2014-06-17T13:18:43Z</time>
      </trkpt>
      <trkpt lat="59.9369622" lon="17.7402153">
        <ele>19.8444</ele>
        <time>2014-06-17T13:18:44Z</time>
      </trkpt>
      <trkpt lat="59.9369822" lon="17.7402236">
        <ele>19.8444</ele>
        <time>2014-06-17T13:18:45Z</time>
      </trkpt>
      <trkpt lat="59.9370042" lon="17.7402313">
        <ele>19.8444</ele>
        <time>2014-06-17T13:18:46Z</time>
      </trkpt>
      <trkpt lat="59.9370228" lon="17.7402342">
        <ele>19.3638</ele>
        <time>2014-06-17T13:18:47Z</time>
      </trkpt>
      <trkpt lat="59.937038" lon="17.7402409">
        <ele>19.3638</ele>
        <time>2014-06-17T13:18:48Z</time>
      </trkpt>
      <trkpt lat="59.9370525" lon="17.7402531">
        <ele>18.8831</ele>
        <time>2014-06-17T13:18:49Z</time>
      </trkpt>
      <trkpt lat="59.9370672" lon="17.7402639">
        <ele>18.8831</ele>
        <time>2014-06-17T13:18:50Z</time>
      </trkpt>
      <trkpt lat="59.937085" lon="17.7402665">
        <ele>18.4023</ele>
        <time>2014-06-17T13:18:51Z</time>
      </trkpt>
      <trkpt lat="59.9371062" lon="17.7402659">
        <ele>17.9218</ele>
        <time>2014-06-17T13:18:52Z</time>
      </trkpt>
      <trkpt lat="59.9371233" lon="17.7402706">
        <ele>17.4412</ele>
        <time>2014-06-17T13:18:53Z</time>
      </trkpt>
      <trkpt lat="59.9371366" lon="17.7402801">
        <ele>17.4412</ele>
        <time>2014-06-17T13:18:54Z</time>
      </trkpt>
      <trkpt lat="59.9371506" lon="17.7402941">
        <ele>17.4412</ele>
        <time>2014-06-17T13:18:55Z</time>
      </trkpt>
      <trkpt lat="59.9371658" lon="17.7403106">
        <ele>17.4412</ele>
        <time>2014-06-17T13:18:56Z</time>
      </trkpt>
      <trkpt lat="59.9371819" lon="17.7403271">
        <ele>16.9604</ele>
        <time>2014-06-17T13:18:57Z</time>
      </trkpt>
      <trkpt lat="59.9371988" lon="17.7403381">
        <ele>16.9604</ele>
        <time>2014-06-17T13:18:58Z</time>
      </trkpt>
      <trkpt lat="59.9372196" lon="17.74035">
        <ele>17.4412</ele>
        <time>2014-06-17T13:18:59Z</time>
      </trkpt>
      <trkpt lat="59.9372388" lon="17.7403648">
        <ele>17.4412</ele>
        <time>2014-06-17T13:19:00Z</time>
      </trkpt>
      <trkpt lat="59.9372535" lon="17.7403783">
        <ele>17.4412</ele>
        <time>2014-06-17T13:19:01Z</time>
      </trkpt>
      <trkpt lat="59.9372674" lon="17.7403888">
        <ele>17.4412</ele>
        <time>2014-06-17T13:19:02Z</time>
      </trkpt>
      <trkpt lat="59.9372856" lon="17.740402">
        <ele>17.4412</ele>
        <time>2014-06-17T13:19:03Z</time>
      </trkpt>
      <trkpt lat="59.9373037" lon="17.740414">
        <ele>16.9604</ele>
        <time>2014-06-17T13:19:04Z</time>
      </trkpt>
      <trkpt lat="59.9373222" lon="17.7404224">
        <ele>16.9604</ele>
        <time>2014-06-17T13:19:05Z</time>
      </trkpt>
      <trkpt lat="59.9373491" lon="17.7404295">
        <ele>18.4023</ele>
        <time>2014-06-17T13:19:06Z</time>
      </trkpt>
      <trkpt lat="59.9373751" lon="17.7404393">
        <ele>19.8444</ele>
        <time>2014-06-17T13:19:07Z</time>
      </trkpt>
      <trkpt lat="59.9374004" lon="17.7404425">
        <ele>20.8057</ele>
        <time>2014-06-17T13:19:08Z</time>
      </trkpt>
      <trkpt lat="59.9374203" lon="17.7404435">
        <ele>20.8057</ele>
        <time>2014-06-17T13:19:09Z</time>
      </trkpt>
      <trkpt lat="59.93744" lon="17.7404478">
        <ele>20.325</ele>
        <time>2014-06-17T13:19:10Z</time>
      </trkpt>
      <trkpt lat="59.9374609" lon="17.740453">
        <ele>19.8444</ele>
        <time>2014-06-17T13:19:11Z</time>
      </trkpt>
      <trkpt lat="59.9374828" lon="17.7404541">
        <ele>19.3638</ele>
        <time>2014-06-17T13:19:12Z</time>
      </trkpt>
      <trkpt lat="59.937504" lon="17.7404515">
        <ele>19.3638</ele>
        <time>2014-06-17T13:19:13Z</time>
      </trkpt>
      <trkpt lat="59.9375227" lon="17.7404549">
        <ele>18.8831</ele>
        <time>2014-06-17T13:19:14Z</time>
      </trkpt>
      <trkpt lat="59.9375414" lon="17.7404654">
        <ele>18.8831</ele>
        <time>2014-06-17T13:19:15Z</time>
      </trkpt>
      <trkpt lat="59.9375588" lon="17.7404764">
        <ele>18.4023</ele>
        <time>2014-06-17T13:19:16Z</time>
      </trkpt>
      <trkpt lat="59.9375764" lon="17.7404834">
        <ele>18.4023</ele>
        <time>2014-06-17T13:19:17Z</time>
      </trkpt>
      <trkpt lat="59.9375957" lon="17.7404891">
        <ele>18.4023</ele>
        <time>2014-06-17T13:19:18Z</time>
      </trkpt>
      <trkpt lat="59.9376152" lon="17.7404969">
        <ele>18.4023</ele>
        <time>2014-06-17T13:19:19Z</time>
      </trkpt>
      <trkpt lat="59.9376337" lon="17.7405062">
        <ele>18.4023</ele>
        <time>2014-06-17T13:19:20Z</time>
      </trkpt>
      <trkpt lat="59.9376534" lon="17.740511">
        <ele>17.9218</ele>
        <time>2014-06-17T13:19:21Z</time>
      </trkpt>
      <trkpt lat="59.9376717" lon="17.7405141">
        <ele>17.4412</ele>
        <time>2014-06-17T13:19:22Z</time>
      </trkpt>
      <trkpt lat="59.9376906" lon="17.7405222">
        <ele>17.4412</ele>
        <time>2014-06-17T13:19:23Z</time>
      </trkpt>
      <trkpt lat="59.9377056" lon="17.7405396">
        <ele>17.4412</ele>
        <time>2014-06-17T13:19:24Z</time>
      </trkpt>
      <trkpt lat="59.9377195" lon="17.7405557">
        <ele>16.9604</ele>
        <time>2014-06-17T13:19:25Z</time>
      </trkpt>
      <trkpt lat="59.9377352" lon="17.7405668">
        <ele>17.4412</ele>
        <time>2014-06-17T13:19:26Z</time>
      </trkpt>
      <trkpt lat="59.9377506" lon="17.7405754">
        <ele>17.4412</ele>
        <time>2014-06-17T13:19:27Z</time>
      </trkpt>
      <trkpt lat="59.9377678" lon="17.7405868">
        <ele>17.4412</ele>
        <time>2014-06-17T13:19:28Z</time>
      </trkpt>
      <trkpt lat="59.9377874" lon="17.7406005">
        <ele>17.4412</ele>
        <time>2014-06-17T13:19:29Z</time>
      </trkpt>
      <trkpt lat="59.9378048" lon="17.7406079">
        <ele>16.9604</ele>
        <time>2014-06-17T13:19:30Z</time>
      </trkpt>
      <trkpt lat="59.9378263" lon="17.7406115">
        <ele>16.9604</ele>
        <time>2014-06-17T13:19:31Z</time>
      </trkpt>
      <trkpt lat="59.9378463" lon="17.7406201">
        <ele>16.9604</ele>
        <time>2014-06-17T13:19:32Z</time>
      </trkpt>
      <trkpt lat="59.9378671" lon="17.7406254">
        <ele>16.4797</ele>
        <time>2014-06-17T13:19:33Z</time>
      </trkpt>
      <trkpt lat="59.9378868" lon="17.7406261">
        <ele>15.999</ele>
        <time>2014-06-17T13:19:34Z</time>
      </trkpt>
      <trkpt lat="59.9379164" lon="17.7406181">
        <ele>17.9218</ele>
        <time>2014-06-17T13:19:35Z</time>
      </trkpt>
      <trkpt lat="59.9379362" lon="17.7406239">
        <ele>17.9218</ele>
        <time>2014-06-17T13:19:36Z</time>
      </trkpt>
      <trkpt lat="59.9379547" lon="17.7406348">
        <ele>17.4412</ele>
        <time>2014-06-17T13:19:37Z</time>
      </trkpt>
      <trkpt lat="59.9379708" lon="17.7406437">
        <ele>17.4412</ele>
        <time>2014-06-17T13:19:38Z</time>
      </trkpt>
      <trkpt lat="59.9379894" lon="17.7406504">
        <ele>17.4412</ele>
        <time>2014-06-17T13:19:39Z</time>
      </trkpt>
      <trkpt lat="59.938011" lon="17.740656">
        <ele>17.4412</ele>
        <time>2014-06-17T13:19:40Z</time>
      </trkpt>
      <trkpt lat="59.9380331" lon="17.7406601">
        <ele>16.9604</ele>
        <time>2014-06-17T13:19:41Z</time>
      </trkpt>
      <trkpt lat="59.9380541" lon="17.7406622">
        <ele>16.9604</ele>
        <time>2014-06-17T13:19:42Z</time>
      </trkpt>
      <trkpt lat="59.9380723" lon="17.7406693">
        <ele>16.9604</ele>
        <time>2014-06-17T13:19:43Z</time>
      </trkpt>
      <trkpt lat="59.9380914" lon="17.7406821">
        <ele>16.9604</ele>
        <time>2014-06-17T13:19:44Z</time>
      </trkpt>
      <trkpt lat="59.9381087" lon="17.7407026">
        <ele>17.4412</ele>
        <time>2014-06-17T13:19:45Z</time>
      </trkpt>
      <trkpt lat="59.938125" lon="17.7407253">
        <ele>17.4412</ele>
        <time>2014-06-17T13:19:46Z</time>
      </trkpt>
      <trkpt lat="59.9381421" lon="17.7407451">
        <ele>17.9218</ele>
        <time>2014-06-17T13:19:47Z</time>
      </trkpt>
      <trkpt lat="59.9381614" lon="17.7407519">
        <ele>18.4023</ele>
        <time>2014-06-17T13:19:48Z</time>
      </trkpt>
      <trkpt lat="59.9381849" lon="17.740747">
        <ele>18.4023</ele>
        <time>2014-06-17T13:19:49Z</time>
      </trkpt>
      <trkpt lat="59.9382055" lon="17.740743">
        <ele>17.9218</ele>
        <time>2014-06-17T13:19:50Z</time>
      </trkpt>
      <trkpt lat="59.9382258" lon="17.7407357">
        <ele>18.4023</ele>
        <time>2014-06-17T13:19:51Z</time>
      </trkpt>
      <trkpt lat="59.9382479" lon="17.7407346">
        <ele>18.8831</ele>
        <time>2014-06-17T13:19:52Z</time>
      </trkpt>
      <trkpt lat="59.9382701" lon="17.7407455">
        <ele>19.3638</ele>
        <time>2014-06-17T13:19:53Z</time>
      </trkpt>
      <trkpt lat="59.9382907" lon="17.7407545">
        <ele>19.8444</ele>
        <time>2014-06-17T13:19:54Z</time>
      </trkpt>
      <trkpt lat="59.9383105" lon="17.740761">
        <ele>19.8444</ele>
        <time>2014-06-17T13:19:55Z</time>
      </trkpt>
      <trkpt lat="59.9383319" lon="17.7407679">
        <ele>20.325</ele>
        <time>2014-06-17T13:19:56Z</time>
      </trkpt>
      <trkpt lat="59.9383535" lon="17.7407755">
        <ele>20.8057</ele>
        <time>2014-06-17T13:19:57Z</time>
      </trkpt>
      <trkpt lat="59.9383717" lon="17.7407825">
        <ele>21.2864</ele>
        <time>2014-06-17T13:19:58Z</time>
      </trkpt>
      <trkpt lat="59.9383917" lon="17.7407885">
        <ele>21.2864</ele>
        <time>2014-06-17T13:19:59Z</time>
      </trkpt>
      <trkpt lat="59.938413" lon="17.7407976">
        <ele>22.2476</ele>
        <time>2014-06-17T13:20:00Z</time>
      </trkpt>
      <trkpt lat="59.9384304" lon="17.7408089">
        <ele>22.2476</ele>
        <time>2014-06-17T13:20:01Z</time>
      </trkpt>
      <trkpt lat="59.9384472" lon="17.7408187">
        <ele>22.7283</ele>
        <time>2014-06-17T13:20:02Z</time>
      </trkpt>
      <trkpt lat="59.9384651" lon="17.7408287">
        <ele>23.209</ele>
        <time>2014-06-17T13:20:03Z</time>
      </trkpt>
      <trkpt lat="59.9384846" lon="17.7408269">
        <ele>23.6896</ele>
        <time>2014-06-17T13:20:04Z</time>
      </trkpt>
      <trkpt lat="59.9385064" lon="17.7408147">
        <ele>23.6896</ele>
        <time>2014-06-17T13:20:05Z</time>
      </trkpt>
      <trkpt lat="59.9385272" lon="17.7408067">
        <ele>23.209</ele>
        <time>2014-06-17T13:20:06Z</time>
      </trkpt>
      <trkpt lat="59.9385498" lon="17.7408014">
        <ele>22.7283</ele>
        <time>2014-06-17T13:20:07Z</time>
      </trkpt>
      <trkpt lat="59.9385733" lon="17.740798">
        <ele>22.7283</ele>
        <time>2014-06-17T13:20:08Z</time>
      </trkpt>
      <trkpt lat="59.9385929" lon="17.7407917">
        <ele>22.2476</ele>
        <time>2014-06-17T13:20:09Z</time>
      </trkpt>
      <trkpt lat="59.9386142" lon="17.740784">
        <ele>21.767</ele>
        <time>2014-06-17T13:20:10Z</time>
      </trkpt>
      <trkpt lat="59.9386339" lon="17.7407836">
        <ele>21.767</ele>
        <time>2014-06-17T13:20:11Z</time>
      </trkpt>
      <trkpt lat="59.9386535" lon="17.7407839">
        <ele>21.767</ele>
        <time>2014-06-17T13:20:12Z</time>
      </trkpt>
      <trkpt lat="59.9386753" lon="17.74078">
        <ele>21.767</ele>
        <time>2014-06-17T13:20:13Z</time>
      </trkpt>
      <trkpt lat="59.938696" lon="17.7407753">
        <ele>21.767</ele>
        <time>2014-06-17T13:20:14Z</time>
      </trkpt>
      <trkpt lat="59.9387148" lon="17.7407803">
        <ele>21.767</ele>
        <time>2014-06-17T13:20:15Z</time>
      </trkpt>
      <trkpt lat="59.9387364" lon="17.7407856">
        <ele>22.2476</ele>
        <time>2014-06-17T13:20:16Z</time>
      </trkpt>
      <trkpt lat="59.9387578" lon="17.740787">
        <ele>22.7283</ele>
        <time>2014-06-17T13:20:17Z</time>
      </trkpt>
      <trkpt lat="59.9387806" lon="17.7407831">
        <ele>22.7283</ele>
        <time>2014-06-17T13:20:18Z</time>
      </trkpt>
      <trkpt lat="59.9388056" lon="17.7407787">
        <ele>23.209</ele>
        <time>2014-06-17T13:20:19Z</time>
      </trkpt>
      <trkpt lat="59.9388305" lon="17.7407724">
        <ele>23.6896</ele>
        <time>2014-06-17T13:20:20Z</time>
      </trkpt>
      <trkpt lat="59.9388556" lon="17.7407639">
        <ele>24.1703</ele>
        <time>2014-06-17T13:20:21Z</time>
      </trkpt>
      <trkpt lat="59.9388773" lon="17.7407631">
        <ele>23.6896</ele>
        <time>2014-06-17T13:20:22Z</time>
      </trkpt>
      <trkpt lat="59.9388987" lon="17.7407642">
        <ele>23.6896</ele>
        <time>2014-06-17T13:20:23Z</time>
      </trkpt>
      <trkpt lat="59.9389184" lon="17.7407631">
        <ele>23.6896</ele>
        <time>2014-06-17T13:20:24Z</time>
      </trkpt>
      <trkpt lat="59.93894" lon="17.7407566">
        <ele>23.6896</ele>
        <time>2014-06-17T13:20:25Z</time>
      </trkpt>
      <trkpt lat="59.9389645" lon="17.7407497">
        <ele>23.209</ele>
        <time>2014-06-17T13:20:26Z</time>
      </trkpt>
      <trkpt lat="59.9389903" lon="17.7407395">
        <ele>23.6896</ele>
        <time>2014-06-17T13:20:27Z</time>
      </trkpt>
      <trkpt lat="59.9390132" lon="17.7407305">
        <ele>23.209</ele>
        <time>2014-06-17T13:20:28Z</time>
      </trkpt>
      <trkpt lat="59.9390348" lon="17.7407281">
        <ele>23.6896</ele>
        <time>2014-06-17T13:20:29Z</time>
      </trkpt>
      <trkpt lat="59.9390539" lon="17.7407256">
        <ele>23.6896</ele>
        <time>2014-06-17T13:20:30Z</time>
      </trkpt>
      <trkpt lat="59.9390725" lon="17.7407186">
        <ele>23.6896</ele>
        <time>2014-06-17T13:20:31Z</time>
      </trkpt>
      <trkpt lat="59.9390923" lon="17.7407139">
        <ele>24.1703</ele>
        <time>2014-06-17T13:20:32Z</time>
      </trkpt>
      <trkpt lat="59.9391135" lon="17.7407176">
        <ele>24.651</ele>
        <time>2014-06-17T13:20:33Z</time>
      </trkpt>
      <trkpt lat="59.9391323" lon="17.7407199">
        <ele>25.1317</ele>
        <time>2014-06-17T13:20:34Z</time>
      </trkpt>
      <trkpt lat="59.9391493" lon="17.740717">
        <ele>25.1317</ele>
        <time>2014-06-17T13:20:35Z</time>
      </trkpt>
      <trkpt lat="59.9391679" lon="17.7407177">
        <ele>25.6123</ele>
        <time>2014-06-17T13:20:36Z</time>
      </trkpt>
      <trkpt lat="59.9391871" lon="17.7407219">
        <ele>26.0929</ele>
        <time>2014-06-17T13:20:37Z</time>
      </trkpt>
      <trkpt lat="59.9392067" lon="17.7407266">
        <ele>26.5736</ele>
        <time>2014-06-17T13:20:38Z</time>
      </trkpt>
      <trkpt lat="59.9392269" lon="17.7407303">
        <ele>27.0543</ele>
        <time>2014-06-17T13:20:39Z</time>
      </trkpt>
      <trkpt lat="59.9392491" lon="17.7407291">
        <ele>27.0543</ele>
        <time>2014-06-17T13:20:40Z</time>
      </trkpt>
      <trkpt lat="59.9392711" lon="17.7407253">
        <ele>27.5349</ele>
        <time>2014-06-17T13:20:41Z</time>
      </trkpt>
      <trkpt lat="59.93929" lon="17.7407248">
        <ele>28.4962</ele>
        <time>2014-06-17T13:20:42Z</time>
      </trkpt>
      <trkpt lat="59.9393099" lon="17.7407246">
        <ele>28.4962</ele>
        <time>2014-06-17T13:20:43Z</time>
      </trkpt>
      <trkpt lat="59.9393327" lon="17.740726">
        <ele>28.9769</ele>
        <time>2014-06-17T13:20:44Z</time>
      </trkpt>
      <trkpt lat="59.9393539" lon="17.7407237">
        <ele>29.9381</ele>
        <time>2014-06-17T13:20:45Z</time>
      </trkpt>
      <trkpt lat="59.9393731" lon="17.7407188">
        <ele>29.9381</ele>
        <time>2014-06-17T13:20:46Z</time>
      </trkpt>
      <trkpt lat="59.9393931" lon="17.740715">
        <ele>30.4188</ele>
        <time>2014-06-17T13:20:47Z</time>
      </trkpt>
      <trkpt lat="59.9394138" lon="17.7407144">
        <ele>30.8995</ele>
        <time>2014-06-17T13:20:48Z</time>
      </trkpt>
      <trkpt lat="59.9394342" lon="17.740712">
        <ele>31.3801</ele>
        <time>2014-06-17T13:20:49Z</time>
      </trkpt>
      <trkpt lat="59.9394552" lon="17.7407062">
        <ele>32.3416</ele>
        <time>2014-06-17T13:20:50Z</time>
      </trkpt>
      <trkpt lat="59.9394761" lon="17.7407038">
        <ele>32.8223</ele>
        <time>2014-06-17T13:20:51Z</time>
      </trkpt>
      <trkpt lat="59.9394958" lon="17.7407048">
        <ele>33.7834</ele>
        <time>2014-06-17T13:20:52Z</time>
      </trkpt>
      <trkpt lat="59.9395132" lon="17.7407058">
        <ele>34.2642</ele>
        <time>2014-06-17T13:20:53Z</time>
      </trkpt>
      <trkpt lat="59.939532" lon="17.7407012">
        <ele>34.7449</ele>
        <time>2014-06-17T13:20:54Z</time>
      </trkpt>
      <trkpt lat="59.9395508" lon="17.7407031">
        <ele>35.7061</ele>
        <time>2014-06-17T13:20:55Z</time>
      </trkpt>
      <trkpt lat="59.9395689" lon="17.7407037">
        <ele>36.1868</ele>
        <time>2014-06-17T13:20:56Z</time>
      </trkpt>
      <trkpt lat="59.939587" lon="17.7406979">
        <ele>36.6675</ele>
        <time>2014-06-17T13:20:57Z</time>
      </trkpt>
      <trkpt lat="59.9396055" lon="17.7406948">
        <ele>37.1481</ele>
        <time>2014-06-17T13:20:58Z</time>
      </trkpt>
      <trkpt lat="59.9396254" lon="17.7406948">
        <ele>37.6287</ele>
        <time>2014-06-17T13:20:59Z</time>
      </trkpt>
      <trkpt lat="59.9396455" lon="17.740693">
        <ele>38.1094</ele>
        <time>2014-06-17T13:21:00Z</time>
      </trkpt>
      <trkpt lat="59.9396661" lon="17.7406882">
        <ele>38.5901</ele>
        <time>2014-06-17T13:21:01Z</time>
      </trkpt>
      <trkpt lat="59.939687" lon="17.7406812">
        <ele>39.0707</ele>
        <time>2014-06-17T13:21:02Z</time>
      </trkpt>
      <trkpt lat="59.9397092" lon="17.7406763">
        <ele>40.0321</ele>
        <time>2014-06-17T13:21:03Z</time>
      </trkpt>
      <trkpt lat="59.9397314" lon="17.7406702">
        <ele>40.5128</ele>
        <time>2014-06-17T13:21:04Z</time>
      </trkpt>
      <trkpt lat="59.9397528" lon="17.7406576">
        <ele>40.9934</ele>
        <time>2014-06-17T13:21:05Z</time>
      </trkpt>
      <trkpt lat="59.9397733" lon="17.7406466">
        <ele>41.474</ele>
        <time>2014-06-17T13:21:06Z</time>
      </trkpt>
      <trkpt lat="59.9397931" lon="17.7406396">
        <ele>41.9547</ele>
        <time>2014-06-17T13:21:07Z</time>
      </trkpt>
      <trkpt lat="59.9398117" lon="17.7406307">
        <ele>42.4354</ele>
        <time>2014-06-17T13:21:08Z</time>
      </trkpt>
      <trkpt lat="59.939832" lon="17.7406207">
        <ele>42.916</ele>
        <time>2014-06-17T13:21:09Z</time>
      </trkpt>
      <trkpt lat="59.9398537" lon="17.7406172">
        <ele>43.3966</ele>
        <time>2014-06-17T13:21:10Z</time>
      </trkpt>
      <trkpt lat="59.9398714" lon="17.7406141">
        <ele>43.8773</ele>
        <time>2014-06-17T13:21:11Z</time>
      </trkpt>
      <trkpt lat="59.9398867" lon="17.7406101">
        <ele>44.358</ele>
        <time>2014-06-17T13:21:12Z</time>
      </trkpt>
      <trkpt lat="59.9399033" lon="17.7406027">
        <ele>44.8386</ele>
        <time>2014-06-17T13:21:13Z</time>
      </trkpt>
      <trkpt lat="59.9399211" lon="17.7405999">
        <ele>44.8386</ele>
        <time>2014-06-17T13:21:14Z</time>
      </trkpt>
      <trkpt lat="59.9399429" lon="17.7405975">
        <ele>45.3192</ele>
        <time>2014-06-17T13:21:15Z</time>
      </trkpt>
      <trkpt lat="59.9399626" lon="17.7405938">
        <ele>45.7999</ele>
        <time>2014-06-17T13:21:16Z</time>
      </trkpt>
      <trkpt lat="59.9399787" lon="17.7405939">
        <ele>45.7999</ele>
        <time>2014-06-17T13:21:17Z</time>
      </trkpt>
      <trkpt lat="59.9399986" lon="17.7405942">
        <ele>46.2806</ele>
        <time>2014-06-17T13:21:18Z</time>
      </trkpt>
      <trkpt lat="59.9400257" lon="17.7405914">
        <ele>46.2806</ele>
        <time>2014-06-17T13:21:19Z</time>
      </trkpt>
      <trkpt lat="59.9400504" lon="17.7405846">
        <ele>47.2418</ele>
        <time>2014-06-17T13:21:20Z</time>
      </trkpt>
      <trkpt lat="59.9400708" lon="17.7405719">
        <ele>47.2418</ele>
        <time>2014-06-17T13:21:21Z</time>
      </trkpt>
      <trkpt lat="59.940089" lon="17.740551">
        <ele>47.2418</ele>
        <time>2014-06-17T13:21:22Z</time>
      </trkpt>
      <trkpt lat="59.9401102" lon="17.7405222">
        <ele>48.684</ele>
        <time>2014-06-17T13:21:23Z</time>
      </trkpt>
      <trkpt lat="59.9401287" lon="17.7405038">
        <ele>49.1646</ele>
        <time>2014-06-17T13:21:24Z</time>
      </trkpt>
      <trkpt lat="59.9401538" lon="17.7404769">
        <ele>50.6066</ele>
        <time>2014-06-17T13:21:25Z</time>
      </trkpt>
      <trkpt lat="59.940178" lon="17.7404516">
        <ele>52.5292</ele>
        <time>2014-06-17T13:21:26Z</time>
      </trkpt>
      <trkpt lat="59.9401996" lon="17.7404343">
        <ele>53.0098</ele>
        <time>2014-06-17T13:21:27Z</time>
      </trkpt>
      <trkpt lat="59.940224" lon="17.7404116">
        <ele>54.4518</ele>
        <time>2014-06-17T13:21:28Z</time>
      </trkpt>
      <trkpt lat="59.9402376" lon="17.7403783">
        <ele>54.9324</ele>
        <time>2014-06-17T13:21:29Z</time>
      </trkpt>
      <trkpt lat="59.9402573" lon="17.7403513">
        <ele>55.4131</ele>
        <time>2014-06-17T13:21:30Z</time>
      </trkpt>
      <trkpt lat="59.9402776" lon="17.7403057">
        <ele>56.8551</ele>
        <time>2014-06-17T13:21:31Z</time>
      </trkpt>
      <trkpt lat="59.9402939" lon="17.7402687">
        <ele>57.8165</ele>
        <time>2014-06-17T13:21:32Z</time>
      </trkpt>
      <trkpt lat="59.9403107" lon="17.740252">
        <ele>58.7777</ele>
        <time>2014-06-17T13:21:33Z</time>
      </trkpt>
      <trkpt lat="59.9403256" lon="17.7402378">
        <ele>58.7777</ele>
        <time>2014-06-17T13:21:34Z</time>
      </trkpt>
      <trkpt lat="59.9403469" lon="17.7402254">
        <ele>58.7777</ele>
        <time>2014-06-17T13:21:35Z</time>
      </trkpt>
      <trkpt lat="59.9403713" lon="17.7402133">
        <ele>59.2584</ele>
        <time>2014-06-17T13:21:36Z</time>
      </trkpt>
      <trkpt lat="59.9403947" lon="17.7401922">
        <ele>60.2197</ele>
        <time>2014-06-17T13:21:37Z</time>
      </trkpt>
      <trkpt lat="59.9404188" lon="17.7401625">
        <ele>61.6617</ele>
        <time>2014-06-17T13:21:38Z</time>
      </trkpt>
      <trkpt lat="59.9404386" lon="17.7401329">
        <ele>62.6229</ele>
        <time>2014-06-17T13:21:39Z</time>
      </trkpt>
      <trkpt lat="59.9404574" lon="17.7400903">
        <ele>64.5457</ele>
        <time>2014-06-17T13:21:40Z</time>
      </trkpt>
      <trkpt lat="59.9404752" lon="17.740049">
        <ele>65.9877</ele>
        <time>2014-06-17T13:21:41Z</time>
      </trkpt>
      <trkpt lat="59.9404884" lon="17.7400078">
        <ele>66.4683</ele>
        <time>2014-06-17T13:21:42Z</time>
      </trkpt>
      <trkpt lat="59.9405022" lon="17.7399728">
        <ele>66.949</ele>
        <time>2014-06-17T13:21:43Z</time>
      </trkpt>
      <trkpt lat="59.9405204" lon="17.7399335">
        <ele>68.3909</ele>
        <time>2014-06-17T13:21:44Z</time>
      </trkpt>
      <trkpt lat="59.9405365" lon="17.7398996">
        <ele>69.3523</ele>
        <time>2014-06-17T13:21:45Z</time>
      </trkpt>
      <trkpt lat="59.9405547" lon="17.7398661">
        <ele>69.8329</ele>
        <time>2014-06-17T13:21:46Z</time>
      </trkpt>
      <trkpt lat="59.9405723" lon="17.7398253">
        <ele>71.2749</ele>
        <time>2014-06-17T13:21:47Z</time>
      </trkpt>
      <trkpt lat="59.9405922" lon="17.7397925">
        <ele>72.2362</ele>
        <time>2014-06-17T13:21:48Z</time>
      </trkpt>
      <trkpt lat="59.9406101" lon="17.7397698">
        <ele>72.2362</ele>
        <time>2014-06-17T13:21:49Z</time>
      </trkpt>
      <trkpt lat="59.940626" lon="17.7397459">
        <ele>72.2362</ele>
        <time>2014-06-17T13:21:50Z</time>
      </trkpt>
      <trkpt lat="59.9406427" lon="17.7397136">
        <ele>73.1976</ele>
        <time>2014-06-17T13:21:51Z</time>
      </trkpt>
      <trkpt lat="59.94065" lon="17.7396893">
        <ele>71.7555</ele>
        <time>2014-06-17T13:21:52Z</time>
      </trkpt>
      <trkpt lat="59.9406531" lon="17.7396641">
        <ele>70.3135</ele>
        <time>2014-06-17T13:21:53Z</time>
      </trkpt>
      <trkpt lat="59.940653" lon="17.7396546">
        <ele>68.3909</ele>
        <time>2014-06-17T13:21:54Z</time>
      </trkpt>
      <trkpt lat="59.9406591" lon="17.7396428">
        <ele>67.4297</ele>
        <time>2014-06-17T13:21:55Z</time>
      </trkpt>
      <trkpt lat="59.9406685" lon="17.7396365">
        <ele>65.9877</ele>
        <time>2014-06-17T13:21:56Z</time>
      </trkpt>
      <trkpt lat="59.9406819" lon="17.7396294">
        <ele>64.5457</ele>
        <time>2014-06-17T13:21:57Z</time>
      </trkpt>
      <trkpt lat="59.9406964" lon="17.73963">
        <ele>63.5844</ele>
        <time>2014-06-17T13:21:58Z</time>
      </trkpt>
      <trkpt lat="59.9407142" lon="17.7396356">
        <ele>63.1036</ele>
        <time>2014-06-17T13:21:59Z</time>
      </trkpt>
      <trkpt lat="59.9407295" lon="17.7396532">
        <ele>62.6229</ele>
        <time>2014-06-17T13:22:00Z</time>
      </trkpt>
      <trkpt lat="59.9407428" lon="17.7396714">
        <ele>61.6617</ele>
        <time>2014-06-17T13:22:01Z</time>
      </trkpt>
      <trkpt lat="59.9407588" lon="17.7396839">
        <ele>61.181</ele>
        <time>2014-06-17T13:22:02Z</time>
      </trkpt>
      <trkpt lat="59.9407742" lon="17.7396908">
        <ele>60.2197</ele>
        <time>2014-06-17T13:22:03Z</time>
      </trkpt>
      <trkpt lat="59.9407891" lon="17.7397024">
        <ele>59.2584</ele>
        <time>2014-06-17T13:22:04Z</time>
      </trkpt>
      <trkpt lat="59.9408017" lon="17.7397224">
        <ele>58.2971</ele>
        <time>2014-06-17T13:22:05Z</time>
      </trkpt>
      <trkpt lat="59.9408116" lon="17.7397475">
        <ele>57.8165</ele>
        <time>2014-06-17T13:22:06Z</time>
      </trkpt>
      <trkpt lat="59.940828" lon="17.7397729">
        <ele>56.3745</ele>
        <time>2014-06-17T13:22:07Z</time>
      </trkpt>
      <trkpt lat="59.9408462" lon="17.7397903">
        <ele>55.4131</ele>
        <time>2014-06-17T13:22:08Z</time>
      </trkpt>
      <trkpt lat="59.9408618" lon="17.739802">
        <ele>55.4131</ele>
        <time>2014-06-17T13:22:09Z</time>
      </trkpt>
      <trkpt lat="59.9408753" lon="17.7398117">
        <ele>54.9324</ele>
        <time>2014-06-17T13:22:10Z</time>
      </trkpt>
      <trkpt lat="59.9408929" lon="17.7398252">
        <ele>54.9324</ele>
        <time>2014-06-17T13:22:11Z</time>
      </trkpt>
      <trkpt lat="59.9409094" lon="17.7398436">
        <ele>54.9324</ele>
        <time>2014-06-17T13:22:12Z</time>
      </trkpt>
      <trkpt lat="59.9409224" lon="17.7398744">
        <ele>54.9324</ele>
        <time>2014-06-17T13:22:13Z</time>
      </trkpt>
      <trkpt lat="59.9409365" lon="17.7398997">
        <ele>55.4131</ele>
        <time>2014-06-17T13:22:14Z</time>
      </trkpt>
      <trkpt lat="59.9409572" lon="17.739912">
        <ele>54.9324</ele>
        <time>2014-06-17T13:22:15Z</time>
      </trkpt>
      <trkpt lat="59.9409789" lon="17.7399215">
        <ele>54.4518</ele>
        <time>2014-06-17T13:22:16Z</time>
      </trkpt>
      <trkpt lat="59.940997" lon="17.739936">
        <ele>53.9712</ele>
        <time>2014-06-17T13:22:17Z</time>
      </trkpt>
      <trkpt lat="59.9410209" lon="17.7399477">
        <ele>53.9712</ele>
        <time>2014-06-17T13:22:18Z</time>
      </trkpt>
      <trkpt lat="59.941042" lon="17.7399628">
        <ele>53.4905</ele>
        <time>2014-06-17T13:22:19Z</time>
      </trkpt>
      <trkpt lat="59.9410586" lon="17.7399776">
        <ele>53.0098</ele>
        <time>2014-06-17T13:22:20Z</time>
      </trkpt>
      <trkpt lat="59.9410809" lon="17.739994">
        <ele>53.4905</ele>
        <time>2014-06-17T13:22:21Z</time>
      </trkpt>
      <trkpt lat="59.9410964" lon="17.7400132">
        <ele>52.5292</ele>
        <time>2014-06-17T13:22:22Z</time>
      </trkpt>
      <trkpt lat="59.9411158" lon="17.7400254">
        <ele>52.5292</ele>
        <time>2014-06-17T13:22:23Z</time>
      </trkpt>
      <trkpt lat="59.9411372" lon="17.7400353">
        <ele>52.5292</ele>
        <time>2014-06-17T13:22:24Z</time>
      </trkpt>
      <trkpt lat="59.9411586" lon="17.7400396">
        <ele>52.5292</ele>
        <time>2014-06-17T13:22:25Z</time>
      </trkpt>
      <trkpt lat="59.9411766" lon="17.7400416">
        <ele>53.0098</ele>
        <time>2014-06-17T13:22:26Z</time>
      </trkpt>
      <trkpt lat="59.9411943" lon="17.7400436">
        <ele>52.5292</ele>
        <time>2014-06-17T13:22:27Z</time>
      </trkpt>
      <trkpt lat="59.9412094" lon="17.7400386">
        <ele>52.5292</ele>
        <time>2014-06-17T13:22:28Z</time>
      </trkpt>
      <trkpt lat="59.9412287" lon="17.7400267">
        <ele>52.0486</ele>
        <time>2014-06-17T13:22:29Z</time>
      </trkpt>
      <trkpt lat="59.9412489" lon="17.7400131">
        <ele>51.0872</ele>
        <time>2014-06-17T13:22:30Z</time>
      </trkpt>
      <trkpt lat="59.9412668" lon="17.739999">
        <ele>50.6066</ele>
        <time>2014-06-17T13:22:31Z</time>
      </trkpt>
      <trkpt lat="59.941282" lon="17.7399967">
        <ele>50.126</ele>
        <time>2014-06-17T13:22:32Z</time>
      </trkpt>
      <trkpt lat="59.9413026" lon="17.7399903">
        <ele>50.126</ele>
        <time>2014-06-17T13:22:33Z</time>
      </trkpt>
      <trkpt lat="59.9413149" lon="17.7399859">
        <ele>49.6453</ele>
        <time>2014-06-17T13:22:34Z</time>
      </trkpt>
      <trkpt lat="59.9413285" lon="17.7399714">
        <ele>49.6453</ele>
        <time>2014-06-17T13:22:35Z</time>
      </trkpt>
      <trkpt lat="59.9413431" lon="17.7399478">
        <ele>49.6453</ele>
        <time>2014-06-17T13:22:36Z</time>
      </trkpt>
      <trkpt lat="59.9413575" lon="17.7399287">
        <ele>49.6453</ele>
        <time>2014-06-17T13:22:37Z</time>
      </trkpt>
      <trkpt lat="59.9413732" lon="17.7399076">
        <ele>49.6453</ele>
        <time>2014-06-17T13:22:38Z</time>
      </trkpt>
      <trkpt lat="59.9413891" lon="17.7398962">
        <ele>48.684</ele>
        <time>2014-06-17T13:22:39Z</time>
      </trkpt>
      <trkpt lat="59.9414021" lon="17.7398976">
        <ele>47.7225</ele>
        <time>2014-06-17T13:22:40Z</time>
      </trkpt>
      <trkpt lat="59.9414191" lon="17.7398874">
        <ele>46.2806</ele>
        <time>2014-06-17T13:22:41Z</time>
      </trkpt>
      <trkpt lat="59.9414333" lon="17.7398825">
        <ele>45.3192</ele>
        <time>2014-06-17T13:22:42Z</time>
      </trkpt>
      <trkpt lat="59.9414533" lon="17.7398802">
        <ele>43.8773</ele>
        <time>2014-06-17T13:22:43Z</time>
      </trkpt>
      <trkpt lat="59.9414736" lon="17.739877">
        <ele>42.916</ele>
        <time>2014-06-17T13:22:44Z</time>
      </trkpt>
      <trkpt lat="59.9414932" lon="17.7398763">
        <ele>41.9547</ele>
        <time>2014-06-17T13:22:45Z</time>
      </trkpt>
      <trkpt lat="59.9415122" lon="17.7398832">
        <ele>40.9934</ele>
        <time>2014-06-17T13:22:46Z</time>
      </trkpt>
      <trkpt lat="59.9415321" lon="17.7398908">
        <ele>40.0321</ele>
        <time>2014-06-17T13:22:47Z</time>
      </trkpt>
      <trkpt lat="59.9415528" lon="17.7398954">
        <ele>39.5513</ele>
        <time>2014-06-17T13:22:48Z</time>
      </trkpt>
      <trkpt lat="59.9415719" lon="17.7398978">
        <ele>38.5901</ele>
        <time>2014-06-17T13:22:49Z</time>
      </trkpt>
      <trkpt lat="59.9415923" lon="17.7399007">
        <ele>38.1094</ele>
        <time>2014-06-17T13:22:50Z</time>
      </trkpt>
      <trkpt lat="59.941612" lon="17.7399094">
        <ele>38.1094</ele>
        <time>2014-06-17T13:22:51Z</time>
      </trkpt>
      <trkpt lat="59.941628" lon="17.7399164">
        <ele>37.6287</ele>
        <time>2014-06-17T13:22:52Z</time>
      </trkpt>
      <trkpt lat="59.9416456" lon="17.7399231">
        <ele>36.6675</ele>
        <time>2014-06-17T13:22:53Z</time>
      </trkpt>
      <trkpt lat="59.9416664" lon="17.7399348">
        <ele>36.1868</ele>
        <time>2014-06-17T13:22:54Z</time>
      </trkpt>
      <trkpt lat="59.941691" lon="17.7399477">
        <ele>35.7061</ele>
        <time>2014-06-17T13:22:55Z</time>
      </trkpt>
      <trkpt lat="59.9417139" lon="17.7399603">
        <ele>35.7061</ele>
        <time>2014-06-17T13:22:56Z</time>
      </trkpt>
      <trkpt lat="59.9417321" lon="17.7399724">
        <ele>35.7061</ele>
        <time>2014-06-17T13:22:57Z</time>
      </trkpt>
      <trkpt lat="59.9417506" lon="17.7399913">
        <ele>34.7449</ele>
        <time>2014-06-17T13:22:58Z</time>
      </trkpt>
      <trkpt lat="59.9417697" lon="17.7400095">
        <ele>34.2642</ele>
        <time>2014-06-17T13:22:59Z</time>
      </trkpt>
      <trkpt lat="59.941791" lon="17.7400218">
        <ele>33.7834</ele>
        <time>2014-06-17T13:23:00Z</time>
      </trkpt>
      <trkpt lat="59.9418196" lon="17.7400314">
        <ele>33.7834</ele>
        <time>2014-06-17T13:23:01Z</time>
      </trkpt>
      <trkpt lat="59.9418405" lon="17.74005">
        <ele>33.3029</ele>
        <time>2014-06-17T13:23:02Z</time>
      </trkpt>
      <trkpt lat="59.941863" lon="17.7400627">
        <ele>33.3029</ele>
        <time>2014-06-17T13:23:03Z</time>
      </trkpt>
      <trkpt lat="59.9418844" lon="17.7400646">
        <ele>32.3416</ele>
        <time>2014-06-17T13:23:04Z</time>
      </trkpt>
      <trkpt lat="59.9419056" lon="17.7400697">
        <ele>31.8607</ele>
        <time>2014-06-17T13:23:05Z</time>
      </trkpt>
      <trkpt lat="59.9419243" lon="17.740075">
        <ele>30.8995</ele>
        <time>2014-06-17T13:23:06Z</time>
      </trkpt>
      <trkpt lat="59.9419411" lon="17.7400842">
        <ele>29.4575</ele>
        <time>2014-06-17T13:23:07Z</time>
      </trkpt>
      <trkpt lat="59.9419616" lon="17.7400902">
        <ele>29.4575</ele>
        <time>2014-06-17T13:23:08Z</time>
      </trkpt>
      <trkpt lat="59.94198" lon="17.7400867">
        <ele>28.4962</ele>
        <time>2014-06-17T13:23:09Z</time>
      </trkpt>
      <trkpt lat="59.9420007" lon="17.74009">
        <ele>28.0155</ele>
        <time>2014-06-17T13:23:10Z</time>
      </trkpt>
      <trkpt lat="59.9420196" lon="17.7400936">
        <ele>27.0543</ele>
        <time>2014-06-17T13:23:11Z</time>
      </trkpt>
      <trkpt lat="59.9420393" lon="17.740095">
        <ele>26.0929</ele>
        <time>2014-06-17T13:23:12Z</time>
      </trkpt>
      <trkpt lat="59.9420626" lon="17.7401003">
        <ele>26.0929</ele>
        <time>2014-06-17T13:23:13Z</time>
      </trkpt>
      <trkpt lat="59.9420842" lon="17.7401106">
        <ele>25.6123</ele>
        <time>2014-06-17T13:23:14Z</time>
      </trkpt>
      <trkpt lat="59.942106" lon="17.7401255">
        <ele>25.6123</ele>
        <time>2014-06-17T13:23:15Z</time>
      </trkpt>
      <trkpt lat="59.9421256" lon="17.740137">
        <ele>25.1317</ele>
        <time>2014-06-17T13:23:16Z</time>
      </trkpt>
      <trkpt lat="59.942145" lon="17.7401356">
        <ele>24.651</ele>
        <time>2014-06-17T13:23:17Z</time>
      </trkpt>
      <trkpt lat="59.9421719" lon="17.7401334">
        <ele>25.6123</ele>
        <time>2014-06-17T13:23:18Z</time>
      </trkpt>
      <trkpt lat="59.9421987" lon="17.7401271">
        <ele>25.6123</ele>
        <time>2014-06-17T13:23:19Z</time>
      </trkpt>
      <trkpt lat="59.9422232" lon="17.7401178">
        <ele>26.0929</ele>
        <time>2014-06-17T13:23:20Z</time>
      </trkpt>
      <trkpt lat="59.9422491" lon="17.7401068">
        <ele>26.5736</ele>
        <time>2014-06-17T13:23:21Z</time>
      </trkpt>
      <trkpt lat="59.9422727" lon="17.7401071">
        <ele>27.0543</ele>
        <time>2014-06-17T13:23:22Z</time>
      </trkpt>
      <trkpt lat="59.9422971" lon="17.7401095">
        <ele>27.5349</ele>
        <time>2014-06-17T13:23:23Z</time>
      </trkpt>
      <trkpt lat="59.9424561" lon="17.7399589">
        <ele>40.9934</ele>
        <time>2014-06-17T13:24:12Z</time>
      </trkpt>
      <trkpt lat="59.9424578" lon="17.7399652">
        <ele>41.474</ele>
        <time>2014-06-17T13:24:13Z</time>
      </trkpt>
      <trkpt lat="59.942461" lon="17.7399638">
        <ele>41.9547</ele>
        <time>2014-06-17T13:24:14Z</time>
      </trkpt>
      <trkpt lat="59.942496" lon="17.7399739">
        <ele>41.9547</ele>
        <time>2014-06-17T13:24:17Z</time>
      </trkpt>
      <trkpt lat="59.9425201" lon="17.7399636">
        <ele>42.4354</ele>
        <time>2014-06-17T13:24:18Z</time>
      </trkpt>
      <trkpt lat="59.9425455" lon="17.7399583">
        <ele>42.4354</ele>
        <time>2014-06-17T13:24:19Z</time>
      </trkpt>
      <trkpt lat="59.9425747" lon="17.7399625">
        <ele>42.4354</ele>
        <time>2014-06-17T13:24:20Z</time>
      </trkpt>
      <trkpt lat="59.9426047" lon="17.7399676">
        <ele>42.916</ele>
        <time>2014-06-17T13:24:21Z</time>
      </trkpt>
      <trkpt lat="59.9426282" lon="17.7399674">
        <ele>42.4354</ele>
        <time>2014-06-17T13:24:22Z</time>
      </trkpt>
      <trkpt lat="59.942651" lon="17.739962">
        <ele>42.4354</ele>
        <time>2014-06-17T13:24:23Z</time>
      </trkpt>
      <trkpt lat="59.9426763" lon="17.7399576">
        <ele>42.916</ele>
        <time>2014-06-17T13:24:24Z</time>
      </trkpt>
      <trkpt lat="59.9427008" lon="17.7399598">
        <ele>42.916</ele>
        <time>2014-06-17T13:24:25Z</time>
      </trkpt>
      <trkpt lat="59.9427285" lon="17.73996">
        <ele>43.3966</ele>
        <time>2014-06-17T13:24:26Z</time>
      </trkpt>
      <trkpt lat="59.9427534" lon="17.7399571">
        <ele>43.3966</ele>
        <time>2014-06-17T13:24:27Z</time>
      </trkpt>
      <trkpt lat="59.9427785" lon="17.7399507">
        <ele>43.8773</ele>
        <time>2014-06-17T13:24:28Z</time>
      </trkpt>
      <trkpt lat="59.9428039" lon="17.7399449">
        <ele>44.358</ele>
        <time>2014-06-17T13:24:29Z</time>
      </trkpt>
      <trkpt lat="59.9428272" lon="17.739941">
        <ele>44.358</ele>
        <time>2014-06-17T13:24:30Z</time>
      </trkpt>
      <trkpt lat="59.9428556" lon="17.7399341">
        <ele>45.3192</ele>
        <time>2014-06-17T13:24:31Z</time>
      </trkpt>
      <trkpt lat="59.9428809" lon="17.739934">
        <ele>45.7999</ele>
        <time>2014-06-17T13:24:32Z</time>
      </trkpt>
      <trkpt lat="59.9429031" lon="17.7399393">
        <ele>45.3192</ele>
        <time>2014-06-17T13:24:33Z</time>
      </trkpt>
      <trkpt lat="59.9429296" lon="17.7399463">
        <ele>45.3192</ele>
        <time>2014-06-17T13:24:34Z</time>
      </trkpt>
      <trkpt lat="59.942957" lon="17.7399556">
        <ele>45.7999</ele>
        <time>2014-06-17T13:24:35Z</time>
      </trkpt>
      <trkpt lat="59.9429827" lon="17.7399629">
        <ele>45.7999</ele>
        <time>2014-06-17T13:24:36Z</time>
      </trkpt>
      <trkpt lat="59.9430074" lon="17.7399656">
        <ele>46.2806</ele>
        <time>2014-06-17T13:24:37Z</time>
      </trkpt>
      <trkpt lat="59.9430276" lon="17.7399683">
        <ele>46.2806</ele>
        <time>2014-06-17T13:24:38Z</time>
      </trkpt>
      <trkpt lat="59.9430515" lon="17.7399691">
        <ele>47.2418</ele>
        <time>2014-06-17T13:24:39Z</time>
      </trkpt>
      <trkpt lat="59.9430735" lon="17.7399764">
        <ele>47.2418</ele>
        <time>2014-06-17T13:24:40Z</time>
      </trkpt>
      <trkpt lat="59.9430987" lon="17.7399805">
        <ele>47.2418</ele>
        <time>2014-06-17T13:24:41Z</time>
      </trkpt>
      <trkpt lat="59.9431224" lon="17.7399847">
        <ele>47.2418</ele>
        <time>2014-06-17T13:24:42Z</time>
      </trkpt>
      <trkpt lat="59.9431486" lon="17.7399876">
        <ele>47.7225</ele>
        <time>2014-06-17T13:24:43Z</time>
      </trkpt>
      <trkpt lat="59.9431691" lon="17.7399904">
        <ele>47.7225</ele>
        <time>2014-06-17T13:24:44Z</time>
      </trkpt>
      <trkpt lat="59.9431898" lon="17.7399902">
        <ele>48.2034</ele>
        <time>2014-06-17T13:24:45Z</time>
      </trkpt>
      <trkpt lat="59.9432167" lon="17.7399852">
        <ele>49.1646</ele>
        <time>2014-06-17T13:24:46Z</time>
      </trkpt>
      <trkpt lat="59.9432384" lon="17.7399884">
        <ele>49.1646</ele>
        <time>2014-06-17T13:24:47Z</time>
      </trkpt>
      <trkpt lat="59.94326" lon="17.7399925">
        <ele>49.1646</ele>
        <time>2014-06-17T13:24:48Z</time>
      </trkpt>
      <trkpt lat="59.943284" lon="17.739995">
        <ele>49.6453</ele>
        <time>2014-06-17T13:24:49Z</time>
      </trkpt>
      <trkpt lat="59.9433064" lon="17.7399972">
        <ele>49.6453</ele>
        <time>2014-06-17T13:24:50Z</time>
      </trkpt>
      <trkpt lat="59.943324" lon="17.7399992">
        <ele>49.1646</ele>
        <time>2014-06-17T13:24:51Z</time>
      </trkpt>
      <trkpt lat="59.9433415" lon="17.7400008">
        <ele>49.1646</ele>
        <time>2014-06-17T13:24:52Z</time>
      </trkpt>
      <trkpt lat="59.9433534" lon="17.7399982">
        <ele>48.684</ele>
        <time>2014-06-17T13:24:53Z</time>
      </trkpt>
      <trkpt lat="59.9433695" lon="17.7399982">
        <ele>48.684</ele>
        <time>2014-06-17T13:24:54Z</time>
      </trkpt>
      <trkpt lat="59.9433861" lon="17.739996">
        <ele>48.684</ele>
        <time>2014-06-17T13:24:55Z</time>
      </trkpt>
      <trkpt lat="59.9434051" lon="17.7399977">
        <ele>48.2034</ele>
        <time>2014-06-17T13:24:56Z</time>
      </trkpt>
      <trkpt lat="59.9434201" lon="17.7400003">
        <ele>47.7225</ele>
        <time>2014-06-17T13:24:57Z</time>
      </trkpt>
      <trkpt lat="59.9434404" lon="17.7399986">
        <ele>48.2034</ele>
        <time>2014-06-17T13:24:58Z</time>
      </trkpt>
      <trkpt lat="59.9434612" lon="17.7399904">
        <ele>48.684</ele>
        <time>2014-06-17T13:24:59Z</time>
      </trkpt>
      <trkpt lat="59.9434782" lon="17.7399878">
        <ele>48.684</ele>
        <time>2014-06-17T13:25:00Z</time>
      </trkpt>
      <trkpt lat="59.9434955" lon="17.7399786">
        <ele>48.2034</ele>
        <time>2014-06-17T13:25:01Z</time>
      </trkpt>
      <trkpt lat="59.9435135" lon="17.7399726">
        <ele>48.2034</ele>
        <time>2014-06-17T13:25:02Z</time>
      </trkpt>
      <trkpt lat="59.9435353" lon="17.7399588">
        <ele>48.684</ele>
        <time>2014-06-17T13:25:03Z</time>
      </trkpt>
      <trkpt lat="59.9435587" lon="17.7399442">
        <ele>49.6453</ele>
        <time>2014-06-17T13:25:04Z</time>
      </trkpt>
      <trkpt lat="59.943584" lon="17.7399319">
        <ele>50.126</ele>
        <time>2014-06-17T13:25:05Z</time>
      </trkpt>
      <trkpt lat="59.94361" lon="17.7399312">
        <ele>50.6066</ele>
        <time>2014-06-17T13:25:06Z</time>
      </trkpt>
      <trkpt lat="59.94363" lon="17.7399329">
        <ele>50.6066</ele>
        <time>2014-06-17T13:25:07Z</time>
      </trkpt>
      <trkpt lat="59.943648" lon="17.7399309">
        <ele>51.0872</ele>
        <time>2014-06-17T13:25:08Z</time>
      </trkpt>
      <trkpt lat="59.9436709" lon="17.739931">
        <ele>51.5679</ele>
        <time>2014-06-17T13:25:09Z</time>
      </trkpt>
      <trkpt lat="59.9436911" lon="17.7399216">
        <ele>51.5679</ele>
        <time>2014-06-17T13:25:10Z</time>
      </trkpt>
      <trkpt lat="59.9437046" lon="17.7399235">
        <ele>51.0872</ele>
        <time>2014-06-17T13:25:11Z</time>
      </trkpt>
      <trkpt lat="59.9437258" lon="17.7399333">
        <ele>51.5679</ele>
        <time>2014-06-17T13:25:12Z</time>
      </trkpt>
      <trkpt lat="59.9437477" lon="17.7399428">
        <ele>51.5679</ele>
        <time>2014-06-17T13:25:13Z</time>
      </trkpt>
      <trkpt lat="59.9437676" lon="17.7399375">
        <ele>52.0486</ele>
        <time>2014-06-17T13:25:14Z</time>
      </trkpt>
      <trkpt lat="59.9437933" lon="17.7399319">
        <ele>53.0098</ele>
        <time>2014-06-17T13:25:15Z</time>
      </trkpt>
      <trkpt lat="59.943817" lon="17.7399278">
        <ele>53.0098</ele>
        <time>2014-06-17T13:25:16Z</time>
      </trkpt>
      <trkpt lat="59.9438436" lon="17.7399082">
        <ele>54.4518</ele>
        <time>2014-06-17T13:25:17Z</time>
      </trkpt>
      <trkpt lat="59.9438715" lon="17.7398967">
        <ele>55.4131</ele>
        <time>2014-06-17T13:25:18Z</time>
      </trkpt>
      <trkpt lat="59.9438994" lon="17.7398835">
        <ele>57.3358</ele>
        <time>2014-06-17T13:25:19Z</time>
      </trkpt>
      <trkpt lat="59.9439251" lon="17.7398651">
        <ele>58.2971</ele>
        <time>2014-06-17T13:25:20Z</time>
      </trkpt>
      <trkpt lat="59.9439523" lon="17.7398577">
        <ele>60.2197</ele>
        <time>2014-06-17T13:25:21Z</time>
      </trkpt>
      <trkpt lat="59.9439782" lon="17.7398547">
        <ele>61.6617</ele>
        <time>2014-06-17T13:25:22Z</time>
      </trkpt>
      <trkpt lat="59.9439988" lon="17.7398423">
        <ele>62.6229</ele>
        <time>2014-06-17T13:25:23Z</time>
      </trkpt>
      <trkpt lat="59.9440238" lon="17.7398271">
        <ele>64.5457</ele>
        <time>2014-06-17T13:25:24Z</time>
      </trkpt>
      <trkpt lat="59.9440484" lon="17.739806">
        <ele>65.9877</ele>
        <time>2014-06-17T13:25:25Z</time>
      </trkpt>
      <trkpt lat="59.944071" lon="17.7397818">
        <ele>66.949</ele>
        <time>2014-06-17T13:25:26Z</time>
      </trkpt>
      <trkpt lat="59.9440983" lon="17.7397585">
        <ele>68.3909</ele>
        <time>2014-06-17T13:25:27Z</time>
      </trkpt>
      <trkpt lat="59.9441251" lon="17.7397433">
        <ele>70.3135</ele>
        <time>2014-06-17T13:25:28Z</time>
      </trkpt>
      <trkpt lat="59.9441491" lon="17.7397298">
        <ele>71.7555</ele>
        <time>2014-06-17T13:25:29Z</time>
      </trkpt>
      <trkpt lat="59.9441684" lon="17.7397217">
        <ele>72.2362</ele>
        <time>2014-06-17T13:25:30Z</time>
      </trkpt>
      <trkpt lat="59.944189" lon="17.7397159">
        <ele>73.1976</ele>
        <time>2014-06-17T13:25:31Z</time>
      </trkpt>
      <trkpt lat="59.9442065" lon="17.7397091">
        <ele>73.6782</ele>
        <time>2014-06-17T13:25:32Z</time>
      </trkpt>
      <trkpt lat="59.9442273" lon="17.7396925">
        <ele>74.6395</ele>
        <time>2014-06-17T13:25:33Z</time>
      </trkpt>
      <trkpt lat="59.9442562" lon="17.7396707">
        <ele>76.0814</ele>
        <time>2014-06-17T13:25:34Z</time>
      </trkpt>
      <trkpt lat="59.9442765" lon="17.7396605">
        <ele>76.0814</ele>
        <time>2014-06-17T13:25:35Z</time>
      </trkpt>
      <trkpt lat="59.9442991" lon="17.7396362">
        <ele>76.5621</ele>
        <time>2014-06-17T13:25:36Z</time>
      </trkpt>
      <trkpt lat="59.944323" lon="17.7396119">
        <ele>77.5234</ele>
        <time>2014-06-17T13:25:37Z</time>
      </trkpt>
      <trkpt lat="59.9443531" lon="17.7395888">
        <ele>79.446</ele>
        <time>2014-06-17T13:25:38Z</time>
      </trkpt>
      <trkpt lat="59.944381" lon="17.7395603">
        <ele>81.3688</ele>
        <time>2014-06-17T13:25:39Z</time>
      </trkpt>
      <trkpt lat="59.944407" lon="17.7395393">
        <ele>82.8108</ele>
        <time>2014-06-17T13:25:40Z</time>
      </trkpt>
      <trkpt lat="59.9444294" lon="17.7395227">
        <ele>82.8108</ele>
        <time>2014-06-17T13:25:41Z</time>
      </trkpt>
      <trkpt lat="59.9444537" lon="17.739505">
        <ele>83.772</ele>
        <time>2014-06-17T13:25:42Z</time>
      </trkpt>
      <trkpt lat="59.944473" lon="17.7394838">
        <ele>84.2527</ele>
        <time>2014-06-17T13:25:43Z</time>
      </trkpt>
      <trkpt lat="59.9444884" lon="17.7394682">
        <ele>84.7334</ele>
        <time>2014-06-17T13:25:44Z</time>
      </trkpt>
      <trkpt lat="59.9445017" lon="17.7394557">
        <ele>83.772</ele>
        <time>2014-06-17T13:25:45Z</time>
      </trkpt>
      <trkpt lat="59.9445167" lon="17.7394445">
        <ele>83.2914</ele>
        <time>2014-06-17T13:25:46Z</time>
      </trkpt>
      <trkpt lat="59.9445361" lon="17.7394144">
        <ele>84.2527</ele>
        <time>2014-06-17T13:25:47Z</time>
      </trkpt>
      <trkpt lat="59.9445558" lon="17.7393958">
        <ele>83.772</ele>
        <time>2014-06-17T13:25:48Z</time>
      </trkpt>
      <trkpt lat="59.9445708" lon="17.7393772">
        <ele>82.8108</ele>
        <time>2014-06-17T13:25:49Z</time>
      </trkpt>
      <trkpt lat="59.9445873" lon="17.7393549">
        <ele>82.3301</ele>
        <time>2014-06-17T13:25:50Z</time>
      </trkpt>
      <trkpt lat="59.9446059" lon="17.7393396">
        <ele>81.8494</ele>
        <time>2014-06-17T13:25:51Z</time>
      </trkpt>
      <trkpt lat="59.9446221" lon="17.7393296">
        <ele>80.8882</ele>
        <time>2014-06-17T13:25:52Z</time>
      </trkpt>
      <trkpt lat="59.9446403" lon="17.7393137">
        <ele>80.4075</ele>
        <time>2014-06-17T13:25:53Z</time>
      </trkpt>
      <trkpt lat="59.9446604" lon="17.7392963">
        <ele>78.9655</ele>
        <time>2014-06-17T13:25:54Z</time>
      </trkpt>
      <trkpt lat="59.9446789" lon="17.7392776">
        <ele>78.004</ele>
        <time>2014-06-17T13:25:55Z</time>
      </trkpt>
      <trkpt lat="59.9446957" lon="17.7392633">
        <ele>77.0428</ele>
        <time>2014-06-17T13:25:56Z</time>
      </trkpt>
      <trkpt lat="59.9447158" lon="17.739251">
        <ele>76.5621</ele>
        <time>2014-06-17T13:25:57Z</time>
      </trkpt>
      <trkpt lat="59.9447368" lon="17.7392438">
        <ele>76.0814</ele>
        <time>2014-06-17T13:25:58Z</time>
      </trkpt>
      <trkpt lat="59.9447576" lon="17.739231">
        <ele>76.0814</ele>
        <time>2014-06-17T13:25:59Z</time>
      </trkpt>
      <trkpt lat="59.9447762" lon="17.7392303">
        <ele>75.6008</ele>
        <time>2014-06-17T13:26:00Z</time>
      </trkpt>
      <trkpt lat="59.9448013" lon="17.7392305">
        <ele>75.6008</ele>
        <time>2014-06-17T13:26:01Z</time>
      </trkpt>
      <trkpt lat="59.9448211" lon="17.7392358">
        <ele>76.0814</ele>
        <time>2014-06-17T13:26:02Z</time>
      </trkpt>
      <trkpt lat="59.944836" lon="17.7392367">
        <ele>75.6008</ele>
        <time>2014-06-17T13:26:03Z</time>
      </trkpt>
      <trkpt lat="59.944848" lon="17.7392398">
        <ele>74.1588</ele>
        <time>2014-06-17T13:26:04Z</time>
      </trkpt>
      <trkpt lat="59.9448667" lon="17.7392438">
        <ele>74.1588</ele>
        <time>2014-06-17T13:26:05Z</time>
      </trkpt>
      <trkpt lat="59.9448853" lon="17.7392512">
        <ele>73.1976</ele>
        <time>2014-06-17T13:26:06Z</time>
      </trkpt>
      <trkpt lat="59.9449058" lon="17.7392591">
        <ele>72.7169</ele>
        <time>2014-06-17T13:26:07Z</time>
      </trkpt>
      <trkpt lat="59.9449271" lon="17.7392694">
        <ele>71.7555</ele>
        <time>2014-06-17T13:26:08Z</time>
      </trkpt>
      <trkpt lat="59.9449432" lon="17.7392833">
        <ele>70.7942</ele>
        <time>2014-06-17T13:26:09Z</time>
      </trkpt>
      <trkpt lat="59.9449523" lon="17.7393005">
        <ele>68.8716</ele>
        <time>2014-06-17T13:26:10Z</time>
      </trkpt>
      <trkpt lat="59.9449668" lon="17.7393087">
        <ele>67.4297</ele>
        <time>2014-06-17T13:26:11Z</time>
      </trkpt>
      <trkpt lat="59.9449804" lon="17.7393227">
        <ele>65.9877</ele>
        <time>2014-06-17T13:26:12Z</time>
      </trkpt>
      <trkpt lat="59.9449961" lon="17.7393439">
        <ele>65.0264</ele>
        <time>2014-06-17T13:26:13Z</time>
      </trkpt>
      <trkpt lat="59.945013" lon="17.7393544">
        <ele>64.5457</ele>
        <time>2014-06-17T13:26:14Z</time>
      </trkpt>
      <trkpt lat="59.9450329" lon="17.7393616">
        <ele>64.5457</ele>
        <time>2014-06-17T13:26:15Z</time>
      </trkpt>
      <trkpt lat="59.945055" lon="17.7393699">
        <ele>65.0264</ele>
        <time>2014-06-17T13:26:16Z</time>
      </trkpt>
      <trkpt lat="59.9450765" lon="17.7393775">
        <ele>65.5071</ele>
        <time>2014-06-17T13:26:17Z</time>
      </trkpt>
      <trkpt lat="59.9450998" lon="17.7393774">
        <ele>66.4683</ele>
        <time>2014-06-17T13:26:18Z</time>
      </trkpt>
      <trkpt lat="59.9451222" lon="17.7393838">
        <ele>65.9877</ele>
        <time>2014-06-17T13:26:19Z</time>
      </trkpt>
      <trkpt lat="59.945139" lon="17.7393905">
        <ele>65.5071</ele>
        <time>2014-06-17T13:26:20Z</time>
      </trkpt>
      <trkpt lat="59.9451552" lon="17.7393942">
        <ele>64.0651</ele>
        <time>2014-06-17T13:26:21Z</time>
      </trkpt>
      <trkpt lat="59.9451681" lon="17.7394069">
        <ele>62.1423</ele>
        <time>2014-06-17T13:26:22Z</time>
      </trkpt>
      <trkpt lat="59.9451827" lon="17.7394153">
        <ele>60.2197</ele>
        <time>2014-06-17T13:26:23Z</time>
      </trkpt>
      <trkpt lat="59.9451982" lon="17.7394206">
        <ele>58.7777</ele>
        <time>2014-06-17T13:26:24Z</time>
      </trkpt>
      <trkpt lat="59.9452153" lon="17.7394244">
        <ele>57.8165</ele>
        <time>2014-06-17T13:26:25Z</time>
      </trkpt>
      <trkpt lat="59.9452324" lon="17.7394285">
        <ele>56.3745</ele>
        <time>2014-06-17T13:26:26Z</time>
      </trkpt>
      <trkpt lat="59.9452466" lon="17.7394373">
        <ele>55.8938</ele>
        <time>2014-06-17T13:26:27Z</time>
      </trkpt>
      <trkpt lat="59.9452583" lon="17.7394419">
        <ele>54.9324</ele>
        <time>2014-06-17T13:26:28Z</time>
      </trkpt>
      <trkpt lat="59.945273" lon="17.7394392">
        <ele>53.9712</ele>
        <time>2014-06-17T13:26:29Z</time>
      </trkpt>
      <trkpt lat="59.9452877" lon="17.7394341">
        <ele>53.0098</ele>
        <time>2014-06-17T13:26:30Z</time>
      </trkpt>
      <trkpt lat="59.945307" lon="17.739436">
        <ele>52.0486</ele>
        <time>2014-06-17T13:26:31Z</time>
      </trkpt>
      <trkpt lat="59.9453246" lon="17.7394366">
        <ele>51.5679</ele>
        <time>2014-06-17T13:26:32Z</time>
      </trkpt>
      <trkpt lat="59.9453403" lon="17.7394411">
        <ele>51.0872</ele>
        <time>2014-06-17T13:26:33Z</time>
      </trkpt>
      <trkpt lat="59.9453535" lon="17.7394372">
        <ele>50.126</ele>
        <time>2014-06-17T13:26:34Z</time>
      </trkpt>
      <trkpt lat="59.9453742" lon="17.7394264">
        <ele>50.6066</ele>
        <time>2014-06-17T13:26:35Z</time>
      </trkpt>
      <trkpt lat="59.9453934" lon="17.7394161">
        <ele>51.0872</ele>
        <time>2014-06-17T13:26:36Z</time>
      </trkpt>
      <trkpt lat="59.9454111" lon="17.7394041">
        <ele>51.5679</ele>
        <time>2014-06-17T13:26:37Z</time>
      </trkpt>
      <trkpt lat="59.9454311" lon="17.7393848">
        <ele>52.0486</ele>
        <time>2014-06-17T13:26:38Z</time>
      </trkpt>
      <trkpt lat="59.9454515" lon="17.7393615">
        <ele>52.5292</ele>
        <time>2014-06-17T13:26:39Z</time>
      </trkpt>
      <trkpt lat="59.9454693" lon="17.7393393">
        <ele>53.4905</ele>
        <time>2014-06-17T13:26:40Z</time>
      </trkpt>
      <trkpt lat="59.9454901" lon="17.7393114">
        <ele>54.4518</ele>
        <time>2014-06-17T13:26:41Z</time>
      </trkpt>
      <trkpt lat="59.945508" lon="17.7392731">
        <ele>54.9324</ele>
        <time>2014-06-17T13:26:42Z</time>
      </trkpt>
      <trkpt lat="59.9455254" lon="17.739247">
        <ele>55.4131</ele>
        <time>2014-06-17T13:26:43Z</time>
      </trkpt>
      <trkpt lat="59.9455437" lon="17.7392246">
        <ele>56.3745</ele>
        <time>2014-06-17T13:26:44Z</time>
      </trkpt>
      <trkpt lat="59.9455551" lon="17.7392104">
        <ele>56.8551</ele>
        <time>2014-06-17T13:26:45Z</time>
      </trkpt>
      <trkpt lat="59.9455701" lon="17.7391946">
        <ele>57.8165</ele>
        <time>2014-06-17T13:26:46Z</time>
      </trkpt>
      <trkpt lat="59.945584" lon="17.7391714">
        <ele>58.7777</ele>
        <time>2014-06-17T13:26:47Z</time>
      </trkpt>
      <trkpt lat="59.9456011" lon="17.7391405">
        <ele>60.2197</ele>
        <time>2014-06-17T13:26:48Z</time>
      </trkpt>
      <trkpt lat="59.9456161" lon="17.7391191">
        <ele>61.6617</ele>
        <time>2014-06-17T13:26:49Z</time>
      </trkpt>
      <trkpt lat="59.9456315" lon="17.7391014">
        <ele>62.1423</ele>
        <time>2014-06-17T13:26:50Z</time>
      </trkpt>
      <trkpt lat="59.9456482" lon="17.7390873">
        <ele>63.1036</ele>
        <time>2014-06-17T13:26:51Z</time>
      </trkpt>
      <trkpt lat="59.945663" lon="17.7390673">
        <ele>63.1036</ele>
        <time>2014-06-17T13:26:52Z</time>
      </trkpt>
      <trkpt lat="59.9456815" lon="17.7390549">
        <ele>63.5844</ele>
        <time>2014-06-17T13:26:53Z</time>
      </trkpt>
      <trkpt lat="59.9457042" lon="17.7390429">
        <ele>64.0651</ele>
        <time>2014-06-17T13:26:54Z</time>
      </trkpt>
      <trkpt lat="59.9457266" lon="17.739029">
        <ele>64.5457</ele>
        <time>2014-06-17T13:26:55Z</time>
      </trkpt>
      <trkpt lat="59.9457518" lon="17.7390135">
        <ele>65.0264</ele>
        <time>2014-06-17T13:26:56Z</time>
      </trkpt>
      <trkpt lat="59.9457735" lon="17.7389908">
        <ele>65.9877</ele>
        <time>2014-06-17T13:26:57Z</time>
      </trkpt>
      <trkpt lat="59.9457943" lon="17.7389706">
        <ele>66.949</ele>
        <time>2014-06-17T13:26:58Z</time>
      </trkpt>
      <trkpt lat="59.9458148" lon="17.7389523">
        <ele>67.9103</ele>
        <time>2014-06-17T13:26:59Z</time>
      </trkpt>
      <trkpt lat="59.9458314" lon="17.7389332">
        <ele>67.9103</ele>
        <time>2014-06-17T13:27:00Z</time>
      </trkpt>
      <trkpt lat="59.9458482" lon="17.7389233">
        <ele>68.3909</ele>
        <time>2014-06-17T13:27:01Z</time>
      </trkpt>
      <trkpt lat="59.9458685" lon="17.7389156">
        <ele>68.3909</ele>
        <time>2014-06-17T13:27:02Z</time>
      </trkpt>
      <trkpt lat="59.9458948" lon="17.7389074">
        <ele>69.8329</ele>
        <time>2014-06-17T13:27:03Z</time>
      </trkpt>
      <trkpt lat="59.9459155" lon="17.7389">
        <ele>69.8329</ele>
        <time>2014-06-17T13:27:04Z</time>
      </trkpt>
      <trkpt lat="59.945933" lon="17.7388964">
        <ele>69.3523</ele>
        <time>2014-06-17T13:27:05Z</time>
      </trkpt>
      <trkpt lat="59.9459537" lon="17.7388882">
        <ele>69.3523</ele>
        <time>2014-06-17T13:27:06Z</time>
      </trkpt>
      <trkpt lat="59.9459767" lon="17.7388829">
        <ele>69.8329</ele>
        <time>2014-06-17T13:27:07Z</time>
      </trkpt>
      <trkpt lat="59.9459974" lon="17.738881">
        <ele>70.3135</ele>
        <time>2014-06-17T13:27:08Z</time>
      </trkpt>
      <trkpt lat="59.9460111" lon="17.7388834">
        <ele>69.8329</ele>
        <time>2014-06-17T13:27:09Z</time>
      </trkpt>
      <trkpt lat="59.9460263" lon="17.7388762">
        <ele>70.3135</ele>
        <time>2014-06-17T13:27:10Z</time>
      </trkpt>
      <trkpt lat="59.94604" lon="17.7388679">
        <ele>69.8329</ele>
        <time>2014-06-17T13:27:11Z</time>
      </trkpt>
      <trkpt lat="59.946058" lon="17.738858">
        <ele>70.3135</ele>
        <time>2014-06-17T13:27:12Z</time>
      </trkpt>
      <trkpt lat="59.9460747" lon="17.7388499">
        <ele>70.3135</ele>
        <time>2014-06-17T13:27:13Z</time>
      </trkpt>
      <trkpt lat="59.9460922" lon="17.7388441">
        <ele>70.3135</ele>
        <time>2014-06-17T13:27:14Z</time>
      </trkpt>
      <trkpt lat="59.9461144" lon="17.7388436">
        <ele>70.7942</ele>
        <time>2014-06-17T13:27:15Z</time>
      </trkpt>
      <trkpt lat="59.9461405" lon="17.7388403">
        <ele>71.2749</ele>
        <time>2014-06-17T13:27:16Z</time>
      </trkpt>
      <trkpt lat="59.9461637" lon="17.7388291">
        <ele>71.7555</ele>
        <time>2014-06-17T13:27:17Z</time>
      </trkpt>
      <trkpt lat="59.9461838" lon="17.7388221">
        <ele>71.7555</ele>
        <time>2014-06-17T13:27:18Z</time>
      </trkpt>
      <trkpt lat="59.9462052" lon="17.7388164">
        <ele>71.7555</ele>
        <time>2014-06-17T13:27:19Z</time>
      </trkpt>
      <trkpt lat="59.9462248" lon="17.7388097">
        <ele>71.7555</ele>
        <time>2014-06-17T13:27:20Z</time>
      </trkpt>
      <trkpt lat="59.9462411" lon="17.7387996">
        <ele>71.2749</ele>
        <time>2014-06-17T13:27:21Z</time>
      </trkpt>
      <trkpt lat="59.9462625" lon="17.7387824">
        <ele>71.7555</ele>
        <time>2014-06-17T13:27:22Z</time>
      </trkpt>
      <trkpt lat="59.9462802" lon="17.7387627">
        <ele>71.7555</ele>
        <time>2014-06-17T13:27:23Z</time>
      </trkpt>
      <trkpt lat="59.9462997" lon="17.7387337">
        <ele>72.2362</ele>
        <time>2014-06-17T13:27:24Z</time>
      </trkpt>
      <trkpt lat="59.9463235" lon="17.7387097">
        <ele>73.1976</ele>
        <time>2014-06-17T13:27:25Z</time>
      </trkpt>
      <trkpt lat="59.9463393" lon="17.7386752">
        <ele>73.1976</ele>
        <time>2014-06-17T13:27:26Z</time>
      </trkpt>
      <trkpt lat="59.9463471" lon="17.7386358">
        <ele>72.2362</ele>
        <time>2014-06-17T13:27:27Z</time>
      </trkpt>
      <trkpt lat="59.9463611" lon="17.738604">
        <ele>72.2362</ele>
        <time>2014-06-17T13:27:28Z</time>
      </trkpt>
      <trkpt lat="59.9463808" lon="17.7385813">
        <ele>71.7555</ele>
        <time>2014-06-17T13:27:29Z</time>
      </trkpt>
      <trkpt lat="59.9463981" lon="17.738545">
        <ele>71.2749</ele>
        <time>2014-06-17T13:27:30Z</time>
      </trkpt>
      <trkpt lat="59.9464206" lon="17.7384999">
        <ele>71.2749</ele>
        <time>2014-06-17T13:27:31Z</time>
      </trkpt>
      <trkpt lat="59.9464382" lon="17.7384337">
        <ele>71.7555</ele>
        <time>2014-06-17T13:27:32Z</time>
      </trkpt>
      <trkpt lat="59.9464522" lon="17.7383823">
        <ele>71.2749</ele>
        <time>2014-06-17T13:27:33Z</time>
      </trkpt>
      <trkpt lat="59.9464734" lon="17.7383486">
        <ele>72.2362</ele>
        <time>2014-06-17T13:27:34Z</time>
      </trkpt>
      <trkpt lat="59.9464883" lon="17.7383132">
        <ele>72.7169</ele>
        <time>2014-06-17T13:27:35Z</time>
      </trkpt>
      <trkpt lat="59.9465076" lon="17.7382726">
        <ele>74.1588</ele>
        <time>2014-06-17T13:27:36Z</time>
      </trkpt>
      <trkpt lat="59.9465226" lon="17.738237">
        <ele>74.1588</ele>
        <time>2014-06-17T13:27:37Z</time>
      </trkpt>
      <trkpt lat="59.946536" lon="17.7382088">
        <ele>74.1588</ele>
        <time>2014-06-17T13:27:38Z</time>
      </trkpt>
      <trkpt lat="59.9465491" lon="17.7381718">
        <ele>74.1588</ele>
        <time>2014-06-17T13:27:39Z</time>
      </trkpt>
      <trkpt lat="59.9465677" lon="17.7381497">
        <ele>74.1588</ele>
        <time>2014-06-17T13:27:40Z</time>
      </trkpt>
      <trkpt lat="59.9465802" lon="17.7381254">
        <ele>74.1588</ele>
        <time>2014-06-17T13:27:41Z</time>
      </trkpt>
      <trkpt lat="59.9465944" lon="17.7380979">
        <ele>74.1588</ele>
        <time>2014-06-17T13:27:42Z</time>
      </trkpt>
      <trkpt lat="59.9466092" lon="17.7380655">
        <ele>74.1588</ele>
        <time>2014-06-17T13:27:43Z</time>
      </trkpt>
      <trkpt lat="59.9466173" lon="17.7380318">
        <ele>72.7169</ele>
        <time>2014-06-17T13:27:44Z</time>
      </trkpt>
      <trkpt lat="59.9466325" lon="17.7380018">
        <ele>72.7169</ele>
        <time>2014-06-17T13:27:45Z</time>
      </trkpt>
      <trkpt lat="59.9466497" lon="17.7379724">
        <ele>73.1976</ele>
        <time>2014-06-17T13:27:46Z</time>
      </trkpt>
      <trkpt lat="59.9466708" lon="17.737937">
        <ele>74.6395</ele>
        <time>2014-06-17T13:27:47Z</time>
      </trkpt>
      <trkpt lat="59.9466863" lon="17.7378998">
        <ele>74.1588</ele>
        <time>2014-06-17T13:27:48Z</time>
      </trkpt>
      <trkpt lat="59.9467072" lon="17.7378841">
        <ele>73.1976</ele>
        <time>2014-06-17T13:27:49Z</time>
      </trkpt>
      <trkpt lat="59.9467213" lon="17.737856">
        <ele>72.2362</ele>
        <time>2014-06-17T13:27:50Z</time>
      </trkpt>
      <trkpt lat="59.9467412" lon="17.7378232">
        <ele>73.6782</ele>
        <time>2014-06-17T13:27:51Z</time>
      </trkpt>
      <trkpt lat="59.9467542" lon="17.7377925">
        <ele>73.6782</ele>
        <time>2014-06-17T13:27:52Z</time>
      </trkpt>
      <trkpt lat="59.9467633" lon="17.7377641">
        <ele>73.1976</ele>
        <time>2014-06-17T13:27:53Z</time>
      </trkpt>
      <trkpt lat="59.9467708" lon="17.7377284">
        <ele>72.7169</ele>
        <time>2014-06-17T13:27:54Z</time>
      </trkpt>
      <trkpt lat="59.9467761" lon="17.7376899">
        <ele>72.2362</ele>
        <time>2014-06-17T13:27:55Z</time>
      </trkpt>
      <trkpt lat="59.9467806" lon="17.737652">
        <ele>71.7555</ele>
        <time>2014-06-17T13:27:56Z</time>
      </trkpt>
      <trkpt lat="59.9467781" lon="17.7376204">
        <ele>69.8329</ele>
        <time>2014-06-17T13:27:57Z</time>
      </trkpt>
      <trkpt lat="59.9467775" lon="17.7375839">
        <ele>68.3909</ele>
        <time>2014-06-17T13:27:58Z</time>
      </trkpt>
      <trkpt lat="59.9467847" lon="17.7375642">
        <ele>67.9103</ele>
        <time>2014-06-17T13:27:59Z</time>
      </trkpt>
      <trkpt lat="59.9467967" lon="17.7375402">
        <ele>67.4297</ele>
        <time>2014-06-17T13:28:00Z</time>
      </trkpt>
      <trkpt lat="59.9468142" lon="17.7375221">
        <ele>66.4683</ele>
        <time>2014-06-17T13:28:01Z</time>
      </trkpt>
      <trkpt lat="59.9468268" lon="17.7374984">
        <ele>65.5071</ele>
        <time>2014-06-17T13:28:02Z</time>
      </trkpt>
      <trkpt lat="59.9468423" lon="17.7374794">
        <ele>65.0264</ele>
        <time>2014-06-17T13:28:03Z</time>
      </trkpt>
      <trkpt lat="59.9468635" lon="17.7374621">
        <ele>65.5071</ele>
        <time>2014-06-17T13:28:04Z</time>
      </trkpt>
      <trkpt lat="59.9468827" lon="17.7374479">
        <ele>65.0264</ele>
        <time>2014-06-17T13:28:05Z</time>
      </trkpt>
      <trkpt lat="59.9469023" lon="17.7374326">
        <ele>65.5071</ele>
        <time>2014-06-17T13:28:06Z</time>
      </trkpt>
      <trkpt lat="59.9469221" lon="17.7374163">
        <ele>66.4683</ele>
        <time>2014-06-17T13:28:07Z</time>
      </trkpt>
      <trkpt lat="59.9469418" lon="17.737405">
        <ele>66.949</ele>
        <time>2014-06-17T13:28:08Z</time>
      </trkpt>
      <trkpt lat="59.9469572" lon="17.7374067">
        <ele>66.949</ele>
        <time>2014-06-17T13:28:09Z</time>
      </trkpt>
      <trkpt lat="59.9469788" lon="17.7374081">
        <ele>67.4297</ele>
        <time>2014-06-17T13:28:10Z</time>
      </trkpt>
      <trkpt lat="59.9470002" lon="17.7374074">
        <ele>67.4297</ele>
        <time>2014-06-17T13:28:11Z</time>
      </trkpt>
      <trkpt lat="59.9470195" lon="17.7374097">
        <ele>67.4297</ele>
        <time>2014-06-17T13:28:12Z</time>
      </trkpt>
      <trkpt lat="59.9470402" lon="17.7374023">
        <ele>67.4297</ele>
        <time>2014-06-17T13:28:13Z</time>
      </trkpt>
      <trkpt lat="59.9470586" lon="17.7374005">
        <ele>67.4297</ele>
        <time>2014-06-17T13:28:14Z</time>
      </trkpt>
      <trkpt lat="59.9470763" lon="17.7373945">
        <ele>66.949</ele>
        <time>2014-06-17T13:28:15Z</time>
      </trkpt>
      <trkpt lat="59.9470967" lon="17.7373912">
        <ele>67.4297</ele>
        <time>2014-06-17T13:28:16Z</time>
      </trkpt>
      <trkpt lat="59.9471189" lon="17.7373843">
        <ele>67.9103</ele>
        <time>2014-06-17T13:28:17Z</time>
      </trkpt>
      <trkpt lat="59.9471448" lon="17.7373754">
        <ele>67.9103</ele>
        <time>2014-06-17T13:28:18Z</time>
      </trkpt>
      <trkpt lat="59.9471701" lon="17.737365">
        <ele>68.3909</ele>
        <time>2014-06-17T13:28:19Z</time>
      </trkpt>
      <trkpt lat="59.9471891" lon="17.7373542">
        <ele>68.3909</ele>
        <time>2014-06-17T13:28:20Z</time>
      </trkpt>
      <trkpt lat="59.947216" lon="17.7373512">
        <ele>68.8716</ele>
        <time>2014-06-17T13:28:21Z</time>
      </trkpt>
      <trkpt lat="59.9472406" lon="17.7373397">
        <ele>69.3523</ele>
        <time>2014-06-17T13:28:22Z</time>
      </trkpt>
      <trkpt lat="59.9472612" lon="17.7373237">
        <ele>69.3523</ele>
        <time>2014-06-17T13:28:23Z</time>
      </trkpt>
      <trkpt lat="59.947284" lon="17.7373195">
        <ele>69.3523</ele>
        <time>2014-06-17T13:28:24Z</time>
      </trkpt>
      <trkpt lat="59.9472996" lon="17.7373038">
        <ele>68.8716</ele>
        <time>2014-06-17T13:28:25Z</time>
      </trkpt>
      <trkpt lat="59.9473153" lon="17.737291">
        <ele>68.3909</ele>
        <time>2014-06-17T13:28:26Z</time>
      </trkpt>
      <trkpt lat="59.9473333" lon="17.7372735">
        <ele>67.9103</ele>
        <time>2014-06-17T13:28:27Z</time>
      </trkpt>
      <trkpt lat="59.9473577" lon="17.7372445">
        <ele>68.8716</ele>
        <time>2014-06-17T13:28:28Z</time>
      </trkpt>
      <trkpt lat="59.947382" lon="17.7372251">
        <ele>69.8329</ele>
        <time>2014-06-17T13:28:29Z</time>
      </trkpt>
      <trkpt lat="59.947413" lon="17.7372049">
        <ele>71.7555</ele>
        <time>2014-06-17T13:28:30Z</time>
      </trkpt>
      <trkpt lat="59.9474409" lon="17.7371731">
        <ele>73.1976</ele>
        <time>2014-06-17T13:28:31Z</time>
      </trkpt>
      <trkpt lat="59.9474647" lon="17.7371393">
        <ele>74.1588</ele>
        <time>2014-06-17T13:28:32Z</time>
      </trkpt>
      <trkpt lat="59.9474799" lon="17.737112">
        <ele>74.1588</ele>
        <time>2014-06-17T13:28:33Z</time>
      </trkpt>
      <trkpt lat="59.9475001" lon="17.7370883">
        <ele>75.1202</ele>
        <time>2014-06-17T13:28:34Z</time>
      </trkpt>
      <trkpt lat="59.9475184" lon="17.7370537">
        <ele>76.5621</ele>
        <time>2014-06-17T13:28:35Z</time>
      </trkpt>
      <trkpt lat="59.9475348" lon="17.7370194">
        <ele>78.004</ele>
        <time>2014-06-17T13:28:36Z</time>
      </trkpt>
      <trkpt lat="59.9475477" lon="17.7369809">
        <ele>78.9655</ele>
        <time>2014-06-17T13:28:37Z</time>
      </trkpt>
      <trkpt lat="59.9475602" lon="17.7369419">
        <ele>79.9266</ele>
        <time>2014-06-17T13:28:38Z</time>
      </trkpt>
      <trkpt lat="59.9475764" lon="17.7369051">
        <ele>81.3688</ele>
        <time>2014-06-17T13:28:39Z</time>
      </trkpt>
      <trkpt lat="59.9475916" lon="17.7368666">
        <ele>81.3688</ele>
        <time>2014-06-17T13:28:40Z</time>
      </trkpt>
      <trkpt lat="59.9476047" lon="17.7368259">
        <ele>81.8494</ele>
        <time>2014-06-17T13:28:41Z</time>
      </trkpt>
      <trkpt lat="59.9476113" lon="17.7367854">
        <ele>81.3688</ele>
        <time>2014-06-17T13:28:42Z</time>
      </trkpt>
      <trkpt lat="59.9476224" lon="17.7367538">
        <ele>80.4075</ele>
        <time>2014-06-17T13:28:43Z</time>
      </trkpt>
      <trkpt lat="59.9476291" lon="17.7367214">
        <ele>78.9655</ele>
        <time>2014-06-17T13:28:44Z</time>
      </trkpt>
      <trkpt lat="59.9476375" lon="17.736686">
        <ele>78.4847</ele>
        <time>2014-06-17T13:28:45Z</time>
      </trkpt>
      <trkpt lat="59.9476529" lon="17.7366563">
        <ele>78.4847</ele>
        <time>2014-06-17T13:28:46Z</time>
      </trkpt>
      <trkpt lat="59.9476641" lon="17.7366219">
        <ele>78.9655</ele>
        <time>2014-06-17T13:28:47Z</time>
      </trkpt>
      <trkpt lat="59.9476724" lon="17.7365818">
        <ele>78.4847</ele>
        <time>2014-06-17T13:28:48Z</time>
      </trkpt>
      <trkpt lat="59.9476766" lon="17.7365344">
        <ele>77.5234</ele>
        <time>2014-06-17T13:28:49Z</time>
      </trkpt>
      <trkpt lat="59.9476875" lon="17.7364996">
        <ele>77.0428</ele>
        <time>2014-06-17T13:28:50Z</time>
      </trkpt>
      <trkpt lat="59.9476947" lon="17.7364634">
        <ele>77.0428</ele>
        <time>2014-06-17T13:28:51Z</time>
      </trkpt>
      <trkpt lat="59.9477012" lon="17.7364326">
        <ele>76.0814</ele>
        <time>2014-06-17T13:28:52Z</time>
      </trkpt>
      <trkpt lat="59.9477037" lon="17.7363856">
        <ele>74.6395</ele>
        <time>2014-06-17T13:28:53Z</time>
      </trkpt>
      <trkpt lat="59.9477121" lon="17.7363391">
        <ele>74.1588</ele>
        <time>2014-06-17T13:28:54Z</time>
      </trkpt>
      <trkpt lat="59.9477214" lon="17.7362924">
        <ele>74.1588</ele>
        <time>2014-06-17T13:28:55Z</time>
      </trkpt>
      <trkpt lat="59.9477297" lon="17.7362554">
        <ele>73.6782</ele>
        <time>2014-06-17T13:28:56Z</time>
      </trkpt>
      <trkpt lat="59.9477363" lon="17.7362099">
        <ele>73.1976</ele>
        <time>2014-06-17T13:28:57Z</time>
      </trkpt>
      <trkpt lat="59.9477414" lon="17.7361566">
        <ele>72.7169</ele>
        <time>2014-06-17T13:28:58Z</time>
      </trkpt>
      <trkpt lat="59.9477399" lon="17.7361093">
        <ele>70.7942</ele>
        <time>2014-06-17T13:28:59Z</time>
      </trkpt>
      <trkpt lat="59.9477389" lon="17.7360758">
        <ele>69.3523</ele>
        <time>2014-06-17T13:29:00Z</time>
      </trkpt>
      <trkpt lat="59.9477384" lon="17.7360293">
        <ele>67.4297</ele>
        <time>2014-06-17T13:29:01Z</time>
      </trkpt>
      <trkpt lat="59.9477342" lon="17.7359851">
        <ele>65.5071</ele>
        <time>2014-06-17T13:29:02Z</time>
      </trkpt>
      <trkpt lat="59.9477296" lon="17.7359542">
        <ele>63.1036</ele>
        <time>2014-06-17T13:29:03Z</time>
      </trkpt>
      <trkpt lat="59.9477248" lon="17.73592">
        <ele>61.6617</ele>
        <time>2014-06-17T13:29:04Z</time>
      </trkpt>
      <trkpt lat="59.9477204" lon="17.7358836">
        <ele>60.2197</ele>
        <time>2014-06-17T13:29:05Z</time>
      </trkpt>
      <trkpt lat="59.9477164" lon="17.7358396">
        <ele>58.2971</ele>
        <time>2014-06-17T13:29:06Z</time>
      </trkpt>
      <trkpt lat="59.947719" lon="17.7358106">
        <ele>56.8551</ele>
        <time>2014-06-17T13:29:07Z</time>
      </trkpt>
      <trkpt lat="59.947718" lon="17.7357697">
        <ele>54.9324</ele>
        <time>2014-06-17T13:29:08Z</time>
      </trkpt>
      <trkpt lat="59.9477146" lon="17.7357298">
        <ele>53.0098</ele>
        <time>2014-06-17T13:29:09Z</time>
      </trkpt>
      <trkpt lat="59.9477109" lon="17.7356874">
        <ele>51.5679</ele>
        <time>2014-06-17T13:29:10Z</time>
      </trkpt>
      <trkpt lat="59.9477099" lon="17.7356418">
        <ele>50.6066</ele>
        <time>2014-06-17T13:29:11Z</time>
      </trkpt>
      <trkpt lat="59.9477085" lon="17.7356009">
        <ele>49.1646</ele>
        <time>2014-06-17T13:29:12Z</time>
      </trkpt>
      <trkpt lat="59.9477007" lon="17.7355498">
        <ele>47.2418</ele>
        <time>2014-06-17T13:29:13Z</time>
      </trkpt>
      <trkpt lat="59.9476978" lon="17.7354976">
        <ele>45.7999</ele>
        <time>2014-06-17T13:29:14Z</time>
      </trkpt>
      <trkpt lat="59.9476944" lon="17.7354502">
        <ele>44.358</ele>
        <time>2014-06-17T13:29:15Z</time>
      </trkpt>
      <trkpt lat="59.9477025" lon="17.7354159">
        <ele>45.3192</ele>
        <time>2014-06-17T13:29:16Z</time>
      </trkpt>
      <trkpt lat="59.9477109" lon="17.7353852">
        <ele>45.7999</ele>
        <time>2014-06-17T13:29:17Z</time>
      </trkpt>
      <trkpt lat="59.947715" lon="17.7353525">
        <ele>45.3192</ele>
        <time>2014-06-17T13:29:18Z</time>
      </trkpt>
      <trkpt lat="59.9477191" lon="17.7353216">
        <ele>44.8386</ele>
        <time>2014-06-17T13:29:19Z</time>
      </trkpt>
      <trkpt lat="59.9477209" lon="17.7352802">
        <ele>44.8386</ele>
        <time>2014-06-17T13:29:20Z</time>
      </trkpt>
      <trkpt lat="59.9477211" lon="17.7352448">
        <ele>44.8386</ele>
        <time>2014-06-17T13:29:21Z</time>
      </trkpt>
      <trkpt lat="59.947717" lon="17.7351831">
        <ele>45.3192</ele>
        <time>2014-06-17T13:29:22Z</time>
      </trkpt>
      <trkpt lat="59.9477152" lon="17.7351292">
        <ele>45.3192</ele>
        <time>2014-06-17T13:29:23Z</time>
      </trkpt>
      <trkpt lat="59.9477165" lon="17.7350935">
        <ele>46.2806</ele>
        <time>2014-06-17T13:29:24Z</time>
      </trkpt>
      <trkpt lat="59.9477166" lon="17.7350459">
        <ele>47.2418</ele>
        <time>2014-06-17T13:29:25Z</time>
      </trkpt>
      <trkpt lat="59.9477187" lon="17.7350077">
        <ele>48.684</ele>
        <time>2014-06-17T13:29:26Z</time>
      </trkpt>
      <trkpt lat="59.9477206" lon="17.7349838">
        <ele>50.126</ele>
        <time>2014-06-17T13:29:27Z</time>
      </trkpt>
      <trkpt lat="59.9477218" lon="17.7349549">
        <ele>50.6066</ele>
        <time>2014-06-17T13:29:28Z</time>
      </trkpt>
      <trkpt lat="59.9477274" lon="17.7349186">
        <ele>51.0872</ele>
        <time>2014-06-17T13:29:29Z</time>
      </trkpt>
      <trkpt lat="59.9477306" lon="17.7348746">
        <ele>51.5679</ele>
        <time>2014-06-17T13:29:30Z</time>
      </trkpt>
      <trkpt lat="59.947739" lon="17.7348408">
        <ele>52.0486</ele>
        <time>2014-06-17T13:29:31Z</time>
      </trkpt>
      <trkpt lat="59.9477451" lon="17.7348212">
        <ele>53.4905</ele>
        <time>2014-06-17T13:29:32Z</time>
      </trkpt>
      <trkpt lat="59.9477494" lon="17.7348024">
        <ele>53.4905</ele>
        <time>2014-06-17T13:29:33Z</time>
      </trkpt>
      <trkpt lat="59.9477595" lon="17.7347825">
        <ele>54.9324</ele>
        <time>2014-06-17T13:29:34Z</time>
      </trkpt>
      <trkpt lat="59.9477591" lon="17.7347478">
        <ele>54.4518</ele>
        <time>2014-06-17T13:29:35Z</time>
      </trkpt>
      <trkpt lat="59.9477617" lon="17.7347295">
        <ele>54.9324</ele>
        <time>2014-06-17T13:29:36Z</time>
      </trkpt>
      <trkpt lat="59.9477618" lon="17.7347034">
        <ele>55.4131</ele>
        <time>2014-06-17T13:29:37Z</time>
      </trkpt>
      <trkpt lat="59.9477571" lon="17.7346677">
        <ele>55.4131</ele>
        <time>2014-06-17T13:29:38Z</time>
      </trkpt>
      <trkpt lat="59.9477565" lon="17.7346393">
        <ele>56.3745</ele>
        <time>2014-06-17T13:29:39Z</time>
      </trkpt>
      <trkpt lat="59.9477518" lon="17.7346122">
        <ele>56.3745</ele>
        <time>2014-06-17T13:29:40Z</time>
      </trkpt>
      <trkpt lat="59.9477535" lon="17.7345892">
        <ele>56.8551</ele>
        <time>2014-06-17T13:29:41Z</time>
      </trkpt>
      <trkpt lat="59.9477507" lon="17.7345704">
        <ele>56.3745</ele>
        <time>2014-06-17T13:29:42Z</time>
      </trkpt>
      <trkpt lat="59.9477558" lon="17.7345459">
        <ele>57.8165</ele>
        <time>2014-06-17T13:29:43Z</time>
      </trkpt>
      <trkpt lat="59.9477563" lon="17.7345171">
        <ele>57.3358</ele>
        <time>2014-06-17T13:29:44Z</time>
      </trkpt>
      <trkpt lat="59.9477579" lon="17.7344824">
        <ele>58.2971</ele>
        <time>2014-06-17T13:29:45Z</time>
      </trkpt>
      <trkpt lat="59.9477503" lon="17.7344444">
        <ele>58.2971</ele>
        <time>2014-06-17T13:29:46Z</time>
      </trkpt>
      <trkpt lat="59.9477563" lon="17.734397">
        <ele>58.7777</ele>
        <time>2014-06-17T13:29:47Z</time>
      </trkpt>
      <trkpt lat="59.9477606" lon="17.7343413">
        <ele>58.7777</ele>
        <time>2014-06-17T13:29:48Z</time>
      </trkpt>
      <trkpt lat="59.9477617" lon="17.7342799">
        <ele>58.7777</ele>
        <time>2014-06-17T13:29:49Z</time>
      </trkpt>
      <trkpt lat="59.9477607" lon="17.7342192">
        <ele>58.2971</ele>
        <time>2014-06-17T13:29:50Z</time>
      </trkpt>
      <trkpt lat="59.9477652" lon="17.7341586">
        <ele>59.2584</ele>
        <time>2014-06-17T13:29:51Z</time>
      </trkpt>
      <trkpt lat="59.9477642" lon="17.7341103">
        <ele>58.7777</ele>
        <time>2014-06-17T13:29:52Z</time>
      </trkpt>
      <trkpt lat="59.9477725" lon="17.734069">
        <ele>58.7777</ele>
        <time>2014-06-17T13:29:53Z</time>
      </trkpt>
      <trkpt lat="59.9477802" lon="17.7340295">
        <ele>58.2971</ele>
        <time>2014-06-17T13:29:54Z</time>
      </trkpt>
      <trkpt lat="59.9477985" lon="17.7339909">
        <ele>59.2584</ele>
        <time>2014-06-17T13:29:55Z</time>
      </trkpt>
      <trkpt lat="59.9478136" lon="17.7339267">
        <ele>59.7391</ele>
        <time>2014-06-17T13:29:56Z</time>
      </trkpt>
      <trkpt lat="59.9478291" lon="17.7338675">
        <ele>61.181</ele>
        <time>2014-06-17T13:29:57Z</time>
      </trkpt>
      <trkpt lat="59.9478316" lon="17.7337928">
        <ele>61.6617</ele>
        <time>2014-06-17T13:29:58Z</time>
      </trkpt>
      <trkpt lat="59.9478413" lon="17.7337236">
        <ele>62.1423</ele>
        <time>2014-06-17T13:29:59Z</time>
      </trkpt>
      <trkpt lat="59.9478555" lon="17.733678">
        <ele>62.6229</ele>
        <time>2014-06-17T13:30:00Z</time>
      </trkpt>
      <trkpt lat="59.9478679" lon="17.7336285">
        <ele>63.1036</ele>
        <time>2014-06-17T13:30:01Z</time>
      </trkpt>
      <trkpt lat="59.9478948" lon="17.7335975">
        <ele>65.0264</ele>
        <time>2014-06-17T13:30:02Z</time>
      </trkpt>
      <trkpt lat="59.947911" lon="17.7335618">
        <ele>65.5071</ele>
        <time>2014-06-17T13:30:03Z</time>
      </trkpt>
      <trkpt lat="59.9479302" lon="17.7335379">
        <ele>66.4683</ele>
        <time>2014-06-17T13:30:04Z</time>
      </trkpt>
      <trkpt lat="59.9479527" lon="17.733508">
        <ele>66.949</ele>
        <time>2014-06-17T13:30:05Z</time>
      </trkpt>
      <trkpt lat="59.9479758" lon="17.7334742">
        <ele>68.3909</ele>
        <time>2014-06-17T13:30:06Z</time>
      </trkpt>
      <trkpt lat="59.9479907" lon="17.7334335">
        <ele>68.8716</ele>
        <time>2014-06-17T13:30:07Z</time>
      </trkpt>
      <trkpt lat="59.9480107" lon="17.7333956">
        <ele>69.8329</ele>
        <time>2014-06-17T13:30:08Z</time>
      </trkpt>
      <trkpt lat="59.9480222" lon="17.7333589">
        <ele>69.8329</ele>
        <time>2014-06-17T13:30:09Z</time>
      </trkpt>
      <trkpt lat="59.9480301" lon="17.7333229">
        <ele>70.3135</ele>
        <time>2014-06-17T13:30:10Z</time>
      </trkpt>
      <trkpt lat="59.948043" lon="17.7332919">
        <ele>70.7942</ele>
        <time>2014-06-17T13:30:11Z</time>
      </trkpt>
      <trkpt lat="59.9480492" lon="17.7332573">
        <ele>70.3135</ele>
        <time>2014-06-17T13:30:12Z</time>
      </trkpt>
      <trkpt lat="59.9480622" lon="17.733225">
        <ele>70.3135</ele>
        <time>2014-06-17T13:30:13Z</time>
      </trkpt>
      <trkpt lat="59.9480763" lon="17.7331859">
        <ele>69.8329</ele>
        <time>2014-06-17T13:30:14Z</time>
      </trkpt>
      <trkpt lat="59.9480782" lon="17.7331331">
        <ele>68.8716</ele>
        <time>2014-06-17T13:30:15Z</time>
      </trkpt>
      <trkpt lat="59.9480797" lon="17.7330758">
        <ele>68.3909</ele>
        <time>2014-06-17T13:30:16Z</time>
      </trkpt>
      <trkpt lat="59.9480921" lon="17.7330309">
        <ele>69.8329</ele>
        <time>2014-06-17T13:30:17Z</time>
      </trkpt>
      <trkpt lat="59.9480983" lon="17.732981">
        <ele>69.8329</ele>
        <time>2014-06-17T13:30:18Z</time>
      </trkpt>
      <trkpt lat="59.9480989" lon="17.732936">
        <ele>67.4297</ele>
        <time>2014-06-17T13:30:19Z</time>
      </trkpt>
      <trkpt lat="59.9481062" lon="17.7328978">
        <ele>66.949</ele>
        <time>2014-06-17T13:30:20Z</time>
      </trkpt>
      <trkpt lat="59.9481055" lon="17.7328466">
        <ele>65.5071</ele>
        <time>2014-06-17T13:30:21Z</time>
      </trkpt>
      <trkpt lat="59.9481092" lon="17.7327958">
        <ele>64.5457</ele>
        <time>2014-06-17T13:30:22Z</time>
      </trkpt>
      <trkpt lat="59.9481153" lon="17.7327572">
        <ele>63.5844</ele>
        <time>2014-06-17T13:30:23Z</time>
      </trkpt>
      <trkpt lat="59.9481258" lon="17.7327248">
        <ele>63.1036</ele>
        <time>2014-06-17T13:30:24Z</time>
      </trkpt>
      <trkpt lat="59.9481419" lon="17.7326928">
        <ele>63.1036</ele>
        <time>2014-06-17T13:30:25Z</time>
      </trkpt>
      <trkpt lat="59.9481558" lon="17.732672">
        <ele>62.6229</ele>
        <time>2014-06-17T13:30:26Z</time>
      </trkpt>
      <trkpt lat="59.9481802" lon="17.73267">
        <ele>62.6229</ele>
        <time>2014-06-17T13:30:27Z</time>
      </trkpt>
      <trkpt lat="59.9482" lon="17.7326559">
        <ele>62.1423</ele>
        <time>2014-06-17T13:30:28Z</time>
      </trkpt>
      <trkpt lat="59.9482208" lon="17.7326399">
        <ele>62.1423</ele>
        <time>2014-06-17T13:30:29Z</time>
      </trkpt>
      <trkpt lat="59.9482435" lon="17.732628">
        <ele>62.1423</ele>
        <time>2014-06-17T13:30:30Z</time>
      </trkpt>
      <trkpt lat="59.9482651" lon="17.7326227">
        <ele>62.6229</ele>
        <time>2014-06-17T13:30:31Z</time>
      </trkpt>
      <trkpt lat="59.9482862" lon="17.7326254">
        <ele>63.5844</ele>
        <time>2014-06-17T13:30:32Z</time>
      </trkpt>
      <trkpt lat="59.9483108" lon="17.7326244">
        <ele>65.0264</ele>
        <time>2014-06-17T13:30:33Z</time>
      </trkpt>
      <trkpt lat="59.9483377" lon="17.7326338">
        <ele>65.9877</ele>
        <time>2014-06-17T13:30:34Z</time>
      </trkpt>
      <trkpt lat="59.9483572" lon="17.7326445">
        <ele>66.4683</ele>
        <time>2014-06-17T13:30:35Z</time>
      </trkpt>
      <trkpt lat="59.9483735" lon="17.7326402">
        <ele>66.4683</ele>
        <time>2014-06-17T13:30:36Z</time>
      </trkpt>
      <trkpt lat="59.9483927" lon="17.7326345">
        <ele>66.949</ele>
        <time>2014-06-17T13:30:37Z</time>
      </trkpt>
      <trkpt lat="59.9484123" lon="17.7326307">
        <ele>67.9103</ele>
        <time>2014-06-17T13:30:38Z</time>
      </trkpt>
      <trkpt lat="59.9484346" lon="17.7326267">
        <ele>68.8716</ele>
        <time>2014-06-17T13:30:39Z</time>
      </trkpt>
      <trkpt lat="59.9484589" lon="17.7326192">
        <ele>70.3135</ele>
        <time>2014-06-17T13:30:40Z</time>
      </trkpt>
      <trkpt lat="59.9484784" lon="17.7326158">
        <ele>69.8329</ele>
        <time>2014-06-17T13:30:41Z</time>
      </trkpt>
      <trkpt lat="59.9484931" lon="17.7326056">
        <ele>69.8329</ele>
        <time>2014-06-17T13:30:42Z</time>
      </trkpt>
      <trkpt lat="59.9485214" lon="17.7326005">
        <ele>71.7555</ele>
        <time>2014-06-17T13:30:43Z</time>
      </trkpt>
      <trkpt lat="59.9485476" lon="17.7325855">
        <ele>71.7555</ele>
        <time>2014-06-17T13:30:44Z</time>
      </trkpt>
      <trkpt lat="59.9485708" lon="17.732572">
        <ele>73.1976</ele>
        <time>2014-06-17T13:30:45Z</time>
      </trkpt>
      <trkpt lat="59.9485914" lon="17.7325451">
        <ele>73.1976</ele>
        <time>2014-06-17T13:30:46Z</time>
      </trkpt>
      <trkpt lat="59.9486105" lon="17.7325198">
        <ele>74.1588</ele>
        <time>2014-06-17T13:30:47Z</time>
      </trkpt>
      <trkpt lat="59.9486305" lon="17.7324948">
        <ele>74.6395</ele>
        <time>2014-06-17T13:30:48Z</time>
      </trkpt>
      <trkpt lat="59.948646" lon="17.732459">
        <ele>74.6395</ele>
        <time>2014-06-17T13:30:49Z</time>
      </trkpt>
      <trkpt lat="59.948654" lon="17.7324343">
        <ele>73.1976</ele>
        <time>2014-06-17T13:30:50Z</time>
      </trkpt>
      <trkpt lat="59.9486583" lon="17.7324095">
        <ele>71.2749</ele>
        <time>2014-06-17T13:30:51Z</time>
      </trkpt>
      <trkpt lat="59.9486766" lon="17.7323954">
        <ele>71.2749</ele>
        <time>2014-06-17T13:30:52Z</time>
      </trkpt>
      <trkpt lat="59.9486994" lon="17.7323809">
        <ele>72.2362</ele>
        <time>2014-06-17T13:30:53Z</time>
      </trkpt>
      <trkpt lat="59.9487169" lon="17.7323519">
        <ele>72.2362</ele>
        <time>2014-06-17T13:30:54Z</time>
      </trkpt>
      <trkpt lat="59.9487348" lon="17.7323177">
        <ele>72.7169</ele>
        <time>2014-06-17T13:30:55Z</time>
      </trkpt>
      <trkpt lat="59.9487495" lon="17.732295">
        <ele>72.2362</ele>
        <time>2014-06-17T13:30:56Z</time>
      </trkpt>
      <trkpt lat="59.9487698" lon="17.7322664">
        <ele>72.7169</ele>
        <time>2014-06-17T13:30:57Z</time>
      </trkpt>
      <trkpt lat="59.9487858" lon="17.7322361">
        <ele>72.7169</ele>
        <time>2014-06-17T13:30:58Z</time>
      </trkpt>
      <trkpt lat="59.9488008" lon="17.7322087">
        <ele>72.7169</ele>
        <time>2014-06-17T13:30:59Z</time>
      </trkpt>
      <trkpt lat="59.9488148" lon="17.7321814">
        <ele>71.7555</ele>
        <time>2014-06-17T13:31:00Z</time>
      </trkpt>
      <trkpt lat="59.9488291" lon="17.7321545">
        <ele>71.7555</ele>
        <time>2014-06-17T13:31:01Z</time>
      </trkpt>
      <trkpt lat="59.9488547" lon="17.7321317">
        <ele>73.1976</ele>
        <time>2014-06-17T13:31:02Z</time>
      </trkpt>
      <trkpt lat="59.9488727" lon="17.7321041">
        <ele>73.6782</ele>
        <time>2014-06-17T13:31:03Z</time>
      </trkpt>
      <trkpt lat="59.948892" lon="17.7320732">
        <ele>74.1588</ele>
        <time>2014-06-17T13:31:04Z</time>
      </trkpt>
      <trkpt lat="59.948907" lon="17.7320436">
        <ele>73.1976</ele>
        <time>2014-06-17T13:31:05Z</time>
      </trkpt>
      <trkpt lat="59.9489219" lon="17.7320208">
        <ele>72.7169</ele>
        <time>2014-06-17T13:31:06Z</time>
      </trkpt>
      <trkpt lat="59.9489448" lon="17.7319924">
        <ele>73.6782</ele>
        <time>2014-06-17T13:31:07Z</time>
      </trkpt>
      <trkpt lat="59.9489665" lon="17.7319611">
        <ele>74.6395</ele>
        <time>2014-06-17T13:31:08Z</time>
      </trkpt>
      <trkpt lat="59.9489847" lon="17.7319344">
        <ele>74.1588</ele>
        <time>2014-06-17T13:31:09Z</time>
      </trkpt>
      <trkpt lat="59.949006" lon="17.7319111">
        <ele>75.1202</ele>
        <time>2014-06-17T13:31:10Z</time>
      </trkpt>
      <trkpt lat="59.9490284" lon="17.7318933">
        <ele>75.6008</ele>
        <time>2014-06-17T13:31:11Z</time>
      </trkpt>
      <trkpt lat="59.9490509" lon="17.7318649">
        <ele>76.5621</ele>
        <time>2014-06-17T13:31:12Z</time>
      </trkpt>
      <trkpt lat="59.9490762" lon="17.7318364">
        <ele>78.004</ele>
        <time>2014-06-17T13:31:13Z</time>
      </trkpt>
      <trkpt lat="59.9490977" lon="17.7318116">
        <ele>78.4847</ele>
        <time>2014-06-17T13:31:14Z</time>
      </trkpt>
      <trkpt lat="59.9491197" lon="17.7317835">
        <ele>79.446</ele>
        <time>2014-06-17T13:31:15Z</time>
      </trkpt>
      <trkpt lat="59.949135" lon="17.7317536">
        <ele>78.4847</ele>
        <time>2014-06-17T13:31:16Z</time>
      </trkpt>
      <trkpt lat="59.9491504" lon="17.7317245">
        <ele>77.5234</ele>
        <time>2014-06-17T13:31:17Z</time>
      </trkpt>
      <trkpt lat="59.949164" lon="17.731695">
        <ele>77.5234</ele>
        <time>2014-06-17T13:31:18Z</time>
      </trkpt>
      <trkpt lat="59.94917" lon="17.7316607">
        <ele>76.5621</ele>
        <time>2014-06-17T13:31:19Z</time>
      </trkpt>
      <trkpt lat="59.9491795" lon="17.7316235">
        <ele>76.5621</ele>
        <time>2014-06-17T13:31:20Z</time>
      </trkpt>
      <trkpt lat="59.9491905" lon="17.7315883">
        <ele>75.6008</ele>
        <time>2014-06-17T13:31:21Z</time>
      </trkpt>
      <trkpt lat="59.9491982" lon="17.7315449">
        <ele>74.6395</ele>
        <time>2014-06-17T13:31:22Z</time>
      </trkpt>
      <trkpt lat="59.949204" lon="17.7314934">
        <ele>73.6782</ele>
        <time>2014-06-17T13:31:23Z</time>
      </trkpt>
      <trkpt lat="59.9492147" lon="17.7314505">
        <ele>73.6782</ele>
        <time>2014-06-17T13:31:24Z</time>
      </trkpt>
      <trkpt lat="59.9492189" lon="17.7314097">
        <ele>72.2362</ele>
        <time>2014-06-17T13:31:25Z</time>
      </trkpt>
      <trkpt lat="59.949221" lon="17.7313683">
        <ele>69.8329</ele>
        <time>2014-06-17T13:31:26Z</time>
      </trkpt>
      <trkpt lat="59.9492298" lon="17.7313334">
        <ele>68.3909</ele>
        <time>2014-06-17T13:31:27Z</time>
      </trkpt>
      <trkpt lat="59.9492405" lon="17.7312941">
        <ele>67.9103</ele>
        <time>2014-06-17T13:31:28Z</time>
      </trkpt>
      <trkpt lat="59.9492508" lon="17.7312526">
        <ele>66.949</ele>
        <time>2014-06-17T13:31:29Z</time>
      </trkpt>
      <trkpt lat="59.9492584" lon="17.7312081">
        <ele>65.9877</ele>
        <time>2014-06-17T13:31:30Z</time>
      </trkpt>
      <trkpt lat="59.9492671" lon="17.7311641">
        <ele>65.0264</ele>
        <time>2014-06-17T13:31:31Z</time>
      </trkpt>
      <trkpt lat="59.9492819" lon="17.7311303">
        <ele>64.5457</ele>
        <time>2014-06-17T13:31:32Z</time>
      </trkpt>
      <trkpt lat="59.9492965" lon="17.7310968">
        <ele>64.0651</ele>
        <time>2014-06-17T13:31:33Z</time>
      </trkpt>
      <trkpt lat="59.9493058" lon="17.7310655">
        <ele>63.5844</ele>
        <time>2014-06-17T13:31:34Z</time>
      </trkpt>
      <trkpt lat="59.9493178" lon="17.7310284">
        <ele>63.1036</ele>
        <time>2014-06-17T13:31:35Z</time>
      </trkpt>
      <trkpt lat="59.9493297" lon="17.7309967">
        <ele>62.6229</ele>
        <time>2014-06-17T13:31:36Z</time>
      </trkpt>
      <trkpt lat="59.9493391" lon="17.730967">
        <ele>61.6617</ele>
        <time>2014-06-17T13:31:37Z</time>
      </trkpt>
      <trkpt lat="59.9493502" lon="17.7309337">
        <ele>61.181</ele>
        <time>2014-06-17T13:31:38Z</time>
      </trkpt>
      <trkpt lat="59.9493613" lon="17.7309028">
        <ele>61.181</ele>
        <time>2014-06-17T13:31:39Z</time>
      </trkpt>
      <trkpt lat="59.9493658" lon="17.7308626">
        <ele>60.2197</ele>
        <time>2014-06-17T13:31:40Z</time>
      </trkpt>
      <trkpt lat="59.9493753" lon="17.7308248">
        <ele>59.7391</ele>
        <time>2014-06-17T13:31:41Z</time>
      </trkpt>
      <trkpt lat="59.9493822" lon="17.7307765">
        <ele>59.2584</ele>
        <time>2014-06-17T13:31:42Z</time>
      </trkpt>
      <trkpt lat="59.9493923" lon="17.7307351">
        <ele>59.2584</ele>
        <time>2014-06-17T13:31:43Z</time>
      </trkpt>
      <trkpt lat="59.949399" lon="17.7306938">
        <ele>59.2584</ele>
        <time>2014-06-17T13:31:44Z</time>
      </trkpt>
      <trkpt lat="59.9494103" lon="17.7306559">
        <ele>59.2584</ele>
        <time>2014-06-17T13:31:45Z</time>
      </trkpt>
      <trkpt lat="59.9494223" lon="17.7306201">
        <ele>59.2584</ele>
        <time>2014-06-17T13:31:46Z</time>
      </trkpt>
      <trkpt lat="59.9494287" lon="17.7305839">
        <ele>58.2971</ele>
        <time>2014-06-17T13:31:47Z</time>
      </trkpt>
      <trkpt lat="59.9494321" lon="17.7305422">
        <ele>57.8165</ele>
        <time>2014-06-17T13:31:48Z</time>
      </trkpt>
      <trkpt lat="59.9494331" lon="17.7305018">
        <ele>57.3358</ele>
        <time>2014-06-17T13:31:49Z</time>
      </trkpt>
      <trkpt lat="59.9494339" lon="17.730468">
        <ele>56.8551</ele>
        <time>2014-06-17T13:31:50Z</time>
      </trkpt>
      <trkpt lat="59.9494311" lon="17.7304352">
        <ele>55.8938</ele>
        <time>2014-06-17T13:31:51Z</time>
      </trkpt>
      <trkpt lat="59.9494313" lon="17.7304036">
        <ele>54.9324</ele>
        <time>2014-06-17T13:31:52Z</time>
      </trkpt>
      <trkpt lat="59.9494354" lon="17.730369">
        <ele>54.9324</ele>
        <time>2014-06-17T13:31:53Z</time>
      </trkpt>
      <trkpt lat="59.949439" lon="17.7303328">
        <ele>53.9712</ele>
        <time>2014-06-17T13:31:54Z</time>
      </trkpt>
      <trkpt lat="59.9494451" lon="17.7303006">
        <ele>53.0098</ele>
        <time>2014-06-17T13:31:55Z</time>
      </trkpt>
      <trkpt lat="59.9494448" lon="17.7302591">
        <ele>51.5679</ele>
        <time>2014-06-17T13:31:56Z</time>
      </trkpt>
      <trkpt lat="59.9494409" lon="17.7302042">
        <ele>50.126</ele>
        <time>2014-06-17T13:31:57Z</time>
      </trkpt>
      <trkpt lat="59.9494378" lon="17.7301487">
        <ele>48.2034</ele>
        <time>2014-06-17T13:31:58Z</time>
      </trkpt>
      <trkpt lat="59.9494345" lon="17.7300921">
        <ele>46.2806</ele>
        <time>2014-06-17T13:31:59Z</time>
      </trkpt>
      <trkpt lat="59.9494371" lon="17.7300455">
        <ele>45.3192</ele>
        <time>2014-06-17T13:32:00Z</time>
      </trkpt>
      <trkpt lat="59.9494433" lon="17.7300047">
        <ele>44.8386</ele>
        <time>2014-06-17T13:32:01Z</time>
      </trkpt>
      <trkpt lat="59.9494521" lon="17.7299776">
        <ele>43.3966</ele>
        <time>2014-06-17T13:32:02Z</time>
      </trkpt>
      <trkpt lat="59.9494583" lon="17.7299498">
        <ele>42.916</ele>
        <time>2014-06-17T13:32:03Z</time>
      </trkpt>
      <trkpt lat="59.9494618" lon="17.7299105">
        <ele>41.474</ele>
        <time>2014-06-17T13:32:04Z</time>
      </trkpt>
      <trkpt lat="59.9494685" lon="17.7298707">
        <ele>40.5128</ele>
        <time>2014-06-17T13:32:05Z</time>
      </trkpt>
      <trkpt lat="59.9494726" lon="17.7298276">
        <ele>39.0707</ele>
        <time>2014-06-17T13:32:06Z</time>
      </trkpt>
      <trkpt lat="59.949483" lon="17.7297902">
        <ele>39.0707</ele>
        <time>2014-06-17T13:32:07Z</time>
      </trkpt>
      <trkpt lat="59.9494923" lon="17.7297471">
        <ele>38.5901</ele>
        <time>2014-06-17T13:32:08Z</time>
      </trkpt>
      <trkpt lat="59.9494977" lon="17.7296958">
        <ele>37.6287</ele>
        <time>2014-06-17T13:32:09Z</time>
      </trkpt>
      <trkpt lat="59.9495006" lon="17.7296482">
        <ele>37.1481</ele>
        <time>2014-06-17T13:32:10Z</time>
      </trkpt>
      <trkpt lat="59.9495063" lon="17.7296073">
        <ele>36.6675</ele>
        <time>2014-06-17T13:32:11Z</time>
      </trkpt>
      <trkpt lat="59.9495074" lon="17.7295562">
        <ele>35.7061</ele>
        <time>2014-06-17T13:32:12Z</time>
      </trkpt>
      <trkpt lat="59.9495184" lon="17.729514">
        <ele>35.7061</ele>
        <time>2014-06-17T13:32:13Z</time>
      </trkpt>
      <trkpt lat="59.9495292" lon="17.7294809">
        <ele>35.2255</ele>
        <time>2014-06-17T13:32:14Z</time>
      </trkpt>
      <trkpt lat="59.9495375" lon="17.7294484">
        <ele>34.2642</ele>
        <time>2014-06-17T13:32:15Z</time>
      </trkpt>
      <trkpt lat="59.9495509" lon="17.729418">
        <ele>34.2642</ele>
        <time>2014-06-17T13:32:16Z</time>
      </trkpt>
      <trkpt lat="59.9495634" lon="17.7293868">
        <ele>33.7834</ele>
        <time>2014-06-17T13:32:17Z</time>
      </trkpt>
      <trkpt lat="59.9495794" lon="17.7293623">
        <ele>34.2642</ele>
        <time>2014-06-17T13:32:18Z</time>
      </trkpt>
      <trkpt lat="59.9495959" lon="17.7293319">
        <ele>34.7449</ele>
        <time>2014-06-17T13:32:19Z</time>
      </trkpt>
      <trkpt lat="59.9496038" lon="17.7292861">
        <ele>35.2255</ele>
        <time>2014-06-17T13:32:20Z</time>
      </trkpt>
      <trkpt lat="59.949611" lon="17.7292394">
        <ele>35.2255</ele>
        <time>2014-06-17T13:32:21Z</time>
      </trkpt>
      <trkpt lat="59.9496215" lon="17.7291987">
        <ele>35.2255</ele>
        <time>2014-06-17T13:32:22Z</time>
      </trkpt>
      <trkpt lat="59.9496286" lon="17.7291463">
        <ele>34.7449</ele>
        <time>2014-06-17T13:32:23Z</time>
      </trkpt>
      <trkpt lat="59.9496311" lon="17.7290915">
        <ele>35.2255</ele>
        <time>2014-06-17T13:32:24Z</time>
      </trkpt>
      <trkpt lat="59.9496347" lon="17.7290449">
        <ele>35.2255</ele>
        <time>2014-06-17T13:32:25Z</time>
      </trkpt>
      <trkpt lat="59.9496351" lon="17.728997">
        <ele>34.2642</ele>
        <time>2014-06-17T13:32:26Z</time>
      </trkpt>
      <trkpt lat="59.9496368" lon="17.7289603">
        <ele>33.7834</ele>
        <time>2014-06-17T13:32:27Z</time>
      </trkpt>
      <trkpt lat="59.9496385" lon="17.728934">
        <ele>33.3029</ele>
        <time>2014-06-17T13:32:28Z</time>
      </trkpt>
      <trkpt lat="59.9496386" lon="17.7288956">
        <ele>33.3029</ele>
        <time>2014-06-17T13:32:29Z</time>
      </trkpt>
      <trkpt lat="59.9496385" lon="17.7288566">
        <ele>31.8607</ele>
        <time>2014-06-17T13:32:30Z</time>
      </trkpt>
      <trkpt lat="59.9496431" lon="17.7288268">
        <ele>31.8607</ele>
        <time>2014-06-17T13:32:31Z</time>
      </trkpt>
      <trkpt lat="59.9496455" lon="17.7288018">
        <ele>31.8607</ele>
        <time>2014-06-17T13:32:32Z</time>
      </trkpt>
      <trkpt lat="59.9496456" lon="17.7287807">
        <ele>30.8995</ele>
        <time>2014-06-17T13:32:33Z</time>
      </trkpt>
      <trkpt lat="59.9496484" lon="17.728744">
        <ele>30.4188</ele>
        <time>2014-06-17T13:32:34Z</time>
      </trkpt>
      <trkpt lat="59.9496528" lon="17.7286997">
        <ele>29.9381</ele>
        <time>2014-06-17T13:32:35Z</time>
      </trkpt>
      <trkpt lat="59.9496561" lon="17.7286594">
        <ele>29.4575</ele>
        <time>2014-06-17T13:32:36Z</time>
      </trkpt>
      <trkpt lat="59.9496588" lon="17.7286144">
        <ele>28.4962</ele>
        <time>2014-06-17T13:32:37Z</time>
      </trkpt>
      <trkpt lat="59.949669" lon="17.7285738">
        <ele>28.0155</ele>
        <time>2014-06-17T13:32:38Z</time>
      </trkpt>
      <trkpt lat="59.949681" lon="17.7285356">
        <ele>28.0155</ele>
        <time>2014-06-17T13:32:39Z</time>
      </trkpt>
      <trkpt lat="59.9496969" lon="17.7285093">
        <ele>27.5349</ele>
        <time>2014-06-17T13:32:40Z</time>
      </trkpt>
      <trkpt lat="59.9497089" lon="17.7284792">
        <ele>27.5349</ele>
        <time>2014-06-17T13:32:41Z</time>
      </trkpt>
      <trkpt lat="59.9497151" lon="17.7284352">
        <ele>26.5736</ele>
        <time>2014-06-17T13:32:42Z</time>
      </trkpt>
      <trkpt lat="59.9497219" lon="17.728391">
        <ele>26.0929</ele>
        <time>2014-06-17T13:32:43Z</time>
      </trkpt>
      <trkpt lat="59.9497383" lon="17.7283615">
        <ele>26.0929</ele>
        <time>2014-06-17T13:32:44Z</time>
      </trkpt>
      <trkpt lat="59.949755" lon="17.7283337">
        <ele>26.5736</ele>
        <time>2014-06-17T13:32:45Z</time>
      </trkpt>
      <trkpt lat="59.9497738" lon="17.7283108">
        <ele>28.0155</ele>
        <time>2014-06-17T13:32:46Z</time>
      </trkpt>
      <trkpt lat="59.9497944" lon="17.7282835">
        <ele>29.4575</ele>
        <time>2014-06-17T13:32:47Z</time>
      </trkpt>
      <trkpt lat="59.9498176" lon="17.7282575">
        <ele>31.3801</ele>
        <time>2014-06-17T13:32:48Z</time>
      </trkpt>
      <trkpt lat="59.9498431" lon="17.7282326">
        <ele>33.7834</ele>
        <time>2014-06-17T13:32:49Z</time>
      </trkpt>
      <trkpt lat="59.9498644" lon="17.7282143">
        <ele>35.2255</ele>
        <time>2014-06-17T13:32:50Z</time>
      </trkpt>
      <trkpt lat="59.9498855" lon="17.7281877">
        <ele>36.6675</ele>
        <time>2014-06-17T13:32:51Z</time>
      </trkpt>
      <trkpt lat="59.9499134" lon="17.7281535">
        <ele>39.0707</ele>
        <time>2014-06-17T13:32:52Z</time>
      </trkpt>
      <trkpt lat="59.9499352" lon="17.7281188">
        <ele>40.9934</ele>
        <time>2014-06-17T13:32:53Z</time>
      </trkpt>
      <trkpt lat="59.9499535" lon="17.7280849">
        <ele>41.9547</ele>
        <time>2014-06-17T13:32:54Z</time>
      </trkpt>
      <trkpt lat="59.9499763" lon="17.7280579">
        <ele>44.358</ele>
        <time>2014-06-17T13:32:55Z</time>
      </trkpt>
      <trkpt lat="59.9499889" lon="17.7280358">
        <ele>45.7999</ele>
        <time>2014-06-17T13:32:56Z</time>
      </trkpt>
      <trkpt lat="59.9500021" lon="17.7280207">
        <ele>46.7612</ele>
        <time>2014-06-17T13:32:57Z</time>
      </trkpt>
      <trkpt lat="59.9500171" lon="17.7279959">
        <ele>46.7612</ele>
        <time>2014-06-17T13:32:58Z</time>
      </trkpt>
      <trkpt lat="59.9500389" lon="17.7279864">
        <ele>47.7225</ele>
        <time>2014-06-17T13:32:59Z</time>
      </trkpt>
      <trkpt lat="59.9500565" lon="17.727962">
        <ele>48.684</ele>
        <time>2014-06-17T13:33:00Z</time>
      </trkpt>
      <trkpt lat="59.9500739" lon="17.7279253">
        <ele>49.6453</ele>
        <time>2014-06-17T13:33:01Z</time>
      </trkpt>
      <trkpt lat="59.9500928" lon="17.7278965">
        <ele>51.0872</ele>
        <time>2014-06-17T13:33:02Z</time>
      </trkpt>
      <trkpt lat="59.9501124" lon="17.727874">
        <ele>52.0486</ele>
        <time>2014-06-17T13:33:03Z</time>
      </trkpt>
      <trkpt lat="59.9501291" lon="17.7278487">
        <ele>53.0098</ele>
        <time>2014-06-17T13:33:04Z</time>
      </trkpt>
      <trkpt lat="59.950143" lon="17.7278218">
        <ele>53.9712</ele>
        <time>2014-06-17T13:33:05Z</time>
      </trkpt>
      <trkpt lat="59.9501532" lon="17.7278054">
        <ele>54.4518</ele>
        <time>2014-06-17T13:33:06Z</time>
      </trkpt>
      <trkpt lat="59.9501611" lon="17.7277834">
        <ele>53.9712</ele>
        <time>2014-06-17T13:33:07Z</time>
      </trkpt>
      <trkpt lat="59.9501806" lon="17.727758">
        <ele>54.9324</ele>
        <time>2014-06-17T13:33:08Z</time>
      </trkpt>
      <trkpt lat="59.9502015" lon="17.7277328">
        <ele>55.8938</ele>
        <time>2014-06-17T13:33:09Z</time>
      </trkpt>
      <trkpt lat="59.9502254" lon="17.7277115">
        <ele>56.8551</ele>
        <time>2014-06-17T13:33:10Z</time>
      </trkpt>
      <trkpt lat="59.9502491" lon="17.7276867">
        <ele>58.2971</ele>
        <time>2014-06-17T13:33:11Z</time>
      </trkpt>
      <trkpt lat="59.9502703" lon="17.7276659">
        <ele>60.7003</ele>
        <time>2014-06-17T13:33:12Z</time>
      </trkpt>
      <trkpt lat="59.9502922" lon="17.7276433">
        <ele>62.6229</ele>
        <time>2014-06-17T13:33:13Z</time>
      </trkpt>
      <trkpt lat="59.9503145" lon="17.7276214">
        <ele>63.5844</ele>
        <time>2014-06-17T13:33:14Z</time>
      </trkpt>
      <trkpt lat="59.9503356" lon="17.7275995">
        <ele>64.0651</ele>
        <time>2014-06-17T13:33:15Z</time>
      </trkpt>
      <trkpt lat="59.9503518" lon="17.7275742">
        <ele>63.5844</ele>
        <time>2014-06-17T13:33:16Z</time>
      </trkpt>
      <trkpt lat="59.9503645" lon="17.7275616">
        <ele>62.1423</ele>
        <time>2014-06-17T13:33:17Z</time>
      </trkpt>
      <trkpt lat="59.950477" lon="17.7274593">
        <ele>75.1202</ele>
        <time>2014-06-17T13:33:41Z</time>
      </trkpt>
      <trkpt lat="59.9504694" lon="17.7274326">
        <ele>73.6782</ele>
        <time>2014-06-17T13:33:42Z</time>
      </trkpt>
      <trkpt lat="59.9504731" lon="17.7274195">
        <ele>73.6782</ele>
        <time>2014-06-17T13:33:43Z</time>
      </trkpt>
      <trkpt lat="59.950486" lon="17.7274212">
        <ele>74.6395</ele>
        <time>2014-06-17T13:33:44Z</time>
      </trkpt>
      <trkpt lat="59.9504977" lon="17.727413">
        <ele>74.6395</ele>
        <time>2014-06-17T13:33:45Z</time>
      </trkpt>
      <trkpt lat="59.9505154" lon="17.7273962">
        <ele>75.1202</ele>
        <time>2014-06-17T13:33:46Z</time>
      </trkpt>
      <trkpt lat="59.9505354" lon="17.7273795">
        <ele>75.6008</ele>
        <time>2014-06-17T13:33:47Z</time>
      </trkpt>
      <trkpt lat="59.9505544" lon="17.7273675">
        <ele>75.6008</ele>
        <time>2014-06-17T13:33:48Z</time>
      </trkpt>
      <trkpt lat="59.9505704" lon="17.7273677">
        <ele>75.1202</ele>
        <time>2014-06-17T13:33:49Z</time>
      </trkpt>
      <trkpt lat="59.9505871" lon="17.7273625">
        <ele>74.6395</ele>
        <time>2014-06-17T13:33:50Z</time>
      </trkpt>
      <trkpt lat="59.9506023" lon="17.7273615">
        <ele>74.1588</ele>
        <time>2014-06-17T13:33:51Z</time>
      </trkpt>
      <trkpt lat="59.9506174" lon="17.7273495">
        <ele>74.1588</ele>
        <time>2014-06-17T13:33:52Z</time>
      </trkpt>
      <trkpt lat="59.9506365" lon="17.7273295">
        <ele>74.1588</ele>
        <time>2014-06-17T13:33:53Z</time>
      </trkpt>
      <trkpt lat="59.9506591" lon="17.7273171">
        <ele>75.1202</ele>
        <time>2014-06-17T13:33:54Z</time>
      </trkpt>
      <trkpt lat="59.950674" lon="17.727308">
        <ele>74.1588</ele>
        <time>2014-06-17T13:33:55Z</time>
      </trkpt>
      <trkpt lat="59.9506937" lon="17.7272941">
        <ele>74.1588</ele>
        <time>2014-06-17T13:33:56Z</time>
      </trkpt>
      <trkpt lat="59.9507108" lon="17.7272815">
        <ele>73.6782</ele>
        <time>2014-06-17T13:33:57Z</time>
      </trkpt>
      <trkpt lat="59.9507341" lon="17.7272659">
        <ele>74.1588</ele>
        <time>2014-06-17T13:33:58Z</time>
      </trkpt>
      <trkpt lat="59.9507528" lon="17.7272469">
        <ele>73.6782</ele>
        <time>2014-06-17T13:33:59Z</time>
      </trkpt>
      <trkpt lat="59.950768" lon="17.7272435">
        <ele>74.1588</ele>
        <time>2014-06-17T13:34:00Z</time>
      </trkpt>
      <trkpt lat="59.9507836" lon="17.7272376">
        <ele>74.1588</ele>
        <time>2014-06-17T13:34:01Z</time>
      </trkpt>
      <trkpt lat="59.9507974" lon="17.727219">
        <ele>74.6395</ele>
        <time>2014-06-17T13:34:02Z</time>
      </trkpt>
      <trkpt lat="59.9508211" lon="17.727198">
        <ele>76.0814</ele>
        <time>2014-06-17T13:34:03Z</time>
      </trkpt>
      <trkpt lat="59.950833" lon="17.7271778">
        <ele>75.6008</ele>
        <time>2014-06-17T13:34:04Z</time>
      </trkpt>
      <trkpt lat="59.9508505" lon="17.7271592">
        <ele>75.6008</ele>
        <time>2014-06-17T13:34:05Z</time>
      </trkpt>
      <trkpt lat="59.950876" lon="17.7271401">
        <ele>76.5621</ele>
        <time>2014-06-17T13:34:06Z</time>
      </trkpt>
      <trkpt lat="59.9508967" lon="17.7271258">
        <ele>76.5621</ele>
        <time>2014-06-17T13:34:07Z</time>
      </trkpt>
      <trkpt lat="59.9509168" lon="17.7271025">
        <ele>76.0814</ele>
        <time>2014-06-17T13:34:08Z</time>
      </trkpt>
      <trkpt lat="59.9509444" lon="17.727079">
        <ele>76.5621</ele>
        <time>2014-06-17T13:34:09Z</time>
      </trkpt>
      <trkpt lat="59.9509642" lon="17.7270675">
        <ele>76.0814</ele>
        <time>2014-06-17T13:34:10Z</time>
      </trkpt>
      <trkpt lat="59.9509844" lon="17.7270488">
        <ele>75.6008</ele>
        <time>2014-06-17T13:34:11Z</time>
      </trkpt>
      <trkpt lat="59.9509988" lon="17.7270301">
        <ele>74.1588</ele>
        <time>2014-06-17T13:34:12Z</time>
      </trkpt>
      <trkpt lat="59.9510159" lon="17.7270034">
        <ele>73.6782</ele>
        <time>2014-06-17T13:34:13Z</time>
      </trkpt>
      <trkpt lat="59.9510398" lon="17.7269812">
        <ele>74.1588</ele>
        <time>2014-06-17T13:34:14Z</time>
      </trkpt>
      <trkpt lat="59.9510676" lon="17.7269661">
        <ele>74.6395</ele>
        <time>2014-06-17T13:34:15Z</time>
      </trkpt>
      <trkpt lat="59.9510916" lon="17.7269515">
        <ele>74.6395</ele>
        <time>2014-06-17T13:34:16Z</time>
      </trkpt>
      <trkpt lat="59.951113" lon="17.7269307">
        <ele>74.1588</ele>
        <time>2014-06-17T13:34:17Z</time>
      </trkpt>
      <trkpt lat="59.9511346" lon="17.7269153">
        <ele>74.1588</ele>
        <time>2014-06-17T13:34:18Z</time>
      </trkpt>
      <trkpt lat="59.9511501" lon="17.7268989">
        <ele>73.1976</ele>
        <time>2014-06-17T13:34:19Z</time>
      </trkpt>
      <trkpt lat="59.9511648" lon="17.7268858">
        <ele>71.2749</ele>
        <time>2014-06-17T13:34:20Z</time>
      </trkpt>
      <trkpt lat="59.9511843" lon="17.7268697">
        <ele>70.3135</ele>
        <time>2014-06-17T13:34:21Z</time>
      </trkpt>
      <trkpt lat="59.9512013" lon="17.7268439">
        <ele>68.8716</ele>
        <time>2014-06-17T13:34:22Z</time>
      </trkpt>
      <trkpt lat="59.9512156" lon="17.7268172">
        <ele>67.4297</ele>
        <time>2014-06-17T13:34:23Z</time>
      </trkpt>
      <trkpt lat="59.9512276" lon="17.7267901">
        <ele>65.9877</ele>
        <time>2014-06-17T13:34:24Z</time>
      </trkpt>
      <trkpt lat="59.9512407" lon="17.7267701">
        <ele>64.5457</ele>
        <time>2014-06-17T13:34:25Z</time>
      </trkpt>
      <trkpt lat="59.9512532" lon="17.7267563">
        <ele>62.6229</ele>
        <time>2014-06-17T13:34:26Z</time>
      </trkpt>
      <trkpt lat="59.9512669" lon="17.7267365">
        <ele>61.181</ele>
        <time>2014-06-17T13:34:27Z</time>
      </trkpt>
      <trkpt lat="59.9512803" lon="17.7267149">
        <ele>59.7391</ele>
        <time>2014-06-17T13:34:28Z</time>
      </trkpt>
      <trkpt lat="59.951292" lon="17.7266911">
        <ele>57.8165</ele>
        <time>2014-06-17T13:34:29Z</time>
      </trkpt>
      <trkpt lat="59.9513012" lon="17.7266688">
        <ele>55.8938</ele>
        <time>2014-06-17T13:34:30Z</time>
      </trkpt>
      <trkpt lat="59.951309" lon="17.7266454">
        <ele>53.4905</ele>
        <time>2014-06-17T13:34:31Z</time>
      </trkpt>
      <trkpt lat="59.9513179" lon="17.7266207">
        <ele>52.0486</ele>
        <time>2014-06-17T13:34:32Z</time>
      </trkpt>
      <trkpt lat="59.9513256" lon="17.7265926">
        <ele>49.6453</ele>
        <time>2014-06-17T13:34:33Z</time>
      </trkpt>
      <trkpt lat="59.9513387" lon="17.7265699">
        <ele>48.684</ele>
        <time>2014-06-17T13:34:34Z</time>
      </trkpt>
      <trkpt lat="59.9513479" lon="17.7265362">
        <ele>47.2418</ele>
        <time>2014-06-17T13:34:35Z</time>
      </trkpt>
      <trkpt lat="59.9513566" lon="17.7265031">
        <ele>45.7999</ele>
        <time>2014-06-17T13:34:36Z</time>
      </trkpt>
      <trkpt lat="59.9513638" lon="17.7264709">
        <ele>43.8773</ele>
        <time>2014-06-17T13:34:37Z</time>
      </trkpt>
      <trkpt lat="59.9513808" lon="17.7264362">
        <ele>44.8386</ele>
        <time>2014-06-17T13:34:38Z</time>
      </trkpt>
      <trkpt lat="59.951398" lon="17.7263963">
        <ele>46.2806</ele>
        <time>2014-06-17T13:34:39Z</time>
      </trkpt>
      <trkpt lat="59.9514145" lon="17.7263547">
        <ele>46.7612</ele>
        <time>2014-06-17T13:34:40Z</time>
      </trkpt>
      <trkpt lat="59.9514327" lon="17.7263146">
        <ele>48.2034</ele>
        <time>2014-06-17T13:34:41Z</time>
      </trkpt>
      <trkpt lat="59.9514449" lon="17.7262746">
        <ele>48.2034</ele>
        <time>2014-06-17T13:34:42Z</time>
      </trkpt>
      <trkpt lat="59.9514557" lon="17.7262393">
        <ele>46.7612</ele>
        <time>2014-06-17T13:34:43Z</time>
      </trkpt>
      <trkpt lat="59.9514691" lon="17.7262057">
        <ele>45.7999</ele>
        <time>2014-06-17T13:34:44Z</time>
      </trkpt>
      <trkpt lat="59.9514769" lon="17.7261682">
        <ele>44.358</ele>
        <time>2014-06-17T13:34:45Z</time>
      </trkpt>
      <trkpt lat="59.9514819" lon="17.7261321">
        <ele>42.916</ele>
        <time>2014-06-17T13:34:46Z</time>
      </trkpt>
      <trkpt lat="59.9514903" lon="17.7260952">
        <ele>41.474</ele>
        <time>2014-06-17T13:34:47Z</time>
      </trkpt>
      <trkpt lat="59.9515132" lon="17.7260581">
        <ele>43.8773</ele>
        <time>2014-06-17T13:34:48Z</time>
      </trkpt>
      <trkpt lat="59.9515223" lon="17.7260231">
        <ele>43.8773</ele>
        <time>2014-06-17T13:34:49Z</time>
      </trkpt>
      <trkpt lat="59.9515305" lon="17.7259937">
        <ele>43.3966</ele>
        <time>2014-06-17T13:34:50Z</time>
      </trkpt>
      <trkpt lat="59.9515396" lon="17.7259617">
        <ele>42.916</ele>
        <time>2014-06-17T13:34:51Z</time>
      </trkpt>
      <trkpt lat="59.9515438" lon="17.725925">
        <ele>41.474</ele>
        <time>2014-06-17T13:34:52Z</time>
      </trkpt>
      <trkpt lat="59.9515525" lon="17.7258845">
        <ele>41.474</ele>
        <time>2014-06-17T13:34:53Z</time>
      </trkpt>
      <trkpt lat="59.9515673" lon="17.7258494">
        <ele>41.9547</ele>
        <time>2014-06-17T13:34:54Z</time>
      </trkpt>
      <trkpt lat="59.9515803" lon="17.725813">
        <ele>42.916</ele>
        <time>2014-06-17T13:34:55Z</time>
      </trkpt>
      <trkpt lat="59.9515846" lon="17.7257709">
        <ele>42.4354</ele>
        <time>2014-06-17T13:34:56Z</time>
      </trkpt>
      <trkpt lat="59.9515884" lon="17.7257321">
        <ele>41.9547</ele>
        <time>2014-06-17T13:34:57Z</time>
      </trkpt>
      <trkpt lat="59.9515992" lon="17.7256911">
        <ele>41.474</ele>
        <time>2014-06-17T13:34:58Z</time>
      </trkpt>
      <trkpt lat="59.951609" lon="17.7256512">
        <ele>40.9934</ele>
        <time>2014-06-17T13:34:59Z</time>
      </trkpt>
      <trkpt lat="59.9516215" lon="17.7256167">
        <ele>40.5128</ele>
        <time>2014-06-17T13:35:00Z</time>
      </trkpt>
      <trkpt lat="59.9516319" lon="17.725582">
        <ele>40.0321</ele>
        <time>2014-06-17T13:35:01Z</time>
      </trkpt>
      <trkpt lat="59.9516415" lon="17.7255431">
        <ele>39.0707</ele>
        <time>2014-06-17T13:35:02Z</time>
      </trkpt>
      <trkpt lat="59.9516503" lon="17.7255113">
        <ele>38.5901</ele>
        <time>2014-06-17T13:35:03Z</time>
      </trkpt>
      <trkpt lat="59.9516557" lon="17.7254808">
        <ele>37.6287</ele>
        <time>2014-06-17T13:35:04Z</time>
      </trkpt>
      <trkpt lat="59.9516686" lon="17.7254494">
        <ele>37.6287</ele>
        <time>2014-06-17T13:35:05Z</time>
      </trkpt>
      <trkpt lat="59.9516831" lon="17.725417">
        <ele>36.6675</ele>
        <time>2014-06-17T13:35:06Z</time>
      </trkpt>
      <trkpt lat="59.9517007" lon="17.7253839">
        <ele>37.1481</ele>
        <time>2014-06-17T13:35:07Z</time>
      </trkpt>
      <trkpt lat="59.9517146" lon="17.7253557">
        <ele>36.6675</ele>
        <time>2014-06-17T13:35:08Z</time>
      </trkpt>
      <trkpt lat="59.9517298" lon="17.725339">
        <ele>35.7061</ele>
        <time>2014-06-17T13:35:09Z</time>
      </trkpt>
      <trkpt lat="59.9517504" lon="17.7253171">
        <ele>36.6675</ele>
        <time>2014-06-17T13:35:10Z</time>
      </trkpt>
      <trkpt lat="59.9517669" lon="17.7252862">
        <ele>36.6675</ele>
        <time>2014-06-17T13:35:11Z</time>
      </trkpt>
      <trkpt lat="59.9517779" lon="17.7252582">
        <ele>35.7061</ele>
        <time>2014-06-17T13:35:12Z</time>
      </trkpt>
      <trkpt lat="59.9517913" lon="17.7252291">
        <ele>35.2255</ele>
        <time>2014-06-17T13:35:13Z</time>
      </trkpt>
      <trkpt lat="59.9518075" lon="17.7251992">
        <ele>34.2642</ele>
        <time>2014-06-17T13:35:14Z</time>
      </trkpt>
      <trkpt lat="59.951825" lon="17.7251682">
        <ele>34.7449</ele>
        <time>2014-06-17T13:35:15Z</time>
      </trkpt>
      <trkpt lat="59.9518408" lon="17.7251375">
        <ele>35.2255</ele>
        <time>2014-06-17T13:35:16Z</time>
      </trkpt>
      <trkpt lat="59.9518545" lon="17.7251">
        <ele>35.2255</ele>
        <time>2014-06-17T13:35:17Z</time>
      </trkpt>
      <trkpt lat="59.9518735" lon="17.725064">
        <ele>35.2255</ele>
        <time>2014-06-17T13:35:18Z</time>
      </trkpt>
      <trkpt lat="59.9518919" lon="17.7250308">
        <ele>35.7061</ele>
        <time>2014-06-17T13:35:19Z</time>
      </trkpt>
      <trkpt lat="59.9519103" lon="17.7249924">
        <ele>36.1868</ele>
        <time>2014-06-17T13:35:20Z</time>
      </trkpt>
      <trkpt lat="59.9519265" lon="17.7249553">
        <ele>36.6675</ele>
        <time>2014-06-17T13:35:21Z</time>
      </trkpt>
      <trkpt lat="59.9519411" lon="17.7249255">
        <ele>37.6287</ele>
        <time>2014-06-17T13:35:22Z</time>
      </trkpt>
      <trkpt lat="59.9519483" lon="17.7248889">
        <ele>36.6675</ele>
        <time>2014-06-17T13:35:23Z</time>
      </trkpt>
      <trkpt lat="59.951954" lon="17.7248473">
        <ele>36.6675</ele>
        <time>2014-06-17T13:35:24Z</time>
      </trkpt>
      <trkpt lat="59.951961" lon="17.7248084">
        <ele>36.6675</ele>
        <time>2014-06-17T13:35:25Z</time>
      </trkpt>
      <trkpt lat="59.9519691" lon="17.7247723">
        <ele>37.1481</ele>
        <time>2014-06-17T13:35:26Z</time>
      </trkpt>
      <trkpt lat="59.9519791" lon="17.7247331">
        <ele>37.1481</ele>
        <time>2014-06-17T13:35:27Z</time>
      </trkpt>
      <trkpt lat="59.9519907" lon="17.7247006">
        <ele>37.6287</ele>
        <time>2014-06-17T13:35:28Z</time>
      </trkpt>
      <trkpt lat="59.9520001" lon="17.724664">
        <ele>37.6287</ele>
        <time>2014-06-17T13:35:29Z</time>
      </trkpt>
      <trkpt lat="59.9520067" lon="17.7246226">
        <ele>37.6287</ele>
        <time>2014-06-17T13:35:30Z</time>
      </trkpt>
      <trkpt lat="59.9520159" lon="17.7245858">
        <ele>37.6287</ele>
        <time>2014-06-17T13:35:31Z</time>
      </trkpt>
      <trkpt lat="59.9520239" lon="17.7245439">
        <ele>37.6287</ele>
        <time>2014-06-17T13:35:32Z</time>
      </trkpt>
      <trkpt lat="59.9520322" lon="17.7245004">
        <ele>37.6287</ele>
        <time>2014-06-17T13:35:33Z</time>
      </trkpt>
      <trkpt lat="59.9520405" lon="17.7244616">
        <ele>37.6287</ele>
        <time>2014-06-17T13:35:34Z</time>
      </trkpt>
      <trkpt lat="59.9520487" lon="17.724419">
        <ele>37.1481</ele>
        <time>2014-06-17T13:35:35Z</time>
      </trkpt>
      <trkpt lat="59.9520616" lon="17.7243792">
        <ele>37.1481</ele>
        <time>2014-06-17T13:35:36Z</time>
      </trkpt>
      <trkpt lat="59.9520705" lon="17.7243408">
        <ele>37.1481</ele>
        <time>2014-06-17T13:35:37Z</time>
      </trkpt>
      <trkpt lat="59.9520762" lon="17.7243056">
        <ele>37.6287</ele>
        <time>2014-06-17T13:35:38Z</time>
      </trkpt>
      <trkpt lat="59.9520767" lon="17.7242595">
        <ele>37.1481</ele>
        <time>2014-06-17T13:35:39Z</time>
      </trkpt>
      <trkpt lat="59.9520876" lon="17.7242153">
        <ele>38.1094</ele>
        <time>2014-06-17T13:35:40Z</time>
      </trkpt>
      <trkpt lat="59.952103" lon="17.7241778">
        <ele>39.0707</ele>
        <time>2014-06-17T13:35:41Z</time>
      </trkpt>
      <trkpt lat="59.9521187" lon="17.7241409">
        <ele>41.474</ele>
        <time>2014-06-17T13:35:42Z</time>
      </trkpt>
      <trkpt lat="59.9521296" lon="17.7241133">
        <ele>42.4354</ele>
        <time>2014-06-17T13:35:43Z</time>
      </trkpt>
      <trkpt lat="59.9521397" lon="17.7240814">
        <ele>43.3966</ele>
        <time>2014-06-17T13:35:44Z</time>
      </trkpt>
      <trkpt lat="59.9521444" lon="17.7240388">
        <ele>42.916</ele>
        <time>2014-06-17T13:35:45Z</time>
      </trkpt>
      <trkpt lat="59.9521501" lon="17.7239937">
        <ele>42.916</ele>
        <time>2014-06-17T13:35:46Z</time>
      </trkpt>
      <trkpt lat="59.9521561" lon="17.7239542">
        <ele>42.4354</ele>
        <time>2014-06-17T13:35:47Z</time>
      </trkpt>
      <trkpt lat="59.9521617" lon="17.7239105">
        <ele>41.9547</ele>
        <time>2014-06-17T13:35:48Z</time>
      </trkpt>
      <trkpt lat="59.95217" lon="17.7238693">
        <ele>41.474</ele>
        <time>2014-06-17T13:35:49Z</time>
      </trkpt>
      <trkpt lat="59.9521797" lon="17.7238309">
        <ele>41.474</ele>
        <time>2014-06-17T13:35:50Z</time>
      </trkpt>
      <trkpt lat="59.9521879" lon="17.7237913">
        <ele>41.474</ele>
        <time>2014-06-17T13:35:51Z</time>
      </trkpt>
      <trkpt lat="59.9521974" lon="17.7237534">
        <ele>41.9547</ele>
        <time>2014-06-17T13:35:52Z</time>
      </trkpt>
      <trkpt lat="59.9522042" lon="17.7237139">
        <ele>41.474</ele>
        <time>2014-06-17T13:35:53Z</time>
      </trkpt>
      <trkpt lat="59.9522119" lon="17.7236783">
        <ele>41.474</ele>
        <time>2014-06-17T13:35:54Z</time>
      </trkpt>
      <trkpt lat="59.9522222" lon="17.72364">
        <ele>41.9547</ele>
        <time>2014-06-17T13:35:55Z</time>
      </trkpt>
      <trkpt lat="59.952232" lon="17.7235932">
        <ele>42.4354</ele>
        <time>2014-06-17T13:35:56Z</time>
      </trkpt>
      <trkpt lat="59.9522451" lon="17.7235544">
        <ele>43.3966</ele>
        <time>2014-06-17T13:35:57Z</time>
      </trkpt>
      <trkpt lat="59.9522611" lon="17.723527">
        <ele>44.358</ele>
        <time>2014-06-17T13:35:58Z</time>
      </trkpt>
      <trkpt lat="59.952277" lon="17.723496">
        <ele>44.8386</ele>
        <time>2014-06-17T13:35:59Z</time>
      </trkpt>
      <trkpt lat="59.9522915" lon="17.7234634">
        <ele>44.358</ele>
        <time>2014-06-17T13:36:00Z</time>
      </trkpt>
      <trkpt lat="59.9523109" lon="17.7234259">
        <ele>44.8386</ele>
        <time>2014-06-17T13:36:01Z</time>
      </trkpt>
      <trkpt lat="59.9523234" lon="17.7233834">
        <ele>44.8386</ele>
        <time>2014-06-17T13:36:02Z</time>
      </trkpt>
      <trkpt lat="59.9523374" lon="17.7233414">
        <ele>44.8386</ele>
        <time>2014-06-17T13:36:03Z</time>
      </trkpt>
      <trkpt lat="59.9523497" lon="17.7233041">
        <ele>44.8386</ele>
        <time>2014-06-17T13:36:04Z</time>
      </trkpt>
      <trkpt lat="59.9523609" lon="17.7232656">
        <ele>44.358</ele>
        <time>2014-06-17T13:36:05Z</time>
      </trkpt>
      <trkpt lat="59.9523794" lon="17.723227">
        <ele>45.3192</ele>
        <time>2014-06-17T13:36:06Z</time>
      </trkpt>
      <trkpt lat="59.9523938" lon="17.7231904">
        <ele>45.3192</ele>
        <time>2014-06-17T13:36:07Z</time>
      </trkpt>
      <trkpt lat="59.9524067" lon="17.7231567">
        <ele>45.7999</ele>
        <time>2014-06-17T13:36:08Z</time>
      </trkpt>
      <trkpt lat="59.9524153" lon="17.7231163">
        <ele>45.3192</ele>
        <time>2014-06-17T13:36:09Z</time>
      </trkpt>
      <trkpt lat="59.9524283" lon="17.7230796">
        <ele>46.2806</ele>
        <time>2014-06-17T13:36:10Z</time>
      </trkpt>
      <trkpt lat="59.9524383" lon="17.7230446">
        <ele>46.7612</ele>
        <time>2014-06-17T13:36:11Z</time>
      </trkpt>
      <trkpt lat="59.9524414" lon="17.7230047">
        <ele>46.2806</ele>
        <time>2014-06-17T13:36:12Z</time>
      </trkpt>
      <trkpt lat="59.9524449" lon="17.722965">
        <ele>45.7999</ele>
        <time>2014-06-17T13:36:13Z</time>
      </trkpt>
      <trkpt lat="59.9524522" lon="17.7229226">
        <ele>44.8386</ele>
        <time>2014-06-17T13:36:14Z</time>
      </trkpt>
      <trkpt lat="59.9524637" lon="17.7228786">
        <ele>44.358</ele>
        <time>2014-06-17T13:36:15Z</time>
      </trkpt>
      <trkpt lat="59.9524664" lon="17.722837">
        <ele>43.3966</ele>
        <time>2014-06-17T13:36:16Z</time>
      </trkpt>
      <trkpt lat="59.9524632" lon="17.7227945">
        <ele>42.4354</ele>
        <time>2014-06-17T13:36:17Z</time>
      </trkpt>
      <trkpt lat="59.9524818" lon="17.7227628">
        <ele>44.8386</ele>
        <time>2014-06-17T13:36:18Z</time>
      </trkpt>
      <trkpt lat="59.9525015" lon="17.7227325">
        <ele>46.7612</ele>
        <time>2014-06-17T13:36:19Z</time>
      </trkpt>
      <trkpt lat="59.9525104" lon="17.7226992">
        <ele>46.2806</ele>
        <time>2014-06-17T13:36:20Z</time>
      </trkpt>
      <trkpt lat="59.9525308" lon="17.7226702">
        <ele>48.684</ele>
        <time>2014-06-17T13:36:21Z</time>
      </trkpt>
      <trkpt lat="59.9525378" lon="17.7226205">
        <ele>46.7612</ele>
        <time>2014-06-17T13:36:22Z</time>
      </trkpt>
      <trkpt lat="59.9525512" lon="17.72258">
        <ele>46.2806</ele>
        <time>2014-06-17T13:36:23Z</time>
      </trkpt>
      <trkpt lat="59.9525559" lon="17.7225343">
        <ele>45.3192</ele>
        <time>2014-06-17T13:36:24Z</time>
      </trkpt>
      <trkpt lat="59.9525604" lon="17.7224935">
        <ele>44.358</ele>
        <time>2014-06-17T13:36:25Z</time>
      </trkpt>
      <trkpt lat="59.9525641" lon="17.7224611">
        <ele>42.916</ele>
        <time>2014-06-17T13:36:26Z</time>
      </trkpt>
      <trkpt lat="59.9525718" lon="17.7224248">
        <ele>41.9547</ele>
        <time>2014-06-17T13:36:27Z</time>
      </trkpt>
      <trkpt lat="59.9525824" lon="17.7223889">
        <ele>41.9547</ele>
        <time>2014-06-17T13:36:28Z</time>
      </trkpt>
      <trkpt lat="59.9525963" lon="17.7223511">
        <ele>41.9547</ele>
        <time>2014-06-17T13:36:29Z</time>
      </trkpt>
      <trkpt lat="59.9526077" lon="17.7223169">
        <ele>41.474</ele>
        <time>2014-06-17T13:36:30Z</time>
      </trkpt>
      <trkpt lat="59.9526189" lon="17.7222868">
        <ele>41.474</ele>
        <time>2014-06-17T13:36:31Z</time>
      </trkpt>
      <trkpt lat="59.9526274" lon="17.7222601">
        <ele>41.474</ele>
        <time>2014-06-17T13:36:32Z</time>
      </trkpt>
      <trkpt lat="59.9526435" lon="17.7222269">
        <ele>41.474</ele>
        <time>2014-06-17T13:36:33Z</time>
      </trkpt>
      <trkpt lat="59.9526672" lon="17.722203">
        <ele>43.3966</ele>
        <time>2014-06-17T13:36:34Z</time>
      </trkpt>
      <trkpt lat="59.9526947" lon="17.7221767">
        <ele>45.7999</ele>
        <time>2014-06-17T13:36:35Z</time>
      </trkpt>
      <trkpt lat="59.9527186" lon="17.7221461">
        <ele>47.2418</ele>
        <time>2014-06-17T13:36:36Z</time>
      </trkpt>
      <trkpt lat="59.952744" lon="17.7221189">
        <ele>49.1646</ele>
        <time>2014-06-17T13:36:37Z</time>
      </trkpt>
      <trkpt lat="59.9527626" lon="17.7220952">
        <ele>50.126</ele>
        <time>2014-06-17T13:36:38Z</time>
      </trkpt>
      <trkpt lat="59.9527815" lon="17.722074">
        <ele>51.5679</ele>
        <time>2014-06-17T13:36:39Z</time>
      </trkpt>
      <trkpt lat="59.9527968" lon="17.7220291">
        <ele>52.5292</ele>
        <time>2014-06-17T13:36:40Z</time>
      </trkpt>
      <trkpt lat="59.9528201" lon="17.7220056">
        <ele>55.4131</ele>
        <time>2014-06-17T13:36:41Z</time>
      </trkpt>
      <trkpt lat="59.9528377" lon="17.7219869">
        <ele>55.8938</ele>
        <time>2014-06-17T13:36:42Z</time>
      </trkpt>
      <trkpt lat="59.9528598" lon="17.7219688">
        <ele>57.3358</ele>
        <time>2014-06-17T13:36:43Z</time>
      </trkpt>
      <trkpt lat="59.9528863" lon="17.7219503">
        <ele>59.2584</ele>
        <time>2014-06-17T13:36:44Z</time>
      </trkpt>
      <trkpt lat="59.952915" lon="17.7219275">
        <ele>62.1423</ele>
        <time>2014-06-17T13:36:45Z</time>
      </trkpt>
      <trkpt lat="59.9529392" lon="17.721905">
        <ele>63.5844</ele>
        <time>2014-06-17T13:36:46Z</time>
      </trkpt>
      <trkpt lat="59.9529668" lon="17.7218844">
        <ele>65.0264</ele>
        <time>2014-06-17T13:36:47Z</time>
      </trkpt>
      <trkpt lat="59.9529989" lon="17.7218647">
        <ele>68.3909</ele>
        <time>2014-06-17T13:36:48Z</time>
      </trkpt>
      <trkpt lat="59.95303" lon="17.7218421">
        <ele>71.2749</ele>
        <time>2014-06-17T13:36:49Z</time>
      </trkpt>
      <trkpt lat="59.9530558" lon="17.7218207">
        <ele>73.1976</ele>
        <time>2014-06-17T13:36:50Z</time>
      </trkpt>
      <trkpt lat="59.9530769" lon="17.7218067">
        <ele>73.6782</ele>
        <time>2014-06-17T13:36:51Z</time>
      </trkpt>
      <trkpt lat="59.9530983" lon="17.7217944">
        <ele>75.1202</ele>
        <time>2014-06-17T13:36:52Z</time>
      </trkpt>
      <trkpt lat="59.9531236" lon="17.7217773">
        <ele>77.0428</ele>
        <time>2014-06-17T13:36:53Z</time>
      </trkpt>
      <trkpt lat="59.9531486" lon="17.7217607">
        <ele>78.9655</ele>
        <time>2014-06-17T13:36:54Z</time>
      </trkpt>
      <trkpt lat="59.9531711" lon="17.7217387">
        <ele>80.4075</ele>
        <time>2014-06-17T13:36:55Z</time>
      </trkpt>
      <trkpt lat="59.9531967" lon="17.7217149">
        <ele>82.3301</ele>
        <time>2014-06-17T13:36:56Z</time>
      </trkpt>
      <trkpt lat="59.9532209" lon="17.7216929">
        <ele>83.772</ele>
        <time>2014-06-17T13:36:57Z</time>
      </trkpt>
      <trkpt lat="59.9532421" lon="17.7216643">
        <ele>85.214</ele>
        <time>2014-06-17T13:36:58Z</time>
      </trkpt>
      <trkpt lat="59.9532635" lon="17.721627">
        <ele>86.1753</ele>
        <time>2014-06-17T13:36:59Z</time>
      </trkpt>
      <trkpt lat="59.9532899" lon="17.7215969">
        <ele>87.6172</ele>
        <time>2014-06-17T13:37:00Z</time>
      </trkpt>
      <trkpt lat="59.9533257" lon="17.7215751">
        <ele>91.4625</ele>
        <time>2014-06-17T13:37:01Z</time>
      </trkpt>
      <trkpt lat="59.9533565" lon="17.7215367">
        <ele>94.8271</ele>
        <time>2014-06-17T13:37:02Z</time>
      </trkpt>
      <trkpt lat="59.9533723" lon="17.7214983">
        <ele>96.2693</ele>
        <time>2014-06-17T13:37:03Z</time>
      </trkpt>
      <trkpt lat="59.9533841" lon="17.7214612">
        <ele>96.2693</ele>
        <time>2014-06-17T13:37:04Z</time>
      </trkpt>
      <trkpt lat="59.9534054" lon="17.7214247">
        <ele>98.1919</ele>
        <time>2014-06-17T13:37:05Z</time>
      </trkpt>
      <trkpt lat="59.953427" lon="17.7213933">
        <ele>99.1531</ele>
        <time>2014-06-17T13:37:06Z</time>
      </trkpt>
      <trkpt lat="59.9534412" lon="17.7213649">
        <ele>99.6338</ele>
        <time>2014-06-17T13:37:07Z</time>
      </trkpt>
      <trkpt lat="59.9534536" lon="17.721338">
        <ele>100.115</ele>
        <time>2014-06-17T13:37:08Z</time>
      </trkpt>
      <trkpt lat="59.9534646" lon="17.7213123">
        <ele>100.595</ele>
        <time>2014-06-17T13:37:09Z</time>
      </trkpt>
      <trkpt lat="59.9534681" lon="17.721265">
        <ele>99.6338</ele>
        <time>2014-06-17T13:37:10Z</time>
      </trkpt>
      <trkpt lat="59.9534769" lon="17.721225">
        <ele>99.6338</ele>
        <time>2014-06-17T13:37:11Z</time>
      </trkpt>
      <trkpt lat="59.953475" lon="17.7211808">
        <ele>97.7112</ele>
        <time>2014-06-17T13:37:12Z</time>
      </trkpt>
      <trkpt lat="59.9534793" lon="17.7211447">
        <ele>98.1919</ele>
        <time>2014-06-17T13:37:13Z</time>
      </trkpt>
      <trkpt lat="59.9534676" lon="17.7211105">
        <ele>94.3466</ele>
        <time>2014-06-17T13:37:14Z</time>
      </trkpt>
      <trkpt lat="59.9534581" lon="17.7210675">
        <ele>90.9819</ele>
        <time>2014-06-17T13:37:15Z</time>
      </trkpt>
      <trkpt lat="59.9534491" lon="17.7210177">
        <ele>88.5787</ele>
        <time>2014-06-17T13:37:16Z</time>
      </trkpt>
      <trkpt lat="59.9534402" lon="17.7209694">
        <ele>87.1366</ele>
        <time>2014-06-17T13:37:17Z</time>
      </trkpt>
      <trkpt lat="59.9534292" lon="17.720926">
        <ele>84.2527</ele>
        <time>2014-06-17T13:37:18Z</time>
      </trkpt>
      <trkpt lat="59.9534187" lon="17.7208743">
        <ele>82.3301</ele>
        <time>2014-06-17T13:37:19Z</time>
      </trkpt>
      <trkpt lat="59.9534132" lon="17.7208161">
        <ele>80.4075</ele>
        <time>2014-06-17T13:37:20Z</time>
      </trkpt>
      <trkpt lat="59.9534026" lon="17.7207598">
        <ele>78.004</ele>
        <time>2014-06-17T13:37:21Z</time>
      </trkpt>
      <trkpt lat="59.9534065" lon="17.7207282">
        <ele>76.5621</ele>
        <time>2014-06-17T13:37:22Z</time>
      </trkpt>
      <trkpt lat="59.9534068" lon="17.7206943">
        <ele>74.6395</ele>
        <time>2014-06-17T13:37:23Z</time>
      </trkpt>
      <trkpt lat="59.9533987" lon="17.720652">
        <ele>71.7555</ele>
        <time>2014-06-17T13:37:24Z</time>
      </trkpt>
      <trkpt lat="59.9533914" lon="17.7206032">
        <ele>68.8716</ele>
        <time>2014-06-17T13:37:25Z</time>
      </trkpt>
      <trkpt lat="59.9533954" lon="17.7205661">
        <ele>66.949</ele>
        <time>2014-06-17T13:37:26Z</time>
      </trkpt>
      <trkpt lat="59.9533956" lon="17.7205266">
        <ele>65.0264</ele>
        <time>2014-06-17T13:37:27Z</time>
      </trkpt>
      <trkpt lat="59.9533926" lon="17.720477">
        <ele>62.6229</ele>
        <time>2014-06-17T13:37:28Z</time>
      </trkpt>
      <trkpt lat="59.9533864" lon="17.7204216">
        <ele>60.2197</ele>
        <time>2014-06-17T13:37:29Z</time>
      </trkpt>
      <trkpt lat="59.9533804" lon="17.7203698">
        <ele>57.3358</ele>
        <time>2014-06-17T13:37:30Z</time>
      </trkpt>
      <trkpt lat="59.9533793" lon="17.7203257">
        <ele>55.4131</ele>
        <time>2014-06-17T13:37:31Z</time>
      </trkpt>
      <trkpt lat="59.9533874" lon="17.7202848">
        <ele>53.4905</ele>
        <time>2014-06-17T13:37:32Z</time>
      </trkpt>
      <trkpt lat="59.9533971" lon="17.7202473">
        <ele>52.5292</ele>
        <time>2014-06-17T13:37:33Z</time>
      </trkpt>
      <trkpt lat="59.9534024" lon="17.720214">
        <ele>51.0872</ele>
        <time>2014-06-17T13:37:34Z</time>
      </trkpt>
      <trkpt lat="59.9534101" lon="17.7201807">
        <ele>50.126</ele>
        <time>2014-06-17T13:37:35Z</time>
      </trkpt>
      <trkpt lat="59.9534153" lon="17.7201475">
        <ele>48.684</ele>
        <time>2014-06-17T13:37:36Z</time>
      </trkpt>
      <trkpt lat="59.9534232" lon="17.7201131">
        <ele>47.2418</ele>
        <time>2014-06-17T13:37:37Z</time>
      </trkpt>
      <trkpt lat="59.9534359" lon="17.7200881">
        <ele>46.7612</ele>
        <time>2014-06-17T13:37:38Z</time>
      </trkpt>
      <trkpt lat="59.9534426" lon="17.7200594">
        <ele>45.3192</ele>
        <time>2014-06-17T13:37:39Z</time>
      </trkpt>
      <trkpt lat="59.9534541" lon="17.7200321">
        <ele>45.3192</ele>
        <time>2014-06-17T13:37:40Z</time>
      </trkpt>
      <trkpt lat="59.9534653" lon="17.7200067">
        <ele>44.358</ele>
        <time>2014-06-17T13:37:41Z</time>
      </trkpt>
      <trkpt lat="59.9534772" lon="17.7199801">
        <ele>42.916</ele>
        <time>2014-06-17T13:37:42Z</time>
      </trkpt>
      <trkpt lat="59.9534879" lon="17.7199533">
        <ele>41.9547</ele>
        <time>2014-06-17T13:37:43Z</time>
      </trkpt>
      <trkpt lat="59.9535064" lon="17.719935">
        <ele>41.9547</ele>
        <time>2014-06-17T13:37:44Z</time>
      </trkpt>
      <trkpt lat="59.9535262" lon="17.7198984">
        <ele>42.916</ele>
        <time>2014-06-17T13:37:45Z</time>
      </trkpt>
      <trkpt lat="59.9535422" lon="17.7198668">
        <ele>42.916</ele>
        <time>2014-06-17T13:37:46Z</time>
      </trkpt>
      <trkpt lat="59.9535602" lon="17.7198382">
        <ele>43.3966</ele>
        <time>2014-06-17T13:37:47Z</time>
      </trkpt>
      <trkpt lat="59.953577" lon="17.7198096">
        <ele>43.8773</ele>
        <time>2014-06-17T13:37:48Z</time>
      </trkpt>
      <trkpt lat="59.9535981" lon="17.719784">
        <ele>45.3192</ele>
        <time>2014-06-17T13:37:49Z</time>
      </trkpt>
      <trkpt lat="59.9536187" lon="17.719761">
        <ele>46.2806</ele>
        <time>2014-06-17T13:37:50Z</time>
      </trkpt>
      <trkpt lat="59.9536366" lon="17.7197288">
        <ele>46.7612</ele>
        <time>2014-06-17T13:37:51Z</time>
      </trkpt>
      <trkpt lat="59.9536519" lon="17.719701">
        <ele>47.7225</ele>
        <time>2014-06-17T13:37:52Z</time>
      </trkpt>
      <trkpt lat="59.9536556" lon="17.719658">
        <ele>47.2418</ele>
        <time>2014-06-17T13:37:53Z</time>
      </trkpt>
      <trkpt lat="59.9536651" lon="17.7196243">
        <ele>46.2806</ele>
        <time>2014-06-17T13:37:54Z</time>
      </trkpt>
      <trkpt lat="59.9536793" lon="17.7195874">
        <ele>47.2418</ele>
        <time>2014-06-17T13:37:55Z</time>
      </trkpt>
      <trkpt lat="59.9536878" lon="17.7195613">
        <ele>47.2418</ele>
        <time>2014-06-17T13:37:56Z</time>
      </trkpt>
      <trkpt lat="59.9537125" lon="17.7195284">
        <ele>50.6066</ele>
        <time>2014-06-17T13:37:57Z</time>
      </trkpt>
      <trkpt lat="59.9537193" lon="17.7194844">
        <ele>50.126</ele>
        <time>2014-06-17T13:37:58Z</time>
      </trkpt>
      <trkpt lat="59.9537354" lon="17.7194351">
        <ele>50.6066</ele>
        <time>2014-06-17T13:37:59Z</time>
      </trkpt>
      <trkpt lat="59.9537452" lon="17.7193938">
        <ele>51.0872</ele>
        <time>2014-06-17T13:38:00Z</time>
      </trkpt>
      <trkpt lat="59.9537519" lon="17.7193561">
        <ele>52.0486</ele>
        <time>2014-06-17T13:38:01Z</time>
      </trkpt>
      <trkpt lat="59.9537673" lon="17.719318">
        <ele>53.9712</ele>
        <time>2014-06-17T13:38:02Z</time>
      </trkpt>
      <trkpt lat="59.9537767" lon="17.7192804">
        <ele>54.9324</ele>
        <time>2014-06-17T13:38:03Z</time>
      </trkpt>
      <trkpt lat="59.9537862" lon="17.7192517">
        <ele>55.4131</ele>
        <time>2014-06-17T13:38:04Z</time>
      </trkpt>
      <trkpt lat="59.9537943" lon="17.7192137">
        <ele>55.4131</ele>
        <time>2014-06-17T13:38:05Z</time>
      </trkpt>
      <trkpt lat="59.9538043" lon="17.7191766">
        <ele>56.8551</ele>
        <time>2014-06-17T13:38:06Z</time>
      </trkpt>
      <trkpt lat="59.9538156" lon="17.7191431">
        <ele>57.8165</ele>
        <time>2014-06-17T13:38:07Z</time>
      </trkpt>
      <trkpt lat="59.9538297" lon="17.7191104">
        <ele>59.2584</ele>
        <time>2014-06-17T13:38:08Z</time>
      </trkpt>
      <trkpt lat="59.9538384" lon="17.7190675">
        <ele>59.2584</ele>
        <time>2014-06-17T13:38:09Z</time>
      </trkpt>
      <trkpt lat="59.9538457" lon="17.7190244">
        <ele>59.2584</ele>
        <time>2014-06-17T13:38:10Z</time>
      </trkpt>
      <trkpt lat="59.953854" lon="17.7189784">
        <ele>59.2584</ele>
        <time>2014-06-17T13:38:11Z</time>
      </trkpt>
      <trkpt lat="59.9538626" lon="17.7189321">
        <ele>60.2197</ele>
        <time>2014-06-17T13:38:12Z</time>
      </trkpt>
      <trkpt lat="59.9538686" lon="17.7188756">
        <ele>61.181</ele>
        <time>2014-06-17T13:38:13Z</time>
      </trkpt>
      <trkpt lat="59.9538743" lon="17.7188203">
        <ele>61.6617</ele>
        <time>2014-06-17T13:38:14Z</time>
      </trkpt>
      <trkpt lat="59.9538839" lon="17.7187811">
        <ele>61.6617</ele>
        <time>2014-06-17T13:38:15Z</time>
      </trkpt>
      <trkpt lat="59.9538883" lon="17.7187308">
        <ele>62.1423</ele>
        <time>2014-06-17T13:38:16Z</time>
      </trkpt>
      <trkpt lat="59.9538918" lon="17.7186768">
        <ele>61.6617</ele>
        <time>2014-06-17T13:38:17Z</time>
      </trkpt>
      <trkpt lat="59.9539032" lon="17.7186252">
        <ele>62.6229</ele>
        <time>2014-06-17T13:38:18Z</time>
      </trkpt>
      <trkpt lat="59.9539074" lon="17.7185781">
        <ele>62.6229</ele>
        <time>2014-06-17T13:38:19Z</time>
      </trkpt>
      <trkpt lat="59.9539135" lon="17.7185459">
        <ele>62.6229</ele>
        <time>2014-06-17T13:38:20Z</time>
      </trkpt>
      <trkpt lat="59.9539183" lon="17.7185058">
        <ele>62.1423</ele>
        <time>2014-06-17T13:38:21Z</time>
      </trkpt>
      <trkpt lat="59.9539281" lon="17.718463">
        <ele>62.1423</ele>
        <time>2014-06-17T13:38:22Z</time>
      </trkpt>
      <trkpt lat="59.9539286" lon="17.718426">
        <ele>61.181</ele>
        <time>2014-06-17T13:38:23Z</time>
      </trkpt>
      <trkpt lat="59.9539308" lon="17.7184027">
        <ele>60.7003</ele>
        <time>2014-06-17T13:38:24Z</time>
      </trkpt>
      <trkpt lat="59.9539295" lon="17.7183737">
        <ele>59.7391</ele>
        <time>2014-06-17T13:38:25Z</time>
      </trkpt>
      <trkpt lat="59.9539246" lon="17.7183335">
        <ele>58.2971</ele>
        <time>2014-06-17T13:38:26Z</time>
      </trkpt>
      <trkpt lat="59.9539244" lon="17.718298">
        <ele>57.3358</ele>
        <time>2014-06-17T13:38:27Z</time>
      </trkpt>
      <trkpt lat="59.9539286" lon="17.7182706">
        <ele>56.8551</ele>
        <time>2014-06-17T13:38:28Z</time>
      </trkpt>
      <trkpt lat="59.9539338" lon="17.7182433">
        <ele>56.3745</ele>
        <time>2014-06-17T13:38:29Z</time>
      </trkpt>
      <trkpt lat="59.9539389" lon="17.7182066">
        <ele>55.8938</ele>
        <time>2014-06-17T13:38:30Z</time>
      </trkpt>
      <trkpt lat="59.9539404" lon="17.7181628">
        <ele>54.9324</ele>
        <time>2014-06-17T13:38:31Z</time>
      </trkpt>
      <trkpt lat="59.9539412" lon="17.7181132">
        <ele>54.4518</ele>
        <time>2014-06-17T13:38:32Z</time>
      </trkpt>
      <trkpt lat="59.9539469" lon="17.7180709">
        <ele>54.4518</ele>
        <time>2014-06-17T13:38:33Z</time>
      </trkpt>
      <trkpt lat="59.953958" lon="17.718037">
        <ele>55.4131</ele>
        <time>2014-06-17T13:38:34Z</time>
      </trkpt>
      <trkpt lat="59.953965" lon="17.7179983">
        <ele>54.9324</ele>
        <time>2014-06-17T13:38:35Z</time>
      </trkpt>
      <trkpt lat="59.953974" lon="17.7179605">
        <ele>54.4518</ele>
        <time>2014-06-17T13:38:36Z</time>
      </trkpt>
      <trkpt lat="59.9539929" lon="17.7179432">
        <ele>54.9324</ele>
        <time>2014-06-17T13:38:37Z</time>
      </trkpt>
      <trkpt lat="59.9540043" lon="17.7179214">
        <ele>54.4518</ele>
        <time>2014-06-17T13:38:38Z</time>
      </trkpt>
      <trkpt lat="59.9540141" lon="17.7178978">
        <ele>54.4518</ele>
        <time>2014-06-17T13:38:39Z</time>
      </trkpt>
      <trkpt lat="59.9540289" lon="17.7178828">
        <ele>53.4905</ele>
        <time>2014-06-17T13:38:40Z</time>
      </trkpt>
      <trkpt lat="59.9540472" lon="17.717857">
        <ele>53.4905</ele>
        <time>2014-06-17T13:38:41Z</time>
      </trkpt>
      <trkpt lat="59.9540597" lon="17.7178237">
        <ele>53.9712</ele>
        <time>2014-06-17T13:38:42Z</time>
      </trkpt>
      <trkpt lat="59.9540643" lon="17.7177876">
        <ele>53.0098</ele>
        <time>2014-06-17T13:38:43Z</time>
      </trkpt>
      <trkpt lat="59.9540746" lon="17.7177612">
        <ele>53.0098</ele>
        <time>2014-06-17T13:38:44Z</time>
      </trkpt>
      <trkpt lat="59.9540817" lon="17.7177227">
        <ele>53.0098</ele>
        <time>2014-06-17T13:38:45Z</time>
      </trkpt>
      <trkpt lat="59.9540983" lon="17.7176901">
        <ele>53.4905</ele>
        <time>2014-06-17T13:38:46Z</time>
      </trkpt>
      <trkpt lat="59.9541232" lon="17.7176557">
        <ele>55.4131</ele>
        <time>2014-06-17T13:38:47Z</time>
      </trkpt>
      <trkpt lat="59.9541452" lon="17.7176251">
        <ele>56.8551</ele>
        <time>2014-06-17T13:38:48Z</time>
      </trkpt>
      <trkpt lat="59.9541626" lon="17.7175917">
        <ele>58.2971</ele>
        <time>2014-06-17T13:38:49Z</time>
      </trkpt>
      <trkpt lat="59.9541819" lon="17.7175599">
        <ele>60.2197</ele>
        <time>2014-06-17T13:38:50Z</time>
      </trkpt>
      <trkpt lat="59.9542022" lon="17.7175242">
        <ele>62.1423</ele>
        <time>2014-06-17T13:38:51Z</time>
      </trkpt>
      <trkpt lat="59.9542141" lon="17.7174757">
        <ele>63.5844</ele>
        <time>2014-06-17T13:38:52Z</time>
      </trkpt>
      <trkpt lat="59.954219" lon="17.7174275">
        <ele>63.5844</ele>
        <time>2014-06-17T13:38:53Z</time>
      </trkpt>
      <trkpt lat="59.9542252" lon="17.7173829">
        <ele>64.0651</ele>
        <time>2014-06-17T13:38:54Z</time>
      </trkpt>
      <trkpt lat="59.9542395" lon="17.7173524">
        <ele>64.5457</ele>
        <time>2014-06-17T13:38:55Z</time>
      </trkpt>
      <trkpt lat="59.9542488" lon="17.7173186">
        <ele>65.5071</ele>
        <time>2014-06-17T13:38:56Z</time>
      </trkpt>
      <trkpt lat="59.9542648" lon="17.717295">
        <ele>66.4683</ele>
        <time>2014-06-17T13:38:57Z</time>
      </trkpt>
      <trkpt lat="59.9542862" lon="17.7172684">
        <ele>68.3909</ele>
        <time>2014-06-17T13:38:58Z</time>
      </trkpt>
      <trkpt lat="59.9543019" lon="17.717237">
        <ele>68.8716</ele>
        <time>2014-06-17T13:38:59Z</time>
      </trkpt>
      <trkpt lat="59.9543118" lon="17.7172052">
        <ele>67.9103</ele>
        <time>2014-06-17T13:39:00Z</time>
      </trkpt>
      <trkpt lat="59.9543222" lon="17.7171721">
        <ele>68.3909</ele>
        <time>2014-06-17T13:39:01Z</time>
      </trkpt>
      <trkpt lat="59.9543351" lon="17.7171382">
        <ele>67.9103</ele>
        <time>2014-06-17T13:39:02Z</time>
      </trkpt>
      <trkpt lat="59.9543501" lon="17.7171121">
        <ele>66.949</ele>
        <time>2014-06-17T13:39:03Z</time>
      </trkpt>
      <trkpt lat="59.9543565" lon="17.7170844">
        <ele>65.9877</ele>
        <time>2014-06-17T13:39:04Z</time>
      </trkpt>
      <trkpt lat="59.9543718" lon="17.7170659">
        <ele>66.4683</ele>
        <time>2014-06-17T13:39:05Z</time>
      </trkpt>
      <trkpt lat="59.9543798" lon="17.7170461">
        <ele>65.9877</ele>
        <time>2014-06-17T13:39:06Z</time>
      </trkpt>
      <trkpt lat="59.9543871" lon="17.7170199">
        <ele>66.4683</ele>
        <time>2014-06-17T13:39:07Z</time>
      </trkpt>
      <trkpt lat="59.954397" lon="17.7169807">
        <ele>66.949</ele>
        <time>2014-06-17T13:39:08Z</time>
      </trkpt>
      <trkpt lat="59.9544119" lon="17.7169401">
        <ele>67.4297</ele>
        <time>2014-06-17T13:39:09Z</time>
      </trkpt>
      <trkpt lat="59.9544228" lon="17.7169008">
        <ele>66.949</ele>
        <time>2014-06-17T13:39:10Z</time>
      </trkpt>
      <trkpt lat="59.9544305" lon="17.7168606">
        <ele>66.949</ele>
        <time>2014-06-17T13:39:11Z</time>
      </trkpt>
      <trkpt lat="59.9544383" lon="17.7168148">
        <ele>66.949</ele>
        <time>2014-06-17T13:39:12Z</time>
      </trkpt>
      <trkpt lat="59.9544412" lon="17.7167614">
        <ele>66.4683</ele>
        <time>2014-06-17T13:39:13Z</time>
      </trkpt>
      <trkpt lat="59.9544423" lon="17.7167026">
        <ele>65.9877</ele>
        <time>2014-06-17T13:39:14Z</time>
      </trkpt>
      <trkpt lat="59.9544459" lon="17.7166391">
        <ele>65.5071</ele>
        <time>2014-06-17T13:39:15Z</time>
      </trkpt>
      <trkpt lat="59.9544452" lon="17.7165742">
        <ele>65.0264</ele>
        <time>2014-06-17T13:39:16Z</time>
      </trkpt>
      <trkpt lat="59.9544502" lon="17.7165242">
        <ele>64.0651</ele>
        <time>2014-06-17T13:39:17Z</time>
      </trkpt>
      <trkpt lat="59.9544617" lon="17.7164869">
        <ele>64.0651</ele>
        <time>2014-06-17T13:39:18Z</time>
      </trkpt>
      <trkpt lat="59.9544673" lon="17.716447">
        <ele>63.1036</ele>
        <time>2014-06-17T13:39:19Z</time>
      </trkpt>
      <trkpt lat="59.9544703" lon="17.7164052">
        <ele>62.1423</ele>
        <time>2014-06-17T13:39:20Z</time>
      </trkpt>
      <trkpt lat="59.9544697" lon="17.7163581">
        <ele>61.181</ele>
        <time>2014-06-17T13:39:21Z</time>
      </trkpt>
      <trkpt lat="59.9544693" lon="17.7163179">
        <ele>59.7391</ele>
        <time>2014-06-17T13:39:22Z</time>
      </trkpt>
      <trkpt lat="59.9544794" lon="17.7162887">
        <ele>59.2584</ele>
        <time>2014-06-17T13:39:23Z</time>
      </trkpt>
      <trkpt lat="59.9544786" lon="17.7162512">
        <ele>58.2971</ele>
        <time>2014-06-17T13:39:24Z</time>
      </trkpt>
      <trkpt lat="59.9544804" lon="17.716219">
        <ele>57.8165</ele>
        <time>2014-06-17T13:39:25Z</time>
      </trkpt>
      <trkpt lat="59.9544819" lon="17.716176">
        <ele>56.8551</ele>
        <time>2014-06-17T13:39:26Z</time>
      </trkpt>
      <trkpt lat="59.9544848" lon="17.7161335">
        <ele>55.4131</ele>
        <time>2014-06-17T13:39:27Z</time>
      </trkpt>
      <trkpt lat="59.9544871" lon="17.7160951">
        <ele>53.9712</ele>
        <time>2014-06-17T13:39:28Z</time>
      </trkpt>
      <trkpt lat="59.9544874" lon="17.7160644">
        <ele>52.5292</ele>
        <time>2014-06-17T13:39:29Z</time>
      </trkpt>
      <trkpt lat="59.9544811" lon="17.7160279">
        <ele>50.6066</ele>
        <time>2014-06-17T13:39:30Z</time>
      </trkpt>
      <trkpt lat="59.9544844" lon="17.7159996">
        <ele>50.126</ele>
        <time>2014-06-17T13:39:31Z</time>
      </trkpt>
      <trkpt lat="59.9544933" lon="17.7159723">
        <ele>50.6066</ele>
        <time>2014-06-17T13:39:32Z</time>
      </trkpt>
      <trkpt lat="59.9544948" lon="17.7159418">
        <ele>49.1646</ele>
        <time>2014-06-17T13:39:33Z</time>
      </trkpt>
      <trkpt lat="59.9545005" lon="17.7159053">
        <ele>47.2418</ele>
        <time>2014-06-17T13:39:34Z</time>
      </trkpt>
      <trkpt lat="59.9545119" lon="17.7158698">
        <ele>46.2806</ele>
        <time>2014-06-17T13:39:35Z</time>
      </trkpt>
      <trkpt lat="59.9545224" lon="17.7158262">
        <ele>43.8773</ele>
        <time>2014-06-17T13:39:36Z</time>
      </trkpt>
      <trkpt lat="59.9545294" lon="17.7157702">
        <ele>41.9547</ele>
        <time>2014-06-17T13:39:37Z</time>
      </trkpt>
      <trkpt lat="59.9545343" lon="17.7157201">
        <ele>41.474</ele>
        <time>2014-06-17T13:39:38Z</time>
      </trkpt>
      <trkpt lat="59.9545383" lon="17.7156776">
        <ele>40.0321</ele>
        <time>2014-06-17T13:39:39Z</time>
      </trkpt>
      <trkpt lat="59.9545413" lon="17.7156376">
        <ele>38.5901</ele>
        <time>2014-06-17T13:39:40Z</time>
      </trkpt>
      <trkpt lat="59.9545425" lon="17.7155976">
        <ele>38.1094</ele>
        <time>2014-06-17T13:39:41Z</time>
      </trkpt>
      <trkpt lat="59.9545439" lon="17.7155585">
        <ele>37.6287</ele>
        <time>2014-06-17T13:39:42Z</time>
      </trkpt>
      <trkpt lat="59.9545481" lon="17.7155232">
        <ele>36.1868</ele>
        <time>2014-06-17T13:39:43Z</time>
      </trkpt>
      <trkpt lat="59.9545493" lon="17.7154923">
        <ele>34.7449</ele>
        <time>2014-06-17T13:39:44Z</time>
      </trkpt>
      <trkpt lat="59.954555" lon="17.7154579">
        <ele>34.2642</ele>
        <time>2014-06-17T13:39:45Z</time>
      </trkpt>
      <trkpt lat="59.954555" lon="17.7154107">
        <ele>32.8223</ele>
        <time>2014-06-17T13:39:46Z</time>
      </trkpt>
      <trkpt lat="59.9545607" lon="17.7153732">
        <ele>32.3416</ele>
        <time>2014-06-17T13:39:47Z</time>
      </trkpt>
      <trkpt lat="59.9545653" lon="17.7153283">
        <ele>31.3801</ele>
        <time>2014-06-17T13:39:48Z</time>
      </trkpt>
      <trkpt lat="59.9545688" lon="17.7152881">
        <ele>30.4188</ele>
        <time>2014-06-17T13:39:49Z</time>
      </trkpt>
      <trkpt lat="59.954576" lon="17.7152488">
        <ele>29.4575</ele>
        <time>2014-06-17T13:39:50Z</time>
      </trkpt>
      <trkpt lat="59.9545854" lon="17.7152109">
        <ele>28.9769</ele>
        <time>2014-06-17T13:39:51Z</time>
      </trkpt>
      <trkpt lat="59.9545933" lon="17.7151762">
        <ele>28.0155</ele>
        <time>2014-06-17T13:39:52Z</time>
      </trkpt>
      <trkpt lat="59.9546046" lon="17.7151503">
        <ele>27.5349</ele>
        <time>2014-06-17T13:39:53Z</time>
      </trkpt>
      <trkpt lat="59.9546106" lon="17.7151192">
        <ele>27.0543</ele>
        <time>2014-06-17T13:39:54Z</time>
      </trkpt>
      <trkpt lat="59.9546181" lon="17.7150875">
        <ele>25.6123</ele>
        <time>2014-06-17T13:39:55Z</time>
      </trkpt>
      <trkpt lat="59.9546303" lon="17.7150493">
        <ele>25.6123</ele>
        <time>2014-06-17T13:39:56Z</time>
      </trkpt>
      <trkpt lat="59.9546431" lon="17.7150154">
        <ele>26.0929</ele>
        <time>2014-06-17T13:39:57Z</time>
      </trkpt>
      <trkpt lat="59.9546516" lon="17.7149787">
        <ele>26.0929</ele>
        <time>2014-06-17T13:39:58Z</time>
      </trkpt>
      <trkpt lat="59.9546589" lon="17.7149305">
        <ele>26.5736</ele>
        <time>2014-06-17T13:39:59Z</time>
      </trkpt>
      <trkpt lat="59.9546769" lon="17.7148983">
        <ele>27.0543</ele>
        <time>2014-06-17T13:40:00Z</time>
      </trkpt>
      <trkpt lat="59.954691" lon="17.7148693">
        <ele>27.5349</ele>
        <time>2014-06-17T13:40:01Z</time>
      </trkpt>
      <trkpt lat="59.9547093" lon="17.7148358">
        <ele>27.5349</ele>
        <time>2014-06-17T13:40:02Z</time>
      </trkpt>
      <trkpt lat="59.9547383" lon="17.7148167">
        <ele>29.9381</ele>
        <time>2014-06-17T13:40:03Z</time>
      </trkpt>
      <trkpt lat="59.9547537" lon="17.7147921">
        <ele>30.4188</ele>
        <time>2014-06-17T13:40:04Z</time>
      </trkpt>
      <trkpt lat="59.954766" lon="17.7147634">
        <ele>30.4188</ele>
        <time>2014-06-17T13:40:05Z</time>
      </trkpt>
      <trkpt lat="59.9547915" lon="17.7147462">
        <ele>33.3029</ele>
        <time>2014-06-17T13:40:06Z</time>
      </trkpt>
      <trkpt lat="59.954818" lon="17.7147238">
        <ele>35.7061</ele>
        <time>2014-06-17T13:40:07Z</time>
      </trkpt>
      <trkpt lat="59.9548432" lon="17.714695">
        <ele>38.1094</ele>
        <time>2014-06-17T13:40:08Z</time>
      </trkpt>
      <trkpt lat="59.9548683" lon="17.7146642">
        <ele>40.5128</ele>
        <time>2014-06-17T13:40:09Z</time>
      </trkpt>
      <trkpt lat="59.954893" lon="17.7146411">
        <ele>42.4354</ele>
        <time>2014-06-17T13:40:10Z</time>
      </trkpt>
      <trkpt lat="59.9549134" lon="17.7146135">
        <ele>43.8773</ele>
        <time>2014-06-17T13:40:11Z</time>
      </trkpt>
      <trkpt lat="59.954935" lon="17.7145884">
        <ele>45.3192</ele>
        <time>2014-06-17T13:40:12Z</time>
      </trkpt>
      <trkpt lat="59.9549515" lon="17.7145562">
        <ele>45.7999</ele>
        <time>2014-06-17T13:40:13Z</time>
      </trkpt>
      <trkpt lat="59.9549653" lon="17.7145245">
        <ele>45.7999</ele>
        <time>2014-06-17T13:40:14Z</time>
      </trkpt>
      <trkpt lat="59.9549852" lon="17.7144986">
        <ele>46.7612</ele>
        <time>2014-06-17T13:40:15Z</time>
      </trkpt>
      <trkpt lat="59.9550076" lon="17.7144848">
        <ele>47.2418</ele>
        <time>2014-06-17T13:40:16Z</time>
      </trkpt>
      <trkpt lat="59.9550294" lon="17.7144644">
        <ele>47.7225</ele>
        <time>2014-06-17T13:40:17Z</time>
      </trkpt>
      <trkpt lat="59.9550537" lon="17.7144475">
        <ele>47.7225</ele>
        <time>2014-06-17T13:40:18Z</time>
      </trkpt>
      <trkpt lat="59.9550763" lon="17.7144291">
        <ele>48.2034</ele>
        <time>2014-06-17T13:40:19Z</time>
      </trkpt>
      <trkpt lat="59.955103" lon="17.7144111">
        <ele>49.1646</ele>
        <time>2014-06-17T13:40:20Z</time>
      </trkpt>
      <trkpt lat="59.9551287" lon="17.7144033">
        <ele>49.6453</ele>
        <time>2014-06-17T13:40:21Z</time>
      </trkpt>
      <trkpt lat="59.9551447" lon="17.7143867">
        <ele>50.6066</ele>
        <time>2014-06-17T13:40:22Z</time>
      </trkpt>
      <trkpt lat="59.9551682" lon="17.7143622">
        <ele>52.5292</ele>
        <time>2014-06-17T13:40:23Z</time>
      </trkpt>
      <trkpt lat="59.955188" lon="17.7143249">
        <ele>53.9712</ele>
        <time>2014-06-17T13:40:24Z</time>
      </trkpt>
      <trkpt lat="59.9552148" lon="17.7142841">
        <ele>56.8551</ele>
        <time>2014-06-17T13:40:25Z</time>
      </trkpt>
      <trkpt lat="59.9552629" lon="17.714265">
        <ele>63.5844</ele>
        <time>2014-06-17T13:40:26Z</time>
      </trkpt>
      <trkpt lat="59.9552822" lon="17.7142329">
        <ele>64.0651</ele>
        <time>2014-06-17T13:40:27Z</time>
      </trkpt>
      <trkpt lat="59.9553022" lon="17.7141899">
        <ele>64.5457</ele>
        <time>2014-06-17T13:40:28Z</time>
      </trkpt>
      <trkpt lat="59.9553184" lon="17.7141594">
        <ele>65.0264</ele>
        <time>2014-06-17T13:40:29Z</time>
      </trkpt>
      <trkpt lat="59.955335" lon="17.7141469">
        <ele>65.5071</ele>
        <time>2014-06-17T13:40:30Z</time>
      </trkpt>
      <trkpt lat="59.9553517" lon="17.7141389">
        <ele>65.5071</ele>
        <time>2014-06-17T13:40:31Z</time>
      </trkpt>
      <trkpt lat="59.9553578" lon="17.7141351">
        <ele>64.0651</ele>
        <time>2014-06-17T13:40:32Z</time>
      </trkpt>
      <trkpt lat="59.9553628" lon="17.7141385">
        <ele>63.1036</ele>
        <time>2014-06-17T13:40:33Z</time>
      </trkpt>
      <trkpt lat="59.9553978" lon="17.7140568">
        <ele>68.3909</ele>
        <time>2014-06-17T13:41:07Z</time>
      </trkpt>
      <trkpt lat="59.9554025" lon="17.7140533">
        <ele>68.8716</ele>
        <time>2014-06-17T13:41:08Z</time>
      </trkpt>
      <trkpt lat="59.955409" lon="17.7140526">
        <ele>69.3523</ele>
        <time>2014-06-17T13:41:09Z</time>
      </trkpt>
      <trkpt lat="59.9554225" lon="17.7140577">
        <ele>68.8716</ele>
        <time>2014-06-17T13:41:10Z</time>
      </trkpt>
      <trkpt lat="59.9554387" lon="17.714062">
        <ele>68.8716</ele>
        <time>2014-06-17T13:41:11Z</time>
      </trkpt>
      <trkpt lat="59.9554548" lon="17.7140621">
        <ele>68.3909</ele>
        <time>2014-06-17T13:41:12Z</time>
      </trkpt>
      <trkpt lat="59.9554683" lon="17.7140516">
        <ele>66.949</ele>
        <time>2014-06-17T13:41:13Z</time>
      </trkpt>
      <trkpt lat="59.9554754" lon="17.7140365">
        <ele>64.5457</ele>
        <time>2014-06-17T13:41:14Z</time>
      </trkpt>
      <trkpt lat="59.9554802" lon="17.714023">
        <ele>63.1036</ele>
        <time>2014-06-17T13:41:15Z</time>
      </trkpt>
      <trkpt lat="59.955481" lon="17.7140089">
        <ele>61.181</ele>
        <time>2014-06-17T13:41:16Z</time>
      </trkpt>
      <trkpt lat="59.9554914" lon="17.7140056">
        <ele>60.2197</ele>
        <time>2014-06-17T13:41:17Z</time>
      </trkpt>
      <trkpt lat="59.955498" lon="17.7139925">
        <ele>58.2971</ele>
        <time>2014-06-17T13:41:18Z</time>
      </trkpt>
      <trkpt lat="59.9555038" lon="17.713992">
        <ele>57.3358</ele>
        <time>2014-06-17T13:41:19Z</time>
      </trkpt>
      <trkpt lat="59.9555127" lon="17.7140015">
        <ele>55.8938</ele>
        <time>2014-06-17T13:41:20Z</time>
      </trkpt>
      <trkpt lat="59.955522" lon="17.7140279">
        <ele>55.8938</ele>
        <time>2014-06-17T13:41:21Z</time>
      </trkpt>
      <trkpt lat="59.9555266" lon="17.7140533">
        <ele>53.9712</ele>
        <time>2014-06-17T13:41:22Z</time>
      </trkpt>
      <trkpt lat="59.9555296" lon="17.7140852">
        <ele>53.0098</ele>
        <time>2014-06-17T13:41:23Z</time>
      </trkpt>
      <trkpt lat="59.9555319" lon="17.7141168">
        <ele>52.5292</ele>
        <time>2014-06-17T13:41:24Z</time>
      </trkpt>
      <trkpt lat="59.9555335" lon="17.7141538">
        <ele>51.5679</ele>
        <time>2014-06-17T13:41:25Z</time>
      </trkpt>
      <trkpt lat="59.9555433" lon="17.7142003">
        <ele>51.0872</ele>
        <time>2014-06-17T13:41:26Z</time>
      </trkpt>
      <trkpt lat="59.955556" lon="17.7142421">
        <ele>50.6066</ele>
        <time>2014-06-17T13:41:27Z</time>
      </trkpt>
      <trkpt lat="59.9555671" lon="17.7142882">
        <ele>50.6066</ele>
        <time>2014-06-17T13:41:28Z</time>
      </trkpt>
      <trkpt lat="59.9555762" lon="17.7143363">
        <ele>50.126</ele>
        <time>2014-06-17T13:41:29Z</time>
      </trkpt>
      <trkpt lat="59.9555847" lon="17.7143739">
        <ele>50.126</ele>
        <time>2014-06-17T13:41:30Z</time>
      </trkpt>
      <trkpt lat="59.9555894" lon="17.7144053">
        <ele>49.6453</ele>
        <time>2014-06-17T13:41:31Z</time>
      </trkpt>
      <trkpt lat="59.9555941" lon="17.7144396">
        <ele>49.6453</ele>
        <time>2014-06-17T13:41:32Z</time>
      </trkpt>
      <trkpt lat="59.9556001" lon="17.7144857">
        <ele>51.0872</ele>
        <time>2014-06-17T13:41:33Z</time>
      </trkpt>
      <trkpt lat="59.9556039" lon="17.7145278">
        <ele>50.126</ele>
        <time>2014-06-17T13:41:34Z</time>
      </trkpt>
      <trkpt lat="59.9556102" lon="17.7145668">
        <ele>49.6453</ele>
        <time>2014-06-17T13:41:35Z</time>
      </trkpt>
      <trkpt lat="59.955619" lon="17.7146147">
        <ele>49.6453</ele>
        <time>2014-06-17T13:41:36Z</time>
      </trkpt>
      <trkpt lat="59.9556297" lon="17.7146499">
        <ele>48.684</ele>
        <time>2014-06-17T13:41:37Z</time>
      </trkpt>
      <trkpt lat="59.9556408" lon="17.7146871">
        <ele>48.684</ele>
        <time>2014-06-17T13:41:38Z</time>
      </trkpt>
      <trkpt lat="59.9556516" lon="17.7147219">
        <ele>48.684</ele>
        <time>2014-06-17T13:41:39Z</time>
      </trkpt>
      <trkpt lat="59.9556656" lon="17.7147559">
        <ele>48.684</ele>
        <time>2014-06-17T13:41:40Z</time>
      </trkpt>
      <trkpt lat="59.9556748" lon="17.7147892">
        <ele>48.2034</ele>
        <time>2014-06-17T13:41:41Z</time>
      </trkpt>
      <trkpt lat="59.9556898" lon="17.7148234">
        <ele>48.684</ele>
        <time>2014-06-17T13:41:42Z</time>
      </trkpt>
      <trkpt lat="59.9557037" lon="17.7148616">
        <ele>48.684</ele>
        <time>2014-06-17T13:41:43Z</time>
      </trkpt>
      <trkpt lat="59.9557147" lon="17.7148981">
        <ele>48.684</ele>
        <time>2014-06-17T13:41:44Z</time>
      </trkpt>
      <trkpt lat="59.9557282" lon="17.714928">
        <ele>49.1646</ele>
        <time>2014-06-17T13:41:45Z</time>
      </trkpt>
      <trkpt lat="59.9557418" lon="17.7149626">
        <ele>48.2034</ele>
        <time>2014-06-17T13:41:46Z</time>
      </trkpt>
      <trkpt lat="59.9557504" lon="17.7149988">
        <ele>46.2806</ele>
        <time>2014-06-17T13:41:47Z</time>
      </trkpt>
      <trkpt lat="59.9557665" lon="17.7150332">
        <ele>45.7999</ele>
        <time>2014-06-17T13:41:48Z</time>
      </trkpt>
      <trkpt lat="59.9557816" lon="17.7150646">
        <ele>46.2806</ele>
        <time>2014-06-17T13:41:49Z</time>
      </trkpt>
      <trkpt lat="59.9557904" lon="17.7150973">
        <ele>45.3192</ele>
        <time>2014-06-17T13:41:50Z</time>
      </trkpt>
      <trkpt lat="59.9558001" lon="17.7151323">
        <ele>44.8386</ele>
        <time>2014-06-17T13:41:51Z</time>
      </trkpt>
      <trkpt lat="59.9558103" lon="17.715169">
        <ele>44.8386</ele>
        <time>2014-06-17T13:41:52Z</time>
      </trkpt>
      <trkpt lat="59.9558243" lon="17.7152103">
        <ele>45.3192</ele>
        <time>2014-06-17T13:41:53Z</time>
      </trkpt>
      <trkpt lat="59.9558345" lon="17.7152415">
        <ele>44.358</ele>
        <time>2014-06-17T13:41:54Z</time>
      </trkpt>
      <trkpt lat="59.955848" lon="17.7152778">
        <ele>44.358</ele>
        <time>2014-06-17T13:41:55Z</time>
      </trkpt>
      <trkpt lat="59.9558611" lon="17.715319">
        <ele>44.8386</ele>
        <time>2014-06-17T13:41:56Z</time>
      </trkpt>
      <trkpt lat="59.9558744" lon="17.7153435">
        <ele>44.358</ele>
        <time>2014-06-17T13:41:57Z</time>
      </trkpt>
      <trkpt lat="59.9558894" lon="17.7153705">
        <ele>43.3966</ele>
        <time>2014-06-17T13:41:58Z</time>
      </trkpt>
      <trkpt lat="59.9559065" lon="17.7154031">
        <ele>43.3966</ele>
        <time>2014-06-17T13:41:59Z</time>
      </trkpt>
      <trkpt lat="59.9559178" lon="17.7154373">
        <ele>42.4354</ele>
        <time>2014-06-17T13:42:00Z</time>
      </trkpt>
      <trkpt lat="59.955931" lon="17.7154699">
        <ele>43.3966</ele>
        <time>2014-06-17T13:42:01Z</time>
      </trkpt>
      <trkpt lat="59.9559472" lon="17.7154999">
        <ele>44.358</ele>
        <time>2014-06-17T13:42:02Z</time>
      </trkpt>
      <trkpt lat="59.9559669" lon="17.7155279">
        <ele>45.3192</ele>
        <time>2014-06-17T13:42:03Z</time>
      </trkpt>
      <trkpt lat="59.9559867" lon="17.715558">
        <ele>47.2418</ele>
        <time>2014-06-17T13:42:04Z</time>
      </trkpt>
      <trkpt lat="59.9560025" lon="17.7155864">
        <ele>47.2418</ele>
        <time>2014-06-17T13:42:05Z</time>
      </trkpt>
      <trkpt lat="59.9560106" lon="17.7156207">
        <ele>46.2806</ele>
        <time>2014-06-17T13:42:06Z</time>
      </trkpt>
      <trkpt lat="59.9560255" lon="17.7156522">
        <ele>45.7999</ele>
        <time>2014-06-17T13:42:07Z</time>
      </trkpt>
      <trkpt lat="59.9560452" lon="17.71568">
        <ele>46.2806</ele>
        <time>2014-06-17T13:42:08Z</time>
      </trkpt>
      <trkpt lat="59.9560561" lon="17.7157138">
        <ele>45.3192</ele>
        <time>2014-06-17T13:42:09Z</time>
      </trkpt>
      <trkpt lat="59.9560725" lon="17.7157453">
        <ele>45.3192</ele>
        <time>2014-06-17T13:42:10Z</time>
      </trkpt>
      <trkpt lat="59.9560902" lon="17.7157759">
        <ele>46.2806</ele>
        <time>2014-06-17T13:42:11Z</time>
      </trkpt>
      <trkpt lat="59.9561083" lon="17.7158078">
        <ele>46.2806</ele>
        <time>2014-06-17T13:42:12Z</time>
      </trkpt>
      <trkpt lat="59.9561261" lon="17.7158442">
        <ele>46.7612</ele>
        <time>2014-06-17T13:42:13Z</time>
      </trkpt>
      <trkpt lat="59.95614" lon="17.7158807">
        <ele>46.7612</ele>
        <time>2014-06-17T13:42:14Z</time>
      </trkpt>
      <trkpt lat="59.9561566" lon="17.7159127">
        <ele>46.2806</ele>
        <time>2014-06-17T13:42:15Z</time>
      </trkpt>
      <trkpt lat="59.956173" lon="17.7159465">
        <ele>47.2418</ele>
        <time>2014-06-17T13:42:16Z</time>
      </trkpt>
      <trkpt lat="59.9561873" lon="17.7159763">
        <ele>46.7612</ele>
        <time>2014-06-17T13:42:17Z</time>
      </trkpt>
      <trkpt lat="59.9562011" lon="17.7160095">
        <ele>45.3192</ele>
        <time>2014-06-17T13:42:18Z</time>
      </trkpt>
      <trkpt lat="59.95621" lon="17.7160449">
        <ele>44.358</ele>
        <time>2014-06-17T13:42:19Z</time>
      </trkpt>
      <trkpt lat="59.9562151" lon="17.7160797">
        <ele>44.358</ele>
        <time>2014-06-17T13:42:20Z</time>
      </trkpt>
      <trkpt lat="59.9562244" lon="17.7161128">
        <ele>45.3192</ele>
        <time>2014-06-17T13:42:21Z</time>
      </trkpt>
      <trkpt lat="59.9562375" lon="17.7161426">
        <ele>45.7999</ele>
        <time>2014-06-17T13:42:22Z</time>
      </trkpt>
      <trkpt lat="59.9562458" lon="17.7161704">
        <ele>45.3192</ele>
        <time>2014-06-17T13:42:23Z</time>
      </trkpt>
      <trkpt lat="59.9562486" lon="17.7162004">
        <ele>44.8386</ele>
        <time>2014-06-17T13:42:24Z</time>
      </trkpt>
      <trkpt lat="59.9562528" lon="17.7162245">
        <ele>44.358</ele>
        <time>2014-06-17T13:42:25Z</time>
      </trkpt>
      <trkpt lat="59.9562659" lon="17.7162519">
        <ele>45.3192</ele>
        <time>2014-06-17T13:42:26Z</time>
      </trkpt>
      <trkpt lat="59.9562835" lon="17.7162899">
        <ele>46.2806</ele>
        <time>2014-06-17T13:42:27Z</time>
      </trkpt>
      <trkpt lat="59.956298" lon="17.7163253">
        <ele>46.7612</ele>
        <time>2014-06-17T13:42:28Z</time>
      </trkpt>
      <trkpt lat="59.9563156" lon="17.7163633">
        <ele>46.7612</ele>
        <time>2014-06-17T13:42:29Z</time>
      </trkpt>
      <trkpt lat="59.956327" lon="17.716399">
        <ele>46.7612</ele>
        <time>2014-06-17T13:42:30Z</time>
      </trkpt>
      <trkpt lat="59.9563384" lon="17.7164251">
        <ele>45.7999</ele>
        <time>2014-06-17T13:42:31Z</time>
      </trkpt>
      <trkpt lat="59.9563534" lon="17.7164484">
        <ele>46.7612</ele>
        <time>2014-06-17T13:42:32Z</time>
      </trkpt>
      <trkpt lat="59.9563695" lon="17.7164686">
        <ele>47.2418</ele>
        <time>2014-06-17T13:42:33Z</time>
      </trkpt>
      <trkpt lat="59.9563876" lon="17.7164946">
        <ele>47.2418</ele>
        <time>2014-06-17T13:42:34Z</time>
      </trkpt>
      <trkpt lat="59.9564006" lon="17.716522">
        <ele>46.7612</ele>
        <time>2014-06-17T13:42:35Z</time>
      </trkpt>
      <trkpt lat="59.9564134" lon="17.7165472">
        <ele>47.2418</ele>
        <time>2014-06-17T13:42:36Z</time>
      </trkpt>
      <trkpt lat="59.9564336" lon="17.7165721">
        <ele>47.7225</ele>
        <time>2014-06-17T13:42:37Z</time>
      </trkpt>
      <trkpt lat="59.9564513" lon="17.7166007">
        <ele>48.684</ele>
        <time>2014-06-17T13:42:38Z</time>
      </trkpt>
      <trkpt lat="59.956472" lon="17.716621">
        <ele>48.684</ele>
        <time>2014-06-17T13:42:39Z</time>
      </trkpt>
      <trkpt lat="59.9564955" lon="17.7166463">
        <ele>49.6453</ele>
        <time>2014-06-17T13:42:40Z</time>
      </trkpt>
      <trkpt lat="59.9565139" lon="17.7166763">
        <ele>49.6453</ele>
        <time>2014-06-17T13:42:41Z</time>
      </trkpt>
      <trkpt lat="59.9565285" lon="17.7167074">
        <ele>50.6066</ele>
        <time>2014-06-17T13:42:42Z</time>
      </trkpt>
      <trkpt lat="59.9565395" lon="17.716738">
        <ele>50.126</ele>
        <time>2014-06-17T13:42:43Z</time>
      </trkpt>
      <trkpt lat="59.956555" lon="17.7167712">
        <ele>50.6066</ele>
        <time>2014-06-17T13:42:44Z</time>
      </trkpt>
      <trkpt lat="59.9565736" lon="17.7168046">
        <ele>51.0872</ele>
        <time>2014-06-17T13:42:45Z</time>
      </trkpt>
      <trkpt lat="59.9565899" lon="17.7168323">
        <ele>50.6066</ele>
        <time>2014-06-17T13:42:46Z</time>
      </trkpt>
      <trkpt lat="59.9566036" lon="17.716867">
        <ele>50.6066</ele>
        <time>2014-06-17T13:42:47Z</time>
      </trkpt>
      <trkpt lat="59.9566129" lon="17.7168996">
        <ele>49.6453</ele>
        <time>2014-06-17T13:42:48Z</time>
      </trkpt>
      <trkpt lat="59.9566278" lon="17.7169187">
        <ele>49.1646</ele>
        <time>2014-06-17T13:42:49Z</time>
      </trkpt>
      <trkpt lat="59.9566446" lon="17.7169192">
        <ele>49.6453</ele>
        <time>2014-06-17T13:42:50Z</time>
      </trkpt>
      <trkpt lat="59.9566646" lon="17.7169065">
        <ele>51.0872</ele>
        <time>2014-06-17T13:42:51Z</time>
      </trkpt>
      <trkpt lat="59.9566854" lon="17.716881">
        <ele>51.5679</ele>
        <time>2014-06-17T13:42:52Z</time>
      </trkpt>
      <trkpt lat="59.9567026" lon="17.7168467">
        <ele>52.0486</ele>
        <time>2014-06-17T13:42:53Z</time>
      </trkpt>
      <trkpt lat="59.9567232" lon="17.7168079">
        <ele>53.9712</ele>
        <time>2014-06-17T13:42:54Z</time>
      </trkpt>
      <trkpt lat="59.9567497" lon="17.7167732">
        <ele>56.8551</ele>
        <time>2014-06-17T13:42:55Z</time>
      </trkpt>
      <trkpt lat="59.9567612" lon="17.7167362">
        <ele>56.8551</ele>
        <time>2014-06-17T13:42:56Z</time>
      </trkpt>
      <trkpt lat="59.9567804" lon="17.7167073">
        <ele>58.7777</ele>
        <time>2014-06-17T13:42:57Z</time>
      </trkpt>
      <trkpt lat="59.9567922" lon="17.7166728">
        <ele>59.2584</ele>
        <time>2014-06-17T13:42:58Z</time>
      </trkpt>
      <trkpt lat="59.9567984" lon="17.7166339">
        <ele>58.2971</ele>
        <time>2014-06-17T13:42:59Z</time>
      </trkpt>
      <trkpt lat="59.956816" lon="17.7166049">
        <ele>57.8165</ele>
        <time>2014-06-17T13:43:00Z</time>
      </trkpt>
      <trkpt lat="59.9568449" lon="17.7165835">
        <ele>59.2584</ele>
        <time>2014-06-17T13:43:01Z</time>
      </trkpt>
      <trkpt lat="59.9568699" lon="17.7165591">
        <ele>59.2584</ele>
        <time>2014-06-17T13:43:02Z</time>
      </trkpt>
      <trkpt lat="59.9568881" lon="17.716525">
        <ele>58.2971</ele>
        <time>2014-06-17T13:43:03Z</time>
      </trkpt>
      <trkpt lat="59.9569085" lon="17.7164845">
        <ele>58.2971</ele>
        <time>2014-06-17T13:43:04Z</time>
      </trkpt>
      <trkpt lat="59.9569238" lon="17.7164411">
        <ele>57.8165</ele>
        <time>2014-06-17T13:43:05Z</time>
      </trkpt>
      <trkpt lat="59.9569434" lon="17.7164038">
        <ele>57.8165</ele>
        <time>2014-06-17T13:43:06Z</time>
      </trkpt>
      <trkpt lat="59.9569573" lon="17.7163733">
        <ele>56.3745</ele>
        <time>2014-06-17T13:43:07Z</time>
      </trkpt>
      <trkpt lat="59.9569645" lon="17.716341">
        <ele>54.4518</ele>
        <time>2014-06-17T13:43:08Z</time>
      </trkpt>
      <trkpt lat="59.9569927" lon="17.7163091">
        <ele>56.8551</ele>
        <time>2014-06-17T13:43:09Z</time>
      </trkpt>
      <trkpt lat="59.9570221" lon="17.7162805">
        <ele>59.2584</ele>
        <time>2014-06-17T13:43:10Z</time>
      </trkpt>
      <trkpt lat="59.9570393" lon="17.7162469">
        <ele>58.7777</ele>
        <time>2014-06-17T13:43:11Z</time>
      </trkpt>
      <trkpt lat="59.9570532" lon="17.7162163">
        <ele>56.8551</ele>
        <time>2014-06-17T13:43:12Z</time>
      </trkpt>
      <trkpt lat="59.9570661" lon="17.7161905">
        <ele>55.4131</ele>
        <time>2014-06-17T13:43:13Z</time>
      </trkpt>
      <trkpt lat="59.9570753" lon="17.7161588">
        <ele>53.9712</ele>
        <time>2014-06-17T13:43:14Z</time>
      </trkpt>
      <trkpt lat="59.9570924" lon="17.7161256">
        <ele>54.4518</ele>
        <time>2014-06-17T13:43:15Z</time>
      </trkpt>
      <trkpt lat="59.9571185" lon="17.7160968">
        <ele>56.3745</ele>
        <time>2014-06-17T13:43:16Z</time>
      </trkpt>
      <trkpt lat="59.9571383" lon="17.7160661">
        <ele>57.3358</ele>
        <time>2014-06-17T13:43:17Z</time>
      </trkpt>
      <trkpt lat="59.9571538" lon="17.7160393">
        <ele>56.3745</ele>
        <time>2014-06-17T13:43:18Z</time>
      </trkpt>
      <trkpt lat="59.9571666" lon="17.7160102">
        <ele>54.9324</ele>
        <time>2014-06-17T13:43:19Z</time>
      </trkpt>
      <trkpt lat="59.9571883" lon="17.7159812">
        <ele>56.3745</ele>
        <time>2014-06-17T13:43:20Z</time>
      </trkpt>
      <trkpt lat="59.9572128" lon="17.7159553">
        <ele>58.7777</ele>
        <time>2014-06-17T13:43:21Z</time>
      </trkpt>
      <trkpt lat="59.9572264" lon="17.7159231">
        <ele>58.2971</ele>
        <time>2014-06-17T13:43:22Z</time>
      </trkpt>
      <trkpt lat="59.9572426" lon="17.7158867">
        <ele>58.2971</ele>
        <time>2014-06-17T13:43:23Z</time>
      </trkpt>
      <trkpt lat="59.95726" lon="17.7158541">
        <ele>58.7777</ele>
        <time>2014-06-17T13:43:24Z</time>
      </trkpt>
      <trkpt lat="59.9572729" lon="17.7158227">
        <ele>57.3358</ele>
        <time>2014-06-17T13:43:25Z</time>
      </trkpt>
      <trkpt lat="59.9572869" lon="17.715796">
        <ele>56.3745</ele>
        <time>2014-06-17T13:43:26Z</time>
      </trkpt>
      <trkpt lat="59.9573005" lon="17.7157663">
        <ele>55.4131</ele>
        <time>2014-06-17T13:43:27Z</time>
      </trkpt>
      <trkpt lat="59.9573157" lon="17.7157349">
        <ele>54.4518</ele>
        <time>2014-06-17T13:43:28Z</time>
      </trkpt>
      <trkpt lat="59.9573252" lon="17.7156981">
        <ele>52.5292</ele>
        <time>2014-06-17T13:43:29Z</time>
      </trkpt>
      <trkpt lat="59.9573409" lon="17.7156621">
        <ele>52.0486</ele>
        <time>2014-06-17T13:43:30Z</time>
      </trkpt>
      <trkpt lat="59.9573549" lon="17.7156269">
        <ele>51.0872</ele>
        <time>2014-06-17T13:43:31Z</time>
      </trkpt>
      <trkpt lat="59.9573786" lon="17.7155949">
        <ele>52.0486</ele>
        <time>2014-06-17T13:43:32Z</time>
      </trkpt>
      <trkpt lat="59.9574086" lon="17.7155616">
        <ele>54.9324</ele>
        <time>2014-06-17T13:43:33Z</time>
      </trkpt>
      <trkpt lat="59.9574227" lon="17.7155142">
        <ele>54.4518</ele>
        <time>2014-06-17T13:43:34Z</time>
      </trkpt>
      <trkpt lat="59.9574365" lon="17.7154718">
        <ele>54.4518</ele>
        <time>2014-06-17T13:43:35Z</time>
      </trkpt>
      <trkpt lat="59.957448" lon="17.7154293">
        <ele>53.4905</ele>
        <time>2014-06-17T13:43:36Z</time>
      </trkpt>
      <trkpt lat="59.9574566" lon="17.7153877">
        <ele>51.5679</ele>
        <time>2014-06-17T13:43:37Z</time>
      </trkpt>
      <trkpt lat="59.9574714" lon="17.7153638">
        <ele>50.126</ele>
        <time>2014-06-17T13:43:38Z</time>
      </trkpt>
      <trkpt lat="59.9574857" lon="17.7153373">
        <ele>49.1646</ele>
        <time>2014-06-17T13:43:39Z</time>
      </trkpt>
      <trkpt lat="59.9575063" lon="17.7153115">
        <ele>50.126</ele>
        <time>2014-06-17T13:43:40Z</time>
      </trkpt>
      <trkpt lat="59.9575282" lon="17.7152828">
        <ele>51.0872</ele>
        <time>2014-06-17T13:43:41Z</time>
      </trkpt>
      <trkpt lat="59.9575455" lon="17.7152457">
        <ele>50.6066</ele>
        <time>2014-06-17T13:43:42Z</time>
      </trkpt>
      <trkpt lat="59.9575638" lon="17.7152098">
        <ele>51.0872</ele>
        <time>2014-06-17T13:43:43Z</time>
      </trkpt>
      <trkpt lat="59.9575866" lon="17.7151819">
        <ele>52.0486</ele>
        <time>2014-06-17T13:43:44Z</time>
      </trkpt>
      <trkpt lat="59.9575994" lon="17.7151514">
        <ele>51.0872</ele>
        <time>2014-06-17T13:43:45Z</time>
      </trkpt>
      <trkpt lat="59.9576078" lon="17.7151112">
        <ele>49.1646</ele>
        <time>2014-06-17T13:43:46Z</time>
      </trkpt>
      <trkpt lat="59.9576283" lon="17.7150817">
        <ele>49.6453</ele>
        <time>2014-06-17T13:43:47Z</time>
      </trkpt>
      <trkpt lat="59.9576415" lon="17.7150493">
        <ele>48.2034</ele>
        <time>2014-06-17T13:43:48Z</time>
      </trkpt>
      <trkpt lat="59.9576622" lon="17.7150167">
        <ele>48.2034</ele>
        <time>2014-06-17T13:43:49Z</time>
      </trkpt>
      <trkpt lat="59.9576816" lon="17.7149833">
        <ele>48.684</ele>
        <time>2014-06-17T13:43:50Z</time>
      </trkpt>
      <trkpt lat="59.9577028" lon="17.7149493">
        <ele>49.6453</ele>
        <time>2014-06-17T13:43:51Z</time>
      </trkpt>
      <trkpt lat="59.9577245" lon="17.7149155">
        <ele>50.6066</ele>
        <time>2014-06-17T13:43:52Z</time>
      </trkpt>
      <trkpt lat="59.9577442" lon="17.7148856">
        <ele>51.5679</ele>
        <time>2014-06-17T13:43:53Z</time>
      </trkpt>
      <trkpt lat="59.9577598" lon="17.7148539">
        <ele>52.0486</ele>
        <time>2014-06-17T13:43:54Z</time>
      </trkpt>
      <trkpt lat="59.9577726" lon="17.7148188">
        <ele>51.0872</ele>
        <time>2014-06-17T13:43:55Z</time>
      </trkpt>
      <trkpt lat="59.9577769" lon="17.714785">
        <ele>48.684</ele>
        <time>2014-06-17T13:43:56Z</time>
      </trkpt>
      <trkpt lat="59.9577842" lon="17.7147654">
        <ele>47.7225</ele>
        <time>2014-06-17T13:43:57Z</time>
      </trkpt>
      <trkpt lat="59.9577824" lon="17.7147375">
        <ele>44.8386</ele>
        <time>2014-06-17T13:43:58Z</time>
      </trkpt>
      <trkpt lat="59.9578085" lon="17.7147192">
        <ele>46.7612</ele>
        <time>2014-06-17T13:43:59Z</time>
      </trkpt>
      <trkpt lat="59.9578364" lon="17.7146951">
        <ele>49.1646</ele>
        <time>2014-06-17T13:44:00Z</time>
      </trkpt>
      <trkpt lat="59.9578663" lon="17.7146678">
        <ele>52.5292</ele>
        <time>2014-06-17T13:44:01Z</time>
      </trkpt>
      <trkpt lat="59.9578826" lon="17.7146394">
        <ele>52.5292</ele>
        <time>2014-06-17T13:44:02Z</time>
      </trkpt>
      <trkpt lat="59.9578982" lon="17.7146116">
        <ele>52.5292</ele>
        <time>2014-06-17T13:44:03Z</time>
      </trkpt>
      <trkpt lat="59.9579236" lon="17.7145803">
        <ele>54.9324</ele>
        <time>2014-06-17T13:44:04Z</time>
      </trkpt>
      <trkpt lat="59.9579453" lon="17.7145459">
        <ele>56.3745</ele>
        <time>2014-06-17T13:44:05Z</time>
      </trkpt>
      <trkpt lat="59.9579665" lon="17.7145124">
        <ele>57.3358</ele>
        <time>2014-06-17T13:44:06Z</time>
      </trkpt>
      <trkpt lat="59.957987" lon="17.7144805">
        <ele>57.8165</ele>
        <time>2014-06-17T13:44:07Z</time>
      </trkpt>
      <trkpt lat="59.9580028" lon="17.7144466">
        <ele>57.3358</ele>
        <time>2014-06-17T13:44:08Z</time>
      </trkpt>
      <trkpt lat="59.9580244" lon="17.7144188">
        <ele>58.2971</ele>
        <time>2014-06-17T13:44:09Z</time>
      </trkpt>
      <trkpt lat="59.9580467" lon="17.7143915">
        <ele>59.7391</ele>
        <time>2014-06-17T13:44:10Z</time>
      </trkpt>
      <trkpt lat="59.9580568" lon="17.7143625">
        <ele>58.7777</ele>
        <time>2014-06-17T13:44:11Z</time>
      </trkpt>
      <trkpt lat="59.9580669" lon="17.7143348">
        <ele>57.3358</ele>
        <time>2014-06-17T13:44:12Z</time>
      </trkpt>
      <trkpt lat="59.9580736" lon="17.7143086">
        <ele>55.8938</ele>
        <time>2014-06-17T13:44:13Z</time>
      </trkpt>
      <trkpt lat="59.9580842" lon="17.7142791">
        <ele>55.4131</ele>
        <time>2014-06-17T13:44:14Z</time>
      </trkpt>
      <trkpt lat="59.9580939" lon="17.7142485">
        <ele>54.9324</ele>
        <time>2014-06-17T13:44:15Z</time>
      </trkpt>
      <trkpt lat="59.9581124" lon="17.7142172">
        <ele>55.8938</ele>
        <time>2014-06-17T13:44:16Z</time>
      </trkpt>
      <trkpt lat="59.9581183" lon="17.7141815">
        <ele>54.4518</ele>
        <time>2014-06-17T13:44:17Z</time>
      </trkpt>
      <trkpt lat="59.9581261" lon="17.7141512">
        <ele>53.0098</ele>
        <time>2014-06-17T13:44:18Z</time>
      </trkpt>
      <trkpt lat="59.9581293" lon="17.7141237">
        <ele>51.0872</ele>
        <time>2014-06-17T13:44:19Z</time>
      </trkpt>
      <trkpt lat="59.9581369" lon="17.7140988">
        <ele>49.6453</ele>
        <time>2014-06-17T13:44:20Z</time>
      </trkpt>
      <trkpt lat="59.9581493" lon="17.7140755">
        <ele>48.2034</ele>
        <time>2014-06-17T13:44:21Z</time>
      </trkpt>
      <trkpt lat="59.9581499" lon="17.7140367">
        <ele>45.7999</ele>
        <time>2014-06-17T13:44:22Z</time>
      </trkpt>
      <trkpt lat="59.9581518" lon="17.7139915">
        <ele>44.8386</ele>
        <time>2014-06-17T13:44:23Z</time>
      </trkpt>
      <trkpt lat="59.9581442" lon="17.7139406">
        <ele>41.9547</ele>
        <time>2014-06-17T13:44:24Z</time>
      </trkpt>
      <trkpt lat="59.9581476" lon="17.7139034">
        <ele>40.5128</ele>
        <time>2014-06-17T13:44:25Z</time>
      </trkpt>
      <trkpt lat="59.9581587" lon="17.7138635">
        <ele>41.474</ele>
        <time>2014-06-17T13:44:26Z</time>
      </trkpt>
      <trkpt lat="59.9581707" lon="17.7138195">
        <ele>42.916</ele>
        <time>2014-06-17T13:44:27Z</time>
      </trkpt>
      <trkpt lat="59.958182" lon="17.7137775">
        <ele>44.8386</ele>
        <time>2014-06-17T13:44:28Z</time>
      </trkpt>
      <trkpt lat="59.9581908" lon="17.7137277">
        <ele>45.7999</ele>
        <time>2014-06-17T13:44:29Z</time>
      </trkpt>
      <trkpt lat="59.9582062" lon="17.7136821">
        <ele>48.2034</ele>
        <time>2014-06-17T13:44:30Z</time>
      </trkpt>
      <trkpt lat="59.9582124" lon="17.7136393">
        <ele>48.684</ele>
        <time>2014-06-17T13:44:31Z</time>
      </trkpt>
      <trkpt lat="59.9582209" lon="17.7135997">
        <ele>48.2034</ele>
        <time>2014-06-17T13:44:32Z</time>
      </trkpt>
      <trkpt lat="59.958223" lon="17.7135599">
        <ele>47.2418</ele>
        <time>2014-06-17T13:44:33Z</time>
      </trkpt>
      <trkpt lat="59.958222" lon="17.7135242">
        <ele>45.3192</ele>
        <time>2014-06-17T13:44:34Z</time>
      </trkpt>
      <trkpt lat="59.9582334" lon="17.7134917">
        <ele>45.3192</ele>
        <time>2014-06-17T13:44:35Z</time>
      </trkpt>
      <trkpt lat="59.9582365" lon="17.7134492">
        <ele>44.358</ele>
        <time>2014-06-17T13:44:36Z</time>
      </trkpt>
      <trkpt lat="59.9582329" lon="17.713401">
        <ele>42.4354</ele>
        <time>2014-06-17T13:44:37Z</time>
      </trkpt>
      <trkpt lat="59.9582357" lon="17.7133616">
        <ele>40.9934</ele>
        <time>2014-06-17T13:44:38Z</time>
      </trkpt>
      <trkpt lat="59.9582318" lon="17.7133096">
        <ele>38.1094</ele>
        <time>2014-06-17T13:44:39Z</time>
      </trkpt>
      <trkpt lat="59.9582359" lon="17.7132633">
        <ele>36.6675</ele>
        <time>2014-06-17T13:44:40Z</time>
      </trkpt>
      <trkpt lat="59.9582357" lon="17.7132146">
        <ele>35.2255</ele>
        <time>2014-06-17T13:44:41Z</time>
      </trkpt>
      <trkpt lat="59.9582354" lon="17.713162">
        <ele>33.7834</ele>
        <time>2014-06-17T13:44:42Z</time>
      </trkpt>
      <trkpt lat="59.958236" lon="17.7131066">
        <ele>33.3029</ele>
        <time>2014-06-17T13:44:43Z</time>
      </trkpt>
      <trkpt lat="59.9582383" lon="17.7130497">
        <ele>32.8223</ele>
        <time>2014-06-17T13:44:44Z</time>
      </trkpt>
      <trkpt lat="59.9582285" lon="17.7129846">
        <ele>30.4188</ele>
        <time>2014-06-17T13:44:45Z</time>
      </trkpt>
      <trkpt lat="59.9582215" lon="17.7129291">
        <ele>28.0155</ele>
        <time>2014-06-17T13:44:46Z</time>
      </trkpt>
      <trkpt lat="59.9582141" lon="17.7128791">
        <ele>25.1317</ele>
        <time>2014-06-17T13:44:47Z</time>
      </trkpt>
      <trkpt lat="59.9582192" lon="17.7128367">
        <ele>25.1317</ele>
        <time>2014-06-17T13:44:48Z</time>
      </trkpt>
      <trkpt lat="59.9582199" lon="17.7127892">
        <ele>24.1703</ele>
        <time>2014-06-17T13:44:49Z</time>
      </trkpt>
      <trkpt lat="59.958208" lon="17.7127302">
        <ele>21.767</ele>
        <time>2014-06-17T13:44:50Z</time>
      </trkpt>
      <trkpt lat="59.9582004" lon="17.7126727">
        <ele>19.8444</ele>
        <time>2014-06-17T13:44:51Z</time>
      </trkpt>
      <trkpt lat="59.9582101" lon="17.7126411">
        <ele>21.767</ele>
        <time>2014-06-17T13:44:52Z</time>
      </trkpt>
      <trkpt lat="59.9582115" lon="17.7125981">
        <ele>22.2476</ele>
        <time>2014-06-17T13:44:53Z</time>
      </trkpt>
      <trkpt lat="59.9582163" lon="17.7125451">
        <ele>21.767</ele>
        <time>2014-06-17T13:44:54Z</time>
      </trkpt>
      <trkpt lat="59.958221" lon="17.7124941">
        <ele>21.767</ele>
        <time>2014-06-17T13:44:55Z</time>
      </trkpt>
      <trkpt lat="59.9582248" lon="17.7124473">
        <ele>21.2864</ele>
        <time>2014-06-17T13:44:56Z</time>
      </trkpt>
      <trkpt lat="59.9582324" lon="17.712402">
        <ele>21.2864</ele>
        <time>2014-06-17T13:44:57Z</time>
      </trkpt>
      <trkpt lat="59.9582508" lon="17.7123687">
        <ele>23.209</ele>
        <time>2014-06-17T13:44:58Z</time>
      </trkpt>
      <trkpt lat="59.9582555" lon="17.7123219">
        <ele>22.2476</ele>
        <time>2014-06-17T13:44:59Z</time>
      </trkpt>
      <trkpt lat="59.9582685" lon="17.7122845">
        <ele>22.7283</ele>
        <time>2014-06-17T13:45:00Z</time>
      </trkpt>
      <trkpt lat="59.9582829" lon="17.7122501">
        <ele>24.651</ele>
        <time>2014-06-17T13:45:01Z</time>
      </trkpt>
      <trkpt lat="59.9582955" lon="17.712208">
        <ele>26.0929</ele>
        <time>2014-06-17T13:45:02Z</time>
      </trkpt>
      <trkpt lat="59.9583035" lon="17.712163">
        <ele>27.0543</ele>
        <time>2014-06-17T13:45:03Z</time>
      </trkpt>
      <trkpt lat="59.9583077" lon="17.7121251">
        <ele>27.0543</ele>
        <time>2014-06-17T13:45:04Z</time>
      </trkpt>
      <trkpt lat="59.9583147" lon="17.7120807">
        <ele>28.0155</ele>
        <time>2014-06-17T13:45:05Z</time>
      </trkpt>
      <trkpt lat="59.9583256" lon="17.7120303">
        <ele>29.4575</ele>
        <time>2014-06-17T13:45:06Z</time>
      </trkpt>
      <trkpt lat="59.9583225" lon="17.7119685">
        <ele>28.4962</ele>
        <time>2014-06-17T13:45:07Z</time>
      </trkpt>
      <trkpt lat="59.9583154" lon="17.7119074">
        <ele>27.0543</ele>
        <time>2014-06-17T13:45:08Z</time>
      </trkpt>
      <trkpt lat="59.958328" lon="17.7118719">
        <ele>28.9769</ele>
        <time>2014-06-17T13:45:09Z</time>
      </trkpt>
      <trkpt lat="59.958328" lon="17.711824">
        <ele>29.4575</ele>
        <time>2014-06-17T13:45:10Z</time>
      </trkpt>
      <trkpt lat="59.9583266" lon="17.7117687">
        <ele>30.4188</ele>
        <time>2014-06-17T13:45:11Z</time>
      </trkpt>
      <trkpt lat="59.9583493" lon="17.7117463">
        <ele>32.8223</ele>
        <time>2014-06-17T13:45:12Z</time>
      </trkpt>
      <trkpt lat="59.9583732" lon="17.7117237">
        <ele>35.2255</ele>
        <time>2014-06-17T13:45:13Z</time>
      </trkpt>
      <trkpt lat="59.9583985" lon="17.7116981">
        <ele>38.1094</ele>
        <time>2014-06-17T13:45:14Z</time>
      </trkpt>
      <trkpt lat="59.9584115" lon="17.7116597">
        <ele>38.5901</ele>
        <time>2014-06-17T13:45:15Z</time>
      </trkpt>
      <trkpt lat="59.9584213" lon="17.7116243">
        <ele>39.0707</ele>
        <time>2014-06-17T13:45:16Z</time>
      </trkpt>
      <trkpt lat="59.9584251" lon="17.7115865">
        <ele>38.5901</ele>
        <time>2014-06-17T13:45:17Z</time>
      </trkpt>
      <trkpt lat="59.9584392" lon="17.711557">
        <ele>40.0321</ele>
        <time>2014-06-17T13:45:18Z</time>
      </trkpt>
      <trkpt lat="59.9584415" lon="17.7115199">
        <ele>40.0321</ele>
        <time>2014-06-17T13:45:19Z</time>
      </trkpt>
      <trkpt lat="59.9584461" lon="17.7114817">
        <ele>39.5513</ele>
        <time>2014-06-17T13:45:20Z</time>
      </trkpt>
      <trkpt lat="59.9584473" lon="17.711429">
        <ele>39.5513</ele>
        <time>2014-06-17T13:45:21Z</time>
      </trkpt>
      <trkpt lat="59.958437" lon="17.7113678">
        <ele>38.5901</ele>
        <time>2014-06-17T13:45:22Z</time>
      </trkpt>
      <trkpt lat="59.9584325" lon="17.7113081">
        <ele>38.1094</ele>
        <time>2014-06-17T13:45:23Z</time>
      </trkpt>
      <trkpt lat="59.9584416" lon="17.711271">
        <ele>38.1094</ele>
        <time>2014-06-17T13:45:24Z</time>
      </trkpt>
      <trkpt lat="59.958456" lon="17.7112453">
        <ele>40.0321</ele>
        <time>2014-06-17T13:45:25Z</time>
      </trkpt>
      <trkpt lat="59.9584616" lon="17.7112014">
        <ele>39.5513</ele>
        <time>2014-06-17T13:45:26Z</time>
      </trkpt>
      <trkpt lat="59.958489" lon="17.7111792">
        <ele>43.3966</ele>
        <time>2014-06-17T13:45:27Z</time>
      </trkpt>
      <trkpt lat="59.9584864" lon="17.7111255">
        <ele>43.3966</ele>
        <time>2014-06-17T13:45:28Z</time>
      </trkpt>
      <trkpt lat="59.9584938" lon="17.7110812">
        <ele>43.8773</ele>
        <time>2014-06-17T13:45:29Z</time>
      </trkpt>
      <trkpt lat="59.9585052" lon="17.7110478">
        <ele>45.3192</ele>
        <time>2014-06-17T13:45:30Z</time>
      </trkpt>
      <trkpt lat="59.9585073" lon="17.7110031">
        <ele>44.8386</ele>
        <time>2014-06-17T13:45:31Z</time>
      </trkpt>
      <trkpt lat="59.9585036" lon="17.7109429">
        <ele>44.358</ele>
        <time>2014-06-17T13:45:32Z</time>
      </trkpt>
      <trkpt lat="59.9584975" lon="17.7108793">
        <ele>44.358</ele>
        <time>2014-06-17T13:45:33Z</time>
      </trkpt>
      <trkpt lat="59.9585011" lon="17.7108314">
        <ele>44.8386</ele>
        <time>2014-06-17T13:45:34Z</time>
      </trkpt>
      <trkpt lat="59.9584923" lon="17.7107644">
        <ele>43.3966</ele>
        <time>2014-06-17T13:45:35Z</time>
      </trkpt>
      <trkpt lat="59.9584949" lon="17.7107079">
        <ele>44.358</ele>
        <time>2014-06-17T13:45:36Z</time>
      </trkpt>
      <trkpt lat="59.9585041" lon="17.7106669">
        <ele>44.8386</ele>
        <time>2014-06-17T13:45:37Z</time>
      </trkpt>
      <trkpt lat="59.9585103" lon="17.7106175">
        <ele>44.8386</ele>
        <time>2014-06-17T13:45:38Z</time>
      </trkpt>
      <trkpt lat="59.9585131" lon="17.7105657">
        <ele>44.358</ele>
        <time>2014-06-17T13:45:39Z</time>
      </trkpt>
      <trkpt lat="59.9585238" lon="17.710525">
        <ele>44.358</ele>
        <time>2014-06-17T13:45:40Z</time>
      </trkpt>
      <trkpt lat="59.9585283" lon="17.7104742">
        <ele>42.916</ele>
        <time>2014-06-17T13:45:41Z</time>
      </trkpt>
      <trkpt lat="59.9585377" lon="17.7104385">
        <ele>42.916</ele>
        <time>2014-06-17T13:45:42Z</time>
      </trkpt>
      <trkpt lat="59.9585341" lon="17.7103819">
        <ele>40.9934</ele>
        <time>2014-06-17T13:45:43Z</time>
      </trkpt>
      <trkpt lat="59.9585429" lon="17.7103308">
        <ele>40.5128</ele>
        <time>2014-06-17T13:45:44Z</time>
      </trkpt>
      <trkpt lat="59.9585543" lon="17.7102945">
        <ele>40.5128</ele>
        <time>2014-06-17T13:45:45Z</time>
      </trkpt>
      <trkpt lat="59.9585481" lon="17.7102406">
        <ele>38.5901</ele>
        <time>2014-06-17T13:45:46Z</time>
      </trkpt>
      <trkpt lat="59.9585465" lon="17.7101871">
        <ele>36.6675</ele>
        <time>2014-06-17T13:45:47Z</time>
      </trkpt>
      <trkpt lat="59.9585483" lon="17.7101432">
        <ele>35.2255</ele>
        <time>2014-06-17T13:45:48Z</time>
      </trkpt>
      <trkpt lat="59.9585497" lon="17.7100957">
        <ele>34.7449</ele>
        <time>2014-06-17T13:45:49Z</time>
      </trkpt>
      <trkpt lat="59.9585549" lon="17.7100494">
        <ele>35.2255</ele>
        <time>2014-06-17T13:45:50Z</time>
      </trkpt>
      <trkpt lat="59.9585434" lon="17.7099965">
        <ele>32.8223</ele>
        <time>2014-06-17T13:45:51Z</time>
      </trkpt>
      <trkpt lat="59.9585502" lon="17.7099587">
        <ele>33.3029</ele>
        <time>2014-06-17T13:45:52Z</time>
      </trkpt>
      <trkpt lat="59.9585348" lon="17.7098862">
        <ele>30.8995</ele>
        <time>2014-06-17T13:45:53Z</time>
      </trkpt>
      <trkpt lat="59.9585397" lon="17.7098407">
        <ele>31.3801</ele>
        <time>2014-06-17T13:45:54Z</time>
      </trkpt>
      <trkpt lat="59.9585302" lon="17.7097786">
        <ele>29.9381</ele>
        <time>2014-06-17T13:45:55Z</time>
      </trkpt>
      <trkpt lat="59.9585116" lon="17.7097131">
        <ele>26.5736</ele>
        <time>2014-06-17T13:45:56Z</time>
      </trkpt>
      <trkpt lat="59.9585135" lon="17.7096693">
        <ele>26.0929</ele>
        <time>2014-06-17T13:45:57Z</time>
      </trkpt>
      <trkpt lat="59.9585203" lon="17.7096413">
        <ele>26.0929</ele>
        <time>2014-06-17T13:45:58Z</time>
      </trkpt>
      <trkpt lat="59.9585284" lon="17.7096126">
        <ele>26.0929</ele>
        <time>2014-06-17T13:45:59Z</time>
      </trkpt>
      <trkpt lat="59.9585268" lon="17.7095649">
        <ele>25.1317</ele>
        <time>2014-06-17T13:46:00Z</time>
      </trkpt>
      <trkpt lat="59.9585291" lon="17.7095221">
        <ele>24.651</ele>
        <time>2014-06-17T13:46:01Z</time>
      </trkpt>
      <trkpt lat="59.958527" lon="17.7094755">
        <ele>22.2476</ele>
        <time>2014-06-17T13:46:02Z</time>
      </trkpt>
      <trkpt lat="59.9585367" lon="17.7094376">
        <ele>21.767</ele>
        <time>2014-06-17T13:46:03Z</time>
      </trkpt>
      <trkpt lat="59.9585166" lon="17.7093641">
        <ele>17.4412</ele>
        <time>2014-06-17T13:46:04Z</time>
      </trkpt>
      <trkpt lat="59.9585012" lon="17.7092948">
        <ele>15.999</ele>
        <time>2014-06-17T13:46:05Z</time>
      </trkpt>
      <trkpt lat="59.9584861" lon="17.7092288">
        <ele>14.0764</ele>
        <time>2014-06-17T13:46:06Z</time>
      </trkpt>
      <trkpt lat="59.9584819" lon="17.7091683">
        <ele>13.1151</ele>
        <time>2014-06-17T13:46:07Z</time>
      </trkpt>
      <trkpt lat="59.9585016" lon="17.7091389">
        <ele>15.0377</ele>
        <time>2014-06-17T13:46:08Z</time>
      </trkpt>
      <trkpt lat="59.9585366" lon="17.709128">
        <ele>18.4023</ele>
        <time>2014-06-17T13:46:09Z</time>
      </trkpt>
      <trkpt lat="59.9585413" lon="17.7090807">
        <ele>18.4023</ele>
        <time>2014-06-17T13:46:10Z</time>
      </trkpt>
      <trkpt lat="59.9585172" lon="17.7090103">
        <ele>14.557</ele>
        <time>2014-06-17T13:46:11Z</time>
      </trkpt>
      <trkpt lat="59.9585162" lon="17.7089782">
        <ele>14.557</ele>
        <time>2014-06-17T13:46:12Z</time>
      </trkpt>
      <trkpt lat="59.9585296" lon="17.7089466">
        <ele>15.999</ele>
        <time>2014-06-17T13:46:13Z</time>
      </trkpt>
      <trkpt lat="59.9585217" lon="17.708886">
        <ele>13.1151</ele>
        <time>2014-06-17T13:46:14Z</time>
      </trkpt>
      <trkpt lat="59.9584942" lon="17.7088069">
        <ele>8.30859</ele>
        <time>2014-06-17T13:46:15Z</time>
      </trkpt>
      <trkpt lat="59.9584712" lon="17.7087363">
        <ele>4.46326</ele>
        <time>2014-06-17T13:46:16Z</time>
      </trkpt>
      <trkpt lat="59.9584721" lon="17.7086822">
        <ele>4.46326</ele>
        <time>2014-06-17T13:46:17Z</time>
      </trkpt>
      <trkpt lat="59.9584845" lon="17.7086428">
        <ele>4.46326</ele>
        <time>2014-06-17T13:46:18Z</time>
      </trkpt>
      <trkpt lat="59.9585078" lon="17.7086243">
        <ele>6.38586</ele>
        <time>2014-06-17T13:46:19Z</time>
      </trkpt>
      <trkpt lat="59.958514" lon="17.7085819">
        <ele>5.90527</ele>
        <time>2014-06-17T13:46:20Z</time>
      </trkpt>
      <trkpt lat="59.9585109" lon="17.7085431">
        <ele>3.50195</ele>
        <time>2014-06-17T13:46:21Z</time>
      </trkpt>
      <trkpt lat="59.958513" lon="17.7085103">
        <ele>2.06006</ele>
        <time>2014-06-17T13:46:22Z</time>
      </trkpt>
      <trkpt lat="59.9585196" lon="17.7084741">
        <ele>0.618042</ele>
        <time>2014-06-17T13:46:23Z</time>
      </trkpt>
      <trkpt lat="59.9585261" lon="17.7084455">
        <ele>0.137451</ele>
        <time>2014-06-17T13:46:24Z</time>
      </trkpt>
      <trkpt lat="59.9585276" lon="17.7084152">
        <ele>0</ele>
        <time>2014-06-17T13:46:25Z</time>
      </trkpt>
      <trkpt lat="59.9585627" lon="17.7084072">
        <ele>2.54065</ele>
        <time>2014-06-17T13:46:26Z</time>
      </trkpt>
      <trkpt lat="59.9585928" lon="17.7083876">
        <ele>4.94385</ele>
        <time>2014-06-17T13:46:27Z</time>
      </trkpt>
      <trkpt lat="59.958615" lon="17.708368">
        <ele>5.90527</ele>
        <time>2014-06-17T13:46:28Z</time>
      </trkpt>
      <trkpt lat="59.958642" lon="17.7083557">
        <ele>8.30859</ele>
        <time>2014-06-17T13:46:29Z</time>
      </trkpt>
      <trkpt lat="59.9586658" lon="17.7083359">
        <ele>9.75061</ele>
        <time>2014-06-17T13:46:30Z</time>
      </trkpt>
      <trkpt lat="59.9586864" lon="17.7083079">
        <ele>11.1925</ele>
        <time>2014-06-17T13:46:31Z</time>
      </trkpt>
      <trkpt lat="59.958703" lon="17.7082738">
        <ele>12.1538</ele>
        <time>2014-06-17T13:46:32Z</time>
      </trkpt>
      <trkpt lat="59.9587179" lon="17.70824">
        <ele>13.1151</ele>
        <time>2014-06-17T13:46:33Z</time>
      </trkpt>
      <trkpt lat="59.958739" lon="17.7082157">
        <ele>14.0764</ele>
        <time>2014-06-17T13:46:34Z</time>
      </trkpt>
      <trkpt lat="59.9587595" lon="17.7081965">
        <ele>15.999</ele>
        <time>2014-06-17T13:46:35Z</time>
      </trkpt>
      <trkpt lat="59.9587731" lon="17.7081789">
        <ele>16.4797</ele>
        <time>2014-06-17T13:46:36Z</time>
      </trkpt>
      <trkpt lat="59.9587916" lon="17.7081622">
        <ele>17.4412</ele>
        <time>2014-06-17T13:46:37Z</time>
      </trkpt>
      <trkpt lat="59.9588066" lon="17.7081323">
        <ele>18.4023</ele>
        <time>2014-06-17T13:46:38Z</time>
      </trkpt>
      <trkpt lat="59.9588166" lon="17.7080966">
        <ele>19.3638</ele>
        <time>2014-06-17T13:46:39Z</time>
      </trkpt>
      <trkpt lat="59.9588295" lon="17.7080585">
        <ele>19.3638</ele>
        <time>2014-06-17T13:46:40Z</time>
      </trkpt>
      <trkpt lat="59.9588547" lon="17.7080327">
        <ele>20.325</ele>
        <time>2014-06-17T13:46:41Z</time>
      </trkpt>
      <trkpt lat="59.9588664" lon="17.7080042">
        <ele>19.8444</ele>
        <time>2014-06-17T13:46:42Z</time>
      </trkpt>
      <trkpt lat="59.9588809" lon="17.7079768">
        <ele>20.325</ele>
        <time>2014-06-17T13:46:43Z</time>
      </trkpt>
      <trkpt lat="59.9588838" lon="17.7079401">
        <ele>19.8444</ele>
        <time>2014-06-17T13:46:44Z</time>
      </trkpt>
      <trkpt lat="59.9588873" lon="17.7079168">
        <ele>20.8057</ele>
        <time>2014-06-17T13:46:45Z</time>
      </trkpt>
      <trkpt lat="59.9588829" lon="17.707886">
        <ele>19.3638</ele>
        <time>2014-06-17T13:46:46Z</time>
      </trkpt>
      <trkpt lat="59.9588816" lon="17.7078406">
        <ele>17.4412</ele>
        <time>2014-06-17T13:46:47Z</time>
      </trkpt>
      <trkpt lat="59.9588901" lon="17.7077944">
        <ele>15.999</ele>
        <time>2014-06-17T13:46:48Z</time>
      </trkpt>
      <trkpt lat="59.9589003" lon="17.7077491">
        <ele>15.0377</ele>
        <time>2014-06-17T13:46:49Z</time>
      </trkpt>
      <trkpt lat="59.9589176" lon="17.7076982">
        <ele>15.999</ele>
        <time>2014-06-17T13:46:50Z</time>
      </trkpt>
      <trkpt lat="59.958916" lon="17.7076521">
        <ele>17.9218</ele>
        <time>2014-06-17T13:46:51Z</time>
      </trkpt>
      <trkpt lat="59.9589073" lon="17.7075837">
        <ele>17.4412</ele>
        <time>2014-06-17T13:46:52Z</time>
      </trkpt>
      <trkpt lat="59.9589322" lon="17.7075468">
        <ele>20.8057</ele>
        <time>2014-06-17T13:46:53Z</time>
      </trkpt>
      <trkpt lat="59.9589585" lon="17.7075231">
        <ele>24.651</ele>
        <time>2014-06-17T13:46:54Z</time>
      </trkpt>
      <trkpt lat="59.958965" lon="17.7074737">
        <ele>26.0929</ele>
        <time>2014-06-17T13:46:55Z</time>
      </trkpt>
      <trkpt lat="59.958951" lon="17.7074039">
        <ele>23.209</ele>
        <time>2014-06-17T13:46:56Z</time>
      </trkpt>
      <trkpt lat="59.958933" lon="17.7073335">
        <ele>20.325</ele>
        <time>2014-06-17T13:46:57Z</time>
      </trkpt>
      <trkpt lat="59.9589325" lon="17.7072822">
        <ele>19.3638</ele>
        <time>2014-06-17T13:46:58Z</time>
      </trkpt>
      <trkpt lat="59.9589145" lon="17.7072056">
        <ele>15.0377</ele>
        <time>2014-06-17T13:46:59Z</time>
      </trkpt>
      <trkpt lat="59.9589295" lon="17.7071718">
        <ele>15.999</ele>
        <time>2014-06-17T13:47:00Z</time>
      </trkpt>
      <trkpt lat="59.9589404" lon="17.7071388">
        <ele>15.999</ele>
        <time>2014-06-17T13:47:01Z</time>
      </trkpt>
      <trkpt lat="59.9589744" lon="17.7071297">
        <ele>18.8831</ele>
        <time>2014-06-17T13:47:02Z</time>
      </trkpt>
      <trkpt lat="59.9589979" lon="17.707108">
        <ele>20.325</ele>
        <time>2014-06-17T13:47:03Z</time>
      </trkpt>
      <trkpt lat="59.9590111" lon="17.7070811">
        <ele>20.8057</ele>
        <time>2014-06-17T13:47:04Z</time>
      </trkpt>
      <trkpt lat="59.9590208" lon="17.7070548">
        <ele>21.2864</ele>
        <time>2014-06-17T13:47:05Z</time>
      </trkpt>
      <trkpt lat="59.9590377" lon="17.7070315">
        <ele>21.2864</ele>
        <time>2014-06-17T13:47:06Z</time>
      </trkpt>
      <trkpt lat="59.9590637" lon="17.7070168">
        <ele>23.6896</ele>
        <time>2014-06-17T13:47:07Z</time>
      </trkpt>
      <trkpt lat="59.959075" lon="17.706986">
        <ele>24.1703</ele>
        <time>2014-06-17T13:47:08Z</time>
      </trkpt>
      <trkpt lat="59.9590915" lon="17.7069542">
        <ele>26.0929</ele>
        <time>2014-06-17T13:47:09Z</time>
      </trkpt>
      <trkpt lat="59.9591061" lon="17.706922">
        <ele>27.0543</ele>
        <time>2014-06-17T13:47:10Z</time>
      </trkpt>
      <trkpt lat="59.9591185" lon="17.7068863">
        <ele>27.5349</ele>
        <time>2014-06-17T13:47:11Z</time>
      </trkpt>
      <trkpt lat="59.9591423" lon="17.7068532">
        <ele>29.9381</ele>
        <time>2014-06-17T13:47:12Z</time>
      </trkpt>
      <trkpt lat="59.9591637" lon="17.7068174">
        <ele>31.8607</ele>
        <time>2014-06-17T13:47:13Z</time>
      </trkpt>
      <trkpt lat="59.9591813" lon="17.7067814">
        <ele>34.7449</ele>
        <time>2014-06-17T13:47:14Z</time>
      </trkpt>
      <trkpt lat="59.9591963" lon="17.7067481">
        <ele>37.6287</ele>
        <time>2014-06-17T13:47:15Z</time>
      </trkpt>
      <trkpt lat="59.9592014" lon="17.7067105">
        <ele>38.1094</ele>
        <time>2014-06-17T13:47:16Z</time>
      </trkpt>
      <trkpt lat="59.9592083" lon="17.7066758">
        <ele>37.6287</ele>
        <time>2014-06-17T13:47:17Z</time>
      </trkpt>
      <trkpt lat="59.9592314" lon="17.7066456">
        <ele>38.5901</ele>
        <time>2014-06-17T13:47:18Z</time>
      </trkpt>
      <trkpt lat="59.9592538" lon="17.7066109">
        <ele>39.0707</ele>
        <time>2014-06-17T13:47:19Z</time>
      </trkpt>
      <trkpt lat="59.9592744" lon="17.7065783">
        <ele>40.0321</ele>
        <time>2014-06-17T13:47:20Z</time>
      </trkpt>
      <trkpt lat="59.9592831" lon="17.706528">
        <ele>39.5513</ele>
        <time>2014-06-17T13:47:21Z</time>
      </trkpt>
      <trkpt lat="59.959302" lon="17.7064848">
        <ele>41.474</ele>
        <time>2014-06-17T13:47:22Z</time>
      </trkpt>
      <trkpt lat="59.959325" lon="17.7064455">
        <ele>42.4354</ele>
        <time>2014-06-17T13:47:23Z</time>
      </trkpt>
      <trkpt lat="59.9593464" lon="17.7064133">
        <ele>43.3966</ele>
        <time>2014-06-17T13:47:24Z</time>
      </trkpt>
      <trkpt lat="59.9593673" lon="17.7063937">
        <ele>45.3192</ele>
        <time>2014-06-17T13:47:25Z</time>
      </trkpt>
      <trkpt lat="59.9593914" lon="17.706374">
        <ele>47.7225</ele>
        <time>2014-06-17T13:47:26Z</time>
      </trkpt>
      <trkpt lat="59.959404" lon="17.706347">
        <ele>48.2034</ele>
        <time>2014-06-17T13:47:27Z</time>
      </trkpt>
      <trkpt lat="59.9594238" lon="17.7063259">
        <ele>49.1646</ele>
        <time>2014-06-17T13:47:28Z</time>
      </trkpt>
      <trkpt lat="59.95944" lon="17.7062973">
        <ele>49.6453</ele>
        <time>2014-06-17T13:47:29Z</time>
      </trkpt>
      <trkpt lat="59.9594545" lon="17.7062665">
        <ele>50.6066</ele>
        <time>2014-06-17T13:47:30Z</time>
      </trkpt>
      <trkpt lat="59.9594625" lon="17.7062333">
        <ele>49.6453</ele>
        <time>2014-06-17T13:47:31Z</time>
      </trkpt>
      <trkpt lat="59.959461" lon="17.7061908">
        <ele>48.2034</ele>
        <time>2014-06-17T13:47:32Z</time>
      </trkpt>
      <trkpt lat="59.9594675" lon="17.7061534">
        <ele>47.2418</ele>
        <time>2014-06-17T13:47:33Z</time>
      </trkpt>
      <trkpt lat="59.9594859" lon="17.706126">
        <ele>46.2806</ele>
        <time>2014-06-17T13:47:34Z</time>
      </trkpt>
      <trkpt lat="59.9595089" lon="17.7061054">
        <ele>46.2806</ele>
        <time>2014-06-17T13:47:35Z</time>
      </trkpt>
      <trkpt lat="59.959518" lon="17.7060669">
        <ele>44.358</ele>
        <time>2014-06-17T13:47:36Z</time>
      </trkpt>
      <trkpt lat="59.9595205" lon="17.7060296">
        <ele>41.9547</ele>
        <time>2014-06-17T13:47:37Z</time>
      </trkpt>
      <trkpt lat="59.959533" lon="17.705992">
        <ele>42.916</ele>
        <time>2014-06-17T13:47:38Z</time>
      </trkpt>
      <trkpt lat="59.9595557" lon="17.705958">
        <ele>45.3192</ele>
        <time>2014-06-17T13:47:39Z</time>
      </trkpt>
      <trkpt lat="59.9595576" lon="17.7059085">
        <ele>43.8773</ele>
        <time>2014-06-17T13:47:40Z</time>
      </trkpt>
      <trkpt lat="59.9595615" lon="17.7058591">
        <ele>41.9547</ele>
        <time>2014-06-17T13:47:41Z</time>
      </trkpt>
      <trkpt lat="59.9595937" lon="17.7058304">
        <ele>44.8386</ele>
        <time>2014-06-17T13:47:42Z</time>
      </trkpt>
      <trkpt lat="59.9596183" lon="17.7057946">
        <ele>47.2418</ele>
        <time>2014-06-17T13:47:43Z</time>
      </trkpt>
      <trkpt lat="59.9596291" lon="17.7057444">
        <ele>47.7225</ele>
        <time>2014-06-17T13:47:44Z</time>
      </trkpt>
      <trkpt lat="59.9596499" lon="17.7057019">
        <ele>50.126</ele>
        <time>2014-06-17T13:47:45Z</time>
      </trkpt>
      <trkpt lat="59.9596758" lon="17.7056832">
        <ele>53.4905</ele>
        <time>2014-06-17T13:47:46Z</time>
      </trkpt>
      <trkpt lat="59.9596913" lon="17.7056568">
        <ele>54.9324</ele>
        <time>2014-06-17T13:47:47Z</time>
      </trkpt>
      <trkpt lat="59.9596915" lon="17.7056013">
        <ele>53.4905</ele>
        <time>2014-06-17T13:47:48Z</time>
      </trkpt>
      <trkpt lat="59.9597081" lon="17.7055605">
        <ele>53.4905</ele>
        <time>2014-06-17T13:47:49Z</time>
      </trkpt>
      <trkpt lat="59.9597411" lon="17.7055371">
        <ele>56.3745</ele>
        <time>2014-06-17T13:47:50Z</time>
      </trkpt>
      <trkpt lat="59.9597591" lon="17.7055096">
        <ele>56.3745</ele>
        <time>2014-06-17T13:47:51Z</time>
      </trkpt>
      <trkpt lat="59.9598024" lon="17.7053252">
        <ele>29.4575</ele>
        <time>2014-06-17T13:48:31Z</time>
      </trkpt>
      <trkpt lat="59.959789" lon="17.7052895">
        <ele>28.0155</ele>
        <time>2014-06-17T13:48:32Z</time>
      </trkpt>
      <trkpt lat="59.9597754" lon="17.7052729">
        <ele>28.0155</ele>
        <time>2014-06-17T13:48:33Z</time>
      </trkpt>
    </trkseg>
  </trk>
</gpx>